<?xml version='1.0' encoding='UTF-8'?><gpx version="1.1" creator="JPX - https://github.com/jenetics/jpx" xmlns="http://www.topografix.com/GPX/1/1"><trk><trkseg><trkpt lat="42.0418599" lon="11.8925805"><ele>7.999999999999999</ele><time>2026-04-11T15:43:27.026Z</time></trkpt><trkpt lat="42.0417897" lon="11.8926005"><ele>8.0</ele><time>2026-04-11T15:43:28.026Z</time></trkpt><trkpt lat="42.0417199" lon="11.8925964"><ele>8.0</ele><time>2026-04-11T15:43:29.027Z</time></trkpt><trkpt lat="42.0416526" lon="11.8925197"><ele>8.0</ele><time>2026-04-11T15:43:30.027Z</time></trkpt><trkpt lat="42.0415786" lon="11.8924947"><ele>7.999999999999999</ele><time>2026-04-11T15:43:32.027Z</time></trkpt><trkpt lat="42.0416845" lon="11.8924839"><ele>8.0</ele><time>2026-04-11T15:43:33.027Z</time></trkpt><trkpt lat="42.0417424" lon="11.8925187"><ele>8.0</ele><time>2026-04-11T15:43:35.026Z</time></trkpt><trkpt lat="42.0419195" lon="11.8925542"><ele>8.0</ele><time>2026-04-11T15:43:42.027Z</time></trkpt><trkpt lat="42.041989" lon="11.8925077"><ele>8.0</ele><time>2026-04-11T15:44:17.028Z</time></trkpt><trkpt lat="42.0420855" lon="11.8924435"><ele>8.0</ele><time>2026-04-11T15:44:19.027Z</time></trkpt><trkpt lat="42.0422294" lon="11.8924252"><ele>8.0</ele><time>2026-04-11T15:44:21.027Z</time></trkpt><trkpt lat="42.0423008" lon="11.8923996"><ele>8.0</ele><time>2026-04-11T15:44:22.028Z</time></trkpt><trkpt lat="42.0424424" lon="11.8923679"><ele>8.0</ele><time>2026-04-11T15:44:24.028Z</time></trkpt><trkpt lat="42.042551" lon="11.8923263"><ele>8.0</ele><time>2026-04-11T15:44:26.027Z</time></trkpt><trkpt lat="42.042612" lon="11.8922995"><ele>8.0</ele><time>2026-04-11T15:44:27.028Z</time></trkpt><trkpt lat="42.0426836" lon="11.892272"><ele>8.600000000000001</ele><time>2026-04-11T15:44:28.028Z</time></trkpt><trkpt lat="42.0427925" lon="11.8922285"><ele>9.200000000000001</ele><time>2026-04-11T15:44:29.027Z</time></trkpt><trkpt lat="42.0428989" lon="11.8921713"><ele>9.8</ele><time>2026-04-11T15:44:30.027Z</time></trkpt><trkpt lat="42.0429918" lon="11.8921171"><ele>10.4</ele><time>2026-04-11T15:44:31.028Z</time></trkpt><trkpt lat="42.0430871" lon="11.8920666"><ele>11.0</ele><time>2026-04-11T15:44:32.028Z</time></trkpt><trkpt lat="42.0431849" lon="11.891998"><ele>11.0</ele><time>2026-04-11T15:44:33.028Z</time></trkpt><trkpt lat="42.0432514" lon="11.8919145"><ele>11.0</ele><time>2026-04-11T15:44:34.027Z</time></trkpt><trkpt lat="42.0432938" lon="11.8918322"><ele>11.0</ele><time>2026-04-11T15:44:35.028Z</time></trkpt><trkpt lat="42.0433901" lon="11.8918012"><ele>11.0</ele><time>2026-04-11T15:44:36.028Z</time></trkpt><trkpt lat="42.0434985" lon="11.8917643"><ele>11.0</ele><time>2026-04-11T15:44:37.028Z</time></trkpt><trkpt lat="42.0436257" lon="11.891684"><ele>11.75</ele><time>2026-04-11T15:44:38.027Z</time></trkpt><trkpt lat="42.0437033" lon="11.8915831"><ele>12.5</ele><time>2026-04-11T15:44:39.028Z</time></trkpt><trkpt lat="42.0438077" lon="11.891505"><ele>13.25</ele><time>2026-04-11T15:44:40.028Z</time></trkpt><trkpt lat="42.0439127" lon="11.8914005"><ele>14.0</ele><time>2026-04-11T15:44:41.027Z</time></trkpt><trkpt lat="42.0440421" lon="11.89132"><ele>14.0</ele><time>2026-04-11T15:44:42.028Z</time></trkpt><trkpt lat="42.0441575" lon="11.8912596"><ele>13.999999999999998</ele><time>2026-04-11T15:44:43.027Z</time></trkpt><trkpt lat="42.0442512" lon="11.891187"><ele>13.999999999999998</ele><time>2026-04-11T15:44:44.028Z</time></trkpt><trkpt lat="42.0443265" lon="11.8911009"><ele>14.0</ele><time>2026-04-11T15:44:45.027Z</time></trkpt><trkpt lat="42.0443753" lon="11.8910082"><ele>14.0</ele><time>2026-04-11T15:44:46.027Z</time></trkpt><trkpt lat="42.0444316" lon="11.8909238"><ele>14.000000000000002</ele><time>2026-04-11T15:44:47.028Z</time></trkpt><trkpt lat="42.0445133" lon="11.8908435"><ele>14.0</ele><time>2026-04-11T15:44:48.028Z</time></trkpt><trkpt lat="42.0446076" lon="11.8907853"><ele>14.0</ele><time>2026-04-11T15:44:49.028Z</time></trkpt><trkpt lat="42.0446837" lon="11.8907398"><ele>14.0</ele><time>2026-04-11T15:44:50.028Z</time></trkpt><trkpt lat="42.0447392" lon="11.8906883"><ele>14.000000000000002</ele><time>2026-04-11T15:44:51.028Z</time></trkpt><trkpt lat="42.0448125" lon="11.890663"><ele>14.0</ele><time>2026-04-11T15:44:52.027Z</time></trkpt><trkpt lat="42.0448857" lon="11.8906263"><ele>14.75</ele><time>2026-04-11T15:44:53.028Z</time></trkpt><trkpt lat="42.0449707" lon="11.8905908"><ele>15.5</ele><time>2026-04-11T15:44:54.027Z</time></trkpt><trkpt lat="42.04517" lon="11.8905468"><ele>16.25</ele><time>2026-04-11T15:44:56.027Z</time></trkpt><trkpt lat="42.0453003" lon="11.8905003"><ele>17.0</ele><time>2026-04-11T15:44:58.027Z</time></trkpt><trkpt lat="42.0453718" lon="11.8904555"><ele>17.0</ele><time>2026-04-11T15:44:59.028Z</time></trkpt><trkpt lat="42.0455005" lon="11.890419"><ele>17.0</ele><time>2026-04-11T15:45:01.027Z</time></trkpt><trkpt lat="42.0455939" lon="11.8903992"><ele>17.0</ele><time>2026-04-11T15:45:03.028Z</time></trkpt><trkpt lat="42.0456891" lon="11.8903296"><ele>17.0</ele><time>2026-04-11T15:45:05.027Z</time></trkpt><trkpt lat="42.0457642" lon="11.8903076"><ele>17.0</ele><time>2026-04-11T15:45:06.028Z</time></trkpt><trkpt lat="42.0458391" lon="11.8902896"><ele>18.0</ele><time>2026-04-11T15:45:07.028Z</time></trkpt><trkpt lat="42.0460669" lon="11.8902765"><ele>19.0</ele><time>2026-04-11T15:45:09.027Z</time></trkpt><trkpt lat="42.0462161" lon="11.8902326"><ele>20.0</ele><time>2026-04-11T15:45:10.027Z</time></trkpt><trkpt lat="42.0463783" lon="11.8901458"><ele>19.8</ele><time>2026-04-11T15:45:11.028Z</time></trkpt><trkpt lat="42.0465202" lon="11.8900771"><ele>19.6</ele><time>2026-04-11T15:45:12.027Z</time></trkpt><trkpt lat="42.0466198" lon="11.8900419"><ele>19.4</ele><time>2026-04-11T15:45:13.027Z</time></trkpt><trkpt lat="42.0467125" lon="11.8900361"><ele>19.2</ele><time>2026-04-11T15:45:14.027Z</time></trkpt><trkpt lat="42.0467982" lon="11.8900231"><ele>19.0</ele><time>2026-04-11T15:45:15.028Z</time></trkpt><trkpt lat="42.0468877" lon="11.8900103"><ele>19.0</ele><time>2026-04-11T15:45:16.027Z</time></trkpt><trkpt lat="42.0469743" lon="11.88999"><ele>19.0</ele><time>2026-04-11T15:45:17.028Z</time></trkpt><trkpt lat="42.0470535" lon="11.8899696"><ele>19.0</ele><time>2026-04-11T15:45:18.027Z</time></trkpt><trkpt lat="42.0472972" lon="11.889961"><ele>19.0</ele><time>2026-04-11T15:45:22.027Z</time></trkpt><trkpt lat="42.0473798" lon="11.8899135"><ele>19.25</ele><time>2026-04-11T15:45:23.027Z</time></trkpt><trkpt lat="42.0475542" lon="11.8898158"><ele>19.5</ele><time>2026-04-11T15:45:24.027Z</time></trkpt><trkpt lat="42.0476717" lon="11.8897752"><ele>19.75</ele><time>2026-04-11T15:45:25.027Z</time></trkpt><trkpt lat="42.0477717" lon="11.8897332"><ele>20.0</ele><time>2026-04-11T15:45:26.028Z</time></trkpt><trkpt lat="42.0478632" lon="11.8897121"><ele>20.0</ele><time>2026-04-11T15:45:27.028Z</time></trkpt><trkpt lat="42.0479562" lon="11.8896804"><ele>20.0</ele><time>2026-04-11T15:45:28.028Z</time></trkpt><trkpt lat="42.0480472" lon="11.8896456"><ele>20.0</ele><time>2026-04-11T15:45:29.027Z</time></trkpt><trkpt lat="42.0481323" lon="11.8896195"><ele>20.0</ele><time>2026-04-11T15:45:30.028Z</time></trkpt><trkpt lat="42.0481992" lon="11.8896002"><ele>20.0</ele><time>2026-04-11T15:45:31.028Z</time></trkpt><trkpt lat="42.0482653" lon="11.8895947"><ele>20.0</ele><time>2026-04-11T15:45:32.027Z</time></trkpt><trkpt lat="42.0483411" lon="11.8896374"><ele>20.5</ele><time>2026-04-11T15:45:34.028Z</time></trkpt><trkpt lat="42.0484169" lon="11.8896616"><ele>21.0</ele><time>2026-04-11T15:45:36.027Z</time></trkpt><trkpt lat="42.0488996" lon="11.8897374"><ele>21.0</ele><time>2026-04-11T15:45:57.027Z</time></trkpt><trkpt lat="42.0489648" lon="11.8896924"><ele>21.0</ele><time>2026-04-11T15:45:58.028Z</time></trkpt><trkpt lat="42.0490564" lon="11.8896417"><ele>21.0</ele><time>2026-04-11T15:46:00.028Z</time></trkpt><trkpt lat="42.0491666" lon="11.8895995"><ele>21.0</ele><time>2026-04-11T15:46:02.028Z</time></trkpt><trkpt lat="42.0492427" lon="11.8895602"><ele>21.0</ele><time>2026-04-11T15:46:03.028Z</time></trkpt><trkpt lat="42.049342" lon="11.8895312"><ele>22.200000000000003</ele><time>2026-04-11T15:46:04.028Z</time></trkpt><trkpt lat="42.0494387" lon="11.8895131"><ele>23.400000000000002</ele><time>2026-04-11T15:46:05.028Z</time></trkpt><trkpt lat="42.0495451" lon="11.889508"><ele>24.6</ele><time>2026-04-11T15:46:06.027Z</time></trkpt><trkpt lat="42.0496182" lon="11.8895323"><ele>25.8</ele><time>2026-04-11T15:46:07.028Z</time></trkpt><trkpt lat="42.049692" lon="11.8895468"><ele>27.0</ele><time>2026-04-11T15:46:08.028Z</time></trkpt><trkpt lat="42.0498024" lon="11.8895493"><ele>27.0</ele><time>2026-04-11T15:46:09.028Z</time></trkpt><trkpt lat="42.0499173" lon="11.889531"><ele>27.0</ele><time>2026-04-11T15:46:10.028Z</time></trkpt><trkpt lat="42.0500152" lon="11.8894926"><ele>27.0</ele><time>2026-04-11T15:46:11.027Z</time></trkpt><trkpt lat="42.0501682" lon="11.8894298"><ele>27.0</ele><time>2026-04-11T15:46:12.028Z</time></trkpt><trkpt lat="42.0503201" lon="11.8894006"><ele>28.5</ele><time>2026-04-11T15:46:13.028Z</time></trkpt><trkpt lat="42.0504485" lon="11.8893705"><ele>30.0</ele><time>2026-04-11T15:46:14.027Z</time></trkpt><trkpt lat="42.0505701" lon="11.8893462"><ele>31.5</ele><time>2026-04-11T15:46:15.027Z</time></trkpt><trkpt lat="42.0506886" lon="11.8893156"><ele>33.0</ele><time>2026-04-11T15:46:16.027Z</time></trkpt><trkpt lat="42.0508148" lon="11.8893248"><ele>33.666666666666664</ele><time>2026-04-11T15:46:17.028Z</time></trkpt><trkpt lat="42.0510565" lon="11.8893387"><ele>34.33333333333333</ele><time>2026-04-11T15:46:19.027Z</time></trkpt><trkpt lat="42.0511872" lon="11.8893412"><ele>35.0</ele><time>2026-04-11T15:46:20.028Z</time></trkpt><trkpt lat="42.0513076" lon="11.8893236"><ele>35.0</ele><time>2026-04-11T15:46:21.028Z</time></trkpt><trkpt lat="42.0514227" lon="11.8892961"><ele>35.0</ele><time>2026-04-11T15:46:22.028Z</time></trkpt><trkpt lat="42.0515253" lon="11.8892884"><ele>35.0</ele><time>2026-04-11T15:46:23.028Z</time></trkpt><trkpt lat="42.0516415" lon="11.8893034"><ele>35.0</ele><time>2026-04-11T15:46:24.027Z</time></trkpt><trkpt lat="42.0517753" lon="11.8893064"><ele>35.0</ele><time>2026-04-11T15:46:25.028Z</time></trkpt><trkpt lat="42.0518487" lon="11.889341"><ele>35.0</ele><time>2026-04-11T15:46:26.028Z</time></trkpt><trkpt lat="42.0520446" lon="11.8893741"><ele>35.0</ele><time>2026-04-11T15:46:28.028Z</time></trkpt><trkpt lat="42.0521224" lon="11.8894057"><ele>35.0</ele><time>2026-04-11T15:46:29.028Z</time></trkpt><trkpt lat="42.0522361" lon="11.8893783"><ele>35.0</ele><time>2026-04-11T15:46:30.028Z</time></trkpt><trkpt lat="42.0523271" lon="11.8893601"><ele>35.0</ele><time>2026-04-11T15:46:31.027Z</time></trkpt><trkpt lat="42.0524359" lon="11.8893073"><ele>35.0</ele><time>2026-04-11T15:46:32.028Z</time></trkpt><trkpt lat="42.0525644" lon="11.8892262"><ele>35.0</ele><time>2026-04-11T15:46:33.028Z</time></trkpt><trkpt lat="42.0526832" lon="11.889172"><ele>37.5</ele><time>2026-04-11T15:46:34.027Z</time></trkpt><trkpt lat="42.0528097" lon="11.8890987"><ele>40.0</ele><time>2026-04-11T15:46:35.028Z</time></trkpt><trkpt lat="42.0529431" lon="11.8890269"><ele>42.5</ele><time>2026-04-11T15:46:36.028Z</time></trkpt><trkpt lat="42.0530749" lon="11.8889738"><ele>45.0</ele><time>2026-04-11T15:46:37.028Z</time></trkpt><trkpt lat="42.0531927" lon="11.8889173"><ele>45.6</ele><time>2026-04-11T15:46:38.028Z</time></trkpt><trkpt lat="42.0533122" lon="11.8888416"><ele>46.2</ele><time>2026-04-11T15:46:39.027Z</time></trkpt><trkpt lat="42.0534401" lon="11.8887623"><ele>46.8</ele><time>2026-04-11T15:46:40.028Z</time></trkpt><trkpt lat="42.053496" lon="11.888647"><ele>47.4</ele><time>2026-04-11T15:46:41.028Z</time></trkpt><trkpt lat="42.053548" lon="11.8885873"><ele>48.0</ele><time>2026-04-11T15:46:43.028Z</time></trkpt><trkpt lat="42.0536278" lon="11.8886183"><ele>48.0</ele><time>2026-04-11T15:46:45.027Z</time></trkpt><trkpt lat="42.0536929" lon="11.8886559"><ele>48.0</ele><time>2026-04-11T15:46:46.028Z</time></trkpt><trkpt lat="42.0537602" lon="11.8887163"><ele>48.0</ele><time>2026-04-11T15:46:48.028Z</time></trkpt><trkpt lat="42.0538313" lon="11.888736"><ele>48.0</ele><time>2026-04-11T15:46:49.028Z</time></trkpt><trkpt lat="42.0539088" lon="11.8887739"><ele>48.0</ele><time>2026-04-11T15:46:50.027Z</time></trkpt><trkpt lat="42.0539903" lon="11.8888069"><ele>48.0</ele><time>2026-04-11T15:46:51.028Z</time></trkpt><trkpt lat="42.0540881" lon="11.8888358"><ele>51.0</ele><time>2026-04-11T15:46:52.027Z</time></trkpt><trkpt lat="42.0542069" lon="11.8888493"><ele>54.0</ele><time>2026-04-11T15:46:53.027Z</time></trkpt><trkpt lat="42.0543363" lon="11.8888877"><ele>57.0</ele><time>2026-04-11T15:46:54.028Z</time></trkpt><trkpt lat="42.0544588" lon="11.8888748"><ele>60.0</ele><time>2026-04-11T15:46:55.027Z</time></trkpt><trkpt lat="42.0546115" lon="11.8888566"><ele>60.0</ele><time>2026-04-11T15:46:56.027Z</time></trkpt><trkpt lat="42.054728" lon="11.8888556"><ele>60.0</ele><time>2026-04-11T15:46:57.027Z</time></trkpt><trkpt lat="42.0548406" lon="11.888874"><ele>60.0</ele><time>2026-04-11T15:46:58.027Z</time></trkpt><trkpt lat="42.0549546" lon="11.8889387"><ele>60.0</ele><time>2026-04-11T15:46:59.027Z</time></trkpt><trkpt lat="42.0550718" lon="11.8890093"><ele>61.75</ele><time>2026-04-11T15:47:00.028Z</time></trkpt><trkpt lat="42.0551763" lon="11.8891322"><ele>63.5</ele><time>2026-04-11T15:47:01.027Z</time></trkpt><trkpt lat="42.055243" lon="11.8892678"><ele>65.25</ele><time>2026-04-11T15:47:02.027Z</time></trkpt><trkpt lat="42.0553145" lon="11.8893916"><ele>67.0</ele><time>2026-04-11T15:47:03.028Z</time></trkpt><trkpt lat="42.055373" lon="11.8895173"><ele>68.4</ele><time>2026-04-11T15:47:04.027Z</time></trkpt><trkpt lat="42.0554273" lon="11.8896426"><ele>69.80000000000001</ele><time>2026-04-11T15:47:05.028Z</time></trkpt><trkpt lat="42.0554672" lon="11.8897274"><ele>71.2</ele><time>2026-04-11T15:47:06.027Z</time></trkpt><trkpt lat="42.0555746" lon="11.8897413"><ele>72.60000000000001</ele><time>2026-04-11T15:47:08.028Z</time></trkpt><trkpt lat="42.0556691" lon="11.889744"><ele>74.0</ele><time>2026-04-11T15:47:09.028Z</time></trkpt><trkpt lat="42.0557889" lon="11.8897823"><ele>74.5</ele><time>2026-04-11T15:47:10.028Z</time></trkpt><trkpt lat="42.055942" lon="11.8898125"><ele>75.0</ele><time>2026-04-11T15:47:11.028Z</time></trkpt><trkpt lat="42.0560597" lon="11.8898099"><ele>75.5</ele><time>2026-04-11T15:47:12.027Z</time></trkpt><trkpt lat="42.0561515" lon="11.8898155"><ele>76.0</ele><time>2026-04-11T15:47:13.027Z</time></trkpt><trkpt lat="42.0562348" lon="11.8898437"><ele>76.0</ele><time>2026-04-11T15:47:14.028Z</time></trkpt><trkpt lat="42.0563354" lon="11.8898633"><ele>76.0</ele><time>2026-04-11T15:47:15.028Z</time></trkpt><trkpt lat="42.0564415" lon="11.8898771"><ele>76.0</ele><time>2026-04-11T15:47:16.027Z</time></trkpt><trkpt lat="42.0565407" lon="11.8899317"><ele>76.0</ele><time>2026-04-11T15:47:17.028Z</time></trkpt><trkpt lat="42.0566357" lon="11.8900271"><ele>76.0</ele><time>2026-04-11T15:47:18.027Z</time></trkpt><trkpt lat="42.0567107" lon="11.8901315"><ele>78.75</ele><time>2026-04-11T15:47:19.027Z</time></trkpt><trkpt lat="42.0567833" lon="11.8902699"><ele>81.5</ele><time>2026-04-11T15:47:20.028Z</time></trkpt><trkpt lat="42.0568606" lon="11.8904041"><ele>84.25</ele><time>2026-04-11T15:47:21.028Z</time></trkpt><trkpt lat="42.0569459" lon="11.8905258"><ele>87.0</ele><time>2026-04-11T15:47:22.028Z</time></trkpt><trkpt lat="42.0570293" lon="11.8906388"><ele>87.0</ele><time>2026-04-11T15:47:23.027Z</time></trkpt><trkpt lat="42.0571299" lon="11.8907356"><ele>87.0</ele><time>2026-04-11T15:47:24.027Z</time></trkpt><trkpt lat="42.0571853" lon="11.8908061"><ele>87.0</ele><time>2026-04-11T15:47:25.027Z</time></trkpt><trkpt lat="42.0572536" lon="11.8908481"><ele>87.0</ele><time>2026-04-11T15:47:26.028Z</time></trkpt><trkpt lat="42.0573331" lon="11.8908988"><ele>87.0</ele><time>2026-04-11T15:47:27.027Z</time></trkpt><trkpt lat="42.0574145" lon="11.8909286"><ele>87.0</ele><time>2026-04-11T15:47:28.028Z</time></trkpt><trkpt lat="42.0574947" lon="11.8909807"><ele>87.19999999999999</ele><time>2026-04-11T15:47:29.028Z</time></trkpt><trkpt lat="42.0575739" lon="11.8910138"><ele>87.4</ele><time>2026-04-11T15:47:30.028Z</time></trkpt><trkpt lat="42.0576502" lon="11.8910231"><ele>87.6</ele><time>2026-04-11T15:47:31.028Z</time></trkpt><trkpt lat="42.05774" lon="11.8910267"><ele>87.80000000000001</ele><time>2026-04-11T15:47:32.027Z</time></trkpt><trkpt lat="42.0578375" lon="11.8910435"><ele>88.0</ele><time>2026-04-11T15:47:33.027Z</time></trkpt><trkpt lat="42.0579397" lon="11.891055"><ele>88.0</ele><time>2026-04-11T15:47:34.027Z</time></trkpt><trkpt lat="42.0580359" lon="11.8910552"><ele>88.0</ele><time>2026-04-11T15:47:35.028Z</time></trkpt><trkpt lat="42.0581369" lon="11.8910693"><ele>88.0</ele><time>2026-04-11T15:47:36.028Z</time></trkpt><trkpt lat="42.0582298" lon="11.8910739"><ele>88.0</ele><time>2026-04-11T15:47:37.027Z</time></trkpt><trkpt lat="42.0583187" lon="11.8910794"><ele>88.0</ele><time>2026-04-11T15:47:38.028Z</time></trkpt><trkpt lat="42.0584002" lon="11.8910861"><ele>90.2</ele><time>2026-04-11T15:47:39.027Z</time></trkpt><trkpt lat="42.0584912" lon="11.8910936"><ele>92.4</ele><time>2026-04-11T15:47:40.027Z</time></trkpt><trkpt lat="42.0585768" lon="11.8910938"><ele>94.60000000000001</ele><time>2026-04-11T15:47:41.027Z</time></trkpt><trkpt lat="42.0586719" lon="11.8910864"><ele>96.80000000000001</ele><time>2026-04-11T15:47:42.027Z</time></trkpt><trkpt lat="42.0587647" lon="11.8910765"><ele>99.0</ele><time>2026-04-11T15:47:43.028Z</time></trkpt><trkpt lat="42.0588611" lon="11.8910561"><ele>99.0</ele><time>2026-04-11T15:47:44.028Z</time></trkpt><trkpt lat="42.0589568" lon="11.8910373"><ele>99.0</ele><time>2026-04-11T15:47:45.028Z</time></trkpt><trkpt lat="42.0590429" lon="11.891008"><ele>99.0</ele><time>2026-04-11T15:47:46.027Z</time></trkpt><trkpt lat="42.0591242" lon="11.8909704"><ele>99.0</ele><time>2026-04-11T15:47:47.027Z</time></trkpt><trkpt lat="42.0592079" lon="11.8909349"><ele>99.0</ele><time>2026-04-11T15:47:48.027Z</time></trkpt><trkpt lat="42.0592928" lon="11.8909029"><ele>99.0</ele><time>2026-04-11T15:47:49.027Z</time></trkpt><trkpt lat="42.0593791" lon="11.8908723"><ele>100.5</ele><time>2026-04-11T15:47:50.028Z</time></trkpt><trkpt lat="42.0594465" lon="11.8908468"><ele>102.0</ele><time>2026-04-11T15:47:51.028Z</time></trkpt><trkpt lat="42.0595195" lon="11.8908667"><ele>103.5</ele><time>2026-04-11T15:47:53.028Z</time></trkpt><trkpt lat="42.0595642" lon="11.8909665"><ele>105.0</ele><time>2026-04-11T15:47:55.028Z</time></trkpt><trkpt lat="42.0596256" lon="11.891058"><ele>106.5</ele><time>2026-04-11T15:47:57.028Z</time></trkpt><trkpt lat="42.0596677" lon="11.8912024"><ele>108.0</ele><time>2026-04-11T15:47:59.028Z</time></trkpt><trkpt lat="42.0596922" lon="11.8912811"><ele>108.28571428571428</ele><time>2026-04-11T15:48:00.028Z</time></trkpt><trkpt lat="42.0597335" lon="11.8913481"><ele>108.57142857142857</ele><time>2026-04-11T15:48:01.027Z</time></trkpt><trkpt lat="42.0597834" lon="11.8914299"><ele>108.85714285714286</ele><time>2026-04-11T15:48:02.028Z</time></trkpt><trkpt lat="42.0598241" lon="11.891505"><ele>109.14285714285714</ele><time>2026-04-11T15:48:03.028Z</time></trkpt><trkpt lat="42.0598716" lon="11.8915669"><ele>109.42857142857143</ele><time>2026-04-11T15:48:04.028Z</time></trkpt><trkpt lat="42.0599224" lon="11.8916188"><ele>109.71428571428571</ele><time>2026-04-11T15:48:05.028Z</time></trkpt><trkpt lat="42.0599843" lon="11.8916717"><ele>110.0</ele><time>2026-04-11T15:48:06.027Z</time></trkpt><trkpt lat="42.0600511" lon="11.8917342"><ele>110.99999999999999</ele><time>2026-04-11T15:48:07.028Z</time></trkpt><trkpt lat="42.0601233" lon="11.8917975"><ele>112.0</ele><time>2026-04-11T15:48:08.027Z</time></trkpt><trkpt lat="42.060187" lon="11.8918537"><ele>113.0</ele><time>2026-04-11T15:48:09.027Z</time></trkpt><trkpt lat="42.0602421" lon="11.8919109"><ele>114.0</ele><time>2026-04-11T15:48:10.028Z</time></trkpt><trkpt lat="42.0602905" lon="11.8919667"><ele>114.99999999999999</ele><time>2026-04-11T15:48:11.028Z</time></trkpt><trkpt lat="42.0603718" lon="11.8920669"><ele>116.0</ele><time>2026-04-11T15:48:13.027Z</time></trkpt><trkpt lat="42.0604584" lon="11.8921207"><ele>115.99999999999999</ele><time>2026-04-11T15:48:15.027Z</time></trkpt><trkpt lat="42.0605376" lon="11.8921995"><ele>116.0</ele><time>2026-04-11T15:48:17.028Z</time></trkpt><trkpt lat="42.060619" lon="11.8922602"><ele>116.0</ele><time>2026-04-11T15:48:19.028Z</time></trkpt><trkpt lat="42.0607041" lon="11.892231"><ele>116.0</ele><time>2026-04-11T15:48:21.027Z</time></trkpt><trkpt lat="42.0607637" lon="11.8921886"><ele>115.99999999999999</ele><time>2026-04-11T15:48:22.027Z</time></trkpt><trkpt lat="42.060842" lon="11.8921405"><ele>116.0</ele><time>2026-04-11T15:48:24.028Z</time></trkpt><trkpt lat="42.060961" lon="11.8921568"><ele>117.57142857142858</ele><time>2026-04-11T15:48:26.027Z</time></trkpt><trkpt lat="42.0610491" lon="11.8921442"><ele>119.14285714285714</ele><time>2026-04-11T15:48:27.028Z</time></trkpt><trkpt lat="42.0611224" lon="11.8921395"><ele>120.71428571428572</ele><time>2026-04-11T15:48:28.027Z</time></trkpt><trkpt lat="42.061189" lon="11.8921381"><ele>122.28571428571429</ele><time>2026-04-11T15:48:29.028Z</time></trkpt><trkpt lat="42.0612561" lon="11.8921389"><ele>123.85714285714286</ele><time>2026-04-11T15:48:30.028Z</time></trkpt><trkpt lat="42.0613313" lon="11.8921449"><ele>125.42857142857143</ele><time>2026-04-11T15:48:31.028Z</time></trkpt><trkpt lat="42.0613981" lon="11.8921591"><ele>127.0</ele><time>2026-04-11T15:48:32.028Z</time></trkpt><trkpt lat="42.0614682" lon="11.8921615"><ele>127.0</ele><time>2026-04-11T15:48:33.027Z</time></trkpt><trkpt lat="42.0615917" lon="11.8921731"><ele>126.99999999999999</ele><time>2026-04-11T15:48:35.027Z</time></trkpt><trkpt lat="42.0617134" lon="11.8921928"><ele>126.99999999999999</ele><time>2026-04-11T15:48:37.028Z</time></trkpt><trkpt lat="42.0617876" lon="11.8921687"><ele>127.0</ele><time>2026-04-11T15:48:39.027Z</time></trkpt><trkpt lat="42.0618642" lon="11.8921711"><ele>127.0</ele><time>2026-04-11T15:48:41.028Z</time></trkpt><trkpt lat="42.0619352" lon="11.8921764"><ele>128.16666666666669</ele><time>2026-04-11T15:48:43.028Z</time></trkpt><trkpt lat="42.0620062" lon="11.8921819"><ele>129.33333333333334</ele><time>2026-04-11T15:48:46.028Z</time></trkpt><trkpt lat="42.0621077" lon="11.8921949"><ele>130.5</ele><time>2026-04-11T15:48:49.028Z</time></trkpt><trkpt lat="42.0621799" lon="11.8922024"><ele>131.66666666666666</ele><time>2026-04-11T15:48:52.028Z</time></trkpt><trkpt lat="42.062255" lon="11.892222"><ele>132.83333333333331</ele><time>2026-04-11T15:48:55.028Z</time></trkpt><trkpt lat="42.0623252" lon="11.8922031"><ele>134.0</ele><time>2026-04-11T15:48:58.028Z</time></trkpt><trkpt lat="42.0624161" lon="11.8922265"><ele>136.0</ele><time>2026-04-11T15:49:01.028Z</time></trkpt><trkpt lat="42.0624814" lon="11.8922294"><ele>138.0</ele><time>2026-04-11T15:49:02.028Z</time></trkpt><trkpt lat="42.0625731" lon="11.892216"><ele>140.0</ele><time>2026-04-11T15:49:04.027Z</time></trkpt><trkpt lat="42.0626834" lon="11.8922648"><ele>142.0</ele><time>2026-04-11T15:49:06.028Z</time></trkpt><trkpt lat="42.0627997" lon="11.8922955"><ele>144.0</ele><time>2026-04-11T15:49:08.028Z</time></trkpt><trkpt lat="42.062875" lon="11.8923073"><ele>144.0</ele><time>2026-04-11T15:49:09.028Z</time></trkpt><trkpt lat="42.0629557" lon="11.8923403"><ele>144.0</ele><time>2026-04-11T15:49:10.028Z</time></trkpt><trkpt lat="42.0630847" lon="11.8923842"><ele>144.0</ele><time>2026-04-11T15:49:12.028Z</time></trkpt><trkpt lat="42.063169" lon="11.8924292"><ele>144.0</ele><time>2026-04-11T15:49:13.027Z</time></trkpt><trkpt lat="42.0632478" lon="11.8924629"><ele>144.0</ele><time>2026-04-11T15:49:14.028Z</time></trkpt><trkpt lat="42.0633255" lon="11.8924782"><ele>144.83333333333334</ele><time>2026-04-11T15:49:15.028Z</time></trkpt><trkpt lat="42.063399" lon="11.8924821"><ele>145.66666666666666</ele><time>2026-04-11T15:49:16.027Z</time></trkpt><trkpt lat="42.0635102" lon="11.8924955"><ele>146.5</ele><time>2026-04-11T15:49:18.027Z</time></trkpt><trkpt lat="42.063588" lon="11.8924744"><ele>147.33333333333331</ele><time>2026-04-11T15:49:19.027Z</time></trkpt><trkpt lat="42.0636625" lon="11.8924624"><ele>148.16666666666666</ele><time>2026-04-11T15:49:20.027Z</time></trkpt><trkpt lat="42.0637377" lon="11.89245"><ele>149.0</ele><time>2026-04-11T15:49:21.027Z</time></trkpt><trkpt lat="42.0638182" lon="11.8924597"><ele>149.0</ele><time>2026-04-11T15:49:22.027Z</time></trkpt><trkpt lat="42.0639001" lon="11.8924774"><ele>149.0</ele><time>2026-04-11T15:49:23.028Z</time></trkpt><trkpt lat="42.064003" lon="11.8925227"><ele>149.0</ele><time>2026-04-11T15:49:24.027Z</time></trkpt><trkpt lat="42.0640933" lon="11.8925534"><ele>149.0</ele><time>2026-04-11T15:49:25.027Z</time></trkpt><trkpt lat="42.0641857" lon="11.8925441"><ele>149.0</ele><time>2026-04-11T15:49:26.027Z</time></trkpt><trkpt lat="42.0642765" lon="11.8925709"><ele>148.83333333333331</ele><time>2026-04-11T15:49:27.028Z</time></trkpt><trkpt lat="42.0643434" lon="11.8926175"><ele>148.66666666666666</ele><time>2026-04-11T15:49:28.027Z</time></trkpt><trkpt lat="42.0644115" lon="11.8926631"><ele>148.5</ele><time>2026-04-11T15:49:29.027Z</time></trkpt><trkpt lat="42.0644842" lon="11.8927243"><ele>148.33333333333334</ele><time>2026-04-11T15:49:30.028Z</time></trkpt><trkpt lat="42.0645621" lon="11.8927875"><ele>148.16666666666669</ele><time>2026-04-11T15:49:31.028Z</time></trkpt><trkpt lat="42.0646405" lon="11.8928423"><ele>148.0</ele><time>2026-04-11T15:49:32.027Z</time></trkpt><trkpt lat="42.0647214" lon="11.8928905"><ele>148.0</ele><time>2026-04-11T15:49:33.028Z</time></trkpt><trkpt lat="42.0648185" lon="11.8929242"><ele>148.0</ele><time>2026-04-11T15:49:34.028Z</time></trkpt><trkpt lat="42.0649016" lon="11.8929674"><ele>148.0</ele><time>2026-04-11T15:49:35.027Z</time></trkpt><trkpt lat="42.0649759" lon="11.893001"><ele>148.0</ele><time>2026-04-11T15:49:36.028Z</time></trkpt><trkpt lat="42.0650575" lon="11.8930262"><ele>148.0</ele><time>2026-04-11T15:49:37.027Z</time></trkpt><trkpt lat="42.0651344" lon="11.8930487"><ele>148.0</ele><time>2026-04-11T15:49:38.027Z</time></trkpt><trkpt lat="42.0652118" lon="11.8930666"><ele>148.83333333333334</ele><time>2026-04-11T15:49:39.028Z</time></trkpt><trkpt lat="42.0652905" lon="11.8930927"><ele>149.66666666666669</ele><time>2026-04-11T15:49:40.027Z</time></trkpt><trkpt lat="42.0653825" lon="11.8930978"><ele>150.5</ele><time>2026-04-11T15:49:41.027Z</time></trkpt><trkpt lat="42.0654653" lon="11.8931211"><ele>151.33333333333334</ele><time>2026-04-11T15:49:42.028Z</time></trkpt><trkpt lat="42.0655554" lon="11.8931479"><ele>152.16666666666666</ele><time>2026-04-11T15:49:43.027Z</time></trkpt><trkpt lat="42.0656288" lon="11.8931688"><ele>153.0</ele><time>2026-04-11T15:49:44.028Z</time></trkpt><trkpt lat="42.0657011" lon="11.8931894"><ele>152.83333333333334</ele><time>2026-04-11T15:49:45.028Z</time></trkpt><trkpt lat="42.0657816" lon="11.8932104"><ele>152.66666666666666</ele><time>2026-04-11T15:49:46.027Z</time></trkpt><trkpt lat="42.0658633" lon="11.893224"><ele>152.5</ele><time>2026-04-11T15:49:47.028Z</time></trkpt><trkpt lat="42.0659433" lon="11.8932398"><ele>152.33333333333331</ele><time>2026-04-11T15:49:48.028Z</time></trkpt><trkpt lat="42.0660154" lon="11.8932521"><ele>152.16666666666666</ele><time>2026-04-11T15:49:49.028Z</time></trkpt><trkpt lat="42.0661428" lon="11.8932662"><ele>152.0</ele><time>2026-04-11T15:49:51.028Z</time></trkpt><trkpt lat="42.0662186" lon="11.8932586"><ele>152.0</ele><time>2026-04-11T15:49:52.028Z</time></trkpt><trkpt lat="42.0662983" lon="11.8932571"><ele>152.0</ele><time>2026-04-11T15:49:53.028Z</time></trkpt><trkpt lat="42.0663872" lon="11.893249"><ele>152.0</ele><time>2026-04-11T15:49:54.027Z</time></trkpt><trkpt lat="42.066472" lon="11.8932138"><ele>152.0</ele><time>2026-04-11T15:49:55.028Z</time></trkpt><trkpt lat="42.0665539" lon="11.8931685"><ele>152.0</ele><time>2026-04-11T15:49:56.028Z</time></trkpt><trkpt lat="42.0666351" lon="11.8931201"><ele>152.0</ele><time>2026-04-11T15:49:57.028Z</time></trkpt><trkpt lat="42.066715" lon="11.8930798"><ele>151.6</ele><time>2026-04-11T15:49:58.028Z</time></trkpt><trkpt lat="42.0667796" lon="11.8930547"><ele>151.2</ele><time>2026-04-11T15:49:59.027Z</time></trkpt><trkpt lat="42.0668679" lon="11.8930122"><ele>150.8</ele><time>2026-04-11T15:50:01.028Z</time></trkpt><trkpt lat="42.0669665" lon="11.8929862"><ele>150.4</ele><time>2026-04-11T15:50:03.028Z</time></trkpt><trkpt lat="42.0670998" lon="11.8929907"><ele>150.0</ele><time>2026-04-11T15:50:05.026Z</time></trkpt><trkpt lat="42.0671761" lon="11.8929962"><ele>150.0</ele><time>2026-04-11T15:50:06.026Z</time></trkpt><trkpt lat="42.0672455" lon="11.8930411"><ele>150.0</ele><time>2026-04-11T15:50:07.027Z</time></trkpt><trkpt lat="42.067347" lon="11.8930833"><ele>150.0</ele><time>2026-04-11T15:50:08.027Z</time></trkpt><trkpt lat="42.0674459" lon="11.8931338"><ele>150.0</ele><time>2026-04-11T15:50:09.027Z</time></trkpt><trkpt lat="42.0675171" lon="11.8931618"><ele>150.0</ele><time>2026-04-11T15:50:10.027Z</time></trkpt><trkpt lat="42.0675918" lon="11.8931885"><ele>150.0</ele><time>2026-04-11T15:50:11.027Z</time></trkpt><trkpt lat="42.0676606" lon="11.8932211"><ele>150.33333333333334</ele><time>2026-04-11T15:50:12.027Z</time></trkpt><trkpt lat="42.0677253" lon="11.8932547"><ele>150.66666666666666</ele><time>2026-04-11T15:50:13.027Z</time></trkpt><trkpt lat="42.0677833" lon="11.8932954"><ele>151.0</ele><time>2026-04-11T15:50:14.026Z</time></trkpt><trkpt lat="42.0678711" lon="11.8933618"><ele>151.33333333333331</ele><time>2026-04-11T15:50:16.026Z</time></trkpt><trkpt lat="42.0679435" lon="11.8934109"><ele>151.66666666666666</ele><time>2026-04-11T15:50:18.026Z</time></trkpt><trkpt lat="42.0680415" lon="11.893429"><ele>152.0</ele><time>2026-04-11T15:50:20.027Z</time></trkpt><trkpt lat="42.0681514" lon="11.8934464"><ele>150.79999999999998</ele><time>2026-04-11T15:50:22.026Z</time></trkpt><trkpt lat="42.0682607" lon="11.8934571"><ele>149.6</ele><time>2026-04-11T15:50:24.027Z</time></trkpt><trkpt lat="42.0683712" lon="11.8934858"><ele>148.39999999999998</ele><time>2026-04-11T15:50:26.027Z</time></trkpt><trkpt lat="42.0684709" lon="11.8935273"><ele>147.2</ele><time>2026-04-11T15:50:28.027Z</time></trkpt><trkpt lat="42.0685802" lon="11.893564"><ele>146.0</ele><time>2026-04-11T15:50:30.027Z</time></trkpt><trkpt lat="42.0686327" lon="11.8936178"><ele>146.0</ele><time>2026-04-11T15:50:32.026Z</time></trkpt><trkpt lat="42.0686993" lon="11.8936621"><ele>146.0</ele><time>2026-04-11T15:50:35.026Z</time></trkpt><trkpt lat="42.0687757" lon="11.8936902"><ele>146.0</ele><time>2026-04-11T15:50:40.027Z</time></trkpt><trkpt lat="42.0688388" lon="11.8937112"><ele>146.0</ele><time>2026-04-11T15:50:42.027Z</time></trkpt><trkpt lat="42.0689007" lon="11.8937362"><ele>146.0</ele><time>2026-04-11T15:50:44.026Z</time></trkpt><trkpt lat="42.0689742" lon="11.8937445"><ele>146.0</ele><time>2026-04-11T15:50:46.026Z</time></trkpt><trkpt lat="42.0690091" lon="11.8938186"><ele>146.0</ele><time>2026-04-11T15:50:50.026Z</time></trkpt><trkpt lat="42.0690672" lon="11.8938582"><ele>146.0</ele><time>2026-04-11T15:50:52.026Z</time></trkpt><trkpt lat="42.0691568" lon="11.8938887"><ele>147.0</ele><time>2026-04-11T15:50:54.027Z</time></trkpt></trkseg><trkseg><trkpt lat="42.0690978" lon="11.8938296"><ele>146.16666666666666</ele><time>2026-04-11T16:07:53.025Z</time></trkpt><trkpt lat="42.0691663" lon="11.8939196"><ele>146.33333333333331</ele><time>2026-04-11T16:07:58.026Z</time></trkpt><trkpt lat="42.0692155" lon="11.8939773"><ele>146.5</ele><time>2026-04-11T16:08:01.026Z</time></trkpt><trkpt lat="42.0692636" lon="11.894037"><ele>146.66666666666666</ele><time>2026-04-11T16:08:06.026Z</time></trkpt><trkpt lat="42.0693396" lon="11.8940718"><ele>146.83333333333334</ele><time>2026-04-11T16:08:09.026Z</time></trkpt><trkpt lat="42.0694113" lon="11.894091"><ele>147.0</ele><time>2026-04-11T16:08:13.026Z</time></trkpt><trkpt lat="42.0695042" lon="11.8941353"><ele>147.0</ele><time>2026-04-11T16:08:16.025Z</time></trkpt><trkpt lat="42.0695169" lon="11.8942291"><ele>147.0</ele><time>2026-04-11T16:08:18.025Z</time></trkpt><trkpt lat="42.0694953" lon="11.894391"><ele>147.0</ele><time>2026-04-11T16:08:21.025Z</time></trkpt><trkpt lat="42.0695344" lon="11.8944593"><ele>147.0</ele><time>2026-04-11T16:08:23.025Z</time></trkpt><trkpt lat="42.0695691" lon="11.894536"><ele>147.0</ele><time>2026-04-11T16:08:25.025Z</time></trkpt><trkpt lat="42.0696043" lon="11.8946123"><ele>147.0</ele><time>2026-04-11T16:08:27.025Z</time></trkpt><trkpt lat="42.0696465" lon="11.8946787"><ele>146.0</ele><time>2026-04-11T16:08:29.026Z</time></trkpt><trkpt lat="42.0696995" lon="11.8947766"><ele>145.0</ele><time>2026-04-11T16:08:31.026Z</time></trkpt><trkpt lat="42.0697677" lon="11.8948879"><ele>144.0</ele><time>2026-04-11T16:08:33.025Z</time></trkpt><trkpt lat="42.0698444" lon="11.8950087"><ele>143.0</ele><time>2026-04-11T16:08:35.025Z</time></trkpt><trkpt lat="42.069915" lon="11.8950862"><ele>142.0</ele><time>2026-04-11T16:08:37.026Z</time></trkpt><trkpt lat="42.0699697" lon="11.8952056"><ele>142.0</ele><time>2026-04-11T16:08:40.026Z</time></trkpt><trkpt lat="42.0699952" lon="11.8953133"><ele>142.0</ele><time>2026-04-11T16:08:42.026Z</time></trkpt><trkpt lat="42.0700208" lon="11.8954104"><ele>142.0</ele><time>2026-04-11T16:08:44.026Z</time></trkpt><trkpt lat="42.0700828" lon="11.8954683"><ele>142.0</ele><time>2026-04-11T16:08:48.026Z</time></trkpt><trkpt lat="42.0701112" lon="11.89558"><ele>142.0</ele><time>2026-04-11T16:08:52.026Z</time></trkpt><trkpt lat="42.0701187" lon="11.8956724"><ele>142.0</ele><time>2026-04-11T16:08:55.025Z</time></trkpt><trkpt lat="42.0701192" lon="11.8957748"><ele>142.0</ele><time>2026-04-11T16:08:58.025Z</time></trkpt><trkpt lat="42.0701019" lon="11.895867"><ele>142.0</ele><time>2026-04-11T16:09:00.026Z</time></trkpt><trkpt lat="42.0700934" lon="11.8959724"><ele>142.0</ele><time>2026-04-11T16:09:02.025Z</time></trkpt><trkpt lat="42.0701003" lon="11.8961006"><ele>142.0</ele><time>2026-04-11T16:09:04.025Z</time></trkpt><trkpt lat="42.0700954" lon="11.896237"><ele>142.0</ele><time>2026-04-11T16:09:06.026Z</time></trkpt><trkpt lat="42.0700882" lon="11.8963674"><ele>142.0</ele><time>2026-04-11T16:09:08.026Z</time></trkpt><trkpt lat="42.0700837" lon="11.8965086"><ele>141.85714285714286</ele><time>2026-04-11T16:09:10.026Z</time></trkpt><trkpt lat="42.0700852" lon="11.8966243"><ele>141.7142857142857</ele><time>2026-04-11T16:09:12.026Z</time></trkpt><trkpt lat="42.0701025" lon="11.8967194"><ele>141.57142857142856</ele><time>2026-04-11T16:09:14.025Z</time></trkpt><trkpt lat="42.0701323" lon="11.896806"><ele>141.42857142857142</ele><time>2026-04-11T16:09:16.025Z</time></trkpt><trkpt lat="42.0701559" lon="11.8968865"><ele>141.28571428571428</ele><time>2026-04-11T16:09:18.026Z</time></trkpt><trkpt lat="42.0701864" lon="11.8969763"><ele>141.14285714285714</ele><time>2026-04-11T16:09:20.026Z</time></trkpt><trkpt lat="42.0702191" lon="11.8970652"><ele>141.0</ele><time>2026-04-11T16:09:22.026Z</time></trkpt><trkpt lat="42.0702632" lon="11.8971302"><ele>140.14285714285714</ele><time>2026-04-11T16:09:25.026Z</time></trkpt><trkpt lat="42.0702922" lon="11.8972182"><ele>139.28571428571428</ele><time>2026-04-11T16:09:29.025Z</time></trkpt><trkpt lat="42.0703286" lon="11.8972944"><ele>138.42857142857142</ele><time>2026-04-11T16:09:33.025Z</time></trkpt><trkpt lat="42.0703951" lon="11.8973723"><ele>137.57142857142856</ele><time>2026-04-11T16:09:37.026Z</time></trkpt><trkpt lat="42.0704718" lon="11.897432"><ele>136.7142857142857</ele><time>2026-04-11T16:09:40.026Z</time></trkpt><trkpt lat="42.07053" lon="11.8974667"><ele>135.85714285714286</ele><time>2026-04-11T16:09:42.026Z</time></trkpt><trkpt lat="42.0705958" lon="11.897498"><ele>135.0</ele><time>2026-04-11T16:09:44.026Z</time></trkpt><trkpt lat="42.0706677" lon="11.8975256"><ele>135.0</ele><time>2026-04-11T16:09:46.026Z</time></trkpt><trkpt lat="42.0707447" lon="11.8975549"><ele>135.0</ele><time>2026-04-11T16:09:48.025Z</time></trkpt><trkpt lat="42.0708266" lon="11.8975802"><ele>135.0</ele><time>2026-04-11T16:09:50.026Z</time></trkpt><trkpt lat="42.0709185" lon="11.8976109"><ele>135.0</ele><time>2026-04-11T16:09:52.026Z</time></trkpt><trkpt lat="42.0710237" lon="11.8976389"><ele>135.0</ele><time>2026-04-11T16:09:54.026Z</time></trkpt><trkpt lat="42.071125" lon="11.8976756"><ele>135.2</ele><time>2026-04-11T16:09:56.025Z</time></trkpt><trkpt lat="42.0712203" lon="11.8977242"><ele>135.4</ele><time>2026-04-11T16:09:58.026Z</time></trkpt><trkpt lat="42.0713158" lon="11.8977663"><ele>135.6</ele><time>2026-04-11T16:10:00.026Z</time></trkpt><trkpt lat="42.0713989" lon="11.8978095"><ele>135.8</ele><time>2026-04-11T16:10:02.025Z</time></trkpt><trkpt lat="42.0714919" lon="11.8978699"><ele>136.0</ele><time>2026-04-11T16:10:05.026Z</time></trkpt><trkpt lat="42.0715662" lon="11.8979124"><ele>136.83333333333334</ele><time>2026-04-11T16:10:07.026Z</time></trkpt><trkpt lat="42.0716336" lon="11.8979552"><ele>137.66666666666669</ele><time>2026-04-11T16:10:09.026Z</time></trkpt><trkpt lat="42.0716978" lon="11.8980102"><ele>138.5</ele><time>2026-04-11T16:10:11.025Z</time></trkpt><trkpt lat="42.0717537" lon="11.8980709"><ele>139.33333333333334</ele><time>2026-04-11T16:10:13.025Z</time></trkpt><trkpt lat="42.0718174" lon="11.898134"><ele>140.16666666666666</ele><time>2026-04-11T16:10:15.025Z</time></trkpt><trkpt lat="42.071886" lon="11.8981904"><ele>141.0</ele><time>2026-04-11T16:10:17.025Z</time></trkpt><trkpt lat="42.0719476" lon="11.8982395"><ele>141.0</ele><time>2026-04-11T16:10:19.026Z</time></trkpt><trkpt lat="42.0720155" lon="11.8982879"><ele>141.0</ele><time>2026-04-11T16:10:21.025Z</time></trkpt><trkpt lat="42.0720813" lon="11.8983318"><ele>141.0</ele><time>2026-04-11T16:10:23.026Z</time></trkpt><trkpt lat="42.0721461" lon="11.8983646"><ele>141.0</ele><time>2026-04-11T16:10:25.025Z</time></trkpt><trkpt lat="42.0722097" lon="11.8983952"><ele>141.0</ele><time>2026-04-11T16:10:27.026Z</time></trkpt><trkpt lat="42.0722839" lon="11.8984086"><ele>141.0</ele><time>2026-04-11T16:10:29.026Z</time></trkpt><trkpt lat="42.0723553" lon="11.8984284"><ele>141.0</ele><time>2026-04-11T16:10:31.025Z</time></trkpt><trkpt lat="42.0724241" lon="11.8984453"><ele>141.0</ele><time>2026-04-11T16:10:33.026Z</time></trkpt><trkpt lat="42.0725031" lon="11.8984641"><ele>141.0</ele><time>2026-04-11T16:10:35.026Z</time></trkpt><trkpt lat="42.0725747" lon="11.898456"><ele>141.0</ele><time>2026-04-11T16:10:37.025Z</time></trkpt><trkpt lat="42.0726502" lon="11.8984589"><ele>141.0</ele><time>2026-04-11T16:10:40.025Z</time></trkpt><trkpt lat="42.072744" lon="11.8984888"><ele>141.0</ele><time>2026-04-11T16:10:43.025Z</time></trkpt><trkpt lat="42.072819" lon="11.8985096"><ele>141.0</ele><time>2026-04-11T16:10:45.025Z</time></trkpt><trkpt lat="42.0728928" lon="11.8985211"><ele>141.0</ele><time>2026-04-11T16:10:47.027Z</time></trkpt><trkpt lat="42.07296" lon="11.8985261"><ele>141.0</ele><time>2026-04-11T16:10:49.026Z</time></trkpt><trkpt lat="42.0730244" lon="11.8985284"><ele>141.0</ele><time>2026-04-11T16:10:51.027Z</time></trkpt><trkpt lat="42.0730945" lon="11.8985301"><ele>141.0</ele><time>2026-04-11T16:10:53.026Z</time></trkpt><trkpt lat="42.0731783" lon="11.8985466"><ele>141.0</ele><time>2026-04-11T16:10:55.027Z</time></trkpt><trkpt lat="42.0732415" lon="11.8986068"><ele>141.0</ele><time>2026-04-11T16:10:57.026Z</time></trkpt><trkpt lat="42.0732905" lon="11.8986744"><ele>141.0</ele><time>2026-04-11T16:10:59.026Z</time></trkpt><trkpt lat="42.0733357" lon="11.8987504"><ele>143.0</ele><time>2026-04-11T16:11:01.027Z</time></trkpt><trkpt lat="42.0733898" lon="11.8988131"><ele>145.0</ele><time>2026-04-11T16:11:03.026Z</time></trkpt><trkpt lat="42.07345" lon="11.8988717"><ele>147.0</ele><time>2026-04-11T16:11:05.027Z</time></trkpt><trkpt lat="42.0735204" lon="11.8989113"><ele>149.0</ele><time>2026-04-11T16:11:07.027Z</time></trkpt><trkpt lat="42.0735824" lon="11.8989414"><ele>151.0</ele><time>2026-04-11T16:11:09.027Z</time></trkpt><trkpt lat="42.0736515" lon="11.898932"><ele>153.0</ele><time>2026-04-11T16:11:11.027Z</time></trkpt><trkpt lat="42.0737303" lon="11.8989502"><ele>155.0</ele><time>2026-04-11T16:11:14.027Z</time></trkpt><trkpt lat="42.0738094" lon="11.8989751"><ele>155.0</ele><time>2026-04-11T16:11:17.027Z</time></trkpt><trkpt lat="42.0738969" lon="11.898987"><ele>155.0</ele><time>2026-04-11T16:11:20.027Z</time></trkpt><trkpt lat="42.0739715" lon="11.898965"><ele>155.0</ele><time>2026-04-11T16:11:23.027Z</time></trkpt><trkpt lat="42.0740605" lon="11.8989509"><ele>155.0</ele><time>2026-04-11T16:11:26.026Z</time></trkpt><trkpt lat="42.0741447" lon="11.8989295"><ele>155.0</ele><time>2026-04-11T16:11:29.027Z</time></trkpt><trkpt lat="42.0742289" lon="11.8989044"><ele>155.0</ele><time>2026-04-11T16:11:32.026Z</time></trkpt><trkpt lat="42.074321" lon="11.8988824"><ele>156.4</ele><time>2026-04-11T16:11:35.027Z</time></trkpt><trkpt lat="42.0744318" lon="11.8988508"><ele>157.8</ele><time>2026-04-11T16:11:38.026Z</time></trkpt><trkpt lat="42.0745217" lon="11.8988234"><ele>159.2</ele><time>2026-04-11T16:11:40.027Z</time></trkpt><trkpt lat="42.0746055" lon="11.8987883"><ele>160.6</ele><time>2026-04-11T16:11:42.027Z</time></trkpt><trkpt lat="42.0746862" lon="11.8987461"><ele>162.0</ele><time>2026-04-11T16:11:44.026Z</time></trkpt><trkpt lat="42.0747768" lon="11.8986979"><ele>162.0</ele><time>2026-04-11T16:11:46.026Z</time></trkpt><trkpt lat="42.0748781" lon="11.8986408"><ele>162.0</ele><time>2026-04-11T16:11:48.027Z</time></trkpt><trkpt lat="42.0749549" lon="11.8985997"><ele>162.0</ele><time>2026-04-11T16:11:50.027Z</time></trkpt><trkpt lat="42.0750267" lon="11.8985657"><ele>162.0</ele><time>2026-04-11T16:11:52.026Z</time></trkpt><trkpt lat="42.0751057" lon="11.8985594"><ele>162.0</ele><time>2026-04-11T16:11:54.026Z</time></trkpt><trkpt lat="42.0751912" lon="11.8985574"><ele>162.0</ele><time>2026-04-11T16:11:56.027Z</time></trkpt><trkpt lat="42.0752548" lon="11.898549"><ele>161.5</ele><time>2026-04-11T16:11:58.026Z</time></trkpt><trkpt lat="42.0753413" lon="11.8985034"><ele>161.0</ele><time>2026-04-11T16:12:01.027Z</time></trkpt><trkpt lat="42.0754133" lon="11.898464"><ele>160.5</ele><time>2026-04-11T16:12:03.027Z</time></trkpt><trkpt lat="42.0754768" lon="11.8984284"><ele>160.0</ele><time>2026-04-11T16:12:05.027Z</time></trkpt><trkpt lat="42.0755262" lon="11.898373"><ele>159.5</ele><time>2026-04-11T16:12:07.027Z</time></trkpt><trkpt lat="42.0755878" lon="11.8982844"><ele>159.0</ele><time>2026-04-11T16:12:10.027Z</time></trkpt><trkpt lat="42.0756541" lon="11.8982457"><ele>161.0</ele><time>2026-04-11T16:12:13.026Z</time></trkpt><trkpt lat="42.0757263" lon="11.898244"><ele>163.0</ele><time>2026-04-11T16:12:15.026Z</time></trkpt><trkpt lat="42.0758193" lon="11.8982346"><ele>165.0</ele><time>2026-04-11T16:12:17.026Z</time></trkpt><trkpt lat="42.0759048" lon="11.8982149"><ele>167.0</ele><time>2026-04-11T16:12:19.027Z</time></trkpt><trkpt lat="42.0760065" lon="11.8981855"><ele>169.0</ele><time>2026-04-11T16:12:21.027Z</time></trkpt><trkpt lat="42.0760973" lon="11.8981468"><ele>169.0</ele><time>2026-04-11T16:12:23.026Z</time></trkpt><trkpt lat="42.076188" lon="11.8980738"><ele>169.0</ele><time>2026-04-11T16:12:25.027Z</time></trkpt><trkpt lat="42.0762797" lon="11.8979892"><ele>169.0</ele><time>2026-04-11T16:12:27.027Z</time></trkpt><trkpt lat="42.0763648" lon="11.8979134"><ele>169.0</ele><time>2026-04-11T16:12:29.027Z</time></trkpt><trkpt lat="42.0764325" lon="11.8978411"><ele>169.0</ele><time>2026-04-11T16:12:31.026Z</time></trkpt><trkpt lat="42.0765066" lon="11.8977743"><ele>169.0</ele><time>2026-04-11T16:12:33.025Z</time></trkpt><trkpt lat="42.0765767" lon="11.8977315"><ele>169.0</ele><time>2026-04-11T16:12:35.026Z</time></trkpt><trkpt lat="42.076647" lon="11.8976961"><ele>169.0</ele><time>2026-04-11T16:12:38.026Z</time></trkpt><trkpt lat="42.0767164" lon="11.897623"><ele>169.0</ele><time>2026-04-11T16:12:41.025Z</time></trkpt><trkpt lat="42.0767711" lon="11.8975377"><ele>169.0</ele><time>2026-04-11T16:12:44.025Z</time></trkpt><trkpt lat="42.07683" lon="11.8974585"><ele>169.0</ele><time>2026-04-11T16:12:47.026Z</time></trkpt><trkpt lat="42.0769012" lon="11.8973972"><ele>170.16666666666669</ele><time>2026-04-11T16:12:50.026Z</time></trkpt><trkpt lat="42.0769589" lon="11.8973553"><ele>171.33333333333334</ele><time>2026-04-11T16:12:52.025Z</time></trkpt><trkpt lat="42.077028" lon="11.8973005"><ele>172.5</ele><time>2026-04-11T16:12:54.026Z</time></trkpt><trkpt lat="42.0770936" lon="11.8972579"><ele>173.66666666666666</ele><time>2026-04-11T16:12:56.026Z</time></trkpt><trkpt lat="42.0771682" lon="11.8972139"><ele>174.83333333333331</ele><time>2026-04-11T16:12:58.026Z</time></trkpt><trkpt lat="42.0772454" lon="11.8971765"><ele>176.0</ele><time>2026-04-11T16:13:00.025Z</time></trkpt><trkpt lat="42.0773379" lon="11.8971498"><ele>176.0</ele><time>2026-04-11T16:13:02.025Z</time></trkpt><trkpt lat="42.0774319" lon="11.8971418"><ele>176.0</ele><time>2026-04-11T16:13:04.026Z</time></trkpt><trkpt lat="42.0775355" lon="11.8971761"><ele>176.0</ele><time>2026-04-11T16:13:06.026Z</time></trkpt><trkpt lat="42.0776258" lon="11.8972396"><ele>176.0</ele><time>2026-04-11T16:13:08.025Z</time></trkpt><trkpt lat="42.0776886" lon="11.8973013"><ele>176.0</ele><time>2026-04-11T16:13:10.026Z</time></trkpt><trkpt lat="42.0777384" lon="11.8973777"><ele>174.83333333333331</ele><time>2026-04-11T16:13:12.026Z</time></trkpt><trkpt lat="42.0777886" lon="11.8974488"><ele>173.66666666666666</ele><time>2026-04-11T16:13:14.026Z</time></trkpt><trkpt lat="42.0778096" lon="11.8975485"><ele>172.5</ele><time>2026-04-11T16:13:54.025Z</time></trkpt><trkpt lat="42.077837" lon="11.8976282"><ele>171.33333333333334</ele><time>2026-04-11T16:13:57.025Z</time></trkpt><trkpt lat="42.0778647" lon="11.8977215"><ele>170.16666666666669</ele><time>2026-04-11T16:14:56.026Z</time></trkpt><trkpt lat="42.0778943" lon="11.8978137"><ele>169.0</ele><time>2026-04-11T16:14:59.025Z</time></trkpt><trkpt lat="42.0779396" lon="11.8979142"><ele>169.0</ele><time>2026-04-11T16:15:02.026Z</time></trkpt><trkpt lat="42.0779922" lon="11.8979765"><ele>169.0</ele><time>2026-04-11T16:15:04.025Z</time></trkpt><trkpt lat="42.0780718" lon="11.8980051"><ele>169.0</ele><time>2026-04-11T16:15:17.025Z</time></trkpt><trkpt lat="42.0781472" lon="11.8979998"><ele>169.0</ele><time>2026-04-11T16:15:19.026Z</time></trkpt><trkpt lat="42.0782085" lon="11.8980367"><ele>169.0</ele><time>2026-04-11T16:15:21.025Z</time></trkpt><trkpt lat="42.0782943" lon="11.8980168"><ele>169.0</ele><time>2026-04-11T16:15:24.025Z</time></trkpt><trkpt lat="42.078366" lon="11.8980571"><ele>170.66666666666669</ele><time>2026-04-11T16:15:28.025Z</time></trkpt><trkpt lat="42.0784195" lon="11.8979769"><ele>172.33333333333334</ele><time>2026-04-11T16:15:30.026Z</time></trkpt><trkpt lat="42.078513" lon="11.8979399"><ele>174.0</ele><time>2026-04-11T16:15:32.025Z</time></trkpt><trkpt lat="42.0786035" lon="11.8979017"><ele>175.66666666666666</ele><time>2026-04-11T16:15:35.026Z</time></trkpt><trkpt lat="42.0786643" lon="11.8979246"><ele>177.33333333333331</ele><time>2026-04-11T16:15:37.026Z</time></trkpt><trkpt lat="42.0787238" lon="11.8979737"><ele>179.0</ele><time>2026-04-11T16:15:39.025Z</time></trkpt><trkpt lat="42.0787953" lon="11.8980398"><ele>179.0</ele><time>2026-04-11T16:15:42.026Z</time></trkpt><trkpt lat="42.0788488" lon="11.8981017"><ele>179.0</ele><time>2026-04-11T16:15:45.026Z</time></trkpt><trkpt lat="42.0789034" lon="11.8981711"><ele>179.0</ele><time>2026-04-11T16:15:48.026Z</time></trkpt><trkpt lat="42.0789267" lon="11.8982753"><ele>179.0</ele><time>2026-04-11T16:15:51.026Z</time></trkpt><trkpt lat="42.078957" lon="11.8983628"><ele>179.0</ele><time>2026-04-11T16:15:53.026Z</time></trkpt><trkpt lat="42.0789924" lon="11.8984372"><ele>179.0</ele><time>2026-04-11T16:15:55.025Z</time></trkpt><trkpt lat="42.078999" lon="11.8985549"><ele>178.83333333333331</ele><time>2026-04-11T16:15:57.026Z</time></trkpt><trkpt lat="42.0790308" lon="11.8986353"><ele>178.66666666666666</ele><time>2026-04-11T16:15:59.025Z</time></trkpt><trkpt lat="42.0790848" lon="11.8987284"><ele>178.5</ele><time>2026-04-11T16:16:02.026Z</time></trkpt><trkpt lat="42.079132" lon="11.8988512"><ele>178.33333333333334</ele><time>2026-04-11T16:16:05.026Z</time></trkpt><trkpt lat="42.0791825" lon="11.8989595"><ele>178.16666666666669</ele><time>2026-04-11T16:16:08.026Z</time></trkpt><trkpt lat="42.0792211" lon="11.8990462"><ele>178.0</ele><time>2026-04-11T16:16:10.025Z</time></trkpt><trkpt lat="42.0792743" lon="11.8991383"><ele>180.0</ele><time>2026-04-11T16:16:12.026Z</time></trkpt><trkpt lat="42.0793307" lon="11.8992355"><ele>182.0</ele><time>2026-04-11T16:16:14.026Z</time></trkpt><trkpt lat="42.079393" lon="11.8993244"><ele>184.0</ele><time>2026-04-11T16:16:16.026Z</time></trkpt><trkpt lat="42.0794572" lon="11.8994056"><ele>186.0</ele><time>2026-04-11T16:16:18.026Z</time></trkpt><trkpt lat="42.0795375" lon="11.899433"><ele>188.0</ele><time>2026-04-11T16:16:20.025Z</time></trkpt><trkpt lat="42.0796293" lon="11.8994086"><ele>190.0</ele><time>2026-04-11T16:16:22.025Z</time></trkpt><trkpt lat="42.0797197" lon="11.8993361"><ele>190.0</ele><time>2026-04-11T16:16:24.025Z</time></trkpt><trkpt lat="42.0798151" lon="11.8992316"><ele>190.0</ele><time>2026-04-11T16:16:26.025Z</time></trkpt><trkpt lat="42.0798787" lon="11.8991141"><ele>190.0</ele><time>2026-04-11T16:16:28.025Z</time></trkpt><trkpt lat="42.079928" lon="11.8990202"><ele>190.0</ele><time>2026-04-11T16:16:30.026Z</time></trkpt><trkpt lat="42.0799945" lon="11.8989434"><ele>190.0</ele><time>2026-04-11T16:16:32.026Z</time></trkpt><trkpt lat="42.0800645" lon="11.8988502"><ele>192.33333333333334</ele><time>2026-04-11T16:16:34.025Z</time></trkpt><trkpt lat="42.0801217" lon="11.8988118"><ele>194.66666666666669</ele><time>2026-04-11T16:16:35.026Z</time></trkpt><trkpt lat="42.0801873" lon="11.8987412"><ele>197.0</ele><time>2026-04-11T16:16:37.026Z</time></trkpt><trkpt lat="42.0802467" lon="11.8986788"><ele>199.33333333333334</ele><time>2026-04-11T16:16:39.025Z</time></trkpt><trkpt lat="42.0803377" lon="11.8986047"><ele>201.66666666666666</ele><time>2026-04-11T16:16:41.025Z</time></trkpt><trkpt lat="42.0803946" lon="11.8985196"><ele>204.0</ele><time>2026-04-11T16:16:47.026Z</time></trkpt><trkpt lat="42.0804468" lon="11.8984269"><ele>204.0</ele><time>2026-04-11T16:16:51.025Z</time></trkpt><trkpt lat="42.0805213" lon="11.898375"><ele>204.0</ele><time>2026-04-11T16:16:54.025Z</time></trkpt><trkpt lat="42.0805889" lon="11.8983988"><ele>204.0</ele><time>2026-04-11T16:16:56.026Z</time></trkpt><trkpt lat="42.0806631" lon="11.8984289"><ele>204.0</ele><time>2026-04-11T16:16:58.026Z</time></trkpt><trkpt lat="42.0807203" lon="11.8984767"><ele>204.0</ele><time>2026-04-11T16:17:00.025Z</time></trkpt><trkpt lat="42.0807982" lon="11.8985542"><ele>204.0</ele><time>2026-04-11T16:17:03.025Z</time></trkpt><trkpt lat="42.0808404" lon="11.8986175"><ele>206.0</ele><time>2026-04-11T16:17:05.026Z</time></trkpt><trkpt lat="42.0808694" lon="11.8986971"><ele>208.0</ele><time>2026-04-11T16:17:07.026Z</time></trkpt><trkpt lat="42.0808987" lon="11.8987995"><ele>210.0</ele><time>2026-04-11T16:17:09.026Z</time></trkpt><trkpt lat="42.0809464" lon="11.8989048"><ele>212.0</ele><time>2026-04-11T16:17:11.026Z</time></trkpt><trkpt lat="42.0809902" lon="11.898995"><ele>214.0</ele><time>2026-04-11T16:17:13.025Z</time></trkpt><trkpt lat="42.0810285" lon="11.8990792"><ele>216.0</ele><time>2026-04-11T16:17:15.026Z</time></trkpt><trkpt lat="42.0810603" lon="11.8991606"><ele>216.0</ele><time>2026-04-11T16:17:17.025Z</time></trkpt><trkpt lat="42.0810836" lon="11.8992465"><ele>216.0</ele><time>2026-04-11T16:17:19.026Z</time></trkpt><trkpt lat="42.0811147" lon="11.8993434"><ele>216.0</ele><time>2026-04-11T16:17:21.025Z</time></trkpt><trkpt lat="42.0811582" lon="11.8994307"><ele>216.0</ele><time>2026-04-11T16:17:23.026Z</time></trkpt><trkpt lat="42.0812113" lon="11.8995117"><ele>216.0</ele><time>2026-04-11T16:17:25.026Z</time></trkpt><trkpt lat="42.0812808" lon="11.8995857"><ele>216.0</ele><time>2026-04-11T16:17:27.026Z</time></trkpt><trkpt lat="42.0813538" lon="11.8996404"><ele>216.5</ele><time>2026-04-11T16:17:29.026Z</time></trkpt><trkpt lat="42.0814422" lon="11.8996801"><ele>217.0</ele><time>2026-04-11T16:17:31.026Z</time></trkpt><trkpt lat="42.0815186" lon="11.899725"><ele>217.5</ele><time>2026-04-11T16:17:33.027Z</time></trkpt><trkpt lat="42.0815839" lon="11.8997661"><ele>218.0</ele><time>2026-04-11T16:17:35.027Z</time></trkpt><trkpt lat="42.0816548" lon="11.8997915"><ele>218.5</ele><time>2026-04-11T16:17:37.026Z</time></trkpt><trkpt lat="42.0817394" lon="11.8998189"><ele>219.0</ele><time>2026-04-11T16:17:39.026Z</time></trkpt><trkpt lat="42.0818" lon="11.8998751"><ele>220.83333333333334</ele><time>2026-04-11T16:17:41.027Z</time></trkpt><trkpt lat="42.0818231" lon="11.8999692"><ele>222.66666666666669</ele><time>2026-04-11T16:17:43.027Z</time></trkpt><trkpt lat="42.0817984" lon="11.90011"><ele>224.5</ele><time>2026-04-11T16:17:45.026Z</time></trkpt><trkpt lat="42.0817717" lon="11.9002207"><ele>226.33333333333334</ele><time>2026-04-11T16:17:47.027Z</time></trkpt><trkpt lat="42.0817472" lon="11.9003295"><ele>228.16666666666669</ele><time>2026-04-11T16:17:50.026Z</time></trkpt><trkpt lat="42.0817211" lon="11.9004104"><ele>230.0</ele><time>2026-04-11T16:17:52.026Z</time></trkpt><trkpt lat="42.0817096" lon="11.9005356"><ele>231.00000000000003</ele><time>2026-04-11T16:17:55.027Z</time></trkpt><trkpt lat="42.0817133" lon="11.9006391"><ele>232.0</ele><time>2026-04-11T16:17:57.027Z</time></trkpt><trkpt lat="42.0817185" lon="11.9007661"><ele>233.0</ele><time>2026-04-11T16:17:59.026Z</time></trkpt><trkpt lat="42.0817126" lon="11.9008936"><ele>234.0</ele><time>2026-04-11T16:18:01.026Z</time></trkpt><trkpt lat="42.0817143" lon="11.9010373"><ele>235.00000000000003</ele><time>2026-04-11T16:18:03.027Z</time></trkpt><trkpt lat="42.0817141" lon="11.9011346"><ele>236.0</ele><time>2026-04-11T16:18:05.026Z</time></trkpt><trkpt lat="42.0817097" lon="11.9012461"><ele>236.14285714285714</ele><time>2026-04-11T16:18:08.026Z</time></trkpt><trkpt lat="42.0817097" lon="11.901331"><ele>236.28571428571428</ele><time>2026-04-11T16:18:10.027Z</time></trkpt><trkpt lat="42.0817431" lon="11.9014475"><ele>236.42857142857142</ele><time>2026-04-11T16:18:12.027Z</time></trkpt><trkpt lat="42.0817726" lon="11.9015434"><ele>236.57142857142856</ele><time>2026-04-11T16:18:14.027Z</time></trkpt><trkpt lat="42.0818039" lon="11.9016393"><ele>236.71428571428572</ele><time>2026-04-11T16:18:16.027Z</time></trkpt><trkpt lat="42.0818464" lon="11.9017149"><ele>236.85714285714283</ele><time>2026-04-11T16:18:18.026Z</time></trkpt><trkpt lat="42.0818974" lon="11.9017738"><ele>236.99999999999997</ele><time>2026-04-11T16:18:20.027Z</time></trkpt><trkpt lat="42.081958" lon="11.901818"><ele>236.33333333333334</ele><time>2026-04-11T16:18:22.027Z</time></trkpt><trkpt lat="42.0820118" lon="11.9019049"><ele>235.66666666666669</ele><time>2026-04-11T16:18:25.026Z</time></trkpt><trkpt lat="42.0820754" lon="11.9019307"><ele>235.0</ele><time>2026-04-11T16:18:26.027Z</time></trkpt><trkpt lat="42.0821692" lon="11.9019772"><ele>234.33333333333334</ele><time>2026-04-11T16:18:28.026Z</time></trkpt><trkpt lat="42.0822345" lon="11.9020454"><ele>233.66666666666669</ele><time>2026-04-11T16:18:31.026Z</time></trkpt><trkpt lat="42.0823098" lon="11.9020735"><ele>233.0</ele><time>2026-04-11T16:18:33.026Z</time></trkpt><trkpt lat="42.0823647" lon="11.9021266"><ele>233.0</ele><time>2026-04-11T16:18:35.026Z</time></trkpt><trkpt lat="42.0824136" lon="11.9021865"><ele>233.0</ele><time>2026-04-11T16:18:37.027Z</time></trkpt><trkpt lat="42.0824626" lon="11.902253"><ele>233.0</ele><time>2026-04-11T16:18:39.027Z</time></trkpt><trkpt lat="42.0825089" lon="11.9023106"><ele>233.0</ele><time>2026-04-11T16:18:41.026Z</time></trkpt><trkpt lat="42.0825567" lon="11.902419"><ele>233.0</ele><time>2026-04-11T16:18:44.027Z</time></trkpt><trkpt lat="42.0825987" lon="11.9025122"><ele>233.0</ele><time>2026-04-11T16:18:47.026Z</time></trkpt><trkpt lat="42.0826142" lon="11.9025994"><ele>233.0</ele><time>2026-04-11T16:18:51.027Z</time></trkpt><trkpt lat="42.0826281" lon="11.9026874"><ele>235.50000000000003</ele><time>2026-04-11T16:18:55.027Z</time></trkpt><trkpt lat="42.0826474" lon="11.9027873"><ele>238.0</ele><time>2026-04-11T16:18:59.026Z</time></trkpt><trkpt lat="42.0827013" lon="11.9028768"><ele>240.5</ele><time>2026-04-11T16:19:02.027Z</time></trkpt><trkpt lat="42.082772" lon="11.9029467"><ele>243.0</ele><time>2026-04-11T16:19:04.026Z</time></trkpt><trkpt lat="42.0828315" lon="11.9029881"><ele>245.50000000000003</ele><time>2026-04-11T16:19:07.026Z</time></trkpt><trkpt lat="42.0829141" lon="11.9030056"><ele>248.0</ele><time>2026-04-11T16:19:11.026Z</time></trkpt><trkpt lat="42.0829796" lon="11.902987"><ele>248.00000000000003</ele><time>2026-04-11T16:19:14.027Z</time></trkpt><trkpt lat="42.0830336" lon="11.9028936"><ele>248.0</ele><time>2026-04-11T16:19:17.027Z</time></trkpt><trkpt lat="42.083081" lon="11.9028058"><ele>248.0</ele><time>2026-04-11T16:19:20.026Z</time></trkpt><trkpt lat="42.0830868" lon="11.9027143"><ele>248.0</ele><time>2026-04-11T16:19:23.027Z</time></trkpt><trkpt lat="42.0831001" lon="11.9026045"><ele>248.00000000000003</ele><time>2026-04-11T16:19:27.027Z</time></trkpt><trkpt lat="42.0831248" lon="11.9024903"><ele>248.0</ele><time>2026-04-11T16:19:30.026Z</time></trkpt><trkpt lat="42.0831427" lon="11.9023705"><ele>248.66666666666669</ele><time>2026-04-11T16:19:33.027Z</time></trkpt><trkpt lat="42.083165" lon="11.9022459"><ele>249.33333333333334</ele><time>2026-04-11T16:19:36.026Z</time></trkpt><trkpt lat="42.0831933" lon="11.9021274"><ele>250.0</ele><time>2026-04-11T16:19:39.027Z</time></trkpt><trkpt lat="42.0831993" lon="11.9020334"><ele>250.66666666666669</ele><time>2026-04-11T16:19:41.027Z</time></trkpt><trkpt lat="42.0832215" lon="11.9019272"><ele>251.33333333333334</ele><time>2026-04-11T16:19:43.027Z</time></trkpt><trkpt lat="42.0832383" lon="11.9018375"><ele>252.0</ele><time>2026-04-11T16:19:45.027Z</time></trkpt><trkpt lat="42.0832401" lon="11.9017485"><ele>252.0</ele><time>2026-04-11T16:19:47.027Z</time></trkpt><trkpt lat="42.0832492" lon="11.9016252"><ele>252.0</ele><time>2026-04-11T16:19:50.027Z</time></trkpt><trkpt lat="42.0832793" lon="11.9015269"><ele>252.0</ele><time>2026-04-11T16:19:52.027Z</time></trkpt><trkpt lat="42.0833253" lon="11.9014432"><ele>252.0</ele><time>2026-04-11T16:19:54.026Z</time></trkpt><trkpt lat="42.0833695" lon="11.9013476"><ele>252.0</ele><time>2026-04-11T16:19:57.026Z</time></trkpt><trkpt lat="42.0833984" lon="11.9012512"><ele>252.0</ele><time>2026-04-11T16:20:00.026Z</time></trkpt><trkpt lat="42.0834384" lon="11.9011782"><ele>254.83333333333334</ele><time>2026-04-11T16:20:02.026Z</time></trkpt><trkpt lat="42.083494" lon="11.901102"><ele>257.6666666666667</ele><time>2026-04-11T16:20:04.027Z</time></trkpt><trkpt lat="42.0835449" lon="11.9010208"><ele>260.5</ele><time>2026-04-11T16:20:06.027Z</time></trkpt><trkpt lat="42.0836292" lon="11.900978"><ele>263.33333333333337</ele><time>2026-04-11T16:20:08.027Z</time></trkpt><trkpt lat="42.0836909" lon="11.9009323"><ele>266.1666666666667</ele><time>2026-04-11T16:20:10.026Z</time></trkpt><trkpt lat="42.0837496" lon="11.90088"><ele>269.0</ele><time>2026-04-11T16:20:12.026Z</time></trkpt><trkpt lat="42.0838296" lon="11.9008219"><ele>269.0</ele><time>2026-04-11T16:20:15.026Z</time></trkpt><trkpt lat="42.0839087" lon="11.9007802"><ele>269.0</ele><time>2026-04-11T16:20:18.027Z</time></trkpt><trkpt lat="42.0839798" lon="11.9007697"><ele>269.0</ele><time>2026-04-11T16:20:20.026Z</time></trkpt><trkpt lat="42.0840467" lon="11.9006958"><ele>269.0</ele><time>2026-04-11T16:20:22.027Z</time></trkpt><trkpt lat="42.0841298" lon="11.9006685"><ele>269.0</ele><time>2026-04-11T16:20:24.027Z</time></trkpt><trkpt lat="42.0842143" lon="11.9006957"><ele>269.0</ele><time>2026-04-11T16:20:26.026Z</time></trkpt><trkpt lat="42.0842955" lon="11.9007529"><ele>271.4</ele><time>2026-04-11T16:20:28.026Z</time></trkpt><trkpt lat="42.0843509" lon="11.9008492"><ele>273.79999999999995</ele><time>2026-04-11T16:20:30.027Z</time></trkpt><trkpt lat="42.0843973" lon="11.9009451"><ele>276.20000000000005</ele><time>2026-04-11T16:20:32.027Z</time></trkpt><trkpt lat="42.0844173" lon="11.9010559"><ele>278.6</ele><time>2026-04-11T16:20:35.027Z</time></trkpt><trkpt lat="42.0844407" lon="11.9011957"><ele>281.0</ele><time>2026-04-11T16:20:38.026Z</time></trkpt><trkpt lat="42.0844505" lon="11.9013395"><ele>283.2</ele><time>2026-04-11T16:20:40.026Z</time></trkpt><trkpt lat="42.0845222" lon="11.9014393"><ele>285.40000000000003</ele><time>2026-04-11T16:20:42.025Z</time></trkpt><trkpt lat="42.0846076" lon="11.9014726"><ele>287.6</ele><time>2026-04-11T16:20:44.026Z</time></trkpt><trkpt lat="42.0846619" lon="11.9015304"><ele>289.8</ele><time>2026-04-11T16:20:47.026Z</time></trkpt><trkpt lat="42.0847297" lon="11.9015397"><ele>292.0</ele><time>2026-04-11T16:20:50.026Z</time></trkpt><trkpt lat="42.0848921" lon="11.9015153"><ele>292.8</ele><time>2026-04-11T16:20:56.025Z</time></trkpt><trkpt lat="42.0850633" lon="11.9015133"><ele>293.6</ele><time>2026-04-11T16:21:01.025Z</time></trkpt><trkpt lat="42.0851531" lon="11.9014883"><ele>294.40000000000003</ele><time>2026-04-11T16:21:04.025Z</time></trkpt><trkpt lat="42.0852321" lon="11.9014302"><ele>295.2</ele><time>2026-04-11T16:21:07.026Z</time></trkpt><trkpt lat="42.0853104" lon="11.9013929"><ele>296.0</ele><time>2026-04-11T16:21:09.026Z</time></trkpt><trkpt lat="42.085398" lon="11.9013494"><ele>296.0</ele><time>2026-04-11T16:21:12.025Z</time></trkpt><trkpt lat="42.0854663" lon="11.9013206"><ele>296.0</ele><time>2026-04-11T16:21:15.026Z</time></trkpt><trkpt lat="42.085544" lon="11.9012773"><ele>296.0</ele><time>2026-04-11T16:21:18.025Z</time></trkpt><trkpt lat="42.0856032" lon="11.901246"><ele>296.0</ele><time>2026-04-11T16:21:20.025Z</time></trkpt><trkpt lat="42.085698" lon="11.9012456"><ele>296.0</ele><time>2026-04-11T16:21:23.025Z</time></trkpt><trkpt lat="42.0857752" lon="11.9012387"><ele>296.0</ele><time>2026-04-11T16:21:25.025Z</time></trkpt><trkpt lat="42.0858626" lon="11.9011827"><ele>296.8571428571429</ele><time>2026-04-11T16:21:27.025Z</time></trkpt><trkpt lat="42.0859537" lon="11.9011412"><ele>297.7142857142857</ele><time>2026-04-11T16:21:29.025Z</time></trkpt><trkpt lat="42.0860139" lon="11.901168"><ele>298.57142857142856</ele><time>2026-04-11T16:21:30.025Z</time></trkpt><trkpt lat="42.0860781" lon="11.9011928"><ele>299.42857142857144</ele><time>2026-04-11T16:21:31.026Z</time></trkpt><trkpt lat="42.0861392" lon="11.9012276"><ele>300.2857142857143</ele><time>2026-04-11T16:21:32.025Z</time></trkpt><trkpt lat="42.0862068" lon="11.9012751"><ele>301.14285714285717</ele><time>2026-04-11T16:21:33.025Z</time></trkpt><trkpt lat="42.0862717" lon="11.9013343"><ele>302.0</ele><time>2026-04-11T16:21:34.025Z</time></trkpt><trkpt lat="42.0863366" lon="11.901398"><ele>302.0</ele><time>2026-04-11T16:21:35.026Z</time></trkpt><trkpt lat="42.0863951" lon="11.9014589"><ele>302.0</ele><time>2026-04-11T16:21:36.025Z</time></trkpt><trkpt lat="42.0864821" lon="11.9015389"><ele>302.0</ele><time>2026-04-11T16:21:38.026Z</time></trkpt><trkpt lat="42.0865262" lon="11.9016053"><ele>302.0</ele><time>2026-04-11T16:21:41.025Z</time></trkpt><trkpt lat="42.0865259" lon="11.9017038"><ele>302.0</ele><time>2026-04-11T16:21:49.026Z</time></trkpt><trkpt lat="42.0866003" lon="11.9017178"><ele>302.0</ele><time>2026-04-11T16:22:05.025Z</time></trkpt><trkpt lat="42.0866756" lon="11.9017762"><ele>301.6666666666667</ele><time>2026-04-11T16:22:07.025Z</time></trkpt><trkpt lat="42.0867245" lon="11.9018595"><ele>301.33333333333337</ele><time>2026-04-11T16:22:09.026Z</time></trkpt><trkpt lat="42.0867806" lon="11.9019231"><ele>301.0</ele><time>2026-04-11T16:22:11.026Z</time></trkpt><trkpt lat="42.0868343" lon="11.901977"><ele>300.6666666666667</ele><time>2026-04-11T16:22:13.026Z</time></trkpt><trkpt lat="42.0869137" lon="11.9020201"><ele>300.3333333333333</ele><time>2026-04-11T16:22:16.026Z</time></trkpt><trkpt lat="42.0870052" lon="11.902028"><ele>300.0</ele><time>2026-04-11T16:22:19.025Z</time></trkpt><trkpt lat="42.0870693" lon="11.90203"><ele>300.0</ele><time>2026-04-11T16:22:21.026Z</time></trkpt><trkpt lat="42.0871427" lon="11.9020399"><ele>300.0</ele><time>2026-04-11T16:22:23.025Z</time></trkpt><trkpt lat="42.0872224" lon="11.9020207"><ele>300.0</ele><time>2026-04-11T16:22:25.025Z</time></trkpt><trkpt lat="42.0872956" lon="11.9020148"><ele>300.0</ele><time>2026-04-11T16:22:27.026Z</time></trkpt><trkpt lat="42.0873792" lon="11.9020174"><ele>300.0</ele><time>2026-04-11T16:22:29.026Z</time></trkpt><trkpt lat="42.0874611" lon="11.9020236"><ele>300.0</ele><time>2026-04-11T16:22:31.025Z</time></trkpt><trkpt lat="42.087534" lon="11.9020359"><ele>300.6666666666667</ele><time>2026-04-11T16:22:33.026Z</time></trkpt><trkpt lat="42.0876158" lon="11.9020353"><ele>301.3333333333333</ele><time>2026-04-11T16:22:37.025Z</time></trkpt><trkpt lat="42.087684" lon="11.9019891"><ele>302.0</ele><time>2026-04-11T16:22:40.026Z</time></trkpt><trkpt lat="42.0877693" lon="11.9020458"><ele>302.66666666666663</ele><time>2026-04-11T16:22:43.026Z</time></trkpt><trkpt lat="42.0878541" lon="11.9021075"><ele>303.3333333333333</ele><time>2026-04-11T16:22:45.026Z</time></trkpt><trkpt lat="42.0879248" lon="11.9021847"><ele>304.0</ele><time>2026-04-11T16:22:47.026Z</time></trkpt><trkpt lat="42.0879693" lon="11.9022562"><ele>304.0</ele><time>2026-04-11T16:22:49.026Z</time></trkpt><trkpt lat="42.0880122" lon="11.9023288"><ele>304.0</ele><time>2026-04-11T16:22:54.025Z</time></trkpt><trkpt lat="42.0880668" lon="11.9024199"><ele>304.0</ele><time>2026-04-11T16:22:57.026Z</time></trkpt><trkpt lat="42.0881345" lon="11.9024611"><ele>304.0</ele><time>2026-04-11T16:23:00.026Z</time></trkpt><trkpt lat="42.0881954" lon="11.902517"><ele>304.0</ele><time>2026-04-11T16:23:02.025Z</time></trkpt><trkpt lat="42.0882811" lon="11.9025843"><ele>304.0</ele><time>2026-04-11T16:23:04.025Z</time></trkpt><trkpt lat="42.0883524" lon="11.9026547"><ele>304.2</ele><time>2026-04-11T16:23:06.026Z</time></trkpt><trkpt lat="42.088411" lon="11.9026926"><ele>304.4</ele><time>2026-04-11T16:23:07.025Z</time></trkpt><trkpt lat="42.0885122" lon="11.902779"><ele>304.6</ele><time>2026-04-11T16:23:09.026Z</time></trkpt><trkpt lat="42.0886033" lon="11.9028576"><ele>304.8</ele><time>2026-04-11T16:23:11.026Z</time></trkpt><trkpt lat="42.0886957" lon="11.9029418"><ele>305.0</ele><time>2026-04-11T16:23:13.026Z</time></trkpt><trkpt lat="42.0887872" lon="11.903009"><ele>305.0</ele><time>2026-04-11T16:23:15.026Z</time></trkpt><trkpt lat="42.0888822" lon="11.9030718"><ele>305.0</ele><time>2026-04-11T16:23:17.025Z</time></trkpt><trkpt lat="42.088974" lon="11.9031287"><ele>305.0</ele><time>2026-04-11T16:23:19.026Z</time></trkpt><trkpt lat="42.0890698" lon="11.9031857"><ele>305.0</ele><time>2026-04-11T16:23:21.025Z</time></trkpt><trkpt lat="42.0891723" lon="11.9032363"><ele>305.0</ele><time>2026-04-11T16:23:23.026Z</time></trkpt><trkpt lat="42.0892756" lon="11.9032793"><ele>306.8</ele><time>2026-04-11T16:23:25.026Z</time></trkpt><trkpt lat="42.0893923" lon="11.9032717"><ele>308.6</ele><time>2026-04-11T16:23:27.026Z</time></trkpt><trkpt lat="42.0895074" lon="11.9032355"><ele>310.4</ele><time>2026-04-11T16:23:29.026Z</time></trkpt><trkpt lat="42.0896233" lon="11.9031802"><ele>312.2</ele><time>2026-04-11T16:23:31.025Z</time></trkpt><trkpt lat="42.0896849" lon="11.9031465"><ele>314.0</ele><time>2026-04-11T16:23:32.025Z</time></trkpt><trkpt lat="42.0897993" lon="11.9030961"><ele>314.0</ele><time>2026-04-11T16:23:34.025Z</time></trkpt><trkpt lat="42.0898986" lon="11.9030606"><ele>314.0</ele><time>2026-04-11T16:23:36.025Z</time></trkpt><trkpt lat="42.0899843" lon="11.9030469"><ele>314.0</ele><time>2026-04-11T16:23:38.025Z</time></trkpt><trkpt lat="42.0900879" lon="11.9030733"><ele>314.0</ele><time>2026-04-11T16:23:40.025Z</time></trkpt><trkpt lat="42.0902089" lon="11.9031065"><ele>314.0</ele><time>2026-04-11T16:23:42.026Z</time></trkpt><trkpt lat="42.0902741" lon="11.9031244"><ele>313.59999999999997</ele><time>2026-04-11T16:23:43.026Z</time></trkpt><trkpt lat="42.0903379" lon="11.9031459"><ele>313.2</ele><time>2026-04-11T16:23:44.025Z</time></trkpt><trkpt lat="42.0904456" lon="11.9031911"><ele>312.79999999999995</ele><time>2026-04-11T16:23:46.025Z</time></trkpt><trkpt lat="42.0905584" lon="11.9032289"><ele>312.4</ele><time>2026-04-11T16:23:48.026Z</time></trkpt><trkpt lat="42.0906698" lon="11.9032699"><ele>312.0</ele><time>2026-04-11T16:23:50.026Z</time></trkpt><trkpt lat="42.0907317" lon="11.9032911"><ele>312.5</ele><time>2026-04-11T16:23:51.025Z</time></trkpt><trkpt lat="42.0908502" lon="11.9033274"><ele>313.0</ele><time>2026-04-11T16:23:53.026Z</time></trkpt><trkpt lat="42.0909179" lon="11.903349"><ele>313.5</ele><time>2026-04-11T16:23:54.026Z</time></trkpt><trkpt lat="42.0909849" lon="11.903367"><ele>314.0</ele><time>2026-04-11T16:23:55.026Z</time></trkpt><trkpt lat="42.0910489" lon="11.9033875"><ele>314.5</ele><time>2026-04-11T16:23:56.026Z</time></trkpt><trkpt lat="42.091133" lon="11.9034055"><ele>315.0</ele><time>2026-04-11T16:23:58.026Z</time></trkpt><trkpt lat="42.0911592" lon="11.9035122"><ele>314.85714285714283</ele><time>2026-04-11T16:24:01.026Z</time></trkpt><trkpt lat="42.0911993" lon="11.9035853"><ele>314.7142857142857</ele><time>2026-04-11T16:24:02.026Z</time></trkpt><trkpt lat="42.0912798" lon="11.9036284"><ele>314.57142857142856</ele><time>2026-04-11T16:24:04.025Z</time></trkpt><trkpt lat="42.0913365" lon="11.9036654"><ele>314.42857142857144</ele><time>2026-04-11T16:24:05.026Z</time></trkpt><trkpt lat="42.0913879" lon="11.9037223"><ele>314.2857142857143</ele><time>2026-04-11T16:24:06.026Z</time></trkpt><trkpt lat="42.0914454" lon="11.903774"><ele>314.1428571428571</ele><time>2026-04-11T16:24:07.025Z</time></trkpt><trkpt lat="42.0915102" lon="11.9037896"><ele>314.0</ele><time>2026-04-11T16:24:08.026Z</time></trkpt><trkpt lat="42.0916795" lon="11.9038361"><ele>314.0</ele><time>2026-04-11T16:24:12.026Z</time></trkpt><trkpt lat="42.0916756" lon="11.9039484"><ele>314.0</ele><time>2026-04-11T16:24:13.025Z</time></trkpt><trkpt lat="42.0916672" lon="11.904062"><ele>314.0</ele><time>2026-04-11T16:24:14.026Z</time></trkpt><trkpt lat="42.0916992" lon="11.9041464"><ele>314.0</ele><time>2026-04-11T16:24:15.026Z</time></trkpt><trkpt lat="42.0917744" lon="11.9042638"><ele>314.0</ele><time>2026-04-11T16:24:17.026Z</time></trkpt><trkpt lat="42.0919677" lon="11.9045051"><ele>312.1666666666667</ele><time>2026-04-11T16:24:23.025Z</time></trkpt><trkpt lat="42.0920171" lon="11.9045753"><ele>310.33333333333337</ele><time>2026-04-11T16:24:24.025Z</time></trkpt><trkpt lat="42.0920718" lon="11.9046399"><ele>308.5</ele><time>2026-04-11T16:24:25.026Z</time></trkpt><trkpt lat="42.0921194" lon="11.9046982"><ele>306.6666666666667</ele><time>2026-04-11T16:24:26.025Z</time></trkpt><trkpt lat="42.0921708" lon="11.9047608"><ele>304.8333333333333</ele><time>2026-04-11T16:24:27.025Z</time></trkpt><trkpt lat="42.092221" lon="11.904823"><ele>303.0</ele><time>2026-04-11T16:24:28.025Z</time></trkpt><trkpt lat="42.0923234" lon="11.9049296"><ele>303.0</ele><time>2026-04-11T16:24:30.026Z</time></trkpt><trkpt lat="42.0923918" lon="11.9049747"><ele>303.0</ele><time>2026-04-11T16:24:31.025Z</time></trkpt><trkpt lat="42.0924678" lon="11.9050569"><ele>303.0</ele><time>2026-04-11T16:24:33.026Z</time></trkpt><trkpt lat="42.0925064" lon="11.9051453"><ele>303.0</ele><time>2026-04-11T16:24:35.026Z</time></trkpt><trkpt lat="42.092582" lon="11.9052047"><ele>303.0</ele><time>2026-04-11T16:24:37.026Z</time></trkpt><trkpt lat="42.0926869" lon="11.9052585"><ele>303.0</ele><time>2026-04-11T16:24:39.025Z</time></trkpt><trkpt lat="42.0927985" lon="11.9053083"><ele>303.4</ele><time>2026-04-11T16:24:41.026Z</time></trkpt><trkpt lat="42.0929093" lon="11.9053543"><ele>303.8</ele><time>2026-04-11T16:24:43.026Z</time></trkpt><trkpt lat="42.0930246" lon="11.9053719"><ele>304.2</ele><time>2026-04-11T16:24:45.025Z</time></trkpt><trkpt lat="42.0930855" lon="11.9053937"><ele>304.6</ele><time>2026-04-11T16:24:46.026Z</time></trkpt><trkpt lat="42.0931499" lon="11.9054123"><ele>305.0</ele><time>2026-04-11T16:24:47.025Z</time></trkpt><trkpt lat="42.0932719" lon="11.9054636"><ele>305.5</ele><time>2026-04-11T16:24:49.025Z</time></trkpt><trkpt lat="42.0933343" lon="11.9055015"><ele>306.0</ele><time>2026-04-11T16:24:50.026Z</time></trkpt><trkpt lat="42.0934492" lon="11.9055694"><ele>306.5</ele><time>2026-04-11T16:24:52.026Z</time></trkpt><trkpt lat="42.0935084" lon="11.9056021"><ele>307.0</ele><time>2026-04-11T16:24:53.025Z</time></trkpt><trkpt lat="42.0935726" lon="11.9056315"><ele>307.5</ele><time>2026-04-11T16:24:54.025Z</time></trkpt><trkpt lat="42.0936884" lon="11.905673"><ele>308.0</ele><time>2026-04-11T16:24:56.026Z</time></trkpt><trkpt lat="42.0938059" lon="11.9057048"><ele>308.0</ele><time>2026-04-11T16:24:58.026Z</time></trkpt><trkpt lat="42.0939149" lon="11.9057391"><ele>308.0</ele><time>2026-04-11T16:25:00.026Z</time></trkpt><trkpt lat="42.0940197" lon="11.9058075"><ele>308.0</ele><time>2026-04-11T16:25:02.025Z</time></trkpt><trkpt lat="42.0941236" lon="11.9058904"><ele>308.0</ele><time>2026-04-11T16:25:04.026Z</time></trkpt><trkpt lat="42.0942227" lon="11.90596"><ele>308.5</ele><time>2026-04-11T16:25:06.025Z</time></trkpt><trkpt lat="42.0942828" lon="11.9060093"><ele>309.0</ele><time>2026-04-11T16:25:08.025Z</time></trkpt><trkpt lat="42.094338" lon="11.9060816"><ele>309.5</ele><time>2026-04-11T16:25:11.025Z</time></trkpt><trkpt lat="42.0944199" lon="11.9061464"><ele>310.0</ele><time>2026-04-11T16:25:14.025Z</time></trkpt><trkpt lat="42.0944781" lon="11.9062181"><ele>310.5</ele><time>2026-04-11T16:25:16.026Z</time></trkpt><trkpt lat="42.0945396" lon="11.906294"><ele>311.0</ele><time>2026-04-11T16:25:19.026Z</time></trkpt><trkpt lat="42.0945919" lon="11.906384"><ele>311.0</ele><time>2026-04-11T16:25:22.025Z</time></trkpt><trkpt lat="42.0946484" lon="11.9064668"><ele>311.0</ele><time>2026-04-11T16:25:27.025Z</time></trkpt><trkpt lat="42.094661" lon="11.9065743"><ele>311.0</ele><time>2026-04-11T16:25:30.025Z</time></trkpt><trkpt lat="42.0947014" lon="11.9066467"><ele>311.0</ele><time>2026-04-11T16:25:33.025Z</time></trkpt><trkpt lat="42.0947199" lon="11.9067582"><ele>311.0</ele><time>2026-04-11T16:25:37.026Z</time></trkpt><trkpt lat="42.0947491" lon="11.9068466"><ele>311.0</ele><time>2026-04-11T16:25:39.026Z</time></trkpt><trkpt lat="42.0948062" lon="11.9070521"><ele>311.0</ele><time>2026-04-11T16:25:44.025Z</time></trkpt><trkpt lat="42.0948477" lon="11.9071749"><ele>311.0</ele><time>2026-04-11T16:25:46.025Z</time></trkpt><trkpt lat="42.0948998" lon="11.9072542"><ele>311.0</ele><time>2026-04-11T16:25:49.026Z</time></trkpt><trkpt lat="42.0949253" lon="11.9073592"><ele>311.0</ele><time>2026-04-11T16:25:52.025Z</time></trkpt><trkpt lat="42.0949893" lon="11.9074145"><ele>311.0</ele><time>2026-04-11T16:25:55.026Z</time></trkpt><trkpt lat="42.0949956" lon="11.9075086"><ele>311.0</ele><time>2026-04-11T16:25:58.026Z</time></trkpt><trkpt lat="42.0950452" lon="11.9076093"><ele>313.1666666666667</ele><time>2026-04-11T16:26:02.025Z</time></trkpt><trkpt lat="42.095094" lon="11.9076818"><ele>315.33333333333337</ele><time>2026-04-11T16:26:05.026Z</time></trkpt><trkpt lat="42.095153" lon="11.9077346"><ele>317.5</ele><time>2026-04-11T16:26:08.026Z</time></trkpt><trkpt lat="42.095222" lon="11.907803"><ele>319.6666666666667</ele><time>2026-04-11T16:26:11.025Z</time></trkpt><trkpt lat="42.0953077" lon="11.9078301"><ele>321.8333333333333</ele><time>2026-04-11T16:26:14.026Z</time></trkpt><trkpt lat="42.0953749" lon="11.9079098"><ele>324.0</ele><time>2026-04-11T16:26:17.025Z</time></trkpt><trkpt lat="42.0954224" lon="11.9080081"><ele>324.0</ele><time>2026-04-11T16:26:20.025Z</time></trkpt><trkpt lat="42.0954934" lon="11.9080811"><ele>324.0</ele><time>2026-04-11T16:26:23.026Z</time></trkpt><trkpt lat="42.0955522" lon="11.9081381"><ele>324.0</ele><time>2026-04-11T16:26:26.026Z</time></trkpt><trkpt lat="42.0956075" lon="11.9082174"><ele>324.0</ele><time>2026-04-11T16:26:29.025Z</time></trkpt><trkpt lat="42.0956522" lon="11.9082791"><ele>324.0</ele><time>2026-04-11T16:26:31.026Z</time></trkpt><trkpt lat="42.0956983" lon="11.9083442"><ele>324.0</ele><time>2026-04-11T16:26:33.025Z</time></trkpt><trkpt lat="42.095769" lon="11.9084272"><ele>326.0</ele><time>2026-04-11T16:26:36.026Z</time></trkpt><trkpt lat="42.0958133" lon="11.9084886"><ele>328.0</ele><time>2026-04-11T16:26:38.026Z</time></trkpt><trkpt lat="42.0958694" lon="11.9085723"><ele>330.0</ele><time>2026-04-11T16:26:41.025Z</time></trkpt><trkpt lat="42.0959223" lon="11.9086577"><ele>332.0</ele><time>2026-04-11T16:26:44.026Z</time></trkpt><trkpt lat="42.0959744" lon="11.9087305"><ele>334.0</ele><time>2026-04-11T16:26:47.025Z</time></trkpt><trkpt lat="42.0960228" lon="11.9088185"><ele>336.0</ele><time>2026-04-11T16:26:50.026Z</time></trkpt><trkpt lat="42.0960741" lon="11.9089002"><ele>336.0</ele><time>2026-04-11T16:26:53.025Z</time></trkpt><trkpt lat="42.0961167" lon="11.9089861"><ele>336.0</ele><time>2026-04-11T16:26:56.026Z</time></trkpt><trkpt lat="42.0961614" lon="11.9090734"><ele>336.0</ele><time>2026-04-11T16:26:59.025Z</time></trkpt><trkpt lat="42.0962084" lon="11.9091757"><ele>336.0</ele><time>2026-04-11T16:27:02.026Z</time></trkpt><trkpt lat="42.0962486" lon="11.9092562"><ele>336.0</ele><time>2026-04-11T16:27:04.026Z</time></trkpt><trkpt lat="42.0962986" lon="11.9093425"><ele>336.0</ele><time>2026-04-11T16:27:06.026Z</time></trkpt><trkpt lat="42.0963575" lon="11.909408"><ele>335.8</ele><time>2026-04-11T16:27:08.025Z</time></trkpt><trkpt lat="42.0964175" lon="11.9094855"><ele>335.6</ele><time>2026-04-11T16:27:10.026Z</time></trkpt><trkpt lat="42.0964675" lon="11.9095985"><ele>335.4</ele><time>2026-04-11T16:27:12.026Z</time></trkpt><trkpt lat="42.0965216" lon="11.9097061"><ele>335.2</ele><time>2026-04-11T16:27:14.025Z</time></trkpt><trkpt lat="42.0965735" lon="11.9098316"><ele>335.0</ele><time>2026-04-11T16:27:16.025Z</time></trkpt><trkpt lat="42.0966277" lon="11.9099749"><ele>337.4</ele><time>2026-04-11T16:27:18.025Z</time></trkpt><trkpt lat="42.0966802" lon="11.9101023"><ele>339.8</ele><time>2026-04-11T16:27:20.026Z</time></trkpt><trkpt lat="42.0967202" lon="11.910213"><ele>342.20000000000005</ele><time>2026-04-11T16:27:22.026Z</time></trkpt><trkpt lat="42.0967514" lon="11.910346"><ele>344.6</ele><time>2026-04-11T16:27:24.026Z</time></trkpt><trkpt lat="42.0967843" lon="11.9104722"><ele>347.0</ele><time>2026-04-11T16:27:26.026Z</time></trkpt><trkpt lat="42.0967894" lon="11.9105899"><ele>347.0</ele><time>2026-04-11T16:27:28.026Z</time></trkpt><trkpt lat="42.0968084" lon="11.9106744"><ele>347.0</ele><time>2026-04-11T16:27:30.026Z</time></trkpt><trkpt lat="42.0968181" lon="11.9108168"><ele>347.0</ele><time>2026-04-11T16:27:34.026Z</time></trkpt><trkpt lat="42.0968337" lon="11.9109501"><ele>347.0</ele><time>2026-04-11T16:27:37.025Z</time></trkpt><trkpt lat="42.0968525" lon="11.9110502"><ele>347.0</ele><time>2026-04-11T16:27:39.025Z</time></trkpt><trkpt lat="42.0968721" lon="11.9111462"><ele>347.0</ele><time>2026-04-11T16:27:41.025Z</time></trkpt><trkpt lat="42.0968867" lon="11.9112448"><ele>349.0</ele><time>2026-04-11T16:27:43.026Z</time></trkpt><trkpt lat="42.0969114" lon="11.9113355"><ele>351.0</ele><time>2026-04-11T16:27:45.026Z</time></trkpt><trkpt lat="42.0969466" lon="11.9114399"><ele>353.0</ele><time>2026-04-11T16:27:47.026Z</time></trkpt><trkpt lat="42.097004" lon="11.9115156"><ele>355.0</ele><time>2026-04-11T16:27:49.025Z</time></trkpt><trkpt lat="42.0970374" lon="11.9116047"><ele>357.0</ele><time>2026-04-11T16:27:51.026Z</time></trkpt><trkpt lat="42.0971008" lon="11.9116743"><ele>359.0</ele><time>2026-04-11T16:27:53.025Z</time></trkpt><trkpt lat="42.0971736" lon="11.9117377"><ele>361.0</ele><time>2026-04-11T16:27:55.025Z</time></trkpt><trkpt lat="42.0972344" lon="11.911846"><ele>363.0</ele><time>2026-04-11T16:27:57.025Z</time></trkpt><trkpt lat="42.0972479" lon="11.9120109"><ele>365.0</ele><time>2026-04-11T16:27:59.025Z</time></trkpt><trkpt lat="42.0972546" lon="11.9121241"><ele>367.0</ele><time>2026-04-11T16:28:00.025Z</time></trkpt><trkpt lat="42.0972572" lon="11.9122438"><ele>369.0</ele><time>2026-04-11T16:28:01.026Z</time></trkpt><trkpt lat="42.0972648" lon="11.9123517"><ele>369.0</ele><time>2026-04-11T16:28:02.025Z</time></trkpt><trkpt lat="42.0972732" lon="11.9124956"><ele>369.0</ele><time>2026-04-11T16:28:04.026Z</time></trkpt><trkpt lat="42.097288" lon="11.9126039"><ele>369.0</ele><time>2026-04-11T16:28:07.026Z</time></trkpt><trkpt lat="42.0973199" lon="11.9126956"><ele>369.0</ele><time>2026-04-11T16:28:10.026Z</time></trkpt><trkpt lat="42.0973582" lon="11.9127713"><ele>369.0</ele><time>2026-04-11T16:28:13.025Z</time></trkpt><trkpt lat="42.0974196" lon="11.9128722"><ele>369.0</ele><time>2026-04-11T16:28:16.025Z</time></trkpt><trkpt lat="42.0974713" lon="11.9129486"><ele>368.6666666666667</ele><time>2026-04-11T16:28:18.025Z</time></trkpt><trkpt lat="42.0975219" lon="11.9130471"><ele>368.3333333333333</ele><time>2026-04-11T16:28:20.025Z</time></trkpt><trkpt lat="42.0975593" lon="11.913163"><ele>368.0</ele><time>2026-04-11T16:28:22.025Z</time></trkpt><trkpt lat="42.0975836" lon="11.9132628"><ele>367.66666666666663</ele><time>2026-04-11T16:28:24.025Z</time></trkpt><trkpt lat="42.0976097" lon="11.9133706"><ele>367.3333333333333</ele><time>2026-04-11T16:28:27.025Z</time></trkpt><trkpt lat="42.0976283" lon="11.9134574"><ele>367.0</ele><time>2026-04-11T16:28:29.026Z</time></trkpt><trkpt lat="42.0976642" lon="11.9135705"><ele>367.0</ele><time>2026-04-11T16:28:32.025Z</time></trkpt><trkpt lat="42.0976866" lon="11.9136539"><ele>367.0</ele><time>2026-04-11T16:28:34.026Z</time></trkpt><trkpt lat="42.0977133" lon="11.9137661"><ele>367.0</ele><time>2026-04-11T16:28:37.026Z</time></trkpt><trkpt lat="42.0977444" lon="11.9138523"><ele>367.0</ele><time>2026-04-11T16:28:41.025Z</time></trkpt><trkpt lat="42.0977751" lon="11.9139426"><ele>367.0</ele><time>2026-04-11T16:28:46.025Z</time></trkpt><trkpt lat="42.097803" lon="11.9140393"><ele>367.0</ele><time>2026-04-11T16:28:49.026Z</time></trkpt><trkpt lat="42.0978305" lon="11.9141471"><ele>367.0</ele><time>2026-04-11T16:28:52.025Z</time></trkpt><trkpt lat="42.0978699" lon="11.9142316"><ele>367.0</ele><time>2026-04-11T16:28:55.026Z</time></trkpt><trkpt lat="42.0979236" lon="11.9143084"><ele>367.0</ele><time>2026-04-11T16:28:58.026Z</time></trkpt><trkpt lat="42.0979768" lon="11.9144022"><ele>367.0</ele><time>2026-04-11T16:29:01.026Z</time></trkpt><trkpt lat="42.0980216" lon="11.914469"><ele>367.0</ele><time>2026-04-11T16:29:03.026Z</time></trkpt><trkpt lat="42.0980848" lon="11.9145351"><ele>367.0</ele><time>2026-04-11T16:29:05.025Z</time></trkpt><trkpt lat="42.0981484" lon="11.9145945"><ele>367.20000000000005</ele><time>2026-04-11T16:29:07.025Z</time></trkpt><trkpt lat="42.0982171" lon="11.9146635"><ele>367.4</ele><time>2026-04-11T16:29:09.026Z</time></trkpt><trkpt lat="42.0982974" lon="11.914744"><ele>367.6</ele><time>2026-04-11T16:29:11.026Z</time></trkpt><trkpt lat="42.0983728" lon="11.9148308"><ele>367.79999999999995</ele><time>2026-04-11T16:29:13.025Z</time></trkpt><trkpt lat="42.0984407" lon="11.9149379"><ele>368.0</ele><time>2026-04-11T16:29:15.025Z</time></trkpt><trkpt lat="42.098495" lon="11.9150711"><ele>365.59999999999997</ele><time>2026-04-11T16:29:17.026Z</time></trkpt><trkpt lat="42.0985563" lon="11.915189"><ele>363.2</ele><time>2026-04-11T16:29:19.026Z</time></trkpt><trkpt lat="42.098626" lon="11.9152929"><ele>360.8</ele><time>2026-04-11T16:29:21.025Z</time></trkpt><trkpt lat="42.0987222" lon="11.9153761"><ele>358.4</ele><time>2026-04-11T16:29:23.025Z</time></trkpt><trkpt lat="42.0987932" lon="11.9154044"><ele>356.0</ele><time>2026-04-11T16:29:24.026Z</time></trkpt><trkpt lat="42.0988641" lon="11.9154343"><ele>355.99999999999994</ele><time>2026-04-11T16:29:25.026Z</time></trkpt><trkpt lat="42.0989402" lon="11.9154463"><ele>356.0</ele><time>2026-04-11T16:29:26.025Z</time></trkpt><trkpt lat="42.0990083" lon="11.9154591"><ele>356.0</ele><time>2026-04-11T16:29:27.025Z</time></trkpt><trkpt lat="42.0990789" lon="11.9154677"><ele>356.0</ele><time>2026-04-11T16:29:28.026Z</time></trkpt><trkpt lat="42.0991451" lon="11.9154755"><ele>356.0</ele><time>2026-04-11T16:29:29.026Z</time></trkpt><trkpt lat="42.0992075" lon="11.9154943"><ele>355.99999999999994</ele><time>2026-04-11T16:29:30.025Z</time></trkpt><trkpt lat="42.0992729" lon="11.9155056"><ele>356.0</ele><time>2026-04-11T16:29:31.026Z</time></trkpt><trkpt lat="42.0993368" lon="11.915512"><ele>355.0</ele><time>2026-04-11T16:29:32.026Z</time></trkpt><trkpt lat="42.0994517" lon="11.9155338"><ele>354.0</ele><time>2026-04-11T16:29:34.026Z</time></trkpt><trkpt lat="42.0995501" lon="11.9155592"><ele>353.0</ele><time>2026-04-11T16:29:36.025Z</time></trkpt><trkpt lat="42.0996162" lon="11.9155709"><ele>352.0</ele><time>2026-04-11T16:29:38.026Z</time></trkpt><trkpt lat="42.0997001" lon="11.9155869"><ele>351.0</ele><time>2026-04-11T16:29:40.026Z</time></trkpt><trkpt lat="42.0998058" lon="11.9156068"><ele>351.0</ele><time>2026-04-11T16:29:42.026Z</time></trkpt><trkpt lat="42.0999099" lon="11.9156388"><ele>351.0</ele><time>2026-04-11T16:29:44.026Z</time></trkpt><trkpt lat="42.1000107" lon="11.9156832"><ele>351.0</ele><time>2026-04-11T16:29:46.026Z</time></trkpt><trkpt lat="42.1001125" lon="11.9157331"><ele>351.0</ele><time>2026-04-11T16:29:48.025Z</time></trkpt><trkpt lat="42.1002133" lon="11.9157897"><ele>351.0</ele><time>2026-04-11T16:29:50.026Z</time></trkpt><trkpt lat="42.1003175" lon="11.9158467"><ele>349.20000000000005</ele><time>2026-04-11T16:29:52.026Z</time></trkpt><trkpt lat="42.1004003" lon="11.9159147"><ele>347.40000000000003</ele><time>2026-04-11T16:29:54.026Z</time></trkpt><trkpt lat="42.1004857" lon="11.9159746"><ele>345.6</ele><time>2026-04-11T16:29:56.025Z</time></trkpt><trkpt lat="42.1005742" lon="11.9160286"><ele>343.8</ele><time>2026-04-11T16:29:58.024Z</time></trkpt><trkpt lat="42.1006574" lon="11.9160782"><ele>342.0</ele><time>2026-04-11T16:30:00.024Z</time></trkpt><trkpt lat="42.1007451" lon="11.9161276"><ele>342.6</ele><time>2026-04-11T16:30:02.025Z</time></trkpt><trkpt lat="42.1008374" lon="11.91618"><ele>343.20000000000005</ele><time>2026-04-11T16:30:04.025Z</time></trkpt><trkpt lat="42.1009324" lon="11.9162175"><ele>343.8</ele><time>2026-04-11T16:30:06.025Z</time></trkpt><trkpt lat="42.1010154" lon="11.9162577"><ele>344.4</ele><time>2026-04-11T16:30:08.025Z</time></trkpt><trkpt lat="42.1010906" lon="11.9162835"><ele>345.0</ele><time>2026-04-11T16:30:10.024Z</time></trkpt><trkpt lat="42.1011829" lon="11.9163188"><ele>345.0</ele><time>2026-04-11T16:30:12.024Z</time></trkpt><trkpt lat="42.1012704" lon="11.9163631"><ele>345.0</ele><time>2026-04-11T16:30:14.025Z</time></trkpt><trkpt lat="42.1013736" lon="11.916411"><ele>345.0</ele><time>2026-04-11T16:30:16.025Z</time></trkpt><trkpt lat="42.1014788" lon="11.9164756"><ele>345.0</ele><time>2026-04-11T16:30:18.025Z</time></trkpt><trkpt lat="42.1015348" lon="11.9165224"><ele>345.0</ele><time>2026-04-11T16:30:19.025Z</time></trkpt><trkpt lat="42.1015928" lon="11.9165689"><ele>345.6666666666667</ele><time>2026-04-11T16:30:20.025Z</time></trkpt><trkpt lat="42.1016523" lon="11.9166126"><ele>346.3333333333333</ele><time>2026-04-11T16:30:21.024Z</time></trkpt><trkpt lat="42.1017113" lon="11.9166533"><ele>347.0</ele><time>2026-04-11T16:30:22.025Z</time></trkpt><trkpt lat="42.1018193" lon="11.9167408"><ele>347.66666666666663</ele><time>2026-04-11T16:30:24.025Z</time></trkpt><trkpt lat="42.1018735" lon="11.9167911"><ele>348.3333333333333</ele><time>2026-04-11T16:30:25.024Z</time></trkpt><trkpt lat="42.1019306" lon="11.9168425"><ele>349.0</ele><time>2026-04-11T16:30:26.024Z</time></trkpt><trkpt lat="42.1019858" lon="11.9168917"><ele>346.79999999999995</ele><time>2026-04-11T16:30:27.025Z</time></trkpt><trkpt lat="42.1020385" lon="11.9169414"><ele>344.59999999999997</ele><time>2026-04-11T16:30:28.024Z</time></trkpt><trkpt lat="42.1020886" lon="11.9169969"><ele>342.4</ele><time>2026-04-11T16:30:29.025Z</time></trkpt><trkpt lat="42.1021805" lon="11.9171065"><ele>340.2</ele><time>2026-04-11T16:30:31.025Z</time></trkpt><trkpt lat="42.1022582" lon="11.9172295"><ele>338.0</ele><time>2026-04-11T16:30:33.025Z</time></trkpt><trkpt lat="42.1023355" lon="11.9173505"><ele>338.0</ele><time>2026-04-11T16:30:35.024Z</time></trkpt><trkpt lat="42.1023857" lon="11.9174141"><ele>338.0</ele><time>2026-04-11T16:30:36.024Z</time></trkpt><trkpt lat="42.1024378" lon="11.9174741"><ele>338.0</ele><time>2026-04-11T16:30:37.024Z</time></trkpt><trkpt lat="42.1024873" lon="11.9175406"><ele>338.0</ele><time>2026-04-11T16:30:38.025Z</time></trkpt><trkpt lat="42.1025373" lon="11.9175961"><ele>338.0</ele><time>2026-04-11T16:30:39.025Z</time></trkpt><trkpt lat="42.102589" lon="11.9176623"><ele>338.0</ele><time>2026-04-11T16:30:40.024Z</time></trkpt><trkpt lat="42.1026383" lon="11.9177255"><ele>338.0</ele><time>2026-04-11T16:30:41.025Z</time></trkpt><trkpt lat="42.102685" lon="11.9177842"><ele>338.4</ele><time>2026-04-11T16:30:42.025Z</time></trkpt><trkpt lat="42.1027803" lon="11.9178862"><ele>338.79999999999995</ele><time>2026-04-11T16:30:44.025Z</time></trkpt><trkpt lat="42.1028682" lon="11.9179568"><ele>339.2</ele><time>2026-04-11T16:30:46.024Z</time></trkpt><trkpt lat="42.1029193" lon="11.9180271"><ele>339.6</ele><time>2026-04-11T16:30:48.025Z</time></trkpt><trkpt lat="42.1029734" lon="11.918113"><ele>340.0</ele><time>2026-04-11T16:30:50.026Z</time></trkpt><trkpt lat="42.1030434" lon="11.9182031"><ele>340.0</ele><time>2026-04-11T16:30:52.026Z</time></trkpt><trkpt lat="42.1031074" lon="11.9183056"><ele>340.0</ele><time>2026-04-11T16:30:54.026Z</time></trkpt><trkpt lat="42.1031633" lon="11.918401"><ele>340.0</ele><time>2026-04-11T16:30:56.025Z</time></trkpt><trkpt lat="42.1032118" lon="11.918484"><ele>340.0</ele><time>2026-04-11T16:30:58.026Z</time></trkpt><trkpt lat="42.1032689" lon="11.9185668"><ele>340.0</ele><time>2026-04-11T16:31:00.025Z</time></trkpt><trkpt lat="42.1033486" lon="11.9186568"><ele>339.5</ele><time>2026-04-11T16:31:02.026Z</time></trkpt><trkpt lat="42.1034381" lon="11.9187737"><ele>339.0</ele><time>2026-04-11T16:31:04.025Z</time></trkpt><trkpt lat="42.1034819" lon="11.9188516"><ele>338.5</ele><time>2026-04-11T16:31:05.026Z</time></trkpt><trkpt lat="42.1035236" lon="11.9189193"><ele>338.0</ele><time>2026-04-11T16:31:06.026Z</time></trkpt><trkpt lat="42.1035607" lon="11.9189893"><ele>337.5</ele><time>2026-04-11T16:31:07.026Z</time></trkpt><trkpt lat="42.1035943" lon="11.9190651"><ele>337.0</ele><time>2026-04-11T16:31:08.026Z</time></trkpt><trkpt lat="42.1036238" lon="11.9191531"><ele>336.8571428571429</ele><time>2026-04-11T16:31:09.026Z</time></trkpt><trkpt lat="42.1036458" lon="11.9192386"><ele>336.7142857142857</ele><time>2026-04-11T16:31:10.025Z</time></trkpt><trkpt lat="42.1036666" lon="11.9193336"><ele>336.57142857142856</ele><time>2026-04-11T16:31:11.026Z</time></trkpt><trkpt lat="42.10368" lon="11.919428"><ele>336.42857142857144</ele><time>2026-04-11T16:31:12.025Z</time></trkpt><trkpt lat="42.1036924" lon="11.919526"><ele>336.2857142857143</ele><time>2026-04-11T16:31:13.025Z</time></trkpt><trkpt lat="42.1037029" lon="11.9196172"><ele>336.14285714285717</ele><time>2026-04-11T16:31:14.025Z</time></trkpt><trkpt lat="42.1037116" lon="11.9197088"><ele>336.0</ele><time>2026-04-11T16:31:15.026Z</time></trkpt><trkpt lat="42.1037091" lon="11.9198777"><ele>336.0</ele><time>2026-04-11T16:31:17.025Z</time></trkpt><trkpt lat="42.103707" lon="11.920031"><ele>336.0</ele><time>2026-04-11T16:31:19.026Z</time></trkpt><trkpt lat="42.1036995" lon="11.9201931"><ele>336.0</ele><time>2026-04-11T16:31:21.025Z</time></trkpt><trkpt lat="42.1036933" lon="11.9202804"><ele>336.0</ele><time>2026-04-11T16:31:22.025Z</time></trkpt><trkpt lat="42.1036856" lon="11.9203742"><ele>336.0</ele><time>2026-04-11T16:31:23.026Z</time></trkpt><trkpt lat="42.1036764" lon="11.9204661"><ele>336.0</ele><time>2026-04-11T16:31:24.026Z</time></trkpt><trkpt lat="42.1036739" lon="11.9205581"><ele>336.4</ele><time>2026-04-11T16:31:25.026Z</time></trkpt><trkpt lat="42.1036735" lon="11.9206486"><ele>336.8</ele><time>2026-04-11T16:31:26.026Z</time></trkpt><trkpt lat="42.1036805" lon="11.920803"><ele>337.2</ele><time>2026-04-11T16:31:28.026Z</time></trkpt><trkpt lat="42.1036893" lon="11.9209405"><ele>337.59999999999997</ele><time>2026-04-11T16:31:30.026Z</time></trkpt><trkpt lat="42.1037101" lon="11.9210998"><ele>338.0</ele><time>2026-04-11T16:31:32.026Z</time></trkpt><trkpt lat="42.1037199" lon="11.9211853"><ele>338.59999999999997</ele><time>2026-04-11T16:31:33.025Z</time></trkpt><trkpt lat="42.103729" lon="11.921279"><ele>339.2</ele><time>2026-04-11T16:31:34.026Z</time></trkpt><trkpt lat="42.1037345" lon="11.9213662"><ele>339.8</ele><time>2026-04-11T16:31:35.025Z</time></trkpt><trkpt lat="42.1037401" lon="11.9215202"><ele>340.4</ele><time>2026-04-11T16:31:37.026Z</time></trkpt><trkpt lat="42.1037425" lon="11.9216696"><ele>341.0</ele><time>2026-04-11T16:31:39.025Z</time></trkpt><trkpt lat="42.1037649" lon="11.9218141"><ele>341.6</ele><time>2026-04-11T16:31:41.025Z</time></trkpt><trkpt lat="42.1037869" lon="11.921954"><ele>342.20000000000005</ele><time>2026-04-11T16:31:43.026Z</time></trkpt><trkpt lat="42.1038117" lon="11.9220763"><ele>342.79999999999995</ele><time>2026-04-11T16:31:45.025Z</time></trkpt><trkpt lat="42.1038275" lon="11.9222057"><ele>343.4</ele><time>2026-04-11T16:31:47.026Z</time></trkpt><trkpt lat="42.1038386" lon="11.9223395"><ele>344.0</ele><time>2026-04-11T16:31:49.025Z</time></trkpt><trkpt lat="42.1038676" lon="11.9224778"><ele>344.0</ele><time>2026-04-11T16:31:51.025Z</time></trkpt><trkpt lat="42.1038857" lon="11.9226144"><ele>344.0</ele><time>2026-04-11T16:31:53.026Z</time></trkpt><trkpt lat="42.1038924" lon="11.9227372"><ele>344.0</ele><time>2026-04-11T16:31:55.026Z</time></trkpt><trkpt lat="42.1039076" lon="11.922867"><ele>344.0</ele><time>2026-04-11T16:31:57.026Z</time></trkpt><trkpt lat="42.1039212" lon="11.9229917"><ele>344.0</ele><time>2026-04-11T16:31:59.025Z</time></trkpt><trkpt lat="42.1039363" lon="11.9231226"><ele>344.0</ele><time>2026-04-11T16:32:01.026Z</time></trkpt><trkpt lat="42.1039609" lon="11.9232515"><ele>344.0</ele><time>2026-04-11T16:32:03.025Z</time></trkpt><trkpt lat="42.1039691" lon="11.9233816"><ele>344.0</ele><time>2026-04-11T16:32:05.025Z</time></trkpt><trkpt lat="42.1039778" lon="11.9235263"><ele>344.0</ele><time>2026-04-11T16:32:07.025Z</time></trkpt><trkpt lat="42.1039853" lon="11.923693"><ele>344.0</ele><time>2026-04-11T16:32:09.026Z</time></trkpt><trkpt lat="42.1039937" lon="11.923778"><ele>344.2</ele><time>2026-04-11T16:32:10.026Z</time></trkpt><trkpt lat="42.1040016" lon="11.9239313"><ele>344.4</ele><time>2026-04-11T16:32:12.025Z</time></trkpt><trkpt lat="42.1039953" lon="11.9240819"><ele>344.6</ele><time>2026-04-11T16:32:14.025Z</time></trkpt><trkpt lat="42.1039979" lon="11.9242246"><ele>344.8</ele><time>2026-04-11T16:32:16.026Z</time></trkpt><trkpt lat="42.104" lon="11.9243718"><ele>345.0</ele><time>2026-04-11T16:32:18.026Z</time></trkpt><trkpt lat="42.1040018" lon="11.9244797"><ele>345.3333333333333</ele><time>2026-04-11T16:32:20.025Z</time></trkpt><trkpt lat="42.1040008" lon="11.9245684"><ele>345.6666666666667</ele><time>2026-04-11T16:32:26.026Z</time></trkpt><trkpt lat="42.1040086" lon="11.9246736"><ele>346.0</ele><time>2026-04-11T16:33:04.025Z</time></trkpt><trkpt lat="42.1040185" lon="11.9247919"><ele>346.33333333333337</ele><time>2026-04-11T16:33:06.025Z</time></trkpt><trkpt lat="42.1040315" lon="11.9248873"><ele>346.6666666666667</ele><time>2026-04-11T16:33:08.026Z</time></trkpt><trkpt lat="42.1040417" lon="11.9250149"><ele>347.0</ele><time>2026-04-11T16:33:10.026Z</time></trkpt><trkpt lat="42.1040478" lon="11.9251802"><ele>347.20000000000005</ele><time>2026-04-11T16:33:12.025Z</time></trkpt><trkpt lat="42.1040556" lon="11.9252657"><ele>347.4</ele><time>2026-04-11T16:33:13.025Z</time></trkpt><trkpt lat="42.1040689" lon="11.92543"><ele>347.6</ele><time>2026-04-11T16:33:15.025Z</time></trkpt><trkpt lat="42.1040783" lon="11.9255948"><ele>347.79999999999995</ele><time>2026-04-11T16:33:17.026Z</time></trkpt><trkpt lat="42.1040825" lon="11.9257567"><ele>348.0</ele><time>2026-04-11T16:33:19.026Z</time></trkpt><trkpt lat="42.1040823" lon="11.9258451"><ele>348.0</ele><time>2026-04-11T16:33:20.025Z</time></trkpt><trkpt lat="42.1040834" lon="11.9259453"><ele>348.0</ele><time>2026-04-11T16:33:21.026Z</time></trkpt><trkpt lat="42.1040815" lon="11.9260504"><ele>348.0</ele><time>2026-04-11T16:33:22.026Z</time></trkpt><trkpt lat="42.1040814" lon="11.9261518"><ele>348.0</ele><time>2026-04-11T16:33:23.025Z</time></trkpt><trkpt lat="42.1040758" lon="11.9262538"><ele>348.0</ele><time>2026-04-11T16:33:24.026Z</time></trkpt><trkpt lat="42.1040797" lon="11.9263559"><ele>348.0</ele><time>2026-04-11T16:33:25.026Z</time></trkpt><trkpt lat="42.1040877" lon="11.9264417"><ele>348.0</ele><time>2026-04-11T16:33:26.026Z</time></trkpt><trkpt lat="42.1040941" lon="11.9265415"><ele>350.1666666666667</ele><time>2026-04-11T16:33:27.026Z</time></trkpt><trkpt lat="42.1041002" lon="11.9266642"><ele>352.3333333333333</ele><time>2026-04-11T16:33:28.026Z</time></trkpt><trkpt lat="42.104121" lon="11.9267575"><ele>354.5</ele><time>2026-04-11T16:33:29.025Z</time></trkpt><trkpt lat="42.104132" lon="11.9268538"><ele>356.66666666666663</ele><time>2026-04-11T16:33:30.026Z</time></trkpt><trkpt lat="42.1041472" lon="11.9269636"><ele>358.8333333333333</ele><time>2026-04-11T16:33:31.026Z</time></trkpt><trkpt lat="42.104152" lon="11.9270757"><ele>361.0</ele><time>2026-04-11T16:33:32.026Z</time></trkpt><trkpt lat="42.1041675" lon="11.9271736"><ele>361.0</ele><time>2026-04-11T16:33:33.026Z</time></trkpt><trkpt lat="42.1041732" lon="11.9272916"><ele>361.0</ele><time>2026-04-11T16:33:34.025Z</time></trkpt><trkpt lat="42.1041909" lon="11.9273801"><ele>361.0</ele><time>2026-04-11T16:33:35.026Z</time></trkpt><trkpt lat="42.1042125" lon="11.9274702"><ele>361.0</ele><time>2026-04-11T16:33:36.025Z</time></trkpt><trkpt lat="42.1042261" lon="11.9275642"><ele>361.0</ele><time>2026-04-11T16:33:37.026Z</time></trkpt><trkpt lat="42.1042487" lon="11.92767"><ele>361.0</ele><time>2026-04-11T16:33:38.025Z</time></trkpt><trkpt lat="42.104281" lon="11.927774"><ele>361.14285714285717</ele><time>2026-04-11T16:33:39.026Z</time></trkpt><trkpt lat="42.1043155" lon="11.9278704"><ele>361.2857142857143</ele><time>2026-04-11T16:33:40.025Z</time></trkpt><trkpt lat="42.1043586" lon="11.9279581"><ele>361.42857142857144</ele><time>2026-04-11T16:33:41.025Z</time></trkpt><trkpt lat="42.1043945" lon="11.9280527"><ele>361.57142857142856</ele><time>2026-04-11T16:33:42.025Z</time></trkpt><trkpt lat="42.1044244" lon="11.9281458"><ele>361.71428571428567</ele><time>2026-04-11T16:33:43.026Z</time></trkpt><trkpt lat="42.1044484" lon="11.9282289"><ele>361.85714285714283</ele><time>2026-04-11T16:33:44.026Z</time></trkpt><trkpt lat="42.1044693" lon="11.9283105"><ele>362.0</ele><time>2026-04-11T16:33:45.026Z</time></trkpt><trkpt lat="42.1044879" lon="11.9284049"><ele>362.0</ele><time>2026-04-11T16:33:46.025Z</time></trkpt><trkpt lat="42.1045379" lon="11.9285519"><ele>362.0</ele><time>2026-04-11T16:33:48.025Z</time></trkpt><trkpt lat="42.1045803" lon="11.9286897"><ele>362.0</ele><time>2026-04-11T16:33:50.025Z</time></trkpt><trkpt lat="42.1046252" lon="11.9288087"><ele>362.0</ele><time>2026-04-11T16:33:52.025Z</time></trkpt><trkpt lat="42.1046683" lon="11.9289306"><ele>362.0</ele><time>2026-04-11T16:33:54.025Z</time></trkpt><trkpt lat="42.1047026" lon="11.9290423"><ele>362.0</ele><time>2026-04-11T16:33:56.026Z</time></trkpt><trkpt lat="42.1047008" lon="11.9291289"><ele>362.0</ele><time>2026-04-11T16:33:59.025Z</time></trkpt><trkpt lat="42.1046905" lon="11.9292273"><ele>362.0</ele><time>2026-04-11T16:34:02.025Z</time></trkpt><trkpt lat="42.1046604" lon="11.9293421"><ele>362.0</ele><time>2026-04-11T16:34:05.026Z</time></trkpt><trkpt lat="42.1046442" lon="11.9294265"><ele>362.0</ele><time>2026-04-11T16:34:07.025Z</time></trkpt><trkpt lat="42.1046327" lon="11.9295185"><ele>362.0</ele><time>2026-04-11T16:34:09.026Z</time></trkpt><trkpt lat="42.1046218" lon="11.9296241"><ele>362.0</ele><time>2026-04-11T16:34:11.024Z</time></trkpt><trkpt lat="42.1045933" lon="11.9297221"><ele>363.5</ele><time>2026-04-11T16:34:13.024Z</time></trkpt><trkpt lat="42.1045469" lon="11.9298303"><ele>365.0</ele><time>2026-04-11T16:34:15.024Z</time></trkpt><trkpt lat="42.1044899" lon="11.9299715"><ele>366.5</ele><time>2026-04-11T16:34:18.025Z</time></trkpt><trkpt lat="42.1044346" lon="11.9300313"><ele>368.0</ele><time>2026-04-11T16:34:19.025Z</time></trkpt><trkpt lat="42.1043878" lon="11.9301024"><ele>369.5</ele><time>2026-04-11T16:34:20.025Z</time></trkpt><trkpt lat="42.1043362" lon="11.9301591"><ele>371.0</ele><time>2026-04-11T16:34:21.024Z</time></trkpt><trkpt lat="42.104264" lon="11.9302676"><ele>371.8</ele><time>2026-04-11T16:34:23.025Z</time></trkpt><trkpt lat="42.1041935" lon="11.9303709"><ele>372.6</ele><time>2026-04-11T16:34:25.025Z</time></trkpt><trkpt lat="42.1041168" lon="11.9304762"><ele>373.4</ele><time>2026-04-11T16:34:27.024Z</time></trkpt><trkpt lat="42.1040921" lon="11.9306139"><ele>374.2</ele><time>2026-04-11T16:34:29.025Z</time></trkpt><trkpt lat="42.1041185" lon="11.9307574"><ele>375.0</ele><time>2026-04-11T16:34:31.025Z</time></trkpt><trkpt lat="42.1041231" lon="11.9308425"><ele>373.6</ele><time>2026-04-11T16:34:32.024Z</time></trkpt><trkpt lat="42.1041425" lon="11.9309292"><ele>372.2</ele><time>2026-04-11T16:34:33.025Z</time></trkpt><trkpt lat="42.1042039" lon="11.9310838"><ele>370.79999999999995</ele><time>2026-04-11T16:34:35.024Z</time></trkpt><trkpt lat="42.1042609" lon="11.9312053"><ele>369.4</ele><time>2026-04-11T16:34:37.025Z</time></trkpt><trkpt lat="42.1043259" lon="11.9312881"><ele>368.0</ele><time>2026-04-11T16:34:39.025Z</time></trkpt><trkpt lat="42.1043989" lon="11.9313802"><ele>368.0</ele><time>2026-04-11T16:34:41.025Z</time></trkpt><trkpt lat="42.1044811" lon="11.9314714"><ele>368.0</ele><time>2026-04-11T16:34:43.024Z</time></trkpt><trkpt lat="42.1045434" lon="11.9315485"><ele>368.0</ele><time>2026-04-11T16:34:45.025Z</time></trkpt><trkpt lat="42.1046153" lon="11.9316367"><ele>368.0</ele><time>2026-04-11T16:34:47.025Z</time></trkpt><trkpt lat="42.1046923" lon="11.9317296"><ele>368.0</ele><time>2026-04-11T16:34:49.025Z</time></trkpt><trkpt lat="42.10474" lon="11.931785"><ele>367.14285714285717</ele><time>2026-04-11T16:34:50.024Z</time></trkpt><trkpt lat="42.1047948" lon="11.9318437"><ele>366.2857142857143</ele><time>2026-04-11T16:34:51.025Z</time></trkpt><trkpt lat="42.1048494" lon="11.9318988"><ele>365.42857142857144</ele><time>2026-04-11T16:34:52.025Z</time></trkpt><trkpt lat="42.104908" lon="11.9319456"><ele>364.57142857142856</ele><time>2026-04-11T16:34:53.024Z</time></trkpt><trkpt lat="42.1049673" lon="11.9319865"><ele>363.71428571428567</ele><time>2026-04-11T16:34:54.024Z</time></trkpt><trkpt lat="42.1050286" lon="11.9320246"><ele>362.85714285714283</ele><time>2026-04-11T16:34:55.025Z</time></trkpt><trkpt lat="42.1050906" lon="11.9320588"><ele>362.0</ele><time>2026-04-11T16:34:56.024Z</time></trkpt><trkpt lat="42.1051509" lon="11.932088"><ele>362.0</ele><time>2026-04-11T16:34:57.025Z</time></trkpt><trkpt lat="42.1052178" lon="11.9321094"><ele>362.0</ele><time>2026-04-11T16:34:58.024Z</time></trkpt><trkpt lat="42.105347" lon="11.9321063"><ele>362.0</ele><time>2026-04-11T16:35:00.025Z</time></trkpt><trkpt lat="42.1054234" lon="11.9321029"><ele>362.0</ele><time>2026-04-11T16:35:01.025Z</time></trkpt><trkpt lat="42.1054952" lon="11.9321003"><ele>362.0</ele><time>2026-04-11T16:35:02.025Z</time></trkpt><trkpt lat="42.1055697" lon="11.9320979"><ele>362.0</ele><time>2026-04-11T16:35:03.024Z</time></trkpt><trkpt lat="42.1056401" lon="11.9320976"><ele>362.0</ele><time>2026-04-11T16:35:04.025Z</time></trkpt><trkpt lat="42.1057087" lon="11.9321039"><ele>362.0</ele><time>2026-04-11T16:35:05.025Z</time></trkpt><trkpt lat="42.105782" lon="11.9321144"><ele>362.0</ele><time>2026-04-11T16:35:06.024Z</time></trkpt><trkpt lat="42.1058577" lon="11.9321194"><ele>362.0</ele><time>2026-04-11T16:35:07.024Z</time></trkpt><trkpt lat="42.1059331" lon="11.9321295"><ele>362.0</ele><time>2026-04-11T16:35:08.024Z</time></trkpt><trkpt lat="42.1060032" lon="11.9321282"><ele>362.0</ele><time>2026-04-11T16:35:09.025Z</time></trkpt><trkpt lat="42.106069" lon="11.9321177"><ele>362.0</ele><time>2026-04-11T16:35:10.025Z</time></trkpt><trkpt lat="42.1061613" lon="11.9321094"><ele>360.83333333333337</ele><time>2026-04-11T16:35:12.025Z</time></trkpt><trkpt lat="42.1062601" lon="11.932099"><ele>359.6666666666667</ele><time>2026-04-11T16:35:15.024Z</time></trkpt><trkpt lat="42.1063888" lon="11.9321023"><ele>358.5</ele><time>2026-04-11T16:35:17.024Z</time></trkpt><trkpt lat="42.1064599" lon="11.9320984"><ele>357.3333333333333</ele><time>2026-04-11T16:35:18.025Z</time></trkpt><trkpt lat="42.1065326" lon="11.932105"><ele>356.16666666666663</ele><time>2026-04-11T16:35:19.025Z</time></trkpt><trkpt lat="42.1065999" lon="11.932108"><ele>355.0</ele><time>2026-04-11T16:35:20.024Z</time></trkpt><trkpt lat="42.1066685" lon="11.9321138"><ele>354.5</ele><time>2026-04-11T16:35:21.025Z</time></trkpt><trkpt lat="42.1067366" lon="11.9321189"><ele>354.0</ele><time>2026-04-11T16:35:22.025Z</time></trkpt><trkpt lat="42.1068035" lon="11.9321249"><ele>353.5</ele><time>2026-04-11T16:35:23.024Z</time></trkpt><trkpt lat="42.1068668" lon="11.9321356"><ele>353.0</ele><time>2026-04-11T16:35:24.024Z</time></trkpt><trkpt lat="42.1069345" lon="11.9321497"><ele>352.5</ele><time>2026-04-11T16:35:25.025Z</time></trkpt><trkpt lat="42.1070005" lon="11.9321608"><ele>352.0</ele><time>2026-04-11T16:35:26.025Z</time></trkpt><trkpt lat="42.1071167" lon="11.9322081"><ele>352.0</ele><time>2026-04-11T16:35:28.025Z</time></trkpt><trkpt lat="42.1072175" lon="11.9322648"><ele>352.0</ele><time>2026-04-11T16:35:30.024Z</time></trkpt><trkpt lat="42.107313" lon="11.932343"><ele>352.0</ele><time>2026-04-11T16:35:32.024Z</time></trkpt><trkpt lat="42.1074095" lon="11.9324343"><ele>352.0</ele><time>2026-04-11T16:35:34.025Z</time></trkpt><trkpt lat="42.1074642" lon="11.9324809"><ele>352.0</ele><time>2026-04-11T16:35:35.024Z</time></trkpt><trkpt lat="42.1075676" lon="11.9325583"><ele>353.20000000000005</ele><time>2026-04-11T16:35:37.024Z</time></trkpt><trkpt lat="42.1076262" lon="11.9325935"><ele>354.4</ele><time>2026-04-11T16:35:38.025Z</time></trkpt><trkpt lat="42.1077377" lon="11.9326658"><ele>355.6</ele><time>2026-04-11T16:35:40.025Z</time></trkpt><trkpt lat="42.1078344" lon="11.9327333"><ele>356.79999999999995</ele><time>2026-04-11T16:35:42.025Z</time></trkpt><trkpt lat="42.1079266" lon="11.9328206"><ele>358.0</ele><time>2026-04-11T16:35:44.024Z</time></trkpt><trkpt lat="42.1080168" lon="11.9328802"><ele>358.0</ele><time>2026-04-11T16:35:46.024Z</time></trkpt><trkpt lat="42.1081125" lon="11.9329063"><ele>358.0</ele><time>2026-04-11T16:35:48.024Z</time></trkpt><trkpt lat="42.1082069" lon="11.9329267"><ele>358.0</ele><time>2026-04-11T16:35:50.025Z</time></trkpt><trkpt lat="42.1083121" lon="11.9329286"><ele>358.0</ele><time>2026-04-11T16:35:52.025Z</time></trkpt><trkpt lat="42.1084274" lon="11.9329229"><ele>358.0</ele><time>2026-04-11T16:35:54.025Z</time></trkpt><trkpt lat="42.1085321" lon="11.9328851"><ele>360.0</ele><time>2026-04-11T16:35:56.024Z</time></trkpt><trkpt lat="42.1086213" lon="11.9328249"><ele>362.0</ele><time>2026-04-11T16:35:58.024Z</time></trkpt><trkpt lat="42.1086983" lon="11.9327711"><ele>364.0</ele><time>2026-04-11T16:36:00.024Z</time></trkpt><trkpt lat="42.1087663" lon="11.932725"><ele>366.0</ele><time>2026-04-11T16:36:02.024Z</time></trkpt><trkpt lat="42.1088392" lon="11.932651"><ele>368.0</ele><time>2026-04-11T16:36:04.025Z</time></trkpt><trkpt lat="42.1089155" lon="11.9325736"><ele>370.0</ele><time>2026-04-11T16:36:06.025Z</time></trkpt><trkpt lat="42.1090057" lon="11.9324981"><ele>372.3333333333333</ele><time>2026-04-11T16:36:08.025Z</time></trkpt><trkpt lat="42.1090903" lon="11.9324392"><ele>374.66666666666663</ele><time>2026-04-11T16:36:10.025Z</time></trkpt><trkpt lat="42.1091653" lon="11.9323963"><ele>377.0</ele><time>2026-04-11T16:36:12.024Z</time></trkpt><trkpt lat="42.109232" lon="11.9323556"><ele>379.3333333333333</ele><time>2026-04-11T16:36:14.025Z</time></trkpt><trkpt lat="42.1092984" lon="11.9323039"><ele>381.6666666666667</ele><time>2026-04-11T16:36:16.025Z</time></trkpt><trkpt lat="42.1093792" lon="11.9322368"><ele>384.0</ele><time>2026-04-11T16:36:19.025Z</time></trkpt><trkpt lat="42.1094448" lon="11.9321745"><ele>384.0</ele><time>2026-04-11T16:36:21.025Z</time></trkpt><trkpt lat="42.1095281" lon="11.9321076"><ele>384.0</ele><time>2026-04-11T16:36:23.025Z</time></trkpt><trkpt lat="42.1096361" lon="11.9320281"><ele>384.0</ele><time>2026-04-11T16:36:25.025Z</time></trkpt><trkpt lat="42.1097444" lon="11.9319521"><ele>384.0</ele><time>2026-04-11T16:36:27.024Z</time></trkpt><trkpt lat="42.1098476" lon="11.9318783"><ele>385.2</ele><time>2026-04-11T16:36:29.025Z</time></trkpt><trkpt lat="42.1099571" lon="11.9318128"><ele>386.4</ele><time>2026-04-11T16:36:31.025Z</time></trkpt><trkpt lat="42.1100808" lon="11.9317683"><ele>387.6</ele><time>2026-04-11T16:36:33.025Z</time></trkpt><trkpt lat="42.1101438" lon="11.931757"><ele>388.8</ele><time>2026-04-11T16:36:34.024Z</time></trkpt><trkpt lat="42.1102621" lon="11.9317395"><ele>390.0</ele><time>2026-04-11T16:36:36.024Z</time></trkpt><trkpt lat="42.1103746" lon="11.9317128"><ele>391.5</ele><time>2026-04-11T16:36:38.024Z</time></trkpt><trkpt lat="42.1104918" lon="11.9316958"><ele>393.0</ele><time>2026-04-11T16:36:40.025Z</time></trkpt><trkpt lat="42.1106135" lon="11.9316708"><ele>394.5</ele><time>2026-04-11T16:36:42.025Z</time></trkpt><trkpt lat="42.1107272" lon="11.9316518"><ele>396.0</ele><time>2026-04-11T16:36:44.025Z</time></trkpt><trkpt lat="42.1108272" lon="11.9316421"><ele>396.8333333333333</ele><time>2026-04-11T16:36:46.024Z</time></trkpt><trkpt lat="42.1109044" lon="11.9316274"><ele>397.66666666666663</ele><time>2026-04-11T16:36:48.025Z</time></trkpt><trkpt lat="42.1109765" lon="11.9316254"><ele>398.5</ele><time>2026-04-11T16:36:50.025Z</time></trkpt><trkpt lat="42.1110643" lon="11.9316274"><ele>399.3333333333333</ele><time>2026-04-11T16:36:52.025Z</time></trkpt><trkpt lat="42.111138" lon="11.9317139"><ele>400.16666666666663</ele><time>2026-04-11T16:36:54.025Z</time></trkpt><trkpt lat="42.1112062" lon="11.9318112"><ele>401.0</ele><time>2026-04-11T16:36:56.024Z</time></trkpt><trkpt lat="42.111264" lon="11.9319174"><ele>401.0</ele><time>2026-04-11T16:36:58.025Z</time></trkpt><trkpt lat="42.1113231" lon="11.9320164"><ele>401.0</ele><time>2026-04-11T16:37:00.024Z</time></trkpt><trkpt lat="42.1113818" lon="11.9321578"><ele>401.0</ele><time>2026-04-11T16:37:02.024Z</time></trkpt><trkpt lat="42.1114525" lon="11.9323014"><ele>401.0</ele><time>2026-04-11T16:37:04.025Z</time></trkpt><trkpt lat="42.1115303" lon="11.9324299"><ele>403.0</ele><time>2026-04-11T16:37:06.025Z</time></trkpt><trkpt lat="42.1115818" lon="11.9324793"><ele>405.0</ele><time>2026-04-11T16:37:07.024Z</time></trkpt><trkpt lat="42.1116465" lon="11.9325066"><ele>407.0</ele><time>2026-04-11T16:37:08.024Z</time></trkpt><trkpt lat="42.1117111" lon="11.9325162"><ele>409.0</ele><time>2026-04-11T16:37:09.025Z</time></trkpt><trkpt lat="42.1117795" lon="11.93249"><ele>411.0</ele><time>2026-04-11T16:37:10.025Z</time></trkpt><trkpt lat="42.1118413" lon="11.9324625"><ele>413.0</ele><time>2026-04-11T16:37:11.025Z</time></trkpt><trkpt lat="42.1119444" lon="11.9324112"><ele>415.0</ele><time>2026-04-11T16:37:13.024Z</time></trkpt><trkpt lat="42.1120394" lon="11.932359"><ele>415.0</ele><time>2026-04-11T16:37:15.024Z</time></trkpt><trkpt lat="42.1121399" lon="11.9322961"><ele>415.0</ele><time>2026-04-11T16:37:17.025Z</time></trkpt><trkpt lat="42.1122356" lon="11.9322383"><ele>415.0</ele><time>2026-04-11T16:37:19.024Z</time></trkpt><trkpt lat="42.1123114" lon="11.9321821"><ele>415.0</ele><time>2026-04-11T16:37:21.025Z</time></trkpt><trkpt lat="42.1123699" lon="11.9321227"><ele>415.0</ele><time>2026-04-11T16:37:23.024Z</time></trkpt><trkpt lat="42.112506" lon="11.9321273"><ele>417.4</ele><time>2026-04-11T16:37:27.025Z</time></trkpt><trkpt lat="42.1125902" lon="11.9321524"><ele>419.8</ele><time>2026-04-11T16:37:29.025Z</time></trkpt><trkpt lat="42.112691" lon="11.9322178"><ele>422.20000000000005</ele><time>2026-04-11T16:37:31.026Z</time></trkpt><trkpt lat="42.1127842" lon="11.9322992"><ele>424.6</ele><time>2026-04-11T16:37:33.025Z</time></trkpt><trkpt lat="42.112852" lon="11.9323633"><ele>427.0</ele><time>2026-04-11T16:37:35.026Z</time></trkpt><trkpt lat="42.1129076" lon="11.9324259"><ele>427.00000000000006</ele><time>2026-04-11T16:37:37.025Z</time></trkpt><trkpt lat="42.1129666" lon="11.9324833"><ele>427.0</ele><time>2026-04-11T16:37:39.026Z</time></trkpt><trkpt lat="42.1129173" lon="11.9324218"><ele>427.0</ele><time>2026-04-11T16:38:49.026Z</time></trkpt><trkpt lat="42.1129933" lon="11.9324531"><ele>427.0</ele><time>2026-04-11T16:38:57.026Z</time></trkpt><trkpt lat="42.1130565" lon="11.9323834"><ele>427.00000000000006</ele><time>2026-04-11T16:39:00.026Z</time></trkpt><trkpt lat="42.1130729" lon="11.9322824"><ele>427.0</ele><time>2026-04-11T16:39:02.025Z</time></trkpt><trkpt lat="42.1130781" lon="11.9321228"><ele>427.0</ele><time>2026-04-11T16:39:04.025Z</time></trkpt><trkpt lat="42.1130891" lon="11.9319698"><ele>427.00000000000006</ele><time>2026-04-11T16:39:06.026Z</time></trkpt><trkpt lat="42.1130811" lon="11.9318435"><ele>427.00000000000006</ele><time>2026-04-11T16:39:08.026Z</time></trkpt><trkpt lat="42.1130871" lon="11.9316999"><ele>427.0</ele><time>2026-04-11T16:39:10.026Z</time></trkpt><trkpt lat="42.1131171" lon="11.9315617"><ele>427.0</ele><time>2026-04-11T16:39:12.025Z</time></trkpt><trkpt lat="42.1131655" lon="11.931498"><ele>431.0</ele><time>2026-04-11T16:39:14.026Z</time></trkpt><trkpt lat="42.1132572" lon="11.9314964"><ele>435.00000000000006</ele><time>2026-04-11T16:39:16.026Z</time></trkpt><trkpt lat="42.11336" lon="11.9315369"><ele>439.00000000000006</ele><time>2026-04-11T16:39:18.026Z</time></trkpt><trkpt lat="42.1134831" lon="11.931579"><ele>443.0</ele><time>2026-04-11T16:39:20.026Z</time></trkpt><trkpt lat="42.1136027" lon="11.9316065"><ele>447.0</ele><time>2026-04-11T16:39:22.026Z</time></trkpt><trkpt lat="42.113695" lon="11.9316092"><ele>447.0</ele><time>2026-04-11T16:39:24.026Z</time></trkpt><trkpt lat="42.1137678" lon="11.9315466"><ele>447.0</ele><time>2026-04-11T16:39:26.026Z</time></trkpt><trkpt lat="42.1138418" lon="11.931444"><ele>447.0</ele><time>2026-04-11T16:39:28.026Z</time></trkpt><trkpt lat="42.1138724" lon="11.9313697"><ele>447.0</ele><time>2026-04-11T16:39:29.026Z</time></trkpt><trkpt lat="42.1139058" lon="11.9312956"><ele>447.0</ele><time>2026-04-11T16:39:30.025Z</time></trkpt><trkpt lat="42.1139429" lon="11.9312146"><ele>447.0</ele><time>2026-04-11T16:39:31.026Z</time></trkpt><trkpt lat="42.1139874" lon="11.9311287"><ele>447.0</ele><time>2026-04-11T16:39:32.026Z</time></trkpt><trkpt lat="42.1140371" lon="11.931035"><ele>447.00000000000006</ele><time>2026-04-11T16:39:33.026Z</time></trkpt><trkpt lat="42.114094" lon="11.9309395"><ele>447.00000000000006</ele><time>2026-04-11T16:39:34.026Z</time></trkpt><trkpt lat="42.1141487" lon="11.9308435"><ele>447.0</ele><time>2026-04-11T16:39:35.026Z</time></trkpt><trkpt lat="42.1142057" lon="11.930745"><ele>447.0</ele><time>2026-04-11T16:39:36.025Z</time></trkpt><trkpt lat="42.1142695" lon="11.9306396"><ele>449.0</ele><time>2026-04-11T16:39:37.026Z</time></trkpt><trkpt lat="42.1143347" lon="11.9305354"><ele>451.00000000000006</ele><time>2026-04-11T16:39:38.026Z</time></trkpt><trkpt lat="42.114399" lon="11.9304289"><ele>453.00000000000006</ele><time>2026-04-11T16:39:39.026Z</time></trkpt><trkpt lat="42.1144676" lon="11.9303055"><ele>455.0</ele><time>2026-04-11T16:39:40.025Z</time></trkpt><trkpt lat="42.1145253" lon="11.9301909"><ele>457.0</ele><time>2026-04-11T16:39:41.026Z</time></trkpt><trkpt lat="42.1145795" lon="11.9300765"><ele>455.5</ele><time>2026-04-11T16:39:42.026Z</time></trkpt><trkpt lat="42.1146671" lon="11.9299536"><ele>454.0</ele><time>2026-04-11T16:39:43.026Z</time></trkpt><trkpt lat="42.1147588" lon="11.9298485"><ele>452.5</ele><time>2026-04-11T16:39:44.026Z</time></trkpt><trkpt lat="42.1148254" lon="11.9297361"><ele>451.0</ele><time>2026-04-11T16:39:45.026Z</time></trkpt><trkpt lat="42.1148856" lon="11.9296065"><ele>451.4</ele><time>2026-04-11T16:39:46.025Z</time></trkpt><trkpt lat="42.1149411" lon="11.9294687"><ele>451.8</ele><time>2026-04-11T16:39:47.026Z</time></trkpt><trkpt lat="42.1150017" lon="11.9293407"><ele>452.19999999999993</ele><time>2026-04-11T16:39:48.025Z</time></trkpt><trkpt lat="42.1150568" lon="11.9292224"><ele>452.59999999999997</ele><time>2026-04-11T16:39:49.026Z</time></trkpt><trkpt lat="42.1151104" lon="11.9291171"><ele>453.0</ele><time>2026-04-11T16:39:50.026Z</time></trkpt><trkpt lat="42.1151745" lon="11.929028"><ele>453.0</ele><time>2026-04-11T16:39:51.025Z</time></trkpt><trkpt lat="42.1152552" lon="11.9289556"><ele>452.99999999999994</ele><time>2026-04-11T16:39:52.026Z</time></trkpt><trkpt lat="42.115345" lon="11.9288919"><ele>452.99999999999994</ele><time>2026-04-11T16:39:53.025Z</time></trkpt><trkpt lat="42.1154437" lon="11.9288156"><ele>453.0</ele><time>2026-04-11T16:39:54.026Z</time></trkpt><trkpt lat="42.1155288" lon="11.9287485"><ele>453.0</ele><time>2026-04-11T16:39:55.026Z</time></trkpt><trkpt lat="42.1156132" lon="11.9286885"><ele>453.0</ele><time>2026-04-11T16:39:56.026Z</time></trkpt><trkpt lat="42.1156957" lon="11.9286203"><ele>452.99999999999994</ele><time>2026-04-11T16:39:57.026Z</time></trkpt><trkpt lat="42.1157777" lon="11.9285269"><ele>452.99999999999994</ele><time>2026-04-11T16:39:58.025Z</time></trkpt><trkpt lat="42.1158606" lon="11.9284223"><ele>453.0</ele><time>2026-04-11T16:39:59.026Z</time></trkpt><trkpt lat="42.1159321" lon="11.9282913"><ele>453.0</ele><time>2026-04-11T16:40:00.025Z</time></trkpt><trkpt lat="42.1160188" lon="11.9281721"><ele>453.0</ele><time>2026-04-11T16:40:01.026Z</time></trkpt><trkpt lat="42.1161138" lon="11.9280944"><ele>452.99999999999994</ele><time>2026-04-11T16:40:02.026Z</time></trkpt><trkpt lat="42.1161905" lon="11.9280143"><ele>452.99999999999994</ele><time>2026-04-11T16:40:03.025Z</time></trkpt><trkpt lat="42.1162681" lon="11.9279324"><ele>453.0</ele><time>2026-04-11T16:40:04.026Z</time></trkpt><trkpt lat="42.1163449" lon="11.9278434"><ele>453.0</ele><time>2026-04-11T16:40:05.025Z</time></trkpt><trkpt lat="42.1164119" lon="11.9277776"><ele>453.0</ele><time>2026-04-11T16:40:06.026Z</time></trkpt><trkpt lat="42.1164837" lon="11.9277402"><ele>452.99999999999994</ele><time>2026-04-11T16:40:07.026Z</time></trkpt><trkpt lat="42.1165943" lon="11.9276627"><ele>452.99999999999994</ele><time>2026-04-11T16:40:09.025Z</time></trkpt><trkpt lat="42.1166919" lon="11.9275535"><ele>453.0</ele><time>2026-04-11T16:40:11.026Z</time></trkpt><trkpt lat="42.1167779" lon="11.927482"><ele>453.0</ele><time>2026-04-11T16:40:12.025Z</time></trkpt><trkpt lat="42.1168667" lon="11.9274263"><ele>452.5</ele><time>2026-04-11T16:40:13.026Z</time></trkpt><trkpt lat="42.1169527" lon="11.9273802"><ele>452.0</ele><time>2026-04-11T16:40:14.026Z</time></trkpt><trkpt lat="42.1170349" lon="11.9273471"><ele>451.5</ele><time>2026-04-11T16:40:15.026Z</time></trkpt><trkpt lat="42.1171203" lon="11.9273216"><ele>451.0</ele><time>2026-04-11T16:40:16.026Z</time></trkpt><trkpt lat="42.1172033" lon="11.9272998"><ele>450.5</ele><time>2026-04-11T16:40:17.026Z</time></trkpt><trkpt lat="42.117284" lon="11.9272738"><ele>450.0</ele><time>2026-04-11T16:40:18.026Z</time></trkpt><trkpt lat="42.1173649" lon="11.9272599"><ele>450.0</ele><time>2026-04-11T16:40:19.026Z</time></trkpt><trkpt lat="42.1174408" lon="11.9272537"><ele>450.0</ele><time>2026-04-11T16:40:20.025Z</time></trkpt><trkpt lat="42.1175117" lon="11.92725"><ele>450.0</ele><time>2026-04-11T16:40:21.026Z</time></trkpt><trkpt lat="42.1176194" lon="11.9272358"><ele>450.0</ele><time>2026-04-11T16:40:23.026Z</time></trkpt><trkpt lat="42.1176937" lon="11.9272364"><ele>450.0</ele><time>2026-04-11T16:40:25.026Z</time></trkpt><trkpt lat="42.1177696" lon="11.9272496"><ele>450.0</ele><time>2026-04-11T16:40:27.025Z</time></trkpt><trkpt lat="42.1178839" lon="11.9272542"><ele>450.0</ele><time>2026-04-11T16:40:29.026Z</time></trkpt><trkpt lat="42.1179555" lon="11.9272589"><ele>450.0</ele><time>2026-04-11T16:40:30.025Z</time></trkpt><trkpt lat="42.1180293" lon="11.9272657"><ele>450.0</ele><time>2026-04-11T16:40:31.025Z</time></trkpt><trkpt lat="42.1180954" lon="11.9272685"><ele>450.0</ele><time>2026-04-11T16:40:32.026Z</time></trkpt><trkpt lat="42.1181926" lon="11.9272543"><ele>450.0</ele><time>2026-04-11T16:40:34.025Z</time></trkpt><trkpt lat="42.1182664" lon="11.9272406"><ele>450.0</ele><time>2026-04-11T16:40:36.026Z</time></trkpt><trkpt lat="42.1183479" lon="11.9272504"><ele>449.1666666666667</ele><time>2026-04-11T16:40:38.025Z</time></trkpt><trkpt lat="42.1184449" lon="11.9272309"><ele>448.33333333333337</ele><time>2026-04-11T16:40:40.025Z</time></trkpt><trkpt lat="42.1185459" lon="11.9271871"><ele>447.5</ele><time>2026-04-11T16:40:42.026Z</time></trkpt><trkpt lat="42.1186236" lon="11.9271614"><ele>446.6666666666667</ele><time>2026-04-11T16:40:44.026Z</time></trkpt><trkpt lat="42.1187098" lon="11.9271216"><ele>445.83333333333337</ele><time>2026-04-11T16:40:47.025Z</time></trkpt><trkpt lat="42.1187692" lon="11.9270713"><ele>445.0</ele><time>2026-04-11T16:40:50.026Z</time></trkpt><trkpt lat="42.1188271" lon="11.9270314"><ele>445.00000000000006</ele><time>2026-04-11T16:40:55.026Z</time></trkpt><trkpt lat="42.1188943" lon="11.9269773"><ele>445.0</ele><time>2026-04-11T16:40:58.026Z</time></trkpt><trkpt lat="42.1189674" lon="11.9269302"><ele>445.0</ele><time>2026-04-11T16:41:00.026Z</time></trkpt><trkpt lat="42.1190351" lon="11.9268885"><ele>445.0</ele><time>2026-04-11T16:41:03.025Z</time></trkpt><trkpt lat="42.1190787" lon="11.9267906"><ele>445.00000000000006</ele><time>2026-04-11T16:41:06.025Z</time></trkpt><trkpt lat="42.1191202" lon="11.9267067"><ele>445.0</ele><time>2026-04-11T16:41:08.025Z</time></trkpt><trkpt lat="42.1191676" lon="11.9266362"><ele>445.8</ele><time>2026-04-11T16:41:10.026Z</time></trkpt><trkpt lat="42.1192206" lon="11.9265618"><ele>446.6</ele><time>2026-04-11T16:41:12.026Z</time></trkpt><trkpt lat="42.119274" lon="11.9264847"><ele>447.4</ele><time>2026-04-11T16:41:14.025Z</time></trkpt><trkpt lat="42.1193312" lon="11.9263887"><ele>448.2</ele><time>2026-04-11T16:41:16.025Z</time></trkpt><trkpt lat="42.1193954" lon="11.9262809"><ele>449.0</ele><time>2026-04-11T16:41:18.026Z</time></trkpt><trkpt lat="42.1194824" lon="11.9261503"><ele>449.0</ele><time>2026-04-11T16:41:20.025Z</time></trkpt><trkpt lat="42.119529" lon="11.9260707"><ele>449.0</ele><time>2026-04-11T16:41:21.025Z</time></trkpt><trkpt lat="42.1195842" lon="11.9259798"><ele>449.0</ele><time>2026-04-11T16:41:22.025Z</time></trkpt><trkpt lat="42.119626" lon="11.9258908"><ele>449.0</ele><time>2026-04-11T16:41:23.026Z</time></trkpt><trkpt lat="42.1196912" lon="11.9257883"><ele>449.0</ele><time>2026-04-11T16:41:25.026Z</time></trkpt><trkpt lat="42.1197653" lon="11.9256794"><ele>449.16666666666663</ele><time>2026-04-11T16:41:27.026Z</time></trkpt><trkpt lat="42.1198186" lon="11.9256075"><ele>449.3333333333333</ele><time>2026-04-11T16:41:28.026Z</time></trkpt><trkpt lat="42.1198756" lon="11.9255322"><ele>449.5</ele><time>2026-04-11T16:41:29.025Z</time></trkpt><trkpt lat="42.1199388" lon="11.9254515"><ele>449.66666666666663</ele><time>2026-04-11T16:41:30.025Z</time></trkpt><trkpt lat="42.1199953" lon="11.9253732"><ele>449.8333333333333</ele><time>2026-04-11T16:41:31.026Z</time></trkpt><trkpt lat="42.1200477" lon="11.9252979"><ele>450.0</ele><time>2026-04-11T16:41:32.025Z</time></trkpt><trkpt lat="42.1201276" lon="11.9251931"><ele>450.1666666666667</ele><time>2026-04-11T16:41:34.026Z</time></trkpt><trkpt lat="42.1201984" lon="11.9251077"><ele>450.33333333333337</ele><time>2026-04-11T16:41:36.026Z</time></trkpt><trkpt lat="42.1202442" lon="11.9250445"><ele>450.5</ele><time>2026-04-11T16:41:37.025Z</time></trkpt><trkpt lat="42.1202973" lon="11.9249719"><ele>450.6666666666667</ele><time>2026-04-11T16:41:38.026Z</time></trkpt><trkpt lat="42.1203533" lon="11.9248953"><ele>450.83333333333337</ele><time>2026-04-11T16:41:39.025Z</time></trkpt><trkpt lat="42.1204173" lon="11.9248084"><ele>451.0</ele><time>2026-04-11T16:41:40.026Z</time></trkpt><trkpt lat="42.1204853" lon="11.9247212"><ele>449.4</ele><time>2026-04-11T16:41:41.026Z</time></trkpt><trkpt lat="42.1205596" lon="11.9246403"><ele>447.8</ele><time>2026-04-11T16:41:42.025Z</time></trkpt><trkpt lat="42.1206394" lon="11.9245508"><ele>446.19999999999993</ele><time>2026-04-11T16:41:43.026Z</time></trkpt><trkpt lat="42.1207319" lon="11.9244519"><ele>444.59999999999997</ele><time>2026-04-11T16:41:44.026Z</time></trkpt><trkpt lat="42.1208325" lon="11.9243538"><ele>443.0</ele><time>2026-04-11T16:41:45.025Z</time></trkpt><trkpt lat="42.1209287" lon="11.9242576"><ele>441.59999999999997</ele><time>2026-04-11T16:41:46.025Z</time></trkpt><trkpt lat="42.1210222" lon="11.9241728"><ele>440.19999999999993</ele><time>2026-04-11T16:41:47.025Z</time></trkpt><trkpt lat="42.1211093" lon="11.9240913"><ele>438.8</ele><time>2026-04-11T16:41:48.025Z</time></trkpt><trkpt lat="42.1211982" lon="11.9240396"><ele>437.4</ele><time>2026-04-11T16:41:49.025Z</time></trkpt><trkpt lat="42.1212906" lon="11.9240074"><ele>436.0</ele><time>2026-04-11T16:41:50.026Z</time></trkpt><trkpt lat="42.1213912" lon="11.9239875"><ele>436.0</ele><time>2026-04-11T16:41:51.025Z</time></trkpt><trkpt lat="42.121492" lon="11.9239644"><ele>436.0</ele><time>2026-04-11T16:41:52.026Z</time></trkpt><trkpt lat="42.1215874" lon="11.9239393"><ele>436.0</ele><time>2026-04-11T16:41:53.025Z</time></trkpt><trkpt lat="42.1216732" lon="11.9238973"><ele>436.0</ele><time>2026-04-11T16:41:54.025Z</time></trkpt><trkpt lat="42.1217645" lon="11.923858"><ele>436.0</ele><time>2026-04-11T16:41:55.026Z</time></trkpt><trkpt lat="42.1218548" lon="11.9238292"><ele>435.6666666666667</ele><time>2026-04-11T16:41:56.025Z</time></trkpt><trkpt lat="42.1219354" lon="11.9237929"><ele>435.33333333333337</ele><time>2026-04-11T16:41:57.026Z</time></trkpt><trkpt lat="42.1220194" lon="11.9237819"><ele>435.0</ele><time>2026-04-11T16:41:58.026Z</time></trkpt><trkpt lat="42.122091" lon="11.9237623"><ele>434.66666666666663</ele><time>2026-04-11T16:41:59.026Z</time></trkpt><trkpt lat="42.1221625" lon="11.9237082"><ele>434.3333333333333</ele><time>2026-04-11T16:42:01.026Z</time></trkpt><trkpt lat="42.1221381" lon="11.9237954"><ele>434.0</ele><time>2026-04-11T16:42:11.026Z</time></trkpt><trkpt lat="42.1222978" lon="11.9236266"><ele>434.0</ele><time>2026-04-11T16:42:35.025Z</time></trkpt><trkpt lat="42.1223961" lon="11.9235358"><ele>434.0</ele><time>2026-04-11T16:42:37.026Z</time></trkpt><trkpt lat="42.1224791" lon="11.9234691"><ele>434.0</ele><time>2026-04-11T16:42:39.026Z</time></trkpt><trkpt lat="42.1225358" lon="11.9234242"><ele>434.0</ele><time>2026-04-11T16:42:40.025Z</time></trkpt><trkpt lat="42.1226401" lon="11.9233292"><ele>434.0</ele><time>2026-04-11T16:42:42.026Z</time></trkpt><trkpt lat="42.1227156" lon="11.9232806"><ele>435.2</ele><time>2026-04-11T16:42:43.026Z</time></trkpt><trkpt lat="42.1227972" lon="11.9232222"><ele>436.4</ele><time>2026-04-11T16:42:44.026Z</time></trkpt><trkpt lat="42.1228898" lon="11.9231651"><ele>437.6</ele><time>2026-04-11T16:42:45.026Z</time></trkpt><trkpt lat="42.1229816" lon="11.9231189"><ele>438.8</ele><time>2026-04-11T16:42:46.026Z</time></trkpt><trkpt lat="42.1230646" lon="11.9230693"><ele>440.0</ele><time>2026-04-11T16:42:47.025Z</time></trkpt><trkpt lat="42.1231434" lon="11.9230223"><ele>440.2</ele><time>2026-04-11T16:42:48.026Z</time></trkpt><trkpt lat="42.123233" lon="11.9229874"><ele>440.4</ele><time>2026-04-11T16:42:49.026Z</time></trkpt><trkpt lat="42.1233221" lon="11.9229658"><ele>440.6</ele><time>2026-04-11T16:42:50.026Z</time></trkpt><trkpt lat="42.1233894" lon="11.9228902"><ele>440.8</ele><time>2026-04-11T16:42:52.025Z</time></trkpt><trkpt lat="42.1235061" lon="11.9228513"><ele>441.0</ele><time>2026-04-11T16:42:54.026Z</time></trkpt><trkpt lat="42.1235753" lon="11.9228257"><ele>441.0</ele><time>2026-04-11T16:42:55.025Z</time></trkpt><trkpt lat="42.1236314" lon="11.9227834"><ele>441.0</ele><time>2026-04-11T16:42:56.026Z</time></trkpt><trkpt lat="42.1236821" lon="11.9227046"><ele>441.0</ele><time>2026-04-11T16:42:57.026Z</time></trkpt><trkpt lat="42.1237281" lon="11.9226125"><ele>441.0</ele><time>2026-04-11T16:42:58.026Z</time></trkpt><trkpt lat="42.1237692" lon="11.9225099"><ele>441.0</ele><time>2026-04-11T16:42:59.025Z</time></trkpt><trkpt lat="42.123822" lon="11.9224134"><ele>441.0</ele><time>2026-04-11T16:43:00.025Z</time></trkpt><trkpt lat="42.1238794" lon="11.922314"><ele>442.5</ele><time>2026-04-11T16:43:01.026Z</time></trkpt><trkpt lat="42.1239433" lon="11.9222236"><ele>444.0</ele><time>2026-04-11T16:43:02.026Z</time></trkpt><trkpt lat="42.1240192" lon="11.9221744"><ele>445.5</ele><time>2026-04-11T16:43:03.026Z</time></trkpt><trkpt lat="42.124092" lon="11.9221389"><ele>447.0</ele><time>2026-04-11T16:43:04.026Z</time></trkpt><trkpt lat="42.1241513" lon="11.9220854"><ele>448.5</ele><time>2026-04-11T16:43:05.025Z</time></trkpt><trkpt lat="42.1241998" lon="11.9220069"><ele>450.0</ele><time>2026-04-11T16:43:06.025Z</time></trkpt><trkpt lat="42.1242362" lon="11.9219126"><ele>450.0</ele><time>2026-04-11T16:43:07.026Z</time></trkpt><trkpt lat="42.124288" lon="11.9217922"><ele>450.0</ele><time>2026-04-11T16:43:08.026Z</time></trkpt><trkpt lat="42.1243473" lon="11.9216695"><ele>450.0</ele><time>2026-04-11T16:43:09.026Z</time></trkpt><trkpt lat="42.1244079" lon="11.9215573"><ele>450.0</ele><time>2026-04-11T16:43:10.025Z</time></trkpt><trkpt lat="42.1244668" lon="11.9214635"><ele>450.0</ele><time>2026-04-11T16:43:11.026Z</time></trkpt><trkpt lat="42.1245184" lon="11.9213761"><ele>452.5</ele><time>2026-04-11T16:43:12.025Z</time></trkpt><trkpt lat="42.1245652" lon="11.9213101"><ele>455.0</ele><time>2026-04-11T16:43:13.026Z</time></trkpt><trkpt lat="42.1245875" lon="11.9212022"><ele>457.5</ele><time>2026-04-11T16:43:14.025Z</time></trkpt><trkpt lat="42.1246012" lon="11.9210808"><ele>460.0</ele><time>2026-04-11T16:43:15.025Z</time></trkpt><trkpt lat="42.1246159" lon="11.9209538"><ele>462.5</ele><time>2026-04-11T16:43:16.024Z</time></trkpt><trkpt lat="42.1246281" lon="11.9208424"><ele>465.0</ele><time>2026-04-11T16:43:17.024Z</time></trkpt><trkpt lat="42.1246152" lon="11.9207132"><ele>465.0</ele><time>2026-04-11T16:43:18.024Z</time></trkpt><trkpt lat="42.1246089" lon="11.9205813"><ele>465.0</ele><time>2026-04-11T16:43:19.024Z</time></trkpt><trkpt lat="42.1246174" lon="11.920464"><ele>465.0</ele><time>2026-04-11T16:43:20.025Z</time></trkpt><trkpt lat="42.1246557" lon="11.9203492"><ele>465.0</ele><time>2026-04-11T16:43:21.024Z</time></trkpt><trkpt lat="42.1247014" lon="11.9202375"><ele>465.0</ele><time>2026-04-11T16:43:22.025Z</time></trkpt><trkpt lat="42.1247614" lon="11.9201296"><ele>462.6</ele><time>2026-04-11T16:43:23.024Z</time></trkpt><trkpt lat="42.1248374" lon="11.9200343"><ele>460.2</ele><time>2026-04-11T16:43:24.025Z</time></trkpt><trkpt lat="42.1249234" lon="11.9199315"><ele>457.79999999999995</ele><time>2026-04-11T16:43:25.025Z</time></trkpt><trkpt lat="42.1250011" lon="11.9198128"><ele>455.4</ele><time>2026-04-11T16:43:26.024Z</time></trkpt><trkpt lat="42.1250885" lon="11.9197173"><ele>453.0</ele><time>2026-04-11T16:43:27.025Z</time></trkpt><trkpt lat="42.1251557" lon="11.9196121"><ele>453.0</ele><time>2026-04-11T16:43:28.024Z</time></trkpt><trkpt lat="42.1252255" lon="11.9195125"><ele>452.99999999999994</ele><time>2026-04-11T16:43:29.025Z</time></trkpt><trkpt lat="42.1252884" lon="11.919419"><ele>452.99999999999994</ele><time>2026-04-11T16:43:30.025Z</time></trkpt><trkpt lat="42.1253569" lon="11.9193327"><ele>453.0</ele><time>2026-04-11T16:43:31.025Z</time></trkpt><trkpt lat="42.1254253" lon="11.919243"><ele>453.0</ele><time>2026-04-11T16:43:32.025Z</time></trkpt><trkpt lat="42.1254891" lon="11.9191433"><ele>452.79999999999995</ele><time>2026-04-11T16:43:33.025Z</time></trkpt><trkpt lat="42.1255609" lon="11.9190604"><ele>452.59999999999997</ele><time>2026-04-11T16:43:34.025Z</time></trkpt><trkpt lat="42.1256253" lon="11.918938"><ele>452.40000000000003</ele><time>2026-04-11T16:43:35.025Z</time></trkpt><trkpt lat="42.1256908" lon="11.9188247"><ele>452.20000000000005</ele><time>2026-04-11T16:43:36.024Z</time></trkpt><trkpt lat="42.125758" lon="11.9187217"><ele>452.0</ele><time>2026-04-11T16:43:37.024Z</time></trkpt><trkpt lat="42.1258209" lon="11.9186049"><ele>454.20000000000005</ele><time>2026-04-11T16:43:38.025Z</time></trkpt><trkpt lat="42.1258809" lon="11.9184956"><ele>456.40000000000003</ele><time>2026-04-11T16:43:39.024Z</time></trkpt><trkpt lat="42.1259309" lon="11.9183837"><ele>458.59999999999997</ele><time>2026-04-11T16:43:40.025Z</time></trkpt><trkpt lat="42.1259723" lon="11.9182697"><ele>460.79999999999995</ele><time>2026-04-11T16:43:41.024Z</time></trkpt><trkpt lat="42.1260088" lon="11.9181497"><ele>463.0</ele><time>2026-04-11T16:43:42.025Z</time></trkpt><trkpt lat="42.1260283" lon="11.9180289"><ele>463.00000000000006</ele><time>2026-04-11T16:43:43.024Z</time></trkpt><trkpt lat="42.1260371" lon="11.9179032"><ele>463.0</ele><time>2026-04-11T16:43:44.025Z</time></trkpt><trkpt lat="42.1260378" lon="11.9177624"><ele>463.0</ele><time>2026-04-11T16:43:45.025Z</time></trkpt><trkpt lat="42.1260334" lon="11.9176434"><ele>463.0</ele><time>2026-04-11T16:43:46.025Z</time></trkpt><trkpt lat="42.1260236" lon="11.9175491"><ele>463.00000000000006</ele><time>2026-04-11T16:43:47.024Z</time></trkpt><trkpt lat="42.1259659" lon="11.9174806"><ele>463.0</ele><time>2026-04-11T16:43:49.025Z</time></trkpt><trkpt lat="42.1259611" lon="11.917381"><ele>463.0</ele><time>2026-04-11T16:43:50.025Z</time></trkpt><trkpt lat="42.1259635" lon="11.9172522"><ele>463.0</ele><time>2026-04-11T16:43:51.025Z</time></trkpt><trkpt lat="42.1259552" lon="11.9170913"><ele>463.0</ele><time>2026-04-11T16:43:52.025Z</time></trkpt><trkpt lat="42.1259454" lon="11.9169254"><ele>463.0</ele><time>2026-04-11T16:43:53.024Z</time></trkpt><trkpt lat="42.125948" lon="11.9167571"><ele>464.0</ele><time>2026-04-11T16:43:54.024Z</time></trkpt><trkpt lat="42.1259715" lon="11.9166311"><ele>464.99999999999994</ele><time>2026-04-11T16:43:55.024Z</time></trkpt><trkpt lat="42.1259761" lon="11.9165107"><ele>465.99999999999994</ele><time>2026-04-11T16:43:56.024Z</time></trkpt><trkpt lat="42.1259806" lon="11.9163802"><ele>467.0</ele><time>2026-04-11T16:43:57.024Z</time></trkpt><trkpt lat="42.1260048" lon="11.9162741"><ele>468.0</ele><time>2026-04-11T16:43:58.024Z</time></trkpt><trkpt lat="42.1260439" lon="11.9161577"><ele>468.0</ele><time>2026-04-11T16:43:59.024Z</time></trkpt><trkpt lat="42.1261011" lon="11.9160482"><ele>467.99999999999994</ele><time>2026-04-11T16:44:00.025Z</time></trkpt><trkpt lat="42.1261591" lon="11.9159284"><ele>467.99999999999994</ele><time>2026-04-11T16:44:01.024Z</time></trkpt><trkpt lat="42.1262346" lon="11.9158156"><ele>468.0</ele><time>2026-04-11T16:44:02.025Z</time></trkpt><trkpt lat="42.1262978" lon="11.9157042"><ele>468.0</ele><time>2026-04-11T16:44:03.024Z</time></trkpt><trkpt lat="42.1263854" lon="11.9155973"><ele>467.59999999999997</ele><time>2026-04-11T16:44:04.025Z</time></trkpt><trkpt lat="42.1264735" lon="11.9154724"><ele>467.19999999999993</ele><time>2026-04-11T16:44:05.024Z</time></trkpt><trkpt lat="42.1265456" lon="11.9153685"><ele>466.8</ele><time>2026-04-11T16:44:06.025Z</time></trkpt><trkpt lat="42.1266346" lon="11.9152864"><ele>466.4</ele><time>2026-04-11T16:44:07.024Z</time></trkpt><trkpt lat="42.1267056" lon="11.9152341"><ele>466.0</ele><time>2026-04-11T16:44:08.025Z</time></trkpt><trkpt lat="42.126798" lon="11.9151343"><ele>467.00000000000006</ele><time>2026-04-11T16:44:10.026Z</time></trkpt><trkpt lat="42.1268177" lon="11.9150371"><ele>468.0</ele><time>2026-04-11T16:44:11.026Z</time></trkpt><trkpt lat="42.1268492" lon="11.9149397"><ele>469.0</ele><time>2026-04-11T16:44:12.026Z</time></trkpt><trkpt lat="42.1268801" lon="11.9148272"><ele>470.0</ele><time>2026-04-11T16:44:13.026Z</time></trkpt><trkpt lat="42.1269097" lon="11.9147047"><ele>471.00000000000006</ele><time>2026-04-11T16:44:14.025Z</time></trkpt><trkpt lat="42.1268795" lon="11.9145717"><ele>472.0</ele><time>2026-04-11T16:44:15.025Z</time></trkpt><trkpt lat="42.1268006" lon="11.9145106"><ele>472.0</ele><time>2026-04-11T16:44:16.024Z</time></trkpt><trkpt lat="42.1267067" lon="11.9144526"><ele>472.00000000000006</ele><time>2026-04-11T16:44:17.024Z</time></trkpt><trkpt lat="42.1266281" lon="11.9143799"><ele>472.00000000000006</ele><time>2026-04-11T16:44:18.025Z</time></trkpt><trkpt lat="42.1265546" lon="11.9143201"><ele>472.0</ele><time>2026-04-11T16:44:19.025Z</time></trkpt><trkpt lat="42.1265071" lon="11.9142475"><ele>472.0</ele><time>2026-04-11T16:44:20.024Z</time></trkpt><trkpt lat="42.1264629" lon="11.9140818"><ele>471.6</ele><time>2026-04-11T16:44:22.024Z</time></trkpt><trkpt lat="42.1265029" lon="11.9139091"><ele>471.20000000000005</ele><time>2026-04-11T16:44:24.025Z</time></trkpt><trkpt lat="42.1266025" lon="11.9138427"><ele>470.8</ele><time>2026-04-11T16:44:25.025Z</time></trkpt><trkpt lat="42.1266789" lon="11.9137629"><ele>470.4</ele><time>2026-04-11T16:44:26.024Z</time></trkpt><trkpt lat="42.1267449" lon="11.913654"><ele>470.0</ele><time>2026-04-11T16:44:27.025Z</time></trkpt><trkpt lat="42.1268264" lon="11.9135358"><ele>470.0</ele><time>2026-04-11T16:44:28.025Z</time></trkpt><trkpt lat="42.1269008" lon="11.9134128"><ele>470.0</ele><time>2026-04-11T16:44:29.024Z</time></trkpt><trkpt lat="42.1270032" lon="11.9132863"><ele>470.0</ele><time>2026-04-11T16:44:30.024Z</time></trkpt><trkpt lat="42.1270993" lon="11.9131701"><ele>470.0</ele><time>2026-04-11T16:44:31.024Z</time></trkpt><trkpt lat="42.1272117" lon="11.9130391"><ele>470.4</ele><time>2026-04-11T16:44:32.025Z</time></trkpt><trkpt lat="42.1272827" lon="11.9129261"><ele>470.8</ele><time>2026-04-11T16:44:33.025Z</time></trkpt><trkpt lat="42.127336" lon="11.9128141"><ele>471.20000000000005</ele><time>2026-04-11T16:44:34.025Z</time></trkpt><trkpt lat="42.1273414" lon="11.9126969"><ele>471.6</ele><time>2026-04-11T16:44:35.025Z</time></trkpt><trkpt lat="42.1273813" lon="11.9125912"><ele>472.0</ele><time>2026-04-11T16:44:36.025Z</time></trkpt><trkpt lat="42.1274363" lon="11.912447"><ele>469.25</ele><time>2026-04-11T16:44:37.025Z</time></trkpt><trkpt lat="42.1275308" lon="11.9123189"><ele>466.5</ele><time>2026-04-11T16:44:38.024Z</time></trkpt><trkpt lat="42.1276245" lon="11.9122162"><ele>463.75</ele><time>2026-04-11T16:44:39.025Z</time></trkpt><trkpt lat="42.1277172" lon="11.9120619"><ele>461.0</ele><time>2026-04-11T16:44:40.025Z</time></trkpt><trkpt lat="42.1277448" lon="11.9119097"><ele>461.0</ele><time>2026-04-11T16:44:41.024Z</time></trkpt><trkpt lat="42.1277737" lon="11.9117455"><ele>461.0</ele><time>2026-04-11T16:44:42.025Z</time></trkpt><trkpt lat="42.1278827" lon="11.9116614"><ele>461.0</ele><time>2026-04-11T16:44:43.025Z</time></trkpt><trkpt lat="42.1279724" lon="11.9116065"><ele>461.0</ele><time>2026-04-11T16:44:44.025Z</time></trkpt><trkpt lat="42.1280301" lon="11.911517"><ele>461.0</ele><time>2026-04-11T16:44:45.025Z</time></trkpt><trkpt lat="42.128077" lon="11.9114321"><ele>459.4</ele><time>2026-04-11T16:44:46.024Z</time></trkpt><trkpt lat="42.1281126" lon="11.9113296"><ele>457.8</ele><time>2026-04-11T16:44:47.025Z</time></trkpt><trkpt lat="42.1281485" lon="11.9112156"><ele>456.19999999999993</ele><time>2026-04-11T16:44:48.025Z</time></trkpt><trkpt lat="42.1281836" lon="11.9110791"><ele>454.59999999999997</ele><time>2026-04-11T16:44:49.025Z</time></trkpt><trkpt lat="42.1282229" lon="11.910953"><ele>453.0</ele><time>2026-04-11T16:44:50.024Z</time></trkpt><trkpt lat="42.1282812" lon="11.9108256"><ele>457.25</ele><time>2026-04-11T16:44:51.024Z</time></trkpt><trkpt lat="42.1283588" lon="11.910698"><ele>461.5</ele><time>2026-04-11T16:44:52.024Z</time></trkpt><trkpt lat="42.1284343" lon="11.9105728"><ele>465.75</ele><time>2026-04-11T16:44:53.025Z</time></trkpt><trkpt lat="42.1285079" lon="11.9104549"><ele>470.0</ele><time>2026-04-11T16:44:54.024Z</time></trkpt><trkpt lat="42.1285867" lon="11.9103319"><ele>470.0</ele><time>2026-04-11T16:44:55.025Z</time></trkpt><trkpt lat="42.1286507" lon="11.9101973"><ele>470.0</ele><time>2026-04-11T16:44:56.024Z</time></trkpt><trkpt lat="42.1286988" lon="11.9100765"><ele>470.0</ele><time>2026-04-11T16:44:57.025Z</time></trkpt><trkpt lat="42.1287427" lon="11.9099341"><ele>470.0</ele><time>2026-04-11T16:44:58.024Z</time></trkpt><trkpt lat="42.1287689" lon="11.909803"><ele>470.0</ele><time>2026-04-11T16:44:59.024Z</time></trkpt><trkpt lat="42.1287805" lon="11.9096569"><ele>469.5</ele><time>2026-04-11T16:45:00.025Z</time></trkpt><trkpt lat="42.128783" lon="11.9095011"><ele>469.0</ele><time>2026-04-11T16:45:01.025Z</time></trkpt><trkpt lat="42.1287786" lon="11.9093469"><ele>468.5</ele><time>2026-04-11T16:45:02.024Z</time></trkpt><trkpt lat="42.1287747" lon="11.9091928"><ele>468.0</ele><time>2026-04-11T16:45:03.025Z</time></trkpt><trkpt lat="42.1287727" lon="11.909043"><ele>468.0</ele><time>2026-04-11T16:45:04.024Z</time></trkpt><trkpt lat="42.1287758" lon="11.9088898"><ele>468.0</ele><time>2026-04-11T16:45:05.024Z</time></trkpt><trkpt lat="42.1287783" lon="11.9087317"><ele>468.0</ele><time>2026-04-11T16:45:06.025Z</time></trkpt><trkpt lat="42.1287797" lon="11.9085738"><ele>468.0</ele><time>2026-04-11T16:45:07.024Z</time></trkpt><trkpt lat="42.1287805" lon="11.9084144"><ele>469.59999999999997</ele><time>2026-04-11T16:45:08.025Z</time></trkpt><trkpt lat="42.128778" lon="11.9082699"><ele>471.19999999999993</ele><time>2026-04-11T16:45:09.024Z</time></trkpt><trkpt lat="42.1287773" lon="11.908122"><ele>472.8</ele><time>2026-04-11T16:45:10.025Z</time></trkpt><trkpt lat="42.1287744" lon="11.9079837"><ele>474.4</ele><time>2026-04-11T16:45:11.024Z</time></trkpt><trkpt lat="42.1287719" lon="11.9078533"><ele>476.0</ele><time>2026-04-11T16:45:12.025Z</time></trkpt><trkpt lat="42.1287883" lon="11.9077364"><ele>476.0</ele><time>2026-04-11T16:45:13.024Z</time></trkpt><trkpt lat="42.128799" lon="11.9076268"><ele>476.0</ele><time>2026-04-11T16:45:14.025Z</time></trkpt><trkpt lat="42.1287984" lon="11.9074983"><ele>476.0</ele><time>2026-04-11T16:45:15.025Z</time></trkpt><trkpt lat="42.1287994" lon="11.90737"><ele>476.0</ele><time>2026-04-11T16:45:16.024Z</time></trkpt><trkpt lat="42.1288059" lon="11.9072239"><ele>476.0</ele><time>2026-04-11T16:45:17.024Z</time></trkpt><trkpt lat="42.1288012" lon="11.9071088"><ele>478.6</ele><time>2026-04-11T16:45:18.024Z</time></trkpt><trkpt lat="42.1287932" lon="11.9070177"><ele>481.20000000000005</ele><time>2026-04-11T16:45:19.024Z</time></trkpt><trkpt lat="42.1288025" lon="11.9068989"><ele>483.79999999999995</ele><time>2026-04-11T16:45:20.025Z</time></trkpt><trkpt lat="42.1288312" lon="11.9067543"><ele>486.4</ele><time>2026-04-11T16:45:21.024Z</time></trkpt><trkpt lat="42.1288623" lon="11.9065948"><ele>489.0</ele><time>2026-04-11T16:45:22.025Z</time></trkpt><trkpt lat="42.128864" lon="11.906462"><ele>490.4</ele><time>2026-04-11T16:45:23.025Z</time></trkpt><trkpt lat="42.1288516" lon="11.9063484"><ele>491.79999999999995</ele><time>2026-04-11T16:45:24.025Z</time></trkpt><trkpt lat="42.128811" lon="11.9062214"><ele>493.20000000000005</ele><time>2026-04-11T16:45:25.024Z</time></trkpt><trkpt lat="42.1287616" lon="11.9061176"><ele>494.6</ele><time>2026-04-11T16:45:26.025Z</time></trkpt><trkpt lat="42.1287079" lon="11.9060121"><ele>496.0</ele><time>2026-04-11T16:45:27.024Z</time></trkpt><trkpt lat="42.128659" lon="11.905918"><ele>494.6666666666667</ele><time>2026-04-11T16:45:28.025Z</time></trkpt><trkpt lat="42.1286287" lon="11.9058289"><ele>493.33333333333337</ele><time>2026-04-11T16:45:29.025Z</time></trkpt><trkpt lat="42.1286173" lon="11.9057434"><ele>492.0</ele><time>2026-04-11T16:45:30.025Z</time></trkpt><trkpt lat="42.1286134" lon="11.9056445"><ele>490.66666666666663</ele><time>2026-04-11T16:45:31.025Z</time></trkpt><trkpt lat="42.1286171" lon="11.9055363"><ele>489.3333333333333</ele><time>2026-04-11T16:45:32.025Z</time></trkpt><trkpt lat="42.1286414" lon="11.9054186"><ele>488.0</ele><time>2026-04-11T16:45:33.025Z</time></trkpt><trkpt lat="42.128679" lon="11.9052947"><ele>488.0</ele><time>2026-04-11T16:45:34.025Z</time></trkpt><trkpt lat="42.1287272" lon="11.9051681"><ele>487.99999999999994</ele><time>2026-04-11T16:45:35.025Z</time></trkpt><trkpt lat="42.1287826" lon="11.9050393"><ele>487.99999999999994</ele><time>2026-04-11T16:45:36.025Z</time></trkpt><trkpt lat="42.1288403" lon="11.9049302"><ele>488.0</ele><time>2026-04-11T16:45:37.025Z</time></trkpt><trkpt lat="42.12891" lon="11.9048243"><ele>488.0</ele><time>2026-04-11T16:45:38.024Z</time></trkpt><trkpt lat="42.1290102" lon="11.9047594"><ele>487.2</ele><time>2026-04-11T16:45:39.025Z</time></trkpt><trkpt lat="42.1291176" lon="11.904721"><ele>486.4</ele><time>2026-04-11T16:45:40.025Z</time></trkpt><trkpt lat="42.1292255" lon="11.9046867"><ele>485.59999999999997</ele><time>2026-04-11T16:45:41.025Z</time></trkpt><trkpt lat="42.1293169" lon="11.9046827"><ele>484.79999999999995</ele><time>2026-04-11T16:45:42.025Z</time></trkpt><trkpt lat="42.1294044" lon="11.9046651"><ele>484.0</ele><time>2026-04-11T16:45:43.024Z</time></trkpt><trkpt lat="42.1294944" lon="11.9046525"><ele>484.0</ele><time>2026-04-11T16:45:44.025Z</time></trkpt><trkpt lat="42.1295754" lon="11.9046355"><ele>484.0</ele><time>2026-04-11T16:45:45.025Z</time></trkpt><trkpt lat="42.1296826" lon="11.9046452"><ele>484.0</ele><time>2026-04-11T16:45:47.025Z</time></trkpt><trkpt lat="42.1297354" lon="11.904586"><ele>484.0</ele><time>2026-04-11T16:45:49.025Z</time></trkpt><trkpt lat="42.1298043" lon="11.9045578"><ele>484.0</ele><time>2026-04-11T16:45:52.025Z</time></trkpt><trkpt lat="42.1296919" lon="11.9044779"><ele>484.0</ele><time>2026-04-11T16:45:55.024Z</time></trkpt><trkpt lat="42.1298078" lon="11.9044714"><ele>484.0</ele><time>2026-04-11T16:46:03.024Z</time></trkpt><trkpt lat="42.1299126" lon="11.9044162"><ele>484.0</ele><time>2026-04-11T16:46:07.024Z</time></trkpt><trkpt lat="42.1300237" lon="11.9043735"><ele>484.0</ele><time>2026-04-11T16:46:09.025Z</time></trkpt><trkpt lat="42.1301021" lon="11.9043449"><ele>484.0</ele><time>2026-04-11T16:46:10.025Z</time></trkpt><trkpt lat="42.1301861" lon="11.9042988"><ele>483.2</ele><time>2026-04-11T16:46:11.025Z</time></trkpt><trkpt lat="42.1302694" lon="11.9042699"><ele>482.4</ele><time>2026-04-11T16:46:12.025Z</time></trkpt><trkpt lat="42.1303708" lon="11.9042356"><ele>481.6</ele><time>2026-04-11T16:46:13.024Z</time></trkpt><trkpt lat="42.1304743" lon="11.9041946"><ele>480.8</ele><time>2026-04-11T16:46:14.024Z</time></trkpt><trkpt lat="42.1305656" lon="11.9041675"><ele>480.0</ele><time>2026-04-11T16:46:15.024Z</time></trkpt><trkpt lat="42.1306624" lon="11.9041445"><ele>483.0</ele><time>2026-04-11T16:46:16.025Z</time></trkpt><trkpt lat="42.1307505" lon="11.9041098"><ele>486.0</ele><time>2026-04-11T16:46:17.024Z</time></trkpt><trkpt lat="42.1308489" lon="11.9040521"><ele>489.0</ele><time>2026-04-11T16:46:18.025Z</time></trkpt><trkpt lat="42.1309517" lon="11.9040266"><ele>492.0</ele><time>2026-04-11T16:46:19.025Z</time></trkpt><trkpt lat="42.1310429" lon="11.903992"><ele>495.0</ele><time>2026-04-11T16:46:20.025Z</time></trkpt><trkpt lat="42.1311426" lon="11.9039447"><ele>495.0</ele><time>2026-04-11T16:46:21.024Z</time></trkpt><trkpt lat="42.1312384" lon="11.903892"><ele>495.0</ele><time>2026-04-11T16:46:22.024Z</time></trkpt><trkpt lat="42.1313158" lon="11.9038558"><ele>495.0</ele><time>2026-04-11T16:46:23.025Z</time></trkpt><trkpt lat="42.1313891" lon="11.9037984"><ele>495.0</ele><time>2026-04-11T16:46:24.024Z</time></trkpt><trkpt lat="42.131445" lon="11.9037427"><ele>495.0</ele><time>2026-04-11T16:46:25.025Z</time></trkpt><trkpt lat="42.1314824" lon="11.9036582"><ele>495.0</ele><time>2026-04-11T16:46:26.025Z</time></trkpt><trkpt lat="42.1315083" lon="11.9035438"><ele>495.0</ele><time>2026-04-11T16:46:27.024Z</time></trkpt><trkpt lat="42.1315371" lon="11.9034266"><ele>495.0</ele><time>2026-04-11T16:46:28.024Z</time></trkpt><trkpt lat="42.1315787" lon="11.9033466"><ele>495.0</ele><time>2026-04-11T16:46:29.024Z</time></trkpt><trkpt lat="42.1317202" lon="11.9032637"><ele>495.0</ele><time>2026-04-11T16:46:31.025Z</time></trkpt><trkpt lat="42.1318669" lon="11.9032803"><ele>494.75</ele><time>2026-04-11T16:46:32.025Z</time></trkpt><trkpt lat="42.1320139" lon="11.9032842"><ele>494.5</ele><time>2026-04-11T16:46:33.025Z</time></trkpt><trkpt lat="42.1321406" lon="11.9032973"><ele>494.25</ele><time>2026-04-11T16:46:34.025Z</time></trkpt><trkpt lat="42.1322657" lon="11.9033111"><ele>494.0</ele><time>2026-04-11T16:46:35.024Z</time></trkpt><trkpt lat="42.1323875" lon="11.9033196"><ele>493.25</ele><time>2026-04-11T16:46:36.024Z</time></trkpt><trkpt lat="42.1325245" lon="11.9033206"><ele>492.5</ele><time>2026-04-11T16:46:37.025Z</time></trkpt><trkpt lat="42.132679" lon="11.9032972"><ele>491.75</ele><time>2026-04-11T16:46:38.024Z</time></trkpt><trkpt lat="42.1328057" lon="11.9032905"><ele>491.0</ele><time>2026-04-11T16:46:39.025Z</time></trkpt><trkpt lat="42.1329134" lon="11.9032953"><ele>491.0</ele><time>2026-04-11T16:46:40.025Z</time></trkpt><trkpt lat="42.1330543" lon="11.9033552"><ele>491.0</ele><time>2026-04-11T16:46:42.024Z</time></trkpt><trkpt lat="42.1331431" lon="11.9033042"><ele>491.0</ele><time>2026-04-11T16:46:43.025Z</time></trkpt><trkpt lat="42.1332426" lon="11.9032278"><ele>491.0</ele><time>2026-04-11T16:46:44.025Z</time></trkpt><trkpt lat="42.1333321" lon="11.9031866"><ele>489.20000000000005</ele><time>2026-04-11T16:46:45.024Z</time></trkpt><trkpt lat="42.1334073" lon="11.9031523"><ele>487.40000000000003</ele><time>2026-04-11T16:46:46.025Z</time></trkpt><trkpt lat="42.1334848" lon="11.9030723"><ele>485.6</ele><time>2026-04-11T16:46:47.024Z</time></trkpt><trkpt lat="42.1335768" lon="11.902996"><ele>483.8</ele><time>2026-04-11T16:46:48.024Z</time></trkpt><trkpt lat="42.1336689" lon="11.9029254"><ele>482.0</ele><time>2026-04-11T16:46:49.025Z</time></trkpt><trkpt lat="42.1337704" lon="11.9028516"><ele>482.0</ele><time>2026-04-11T16:46:50.024Z</time></trkpt><trkpt lat="42.1338833" lon="11.9027673"><ele>482.0</ele><time>2026-04-11T16:46:51.025Z</time></trkpt><trkpt lat="42.1339937" lon="11.9027002"><ele>482.0</ele><time>2026-04-11T16:46:52.024Z</time></trkpt><trkpt lat="42.1340869" lon="11.9026685"><ele>482.0</ele><time>2026-04-11T16:46:53.024Z</time></trkpt><trkpt lat="42.1341938" lon="11.902697"><ele>480.8</ele><time>2026-04-11T16:46:54.025Z</time></trkpt><trkpt lat="42.134275" lon="11.9027986"><ele>479.6</ele><time>2026-04-11T16:46:55.024Z</time></trkpt><trkpt lat="42.1343452" lon="11.902875"><ele>478.40000000000003</ele><time>2026-04-11T16:46:56.025Z</time></trkpt><trkpt lat="42.1344368" lon="11.9029407"><ele>477.20000000000005</ele><time>2026-04-11T16:46:57.025Z</time></trkpt><trkpt lat="42.1345196" lon="11.90302"><ele>476.0</ele><time>2026-04-11T16:46:58.025Z</time></trkpt><trkpt lat="42.1345947" lon="11.9030988"><ele>476.0</ele><time>2026-04-11T16:46:59.024Z</time></trkpt><trkpt lat="42.1346821" lon="11.903161"><ele>476.0</ele><time>2026-04-11T16:47:00.024Z</time></trkpt><trkpt lat="42.1347885" lon="11.9032339"><ele>476.0</ele><time>2026-04-11T16:47:01.025Z</time></trkpt><trkpt lat="42.1348963" lon="11.903274"><ele>476.0</ele><time>2026-04-11T16:47:02.024Z</time></trkpt><trkpt lat="42.1349969" lon="11.903301"><ele>476.0</ele><time>2026-04-11T16:47:03.025Z</time></trkpt><trkpt lat="42.1351005" lon="11.9033425"><ele>477.20000000000005</ele><time>2026-04-11T16:47:04.024Z</time></trkpt><trkpt lat="42.1352031" lon="11.9033839"><ele>478.40000000000003</ele><time>2026-04-11T16:47:05.025Z</time></trkpt><trkpt lat="42.1352984" lon="11.9034519"><ele>479.6</ele><time>2026-04-11T16:47:06.024Z</time></trkpt><trkpt lat="42.1353872" lon="11.9035166"><ele>480.8</ele><time>2026-04-11T16:47:07.025Z</time></trkpt><trkpt lat="42.1354561" lon="11.9035715"><ele>482.0</ele><time>2026-04-11T16:47:08.025Z</time></trkpt><trkpt lat="42.1355252" lon="11.9036085"><ele>480.66666666666663</ele><time>2026-04-11T16:47:09.025Z</time></trkpt><trkpt lat="42.1355894" lon="11.9036158"><ele>479.3333333333333</ele><time>2026-04-11T16:47:10.025Z</time></trkpt><trkpt lat="42.135655" lon="11.9036206"><ele>478.0</ele><time>2026-04-11T16:47:11.024Z</time></trkpt><trkpt lat="42.1357321" lon="11.9036051"><ele>476.66666666666663</ele><time>2026-04-11T16:47:12.024Z</time></trkpt><trkpt lat="42.1358067" lon="11.9035865"><ele>475.3333333333333</ele><time>2026-04-11T16:47:13.025Z</time></trkpt><trkpt lat="42.1359198" lon="11.9034584"><ele>474.0</ele><time>2026-04-11T16:47:14.024Z</time></trkpt><trkpt lat="42.1360041" lon="11.9032709"><ele>474.0</ele><time>2026-04-11T16:47:15.025Z</time></trkpt><trkpt lat="42.1360715" lon="11.9031093"><ele>474.0</ele><time>2026-04-11T16:47:16.025Z</time></trkpt><trkpt lat="42.1361154" lon="11.902984"><ele>474.0</ele><time>2026-04-11T16:47:17.025Z</time></trkpt><trkpt lat="42.1361197" lon="11.9028441"><ele>474.0</ele><time>2026-04-11T16:47:18.024Z</time></trkpt><trkpt lat="42.1361466" lon="11.9027251"><ele>474.0</ele><time>2026-04-11T16:47:19.025Z</time></trkpt><trkpt lat="42.1361645" lon="11.9026313"><ele>471.75</ele><time>2026-04-11T16:47:20.024Z</time></trkpt><trkpt lat="42.1361961" lon="11.9025073"><ele>469.5</ele><time>2026-04-11T16:47:22.025Z</time></trkpt><trkpt lat="42.1363338" lon="11.9023188"><ele>467.25</ele><time>2026-04-11T16:47:24.024Z</time></trkpt><trkpt lat="42.1364431" lon="11.9022281"><ele>465.0</ele><time>2026-04-11T16:47:25.025Z</time></trkpt><trkpt lat="42.1365747" lon="11.9021729"><ele>465.0</ele><time>2026-04-11T16:47:26.025Z</time></trkpt><trkpt lat="42.1367281" lon="11.9021851"><ele>465.0</ele><time>2026-04-11T16:47:27.025Z</time></trkpt><trkpt lat="42.1368337" lon="11.9022107"><ele>465.0</ele><time>2026-04-11T16:47:28.025Z</time></trkpt><trkpt lat="42.1369264" lon="11.9022615"><ele>465.0</ele><time>2026-04-11T16:47:30.025Z</time></trkpt><trkpt lat="42.1369937" lon="11.9021863"><ele>465.0</ele><time>2026-04-11T16:47:32.024Z</time></trkpt><trkpt lat="42.1370894" lon="11.9021366"><ele>465.0</ele><time>2026-04-11T16:47:33.025Z</time></trkpt><trkpt lat="42.1371838" lon="11.9021019"><ele>465.0</ele><time>2026-04-11T16:47:34.025Z</time></trkpt><trkpt lat="42.1372687" lon="11.9020557"><ele>465.0</ele><time>2026-04-11T16:47:35.025Z</time></trkpt><trkpt lat="42.1373777" lon="11.9020392"><ele>465.0</ele><time>2026-04-11T16:47:36.025Z</time></trkpt><trkpt lat="42.1374488" lon="11.9019941"><ele>465.0</ele><time>2026-04-11T16:47:37.024Z</time></trkpt><trkpt lat="42.1375175" lon="11.9019374"><ele>466.1666666666667</ele><time>2026-04-11T16:47:38.024Z</time></trkpt><trkpt lat="42.1375903" lon="11.9019123"><ele>467.33333333333337</ele><time>2026-04-11T16:47:39.024Z</time></trkpt><trkpt lat="42.137677" lon="11.9018858"><ele>468.5</ele><time>2026-04-11T16:47:40.025Z</time></trkpt><trkpt lat="42.1377484" lon="11.9018791"><ele>469.6666666666667</ele><time>2026-04-11T16:47:41.025Z</time></trkpt><trkpt lat="42.1378276" lon="11.901898"><ele>470.83333333333337</ele><time>2026-04-11T16:47:42.025Z</time></trkpt><trkpt lat="42.1378892" lon="11.9019166"><ele>472.0</ele><time>2026-04-11T16:47:43.025Z</time></trkpt><trkpt lat="42.137988" lon="11.9019303"><ele>472.0</ele><time>2026-04-11T16:47:44.024Z</time></trkpt><trkpt lat="42.1380709" lon="11.9019468"><ele>472.00000000000006</ele><time>2026-04-11T16:47:45.024Z</time></trkpt><trkpt lat="42.1381273" lon="11.9019086"><ele>472.00000000000006</ele><time>2026-04-11T16:47:46.025Z</time></trkpt><trkpt lat="42.138194" lon="11.9017516"><ele>472.0</ele><time>2026-04-11T16:47:48.024Z</time></trkpt><trkpt lat="42.1382165" lon="11.901634"><ele>472.0</ele><time>2026-04-11T16:47:49.025Z</time></trkpt><trkpt lat="42.1382186" lon="11.9015194"><ele>471.20000000000005</ele><time>2026-04-11T16:47:50.024Z</time></trkpt><trkpt lat="42.1382323" lon="11.901411"><ele>470.40000000000003</ele><time>2026-04-11T16:47:51.025Z</time></trkpt><trkpt lat="42.1382865" lon="11.9012603"><ele>469.59999999999997</ele><time>2026-04-11T16:47:52.024Z</time></trkpt><trkpt lat="42.1383629" lon="11.9011408"><ele>468.79999999999995</ele><time>2026-04-11T16:47:53.024Z</time></trkpt><trkpt lat="42.1384072" lon="11.9010305"><ele>468.0</ele><time>2026-04-11T16:47:54.024Z</time></trkpt><trkpt lat="42.1384495" lon="11.900928"><ele>465.4</ele><time>2026-04-11T16:47:56.025Z</time></trkpt><trkpt lat="42.1384944" lon="11.900846"><ele>462.79999999999995</ele><time>2026-04-11T16:48:00.024Z</time></trkpt><trkpt lat="42.138532" lon="11.9007454"><ele>460.2</ele><time>2026-04-11T16:48:02.025Z</time></trkpt><trkpt lat="42.1386002" lon="11.9006309"><ele>457.6</ele><time>2026-04-11T16:48:04.025Z</time></trkpt><trkpt lat="42.138709" lon="11.9005468"><ele>455.0</ele><time>2026-04-11T16:48:06.025Z</time></trkpt><trkpt lat="42.1387762" lon="11.9004857"><ele>455.0</ele><time>2026-04-11T16:48:07.025Z</time></trkpt><trkpt lat="42.1388602" lon="11.9004361"><ele>455.0</ele><time>2026-04-11T16:48:08.025Z</time></trkpt><trkpt lat="42.1389643" lon="11.9004009"><ele>455.0</ele><time>2026-04-11T16:48:09.025Z</time></trkpt><trkpt lat="42.1390468" lon="11.9004379"><ele>455.0</ele><time>2026-04-11T16:48:10.025Z</time></trkpt><trkpt lat="42.1391128" lon="11.9004831"><ele>455.0</ele><time>2026-04-11T16:48:11.025Z</time></trkpt><trkpt lat="42.1391975" lon="11.9005353"><ele>457.4</ele><time>2026-04-11T16:48:12.025Z</time></trkpt><trkpt lat="42.1392749" lon="11.9005895"><ele>459.8</ele><time>2026-04-11T16:48:13.024Z</time></trkpt><trkpt lat="42.1393551" lon="11.9006172"><ele>462.20000000000005</ele><time>2026-04-11T16:48:14.025Z</time></trkpt><trkpt lat="42.1394566" lon="11.9006296"><ele>464.6</ele><time>2026-04-11T16:48:15.025Z</time></trkpt><trkpt lat="42.1395592" lon="11.9006406"><ele>467.0</ele><time>2026-04-11T16:48:16.025Z</time></trkpt><trkpt lat="42.1396633" lon="11.9006282"><ele>467.0</ele><time>2026-04-11T16:48:17.025Z</time></trkpt><trkpt lat="42.1397727" lon="11.900629"><ele>467.00000000000006</ele><time>2026-04-11T16:48:18.025Z</time></trkpt><trkpt lat="42.1398831" lon="11.9006327"><ele>467.00000000000006</ele><time>2026-04-11T16:48:19.025Z</time></trkpt><trkpt lat="42.1399822" lon="11.9006306"><ele>467.0</ele><time>2026-04-11T16:48:20.025Z</time></trkpt><trkpt lat="42.1400862" lon="11.9006267"><ele>467.0</ele><time>2026-04-11T16:48:21.025Z</time></trkpt><trkpt lat="42.1401916" lon="11.9006167"><ele>467.8333333333333</ele><time>2026-04-11T16:48:22.024Z</time></trkpt><trkpt lat="42.1402806" lon="11.9006047"><ele>468.66666666666663</ele><time>2026-04-11T16:48:23.024Z</time></trkpt><trkpt lat="42.1403557" lon="11.9006044"><ele>469.5</ele><time>2026-04-11T16:48:24.024Z</time></trkpt><trkpt lat="42.1404269" lon="11.9006211"><ele>470.33333333333337</ele><time>2026-04-11T16:48:25.024Z</time></trkpt><trkpt lat="42.1404929" lon="11.9006359"><ele>471.1666666666667</ele><time>2026-04-11T16:48:26.024Z</time></trkpt><trkpt lat="42.1405676" lon="11.9006744"><ele>472.0</ele><time>2026-04-11T16:48:27.025Z</time></trkpt><trkpt lat="42.1406647" lon="11.9007415"><ele>471.6</ele><time>2026-04-11T16:48:28.025Z</time></trkpt><trkpt lat="42.140772" lon="11.9008037"><ele>471.20000000000005</ele><time>2026-04-11T16:48:29.024Z</time></trkpt><trkpt lat="42.1408721" lon="11.9008475"><ele>470.8</ele><time>2026-04-11T16:48:30.024Z</time></trkpt><trkpt lat="42.1409721" lon="11.9008541"><ele>470.4</ele><time>2026-04-11T16:48:31.024Z</time></trkpt><trkpt lat="42.1410449" lon="11.9008554"><ele>470.0</ele><time>2026-04-11T16:48:33.024Z</time></trkpt><trkpt lat="42.141092" lon="11.9009627"><ele>470.8</ele><time>2026-04-11T16:48:34.025Z</time></trkpt><trkpt lat="42.1411494" lon="11.9010691"><ele>471.6</ele><time>2026-04-11T16:48:35.025Z</time></trkpt><trkpt lat="42.1412173" lon="11.9011433"><ele>472.4</ele><time>2026-04-11T16:48:36.024Z</time></trkpt><trkpt lat="42.1412889" lon="11.9011878"><ele>473.2</ele><time>2026-04-11T16:48:37.025Z</time></trkpt><trkpt lat="42.1413606" lon="11.9012008"><ele>474.0</ele><time>2026-04-11T16:48:38.024Z</time></trkpt><trkpt lat="42.1415746" lon="11.9010795"><ele>474.0</ele><time>2026-04-11T16:48:41.025Z</time></trkpt><trkpt lat="42.1416595" lon="11.9009843"><ele>474.0</ele><time>2026-04-11T16:48:42.025Z</time></trkpt><trkpt lat="42.1417296" lon="11.9009068"><ele>474.0</ele><time>2026-04-11T16:48:43.025Z</time></trkpt><trkpt lat="42.1417942" lon="11.9007945"><ele>474.0</ele><time>2026-04-11T16:48:44.024Z</time></trkpt><trkpt lat="42.1418452" lon="11.9006417"><ele>474.0</ele><time>2026-04-11T16:48:45.024Z</time></trkpt><trkpt lat="42.1418996" lon="11.9005054"><ele>473.1666666666667</ele><time>2026-04-11T16:48:46.025Z</time></trkpt><trkpt lat="42.1419568" lon="11.9003898"><ele>472.33333333333337</ele><time>2026-04-11T16:48:47.025Z</time></trkpt><trkpt lat="42.1420202" lon="11.9002923"><ele>471.5</ele><time>2026-04-11T16:48:48.025Z</time></trkpt><trkpt lat="42.1420834" lon="11.9002103"><ele>470.6666666666667</ele><time>2026-04-11T16:48:49.025Z</time></trkpt><trkpt lat="42.1421498" lon="11.9001574"><ele>469.83333333333337</ele><time>2026-04-11T16:48:50.025Z</time></trkpt><trkpt lat="42.1422114" lon="11.90011"><ele>469.0</ele><time>2026-04-11T16:48:51.025Z</time></trkpt><trkpt lat="42.1422774" lon="11.9000754"><ele>469.0</ele><time>2026-04-11T16:48:52.025Z</time></trkpt><trkpt lat="42.1423776" lon="11.9000333"><ele>469.0</ele><time>2026-04-11T16:48:54.024Z</time></trkpt><trkpt lat="42.1424591" lon="11.8999655"><ele>469.0</ele><time>2026-04-11T16:48:56.025Z</time></trkpt><trkpt lat="42.1425562" lon="11.8999497"><ele>469.0</ele><time>2026-04-11T16:48:58.024Z</time></trkpt><trkpt lat="42.1426688" lon="11.899879"><ele>469.0</ele><time>2026-04-11T16:49:00.025Z</time></trkpt><trkpt lat="42.1427095" lon="11.899801"><ele>470.83333333333337</ele><time>2026-04-11T16:49:01.025Z</time></trkpt><trkpt lat="42.1427614" lon="11.8996528"><ele>472.6666666666667</ele><time>2026-04-11T16:49:03.025Z</time></trkpt><trkpt lat="42.1427662" lon="11.8995509"><ele>474.5</ele><time>2026-04-11T16:49:04.025Z</time></trkpt><trkpt lat="42.1427677" lon="11.8994366"><ele>476.33333333333337</ele><time>2026-04-11T16:49:05.024Z</time></trkpt><trkpt lat="42.1427609" lon="11.8993191"><ele>478.1666666666667</ele><time>2026-04-11T16:49:06.025Z</time></trkpt><trkpt lat="42.142744" lon="11.8992165"><ele>480.0</ele><time>2026-04-11T16:49:07.025Z</time></trkpt><trkpt lat="42.1427255" lon="11.8991053"><ele>481.1666666666667</ele><time>2026-04-11T16:49:08.025Z</time></trkpt><trkpt lat="42.1426872" lon="11.8989912"><ele>482.33333333333337</ele><time>2026-04-11T16:49:09.024Z</time></trkpt><trkpt lat="42.1426567" lon="11.8988654"><ele>483.5</ele><time>2026-04-11T16:49:10.024Z</time></trkpt><trkpt lat="42.1426387" lon="11.8987718"><ele>484.6666666666667</ele><time>2026-04-11T16:49:11.025Z</time></trkpt><trkpt lat="42.1426139" lon="11.8986571"><ele>485.83333333333337</ele><time>2026-04-11T16:49:12.025Z</time></trkpt><trkpt lat="42.142596" lon="11.8985448"><ele>487.0</ele><time>2026-04-11T16:49:13.024Z</time></trkpt><trkpt lat="42.1425982" lon="11.8984204"><ele>487.83333333333337</ele><time>2026-04-11T16:49:14.025Z</time></trkpt><trkpt lat="42.1426128" lon="11.8983107"><ele>488.6666666666667</ele><time>2026-04-11T16:49:15.025Z</time></trkpt><trkpt lat="42.1426667" lon="11.8982124"><ele>489.5</ele><time>2026-04-11T16:49:16.025Z</time></trkpt><trkpt lat="42.1427102" lon="11.8981052"><ele>490.33333333333337</ele><time>2026-04-11T16:49:17.025Z</time></trkpt><trkpt lat="42.1427407" lon="11.89801"><ele>491.1666666666667</ele><time>2026-04-11T16:49:18.025Z</time></trkpt><trkpt lat="42.1428032" lon="11.8979624"><ele>492.0</ele><time>2026-04-11T16:49:19.024Z</time></trkpt><trkpt lat="42.142902" lon="11.8978954"><ele>492.0</ele><time>2026-04-11T16:49:20.025Z</time></trkpt><trkpt lat="42.1430114" lon="11.897793"><ele>492.0</ele><time>2026-04-11T16:49:21.024Z</time></trkpt><trkpt lat="42.1431114" lon="11.8976959"><ele>492.0</ele><time>2026-04-11T16:49:22.024Z</time></trkpt><trkpt lat="42.1432176" lon="11.8976289"><ele>492.0</ele><time>2026-04-11T16:49:23.025Z</time></trkpt><trkpt lat="42.1433174" lon="11.8976312"><ele>493.6</ele><time>2026-04-11T16:49:24.024Z</time></trkpt><trkpt lat="42.1433995" lon="11.8976296"><ele>495.20000000000005</ele><time>2026-04-11T16:49:25.025Z</time></trkpt><trkpt lat="42.143499" lon="11.8976435"><ele>496.8</ele><time>2026-04-11T16:49:26.024Z</time></trkpt><trkpt lat="42.1435909" lon="11.8976854"><ele>498.4</ele><time>2026-04-11T16:49:27.024Z</time></trkpt><trkpt lat="42.1436712" lon="11.8977318"><ele>500.0</ele><time>2026-04-11T16:49:28.025Z</time></trkpt><trkpt lat="42.1437498" lon="11.8977825"><ele>500.0</ele><time>2026-04-11T16:49:29.024Z</time></trkpt><trkpt lat="42.1438447" lon="11.897855"><ele>500.0</ele><time>2026-04-11T16:49:30.025Z</time></trkpt><trkpt lat="42.143934" lon="11.8979384"><ele>500.0</ele><time>2026-04-11T16:49:31.025Z</time></trkpt><trkpt lat="42.1440327" lon="11.8980276"><ele>500.0</ele><time>2026-04-11T16:49:32.024Z</time></trkpt><trkpt lat="42.1441278" lon="11.8981169"><ele>499.4</ele><time>2026-04-11T16:49:33.024Z</time></trkpt><trkpt lat="42.1442297" lon="11.8981898"><ele>498.8</ele><time>2026-04-11T16:49:34.025Z</time></trkpt><trkpt lat="42.1443235" lon="11.8982517"><ele>498.20000000000005</ele><time>2026-04-11T16:49:35.024Z</time></trkpt><trkpt lat="42.1444189" lon="11.898287"><ele>497.6</ele><time>2026-04-11T16:49:36.024Z</time></trkpt><trkpt lat="42.1445209" lon="11.8982983"><ele>497.0</ele><time>2026-04-11T16:49:37.025Z</time></trkpt><trkpt lat="42.1446302" lon="11.8982859"><ele>497.0</ele><time>2026-04-11T16:49:38.025Z</time></trkpt><trkpt lat="42.1447349" lon="11.8982482"><ele>497.00000000000006</ele><time>2026-04-11T16:49:39.024Z</time></trkpt><trkpt lat="42.1448375" lon="11.8981982"><ele>497.00000000000006</ele><time>2026-04-11T16:49:40.024Z</time></trkpt><trkpt lat="42.1449389" lon="11.8981415"><ele>497.0</ele><time>2026-04-11T16:49:41.025Z</time></trkpt><trkpt lat="42.1450375" lon="11.8981051"><ele>497.0</ele><time>2026-04-11T16:49:42.024Z</time></trkpt><trkpt lat="42.1451321" lon="11.8980982"><ele>497.40000000000003</ele><time>2026-04-11T16:49:43.025Z</time></trkpt><trkpt lat="42.1452303" lon="11.8981138"><ele>497.80000000000007</ele><time>2026-04-11T16:49:44.025Z</time></trkpt><trkpt lat="42.145327" lon="11.8981493"><ele>498.2</ele><time>2026-04-11T16:49:45.024Z</time></trkpt><trkpt lat="42.1454176" lon="11.898201"><ele>498.6</ele><time>2026-04-11T16:49:46.024Z</time></trkpt><trkpt lat="42.1455044" lon="11.8982834"><ele>499.0</ele><time>2026-04-11T16:49:47.024Z</time></trkpt><trkpt lat="42.1455829" lon="11.8983745"><ele>498.79999999999995</ele><time>2026-04-11T16:49:48.024Z</time></trkpt><trkpt lat="42.1456741" lon="11.8984391"><ele>498.59999999999997</ele><time>2026-04-11T16:49:49.024Z</time></trkpt><trkpt lat="42.1457764" lon="11.8984902"><ele>498.4</ele><time>2026-04-11T16:49:50.025Z</time></trkpt><trkpt lat="42.1458692" lon="11.898501"><ele>498.2</ele><time>2026-04-11T16:49:51.025Z</time></trkpt><trkpt lat="42.1459585" lon="11.898538"><ele>498.0</ele><time>2026-04-11T16:49:52.024Z</time></trkpt><trkpt lat="42.1460447" lon="11.8986197"><ele>497.0</ele><time>2026-04-11T16:49:53.024Z</time></trkpt><trkpt lat="42.146143" lon="11.8986686"><ele>496.0</ele><time>2026-04-11T16:49:54.025Z</time></trkpt><trkpt lat="42.1462456" lon="11.8987399"><ele>495.0</ele><time>2026-04-11T16:49:55.024Z</time></trkpt><trkpt lat="42.146339" lon="11.89883"><ele>494.0</ele><time>2026-04-11T16:49:56.025Z</time></trkpt><trkpt lat="42.146437" lon="11.8989228"><ele>494.0</ele><time>2026-04-11T16:49:57.024Z</time></trkpt><trkpt lat="42.1465319" lon="11.8989911"><ele>494.0</ele><time>2026-04-11T16:49:58.025Z</time></trkpt><trkpt lat="42.1466111" lon="11.8990824"><ele>494.0</ele><time>2026-04-11T16:49:59.024Z</time></trkpt><trkpt lat="42.1466933" lon="11.8991471"><ele>494.0</ele><time>2026-04-11T16:50:00.025Z</time></trkpt><trkpt lat="42.1467572" lon="11.8992091"><ele>494.0</ele><time>2026-04-11T16:50:01.025Z</time></trkpt><trkpt lat="42.1468253" lon="11.8992689"><ele>491.66666666666663</ele><time>2026-04-11T16:50:02.025Z</time></trkpt><trkpt lat="42.1468826" lon="11.8993151"><ele>489.3333333333333</ele><time>2026-04-11T16:50:03.024Z</time></trkpt><trkpt lat="42.1469479" lon="11.8993828"><ele>487.0</ele><time>2026-04-11T16:50:04.025Z</time></trkpt><trkpt lat="42.147026" lon="11.8994147"><ele>484.66666666666663</ele><time>2026-04-11T16:50:05.025Z</time></trkpt><trkpt lat="42.1471232" lon="11.8993906"><ele>482.3333333333333</ele><time>2026-04-11T16:50:06.024Z</time></trkpt><trkpt lat="42.1472097" lon="11.8993577"><ele>480.0</ele><time>2026-04-11T16:50:07.024Z</time></trkpt><trkpt lat="42.1473012" lon="11.8993236"><ele>481.1666666666667</ele><time>2026-04-11T16:50:08.025Z</time></trkpt><trkpt lat="42.1473969" lon="11.8993055"><ele>482.33333333333337</ele><time>2026-04-11T16:50:09.024Z</time></trkpt><trkpt lat="42.1474849" lon="11.8993151"><ele>483.5</ele><time>2026-04-11T16:50:10.025Z</time></trkpt><trkpt lat="42.1475674" lon="11.8993348"><ele>484.6666666666667</ele><time>2026-04-11T16:50:11.025Z</time></trkpt><trkpt lat="42.147634" lon="11.8993777"><ele>485.83333333333337</ele><time>2026-04-11T16:50:12.025Z</time></trkpt><trkpt lat="42.1477171" lon="11.8994624"><ele>487.0</ele><time>2026-04-11T16:50:14.025Z</time></trkpt><trkpt lat="42.1476957" lon="11.8995879"><ele>487.0</ele><time>2026-04-11T16:50:17.025Z</time></trkpt><trkpt lat="42.1476394" lon="11.8996839"><ele>487.00000000000006</ele><time>2026-04-11T16:50:19.024Z</time></trkpt><trkpt lat="42.1475551" lon="11.8998087"><ele>487.00000000000006</ele><time>2026-04-11T16:50:21.024Z</time></trkpt><trkpt lat="42.1475188" lon="11.8999412"><ele>487.0</ele><time>2026-04-11T16:50:23.025Z</time></trkpt><trkpt lat="42.1475207" lon="11.9000981"><ele>487.0</ele><time>2026-04-11T16:50:25.025Z</time></trkpt><trkpt lat="42.1475339" lon="11.900192"><ele>485.40000000000003</ele><time>2026-04-11T16:50:26.024Z</time></trkpt><trkpt lat="42.1475845" lon="11.9002659"><ele>483.80000000000007</ele><time>2026-04-11T16:50:27.025Z</time></trkpt><trkpt lat="42.14766" lon="11.900336"><ele>482.2</ele><time>2026-04-11T16:50:29.024Z</time></trkpt><trkpt lat="42.1477572" lon="11.9003598"><ele>480.6</ele><time>2026-04-11T16:50:31.025Z</time></trkpt><trkpt lat="42.1478741" lon="11.9003851"><ele>479.0</ele><time>2026-04-11T16:50:33.025Z</time></trkpt><trkpt lat="42.1479025" lon="11.9005358"><ele>478.99999999999994</ele><time>2026-04-11T16:50:35.025Z</time></trkpt><trkpt lat="42.1478614" lon="11.9006959"><ele>479.0</ele><time>2026-04-11T16:50:37.024Z</time></trkpt><trkpt lat="42.1478401" lon="11.9007794"><ele>479.0</ele><time>2026-04-11T16:50:38.024Z</time></trkpt><trkpt lat="42.1478404" lon="11.9008653"><ele>479.0</ele><time>2026-04-11T16:50:39.024Z</time></trkpt><trkpt lat="42.1478536" lon="11.9009523"><ele>478.99999999999994</ele><time>2026-04-11T16:50:40.024Z</time></trkpt><trkpt lat="42.1478788" lon="11.9010324"><ele>479.0</ele><time>2026-04-11T16:50:41.024Z</time></trkpt><trkpt lat="42.1479289" lon="11.9011512"><ele>479.8333333333333</ele><time>2026-04-11T16:50:43.024Z</time></trkpt><trkpt lat="42.1479707" lon="11.9012435"><ele>480.66666666666663</ele><time>2026-04-11T16:50:45.025Z</time></trkpt><trkpt lat="42.1479339" lon="11.9013531"><ele>481.5</ele><time>2026-04-11T16:50:47.024Z</time></trkpt><trkpt lat="42.147821" lon="11.9014135"><ele>482.33333333333337</ele><time>2026-04-11T16:50:49.025Z</time></trkpt><trkpt lat="42.1477611" lon="11.9014573"><ele>483.1666666666667</ele><time>2026-04-11T16:50:50.025Z</time></trkpt><trkpt lat="42.1477012" lon="11.9015084"><ele>484.0</ele><time>2026-04-11T16:50:51.025Z</time></trkpt><trkpt lat="42.1476298" lon="11.9015673"><ele>484.00000000000006</ele><time>2026-04-11T16:50:52.025Z</time></trkpt><trkpt lat="42.1475552" lon="11.9016338"><ele>484.0</ele><time>2026-04-11T16:50:53.026Z</time></trkpt><trkpt lat="42.1474822" lon="11.9017101"><ele>484.0</ele><time>2026-04-11T16:50:54.026Z</time></trkpt><trkpt lat="42.1474084" lon="11.9017919"><ele>484.0</ele><time>2026-04-11T16:50:55.026Z</time></trkpt><trkpt lat="42.1473384" lon="11.901857"><ele>484.00000000000006</ele><time>2026-04-11T16:50:56.026Z</time></trkpt><trkpt lat="42.1472669" lon="11.9019229"><ele>484.0</ele><time>2026-04-11T16:50:57.026Z</time></trkpt><trkpt lat="42.1471994" lon="11.901994"><ele>482.1666666666667</ele><time>2026-04-11T16:50:58.026Z</time></trkpt><trkpt lat="42.1471333" lon="11.9020626"><ele>480.33333333333337</ele><time>2026-04-11T16:50:59.026Z</time></trkpt><trkpt lat="42.1470638" lon="11.9021318"><ele>478.5</ele><time>2026-04-11T16:51:00.026Z</time></trkpt><trkpt lat="42.1469982" lon="11.9022158"><ele>476.66666666666663</ele><time>2026-04-11T16:51:01.025Z</time></trkpt><trkpt lat="42.1469397" lon="11.9023071"><ele>474.8333333333333</ele><time>2026-04-11T16:51:02.025Z</time></trkpt><trkpt lat="42.1468867" lon="11.9023912"><ele>473.0</ele><time>2026-04-11T16:51:03.026Z</time></trkpt><trkpt lat="42.1468311" lon="11.9024815"><ele>472.99999999999994</ele><time>2026-04-11T16:51:04.025Z</time></trkpt><trkpt lat="42.1467901" lon="11.9025556"><ele>473.0</ele><time>2026-04-11T16:51:05.025Z</time></trkpt><trkpt lat="42.1467514" lon="11.902681"><ele>473.0</ele><time>2026-04-11T16:51:07.026Z</time></trkpt><trkpt lat="42.1467515" lon="11.902795"><ele>473.0</ele><time>2026-04-11T16:51:09.026Z</time></trkpt><trkpt lat="42.1467631" lon="11.9028952"><ele>472.99999999999994</ele><time>2026-04-11T16:51:12.026Z</time></trkpt><trkpt lat="42.1467769" lon="11.9030149"><ele>473.0</ele><time>2026-04-11T16:51:14.025Z</time></trkpt><trkpt lat="42.1468092" lon="11.9031506"><ele>473.0</ele><time>2026-04-11T16:51:16.026Z</time></trkpt><trkpt lat="42.1468658" lon="11.9032673"><ele>472.99999999999994</ele><time>2026-04-11T16:51:18.025Z</time></trkpt><trkpt lat="42.1469434" lon="11.903385"><ele>472.99999999999994</ele><time>2026-04-11T16:51:20.025Z</time></trkpt><trkpt lat="42.1470315" lon="11.9034776"><ele>473.0</ele><time>2026-04-11T16:51:22.026Z</time></trkpt><trkpt lat="42.1471224" lon="11.9035693"><ele>473.0</ele><time>2026-04-11T16:51:24.026Z</time></trkpt><trkpt lat="42.1471646" lon="11.9036771"><ele>473.0</ele><time>2026-04-11T16:51:26.026Z</time></trkpt><trkpt lat="42.1470947" lon="11.9037675"><ele>472.99999999999994</ele><time>2026-04-11T16:51:28.025Z</time></trkpt><trkpt lat="42.1469969" lon="11.9037672"><ele>472.99999999999994</ele><time>2026-04-11T16:51:30.026Z</time></trkpt><trkpt lat="42.1468822" lon="11.9037426"><ele>473.0</ele><time>2026-04-11T16:51:32.026Z</time></trkpt><trkpt lat="42.1467819" lon="11.9037871"><ele>473.0</ele><time>2026-04-11T16:51:34.024Z</time></trkpt><trkpt lat="42.1467318" lon="11.9038949"><ele>473.0</ele><time>2026-04-11T16:51:36.025Z</time></trkpt><trkpt lat="42.1467286" lon="11.9040451"><ele>472.99999999999994</ele><time>2026-04-11T16:51:38.024Z</time></trkpt><trkpt lat="42.1467059" lon="11.9042042"><ele>472.99999999999994</ele><time>2026-04-11T16:51:40.025Z</time></trkpt><trkpt lat="42.1466768" lon="11.9043133"><ele>473.0</ele><time>2026-04-11T16:51:42.024Z</time></trkpt><trkpt lat="42.1466406" lon="11.9043871"><ele>473.0</ele><time>2026-04-11T16:51:45.025Z</time></trkpt><trkpt lat="42.1465539" lon="11.9044144"><ele>471.66666666666663</ele><time>2026-04-11T16:51:48.025Z</time></trkpt><trkpt lat="42.146483" lon="11.9044419"><ele>470.3333333333333</ele><time>2026-04-11T16:51:50.025Z</time></trkpt><trkpt lat="42.1464007" lon="11.9044387"><ele>469.0</ele><time>2026-04-11T16:51:52.025Z</time></trkpt><trkpt lat="42.1463081" lon="11.904431"><ele>467.66666666666663</ele><time>2026-04-11T16:51:54.025Z</time></trkpt><trkpt lat="42.1462393" lon="11.9044566"><ele>466.3333333333333</ele><time>2026-04-11T16:51:56.024Z</time></trkpt><trkpt lat="42.1461589" lon="11.9045066"><ele>465.0</ele><time>2026-04-11T16:51:58.025Z</time></trkpt><trkpt lat="42.1460652" lon="11.9045732"><ele>465.0</ele><time>2026-04-11T16:52:00.024Z</time></trkpt><trkpt lat="42.1459852" lon="11.9046457"><ele>465.0</ele><time>2026-04-11T16:52:02.025Z</time></trkpt><trkpt lat="42.1459055" lon="11.9047364"><ele>465.0</ele><time>2026-04-11T16:52:04.025Z</time></trkpt><trkpt lat="42.1458173" lon="11.9048179"><ele>465.0</ele><time>2026-04-11T16:52:06.024Z</time></trkpt><trkpt lat="42.1457428" lon="11.9048971"><ele>465.0</ele><time>2026-04-11T16:52:08.025Z</time></trkpt><trkpt lat="42.1456679" lon="11.9049886"><ele>463.3333333333333</ele><time>2026-04-11T16:52:10.024Z</time></trkpt><trkpt lat="42.1456232" lon="11.9050668"><ele>461.66666666666663</ele><time>2026-04-11T16:52:12.025Z</time></trkpt><trkpt lat="42.1455864" lon="11.905156"><ele>460.0</ele><time>2026-04-11T16:52:14.024Z</time></trkpt><trkpt lat="42.1455488" lon="11.9052509"><ele>458.3333333333333</ele><time>2026-04-11T16:52:16.025Z</time></trkpt><trkpt lat="42.1455174" lon="11.9053618"><ele>456.66666666666663</ele><time>2026-04-11T16:52:18.024Z</time></trkpt><trkpt lat="42.1455008" lon="11.9054915"><ele>455.0</ele><time>2026-04-11T16:52:20.025Z</time></trkpt><trkpt lat="42.1454842" lon="11.9055984"><ele>455.0</ele><time>2026-04-11T16:52:22.024Z</time></trkpt><trkpt lat="42.1454592" lon="11.9056937"><ele>455.0</ele><time>2026-04-11T16:52:24.025Z</time></trkpt><trkpt lat="42.1454197" lon="11.905789"><ele>455.0</ele><time>2026-04-11T16:52:28.024Z</time></trkpt><trkpt lat="42.1453735" lon="11.9058892"><ele>455.0</ele><time>2026-04-11T16:52:31.024Z</time></trkpt><trkpt lat="42.145348" lon="11.9059734"><ele>455.0</ele><time>2026-04-11T16:52:33.024Z</time></trkpt><trkpt lat="42.1453084" lon="11.9060504"><ele>455.0</ele><time>2026-04-11T16:52:35.025Z</time></trkpt><trkpt lat="42.1452608" lon="11.9061126"><ele>455.0</ele><time>2026-04-11T16:52:37.024Z</time></trkpt><trkpt lat="42.145193" lon="11.9061324"><ele>456.16666666666663</ele><time>2026-04-11T16:52:39.025Z</time></trkpt><trkpt lat="42.1451296" lon="11.9061303"><ele>457.3333333333333</ele><time>2026-04-11T16:52:41.024Z</time></trkpt><trkpt lat="42.1450504" lon="11.9061107"><ele>458.5</ele><time>2026-04-11T16:52:44.024Z</time></trkpt><trkpt lat="42.1449641" lon="11.9061197"><ele>459.66666666666663</ele><time>2026-04-11T16:52:47.024Z</time></trkpt><trkpt lat="42.1448935" lon="11.9061594"><ele>460.8333333333333</ele><time>2026-04-11T16:52:49.024Z</time></trkpt><trkpt lat="42.1448264" lon="11.9062146"><ele>462.0</ele><time>2026-04-11T16:52:51.025Z</time></trkpt><trkpt lat="42.1447707" lon="11.9062838"><ele>458.0</ele><time>2026-04-11T16:52:53.025Z</time></trkpt><trkpt lat="42.1447037" lon="11.906341"><ele>454.0</ele><time>2026-04-11T16:52:55.025Z</time></trkpt><trkpt lat="42.1446419" lon="11.9064126"><ele>450.0</ele><time>2026-04-11T16:52:57.025Z</time></trkpt><trkpt lat="42.1445808" lon="11.9064847"><ele>446.0</ele><time>2026-04-11T16:52:59.024Z</time></trkpt><trkpt lat="42.1445109" lon="11.9065574"><ele>442.0</ele><time>2026-04-11T16:53:03.024Z</time></trkpt><trkpt lat="42.1444674" lon="11.9066267"><ele>438.0</ele><time>2026-04-11T16:53:05.025Z</time></trkpt><trkpt lat="42.1444346" lon="11.9067133"><ele>438.3333333333333</ele><time>2026-04-11T16:53:07.025Z</time></trkpt><trkpt lat="42.1444172" lon="11.9068152"><ele>438.66666666666663</ele><time>2026-04-11T16:53:09.025Z</time></trkpt><trkpt lat="42.1443992" lon="11.9069259"><ele>439.0</ele><time>2026-04-11T16:53:11.024Z</time></trkpt><trkpt lat="42.1443877" lon="11.9070279"><ele>439.3333333333333</ele><time>2026-04-11T16:53:13.025Z</time></trkpt><trkpt lat="42.1443811" lon="11.9071233"><ele>439.66666666666663</ele><time>2026-04-11T16:53:15.024Z</time></trkpt><trkpt lat="42.1443707" lon="11.9072521"><ele>440.0</ele><time>2026-04-11T16:53:17.025Z</time></trkpt><trkpt lat="42.1443366" lon="11.9073524"><ele>440.0</ele><time>2026-04-11T16:53:19.025Z</time></trkpt><trkpt lat="42.144297" lon="11.9074912"><ele>440.0</ele><time>2026-04-11T16:53:21.025Z</time></trkpt><trkpt lat="42.144268" lon="11.9075974"><ele>440.0</ele><time>2026-04-11T16:53:23.024Z</time></trkpt><trkpt lat="42.1442637" lon="11.9077351"><ele>440.0</ele><time>2026-04-11T16:53:25.025Z</time></trkpt><trkpt lat="42.1442754" lon="11.9078423"><ele>440.0</ele><time>2026-04-11T16:53:27.024Z</time></trkpt><trkpt lat="42.1443005" lon="11.9079887"><ele>438.6</ele><time>2026-04-11T16:53:29.024Z</time></trkpt><trkpt lat="42.1443188" lon="11.9081162"><ele>437.2</ele><time>2026-04-11T16:53:31.024Z</time></trkpt><trkpt lat="42.1443376" lon="11.9082567"><ele>435.79999999999995</ele><time>2026-04-11T16:53:33.024Z</time></trkpt><trkpt lat="42.1443696" lon="11.9083867"><ele>434.4</ele><time>2026-04-11T16:53:35.024Z</time></trkpt><trkpt lat="42.1444055" lon="11.9085205"><ele>433.0</ele><time>2026-04-11T16:53:37.025Z</time></trkpt><trkpt lat="42.1444238" lon="11.9086241"><ele>432.00000000000006</ele><time>2026-04-11T16:53:39.024Z</time></trkpt><trkpt lat="42.1444645" lon="11.9087"><ele>431.0</ele><time>2026-04-11T16:53:41.024Z</time></trkpt><trkpt lat="42.1445574" lon="11.9087377"><ele>430.0</ele><time>2026-04-11T16:53:43.025Z</time></trkpt><trkpt lat="42.1446257" lon="11.9087691"><ele>429.0</ele><time>2026-04-11T16:53:45.024Z</time></trkpt><trkpt lat="42.1446946" lon="11.9087569"><ele>428.00000000000006</ele><time>2026-04-11T16:53:47.025Z</time></trkpt><trkpt lat="42.144773" lon="11.9086893"><ele>427.0</ele><time>2026-04-11T16:53:49.025Z</time></trkpt><trkpt lat="42.1448283" lon="11.9086334"><ele>428.8</ele><time>2026-04-11T16:53:50.025Z</time></trkpt><trkpt lat="42.1449266" lon="11.9085513"><ele>430.6</ele><time>2026-04-11T16:53:52.024Z</time></trkpt><trkpt lat="42.1450045" lon="11.9084808"><ele>432.40000000000003</ele><time>2026-04-11T16:53:54.024Z</time></trkpt><trkpt lat="42.1450908" lon="11.9083925"><ele>434.20000000000005</ele><time>2026-04-11T16:53:56.024Z</time></trkpt><trkpt lat="42.1451405" lon="11.9083179"><ele>436.0</ele><time>2026-04-11T16:53:58.025Z</time></trkpt><trkpt lat="42.1452177" lon="11.9083023"><ele>436.00000000000006</ele><time>2026-04-11T16:54:02.025Z</time></trkpt><trkpt lat="42.1452354" lon="11.9083907"><ele>436.0</ele><time>2026-04-11T16:54:05.024Z</time></trkpt><trkpt lat="42.1452005" lon="11.9084696"><ele>436.0</ele><time>2026-04-11T16:54:08.025Z</time></trkpt><trkpt lat="42.1451453" lon="11.9085645"><ele>436.0</ele><time>2026-04-11T16:54:11.025Z</time></trkpt><trkpt lat="42.1451153" lon="11.9086774"><ele>436.00000000000006</ele><time>2026-04-11T16:54:14.024Z</time></trkpt><trkpt lat="42.1451493" lon="11.9087733"><ele>436.0</ele><time>2026-04-11T16:54:25.024Z</time></trkpt><trkpt lat="42.1451135" lon="11.9088683"><ele>436.0</ele><time>2026-04-11T16:54:29.024Z</time></trkpt><trkpt lat="42.1450978" lon="11.9089532"><ele>436.0</ele><time>2026-04-11T16:54:31.025Z</time></trkpt><trkpt lat="42.1450864" lon="11.9090382"><ele>436.0</ele><time>2026-04-11T16:54:33.024Z</time></trkpt><trkpt lat="42.145001" lon="11.9091053"><ele>436.0</ele><time>2026-04-11T16:54:36.025Z</time></trkpt><trkpt lat="42.1449776" lon="11.9091848"><ele>436.0</ele><time>2026-04-11T16:54:37.025Z</time></trkpt><trkpt lat="42.1449694" lon="11.9092726"><ele>436.0</ele><time>2026-04-11T16:54:39.025Z</time></trkpt><trkpt lat="42.1449527" lon="11.9093695"><ele>436.0</ele><time>2026-04-11T16:54:41.025Z</time></trkpt><trkpt lat="42.1449293" lon="11.9094904"><ele>435.0</ele><time>2026-04-11T16:54:43.024Z</time></trkpt><trkpt lat="42.1449107" lon="11.9096281"><ele>434.0</ele><time>2026-04-11T16:54:45.024Z</time></trkpt><trkpt lat="42.1448903" lon="11.909794"><ele>433.0</ele><time>2026-04-11T16:54:47.024Z</time></trkpt><trkpt lat="42.1448815" lon="11.9099152"><ele>432.0</ele><time>2026-04-11T16:54:49.025Z</time></trkpt><trkpt lat="42.1448909" lon="11.9100443"><ele>431.0</ele><time>2026-04-11T16:54:51.025Z</time></trkpt><trkpt lat="42.1448408" lon="11.9101796"><ele>428.66666666666663</ele><time>2026-04-11T16:54:53.024Z</time></trkpt><trkpt lat="42.1447654" lon="11.9102431"><ele>426.3333333333333</ele><time>2026-04-11T16:54:55.024Z</time></trkpt><trkpt lat="42.1447143" lon="11.9103167"><ele>424.0</ele><time>2026-04-11T16:54:57.024Z</time></trkpt><trkpt lat="42.1447036" lon="11.9104124"><ele>421.66666666666663</ele><time>2026-04-11T16:54:59.024Z</time></trkpt><trkpt lat="42.1447189" lon="11.9105309"><ele>419.3333333333333</ele><time>2026-04-11T16:55:01.024Z</time></trkpt><trkpt lat="42.1447754" lon="11.9106476"><ele>417.0</ele><time>2026-04-11T16:55:03.025Z</time></trkpt><trkpt lat="42.1448494" lon="11.9107447"><ele>416.0</ele><time>2026-04-11T16:55:05.024Z</time></trkpt><trkpt lat="42.1448846" lon="11.9108582"><ele>415.0</ele><time>2026-04-11T16:55:07.024Z</time></trkpt><trkpt lat="42.1448781" lon="11.9109989"><ele>414.0</ele><time>2026-04-11T16:55:09.024Z</time></trkpt><trkpt lat="42.1448622" lon="11.9111416"><ele>413.0</ele><time>2026-04-11T16:55:11.024Z</time></trkpt><trkpt lat="42.1448395" lon="11.9112845"><ele>412.0</ele><time>2026-04-11T16:55:13.025Z</time></trkpt><trkpt lat="42.1448451" lon="11.91144"><ele>413.8</ele><time>2026-04-11T16:55:15.024Z</time></trkpt><trkpt lat="42.1448966" lon="11.9115481"><ele>415.6</ele><time>2026-04-11T16:55:17.025Z</time></trkpt><trkpt lat="42.1449654" lon="11.9116192"><ele>417.40000000000003</ele><time>2026-04-11T16:55:19.025Z</time></trkpt><trkpt lat="42.145063" lon="11.9116866"><ele>419.20000000000005</ele><time>2026-04-11T16:55:21.025Z</time></trkpt><trkpt lat="42.1451278" lon="11.9117025"><ele>421.0</ele><time>2026-04-11T16:55:22.024Z</time></trkpt><trkpt lat="42.1452418" lon="11.9117382"><ele>422.20000000000005</ele><time>2026-04-11T16:55:24.024Z</time></trkpt><trkpt lat="42.1453459" lon="11.9118163"><ele>423.40000000000003</ele><time>2026-04-11T16:55:26.025Z</time></trkpt><trkpt lat="42.1453563" lon="11.9119082"><ele>424.6</ele><time>2026-04-11T16:55:29.024Z</time></trkpt><trkpt lat="42.145288" lon="11.9119664"><ele>425.8</ele><time>2026-04-11T16:55:33.024Z</time></trkpt><trkpt lat="42.1452367" lon="11.9120257"><ele>427.0</ele><time>2026-04-11T16:55:36.024Z</time></trkpt><trkpt lat="42.1453203" lon="11.911919"><ele>427.0</ele><time>2026-04-11T16:55:45.025Z</time></trkpt><trkpt lat="42.1452063" lon="11.9118712"><ele>427.00000000000006</ele><time>2026-04-11T16:55:48.025Z</time></trkpt><trkpt lat="42.1451194" lon="11.9118715"><ele>427.00000000000006</ele><time>2026-04-11T16:55:49.024Z</time></trkpt><trkpt lat="42.1450265" lon="11.911901"><ele>427.0</ele><time>2026-04-11T16:55:51.025Z</time></trkpt><trkpt lat="42.1449466" lon="11.91197"><ele>427.0</ele><time>2026-04-11T16:55:53.025Z</time></trkpt><trkpt lat="42.1448755" lon="11.9119975"><ele>423.50000000000006</ele><time>2026-04-11T16:55:55.025Z</time></trkpt><trkpt lat="42.144802" lon="11.9120139"><ele>420.0</ele><time>2026-04-11T16:55:57.025Z</time></trkpt><trkpt lat="42.1447394" lon="11.9120283"><ele>416.5</ele><time>2026-04-11T16:55:59.024Z</time></trkpt><trkpt lat="42.1446528" lon="11.9120587"><ele>413.0</ele><time>2026-04-11T16:56:01.024Z</time></trkpt><trkpt lat="42.1445782" lon="11.9120925"><ele>409.50000000000006</ele><time>2026-04-11T16:56:03.025Z</time></trkpt><trkpt lat="42.1445064" lon="11.9121535"><ele>406.0</ele><time>2026-04-11T16:56:06.025Z</time></trkpt><trkpt lat="42.1444574" lon="11.9122431"><ele>406.00000000000006</ele><time>2026-04-11T16:56:09.024Z</time></trkpt><trkpt lat="42.1444422" lon="11.9123575"><ele>406.0</ele><time>2026-04-11T16:56:12.025Z</time></trkpt><trkpt lat="42.1444095" lon="11.9124672"><ele>406.0</ele><time>2026-04-11T16:56:14.024Z</time></trkpt><trkpt lat="42.1443919" lon="11.9125506"><ele>406.0</ele><time>2026-04-11T16:56:16.025Z</time></trkpt><trkpt lat="42.1443832" lon="11.912658"><ele>406.00000000000006</ele><time>2026-04-11T16:56:18.024Z</time></trkpt><trkpt lat="42.1443416" lon="11.9127664"><ele>406.0</ele><time>2026-04-11T16:56:21.024Z</time></trkpt><trkpt lat="42.1443152" lon="11.91289"><ele>405.50000000000006</ele><time>2026-04-11T16:56:24.025Z</time></trkpt><trkpt lat="42.1442863" lon="11.9129992"><ele>405.0</ele><time>2026-04-11T16:56:26.025Z</time></trkpt><trkpt lat="42.1442684" lon="11.913114"><ele>404.5</ele><time>2026-04-11T16:56:28.025Z</time></trkpt><trkpt lat="42.1442314" lon="11.9132198"><ele>404.0</ele><time>2026-04-11T16:56:30.024Z</time></trkpt><trkpt lat="42.1442011" lon="11.9133281"><ele>403.50000000000006</ele><time>2026-04-11T16:56:32.025Z</time></trkpt><trkpt lat="42.1441721" lon="11.9134342"><ele>403.0</ele><time>2026-04-11T16:56:34.025Z</time></trkpt><trkpt lat="42.1441401" lon="11.9135473"><ele>402.50000000000006</ele><time>2026-04-11T16:56:36.024Z</time></trkpt><trkpt lat="42.1441069" lon="11.9136213"><ele>402.0</ele><time>2026-04-11T16:56:37.024Z</time></trkpt><trkpt lat="42.1440606" lon="11.9137552"><ele>401.5</ele><time>2026-04-11T16:56:39.024Z</time></trkpt><trkpt lat="42.1440371" lon="11.9138721"><ele>401.0</ele><time>2026-04-11T16:56:41.024Z</time></trkpt><trkpt lat="42.1440322" lon="11.9139755"><ele>400.50000000000006</ele><time>2026-04-11T16:56:43.025Z</time></trkpt><trkpt lat="42.1440414" lon="11.9141087"><ele>400.0</ele><time>2026-04-11T16:56:45.025Z</time></trkpt><trkpt lat="42.1440868" lon="11.9142123"><ele>402.2</ele><time>2026-04-11T16:56:47.025Z</time></trkpt><trkpt lat="42.1441602" lon="11.9142994"><ele>404.4</ele><time>2026-04-11T16:56:49.025Z</time></trkpt><trkpt lat="42.1442335" lon="11.9143806"><ele>406.6</ele><time>2026-04-11T16:56:51.025Z</time></trkpt><trkpt lat="42.1443037" lon="11.9144293"><ele>408.8</ele><time>2026-04-11T16:56:53.025Z</time></trkpt><trkpt lat="42.1443669" lon="11.9145087"><ele>411.0</ele><time>2026-04-11T16:56:55.024Z</time></trkpt><trkpt lat="42.1444394" lon="11.9145908"><ele>411.0</ele><time>2026-04-11T16:56:57.024Z</time></trkpt><trkpt lat="42.1445027" lon="11.9146652"><ele>411.0</ele><time>2026-04-11T16:56:59.025Z</time></trkpt><trkpt lat="42.1445523" lon="11.9147346"><ele>411.0</ele><time>2026-04-11T16:57:01.024Z</time></trkpt><trkpt lat="42.1445186" lon="11.9148345"><ele>411.0</ele><time>2026-04-11T16:57:06.025Z</time></trkpt><trkpt lat="42.1444363" lon="11.9148194"><ele>411.0</ele><time>2026-04-11T16:57:43.027Z</time></trkpt><trkpt lat="42.1443654" lon="11.9147962"><ele>411.0</ele><time>2026-04-11T16:57:45.027Z</time></trkpt><trkpt lat="42.1442857" lon="11.9147739"><ele>411.0</ele><time>2026-04-11T16:57:47.026Z</time></trkpt><trkpt lat="42.1442227" lon="11.9147539"><ele>411.0</ele><time>2026-04-11T16:57:49.027Z</time></trkpt><trkpt lat="42.1441457" lon="11.9147297"><ele>411.0</ele><time>2026-04-11T16:57:51.027Z</time></trkpt><trkpt lat="42.1440567" lon="11.9147258"><ele>411.0</ele><time>2026-04-11T16:57:53.027Z</time></trkpt><trkpt lat="42.1439769" lon="11.9147244"><ele>411.0</ele><time>2026-04-11T16:57:55.027Z</time></trkpt><trkpt lat="42.1438938" lon="11.9147409"><ele>411.0</ele><time>2026-04-11T16:57:57.026Z</time></trkpt><trkpt lat="42.1437955" lon="11.9147899"><ele>407.4</ele><time>2026-04-11T16:57:59.027Z</time></trkpt><trkpt lat="42.1437009" lon="11.9148411"><ele>403.8</ele><time>2026-04-11T16:58:01.026Z</time></trkpt><trkpt lat="42.1436118" lon="11.914891"><ele>400.2</ele><time>2026-04-11T16:58:03.027Z</time></trkpt><trkpt lat="42.1435368" lon="11.9149534"><ele>396.59999999999997</ele><time>2026-04-11T16:58:05.026Z</time></trkpt><trkpt lat="42.1434577" lon="11.9150479"><ele>393.0</ele><time>2026-04-11T16:58:07.027Z</time></trkpt><trkpt lat="42.1433944" lon="11.9151317"><ele>393.0</ele><time>2026-04-11T16:58:09.026Z</time></trkpt><trkpt lat="42.1433589" lon="11.9152633"><ele>393.0</ele><time>2026-04-11T16:58:11.027Z</time></trkpt><trkpt lat="42.1433463" lon="11.9153887"><ele>393.0</ele><time>2026-04-11T16:58:13.026Z</time></trkpt><trkpt lat="42.1433316" lon="11.9155094"><ele>393.0</ele><time>2026-04-11T16:58:15.027Z</time></trkpt><trkpt lat="42.1433225" lon="11.9156474"><ele>393.0</ele><time>2026-04-11T16:58:17.027Z</time></trkpt><trkpt lat="42.1433214" lon="11.9157492"><ele>393.0</ele><time>2026-04-11T16:58:19.026Z</time></trkpt><trkpt lat="42.1433152" lon="11.9158363"><ele>393.0</ele><time>2026-04-11T16:58:22.027Z</time></trkpt><trkpt lat="42.1433026" lon="11.9159559"><ele>393.0</ele><time>2026-04-11T16:58:25.026Z</time></trkpt><trkpt lat="42.1432578" lon="11.916037"><ele>393.0</ele><time>2026-04-11T16:58:28.026Z</time></trkpt><trkpt lat="42.1431979" lon="11.9161024"><ele>393.0</ele><time>2026-04-11T16:58:31.027Z</time></trkpt><trkpt lat="42.1431367" lon="11.9161751"><ele>393.0</ele><time>2026-04-11T16:58:34.027Z</time></trkpt><trkpt lat="42.1430848" lon="11.9162513"><ele>391.5714285714286</ele><time>2026-04-11T16:58:37.026Z</time></trkpt><trkpt lat="42.1430421" lon="11.9163139"><ele>390.14285714285717</ele><time>2026-04-11T16:58:39.026Z</time></trkpt><trkpt lat="42.1429989" lon="11.916382"><ele>388.7142857142857</ele><time>2026-04-11T16:58:41.027Z</time></trkpt><trkpt lat="42.1429613" lon="11.9164625"><ele>387.28571428571433</ele><time>2026-04-11T16:58:44.027Z</time></trkpt><trkpt lat="42.1429346" lon="11.9165566"><ele>385.85714285714283</ele><time>2026-04-11T16:58:47.027Z</time></trkpt><trkpt lat="42.1429096" lon="11.9166615"><ele>384.42857142857144</ele><time>2026-04-11T16:58:50.026Z</time></trkpt><trkpt lat="42.1428826" lon="11.9167563"><ele>383.0</ele><time>2026-04-11T16:58:53.026Z</time></trkpt><trkpt lat="42.1428374" lon="11.9168554"><ele>382.7142857142857</ele><time>2026-04-11T16:58:56.027Z</time></trkpt><trkpt lat="42.1428195" lon="11.9169498"><ele>382.42857142857144</ele><time>2026-04-11T16:58:59.027Z</time></trkpt><trkpt lat="42.1427963" lon="11.9170481"><ele>382.1428571428571</ele><time>2026-04-11T16:59:02.026Z</time></trkpt><trkpt lat="42.1427706" lon="11.9171503"><ele>381.8571428571429</ele><time>2026-04-11T16:59:05.026Z</time></trkpt><trkpt lat="42.1427243" lon="11.9172098"><ele>381.5714285714286</ele><time>2026-04-11T16:59:10.027Z</time></trkpt><trkpt lat="42.1426495" lon="11.9172257"><ele>381.2857142857143</ele><time>2026-04-11T16:59:15.026Z</time></trkpt><trkpt lat="42.1425841" lon="11.9172422"><ele>381.0</ele><time>2026-04-11T16:59:17.027Z</time></trkpt><trkpt lat="42.1425275" lon="11.9172968"><ele>381.0</ele><time>2026-04-11T16:59:19.026Z</time></trkpt><trkpt lat="42.1424729" lon="11.9173588"><ele>381.0</ele><time>2026-04-11T16:59:21.026Z</time></trkpt><trkpt lat="42.1424261" lon="11.9174354"><ele>381.0</ele><time>2026-04-11T16:59:23.026Z</time></trkpt><trkpt lat="42.1423988" lon="11.9175275"><ele>381.0</ele><time>2026-04-11T16:59:25.027Z</time></trkpt><trkpt lat="42.1423795" lon="11.9176307"><ele>381.0</ele><time>2026-04-11T16:59:27.027Z</time></trkpt><trkpt lat="42.1423502" lon="11.9177317"><ele>381.0</ele><time>2026-04-11T16:59:29.027Z</time></trkpt><trkpt lat="42.1423205" lon="11.9178399"><ele>381.20000000000005</ele><time>2026-04-11T16:59:31.027Z</time></trkpt><trkpt lat="42.1423194" lon="11.9179564"><ele>381.40000000000003</ele><time>2026-04-11T16:59:33.027Z</time></trkpt><trkpt lat="42.1423228" lon="11.9180721"><ele>381.6</ele><time>2026-04-11T16:59:35.026Z</time></trkpt><trkpt lat="42.1423326" lon="11.9182037"><ele>381.8</ele><time>2026-04-11T16:59:37.027Z</time></trkpt><trkpt lat="42.1423694" lon="11.9183537"><ele>382.0</ele><time>2026-04-11T16:59:39.025Z</time></trkpt><trkpt lat="42.1424216" lon="11.9185187"><ele>382.0</ele><time>2026-04-11T16:59:41.026Z</time></trkpt><trkpt lat="42.142449" lon="11.9186069"><ele>382.0</ele><time>2026-04-11T16:59:42.025Z</time></trkpt><trkpt lat="42.1424716" lon="11.9186895"><ele>382.0</ele><time>2026-04-11T16:59:43.025Z</time></trkpt><trkpt lat="42.1425016" lon="11.9187846"><ele>382.0</ele><time>2026-04-11T16:59:44.026Z</time></trkpt><trkpt lat="42.1425256" lon="11.9188637"><ele>382.0</ele><time>2026-04-11T16:59:45.026Z</time></trkpt><trkpt lat="42.1425512" lon="11.9189875"><ele>382.0</ele><time>2026-04-11T16:59:47.026Z</time></trkpt><trkpt lat="42.1425502" lon="11.9190791"><ele>382.0</ele><time>2026-04-11T16:59:49.025Z</time></trkpt><trkpt lat="42.142518" lon="11.9192036"><ele>381.6</ele><time>2026-04-11T16:59:51.026Z</time></trkpt><trkpt lat="42.142488" lon="11.919363"><ele>381.20000000000005</ele><time>2026-04-11T16:59:53.025Z</time></trkpt><trkpt lat="42.142485" lon="11.9195312"><ele>380.8</ele><time>2026-04-11T16:59:55.025Z</time></trkpt><trkpt lat="42.1424874" lon="11.9196216"><ele>380.4</ele><time>2026-04-11T16:59:56.025Z</time></trkpt><trkpt lat="42.1424868" lon="11.9197183"><ele>380.0</ele><time>2026-04-11T16:59:57.026Z</time></trkpt><trkpt lat="42.142488" lon="11.9198109"><ele>380.0</ele><time>2026-04-11T16:59:58.025Z</time></trkpt><trkpt lat="42.1424867" lon="11.9199054"><ele>380.0</ele><time>2026-04-11T16:59:59.025Z</time></trkpt><trkpt lat="42.1424835" lon="11.9200719"><ele>380.0</ele><time>2026-04-11T17:00:01.026Z</time></trkpt><trkpt lat="42.1424613" lon="11.9201993"><ele>380.0</ele><time>2026-04-11T17:00:03.026Z</time></trkpt><trkpt lat="42.1424248" lon="11.9203073"><ele>380.0</ele><time>2026-04-11T17:00:05.026Z</time></trkpt><trkpt lat="42.1423832" lon="11.9204274"><ele>385.0</ele><time>2026-04-11T17:00:07.026Z</time></trkpt><trkpt lat="42.1423515" lon="11.9205844"><ele>390.0</ele><time>2026-04-11T17:00:09.026Z</time></trkpt><trkpt lat="42.1423298" lon="11.9207199"><ele>395.0</ele><time>2026-04-11T17:00:11.026Z</time></trkpt><trkpt lat="42.1423327" lon="11.9208273"><ele>400.0</ele><time>2026-04-11T17:00:13.026Z</time></trkpt><trkpt lat="42.1423539" lon="11.9209119"><ele>404.99999999999994</ele><time>2026-04-11T17:00:15.026Z</time></trkpt><trkpt lat="42.1423683" lon="11.921004"><ele>410.0</ele><time>2026-04-11T17:00:17.026Z</time></trkpt><trkpt lat="42.1423688" lon="11.9211263"><ele>410.0</ele><time>2026-04-11T17:00:19.026Z</time></trkpt><trkpt lat="42.1423409" lon="11.9212658"><ele>410.0</ele><time>2026-04-11T17:00:21.026Z</time></trkpt><trkpt lat="42.1423279" lon="11.9213989"><ele>410.0</ele><time>2026-04-11T17:00:23.026Z</time></trkpt><trkpt lat="42.1423638" lon="11.9215165"><ele>410.0</ele><time>2026-04-11T17:00:25.026Z</time></trkpt><trkpt lat="42.1424135" lon="11.9216268"><ele>410.0</ele><time>2026-04-11T17:00:27.026Z</time></trkpt><trkpt lat="42.1424744" lon="11.9217462"><ele>402.8</ele><time>2026-04-11T17:00:29.026Z</time></trkpt><trkpt lat="42.142548" lon="11.9218661"><ele>395.6</ele><time>2026-04-11T17:00:31.026Z</time></trkpt><trkpt lat="42.1425494" lon="11.9220109"><ele>388.4</ele><time>2026-04-11T17:00:33.026Z</time></trkpt><trkpt lat="42.1425024" lon="11.9221545"><ele>381.2</ele><time>2026-04-11T17:00:35.026Z</time></trkpt><trkpt lat="42.1424606" lon="11.9222726"><ele>374.0</ele><time>2026-04-11T17:00:37.025Z</time></trkpt><trkpt lat="42.1424197" lon="11.9223911"><ele>374.0</ele><time>2026-04-11T17:00:39.025Z</time></trkpt><trkpt lat="42.1423881" lon="11.9224984"><ele>374.0</ele><time>2026-04-11T17:00:41.025Z</time></trkpt><trkpt lat="42.1423501" lon="11.9226186"><ele>374.0</ele><time>2026-04-11T17:00:43.025Z</time></trkpt><trkpt lat="42.1423022" lon="11.9227305"><ele>374.0</ele><time>2026-04-11T17:00:45.025Z</time></trkpt><trkpt lat="42.1422741" lon="11.9228205"><ele>374.0</ele><time>2026-04-11T17:00:47.026Z</time></trkpt><trkpt lat="42.1422618" lon="11.9229061"><ele>374.0</ele><time>2026-04-11T17:00:49.025Z</time></trkpt><trkpt lat="42.1424482" lon="11.9230475"><ele>373.25</ele><time>2026-04-11T17:01:00.026Z</time></trkpt><trkpt lat="42.1426155" lon="11.9230342"><ele>372.5</ele><time>2026-04-11T17:01:03.026Z</time></trkpt><trkpt lat="42.1427503" lon="11.9230454"><ele>371.75</ele><time>2026-04-11T17:01:06.026Z</time></trkpt><trkpt lat="42.1427786" lon="11.9231406"><ele>371.0</ele><time>2026-04-11T17:01:11.026Z</time></trkpt><trkpt lat="42.1427305" lon="11.9232146"><ele>371.0</ele><time>2026-04-11T17:01:13.026Z</time></trkpt><trkpt lat="42.142663" lon="11.9233869"><ele>371.0</ele><time>2026-04-11T17:01:15.026Z</time></trkpt><trkpt lat="42.1426305" lon="11.9235093"><ele>371.0</ele><time>2026-04-11T17:01:16.025Z</time></trkpt><trkpt lat="42.1425989" lon="11.9236457"><ele>371.0</ele><time>2026-04-11T17:01:17.026Z</time></trkpt><trkpt lat="42.1425714" lon="11.92378"><ele>370.8</ele><time>2026-04-11T17:01:18.026Z</time></trkpt><trkpt lat="42.1425387" lon="11.9239344"><ele>370.6</ele><time>2026-04-11T17:01:19.026Z</time></trkpt><trkpt lat="42.1425095" lon="11.9240778"><ele>370.4</ele><time>2026-04-11T17:01:20.025Z</time></trkpt><trkpt lat="42.1424724" lon="11.9242084"><ele>370.2</ele><time>2026-04-11T17:01:21.025Z</time></trkpt><trkpt lat="42.1424094" lon="11.9243276"><ele>370.0</ele><time>2026-04-11T17:01:22.025Z</time></trkpt><trkpt lat="42.1423232" lon="11.9244488"><ele>370.0</ele><time>2026-04-11T17:01:23.025Z</time></trkpt><trkpt lat="42.1422319" lon="11.9245741"><ele>370.0</ele><time>2026-04-11T17:01:24.025Z</time></trkpt><trkpt lat="42.1421481" lon="11.9247149"><ele>370.0</ele><time>2026-04-11T17:01:25.026Z</time></trkpt><trkpt lat="42.1420621" lon="11.9248593"><ele>370.0</ele><time>2026-04-11T17:01:26.026Z</time></trkpt><trkpt lat="42.1419852" lon="11.9250118"><ele>366.75</ele><time>2026-04-11T17:01:27.026Z</time></trkpt><trkpt lat="42.1419151" lon="11.925172"><ele>363.5</ele><time>2026-04-11T17:01:28.025Z</time></trkpt><trkpt lat="42.1418475" lon="11.9253317"><ele>360.25</ele><time>2026-04-11T17:01:29.026Z</time></trkpt><trkpt lat="42.1417876" lon="11.92549"><ele>357.0</ele><time>2026-04-11T17:01:30.025Z</time></trkpt><trkpt lat="42.1417307" lon="11.9256325"><ele>357.0</ele><time>2026-04-11T17:01:31.025Z</time></trkpt><trkpt lat="42.1416814" lon="11.9257731"><ele>357.0</ele><time>2026-04-11T17:01:32.025Z</time></trkpt><trkpt lat="42.1416535" lon="11.9259235"><ele>357.0</ele><time>2026-04-11T17:01:33.026Z</time></trkpt><trkpt lat="42.1416457" lon="11.9260867"><ele>357.0</ele><time>2026-04-11T17:01:34.026Z</time></trkpt><trkpt lat="42.1416538" lon="11.9262425"><ele>356.6666666666667</ele><time>2026-04-11T17:01:35.026Z</time></trkpt><trkpt lat="42.1416747" lon="11.9264369"><ele>356.33333333333337</ele><time>2026-04-11T17:01:36.025Z</time></trkpt><trkpt lat="42.1416785" lon="11.926659"><ele>356.0</ele><time>2026-04-11T17:01:37.025Z</time></trkpt><trkpt lat="42.1416874" lon="11.9268818"><ele>356.0</ele><time>2026-04-11T17:01:38.025Z</time></trkpt><trkpt lat="42.1416982" lon="11.9271024"><ele>356.0</ele><time>2026-04-11T17:01:39.026Z</time></trkpt><trkpt lat="42.1417015" lon="11.9273227"><ele>356.0</ele><time>2026-04-11T17:01:40.026Z</time></trkpt><trkpt lat="42.1417071" lon="11.9275511"><ele>355.33333333333337</ele><time>2026-04-11T17:01:41.025Z</time></trkpt><trkpt lat="42.1417235" lon="11.9277895"><ele>354.6666666666667</ele><time>2026-04-11T17:01:42.026Z</time></trkpt><trkpt lat="42.1417359" lon="11.9280179"><ele>354.0</ele><time>2026-04-11T17:01:43.026Z</time></trkpt><trkpt lat="42.1417381" lon="11.9282416"><ele>354.0</ele><time>2026-04-11T17:01:44.025Z</time></trkpt><trkpt lat="42.141742" lon="11.9284517"><ele>354.0</ele><time>2026-04-11T17:01:45.026Z</time></trkpt><trkpt lat="42.1417477" lon="11.9286681"><ele>354.0</ele><time>2026-04-11T17:01:46.026Z</time></trkpt><trkpt lat="42.1417367" lon="11.9289078"><ele>354.0</ele><time>2026-04-11T17:01:47.026Z</time></trkpt><trkpt lat="42.1417413" lon="11.9291718"><ele>354.0</ele><time>2026-04-11T17:01:48.026Z</time></trkpt><trkpt lat="42.1417551" lon="11.9293954"><ele>354.0</ele><time>2026-04-11T17:01:49.025Z</time></trkpt><trkpt lat="42.1417756" lon="11.929634"><ele>354.0</ele><time>2026-04-11T17:01:50.026Z</time></trkpt><trkpt lat="42.1418006" lon="11.9298573"><ele>354.0</ele><time>2026-04-11T17:01:51.025Z</time></trkpt><trkpt lat="42.1417926" lon="11.930103"><ele>354.0</ele><time>2026-04-11T17:01:52.026Z</time></trkpt><trkpt lat="42.1417198" lon="11.9303044"><ele>355.5</ele><time>2026-04-11T17:01:53.026Z</time></trkpt><trkpt lat="42.1416478" lon="11.9304685"><ele>357.0</ele><time>2026-04-11T17:01:54.026Z</time></trkpt><trkpt lat="42.1415805" lon="11.9306468"><ele>358.5</ele><time>2026-04-11T17:01:55.026Z</time></trkpt><trkpt lat="42.1415197" lon="11.9308108"><ele>360.0</ele><time>2026-04-11T17:01:56.025Z</time></trkpt><trkpt lat="42.1414836" lon="11.9309712"><ele>360.0</ele><time>2026-04-11T17:01:57.025Z</time></trkpt><trkpt lat="42.1414681" lon="11.9311291"><ele>360.0</ele><time>2026-04-11T17:01:58.025Z</time></trkpt><trkpt lat="42.1414818" lon="11.9312934"><ele>360.0</ele><time>2026-04-11T17:01:59.026Z</time></trkpt><trkpt lat="42.1415059" lon="11.9314805"><ele>360.0</ele><time>2026-04-11T17:02:00.026Z</time></trkpt><trkpt lat="42.1415281" lon="11.9316734"><ele>353.3333333333333</ele><time>2026-04-11T17:02:01.025Z</time></trkpt><trkpt lat="42.1415717" lon="11.9318758"><ele>346.66666666666663</ele><time>2026-04-11T17:02:02.025Z</time></trkpt><trkpt lat="42.1416263" lon="11.9320714"><ele>340.0</ele><time>2026-04-11T17:02:03.025Z</time></trkpt><trkpt lat="42.1416751" lon="11.9322647"><ele>340.0</ele><time>2026-04-11T17:02:04.025Z</time></trkpt><trkpt lat="42.1417114" lon="11.9324289"><ele>340.0</ele><time>2026-04-11T17:02:05.025Z</time></trkpt><trkpt lat="42.1417256" lon="11.9326281"><ele>340.0</ele><time>2026-04-11T17:02:06.026Z</time></trkpt><trkpt lat="42.1417431" lon="11.9328743"><ele>339.66666666666663</ele><time>2026-04-11T17:02:07.025Z</time></trkpt><trkpt lat="42.1417353" lon="11.9331026"><ele>339.3333333333333</ele><time>2026-04-11T17:02:08.026Z</time></trkpt><trkpt lat="42.1417031" lon="11.9332912"><ele>339.0</ele><time>2026-04-11T17:02:09.025Z</time></trkpt><trkpt lat="42.141677" lon="11.9334951"><ele>337.6666666666667</ele><time>2026-04-11T17:02:10.026Z</time></trkpt><trkpt lat="42.1416545" lon="11.93371"><ele>336.33333333333337</ele><time>2026-04-11T17:02:11.026Z</time></trkpt><trkpt lat="42.1416351" lon="11.9339205"><ele>335.0</ele><time>2026-04-11T17:02:12.026Z</time></trkpt><trkpt lat="42.1416102" lon="11.9341357"><ele>333.33333333333337</ele><time>2026-04-11T17:02:13.025Z</time></trkpt><trkpt lat="42.1415714" lon="11.9343639"><ele>331.6666666666667</ele><time>2026-04-11T17:02:14.026Z</time></trkpt><trkpt lat="42.141541" lon="11.9346033"><ele>330.0</ele><time>2026-04-11T17:02:15.025Z</time></trkpt><trkpt lat="42.1415172" lon="11.934845"><ele>333.0</ele><time>2026-04-11T17:02:16.025Z</time></trkpt><trkpt lat="42.1414854" lon="11.9350768"><ele>336.0</ele><time>2026-04-11T17:02:17.025Z</time></trkpt><trkpt lat="42.1414567" lon="11.9353038"><ele>339.0</ele><time>2026-04-11T17:02:18.026Z</time></trkpt><trkpt lat="42.1414393" lon="11.9355178"><ele>339.0</ele><time>2026-04-11T17:02:19.025Z</time></trkpt><trkpt lat="42.1414218" lon="11.9357311"><ele>339.0</ele><time>2026-04-11T17:02:20.025Z</time></trkpt><trkpt lat="42.1413991" lon="11.935948"><ele>339.0</ele><time>2026-04-11T17:02:21.025Z</time></trkpt><trkpt lat="42.1413702" lon="11.9361569"><ele>337.0</ele><time>2026-04-11T17:02:22.026Z</time></trkpt><trkpt lat="42.1413344" lon="11.9363784"><ele>335.0</ele><time>2026-04-11T17:02:23.026Z</time></trkpt><trkpt lat="42.1412915" lon="11.9366006"><ele>333.0</ele><time>2026-04-11T17:02:24.026Z</time></trkpt><trkpt lat="42.1412396" lon="11.9368215"><ele>332.6666666666667</ele><time>2026-04-11T17:02:25.026Z</time></trkpt><trkpt lat="42.1411873" lon="11.9370638"><ele>332.33333333333337</ele><time>2026-04-11T17:02:26.026Z</time></trkpt><trkpt lat="42.1411318" lon="11.9373024"><ele>332.0</ele><time>2026-04-11T17:02:27.025Z</time></trkpt><trkpt lat="42.1410729" lon="11.9375337"><ele>330.6666666666667</ele><time>2026-04-11T17:02:28.026Z</time></trkpt><trkpt lat="42.1410146" lon="11.9377706"><ele>329.3333333333333</ele><time>2026-04-11T17:02:29.025Z</time></trkpt><trkpt lat="42.1409586" lon="11.9380077"><ele>328.0</ele><time>2026-04-11T17:02:30.025Z</time></trkpt><trkpt lat="42.1409027" lon="11.9382458"><ele>325.66666666666663</ele><time>2026-04-11T17:02:31.025Z</time></trkpt><trkpt lat="42.1408448" lon="11.9384796"><ele>323.3333333333333</ele><time>2026-04-11T17:02:32.025Z</time></trkpt><trkpt lat="42.1407884" lon="11.9387049"><ele>321.0</ele><time>2026-04-11T17:02:33.026Z</time></trkpt><trkpt lat="42.1407361" lon="11.9389323"><ele>323.6666666666667</ele><time>2026-04-11T17:02:34.026Z</time></trkpt><trkpt lat="42.1406895" lon="11.9391577"><ele>326.33333333333337</ele><time>2026-04-11T17:02:35.026Z</time></trkpt><trkpt lat="42.1406426" lon="11.9393741"><ele>329.0</ele><time>2026-04-11T17:02:36.025Z</time></trkpt><trkpt lat="42.1406" lon="11.9395824"><ele>329.5</ele><time>2026-04-11T17:02:37.026Z</time></trkpt><trkpt lat="42.1405571" lon="11.9397785"><ele>330.0</ele><time>2026-04-11T17:02:38.026Z</time></trkpt><trkpt lat="42.1405072" lon="11.9399585"><ele>330.5</ele><time>2026-04-11T17:02:39.025Z</time></trkpt><trkpt lat="42.1404624" lon="11.9401486"><ele>331.0</ele><time>2026-04-11T17:02:40.025Z</time></trkpt><trkpt lat="42.1404229" lon="11.940345"><ele>331.0</ele><time>2026-04-11T17:02:41.025Z</time></trkpt><trkpt lat="42.1403901" lon="11.9405393"><ele>331.0</ele><time>2026-04-11T17:02:42.026Z</time></trkpt><trkpt lat="42.1403652" lon="11.9407477"><ele>331.0</ele><time>2026-04-11T17:02:43.025Z</time></trkpt><trkpt lat="42.1403468" lon="11.9409516"><ele>331.3333333333333</ele><time>2026-04-11T17:02:44.026Z</time></trkpt><trkpt lat="42.1403301" lon="11.9411621"><ele>331.6666666666667</ele><time>2026-04-11T17:02:45.025Z</time></trkpt><trkpt lat="42.1403167" lon="11.9413751"><ele>332.0</ele><time>2026-04-11T17:02:46.025Z</time></trkpt><trkpt lat="42.1403036" lon="11.9415853"><ele>333.33333333333337</ele><time>2026-04-11T17:02:47.025Z</time></trkpt><trkpt lat="42.1402929" lon="11.9417924"><ele>334.6666666666667</ele><time>2026-04-11T17:02:48.026Z</time></trkpt><trkpt lat="42.1402821" lon="11.9420027"><ele>336.0</ele><time>2026-04-11T17:02:49.026Z</time></trkpt><trkpt lat="42.1402718" lon="11.9422156"><ele>336.0</ele><time>2026-04-11T17:02:50.025Z</time></trkpt><trkpt lat="42.1402633" lon="11.9424254"><ele>336.0</ele><time>2026-04-11T17:02:51.026Z</time></trkpt><trkpt lat="42.1402501" lon="11.9426315"><ele>336.0</ele><time>2026-04-11T17:02:52.025Z</time></trkpt><trkpt lat="42.1402329" lon="11.9428344"><ele>336.75</ele><time>2026-04-11T17:02:53.026Z</time></trkpt><trkpt lat="42.1402195" lon="11.9430294"><ele>337.5</ele><time>2026-04-11T17:02:54.026Z</time></trkpt><trkpt lat="42.1402076" lon="11.9432215"><ele>338.25</ele><time>2026-04-11T17:02:55.025Z</time></trkpt><trkpt lat="42.1401924" lon="11.9434114"><ele>339.0</ele><time>2026-04-11T17:02:56.025Z</time></trkpt><trkpt lat="42.1401769" lon="11.9435899"><ele>337.4</ele><time>2026-04-11T17:02:57.026Z</time></trkpt><trkpt lat="42.1401621" lon="11.9437469"><ele>335.79999999999995</ele><time>2026-04-11T17:02:58.025Z</time></trkpt><trkpt lat="42.1401478" lon="11.9438885"><ele>334.20000000000005</ele><time>2026-04-11T17:02:59.025Z</time></trkpt><trkpt lat="42.1401244" lon="11.9440123"><ele>332.6</ele><time>2026-04-11T17:03:00.026Z</time></trkpt><trkpt lat="42.1400779" lon="11.9441077"><ele>331.0</ele><time>2026-04-11T17:03:01.026Z</time></trkpt><trkpt lat="42.1400128" lon="11.9441828"><ele>331.0</ele><time>2026-04-11T17:03:02.026Z</time></trkpt><trkpt lat="42.1399198" lon="11.9442123"><ele>331.0</ele><time>2026-04-11T17:03:03.025Z</time></trkpt><trkpt lat="42.1398079" lon="11.9442031"><ele>331.0</ele><time>2026-04-11T17:03:04.025Z</time></trkpt><trkpt lat="42.1396843" lon="11.9441718"><ele>331.0</ele><time>2026-04-11T17:03:05.025Z</time></trkpt><trkpt lat="42.1395631" lon="11.9441536"><ele>330.6</ele><time>2026-04-11T17:03:06.026Z</time></trkpt><trkpt lat="42.1394415" lon="11.9441436"><ele>330.20000000000005</ele><time>2026-04-11T17:03:07.025Z</time></trkpt><trkpt lat="42.139335" lon="11.9441586"><ele>329.79999999999995</ele><time>2026-04-11T17:03:08.025Z</time></trkpt><trkpt lat="42.1392466" lon="11.9442191"><ele>329.4</ele><time>2026-04-11T17:03:09.026Z</time></trkpt><trkpt lat="42.1392042" lon="11.9443276"><ele>329.0</ele><time>2026-04-11T17:03:10.026Z</time></trkpt><trkpt lat="42.1391858" lon="11.9444537"><ele>329.0</ele><time>2026-04-11T17:03:11.026Z</time></trkpt><trkpt lat="42.1391739" lon="11.9445727"><ele>329.0</ele><time>2026-04-11T17:03:12.026Z</time></trkpt><trkpt lat="42.1391572" lon="11.9446938"><ele>329.0</ele><time>2026-04-11T17:03:13.026Z</time></trkpt><trkpt lat="42.1391427" lon="11.9448266"><ele>329.0</ele><time>2026-04-11T17:03:14.025Z</time></trkpt><trkpt lat="42.139126" lon="11.9449683"><ele>329.0</ele><time>2026-04-11T17:03:15.026Z</time></trkpt><trkpt lat="42.1391084" lon="11.9451236"><ele>328.5</ele><time>2026-04-11T17:03:16.026Z</time></trkpt><trkpt lat="42.139081" lon="11.9452897"><ele>328.0</ele><time>2026-04-11T17:03:17.026Z</time></trkpt><trkpt lat="42.1390394" lon="11.9454449"><ele>327.5</ele><time>2026-04-11T17:03:18.026Z</time></trkpt><trkpt lat="42.138979" lon="11.9455735"><ele>327.0</ele><time>2026-04-11T17:03:19.025Z</time></trkpt><trkpt lat="42.1389125" lon="11.9456899"><ele>327.0</ele><time>2026-04-11T17:03:20.026Z</time></trkpt><trkpt lat="42.1388417" lon="11.945797"><ele>327.0</ele><time>2026-04-11T17:03:21.026Z</time></trkpt><trkpt lat="42.1387651" lon="11.9459032"><ele>327.0</ele><time>2026-04-11T17:03:22.025Z</time></trkpt><trkpt lat="42.1386807" lon="11.9460087"><ele>327.0</ele><time>2026-04-11T17:03:23.026Z</time></trkpt><trkpt lat="42.1385856" lon="11.9461093"><ele>322.5</ele><time>2026-04-11T17:03:24.026Z</time></trkpt><trkpt lat="42.1384824" lon="11.9462142"><ele>318.0</ele><time>2026-04-11T17:03:25.026Z</time></trkpt><trkpt lat="42.1383755" lon="11.9463128"><ele>313.5</ele><time>2026-04-11T17:03:26.026Z</time></trkpt><trkpt lat="42.1382667" lon="11.9463959"><ele>309.0</ele><time>2026-04-11T17:03:27.026Z</time></trkpt><trkpt lat="42.1381544" lon="11.9464619"><ele>309.0</ele><time>2026-04-11T17:03:28.025Z</time></trkpt><trkpt lat="42.1380354" lon="11.9465155"><ele>309.0</ele><time>2026-04-11T17:03:29.026Z</time></trkpt><trkpt lat="42.1379104" lon="11.946562"><ele>309.0</ele><time>2026-04-11T17:03:30.025Z</time></trkpt><trkpt lat="42.1377819" lon="11.9466003"><ele>309.0</ele><time>2026-04-11T17:03:31.025Z</time></trkpt><trkpt lat="42.1376502" lon="11.9466294"><ele>309.0</ele><time>2026-04-11T17:03:32.025Z</time></trkpt><trkpt lat="42.1375148" lon="11.9466558"><ele>309.0</ele><time>2026-04-11T17:03:33.026Z</time></trkpt><trkpt lat="42.1373769" lon="11.9466832"><ele>309.0</ele><time>2026-04-11T17:03:34.026Z</time></trkpt><trkpt lat="42.1372377" lon="11.9467158"><ele>309.0</ele><time>2026-04-11T17:03:35.026Z</time></trkpt><trkpt lat="42.1371016" lon="11.9467521"><ele>305.25</ele><time>2026-04-11T17:03:36.026Z</time></trkpt><trkpt lat="42.1369609" lon="11.9467873"><ele>301.5</ele><time>2026-04-11T17:03:37.025Z</time></trkpt><trkpt lat="42.1368235" lon="11.9468246"><ele>297.75</ele><time>2026-04-11T17:03:38.026Z</time></trkpt><trkpt lat="42.1366919" lon="11.9468629"><ele>294.0</ele><time>2026-04-11T17:03:39.025Z</time></trkpt><trkpt lat="42.1365769" lon="11.9469147"><ele>294.59999999999997</ele><time>2026-04-11T17:03:40.026Z</time></trkpt><trkpt lat="42.1364761" lon="11.9469746"><ele>295.2</ele><time>2026-04-11T17:03:41.025Z</time></trkpt><trkpt lat="42.1363925" lon="11.9470507"><ele>295.79999999999995</ele><time>2026-04-11T17:03:42.026Z</time></trkpt><trkpt lat="42.1363206" lon="11.9471384"><ele>296.4</ele><time>2026-04-11T17:03:43.025Z</time></trkpt><trkpt lat="42.1362522" lon="11.9472305"><ele>297.0</ele><time>2026-04-11T17:03:44.025Z</time></trkpt><trkpt lat="42.1361989" lon="11.9473391"><ele>297.0</ele><time>2026-04-11T17:03:45.025Z</time></trkpt><trkpt lat="42.1361644" lon="11.9474567"><ele>297.0</ele><time>2026-04-11T17:03:46.025Z</time></trkpt><trkpt lat="42.1361642" lon="11.947568"><ele>297.0</ele><time>2026-04-11T17:03:47.026Z</time></trkpt><trkpt lat="42.1361796" lon="11.9476898"><ele>297.0</ele><time>2026-04-11T17:03:48.025Z</time></trkpt><trkpt lat="42.1362474" lon="11.94788"><ele>297.0</ele><time>2026-04-11T17:03:49.026Z</time></trkpt><trkpt lat="42.1363176" lon="11.9480103"><ele>296.6</ele><time>2026-04-11T17:03:50.025Z</time></trkpt><trkpt lat="42.1363819" lon="11.9480911"><ele>296.2</ele><time>2026-04-11T17:03:51.026Z</time></trkpt><trkpt lat="42.1364285" lon="11.9481727"><ele>295.8</ele><time>2026-04-11T17:03:52.026Z</time></trkpt><trkpt lat="42.1364675" lon="11.9482751"><ele>295.4</ele><time>2026-04-11T17:03:53.026Z</time></trkpt><trkpt lat="42.1364797" lon="11.948422"><ele>295.0</ele><time>2026-04-11T17:03:54.026Z</time></trkpt><trkpt lat="42.1364742" lon="11.9486093"><ele>292.25</ele><time>2026-04-11T17:03:55.025Z</time></trkpt><trkpt lat="42.1364567" lon="11.9487969"><ele>289.5</ele><time>2026-04-11T17:03:56.025Z</time></trkpt><trkpt lat="42.1364318" lon="11.9489795"><ele>286.75</ele><time>2026-04-11T17:03:57.025Z</time></trkpt><trkpt lat="42.1363897" lon="11.9491846"><ele>284.0</ele><time>2026-04-11T17:03:58.026Z</time></trkpt><trkpt lat="42.1363419" lon="11.949303"><ele>281.4</ele><time>2026-04-11T17:03:59.025Z</time></trkpt><trkpt lat="42.1362561" lon="11.9494109"><ele>278.79999999999995</ele><time>2026-04-11T17:04:00.026Z</time></trkpt><trkpt lat="42.13616" lon="11.9494755"><ele>276.20000000000005</ele><time>2026-04-11T17:04:01.026Z</time></trkpt><trkpt lat="42.1360602" lon="11.9495136"><ele>273.6</ele><time>2026-04-11T17:04:02.026Z</time></trkpt><trkpt lat="42.135959" lon="11.949532"><ele>271.0</ele><time>2026-04-11T17:04:03.026Z</time></trkpt><trkpt lat="42.1358621" lon="11.9495187"><ele>271.0</ele><time>2026-04-11T17:04:04.025Z</time></trkpt><trkpt lat="42.1357715" lon="11.9494453"><ele>271.0</ele><time>2026-04-11T17:04:05.025Z</time></trkpt><trkpt lat="42.1356857" lon="11.9493524"><ele>271.0</ele><time>2026-04-11T17:04:06.026Z</time></trkpt><trkpt lat="42.1355945" lon="11.9492504"><ele>271.0</ele><time>2026-04-11T17:04:07.025Z</time></trkpt><trkpt lat="42.1355067" lon="11.9491529"><ele>271.0</ele><time>2026-04-11T17:04:08.026Z</time></trkpt><trkpt lat="42.1354318" lon="11.9490268"><ele>268.75</ele><time>2026-04-11T17:04:09.025Z</time></trkpt><trkpt lat="42.1353543" lon="11.9488897"><ele>266.5</ele><time>2026-04-11T17:04:10.025Z</time></trkpt><trkpt lat="42.1352813" lon="11.9487639"><ele>264.25</ele><time>2026-04-11T17:04:11.025Z</time></trkpt><trkpt lat="42.1352147" lon="11.9486172"><ele>262.0</ele><time>2026-04-11T17:04:12.025Z</time></trkpt><trkpt lat="42.1351498" lon="11.9484697"><ele>261.0</ele><time>2026-04-11T17:04:13.024Z</time></trkpt><trkpt lat="42.1350846" lon="11.9483256"><ele>260.0</ele><time>2026-04-11T17:04:14.024Z</time></trkpt><trkpt lat="42.1350212" lon="11.9481899"><ele>259.0</ele><time>2026-04-11T17:04:15.024Z</time></trkpt><trkpt lat="42.1349536" lon="11.9480569"><ele>258.0</ele><time>2026-04-11T17:04:16.025Z</time></trkpt><trkpt lat="42.1348607" lon="11.9479576"><ele>258.0</ele><time>2026-04-11T17:04:17.024Z</time></trkpt><trkpt lat="42.1347535" lon="11.9478755"><ele>258.0</ele><time>2026-04-11T17:04:18.024Z</time></trkpt><trkpt lat="42.1346487" lon="11.9477729"><ele>258.0</ele><time>2026-04-11T17:04:19.024Z</time></trkpt><trkpt lat="42.1345369" lon="11.9476524"><ele>258.0</ele><time>2026-04-11T17:04:20.024Z</time></trkpt><trkpt lat="42.1344324" lon="11.9475373"><ele>258.6666666666667</ele><time>2026-04-11T17:04:21.025Z</time></trkpt><trkpt lat="42.1343158" lon="11.9473996"><ele>259.33333333333337</ele><time>2026-04-11T17:04:22.025Z</time></trkpt><trkpt lat="42.1341714" lon="11.9473059"><ele>260.0</ele><time>2026-04-11T17:04:23.025Z</time></trkpt><trkpt lat="42.1340389" lon="11.9472596"><ele>260.0</ele><time>2026-04-11T17:04:24.024Z</time></trkpt><trkpt lat="42.1339159" lon="11.9472096"><ele>260.0</ele><time>2026-04-11T17:04:25.025Z</time></trkpt><trkpt lat="42.1337974" lon="11.9471388"><ele>260.0</ele><time>2026-04-11T17:04:26.024Z</time></trkpt><trkpt lat="42.1336743" lon="11.9470888"><ele>260.0</ele><time>2026-04-11T17:04:27.024Z</time></trkpt><trkpt lat="42.133555" lon="11.9470486"><ele>260.0</ele><time>2026-04-11T17:04:28.025Z</time></trkpt><trkpt lat="42.1334416" lon="11.9470258"><ele>260.0</ele><time>2026-04-11T17:04:29.025Z</time></trkpt><trkpt lat="42.1333186" lon="11.9470229"><ele>260.0</ele><time>2026-04-11T17:04:30.024Z</time></trkpt><trkpt lat="42.1332255" lon="11.947082"><ele>260.0</ele><time>2026-04-11T17:04:31.025Z</time></trkpt><trkpt lat="42.1331315" lon="11.9471573"><ele>259.5</ele><time>2026-04-11T17:04:32.024Z</time></trkpt><trkpt lat="42.1330366" lon="11.9472441"><ele>259.0</ele><time>2026-04-11T17:04:33.024Z</time></trkpt><trkpt lat="42.1329447" lon="11.9473775"><ele>258.5</ele><time>2026-04-11T17:04:34.025Z</time></trkpt><trkpt lat="42.1328581" lon="11.9475364"><ele>258.0</ele><time>2026-04-11T17:04:35.024Z</time></trkpt><trkpt lat="42.1327699" lon="11.9476988"><ele>256.5</ele><time>2026-04-11T17:04:36.024Z</time></trkpt><trkpt lat="42.1326717" lon="11.9478565"><ele>255.0</ele><time>2026-04-11T17:04:37.025Z</time></trkpt><trkpt lat="42.1325844" lon="11.9480159"><ele>253.5</ele><time>2026-04-11T17:04:38.025Z</time></trkpt><trkpt lat="42.1324985" lon="11.9481732"><ele>252.0</ele><time>2026-04-11T17:04:39.024Z</time></trkpt><trkpt lat="42.1324043" lon="11.9483417"><ele>250.66666666666669</ele><time>2026-04-11T17:04:40.024Z</time></trkpt><trkpt lat="42.1323089" lon="11.9485012"><ele>249.33333333333334</ele><time>2026-04-11T17:04:41.025Z</time></trkpt><trkpt lat="42.1322105" lon="11.9486546"><ele>248.0</ele><time>2026-04-11T17:04:42.025Z</time></trkpt><trkpt lat="42.1321067" lon="11.9487957"><ele>248.0</ele><time>2026-04-11T17:04:43.025Z</time></trkpt><trkpt lat="42.1319895" lon="11.9489395"><ele>248.0</ele><time>2026-04-11T17:04:44.024Z</time></trkpt><trkpt lat="42.131862" lon="11.9490776"><ele>248.0</ele><time>2026-04-11T17:04:45.024Z</time></trkpt><trkpt lat="42.1317311" lon="11.9492146"><ele>248.33333333333334</ele><time>2026-04-11T17:04:46.024Z</time></trkpt><trkpt lat="42.1315968" lon="11.9493575"><ele>248.66666666666669</ele><time>2026-04-11T17:04:47.024Z</time></trkpt><trkpt lat="42.1314613" lon="11.9494987"><ele>249.0</ele><time>2026-04-11T17:04:48.024Z</time></trkpt><trkpt lat="42.1313349" lon="11.9496386"><ele>249.33333333333331</ele><time>2026-04-11T17:04:49.025Z</time></trkpt><trkpt lat="42.1312176" lon="11.9497475"><ele>249.66666666666666</ele><time>2026-04-11T17:04:50.024Z</time></trkpt><trkpt lat="42.1310961" lon="11.9498834"><ele>250.0</ele><time>2026-04-11T17:04:51.025Z</time></trkpt><trkpt lat="42.1309747" lon="11.9500071"><ele>250.25</ele><time>2026-04-11T17:04:52.024Z</time></trkpt><trkpt lat="42.1308623" lon="11.9501229"><ele>250.5</ele><time>2026-04-11T17:04:53.025Z</time></trkpt><trkpt lat="42.1307628" lon="11.9502225"><ele>250.75</ele><time>2026-04-11T17:04:54.025Z</time></trkpt><trkpt lat="42.1306816" lon="11.950329"><ele>251.0</ele><time>2026-04-11T17:04:55.024Z</time></trkpt><trkpt lat="42.1306036" lon="11.9504439"><ele>252.5</ele><time>2026-04-11T17:04:56.024Z</time></trkpt><trkpt lat="42.1305409" lon="11.950576"><ele>254.0</ele><time>2026-04-11T17:04:57.024Z</time></trkpt><trkpt lat="42.1304853" lon="11.9507237"><ele>255.5</ele><time>2026-04-11T17:04:58.024Z</time></trkpt><trkpt lat="42.1304409" lon="11.950886"><ele>257.0</ele><time>2026-04-11T17:04:59.025Z</time></trkpt><trkpt lat="42.1304212" lon="11.951059"><ele>258.25</ele><time>2026-04-11T17:05:00.025Z</time></trkpt><trkpt lat="42.1304279" lon="11.9512443"><ele>259.5</ele><time>2026-04-11T17:05:01.025Z</time></trkpt><trkpt lat="42.1304542" lon="11.9514159"><ele>260.75</ele><time>2026-04-11T17:05:02.025Z</time></trkpt><trkpt lat="42.1304971" lon="11.9515861"><ele>262.0</ele><time>2026-04-11T17:05:03.025Z</time></trkpt><trkpt lat="42.1305379" lon="11.9517477"><ele>264.75</ele><time>2026-04-11T17:05:04.024Z</time></trkpt><trkpt lat="42.1305749" lon="11.951911"><ele>267.5</ele><time>2026-04-11T17:05:05.024Z</time></trkpt><trkpt lat="42.1306035" lon="11.9520736"><ele>270.25</ele><time>2026-04-11T17:05:06.025Z</time></trkpt><trkpt lat="42.1306064" lon="11.9522467"><ele>273.0</ele><time>2026-04-11T17:05:07.024Z</time></trkpt><trkpt lat="42.130598" lon="11.9524117"><ele>271.25</ele><time>2026-04-11T17:05:08.024Z</time></trkpt><trkpt lat="42.1305767" lon="11.9525709"><ele>269.5</ele><time>2026-04-11T17:05:09.025Z</time></trkpt><trkpt lat="42.1305398" lon="11.9527189"><ele>267.75</ele><time>2026-04-11T17:05:10.024Z</time></trkpt><trkpt lat="42.130482" lon="11.9528427"><ele>266.0</ele><time>2026-04-11T17:05:11.025Z</time></trkpt><trkpt lat="42.1304107" lon="11.9529558"><ele>266.0</ele><time>2026-04-11T17:05:12.024Z</time></trkpt><trkpt lat="42.130319" lon="11.9530641"><ele>266.0</ele><time>2026-04-11T17:05:13.024Z</time></trkpt><trkpt lat="42.1302185" lon="11.9531647"><ele>266.0</ele><time>2026-04-11T17:05:14.025Z</time></trkpt><trkpt lat="42.1301134" lon="11.9532604"><ele>266.0</ele><time>2026-04-11T17:05:15.024Z</time></trkpt><trkpt lat="42.130014" lon="11.953357"><ele>264.8</ele><time>2026-04-11T17:05:16.025Z</time></trkpt><trkpt lat="42.1299296" lon="11.9534554"><ele>263.6</ele><time>2026-04-11T17:05:17.025Z</time></trkpt><trkpt lat="42.1298585" lon="11.9535675"><ele>262.4</ele><time>2026-04-11T17:05:18.024Z</time></trkpt><trkpt lat="42.1298025" lon="11.9536952"><ele>261.2</ele><time>2026-04-11T17:05:19.024Z</time></trkpt><trkpt lat="42.1297706" lon="11.9538392"><ele>260.0</ele><time>2026-04-11T17:05:20.024Z</time></trkpt><trkpt lat="42.129752" lon="11.9539856"><ele>260.8</ele><time>2026-04-11T17:05:21.025Z</time></trkpt><trkpt lat="42.1297271" lon="11.9541188"><ele>261.6</ele><time>2026-04-11T17:05:22.025Z</time></trkpt><trkpt lat="42.1296893" lon="11.9542396"><ele>262.4</ele><time>2026-04-11T17:05:23.025Z</time></trkpt><trkpt lat="42.1296216" lon="11.9543402"><ele>263.2</ele><time>2026-04-11T17:05:24.025Z</time></trkpt><trkpt lat="42.1295398" lon="11.9544107"><ele>264.0</ele><time>2026-04-11T17:05:25.024Z</time></trkpt><trkpt lat="42.1294502" lon="11.9544677"><ele>264.0</ele><time>2026-04-11T17:05:26.025Z</time></trkpt><trkpt lat="42.1293541" lon="11.9545041"><ele>264.0</ele><time>2026-04-11T17:05:27.024Z</time></trkpt><trkpt lat="42.1292429" lon="11.954515"><ele>264.0</ele><time>2026-04-11T17:05:28.025Z</time></trkpt><trkpt lat="42.1291365" lon="11.9545077"><ele>264.0</ele><time>2026-04-11T17:05:29.024Z</time></trkpt><trkpt lat="42.1290162" lon="11.954489"><ele>264.0</ele><time>2026-04-11T17:05:30.025Z</time></trkpt><trkpt lat="42.1288869" lon="11.954463"><ele>264.75</ele><time>2026-04-11T17:05:31.025Z</time></trkpt><trkpt lat="42.1287468" lon="11.9544364"><ele>265.5</ele><time>2026-04-11T17:05:32.024Z</time></trkpt><trkpt lat="42.1286121" lon="11.954404"><ele>266.25</ele><time>2026-04-11T17:05:33.025Z</time></trkpt><trkpt lat="42.1284759" lon="11.9543723"><ele>267.0</ele><time>2026-04-11T17:05:34.025Z</time></trkpt><trkpt lat="42.1283373" lon="11.9543217"><ele>268.0</ele><time>2026-04-11T17:05:35.025Z</time></trkpt><trkpt lat="42.1282045" lon="11.9543124"><ele>269.0</ele><time>2026-04-11T17:05:36.025Z</time></trkpt><trkpt lat="42.1280772" lon="11.9543037"><ele>270.0</ele><time>2026-04-11T17:05:37.025Z</time></trkpt><trkpt lat="42.1279547" lon="11.9542739"><ele>271.0</ele><time>2026-04-11T17:05:38.025Z</time></trkpt><trkpt lat="42.1278049" lon="11.9542622"><ele>271.0</ele><time>2026-04-11T17:05:39.024Z</time></trkpt><trkpt lat="42.1276682" lon="11.9542897"><ele>271.0</ele><time>2026-04-11T17:05:40.025Z</time></trkpt><trkpt lat="42.1275513" lon="11.9543472"><ele>271.0</ele><time>2026-04-11T17:05:41.024Z</time></trkpt><trkpt lat="42.1274269" lon="11.9543709"><ele>271.0</ele><time>2026-04-11T17:05:42.025Z</time></trkpt><trkpt lat="42.1273052" lon="11.9543935"><ele>273.8</ele><time>2026-04-11T17:05:43.025Z</time></trkpt><trkpt lat="42.1271939" lon="11.9544063"><ele>276.6</ele><time>2026-04-11T17:05:44.025Z</time></trkpt><trkpt lat="42.1270846" lon="11.9544032"><ele>279.4</ele><time>2026-04-11T17:05:45.025Z</time></trkpt><trkpt lat="42.1269787" lon="11.954369"><ele>282.2</ele><time>2026-04-11T17:05:46.025Z</time></trkpt><trkpt lat="42.1268763" lon="11.9543485"><ele>285.0</ele><time>2026-04-11T17:05:47.025Z</time></trkpt><trkpt lat="42.1267747" lon="11.9543326"><ele>285.0</ele><time>2026-04-11T17:05:48.025Z</time></trkpt><trkpt lat="42.1266608" lon="11.9543447"><ele>285.0</ele><time>2026-04-11T17:05:49.025Z</time></trkpt><trkpt lat="42.1265464" lon="11.9543831"><ele>285.0</ele><time>2026-04-11T17:05:50.024Z</time></trkpt><trkpt lat="42.1264406" lon="11.9544386"><ele>285.0</ele><time>2026-04-11T17:05:51.024Z</time></trkpt><trkpt lat="42.1263384" lon="11.9545059"><ele>287.6</ele><time>2026-04-11T17:05:52.025Z</time></trkpt><trkpt lat="42.1262576" lon="11.9545919"><ele>290.2</ele><time>2026-04-11T17:05:53.025Z</time></trkpt><trkpt lat="42.1261819" lon="11.9546865"><ele>292.8</ele><time>2026-04-11T17:05:54.025Z</time></trkpt><trkpt lat="42.126136" lon="11.9547937"><ele>295.4</ele><time>2026-04-11T17:05:55.025Z</time></trkpt><trkpt lat="42.1261153" lon="11.9549256"><ele>298.0</ele><time>2026-04-11T17:05:56.025Z</time></trkpt><trkpt lat="42.1261124" lon="11.955079"><ele>298.0</ele><time>2026-04-11T17:05:57.024Z</time></trkpt><trkpt lat="42.1261378" lon="11.9552309"><ele>298.0</ele><time>2026-04-11T17:05:58.025Z</time></trkpt><trkpt lat="42.1261764" lon="11.9553879"><ele>298.0</ele><time>2026-04-11T17:05:59.025Z</time></trkpt><trkpt lat="42.1262029" lon="11.9555276"><ele>298.0</ele><time>2026-04-11T17:06:00.025Z</time></trkpt><trkpt lat="42.1262135" lon="11.9556471"><ele>298.0</ele><time>2026-04-11T17:06:01.025Z</time></trkpt><trkpt lat="42.1261991" lon="11.9557484"><ele>298.0</ele><time>2026-04-11T17:06:02.025Z</time></trkpt><trkpt lat="42.1261679" lon="11.9558555"><ele>298.0</ele><time>2026-04-11T17:06:03.025Z</time></trkpt><trkpt lat="42.126108" lon="11.955945"><ele>298.0</ele><time>2026-04-11T17:06:04.024Z</time></trkpt><trkpt lat="42.1260111" lon="11.9560399"><ele>298.0</ele><time>2026-04-11T17:06:05.024Z</time></trkpt><trkpt lat="42.1259034" lon="11.9561126"><ele>298.0</ele><time>2026-04-11T17:06:06.024Z</time></trkpt><trkpt lat="42.125785" lon="11.9561861"><ele>300.25</ele><time>2026-04-11T17:06:07.025Z</time></trkpt><trkpt lat="42.1256592" lon="11.9562537"><ele>302.5</ele><time>2026-04-11T17:06:08.024Z</time></trkpt><trkpt lat="42.1255284" lon="11.9563274"><ele>304.75</ele><time>2026-04-11T17:06:09.025Z</time></trkpt><trkpt lat="42.1254155" lon="11.9564219"><ele>307.0</ele><time>2026-04-11T17:06:10.024Z</time></trkpt><trkpt lat="42.1253279" lon="11.9565295"><ele>307.0</ele><time>2026-04-11T17:06:11.024Z</time></trkpt><trkpt lat="42.125231" lon="11.9566598"><ele>307.0</ele><time>2026-04-11T17:06:12.025Z</time></trkpt><trkpt lat="42.1251634" lon="11.9567688"><ele>307.0</ele><time>2026-04-11T17:06:13.024Z</time></trkpt><trkpt lat="42.125137" lon="11.9568565"><ele>307.0</ele><time>2026-04-11T17:06:14.025Z</time></trkpt><trkpt lat="42.1251336" lon="11.9570196"><ele>307.0</ele><time>2026-04-11T17:06:15.025Z</time></trkpt><trkpt lat="42.1251177" lon="11.9572015"><ele>306.6</ele><time>2026-04-11T17:06:16.025Z</time></trkpt><trkpt lat="42.1251223" lon="11.9573662"><ele>306.2</ele><time>2026-04-11T17:06:17.025Z</time></trkpt><trkpt lat="42.1251332" lon="11.9575014"><ele>305.8</ele><time>2026-04-11T17:06:18.025Z</time></trkpt><trkpt lat="42.1251489" lon="11.9576467"><ele>305.4</ele><time>2026-04-11T17:06:19.025Z</time></trkpt><trkpt lat="42.1251426" lon="11.9577751"><ele>305.0</ele><time>2026-04-11T17:06:20.024Z</time></trkpt><trkpt lat="42.1251329" lon="11.9579638"><ele>304.8</ele><time>2026-04-11T17:06:21.025Z</time></trkpt><trkpt lat="42.1250564" lon="11.9580235"><ele>304.6</ele><time>2026-04-11T17:06:22.025Z</time></trkpt><trkpt lat="42.1249702" lon="11.9581002"><ele>304.4</ele><time>2026-04-11T17:06:23.024Z</time></trkpt><trkpt lat="42.1248905" lon="11.9581904"><ele>304.2</ele><time>2026-04-11T17:06:24.025Z</time></trkpt><trkpt lat="42.1247842" lon="11.9582736"><ele>304.0</ele><time>2026-04-11T17:06:25.024Z</time></trkpt><trkpt lat="42.1246706" lon="11.958313"><ele>304.0</ele><time>2026-04-11T17:06:26.024Z</time></trkpt><trkpt lat="42.1245609" lon="11.958251"><ele>304.0</ele><time>2026-04-11T17:06:27.025Z</time></trkpt><trkpt lat="42.1244505" lon="11.9582263"><ele>304.0</ele><time>2026-04-11T17:06:28.025Z</time></trkpt><trkpt lat="42.1243181" lon="11.9582017"><ele>304.0</ele><time>2026-04-11T17:06:29.025Z</time></trkpt><trkpt lat="42.1242129" lon="11.9581612"><ele>304.0</ele><time>2026-04-11T17:06:30.025Z</time></trkpt><trkpt lat="42.1240833" lon="11.958126"><ele>304.0</ele><time>2026-04-11T17:06:31.025Z</time></trkpt><trkpt lat="42.1239476" lon="11.9581353"><ele>304.0</ele><time>2026-04-11T17:06:32.025Z</time></trkpt><trkpt lat="42.1238128" lon="11.9581489"><ele>304.0</ele><time>2026-04-11T17:06:33.024Z</time></trkpt><trkpt lat="42.1236906" lon="11.9581512"><ele>303.8</ele><time>2026-04-11T17:06:34.025Z</time></trkpt><trkpt lat="42.1235726" lon="11.9581688"><ele>303.59999999999997</ele><time>2026-04-11T17:06:35.024Z</time></trkpt><trkpt lat="42.1234692" lon="11.9581669"><ele>303.4</ele><time>2026-04-11T17:06:36.025Z</time></trkpt><trkpt lat="42.1233834" lon="11.9581483"><ele>303.2</ele><time>2026-04-11T17:06:37.024Z</time></trkpt><trkpt lat="42.1233039" lon="11.9580883"><ele>303.0</ele><time>2026-04-11T17:06:38.025Z</time></trkpt><trkpt lat="42.1232328" lon="11.9580022"><ele>301.75</ele><time>2026-04-11T17:06:39.025Z</time></trkpt><trkpt lat="42.1231597" lon="11.9578935"><ele>300.5</ele><time>2026-04-11T17:06:40.025Z</time></trkpt><trkpt lat="42.1230683" lon="11.9577802"><ele>299.25</ele><time>2026-04-11T17:06:41.025Z</time></trkpt><trkpt lat="42.1229694" lon="11.9576485"><ele>298.0</ele><time>2026-04-11T17:06:42.025Z</time></trkpt><trkpt lat="42.1228881" lon="11.9575222"><ele>300.75</ele><time>2026-04-11T17:06:43.025Z</time></trkpt><trkpt lat="42.1227841" lon="11.9574066"><ele>303.5</ele><time>2026-04-11T17:06:44.025Z</time></trkpt><trkpt lat="42.1226838" lon="11.9572892"><ele>306.25</ele><time>2026-04-11T17:06:45.024Z</time></trkpt><trkpt lat="42.1225783" lon="11.9572076"><ele>309.0</ele><time>2026-04-11T17:06:46.025Z</time></trkpt><trkpt lat="42.1224914" lon="11.9571067"><ele>309.0</ele><time>2026-04-11T17:06:47.024Z</time></trkpt><trkpt lat="42.1224032" lon="11.957002"><ele>309.0</ele><time>2026-04-11T17:06:48.025Z</time></trkpt><trkpt lat="42.1223004" lon="11.9568911"><ele>309.0</ele><time>2026-04-11T17:06:49.024Z</time></trkpt><trkpt lat="42.1221996" lon="11.9567739"><ele>309.0</ele><time>2026-04-11T17:06:50.025Z</time></trkpt><trkpt lat="42.1220957" lon="11.9566648"><ele>310.5</ele><time>2026-04-11T17:06:51.025Z</time></trkpt><trkpt lat="42.1219994" lon="11.9565509"><ele>312.0</ele><time>2026-04-11T17:06:52.024Z</time></trkpt><trkpt lat="42.1219065" lon="11.9564471"><ele>313.5</ele><time>2026-04-11T17:06:53.025Z</time></trkpt><trkpt lat="42.1218227" lon="11.956356"><ele>315.0</ele><time>2026-04-11T17:06:54.024Z</time></trkpt><trkpt lat="42.1217432" lon="11.9562858"><ele>315.0</ele><time>2026-04-11T17:06:55.025Z</time></trkpt><trkpt lat="42.1216612" lon="11.9562359"><ele>315.0</ele><time>2026-04-11T17:06:56.025Z</time></trkpt><trkpt lat="42.1215696" lon="11.9562142"><ele>315.0</ele><time>2026-04-11T17:06:57.025Z</time></trkpt><trkpt lat="42.1214659" lon="11.9562316"><ele>315.0</ele><time>2026-04-11T17:06:58.025Z</time></trkpt><trkpt lat="42.1213602" lon="11.9562872"><ele>315.0</ele><time>2026-04-11T17:06:59.025Z</time></trkpt><trkpt lat="42.121251" lon="11.956347"><ele>316.25</ele><time>2026-04-11T17:07:00.024Z</time></trkpt><trkpt lat="42.1211457" lon="11.9564318"><ele>317.5</ele><time>2026-04-11T17:07:01.025Z</time></trkpt><trkpt lat="42.1210481" lon="11.9565359"><ele>318.75</ele><time>2026-04-11T17:07:02.025Z</time></trkpt><trkpt lat="42.1209509" lon="11.9566564"><ele>320.0</ele><time>2026-04-11T17:07:03.025Z</time></trkpt><trkpt lat="42.1208577" lon="11.9567711"><ele>320.0</ele><time>2026-04-11T17:07:04.025Z</time></trkpt><trkpt lat="42.12077" lon="11.9569045"><ele>320.0</ele><time>2026-04-11T17:07:05.025Z</time></trkpt><trkpt lat="42.1206872" lon="11.95703"><ele>320.0</ele><time>2026-04-11T17:07:06.024Z</time></trkpt><trkpt lat="42.1206072" lon="11.9571419"><ele>320.0</ele><time>2026-04-11T17:07:07.025Z</time></trkpt><trkpt lat="42.1205335" lon="11.9572502"><ele>323.75</ele><time>2026-04-11T17:07:08.024Z</time></trkpt><trkpt lat="42.1204706" lon="11.9573669"><ele>327.5</ele><time>2026-04-11T17:07:09.025Z</time></trkpt><trkpt lat="42.1204315" lon="11.9574984"><ele>331.25</ele><time>2026-04-11T17:07:10.024Z</time></trkpt><trkpt lat="42.1203965" lon="11.9576465"><ele>335.0</ele><time>2026-04-11T17:07:11.024Z</time></trkpt><trkpt lat="42.1203786" lon="11.9578226"><ele>335.0</ele><time>2026-04-11T17:07:12.025Z</time></trkpt><trkpt lat="42.1203804" lon="11.9580026"><ele>335.0</ele><time>2026-04-11T17:07:13.025Z</time></trkpt><trkpt lat="42.1203801" lon="11.9581854"><ele>335.0</ele><time>2026-04-11T17:07:14.025Z</time></trkpt><trkpt lat="42.1203833" lon="11.9583441"><ele>335.0</ele><time>2026-04-11T17:07:15.025Z</time></trkpt><trkpt lat="42.1203922" lon="11.9584728"><ele>336.2</ele><time>2026-04-11T17:07:16.025Z</time></trkpt><trkpt lat="42.120418" lon="11.9586009"><ele>337.4</ele><time>2026-04-11T17:07:17.025Z</time></trkpt><trkpt lat="42.1204552" lon="11.9587266"><ele>338.6</ele><time>2026-04-11T17:07:18.025Z</time></trkpt><trkpt lat="42.1205021" lon="11.9588691"><ele>339.8</ele><time>2026-04-11T17:07:19.025Z</time></trkpt><trkpt lat="42.1205646" lon="11.958997"><ele>341.0</ele><time>2026-04-11T17:07:20.024Z</time></trkpt><trkpt lat="42.1206467" lon="11.9591249"><ele>334.5</ele><time>2026-04-11T17:07:21.024Z</time></trkpt><trkpt lat="42.120733" lon="11.9592129"><ele>328.0</ele><time>2026-04-11T17:07:22.025Z</time></trkpt><trkpt lat="42.1208196" lon="11.9593124"><ele>321.5</ele><time>2026-04-11T17:07:23.024Z</time></trkpt><trkpt lat="42.1209525" lon="11.9593783"><ele>315.0</ele><time>2026-04-11T17:07:24.024Z</time></trkpt><trkpt lat="42.1209691" lon="11.9595495"><ele>315.0</ele><time>2026-04-11T17:07:25.025Z</time></trkpt><trkpt lat="42.1209265" lon="11.9596792"><ele>315.0</ele><time>2026-04-11T17:07:26.024Z</time></trkpt><trkpt lat="42.1207954" lon="11.9599754"><ele>315.0</ele><time>2026-04-11T17:07:27.024Z</time></trkpt><trkpt lat="42.1207366" lon="11.9601372"><ele>319.75</ele><time>2026-04-11T17:07:28.025Z</time></trkpt><trkpt lat="42.120708" lon="11.9603348"><ele>324.5</ele><time>2026-04-11T17:07:29.024Z</time></trkpt><trkpt lat="42.1206369" lon="11.9604204"><ele>329.25</ele><time>2026-04-11T17:07:30.024Z</time></trkpt><trkpt lat="42.1205177" lon="11.9605764"><ele>334.0</ele><time>2026-04-11T17:07:31.025Z</time></trkpt><trkpt lat="42.1205131" lon="11.9607079"><ele>334.0</ele><time>2026-04-11T17:07:33.025Z</time></trkpt><trkpt lat="42.1205247" lon="11.9608045"><ele>334.0</ele><time>2026-04-11T17:07:34.025Z</time></trkpt><trkpt lat="42.1205371" lon="11.960947"><ele>334.0</ele><time>2026-04-11T17:07:35.025Z</time></trkpt><trkpt lat="42.1204983" lon="11.9610599"><ele>334.0</ele><time>2026-04-11T17:07:36.025Z</time></trkpt><trkpt lat="42.1204444" lon="11.9611275"><ele>334.0</ele><time>2026-04-11T17:07:37.024Z</time></trkpt><trkpt lat="42.1203496" lon="11.9611477"><ele>334.0</ele><time>2026-04-11T17:07:38.024Z</time></trkpt><trkpt lat="42.1202514" lon="11.9611197"><ele>332.6</ele><time>2026-04-11T17:07:39.024Z</time></trkpt><trkpt lat="42.1201527" lon="11.9611337"><ele>331.2</ele><time>2026-04-11T17:07:40.024Z</time></trkpt><trkpt lat="42.1200954" lon="11.9612195"><ele>329.8</ele><time>2026-04-11T17:07:41.025Z</time></trkpt><trkpt lat="42.1200296" lon="11.9612553"><ele>328.40000000000003</ele><time>2026-04-11T17:07:42.024Z</time></trkpt><trkpt lat="42.1199771" lon="11.9614005"><ele>327.0</ele><time>2026-04-11T17:07:44.025Z</time></trkpt><trkpt lat="42.1199718" lon="11.961544"><ele>327.0</ele><time>2026-04-11T17:07:45.025Z</time></trkpt><trkpt lat="42.119998" lon="11.9616869"><ele>327.0</ele><time>2026-04-11T17:07:46.024Z</time></trkpt><trkpt lat="42.1200465" lon="11.9618039"><ele>327.0</ele><time>2026-04-11T17:07:47.024Z</time></trkpt><trkpt lat="42.1200746" lon="11.9619291"><ele>327.0</ele><time>2026-04-11T17:07:48.025Z</time></trkpt><trkpt lat="42.1200963" lon="11.9620872"><ele>327.0</ele><time>2026-04-11T17:07:49.024Z</time></trkpt><trkpt lat="42.1200971" lon="11.9622144"><ele>326.40000000000003</ele><time>2026-04-11T17:07:50.025Z</time></trkpt><trkpt lat="42.1200691" lon="11.9623146"><ele>325.8</ele><time>2026-04-11T17:07:51.025Z</time></trkpt><trkpt lat="42.120018" lon="11.9623811"><ele>325.2</ele><time>2026-04-11T17:07:52.025Z</time></trkpt><trkpt lat="42.1199029" lon="11.9624787"><ele>324.6</ele><time>2026-04-11T17:07:53.025Z</time></trkpt><trkpt lat="42.1197951" lon="11.9625532"><ele>324.0</ele><time>2026-04-11T17:07:54.024Z</time></trkpt><trkpt lat="42.1196992" lon="11.9626342"><ele>328.25</ele><time>2026-04-11T17:07:55.025Z</time></trkpt><trkpt lat="42.1196174" lon="11.9627198"><ele>332.5</ele><time>2026-04-11T17:07:56.025Z</time></trkpt><trkpt lat="42.1195423" lon="11.9628068"><ele>336.75</ele><time>2026-04-11T17:07:57.025Z</time></trkpt><trkpt lat="42.119462" lon="11.9629589"><ele>341.0</ele><time>2026-04-11T17:07:58.025Z</time></trkpt><trkpt lat="42.1194298" lon="11.9631318"><ele>341.0</ele><time>2026-04-11T17:07:59.025Z</time></trkpt><trkpt lat="42.1194177" lon="11.9632714"><ele>341.0</ele><time>2026-04-11T17:08:00.024Z</time></trkpt><trkpt lat="42.1194177" lon="11.9634353"><ele>341.0</ele><time>2026-04-11T17:08:01.025Z</time></trkpt><trkpt lat="42.1194814" lon="11.9636702"><ele>341.0</ele><time>2026-04-11T17:08:02.025Z</time></trkpt><trkpt lat="42.1195502" lon="11.9638918"><ele>343.33333333333337</ele><time>2026-04-11T17:08:03.024Z</time></trkpt><trkpt lat="42.1196596" lon="11.9640621"><ele>345.6666666666667</ele><time>2026-04-11T17:08:04.025Z</time></trkpt><trkpt lat="42.1197759" lon="11.9642138"><ele>348.0</ele><time>2026-04-11T17:08:05.025Z</time></trkpt><trkpt lat="42.1198069" lon="11.9644234"><ele>346.3333333333333</ele><time>2026-04-11T17:08:06.025Z</time></trkpt><trkpt lat="42.1198202" lon="11.9647294"><ele>344.66666666666663</ele><time>2026-04-11T17:08:07.024Z</time></trkpt><trkpt lat="42.1199018" lon="11.9649096"><ele>343.0</ele><time>2026-04-11T17:08:08.025Z</time></trkpt><trkpt lat="42.1199723" lon="11.9650874"><ele>345.4</ele><time>2026-04-11T17:08:09.024Z</time></trkpt><trkpt lat="42.1200377" lon="11.965203"><ele>347.79999999999995</ele><time>2026-04-11T17:08:10.025Z</time></trkpt><trkpt lat="42.1201094" lon="11.9653053"><ele>350.2</ele><time>2026-04-11T17:08:11.025Z</time></trkpt><trkpt lat="42.1201466" lon="11.9654703"><ele>352.6</ele><time>2026-04-11T17:08:14.025Z</time></trkpt><trkpt lat="42.1201507" lon="11.9655805"><ele>355.0</ele><time>2026-04-11T17:08:15.025Z</time></trkpt><trkpt lat="42.1201464" lon="11.9656982"><ele>355.0</ele><time>2026-04-11T17:08:16.025Z</time></trkpt><trkpt lat="42.1201609" lon="11.9658181"><ele>355.0</ele><time>2026-04-11T17:08:17.024Z</time></trkpt><trkpt lat="42.1201968" lon="11.9659315"><ele>355.0</ele><time>2026-04-11T17:08:18.024Z</time></trkpt><trkpt lat="42.1202369" lon="11.9660539"><ele>355.0</ele><time>2026-04-11T17:08:19.025Z</time></trkpt><trkpt lat="42.1202848" lon="11.9661785"><ele>355.0</ele><time>2026-04-11T17:08:20.024Z</time></trkpt><trkpt lat="42.120363" lon="11.966297"><ele>358.0</ele><time>2026-04-11T17:08:21.024Z</time></trkpt><trkpt lat="42.1204523" lon="11.9663992"><ele>361.0</ele><time>2026-04-11T17:08:22.025Z</time></trkpt><trkpt lat="42.120536" lon="11.9665618"><ele>364.0</ele><time>2026-04-11T17:08:23.025Z</time></trkpt><trkpt lat="42.1206139" lon="11.9667202"><ele>367.0</ele><time>2026-04-11T17:08:24.025Z</time></trkpt><trkpt lat="42.1206814" lon="11.9668626"><ele>368.20000000000005</ele><time>2026-04-11T17:08:25.025Z</time></trkpt><trkpt lat="42.1207317" lon="11.9669852"><ele>369.4</ele><time>2026-04-11T17:08:26.025Z</time></trkpt><trkpt lat="42.1207812" lon="11.9671153"><ele>370.6</ele><time>2026-04-11T17:08:27.024Z</time></trkpt><trkpt lat="42.1208019" lon="11.9672511"><ele>371.79999999999995</ele><time>2026-04-11T17:08:28.024Z</time></trkpt><trkpt lat="42.1208024" lon="11.9673994"><ele>373.0</ele><time>2026-04-11T17:08:29.024Z</time></trkpt><trkpt lat="42.1208036" lon="11.9675592"><ele>366.25</ele><time>2026-04-11T17:08:30.025Z</time></trkpt><trkpt lat="42.1208074" lon="11.967723"><ele>359.5</ele><time>2026-04-11T17:08:31.024Z</time></trkpt><trkpt lat="42.12082" lon="11.9678729"><ele>352.75</ele><time>2026-04-11T17:08:32.024Z</time></trkpt><trkpt lat="42.1208285" lon="11.9680253"><ele>346.0</ele><time>2026-04-11T17:08:33.025Z</time></trkpt><trkpt lat="42.1208477" lon="11.9681735"><ele>346.0</ele><time>2026-04-11T17:08:34.025Z</time></trkpt><trkpt lat="42.1208298" lon="11.9683222"><ele>346.0</ele><time>2026-04-11T17:08:35.024Z</time></trkpt><trkpt lat="42.120784" lon="11.9684385"><ele>346.0</ele><time>2026-04-11T17:08:36.025Z</time></trkpt><trkpt lat="42.1207342" lon="11.9685537"><ele>346.0</ele><time>2026-04-11T17:08:37.025Z</time></trkpt><trkpt lat="42.1206712" lon="11.9686583"><ele>346.0</ele><time>2026-04-11T17:08:38.024Z</time></trkpt><trkpt lat="42.1205826" lon="11.9687556"><ele>347.0</ele><time>2026-04-11T17:08:39.024Z</time></trkpt><trkpt lat="42.1204676" lon="11.9688545"><ele>348.0</ele><time>2026-04-11T17:08:40.024Z</time></trkpt><trkpt lat="42.1203609" lon="11.968971"><ele>349.0</ele><time>2026-04-11T17:08:41.025Z</time></trkpt><trkpt lat="42.120251" lon="11.9690831"><ele>350.0</ele><time>2026-04-11T17:08:42.024Z</time></trkpt><trkpt lat="42.1201063" lon="11.9691791"><ele>349.33333333333337</ele><time>2026-04-11T17:08:43.025Z</time></trkpt><trkpt lat="42.1199782" lon="11.9693042"><ele>348.6666666666667</ele><time>2026-04-11T17:08:44.025Z</time></trkpt><trkpt lat="42.1198682" lon="11.9694201"><ele>348.0</ele><time>2026-04-11T17:08:45.025Z</time></trkpt><trkpt lat="42.1197526" lon="11.969556"><ele>348.0</ele><time>2026-04-11T17:08:46.025Z</time></trkpt><trkpt lat="42.1196693" lon="11.9696942"><ele>348.0</ele><time>2026-04-11T17:08:47.025Z</time></trkpt><trkpt lat="42.1195853" lon="11.9698303"><ele>348.0</ele><time>2026-04-11T17:08:48.025Z</time></trkpt><trkpt lat="42.1194946" lon="11.9699819"><ele>348.0</ele><time>2026-04-11T17:08:49.025Z</time></trkpt><trkpt lat="42.1194143" lon="11.970148"><ele>346.0</ele><time>2026-04-11T17:08:50.025Z</time></trkpt><trkpt lat="42.1193421" lon="11.9703145"><ele>344.0</ele><time>2026-04-11T17:08:51.025Z</time></trkpt><trkpt lat="42.1192804" lon="11.9704929"><ele>342.0</ele><time>2026-04-11T17:08:52.025Z</time></trkpt><trkpt lat="42.1192499" lon="11.9706407"><ele>340.0</ele><time>2026-04-11T17:08:53.025Z</time></trkpt><trkpt lat="42.119189" lon="11.9707746"><ele>339.75</ele><time>2026-04-11T17:08:54.024Z</time></trkpt><trkpt lat="42.1191187" lon="11.9708957"><ele>339.5</ele><time>2026-04-11T17:08:55.025Z</time></trkpt><trkpt lat="42.1190179" lon="11.9709562"><ele>339.25</ele><time>2026-04-11T17:08:56.024Z</time></trkpt><trkpt lat="42.1189137" lon="11.9710396"><ele>339.0</ele><time>2026-04-11T17:08:57.024Z</time></trkpt><trkpt lat="42.1188012" lon="11.9711356"><ele>339.0</ele><time>2026-04-11T17:08:58.025Z</time></trkpt><trkpt lat="42.1186782" lon="11.9711981"><ele>339.0</ele><time>2026-04-11T17:08:59.024Z</time></trkpt><trkpt lat="42.1185506" lon="11.9712318"><ele>339.0</ele><time>2026-04-11T17:09:00.025Z</time></trkpt><trkpt lat="42.1184218" lon="11.9712665"><ele>339.0</ele><time>2026-04-11T17:09:01.024Z</time></trkpt><trkpt lat="42.1182732" lon="11.971317"><ele>342.75</ele><time>2026-04-11T17:09:02.025Z</time></trkpt><trkpt lat="42.1181264" lon="11.9713056"><ele>346.5</ele><time>2026-04-11T17:09:03.025Z</time></trkpt><trkpt lat="42.1180175" lon="11.9713703"><ele>350.25</ele><time>2026-04-11T17:09:04.025Z</time></trkpt><trkpt lat="42.1179144" lon="11.971461"><ele>354.0</ele><time>2026-04-11T17:09:05.025Z</time></trkpt><trkpt lat="42.1178087" lon="11.9715753"><ele>353.25</ele><time>2026-04-11T17:09:06.024Z</time></trkpt><trkpt lat="42.1176845" lon="11.9717441"><ele>352.5</ele><time>2026-04-11T17:09:07.024Z</time></trkpt><trkpt lat="42.1175846" lon="11.971869"><ele>351.75</ele><time>2026-04-11T17:09:08.025Z</time></trkpt><trkpt lat="42.1174741" lon="11.9719719"><ele>351.0</ele><time>2026-04-11T17:09:09.024Z</time></trkpt><trkpt lat="42.1173643" lon="11.9720811"><ele>351.0</ele><time>2026-04-11T17:09:10.024Z</time></trkpt><trkpt lat="42.1172432" lon="11.9721989"><ele>351.0</ele><time>2026-04-11T17:09:11.025Z</time></trkpt><trkpt lat="42.1171208" lon="11.9723117"><ele>351.0</ele><time>2026-04-11T17:09:12.025Z</time></trkpt><trkpt lat="42.1169978" lon="11.9724163"><ele>351.0</ele><time>2026-04-11T17:09:13.025Z</time></trkpt><trkpt lat="42.1168794" lon="11.9725253"><ele>351.25</ele><time>2026-04-11T17:09:14.024Z</time></trkpt><trkpt lat="42.1167651" lon="11.9726289"><ele>351.5</ele><time>2026-04-11T17:09:15.025Z</time></trkpt><trkpt lat="42.1166574" lon="11.9727239"><ele>351.75</ele><time>2026-04-11T17:09:16.025Z</time></trkpt><trkpt lat="42.1165532" lon="11.9728126"><ele>352.0</ele><time>2026-04-11T17:09:17.025Z</time></trkpt><trkpt lat="42.1164575" lon="11.9729084"><ele>352.0</ele><time>2026-04-11T17:09:18.024Z</time></trkpt><trkpt lat="42.1163765" lon="11.9730238"><ele>352.0</ele><time>2026-04-11T17:09:19.024Z</time></trkpt><trkpt lat="42.1162965" lon="11.9731593"><ele>352.0</ele><time>2026-04-11T17:09:20.025Z</time></trkpt><trkpt lat="42.1162309" lon="11.973304"><ele>352.0</ele><time>2026-04-11T17:09:21.024Z</time></trkpt><trkpt lat="42.1161705" lon="11.9734636"><ele>350.75</ele><time>2026-04-11T17:09:22.025Z</time></trkpt><trkpt lat="42.1161112" lon="11.9736158"><ele>349.5</ele><time>2026-04-11T17:09:23.025Z</time></trkpt><trkpt lat="42.1160517" lon="11.9737619"><ele>348.25</ele><time>2026-04-11T17:09:24.025Z</time></trkpt><trkpt lat="42.11598" lon="11.9738978"><ele>347.0</ele><time>2026-04-11T17:09:25.025Z</time></trkpt><trkpt lat="42.1158937" lon="11.9740122"><ele>347.0</ele><time>2026-04-11T17:09:26.025Z</time></trkpt><trkpt lat="42.1157987" lon="11.9741274"><ele>347.0</ele><time>2026-04-11T17:09:27.025Z</time></trkpt><trkpt lat="42.1156989" lon="11.974257"><ele>347.0</ele><time>2026-04-11T17:09:28.025Z</time></trkpt><trkpt lat="42.1156059" lon="11.9743868"><ele>347.0</ele><time>2026-04-11T17:09:29.024Z</time></trkpt><trkpt lat="42.115526" lon="11.9745033"><ele>346.8571428571429</ele><time>2026-04-11T17:09:30.025Z</time></trkpt><trkpt lat="42.1154707" lon="11.9745918"><ele>346.71428571428567</ele><time>2026-04-11T17:09:31.025Z</time></trkpt><trkpt lat="42.1154184" lon="11.9746822"><ele>346.57142857142856</ele><time>2026-04-11T17:09:33.024Z</time></trkpt><trkpt lat="42.1154365" lon="11.9747663"><ele>346.42857142857144</ele><time>2026-04-11T17:09:35.024Z</time></trkpt><trkpt lat="42.1154369" lon="11.9748538"><ele>346.28571428571433</ele><time>2026-04-11T17:09:36.025Z</time></trkpt><trkpt lat="42.1154501" lon="11.9749452"><ele>346.1428571428571</ele><time>2026-04-11T17:09:37.024Z</time></trkpt><trkpt lat="42.1154694" lon="11.9750412"><ele>346.0</ele><time>2026-04-11T17:09:38.024Z</time></trkpt><trkpt lat="42.1154953" lon="11.9751569"><ele>346.0</ele><time>2026-04-11T17:09:39.025Z</time></trkpt><trkpt lat="42.1155114" lon="11.9752765"><ele>346.0</ele><time>2026-04-11T17:09:40.025Z</time></trkpt><trkpt lat="42.1155305" lon="11.9753868"><ele>346.0</ele><time>2026-04-11T17:09:41.024Z</time></trkpt><trkpt lat="42.1155445" lon="11.9755064"><ele>346.0</ele><time>2026-04-11T17:09:42.024Z</time></trkpt><trkpt lat="42.1155611" lon="11.9756447"><ele>346.0</ele><time>2026-04-11T17:09:43.024Z</time></trkpt><trkpt lat="42.1155868" lon="11.9757505"><ele>344.4</ele><time>2026-04-11T17:09:44.024Z</time></trkpt><trkpt lat="42.1155916" lon="11.9758606"><ele>342.8</ele><time>2026-04-11T17:09:45.025Z</time></trkpt><trkpt lat="42.1155731" lon="11.9759867"><ele>341.2</ele><time>2026-04-11T17:09:46.025Z</time></trkpt><trkpt lat="42.1155434" lon="11.9761039"><ele>339.59999999999997</ele><time>2026-04-11T17:09:47.024Z</time></trkpt><trkpt lat="42.1155033" lon="11.9762132"><ele>338.0</ele><time>2026-04-11T17:09:48.024Z</time></trkpt><trkpt lat="42.1154496" lon="11.9763303"><ele>338.0</ele><time>2026-04-11T17:09:49.024Z</time></trkpt><trkpt lat="42.1153866" lon="11.9764622"><ele>338.0</ele><time>2026-04-11T17:09:50.025Z</time></trkpt><trkpt lat="42.115318" lon="11.9765993"><ele>338.0</ele><time>2026-04-11T17:09:51.025Z</time></trkpt><trkpt lat="42.1152405" lon="11.9767408"><ele>338.0</ele><time>2026-04-11T17:09:52.025Z</time></trkpt><trkpt lat="42.1151601" lon="11.9768916"><ele>336.5</ele><time>2026-04-11T17:09:53.025Z</time></trkpt><trkpt lat="42.1150809" lon="11.9770433"><ele>335.0</ele><time>2026-04-11T17:09:54.023Z</time></trkpt><trkpt lat="42.1149993" lon="11.9772044"><ele>333.5</ele><time>2026-04-11T17:09:55.023Z</time></trkpt><trkpt lat="42.1149139" lon="11.9773673"><ele>332.0</ele><time>2026-04-11T17:09:56.023Z</time></trkpt><trkpt lat="42.1148269" lon="11.9775283"><ele>331.25</ele><time>2026-04-11T17:09:57.024Z</time></trkpt><trkpt lat="42.1147543" lon="11.9776615"><ele>330.5</ele><time>2026-04-11T17:09:58.023Z</time></trkpt><trkpt lat="42.114674" lon="11.9778312"><ele>329.75</ele><time>2026-04-11T17:09:59.024Z</time></trkpt><trkpt lat="42.1145821" lon="11.9779998"><ele>329.0</ele><time>2026-04-11T17:10:00.024Z</time></trkpt><trkpt lat="42.114498" lon="11.9781549"><ele>329.0</ele><time>2026-04-11T17:10:01.023Z</time></trkpt><trkpt lat="42.1144183" lon="11.9783088"><ele>329.0</ele><time>2026-04-11T17:10:02.024Z</time></trkpt><trkpt lat="42.1143464" lon="11.9784379"><ele>329.0</ele><time>2026-04-11T17:10:03.023Z</time></trkpt><trkpt lat="42.1142825" lon="11.9785668"><ele>329.0</ele><time>2026-04-11T17:10:04.024Z</time></trkpt><trkpt lat="42.1142187" lon="11.9786859"><ele>328.0</ele><time>2026-04-11T17:10:05.024Z</time></trkpt><trkpt lat="42.1141516" lon="11.9788054"><ele>327.0</ele><time>2026-04-11T17:10:06.024Z</time></trkpt><trkpt lat="42.1140797" lon="11.9789195"><ele>326.0</ele><time>2026-04-11T17:10:07.024Z</time></trkpt><trkpt lat="42.1140234" lon="11.9790286"><ele>325.0</ele><time>2026-04-11T17:10:08.024Z</time></trkpt><trkpt lat="42.1139783" lon="11.9791462"><ele>324.0</ele><time>2026-04-11T17:10:09.024Z</time></trkpt><trkpt lat="42.1139399" lon="11.9792744"><ele>327.2</ele><time>2026-04-11T17:10:10.023Z</time></trkpt><trkpt lat="42.1139154" lon="11.9794119"><ele>330.4</ele><time>2026-04-11T17:10:11.024Z</time></trkpt><trkpt lat="42.1139005" lon="11.9795485"><ele>333.6</ele><time>2026-04-11T17:10:12.023Z</time></trkpt><trkpt lat="42.113902" lon="11.9796859"><ele>336.8</ele><time>2026-04-11T17:10:13.024Z</time></trkpt><trkpt lat="42.1139147" lon="11.9798344"><ele>340.0</ele><time>2026-04-11T17:10:14.023Z</time></trkpt><trkpt lat="42.1139389" lon="11.9799827"><ele>340.0</ele><time>2026-04-11T17:10:15.024Z</time></trkpt><trkpt lat="42.1139725" lon="11.9801293"><ele>340.0</ele><time>2026-04-11T17:10:16.023Z</time></trkpt><trkpt lat="42.1140034" lon="11.9802793"><ele>340.0</ele><time>2026-04-11T17:10:17.024Z</time></trkpt><trkpt lat="42.114031" lon="11.9804202"><ele>340.0</ele><time>2026-04-11T17:10:18.024Z</time></trkpt><trkpt lat="42.1140617" lon="11.9805386"><ele>340.0</ele><time>2026-04-11T17:10:19.023Z</time></trkpt><trkpt lat="42.114077" lon="11.9806605"><ele>340.0</ele><time>2026-04-11T17:10:20.024Z</time></trkpt><trkpt lat="42.1140676" lon="11.9807997"><ele>340.0</ele><time>2026-04-11T17:10:21.024Z</time></trkpt><trkpt lat="42.1140432" lon="11.9809362"><ele>340.0</ele><time>2026-04-11T17:10:22.023Z</time></trkpt><trkpt lat="42.1139982" lon="11.9810755"><ele>340.0</ele><time>2026-04-11T17:10:23.024Z</time></trkpt><trkpt lat="42.1139374" lon="11.9812066"><ele>340.0</ele><time>2026-04-11T17:10:24.023Z</time></trkpt><trkpt lat="42.1138799" lon="11.9813306"><ele>339.16666666666663</ele><time>2026-04-11T17:10:25.024Z</time></trkpt><trkpt lat="42.1138381" lon="11.9814216"><ele>338.3333333333333</ele><time>2026-04-11T17:10:26.024Z</time></trkpt><trkpt lat="42.113807" lon="11.9815036"><ele>337.5</ele><time>2026-04-11T17:10:28.024Z</time></trkpt><trkpt lat="42.1138593" lon="11.9815867"><ele>336.6666666666667</ele><time>2026-04-11T17:10:32.024Z</time></trkpt><trkpt lat="42.1139552" lon="11.9816019"><ele>335.83333333333337</ele><time>2026-04-11T17:10:35.024Z</time></trkpt><trkpt lat="42.1140435" lon="11.9815345"><ele>335.0</ele><time>2026-04-11T17:10:37.024Z</time></trkpt><trkpt lat="42.1141302" lon="11.981448"><ele>332.6666666666667</ele><time>2026-04-11T17:10:39.024Z</time></trkpt><trkpt lat="42.1142272" lon="11.9813313"><ele>330.33333333333337</ele><time>2026-04-11T17:10:41.023Z</time></trkpt><trkpt lat="42.114277" lon="11.9812636"><ele>328.0</ele><time>2026-04-11T17:10:42.024Z</time></trkpt><trkpt lat="42.1143329" lon="11.9812076"><ele>325.6666666666667</ele><time>2026-04-11T17:10:43.023Z</time></trkpt><trkpt lat="42.1143896" lon="11.9811228"><ele>323.3333333333333</ele><time>2026-04-11T17:10:44.023Z</time></trkpt><trkpt lat="42.1144441" lon="11.9810704"><ele>321.0</ele><time>2026-04-11T17:10:45.024Z</time></trkpt><trkpt lat="42.1145412" lon="11.981017"><ele>321.0</ele><time>2026-04-11T17:10:46.023Z</time></trkpt><trkpt lat="42.1148193" lon="11.9809791"><ele>321.0</ele><time>2026-04-11T17:10:48.024Z</time></trkpt><trkpt lat="42.1147731" lon="11.9808459"><ele>321.0</ele><time>2026-04-11T17:10:50.024Z</time></trkpt><trkpt lat="42.1147425" lon="11.9807613"><ele>321.8</ele><time>2026-04-11T17:10:51.025Z</time></trkpt><trkpt lat="42.1147313" lon="11.9806435"><ele>322.6</ele><time>2026-04-11T17:10:52.024Z</time></trkpt><trkpt lat="42.1146929" lon="11.9805213"><ele>323.4</ele><time>2026-04-11T17:10:53.025Z</time></trkpt><trkpt lat="42.1146665" lon="11.9804279"><ele>324.2</ele><time>2026-04-11T17:10:54.025Z</time></trkpt><trkpt lat="42.1146157" lon="11.9802457"><ele>325.0</ele><time>2026-04-11T17:10:56.025Z</time></trkpt><trkpt lat="42.1145428" lon="11.9801474"><ele>325.0</ele><time>2026-04-11T17:10:57.024Z</time></trkpt><trkpt lat="42.1144829" lon="11.9800655"><ele>325.0</ele><time>2026-04-11T17:10:58.024Z</time></trkpt><trkpt lat="42.1144992" lon="11.9799216"><ele>325.0</ele><time>2026-04-11T17:11:00.025Z</time></trkpt><trkpt lat="42.1145202" lon="11.9797563"><ele>325.0</ele><time>2026-04-11T17:11:02.025Z</time></trkpt><trkpt lat="42.1145537" lon="11.9796051"><ele>325.0</ele><time>2026-04-11T17:11:04.025Z</time></trkpt><trkpt lat="42.1145834" lon="11.979521"><ele>324.57142857142856</ele><time>2026-04-11T17:11:05.024Z</time></trkpt><trkpt lat="42.1146243" lon="11.9794479"><ele>324.14285714285717</ele><time>2026-04-11T17:11:06.025Z</time></trkpt><trkpt lat="42.1146911" lon="11.9793946"><ele>323.7142857142857</ele><time>2026-04-11T17:11:07.024Z</time></trkpt><trkpt lat="42.1147553" lon="11.9793516"><ele>323.2857142857143</ele><time>2026-04-11T17:11:08.024Z</time></trkpt><trkpt lat="42.1148133" lon="11.9793136"><ele>322.8571428571429</ele><time>2026-04-11T17:11:09.024Z</time></trkpt><trkpt lat="42.1148856" lon="11.979281"><ele>322.42857142857144</ele><time>2026-04-11T17:11:10.025Z</time></trkpt><trkpt lat="42.114957" lon="11.9792697"><ele>322.0</ele><time>2026-04-11T17:11:11.024Z</time></trkpt><trkpt lat="42.115025" lon="11.9792524"><ele>320.57142857142856</ele><time>2026-04-11T17:11:12.025Z</time></trkpt><trkpt lat="42.1150985" lon="11.9792482"><ele>319.1428571428571</ele><time>2026-04-11T17:11:13.025Z</time></trkpt><trkpt lat="42.1151792" lon="11.9792829"><ele>317.7142857142857</ele><time>2026-04-11T17:11:14.025Z</time></trkpt><trkpt lat="42.1152542" lon="11.9793309"><ele>316.2857142857143</ele><time>2026-04-11T17:11:15.025Z</time></trkpt><trkpt lat="42.1153175" lon="11.979377"><ele>314.85714285714283</ele><time>2026-04-11T17:11:16.024Z</time></trkpt><trkpt lat="42.1153801" lon="11.9794131"><ele>313.42857142857144</ele><time>2026-04-11T17:11:17.024Z</time></trkpt><trkpt lat="42.1154447" lon="11.9794424"><ele>312.0</ele><time>2026-04-11T17:11:18.025Z</time></trkpt><trkpt lat="42.1155586" lon="11.9794365"><ele>312.0</ele><time>2026-04-11T17:11:20.025Z</time></trkpt><trkpt lat="42.1156219" lon="11.9794035"><ele>312.0</ele><time>2026-04-11T17:11:21.025Z</time></trkpt><trkpt lat="42.1156891" lon="11.9793592"><ele>312.0</ele><time>2026-04-11T17:11:22.025Z</time></trkpt><trkpt lat="42.1157639" lon="11.9793044"><ele>312.0</ele><time>2026-04-11T17:11:23.025Z</time></trkpt><trkpt lat="42.1158377" lon="11.979248"><ele>312.0</ele><time>2026-04-11T17:11:24.025Z</time></trkpt><trkpt lat="42.1159136" lon="11.9791973"><ele>312.0</ele><time>2026-04-11T17:11:25.024Z</time></trkpt><trkpt lat="42.1159947" lon="11.9791279"><ele>311.8333333333333</ele><time>2026-04-11T17:11:26.025Z</time></trkpt><trkpt lat="42.1160719" lon="11.9790654"><ele>311.6666666666667</ele><time>2026-04-11T17:11:27.025Z</time></trkpt><trkpt lat="42.1161373" lon="11.9790103"><ele>311.5</ele><time>2026-04-11T17:11:28.025Z</time></trkpt><trkpt lat="42.1162017" lon="11.9789619"><ele>311.33333333333337</ele><time>2026-04-11T17:11:29.024Z</time></trkpt><trkpt lat="42.1162716" lon="11.9789139"><ele>311.1666666666667</ele><time>2026-04-11T17:11:30.024Z</time></trkpt><trkpt lat="42.1163505" lon="11.9788697"><ele>311.0</ele><time>2026-04-11T17:11:31.025Z</time></trkpt><trkpt lat="42.1164341" lon="11.9788197"><ele>311.0</ele><time>2026-04-11T17:11:32.025Z</time></trkpt><trkpt lat="42.1165188" lon="11.9787782"><ele>311.0</ele><time>2026-04-11T17:11:33.024Z</time></trkpt><trkpt lat="42.1166044" lon="11.9787318"><ele>311.0</ele><time>2026-04-11T17:11:34.025Z</time></trkpt><trkpt lat="42.1166939" lon="11.9787071"><ele>311.0</ele><time>2026-04-11T17:11:35.024Z</time></trkpt><trkpt lat="42.116758" lon="11.9786808"><ele>311.0</ele><time>2026-04-11T17:11:36.025Z</time></trkpt><trkpt lat="42.116839" lon="11.9786397"><ele>311.0</ele><time>2026-04-11T17:11:38.024Z</time></trkpt><trkpt lat="42.1169258" lon="11.9785617"><ele>310.6</ele><time>2026-04-11T17:11:40.025Z</time></trkpt><trkpt lat="42.1170102" lon="11.9785063"><ele>310.20000000000005</ele><time>2026-04-11T17:11:42.025Z</time></trkpt><trkpt lat="42.1171141" lon="11.9784414"><ele>309.79999999999995</ele><time>2026-04-11T17:11:44.024Z</time></trkpt><trkpt lat="42.117228" lon="11.9783757"><ele>309.4</ele><time>2026-04-11T17:11:46.024Z</time></trkpt><trkpt lat="42.117293" lon="11.9783555"><ele>309.0</ele><time>2026-04-11T17:11:47.025Z</time></trkpt><trkpt lat="42.1173609" lon="11.978332"><ele>307.6666666666667</ele><time>2026-04-11T17:11:48.025Z</time></trkpt><trkpt lat="42.1174355" lon="11.9782933"><ele>306.3333333333333</ele><time>2026-04-11T17:11:49.024Z</time></trkpt><trkpt lat="42.1175212" lon="11.9782808"><ele>305.0</ele><time>2026-04-11T17:11:50.024Z</time></trkpt><trkpt lat="42.1175919" lon="11.9783121"><ele>303.66666666666663</ele><time>2026-04-11T17:11:51.025Z</time></trkpt><trkpt lat="42.1176709" lon="11.978333"><ele>302.3333333333333</ele><time>2026-04-11T17:11:52.025Z</time></trkpt><trkpt lat="42.117753" lon="11.978328"><ele>301.0</ele><time>2026-04-11T17:11:53.025Z</time></trkpt><trkpt lat="42.1178292" lon="11.9783069"><ele>301.0</ele><time>2026-04-11T17:11:54.024Z</time></trkpt><trkpt lat="42.1179431" lon="11.9782877"><ele>301.0</ele><time>2026-04-11T17:11:56.025Z</time></trkpt><trkpt lat="42.1180572" lon="11.9782411"><ele>301.0</ele><time>2026-04-11T17:11:58.025Z</time></trkpt><trkpt lat="42.1181705" lon="11.9781497"><ele>301.0</ele><time>2026-04-11T17:12:00.025Z</time></trkpt><trkpt lat="42.1182294" lon="11.9780863"><ele>301.0</ele><time>2026-04-11T17:12:01.025Z</time></trkpt><trkpt lat="42.11829" lon="11.9780198"><ele>299.3333333333333</ele><time>2026-04-11T17:12:02.024Z</time></trkpt><trkpt lat="42.1183675" lon="11.9779375"><ele>297.66666666666663</ele><time>2026-04-11T17:12:03.025Z</time></trkpt><trkpt lat="42.1184451" lon="11.9778654"><ele>296.0</ele><time>2026-04-11T17:12:04.025Z</time></trkpt><trkpt lat="42.1185019" lon="11.9777986"><ele>294.3333333333333</ele><time>2026-04-11T17:12:05.024Z</time></trkpt><trkpt lat="42.1185625" lon="11.9777386"><ele>292.6666666666667</ele><time>2026-04-11T17:12:06.024Z</time></trkpt><trkpt lat="42.1186314" lon="11.9776791"><ele>291.0</ele><time>2026-04-11T17:12:07.025Z</time></trkpt><trkpt lat="42.118688" lon="11.9776137"><ele>291.0</ele><time>2026-04-11T17:12:08.024Z</time></trkpt><trkpt lat="42.1187472" lon="11.9775506"><ele>291.0</ele><time>2026-04-11T17:12:09.025Z</time></trkpt><trkpt lat="42.1187988" lon="11.9774939"><ele>291.0</ele><time>2026-04-11T17:12:10.025Z</time></trkpt><trkpt lat="42.1188323" lon="11.9773787"><ele>291.0</ele><time>2026-04-11T17:12:12.024Z</time></trkpt><trkpt lat="42.1188644" lon="11.9772251"><ele>291.0</ele><time>2026-04-11T17:12:14.024Z</time></trkpt><trkpt lat="42.118876" lon="11.9771152"><ele>291.0</ele><time>2026-04-11T17:12:15.025Z</time></trkpt><trkpt lat="42.1188783" lon="11.9770248"><ele>291.3333333333333</ele><time>2026-04-11T17:12:16.024Z</time></trkpt><trkpt lat="42.1188724" lon="11.9769196"><ele>291.6666666666667</ele><time>2026-04-11T17:12:17.024Z</time></trkpt><trkpt lat="42.1188663" lon="11.9768313"><ele>292.0</ele><time>2026-04-11T17:12:18.024Z</time></trkpt><trkpt lat="42.1188688" lon="11.9767337"><ele>292.33333333333337</ele><time>2026-04-11T17:12:19.024Z</time></trkpt><trkpt lat="42.1188787" lon="11.9766478"><ele>292.6666666666667</ele><time>2026-04-11T17:12:20.024Z</time></trkpt><trkpt lat="42.1189214" lon="11.9764907"><ele>293.0</ele><time>2026-04-11T17:12:22.025Z</time></trkpt><trkpt lat="42.1189802" lon="11.9763699"><ele>293.6666666666667</ele><time>2026-04-11T17:12:24.025Z</time></trkpt><trkpt lat="42.1190365" lon="11.9762815"><ele>294.33333333333337</ele><time>2026-04-11T17:12:26.025Z</time></trkpt><trkpt lat="42.1191342" lon="11.9761963"><ele>295.0</ele><time>2026-04-11T17:12:28.024Z</time></trkpt><trkpt lat="42.1191977" lon="11.9761638"><ele>295.6666666666667</ele><time>2026-04-11T17:12:29.024Z</time></trkpt><trkpt lat="42.1192837" lon="11.9761379"><ele>296.3333333333333</ele><time>2026-04-11T17:12:30.024Z</time></trkpt><trkpt lat="42.119364" lon="11.976114"><ele>297.0</ele><time>2026-04-11T17:12:31.025Z</time></trkpt><trkpt lat="42.1194276" lon="11.9760834"><ele>293.75</ele><time>2026-04-11T17:12:32.025Z</time></trkpt><trkpt lat="42.1195306" lon="11.9760774"><ele>290.5</ele><time>2026-04-11T17:12:34.025Z</time></trkpt><trkpt lat="42.1196248" lon="11.9760829"><ele>287.25</ele><time>2026-04-11T17:12:36.025Z</time></trkpt><trkpt lat="42.1197998" lon="11.9759446"><ele>284.0</ele><time>2026-04-11T17:12:42.025Z</time></trkpt><trkpt lat="42.1198831" lon="11.9758928"><ele>283.2</ele><time>2026-04-11T17:12:44.024Z</time></trkpt><trkpt lat="42.1199457" lon="11.9758668"><ele>282.4</ele><time>2026-04-11T17:12:45.024Z</time></trkpt><trkpt lat="42.1200434" lon="11.9758478"><ele>281.6</ele><time>2026-04-11T17:12:47.024Z</time></trkpt><trkpt lat="42.1201148" lon="11.9758342"><ele>280.8</ele><time>2026-04-11T17:12:49.025Z</time></trkpt><trkpt lat="42.120224" lon="11.9758343"><ele>280.0</ele><time>2026-04-11T17:12:52.024Z</time></trkpt><trkpt lat="42.120339" lon="11.9758461"><ele>280.0</ele><time>2026-04-11T17:12:54.024Z</time></trkpt><trkpt lat="42.1204148" lon="11.9758447"><ele>280.0</ele><time>2026-04-11T17:12:55.025Z</time></trkpt><trkpt lat="42.1204931" lon="11.9758398"><ele>280.0</ele><time>2026-04-11T17:12:56.025Z</time></trkpt><trkpt lat="42.1205676" lon="11.9758279"><ele>280.0</ele><time>2026-04-11T17:12:57.025Z</time></trkpt><trkpt lat="42.1206944" lon="11.9758287"><ele>280.0</ele><time>2026-04-11T17:12:59.024Z</time></trkpt><trkpt lat="42.1208233" lon="11.9758395"><ele>277.3333333333333</ele><time>2026-04-11T17:13:01.025Z</time></trkpt><trkpt lat="42.1209019" lon="11.9758717"><ele>274.66666666666663</ele><time>2026-04-11T17:13:02.024Z</time></trkpt><trkpt lat="42.1209872" lon="11.9759106"><ele>272.0</ele><time>2026-04-11T17:13:03.024Z</time></trkpt><trkpt lat="42.1210677" lon="11.9759555"><ele>269.3333333333333</ele><time>2026-04-11T17:13:04.025Z</time></trkpt><trkpt lat="42.1211428" lon="11.9759937"><ele>266.6666666666667</ele><time>2026-04-11T17:13:05.025Z</time></trkpt><trkpt lat="42.1212231" lon="11.9760229"><ele>264.0</ele><time>2026-04-11T17:13:06.024Z</time></trkpt><trkpt lat="42.1212869" lon="11.9760472"><ele>264.0</ele><time>2026-04-11T17:13:07.025Z</time></trkpt><trkpt lat="42.1213596" lon="11.9760815"><ele>264.0</ele><time>2026-04-11T17:13:10.024Z</time></trkpt><trkpt lat="42.1214261" lon="11.9760996"><ele>264.0</ele><time>2026-04-11T17:13:13.025Z</time></trkpt><trkpt lat="42.1215055" lon="11.9760969"><ele>264.0</ele><time>2026-04-11T17:13:15.024Z</time></trkpt><trkpt lat="42.1215774" lon="11.9761087"><ele>264.0</ele><time>2026-04-11T17:13:17.025Z</time></trkpt><trkpt lat="42.1216629" lon="11.9761082"><ele>264.0</ele><time>2026-04-11T17:13:20.025Z</time></trkpt><trkpt lat="42.1217353" lon="11.9761023"><ele>263.6666666666667</ele><time>2026-04-11T17:13:22.024Z</time></trkpt><trkpt lat="42.1218149" lon="11.9760762"><ele>263.3333333333333</ele><time>2026-04-11T17:13:24.025Z</time></trkpt><trkpt lat="42.121885" lon="11.9760405"><ele>263.0</ele><time>2026-04-11T17:13:26.024Z</time></trkpt><trkpt lat="42.1219726" lon="11.9760185"><ele>262.66666666666663</ele><time>2026-04-11T17:13:28.024Z</time></trkpt><trkpt lat="42.1220743" lon="11.9759825"><ele>262.3333333333333</ele><time>2026-04-11T17:13:30.025Z</time></trkpt><trkpt lat="42.1221357" lon="11.9759589"><ele>262.0</ele><time>2026-04-11T17:13:31.024Z</time></trkpt><trkpt lat="42.1221981" lon="11.9759385"><ele>262.0</ele><time>2026-04-11T17:13:32.025Z</time></trkpt><trkpt lat="42.1222624" lon="11.9759122"><ele>262.0</ele><time>2026-04-11T17:13:33.025Z</time></trkpt><trkpt lat="42.1223279" lon="11.9758888"><ele>262.0</ele><time>2026-04-11T17:13:34.025Z</time></trkpt><trkpt lat="42.1223975" lon="11.9758565"><ele>262.0</ele><time>2026-04-11T17:13:35.025Z</time></trkpt><trkpt lat="42.1224648" lon="11.9758313"><ele>262.0</ele><time>2026-04-11T17:13:36.025Z</time></trkpt><trkpt lat="42.1225317" lon="11.9758111"><ele>262.0</ele><time>2026-04-11T17:13:37.024Z</time></trkpt><trkpt lat="42.1226527" lon="11.9757648"><ele>261.6</ele><time>2026-04-11T17:13:39.025Z</time></trkpt><trkpt lat="42.1227726" lon="11.9757266"><ele>261.2</ele><time>2026-04-11T17:13:41.025Z</time></trkpt><trkpt lat="42.1228801" lon="11.9756765"><ele>260.8</ele><time>2026-04-11T17:13:43.025Z</time></trkpt><trkpt lat="42.1229912" lon="11.9756351"><ele>260.4</ele><time>2026-04-11T17:13:45.024Z</time></trkpt><trkpt lat="42.1230558" lon="11.9756158"><ele>260.0</ele><time>2026-04-11T17:13:46.024Z</time></trkpt><trkpt lat="42.1231217" lon="11.9755993"><ele>260.0</ele><time>2026-04-11T17:13:47.024Z</time></trkpt><trkpt lat="42.123189" lon="11.9755766"><ele>260.0</ele><time>2026-04-11T17:13:48.025Z</time></trkpt><trkpt lat="42.1232533" lon="11.9755587"><ele>260.0</ele><time>2026-04-11T17:13:49.025Z</time></trkpt><trkpt lat="42.1233165" lon="11.975538"><ele>260.0</ele><time>2026-04-11T17:13:50.025Z</time></trkpt><trkpt lat="42.1234367" lon="11.9755006"><ele>260.0</ele><time>2026-04-11T17:13:52.024Z</time></trkpt><trkpt lat="42.1235083" lon="11.975477"><ele>260.0</ele><time>2026-04-11T17:13:53.024Z</time></trkpt><trkpt lat="42.1235799" lon="11.9754631"><ele>258.6666666666667</ele><time>2026-04-11T17:13:54.024Z</time></trkpt><trkpt lat="42.1236528" lon="11.9754514"><ele>257.33333333333337</ele><time>2026-04-11T17:13:55.025Z</time></trkpt><trkpt lat="42.1237272" lon="11.9754353"><ele>256.0</ele><time>2026-04-11T17:13:56.025Z</time></trkpt><trkpt lat="42.1238008" lon="11.9754246"><ele>254.66666666666669</ele><time>2026-04-11T17:13:57.025Z</time></trkpt><trkpt lat="42.1238683" lon="11.975422"><ele>253.33333333333334</ele><time>2026-04-11T17:13:58.024Z</time></trkpt><trkpt lat="42.1239713" lon="11.9754105"><ele>252.0</ele><time>2026-04-11T17:14:00.024Z</time></trkpt><trkpt lat="42.1240572" lon="11.9753996"><ele>251.0</ele><time>2026-04-11T17:14:02.025Z</time></trkpt><trkpt lat="42.1241632" lon="11.9753681"><ele>250.0</ele><time>2026-04-11T17:14:04.025Z</time></trkpt><trkpt lat="42.1242377" lon="11.9753561"><ele>249.0</ele><time>2026-04-11T17:14:05.024Z</time></trkpt><trkpt lat="42.124308" lon="11.9753551"><ele>248.0</ele><time>2026-04-11T17:14:06.024Z</time></trkpt><trkpt lat="42.124377" lon="11.9753501"><ele>247.0</ele><time>2026-04-11T17:14:07.025Z</time></trkpt><trkpt lat="42.1244498" lon="11.9753534"><ele>246.0</ele><time>2026-04-11T17:14:08.025Z</time></trkpt><trkpt lat="42.1245284" lon="11.9753266"><ele>246.0</ele><time>2026-04-11T17:14:10.025Z</time></trkpt><trkpt lat="42.1246038" lon="11.9752211"><ele>246.00000000000003</ele><time>2026-04-11T17:14:12.024Z</time></trkpt><trkpt lat="42.1246789" lon="11.9751139"><ele>246.00000000000003</ele><time>2026-04-11T17:14:14.024Z</time></trkpt><trkpt lat="42.1247484" lon="11.9750276"><ele>246.0</ele><time>2026-04-11T17:14:16.025Z</time></trkpt><trkpt lat="42.1248016" lon="11.974935"><ele>246.0</ele><time>2026-04-11T17:14:18.024Z</time></trkpt><trkpt lat="42.1248667" lon="11.9748309"><ele>245.0</ele><time>2026-04-11T17:14:20.024Z</time></trkpt><trkpt lat="42.124951" lon="11.9747769"><ele>244.00000000000003</ele><time>2026-04-11T17:14:22.024Z</time></trkpt><trkpt lat="42.1250544" lon="11.9747409"><ele>243.00000000000003</ele><time>2026-04-11T17:14:24.023Z</time></trkpt><trkpt lat="42.1251172" lon="11.9747154"><ele>242.0</ele><time>2026-04-11T17:14:25.023Z</time></trkpt><trkpt lat="42.1252424" lon="11.9746896"><ele>241.0</ele><time>2026-04-11T17:14:27.023Z</time></trkpt><trkpt lat="42.1253184" lon="11.9746881"><ele>241.0</ele><time>2026-04-11T17:14:29.024Z</time></trkpt><trkpt lat="42.1254219" lon="11.9746509"><ele>241.0</ele><time>2026-04-11T17:14:31.023Z</time></trkpt><trkpt lat="42.1255375" lon="11.9746071"><ele>241.0</ele><time>2026-04-11T17:14:33.023Z</time></trkpt><trkpt lat="42.1256541" lon="11.9745695"><ele>241.0</ele><time>2026-04-11T17:14:35.023Z</time></trkpt><trkpt lat="42.1257682" lon="11.9745422"><ele>239.66666666666666</ele><time>2026-04-11T17:14:37.024Z</time></trkpt><trkpt lat="42.1258885" lon="11.9745202"><ele>238.33333333333331</ele><time>2026-04-11T17:14:39.024Z</time></trkpt><trkpt lat="42.1259541" lon="11.9745111"><ele>237.0</ele><time>2026-04-11T17:14:40.024Z</time></trkpt><trkpt lat="42.126042" lon="11.9745234"><ele>235.66666666666669</ele><time>2026-04-11T17:14:42.024Z</time></trkpt><trkpt lat="42.1261478" lon="11.9745508"><ele>234.33333333333334</ele><time>2026-04-11T17:14:44.024Z</time></trkpt><trkpt lat="42.1262057" lon="11.9745919"><ele>233.0</ele><time>2026-04-11T17:14:45.024Z</time></trkpt><trkpt lat="42.1262881" lon="11.9746727"><ele>233.0</ele><time>2026-04-11T17:14:47.024Z</time></trkpt><trkpt lat="42.1263823" lon="11.9747173"><ele>233.0</ele><time>2026-04-11T17:14:49.023Z</time></trkpt><trkpt lat="42.126455" lon="11.9747758"><ele>233.0</ele><time>2026-04-11T17:14:51.023Z</time></trkpt><trkpt lat="42.1265992" lon="11.974835"><ele>233.0</ele><time>2026-04-11T17:14:54.024Z</time></trkpt><trkpt lat="42.1267063" lon="11.9748718"><ele>233.0</ele><time>2026-04-11T17:14:56.023Z</time></trkpt><trkpt lat="42.1267719" lon="11.9749018"><ele>231.2</ele><time>2026-04-11T17:14:59.024Z</time></trkpt><trkpt lat="42.1268392" lon="11.9749172"><ele>229.4</ele><time>2026-04-11T17:15:03.023Z</time></trkpt><trkpt lat="42.1269056" lon="11.9749492"><ele>227.59999999999997</ele><time>2026-04-11T17:15:11.024Z</time></trkpt><trkpt lat="42.1269655" lon="11.9750055"><ele>225.79999999999998</ele><time>2026-04-11T17:15:15.024Z</time></trkpt><trkpt lat="42.1271542" lon="11.9750369"><ele>224.0</ele><time>2026-04-11T17:15:21.023Z</time></trkpt><trkpt lat="42.127205" lon="11.9751105"><ele>222.83333333333334</ele><time>2026-04-11T17:15:23.024Z</time></trkpt><trkpt lat="42.1272815" lon="11.975135"><ele>221.66666666666669</ele><time>2026-04-11T17:15:25.024Z</time></trkpt><trkpt lat="42.127376" lon="11.9751515"><ele>220.5</ele><time>2026-04-11T17:15:29.024Z</time></trkpt><trkpt lat="42.1274466" lon="11.975191"><ele>219.33333333333331</ele><time>2026-04-11T17:15:32.023Z</time></trkpt><trkpt lat="42.1275124" lon="11.9752835"><ele>218.16666666666666</ele><time>2026-04-11T17:15:35.023Z</time></trkpt><trkpt lat="42.127581" lon="11.9753318"><ele>217.0</ele><time>2026-04-11T17:15:37.024Z</time></trkpt><trkpt lat="42.1276421" lon="11.9753898"><ele>216.39999999999998</ele><time>2026-04-11T17:15:39.024Z</time></trkpt><trkpt lat="42.1277" lon="11.97525"><ele>215.79999999999998</ele><time>2026-04-11T17:15:42.024Z</time></trkpt><trkpt lat="42.1276556" lon="11.9750862"><ele>215.2</ele><time>2026-04-11T17:15:44.023Z</time></trkpt><trkpt lat="42.1276452" lon="11.9749734"><ele>214.6</ele><time>2026-04-11T17:15:45.024Z</time></trkpt><trkpt lat="42.1276367" lon="11.9748504"><ele>214.0</ele><time>2026-04-11T17:15:47.023Z</time></trkpt><trkpt lat="42.1276105" lon="11.9746831"><ele>213.99999999999997</ele><time>2026-04-11T17:15:50.024Z</time></trkpt><trkpt lat="42.1275747" lon="11.9745983"><ele>214.0</ele><time>2026-04-11T17:15:51.023Z</time></trkpt><trkpt lat="42.1275677" lon="11.9744752"><ele>214.0</ele><time>2026-04-11T17:15:53.024Z</time></trkpt><trkpt lat="42.1276035" lon="11.9744051"><ele>214.0</ele><time>2026-04-11T17:15:55.023Z</time></trkpt><trkpt lat="42.1276656" lon="11.9743797"><ele>213.99999999999997</ele><time>2026-04-11T17:15:57.024Z</time></trkpt><trkpt lat="42.1277288" lon="11.9743619"><ele>214.0</ele><time>2026-04-11T17:15:58.023Z</time></trkpt><trkpt lat="42.1279112" lon="11.9743571"><ele>213.99999999999997</ele><time>2026-04-11T17:16:00.023Z</time></trkpt><trkpt lat="42.1279723" lon="11.9743347"><ele>214.0</ele><time>2026-04-11T17:16:02.023Z</time></trkpt><trkpt lat="42.1280456" lon="11.9743003"><ele>214.0</ele><time>2026-04-11T17:16:05.024Z</time></trkpt><trkpt lat="42.12814" lon="11.9742794"><ele>214.0</ele><time>2026-04-11T17:16:07.023Z</time></trkpt><trkpt lat="42.1282038" lon="11.9742023"><ele>213.99999999999997</ele><time>2026-04-11T17:16:09.024Z</time></trkpt><trkpt lat="42.128285" lon="11.9741243"><ele>214.0</ele><time>2026-04-11T17:16:11.023Z</time></trkpt><trkpt lat="42.128343" lon="11.9740881"><ele>211.83333333333331</ele><time>2026-04-11T17:16:12.024Z</time></trkpt><trkpt lat="42.1284125" lon="11.9740122"><ele>209.66666666666666</ele><time>2026-04-11T17:16:14.024Z</time></trkpt><trkpt lat="42.1285025" lon="11.9739267"><ele>207.5</ele><time>2026-04-11T17:16:16.023Z</time></trkpt><trkpt lat="42.1285627" lon="11.9738815"><ele>205.33333333333331</ele><time>2026-04-11T17:16:17.024Z</time></trkpt><trkpt lat="42.1286488" lon="11.9738251"><ele>203.16666666666666</ele><time>2026-04-11T17:16:19.023Z</time></trkpt><trkpt lat="42.1287193" lon="11.9737832"><ele>201.0</ele><time>2026-04-11T17:16:21.023Z</time></trkpt><trkpt lat="42.1287859" lon="11.973714"><ele>201.0</ele><time>2026-04-11T17:16:24.024Z</time></trkpt><trkpt lat="42.1288418" lon="11.9736507"><ele>201.0</ele><time>2026-04-11T17:16:26.023Z</time></trkpt><trkpt lat="42.1289275" lon="11.9735763"><ele>201.0</ele><time>2026-04-11T17:16:28.023Z</time></trkpt><trkpt lat="42.129003" lon="11.9735179"><ele>201.0</ele><time>2026-04-11T17:16:30.023Z</time></trkpt><trkpt lat="42.1290882" lon="11.9734336"><ele>201.0</ele><time>2026-04-11T17:16:32.024Z</time></trkpt><trkpt lat="42.1291727" lon="11.9733573"><ele>198.4</ele><time>2026-04-11T17:16:34.023Z</time></trkpt><trkpt lat="42.1292591" lon="11.9732696"><ele>195.8</ele><time>2026-04-11T17:16:36.024Z</time></trkpt><trkpt lat="42.1293476" lon="11.9731798"><ele>193.20000000000002</ele><time>2026-04-11T17:16:38.024Z</time></trkpt><trkpt lat="42.1294389" lon="11.9730953"><ele>190.60000000000002</ele><time>2026-04-11T17:16:40.023Z</time></trkpt><trkpt lat="42.1295265" lon="11.9729929"><ele>188.0</ele><time>2026-04-11T17:16:42.023Z</time></trkpt><trkpt lat="42.1296232" lon="11.9728981"><ele>188.0</ele><time>2026-04-11T17:16:44.024Z</time></trkpt><trkpt lat="42.1296843" lon="11.9728395"><ele>188.0</ele><time>2026-04-11T17:16:45.023Z</time></trkpt><trkpt lat="42.1297874" lon="11.9727521"><ele>188.0</ele><time>2026-04-11T17:16:47.024Z</time></trkpt><trkpt lat="42.1298758" lon="11.9726447"><ele>188.0</ele><time>2026-04-11T17:16:49.024Z</time></trkpt><trkpt lat="42.1299435" lon="11.9725204"><ele>188.0</ele><time>2026-04-11T17:16:51.023Z</time></trkpt><trkpt lat="42.130005" lon="11.9724226"><ele>185.8</ele><time>2026-04-11T17:16:53.024Z</time></trkpt><trkpt lat="42.1300832" lon="11.9723443"><ele>183.60000000000002</ele><time>2026-04-11T17:16:55.024Z</time></trkpt><trkpt lat="42.1301894" lon="11.9723357"><ele>181.39999999999998</ele><time>2026-04-11T17:16:57.023Z</time></trkpt><trkpt lat="42.1302603" lon="11.9724251"><ele>179.2</ele><time>2026-04-11T17:16:59.023Z</time></trkpt><trkpt lat="42.1303153" lon="11.9725367"><ele>177.0</ele><time>2026-04-11T17:17:01.024Z</time></trkpt><trkpt lat="42.1303446" lon="11.9726502"><ele>177.0</ele><time>2026-04-11T17:17:03.024Z</time></trkpt><trkpt lat="42.1303902" lon="11.9727708"><ele>177.0</ele><time>2026-04-11T17:17:07.024Z</time></trkpt><trkpt lat="42.1304362" lon="11.9728843"><ele>177.0</ele><time>2026-04-11T17:17:09.023Z</time></trkpt><trkpt lat="42.130507" lon="11.9729676"><ele>177.0</ele><time>2026-04-11T17:17:11.023Z</time></trkpt><trkpt lat="42.1305848" lon="11.973022"><ele>177.0</ele><time>2026-04-11T17:17:14.023Z</time></trkpt><trkpt lat="42.1306542" lon="11.9730599"><ele>174.5</ele><time>2026-04-11T17:17:16.023Z</time></trkpt><trkpt lat="42.1307528" lon="11.9731179"><ele>172.0</ele><time>2026-04-11T17:17:18.023Z</time></trkpt><trkpt lat="42.1309565" lon="11.97314"><ele>169.5</ele><time>2026-04-11T17:17:21.023Z</time></trkpt><trkpt lat="42.1310748" lon="11.973148"><ele>167.0</ele><time>2026-04-11T17:17:24.024Z</time></trkpt><trkpt lat="42.1311396" lon="11.9731785"><ele>167.0</ele><time>2026-04-11T17:17:26.024Z</time></trkpt><trkpt lat="42.1312257" lon="11.9732198"><ele>167.0</ele><time>2026-04-11T17:17:28.024Z</time></trkpt><trkpt lat="42.1313389" lon="11.9732405"><ele>167.0</ele><time>2026-04-11T17:17:30.023Z</time></trkpt><trkpt lat="42.1314071" lon="11.9732326"><ele>167.0</ele><time>2026-04-11T17:17:31.023Z</time></trkpt><trkpt lat="42.1314909" lon="11.9732952"><ele>167.0</ele><time>2026-04-11T17:17:33.024Z</time></trkpt><trkpt lat="42.1316247" lon="11.97334"><ele>165.66666666666666</ele><time>2026-04-11T17:17:35.024Z</time></trkpt><trkpt lat="42.1317059" lon="11.9733491"><ele>164.33333333333331</ele><time>2026-04-11T17:17:36.023Z</time></trkpt><trkpt lat="42.131772" lon="11.9733597"><ele>163.0</ele><time>2026-04-11T17:17:37.024Z</time></trkpt><trkpt lat="42.1318372" lon="11.9733953"><ele>161.66666666666666</ele><time>2026-04-11T17:17:38.023Z</time></trkpt><trkpt lat="42.1319203" lon="11.9734296"><ele>160.33333333333334</ele><time>2026-04-11T17:17:39.023Z</time></trkpt><trkpt lat="42.1319978" lon="11.9734572"><ele>159.0</ele><time>2026-04-11T17:17:40.023Z</time></trkpt><trkpt lat="42.1320661" lon="11.973479"><ele>159.0</ele><time>2026-04-11T17:17:41.024Z</time></trkpt><trkpt lat="42.1321307" lon="11.9735188"><ele>159.0</ele><time>2026-04-11T17:17:42.024Z</time></trkpt><trkpt lat="42.1322041" lon="11.973544"><ele>159.0</ele><time>2026-04-11T17:17:43.023Z</time></trkpt><trkpt lat="42.1323106" lon="11.9735188"><ele>159.0</ele><time>2026-04-11T17:17:45.023Z</time></trkpt><trkpt lat="42.1324179" lon="11.9734692"><ele>159.0</ele><time>2026-04-11T17:17:47.024Z</time></trkpt><trkpt lat="42.1325223" lon="11.9734497"><ele>157.8</ele><time>2026-04-11T17:17:49.024Z</time></trkpt><trkpt lat="42.1325821" lon="11.9734955"><ele>156.60000000000002</ele><time>2026-04-11T17:17:51.023Z</time></trkpt><trkpt lat="42.1326375" lon="11.9734437"><ele>155.4</ele><time>2026-04-11T17:18:07.023Z</time></trkpt><trkpt lat="42.1325866" lon="11.9735067"><ele>154.20000000000002</ele><time>2026-04-11T17:18:15.023Z</time></trkpt><trkpt lat="42.1326673" lon="11.9734372"><ele>153.0</ele><time>2026-04-11T17:18:27.023Z</time></trkpt><trkpt lat="42.1329689" lon="11.9733996"><ele>153.0</ele><time>2026-04-11T17:18:39.023Z</time></trkpt><trkpt lat="42.1330746" lon="11.9733739"><ele>153.0</ele><time>2026-04-11T17:18:41.023Z</time></trkpt><trkpt lat="42.1331718" lon="11.9733815"><ele>153.0</ele><time>2026-04-11T17:18:44.023Z</time></trkpt><trkpt lat="42.1333133" lon="11.9733618"><ele>153.0</ele><time>2026-04-11T17:18:47.023Z</time></trkpt><trkpt lat="42.1334186" lon="11.9733537"><ele>152.20000000000002</ele><time>2026-04-11T17:18:49.023Z</time></trkpt><trkpt lat="42.1335302" lon="11.9733379"><ele>151.4</ele><time>2026-04-11T17:18:51.022Z</time></trkpt><trkpt lat="42.1336384" lon="11.9733271"><ele>150.60000000000002</ele><time>2026-04-11T17:18:53.022Z</time></trkpt><trkpt lat="42.1337337" lon="11.9733129"><ele>149.8</ele><time>2026-04-11T17:18:55.022Z</time></trkpt><trkpt lat="42.1338382" lon="11.9732903"><ele>149.0</ele><time>2026-04-11T17:18:57.023Z</time></trkpt><trkpt lat="42.1339412" lon="11.9732883"><ele>148.8</ele><time>2026-04-11T17:18:59.022Z</time></trkpt><trkpt lat="42.1340613" lon="11.9732891"><ele>148.60000000000002</ele><time>2026-04-11T17:19:01.022Z</time></trkpt><trkpt lat="42.1341254" lon="11.9732836"><ele>148.4</ele><time>2026-04-11T17:19:02.023Z</time></trkpt><trkpt lat="42.1342421" lon="11.9732693"><ele>148.20000000000002</ele><time>2026-04-11T17:19:04.023Z</time></trkpt><trkpt lat="42.1343407" lon="11.9732531"><ele>148.0</ele><time>2026-04-11T17:19:06.023Z</time></trkpt><trkpt lat="42.134426" lon="11.973233"><ele>148.0</ele><time>2026-04-11T17:19:08.023Z</time></trkpt><trkpt lat="42.1345034" lon="11.9732028"><ele>148.0</ele><time>2026-04-11T17:19:10.023Z</time></trkpt><trkpt lat="42.1345886" lon="11.973157"><ele>148.0</ele><time>2026-04-11T17:19:12.023Z</time></trkpt><trkpt lat="42.1346663" lon="11.973105"><ele>148.0</ele><time>2026-04-11T17:19:14.022Z</time></trkpt><trkpt lat="42.1346159" lon="11.9730297"><ele>148.0</ele><time>2026-04-11T17:19:20.023Z</time></trkpt><trkpt lat="42.1347005" lon="11.9730049"><ele>148.0</ele><time>2026-04-11T17:19:41.023Z</time></trkpt><trkpt lat="42.1347509" lon="11.9729216"><ele>148.0</ele><time>2026-04-11T17:19:46.023Z</time></trkpt><trkpt lat="42.1348206" lon="11.9728552"><ele>148.0</ele><time>2026-04-11T17:19:50.023Z</time></trkpt><trkpt lat="42.1348825" lon="11.9728912"><ele>148.0</ele><time>2026-04-11T17:19:52.023Z</time></trkpt><trkpt lat="42.1349418" lon="11.9729288"><ele>148.0</ele><time>2026-04-11T17:19:54.022Z</time></trkpt><trkpt lat="42.1349807" lon="11.9729975"><ele>148.0</ele><time>2026-04-11T17:19:56.022Z</time></trkpt><trkpt lat="42.1350295" lon="11.973068"><ele>148.0</ele><time>2026-04-11T17:19:58.023Z</time></trkpt><trkpt lat="42.1350643" lon="11.9731539"><ele>148.0</ele><time>2026-04-11T17:20:00.022Z</time></trkpt><trkpt lat="42.1350987" lon="11.9732688"><ele>147.66666666666669</ele><time>2026-04-11T17:20:02.023Z</time></trkpt><trkpt lat="42.1351472" lon="11.9733456"><ele>147.33333333333334</ele><time>2026-04-11T17:20:04.022Z</time></trkpt><trkpt lat="42.1352084" lon="11.9734494"><ele>147.0</ele><time>2026-04-11T17:20:06.023Z</time></trkpt><trkpt lat="42.135274" lon="11.9735307"><ele>146.66666666666666</ele><time>2026-04-11T17:20:08.022Z</time></trkpt><trkpt lat="42.135332" lon="11.9736046"><ele>146.33333333333331</ele><time>2026-04-11T17:20:10.023Z</time></trkpt><trkpt lat="42.1353957" lon="11.9736757"><ele>146.0</ele><time>2026-04-11T17:20:12.023Z</time></trkpt><trkpt lat="42.1354589" lon="11.9737397"><ele>145.83333333333331</ele><time>2026-04-11T17:20:14.023Z</time></trkpt><trkpt lat="42.1355268" lon="11.9738044"><ele>145.66666666666666</ele><time>2026-04-11T17:20:16.022Z</time></trkpt><trkpt lat="42.1355951" lon="11.9738646"><ele>145.5</ele><time>2026-04-11T17:20:18.022Z</time></trkpt><trkpt lat="42.1356716" lon="11.9739037"><ele>145.33333333333334</ele><time>2026-04-11T17:20:20.022Z</time></trkpt><trkpt lat="42.135752" lon="11.9739579"><ele>145.16666666666669</ele><time>2026-04-11T17:20:22.022Z</time></trkpt><trkpt lat="42.13582" lon="11.9740319"><ele>145.0</ele><time>2026-04-11T17:20:24.023Z</time></trkpt><trkpt lat="42.1358883" lon="11.9741054"><ele>144.8</ele><time>2026-04-11T17:20:26.023Z</time></trkpt><trkpt lat="42.13597" lon="11.9741855"><ele>144.6</ele><time>2026-04-11T17:20:28.023Z</time></trkpt><trkpt lat="42.1360195" lon="11.9742827"><ele>144.4</ele><time>2026-04-11T17:20:30.023Z</time></trkpt><trkpt lat="42.1360439" lon="11.9743931"><ele>144.2</ele><time>2026-04-11T17:20:32.023Z</time></trkpt><trkpt lat="42.1360541" lon="11.9745016"><ele>144.0</ele><time>2026-04-11T17:20:34.023Z</time></trkpt><trkpt lat="42.1360754" lon="11.9746412"><ele>144.0</ele><time>2026-04-11T17:20:36.022Z</time></trkpt><trkpt lat="42.1361159" lon="11.974769"><ele>144.0</ele><time>2026-04-11T17:20:38.023Z</time></trkpt><trkpt lat="42.1361703" lon="11.974887"><ele>144.0</ele><time>2026-04-11T17:20:40.022Z</time></trkpt><trkpt lat="42.1362161" lon="11.974987"><ele>144.0</ele><time>2026-04-11T17:20:42.022Z</time></trkpt><trkpt lat="42.1362622" lon="11.9750979"><ele>144.0</ele><time>2026-04-11T17:20:44.023Z</time></trkpt><trkpt lat="42.1362625" lon="11.9751865"><ele>144.0</ele><time>2026-04-11T17:20:48.023Z</time></trkpt><trkpt lat="42.1362843" lon="11.9753148"><ele>144.0</ele><time>2026-04-11T17:21:07.023Z</time></trkpt><trkpt lat="42.1363019" lon="11.9754437"><ele>144.0</ele><time>2026-04-11T17:21:09.023Z</time></trkpt><trkpt lat="42.1363053" lon="11.9755786"><ele>144.0</ele><time>2026-04-11T17:21:11.023Z</time></trkpt><trkpt lat="42.1363294" lon="11.9757048"><ele>144.0</ele><time>2026-04-11T17:21:13.022Z</time></trkpt><trkpt lat="42.136376" lon="11.9758396"><ele>143.8</ele><time>2026-04-11T17:21:15.023Z</time></trkpt><trkpt lat="42.1364266" lon="11.9759762"><ele>143.60000000000002</ele><time>2026-04-11T17:21:17.023Z</time></trkpt><trkpt lat="42.1364901" lon="11.9760986"><ele>143.4</ele><time>2026-04-11T17:21:19.022Z</time></trkpt><trkpt lat="42.1365687" lon="11.9762161"><ele>143.20000000000002</ele><time>2026-04-11T17:21:21.023Z</time></trkpt><trkpt lat="42.1366276" lon="11.9762944"><ele>143.0</ele><time>2026-04-11T17:21:23.023Z</time></trkpt><trkpt lat="42.1365707" lon="11.9763614"><ele>143.0</ele><time>2026-04-11T17:21:42.022Z</time></trkpt><trkpt lat="42.1366339" lon="11.9763365"><ele>143.0</ele><time>2026-04-11T17:22:08.022Z</time></trkpt><trkpt lat="42.1366982" lon="11.976377"><ele>143.0</ele><time>2026-04-11T17:22:39.023Z</time></trkpt><trkpt lat="42.1367611" lon="11.9764151"><ele>143.0</ele><time>2026-04-11T17:22:44.023Z</time></trkpt><trkpt lat="42.1369391" lon="11.97652"><ele>143.0</ele><time>2026-04-11T17:22:46.899Z</time></trkpt><trkpt lat="42.137104" lon="11.9766109"><ele>143.0</ele><time>2026-04-11T17:22:48.079Z</time></trkpt><trkpt lat="42.1371662" lon="11.9766421"><ele>143.0</ele><time>2026-04-11T17:22:49.035Z</time></trkpt><trkpt lat="42.1372435" lon="11.9766562"><ele>143.0</ele><time>2026-04-11T17:22:51.062Z</time></trkpt><trkpt lat="42.1373128" lon="11.9766606"><ele>143.0</ele><time>2026-04-11T17:22:53.09Z</time></trkpt><trkpt lat="42.1373889" lon="11.9766749"><ele>143.0</ele><time>2026-04-11T17:22:55.022Z</time></trkpt><trkpt lat="42.1374707" lon="11.9766824"><ele>143.0</ele><time>2026-04-11T17:22:57.026Z</time></trkpt><trkpt lat="42.1375628" lon="11.9766824"><ele>142.4</ele><time>2026-04-11T17:22:59.146Z</time></trkpt><trkpt lat="42.1377013" lon="11.9767959"><ele>141.8</ele><time>2026-04-11T17:23:01.542Z</time></trkpt><trkpt lat="42.1378069" lon="11.9768395"><ele>141.2</ele><time>2026-04-11T17:23:03.797Z</time></trkpt><trkpt lat="42.1378727" lon="11.9768483"><ele>140.6</ele><time>2026-04-11T17:23:04.881Z</time></trkpt><trkpt lat="42.1379443" lon="11.9768525"><ele>140.0</ele><time>2026-04-11T17:23:06.093Z</time></trkpt><trkpt lat="42.1380392" lon="11.9768717"><ele>140.0</ele><time>2026-04-11T17:23:08.023Z</time></trkpt><trkpt lat="42.1381113" lon="11.9768821"><ele>140.0</ele><time>2026-04-11T17:23:10.029Z</time></trkpt><trkpt lat="42.1382018" lon="11.976854"><ele>140.0</ele><time>2026-04-11T17:23:12.057Z</time></trkpt><trkpt lat="42.1383175" lon="11.9768106"><ele>140.0</ele><time>2026-04-11T17:23:14.023Z</time></trkpt><trkpt lat="42.1384264" lon="11.9767576"><ele>140.0</ele><time>2026-04-11T17:23:16.022Z</time></trkpt><trkpt lat="42.1385252" lon="11.9767226"><ele>140.0</ele><time>2026-04-11T17:23:18.023Z</time></trkpt><trkpt lat="42.1386146" lon="11.9766902"><ele>140.0</ele><time>2026-04-11T17:23:20.023Z</time></trkpt><trkpt lat="42.1387161" lon="11.9766262"><ele>140.0</ele><time>2026-04-11T17:23:22.023Z</time></trkpt><trkpt lat="42.1388166" lon="11.9765737"><ele>140.0</ele><time>2026-04-11T17:23:24.023Z</time></trkpt><trkpt lat="42.1389169" lon="11.9765422"><ele>140.0</ele><time>2026-04-11T17:23:26.022Z</time></trkpt><trkpt lat="42.1390228" lon="11.9765155"><ele>140.0</ele><time>2026-04-11T17:23:28.023Z</time></trkpt><trkpt lat="42.1391414" lon="11.9764808"><ele>140.0</ele><time>2026-04-11T17:23:30.023Z</time></trkpt><trkpt lat="42.139205" lon="11.9764619"><ele>140.0</ele><time>2026-04-11T17:23:31.023Z</time></trkpt><trkpt lat="42.1392696" lon="11.9764436"><ele>140.0</ele><time>2026-04-11T17:23:32.023Z</time></trkpt><trkpt lat="42.1393329" lon="11.9764264"><ele>140.0</ele><time>2026-04-11T17:23:33.022Z</time></trkpt><trkpt lat="42.1393948" lon="11.9764093"><ele>140.0</ele><time>2026-04-11T17:23:34.023Z</time></trkpt><trkpt lat="42.1395115" lon="11.9763825"><ele>140.0</ele><time>2026-04-11T17:23:36.023Z</time></trkpt><trkpt lat="42.1396223" lon="11.9763616"><ele>140.0</ele><time>2026-04-11T17:23:38.023Z</time></trkpt><trkpt lat="42.1397268" lon="11.9763646"><ele>140.0</ele><time>2026-04-11T17:23:40.023Z</time></trkpt><trkpt lat="42.1398252" lon="11.9763816"><ele>140.0</ele><time>2026-04-11T17:23:42.023Z</time></trkpt><trkpt lat="42.1399194" lon="11.9763883"><ele>140.0</ele><time>2026-04-11T17:23:44.023Z</time></trkpt><trkpt lat="42.140014" lon="11.9763917"><ele>139.83333333333331</ele><time>2026-04-11T17:23:46.023Z</time></trkpt><trkpt lat="42.1401088" lon="11.9763933"><ele>139.66666666666666</ele><time>2026-04-11T17:23:48.022Z</time></trkpt><trkpt lat="42.1401888" lon="11.9764139"><ele>139.5</ele><time>2026-04-11T17:23:50.023Z</time></trkpt><trkpt lat="42.1402534" lon="11.9764574"><ele>139.33333333333334</ele><time>2026-04-11T17:23:52.023Z</time></trkpt><trkpt lat="42.140318" lon="11.9765077"><ele>139.16666666666669</ele><time>2026-04-11T17:23:54.023Z</time></trkpt><trkpt lat="42.1403814" lon="11.9765622"><ele>139.0</ele><time>2026-04-11T17:23:56.022Z</time></trkpt><trkpt lat="42.1404514" lon="11.9766199"><ele>139.0</ele><time>2026-04-11T17:23:58.023Z</time></trkpt><trkpt lat="42.1405215" lon="11.9766893"><ele>139.0</ele><time>2026-04-11T17:24:00.023Z</time></trkpt><trkpt lat="42.1405856" lon="11.9767707"><ele>139.0</ele><time>2026-04-11T17:24:02.022Z</time></trkpt><trkpt lat="42.1406431" lon="11.9768533"><ele>139.0</ele><time>2026-04-11T17:24:04.023Z</time></trkpt><trkpt lat="42.1406968" lon="11.9769345"><ele>139.0</ele><time>2026-04-11T17:24:06.022Z</time></trkpt><trkpt lat="42.1407361" lon="11.9770118"><ele>139.0</ele><time>2026-04-11T17:24:08.022Z</time></trkpt><trkpt lat="42.1408131" lon="11.9771152"><ele>139.0</ele><time>2026-04-11T17:24:10.023Z</time></trkpt><trkpt lat="42.1408844" lon="11.9772253"><ele>139.0</ele><time>2026-04-11T17:24:12.023Z</time></trkpt><trkpt lat="42.1409415" lon="11.9772893"><ele>139.0</ele><time>2026-04-11T17:24:14.024Z</time></trkpt><trkpt lat="42.141004" lon="11.9773841"><ele>139.0</ele><time>2026-04-11T17:24:17.023Z</time></trkpt><trkpt lat="42.141029" lon="11.9774789"><ele>139.0</ele><time>2026-04-11T17:24:19.024Z</time></trkpt><trkpt lat="42.1410604" lon="11.9775644"><ele>139.0</ele><time>2026-04-11T17:24:21.023Z</time></trkpt><trkpt lat="42.1411446" lon="11.9776499"><ele>138.83333333333334</ele><time>2026-04-11T17:24:23.023Z</time></trkpt><trkpt lat="42.1411889" lon="11.9777359"><ele>138.66666666666669</ele><time>2026-04-11T17:24:25.023Z</time></trkpt><trkpt lat="42.1412477" lon="11.9778155"><ele>138.5</ele><time>2026-04-11T17:24:27.024Z</time></trkpt><trkpt lat="42.1413326" lon="11.9778751"><ele>138.33333333333334</ele><time>2026-04-11T17:24:29.023Z</time></trkpt><trkpt lat="42.1414132" lon="11.9779542"><ele>138.16666666666666</ele><time>2026-04-11T17:24:31.024Z</time></trkpt><trkpt lat="42.1414824" lon="11.9780252"><ele>138.0</ele><time>2026-04-11T17:24:33.024Z</time></trkpt><trkpt lat="42.1415511" lon="11.9781015"><ele>137.66666666666666</ele><time>2026-04-11T17:24:35.023Z</time></trkpt><trkpt lat="42.141656" lon="11.9781447"><ele>137.33333333333334</ele><time>2026-04-11T17:24:37.024Z</time></trkpt><trkpt lat="42.1417661" lon="11.978197"><ele>137.0</ele><time>2026-04-11T17:24:39.024Z</time></trkpt><trkpt lat="42.1418265" lon="11.9782291"><ele>136.66666666666669</ele><time>2026-04-11T17:24:40.024Z</time></trkpt><trkpt lat="42.1418921" lon="11.9782565"><ele>136.33333333333334</ele><time>2026-04-11T17:24:41.023Z</time></trkpt><trkpt lat="42.1419607" lon="11.9782808"><ele>136.0</ele><time>2026-04-11T17:24:42.023Z</time></trkpt><trkpt lat="42.1420346" lon="11.9783114"><ele>136.0</ele><time>2026-04-11T17:24:43.024Z</time></trkpt><trkpt lat="42.1421104" lon="11.9783424"><ele>136.0</ele><time>2026-04-11T17:24:44.023Z</time></trkpt><trkpt lat="42.1421887" lon="11.9783728"><ele>136.0</ele><time>2026-04-11T17:24:45.023Z</time></trkpt><trkpt lat="42.1422749" lon="11.9784081"><ele>136.0</ele><time>2026-04-11T17:24:46.023Z</time></trkpt><trkpt lat="42.142366" lon="11.9784422"><ele>136.0</ele><time>2026-04-11T17:24:47.024Z</time></trkpt><trkpt lat="42.1424475" lon="11.9784768"><ele>136.0</ele><time>2026-04-11T17:24:48.024Z</time></trkpt><trkpt lat="42.1425341" lon="11.9785112"><ele>135.8</ele><time>2026-04-11T17:24:49.024Z</time></trkpt><trkpt lat="42.1426229" lon="11.9785452"><ele>135.6</ele><time>2026-04-11T17:24:50.023Z</time></trkpt><trkpt lat="42.1427144" lon="11.9785854"><ele>135.4</ele><time>2026-04-11T17:24:51.023Z</time></trkpt><trkpt lat="42.142809" lon="11.9786268"><ele>135.2</ele><time>2026-04-11T17:24:52.024Z</time></trkpt><trkpt lat="42.1429081" lon="11.9786632"><ele>135.0</ele><time>2026-04-11T17:24:53.023Z</time></trkpt><trkpt lat="42.1430073" lon="11.978702"><ele>135.0</ele><time>2026-04-11T17:24:54.023Z</time></trkpt><trkpt lat="42.1431107" lon="11.9787393"><ele>135.0</ele><time>2026-04-11T17:24:55.024Z</time></trkpt><trkpt lat="42.14321" lon="11.9787814"><ele>135.0</ele><time>2026-04-11T17:24:56.024Z</time></trkpt><trkpt lat="42.1433112" lon="11.9788206"><ele>135.0</ele><time>2026-04-11T17:24:57.023Z</time></trkpt><trkpt lat="42.1434116" lon="11.978856"><ele>135.0</ele><time>2026-04-11T17:24:58.023Z</time></trkpt><trkpt lat="42.1435103" lon="11.9788973"><ele>135.4</ele><time>2026-04-11T17:24:59.024Z</time></trkpt><trkpt lat="42.1436104" lon="11.9789413"><ele>135.8</ele><time>2026-04-11T17:25:00.023Z</time></trkpt><trkpt lat="42.1437143" lon="11.9789844"><ele>136.2</ele><time>2026-04-11T17:25:01.023Z</time></trkpt><trkpt lat="42.1438128" lon="11.9790264"><ele>136.6</ele><time>2026-04-11T17:25:02.023Z</time></trkpt><trkpt lat="42.1439108" lon="11.9790674"><ele>137.0</ele><time>2026-04-11T17:25:03.024Z</time></trkpt><trkpt lat="42.144004" lon="11.9791071"><ele>137.0</ele><time>2026-04-11T17:25:04.024Z</time></trkpt><trkpt lat="42.1440944" lon="11.9791359"><ele>137.0</ele><time>2026-04-11T17:25:05.024Z</time></trkpt><trkpt lat="42.1441811" lon="11.9791562"><ele>137.0</ele><time>2026-04-11T17:25:06.023Z</time></trkpt><trkpt lat="42.1442553" lon="11.979177"><ele>137.0</ele><time>2026-04-11T17:25:07.023Z</time></trkpt><trkpt lat="42.1443292" lon="11.9791894"><ele>137.0</ele><time>2026-04-11T17:25:08.023Z</time></trkpt><trkpt lat="42.1443921" lon="11.9791998"><ele>137.0</ele><time>2026-04-11T17:25:09.024Z</time></trkpt><trkpt lat="42.1444627" lon="11.9791809"><ele>137.0</ele><time>2026-04-11T17:25:10.024Z</time></trkpt><trkpt lat="42.1445291" lon="11.9791694"><ele>137.0</ele><time>2026-04-11T17:25:11.024Z</time></trkpt><trkpt lat="42.1446121" lon="11.9791442"><ele>137.0</ele><time>2026-04-11T17:25:12.024Z</time></trkpt><trkpt lat="42.1447257" lon="11.9791169"><ele>137.0</ele><time>2026-04-11T17:25:13.024Z</time></trkpt><trkpt lat="42.1448678" lon="11.9790747"><ele>137.0</ele><time>2026-04-11T17:25:14.023Z</time></trkpt><trkpt lat="42.1449634" lon="11.97906"><ele>137.0</ele><time>2026-04-11T17:25:15.024Z</time></trkpt><trkpt lat="42.1450574" lon="11.9790387"><ele>137.0</ele><time>2026-04-11T17:25:16.023Z</time></trkpt><trkpt lat="42.1451307" lon="11.9790378"><ele>137.0</ele><time>2026-04-11T17:25:17.024Z</time></trkpt><trkpt lat="42.1451901" lon="11.9790011"><ele>137.0</ele><time>2026-04-11T17:25:21.024Z</time></trkpt><trkpt lat="42.1452891" lon="11.9790344"><ele>137.0</ele><time>2026-04-11T17:25:27.023Z</time></trkpt><trkpt lat="42.1453542" lon="11.9789792"><ele>137.0</ele><time>2026-04-11T17:25:29.024Z</time></trkpt><trkpt lat="42.145459" lon="11.9789956"><ele>137.0</ele><time>2026-04-11T17:25:31.023Z</time></trkpt><trkpt lat="42.1455398" lon="11.97905"><ele>137.0</ele><time>2026-04-11T17:25:33.024Z</time></trkpt><trkpt lat="42.1456301" lon="11.9790808"><ele>137.0</ele><time>2026-04-11T17:25:35.024Z</time></trkpt><trkpt lat="42.145729" lon="11.9791151"><ele>137.0</ele><time>2026-04-11T17:25:37.024Z</time></trkpt><trkpt lat="42.1458103" lon="11.9791263"><ele>137.0</ele><time>2026-04-11T17:25:39.024Z</time></trkpt><trkpt lat="42.1458072" lon="11.9792112"><ele>137.0</ele><time>2026-04-11T17:25:53.023Z</time></trkpt><trkpt lat="42.1457814" lon="11.9793218"><ele>136.79999999999998</ele><time>2026-04-11T17:25:55.023Z</time></trkpt><trkpt lat="42.1457322" lon="11.9794303"><ele>136.6</ele><time>2026-04-11T17:25:57.024Z</time></trkpt><trkpt lat="42.1457151" lon="11.9795297"><ele>136.39999999999998</ele><time>2026-04-11T17:25:58.023Z</time></trkpt><trkpt lat="42.1456805" lon="11.9797189"><ele>136.2</ele><time>2026-04-11T17:26:00.022Z</time></trkpt><trkpt lat="42.1456476" lon="11.979822"><ele>136.0</ele><time>2026-04-11T17:26:01.023Z</time></trkpt><trkpt lat="42.1456091" lon="11.9799276"><ele>135.8</ele><time>2026-04-11T17:26:02.023Z</time></trkpt><trkpt lat="42.1455803" lon="11.9800504"><ele>135.6</ele><time>2026-04-11T17:26:03.022Z</time></trkpt><trkpt lat="42.1455458" lon="11.9801908"><ele>135.4</ele><time>2026-04-11T17:26:04.023Z</time></trkpt><trkpt lat="42.1454941" lon="11.98033"><ele>135.2</ele><time>2026-04-11T17:26:05.023Z</time></trkpt><trkpt lat="42.1454376" lon="11.9804678"><ele>135.0</ele><time>2026-04-11T17:26:06.023Z</time></trkpt><trkpt lat="42.1453847" lon="11.9806263"><ele>135.0</ele><time>2026-04-11T17:26:07.023Z</time></trkpt><trkpt lat="42.1453306" lon="11.9807843"><ele>135.0</ele><time>2026-04-11T17:26:08.023Z</time></trkpt><trkpt lat="42.1452773" lon="11.9809469"><ele>135.0</ele><time>2026-04-11T17:26:09.022Z</time></trkpt><trkpt lat="42.1452244" lon="11.9811068"><ele>135.0</ele><time>2026-04-11T17:26:10.023Z</time></trkpt><trkpt lat="42.1451666" lon="11.9812647"><ele>135.0</ele><time>2026-04-11T17:26:11.023Z</time></trkpt><trkpt lat="42.1451147" lon="11.9814079"><ele>135.0</ele><time>2026-04-11T17:26:12.023Z</time></trkpt><trkpt lat="42.1450644" lon="11.9815551"><ele>135.0</ele><time>2026-04-11T17:26:13.023Z</time></trkpt><trkpt lat="42.1450153" lon="11.9816935"><ele>135.0</ele><time>2026-04-11T17:26:14.022Z</time></trkpt><trkpt lat="42.14497" lon="11.9818345"><ele>135.0</ele><time>2026-04-11T17:26:15.023Z</time></trkpt><trkpt lat="42.14493" lon="11.9819716"><ele>135.0</ele><time>2026-04-11T17:26:16.023Z</time></trkpt><trkpt lat="42.1449035" lon="11.9821219"><ele>135.0</ele><time>2026-04-11T17:26:17.023Z</time></trkpt><trkpt lat="42.1448982" lon="11.9822899"><ele>135.0</ele><time>2026-04-11T17:26:18.022Z</time></trkpt><trkpt lat="42.1449123" lon="11.9824576"><ele>134.5</ele><time>2026-04-11T17:26:19.023Z</time></trkpt><trkpt lat="42.1449291" lon="11.9826222"><ele>134.0</ele><time>2026-04-11T17:26:20.022Z</time></trkpt><trkpt lat="42.1449463" lon="11.9828051"><ele>133.5</ele><time>2026-04-11T17:26:21.023Z</time></trkpt><trkpt lat="42.1449711" lon="11.9829828"><ele>133.0</ele><time>2026-04-11T17:26:22.023Z</time></trkpt><trkpt lat="42.1449936" lon="11.9831637"><ele>133.0</ele><time>2026-04-11T17:26:23.022Z</time></trkpt><trkpt lat="42.1450187" lon="11.9833404"><ele>133.0</ele><time>2026-04-11T17:26:24.022Z</time></trkpt><trkpt lat="42.1450433" lon="11.9835049"><ele>133.0</ele><time>2026-04-11T17:26:25.023Z</time></trkpt><trkpt lat="42.1450747" lon="11.9836653"><ele>133.0</ele><time>2026-04-11T17:26:26.022Z</time></trkpt><trkpt lat="42.1451215" lon="11.9838189"><ele>132.5</ele><time>2026-04-11T17:26:27.022Z</time></trkpt><trkpt lat="42.1451824" lon="11.9839594"><ele>132.0</ele><time>2026-04-11T17:26:28.022Z</time></trkpt><trkpt lat="42.1452668" lon="11.9840824"><ele>131.5</ele><time>2026-04-11T17:26:29.023Z</time></trkpt><trkpt lat="42.1453566" lon="11.9841978"><ele>131.0</ele><time>2026-04-11T17:26:30.022Z</time></trkpt><trkpt lat="42.1454431" lon="11.9843113"><ele>131.0</ele><time>2026-04-11T17:26:31.023Z</time></trkpt><trkpt lat="42.1455337" lon="11.9844193"><ele>131.0</ele><time>2026-04-11T17:26:32.022Z</time></trkpt><trkpt lat="42.1456177" lon="11.9845307"><ele>131.0</ele><time>2026-04-11T17:26:33.023Z</time></trkpt><trkpt lat="42.1457006" lon="11.9846436"><ele>131.0</ele><time>2026-04-11T17:26:34.022Z</time></trkpt><trkpt lat="42.1457856" lon="11.9847601"><ele>131.0</ele><time>2026-04-11T17:26:35.023Z</time></trkpt><trkpt lat="42.1458734" lon="11.984874"><ele>131.0</ele><time>2026-04-11T17:26:36.022Z</time></trkpt><trkpt lat="42.1459691" lon="11.9849822"><ele>131.0</ele><time>2026-04-11T17:26:37.023Z</time></trkpt><trkpt lat="42.1460813" lon="11.9850927"><ele>131.0</ele><time>2026-04-11T17:26:38.023Z</time></trkpt><trkpt lat="42.146183" lon="11.9851827"><ele>131.0</ele><time>2026-04-11T17:26:39.023Z</time></trkpt><trkpt lat="42.1462863" lon="11.9852542"><ele>131.0</ele><time>2026-04-11T17:26:40.022Z</time></trkpt><trkpt lat="42.1463863" lon="11.9853156"><ele>131.0</ele><time>2026-04-11T17:26:41.023Z</time></trkpt><trkpt lat="42.1464817" lon="11.985402"><ele>131.0</ele><time>2026-04-11T17:26:42.022Z</time></trkpt><trkpt lat="42.1465628" lon="11.9855053"><ele>132.75</ele><time>2026-04-11T17:26:43.022Z</time></trkpt><trkpt lat="42.146623" lon="11.9856374"><ele>134.5</ele><time>2026-04-11T17:26:44.023Z</time></trkpt><trkpt lat="42.1466603" lon="11.985777"><ele>136.25</ele><time>2026-04-11T17:26:45.023Z</time></trkpt><trkpt lat="42.1466989" lon="11.985925"><ele>138.0</ele><time>2026-04-11T17:26:46.023Z</time></trkpt><trkpt lat="42.1467263" lon="11.9860751"><ele>138.0</ele><time>2026-04-11T17:26:47.023Z</time></trkpt><trkpt lat="42.1467486" lon="11.9862288"><ele>138.0</ele><time>2026-04-11T17:26:48.023Z</time></trkpt><trkpt lat="42.1467771" lon="11.9863796"><ele>138.0</ele><time>2026-04-11T17:26:49.022Z</time></trkpt><trkpt lat="42.1468208" lon="11.9865203"><ele>138.0</ele><time>2026-04-11T17:26:50.022Z</time></trkpt><trkpt lat="42.1468977" lon="11.9866433"><ele>137.25</ele><time>2026-04-11T17:26:51.022Z</time></trkpt><trkpt lat="42.1469986" lon="11.9867464"><ele>136.5</ele><time>2026-04-11T17:26:52.023Z</time></trkpt><trkpt lat="42.1471104" lon="11.9868508"><ele>135.75</ele><time>2026-04-11T17:26:53.023Z</time></trkpt><trkpt lat="42.1472173" lon="11.9869555"><ele>135.0</ele><time>2026-04-11T17:26:54.022Z</time></trkpt><trkpt lat="42.1473191" lon="11.9870712"><ele>133.75</ele><time>2026-04-11T17:26:55.022Z</time></trkpt><trkpt lat="42.147412" lon="11.9872018"><ele>132.5</ele><time>2026-04-11T17:26:56.023Z</time></trkpt><trkpt lat="42.1474967" lon="11.9873507"><ele>131.25</ele><time>2026-04-11T17:26:57.022Z</time></trkpt><trkpt lat="42.1475723" lon="11.987512"><ele>130.0</ele><time>2026-04-11T17:26:58.023Z</time></trkpt><trkpt lat="42.1476481" lon="11.987686"><ele>130.0</ele><time>2026-04-11T17:26:59.022Z</time></trkpt><trkpt lat="42.1477261" lon="11.9878704"><ele>130.0</ele><time>2026-04-11T17:27:00.022Z</time></trkpt><trkpt lat="42.1478055" lon="11.9880525"><ele>130.0</ele><time>2026-04-11T17:27:01.023Z</time></trkpt><trkpt lat="42.1478888" lon="11.9882386"><ele>130.0</ele><time>2026-04-11T17:27:02.022Z</time></trkpt><trkpt lat="42.1479671" lon="11.9884228"><ele>130.0</ele><time>2026-04-11T17:27:03.023Z</time></trkpt><trkpt lat="42.1480431" lon="11.988601"><ele>130.0</ele><time>2026-04-11T17:27:04.023Z</time></trkpt><trkpt lat="42.1481196" lon="11.9887661"><ele>130.0</ele><time>2026-04-11T17:27:05.022Z</time></trkpt><trkpt lat="42.1481934" lon="11.9889272"><ele>130.0</ele><time>2026-04-11T17:27:06.022Z</time></trkpt><trkpt lat="42.1482814" lon="11.9890872"><ele>130.0</ele><time>2026-04-11T17:27:07.022Z</time></trkpt><trkpt lat="42.1483947" lon="11.989227"><ele>130.0</ele><time>2026-04-11T17:27:08.023Z</time></trkpt><trkpt lat="42.1485213" lon="11.9893632"><ele>128.0</ele><time>2026-04-11T17:27:09.023Z</time></trkpt><trkpt lat="42.1486599" lon="11.9894885"><ele>126.0</ele><time>2026-04-11T17:27:10.022Z</time></trkpt><trkpt lat="42.1488016" lon="11.9896253"><ele>124.0</ele><time>2026-04-11T17:27:11.022Z</time></trkpt><trkpt lat="42.1489484" lon="11.9897594"><ele>124.0</ele><time>2026-04-11T17:27:12.022Z</time></trkpt><trkpt lat="42.1490939" lon="11.9898933"><ele>124.0</ele><time>2026-04-11T17:27:13.023Z</time></trkpt><trkpt lat="42.1492341" lon="11.9900157"><ele>124.0</ele><time>2026-04-11T17:27:14.023Z</time></trkpt><trkpt lat="42.1493654" lon="11.9901314"><ele>124.0</ele><time>2026-04-11T17:27:15.023Z</time></trkpt><trkpt lat="42.1494932" lon="11.9902375"><ele>124.0</ele><time>2026-04-11T17:27:16.023Z</time></trkpt><trkpt lat="42.1496032" lon="11.9903428"><ele>124.0</ele><time>2026-04-11T17:27:17.022Z</time></trkpt><trkpt lat="42.149698" lon="11.9904336"><ele>124.0</ele><time>2026-04-11T17:27:18.023Z</time></trkpt><trkpt lat="42.1497686" lon="11.9905246"><ele>124.0</ele><time>2026-04-11T17:27:19.022Z</time></trkpt><trkpt lat="42.1498152" lon="11.9906254"><ele>124.0</ele><time>2026-04-11T17:27:20.022Z</time></trkpt><trkpt lat="42.1498423" lon="11.9907494"><ele>124.0</ele><time>2026-04-11T17:27:21.023Z</time></trkpt><trkpt lat="42.1498506" lon="11.990879"><ele>124.0</ele><time>2026-04-11T17:27:22.022Z</time></trkpt><trkpt lat="42.1498429" lon="11.9910261"><ele>124.0</ele><time>2026-04-11T17:27:23.022Z</time></trkpt><trkpt lat="42.1498236" lon="11.9911806"><ele>124.0</ele><time>2026-04-11T17:27:24.023Z</time></trkpt><trkpt lat="42.1498029" lon="11.9913363"><ele>124.0</ele><time>2026-04-11T17:27:25.022Z</time></trkpt><trkpt lat="42.1497788" lon="11.9915052"><ele>124.0</ele><time>2026-04-11T17:27:26.023Z</time></trkpt><trkpt lat="42.1497532" lon="11.9916773"><ele>124.0</ele><time>2026-04-11T17:27:27.023Z</time></trkpt><trkpt lat="42.1497243" lon="11.99186"><ele>124.25</ele><time>2026-04-11T17:27:28.022Z</time></trkpt><trkpt lat="42.149691" lon="11.9920444"><ele>124.5</ele><time>2026-04-11T17:27:29.022Z</time></trkpt><trkpt lat="42.1496636" lon="11.992233"><ele>124.75</ele><time>2026-04-11T17:27:30.023Z</time></trkpt><trkpt lat="42.1496327" lon="11.9924275"><ele>125.0</ele><time>2026-04-11T17:27:31.023Z</time></trkpt><trkpt lat="42.1496012" lon="11.9926136"><ele>125.33333333333333</ele><time>2026-04-11T17:27:32.022Z</time></trkpt><trkpt lat="42.1495695" lon="11.9927975"><ele>125.66666666666666</ele><time>2026-04-11T17:27:33.022Z</time></trkpt><trkpt lat="42.1494983" lon="11.9930081"><ele>126.0</ele><time>2026-04-11T17:27:34.022Z</time></trkpt><trkpt lat="42.1494019" lon="11.9932156"><ele>126.0</ele><time>2026-04-11T17:27:35.023Z</time></trkpt><trkpt lat="42.1493403" lon="11.9933785"><ele>126.0</ele><time>2026-04-11T17:27:36.022Z</time></trkpt><trkpt lat="42.1492906" lon="11.9935684"><ele>126.0</ele><time>2026-04-11T17:27:37.023Z</time></trkpt><trkpt lat="42.1492274" lon="11.9937466"><ele>126.0</ele><time>2026-04-11T17:27:38.023Z</time></trkpt><trkpt lat="42.1491794" lon="11.9939158"><ele>126.0</ele><time>2026-04-11T17:27:39.022Z</time></trkpt><trkpt lat="42.1491391" lon="11.9940532"><ele>126.0</ele><time>2026-04-11T17:27:40.023Z</time></trkpt><trkpt lat="42.1491023" lon="11.994189"><ele>126.0</ele><time>2026-04-11T17:27:41.023Z</time></trkpt><trkpt lat="42.1490813" lon="11.99434"><ele>126.0</ele><time>2026-04-11T17:27:42.023Z</time></trkpt><trkpt lat="42.1490803" lon="11.9944893"><ele>126.0</ele><time>2026-04-11T17:27:43.022Z</time></trkpt><trkpt lat="42.1491072" lon="11.9946469"><ele>125.25</ele><time>2026-04-11T17:27:44.023Z</time></trkpt><trkpt lat="42.1491713" lon="11.9947904"><ele>124.5</ele><time>2026-04-11T17:27:45.022Z</time></trkpt><trkpt lat="42.1492551" lon="11.9949189"><ele>123.75</ele><time>2026-04-11T17:27:46.022Z</time></trkpt><trkpt lat="42.1493453" lon="11.9950471"><ele>123.0</ele><time>2026-04-11T17:27:47.022Z</time></trkpt><trkpt lat="42.1494374" lon="11.9951781"><ele>121.75</ele><time>2026-04-11T17:27:48.022Z</time></trkpt><trkpt lat="42.1495226" lon="11.9953059"><ele>120.5</ele><time>2026-04-11T17:27:49.023Z</time></trkpt><trkpt lat="42.1495971" lon="11.9954463"><ele>119.25</ele><time>2026-04-11T17:27:50.023Z</time></trkpt><trkpt lat="42.1496654" lon="11.9955956"><ele>118.0</ele><time>2026-04-11T17:27:51.023Z</time></trkpt><trkpt lat="42.1497344" lon="11.9957534"><ele>118.75</ele><time>2026-04-11T17:27:52.023Z</time></trkpt><trkpt lat="42.1497982" lon="11.9959184"><ele>119.5</ele><time>2026-04-11T17:27:53.022Z</time></trkpt><trkpt lat="42.1498605" lon="11.996095"><ele>120.25</ele><time>2026-04-11T17:27:54.022Z</time></trkpt><trkpt lat="42.149919" lon="11.9962886"><ele>121.0</ele><time>2026-04-11T17:27:55.023Z</time></trkpt><trkpt lat="42.149973" lon="11.9964896"><ele>121.33333333333334</ele><time>2026-04-11T17:27:56.023Z</time></trkpt><trkpt lat="42.1500225" lon="11.9966853"><ele>121.66666666666666</ele><time>2026-04-11T17:27:57.022Z</time></trkpt><trkpt lat="42.1500723" lon="11.9968884"><ele>122.0</ele><time>2026-04-11T17:27:58.023Z</time></trkpt><trkpt lat="42.1501251" lon="11.9970888"><ele>122.0</ele><time>2026-04-11T17:27:59.023Z</time></trkpt><trkpt lat="42.1501818" lon="11.9972897"><ele>122.0</ele><time>2026-04-11T17:28:00.023Z</time></trkpt><trkpt lat="42.1502382" lon="11.9974893"><ele>122.0</ele><time>2026-04-11T17:28:01.023Z</time></trkpt><trkpt lat="42.1502959" lon="11.9976933"><ele>122.33333333333333</ele><time>2026-04-11T17:28:02.023Z</time></trkpt><trkpt lat="42.1503438" lon="11.9978981"><ele>122.66666666666666</ele><time>2026-04-11T17:28:03.023Z</time></trkpt><trkpt lat="42.150385" lon="11.99811"><ele>123.0</ele><time>2026-04-11T17:28:04.023Z</time></trkpt><trkpt lat="42.1504192" lon="11.9983268"><ele>122.0</ele><time>2026-04-11T17:28:05.022Z</time></trkpt><trkpt lat="42.1504457" lon="11.9985523"><ele>121.0</ele><time>2026-04-11T17:28:06.022Z</time></trkpt><trkpt lat="42.1504737" lon="11.9987771"><ele>120.0</ele><time>2026-04-11T17:28:07.023Z</time></trkpt><trkpt lat="42.1504978" lon="11.9990002"><ele>120.0</ele><time>2026-04-11T17:28:08.022Z</time></trkpt><trkpt lat="42.1505242" lon="11.9992349"><ele>120.0</ele><time>2026-04-11T17:28:09.022Z</time></trkpt><trkpt lat="42.1505528" lon="11.9994419"><ele>120.0</ele><time>2026-04-11T17:28:10.022Z</time></trkpt><trkpt lat="42.1505877" lon="11.9996337"><ele>120.0</ele><time>2026-04-11T17:28:11.023Z</time></trkpt><trkpt lat="42.1506468" lon="11.9998253"><ele>120.0</ele><time>2026-04-11T17:28:12.023Z</time></trkpt><trkpt lat="42.1507083" lon="12.000008"><ele>120.0</ele><time>2026-04-11T17:28:13.022Z</time></trkpt><trkpt lat="42.1507876" lon="12.0002013"><ele>120.33333333333334</ele><time>2026-04-11T17:28:14.022Z</time></trkpt><trkpt lat="42.1508723" lon="12.0003846"><ele>120.66666666666667</ele><time>2026-04-11T17:28:15.022Z</time></trkpt><trkpt lat="42.1509704" lon="12.0005779"><ele>121.0</ele><time>2026-04-11T17:28:16.023Z</time></trkpt><trkpt lat="42.151067" lon="12.0007263"><ele>119.33333333333334</ele><time>2026-04-11T17:28:17.022Z</time></trkpt><trkpt lat="42.1511451" lon="12.0008999"><ele>117.66666666666666</ele><time>2026-04-11T17:28:18.022Z</time></trkpt><trkpt lat="42.1512106" lon="12.0010917"><ele>116.0</ele><time>2026-04-11T17:28:19.022Z</time></trkpt><trkpt lat="42.1513093" lon="12.0012516"><ele>116.0</ele><time>2026-04-11T17:28:20.023Z</time></trkpt><trkpt lat="42.1513996" lon="12.0014162"><ele>116.0</ele><time>2026-04-11T17:28:21.023Z</time></trkpt><trkpt lat="42.1514752" lon="12.0015858"><ele>116.0</ele><time>2026-04-11T17:28:22.023Z</time></trkpt><trkpt lat="42.1515219" lon="12.0017758"><ele>116.0</ele><time>2026-04-11T17:28:23.023Z</time></trkpt><trkpt lat="42.1515484" lon="12.0019622"><ele>117.0</ele><time>2026-04-11T17:28:24.023Z</time></trkpt><trkpt lat="42.151577" lon="12.0021384"><ele>118.0</ele><time>2026-04-11T17:28:25.022Z</time></trkpt><trkpt lat="42.1516045" lon="12.0023487"><ele>119.0</ele><time>2026-04-11T17:28:26.023Z</time></trkpt><trkpt lat="42.1516447" lon="12.0025619"><ele>119.0</ele><time>2026-04-11T17:28:27.023Z</time></trkpt><trkpt lat="42.1516874" lon="12.0027776"><ele>119.0</ele><time>2026-04-11T17:28:28.023Z</time></trkpt><trkpt lat="42.1517454" lon="12.0030047"><ele>119.0</ele><time>2026-04-11T17:28:29.023Z</time></trkpt><trkpt lat="42.1518076" lon="12.0032258"><ele>118.0</ele><time>2026-04-11T17:28:30.022Z</time></trkpt><trkpt lat="42.1518848" lon="12.0034504"><ele>117.0</ele><time>2026-04-11T17:28:31.022Z</time></trkpt><trkpt lat="42.1519454" lon="12.0036746"><ele>116.0</ele><time>2026-04-11T17:28:32.023Z</time></trkpt><trkpt lat="42.1520111" lon="12.0038906"><ele>116.0</ele><time>2026-04-11T17:28:33.023Z</time></trkpt><trkpt lat="42.1520649" lon="12.0041105"><ele>116.0</ele><time>2026-04-11T17:28:34.023Z</time></trkpt><trkpt lat="42.1520987" lon="12.0043384"><ele>116.0</ele><time>2026-04-11T17:28:35.022Z</time></trkpt><trkpt lat="42.1521225" lon="12.0045601"><ele>116.0</ele><time>2026-04-11T17:28:36.023Z</time></trkpt><trkpt lat="42.1521176" lon="12.0047662"><ele>116.0</ele><time>2026-04-11T17:28:37.023Z</time></trkpt><trkpt lat="42.1521014" lon="12.0049741"><ele>116.0</ele><time>2026-04-11T17:28:38.023Z</time></trkpt><trkpt lat="42.1520683" lon="12.0051615"><ele>116.5</ele><time>2026-04-11T17:28:39.022Z</time></trkpt><trkpt lat="42.1520433" lon="12.005337"><ele>117.0</ele><time>2026-04-11T17:28:40.022Z</time></trkpt><trkpt lat="42.1520174" lon="12.0055229"><ele>117.5</ele><time>2026-04-11T17:28:41.023Z</time></trkpt><trkpt lat="42.1520124" lon="12.0056806"><ele>118.0</ele><time>2026-04-11T17:28:42.023Z</time></trkpt><trkpt lat="42.1520472" lon="12.0058096"><ele>117.75</ele><time>2026-04-11T17:28:43.023Z</time></trkpt><trkpt lat="42.1520978" lon="12.0059088"><ele>117.5</ele><time>2026-04-11T17:28:44.023Z</time></trkpt><trkpt lat="42.1521318" lon="12.0060327"><ele>117.25</ele><time>2026-04-11T17:28:45.023Z</time></trkpt><trkpt lat="42.1521497" lon="12.0062125"><ele>117.0</ele><time>2026-04-11T17:28:46.022Z</time></trkpt><trkpt lat="42.1521906" lon="12.0063784"><ele>117.0</ele><time>2026-04-11T17:28:47.022Z</time></trkpt><trkpt lat="42.1522284" lon="12.0065436"><ele>117.0</ele><time>2026-04-11T17:28:48.022Z</time></trkpt><trkpt lat="42.1522663" lon="12.0066979"><ele>117.0</ele><time>2026-04-11T17:28:49.022Z</time></trkpt><trkpt lat="42.152303" lon="12.0068479"><ele>117.0</ele><time>2026-04-11T17:28:50.023Z</time></trkpt><trkpt lat="42.152347" lon="12.0069904"><ele>117.5</ele><time>2026-04-11T17:28:51.023Z</time></trkpt><trkpt lat="42.1524054" lon="12.0071312"><ele>118.0</ele><time>2026-04-11T17:28:52.022Z</time></trkpt><trkpt lat="42.1524794" lon="12.0072717"><ele>118.5</ele><time>2026-04-11T17:28:53.023Z</time></trkpt><trkpt lat="42.1525614" lon="12.0074091"><ele>119.0</ele><time>2026-04-11T17:28:54.022Z</time></trkpt><trkpt lat="42.1526272" lon="12.0075445"><ele>118.33333333333333</ele><time>2026-04-11T17:28:55.023Z</time></trkpt><trkpt lat="42.1526769" lon="12.0076625"><ele>117.66666666666666</ele><time>2026-04-11T17:28:56.023Z</time></trkpt><trkpt lat="42.1527197" lon="12.0077781"><ele>117.0</ele><time>2026-04-11T17:28:57.022Z</time></trkpt><trkpt lat="42.1527508" lon="12.0078764"><ele>116.33333333333334</ele><time>2026-04-11T17:28:58.023Z</time></trkpt><trkpt lat="42.1527722" lon="12.0079903"><ele>115.66666666666667</ele><time>2026-04-11T17:28:59.023Z</time></trkpt><trkpt lat="42.152777" lon="12.0081054"><ele>115.0</ele><time>2026-04-11T17:29:00.023Z</time></trkpt><trkpt lat="42.1527712" lon="12.008236"><ele>114.8</ele><time>2026-04-11T17:29:01.022Z</time></trkpt><trkpt lat="42.1527648" lon="12.0083753"><ele>114.6</ele><time>2026-04-11T17:29:02.023Z</time></trkpt><trkpt lat="42.1527517" lon="12.0084946"><ele>114.4</ele><time>2026-04-11T17:29:03.022Z</time></trkpt><trkpt lat="42.1527198" lon="12.0086253"><ele>114.2</ele><time>2026-04-11T17:29:04.022Z</time></trkpt><trkpt lat="42.1526949" lon="12.0087715"><ele>114.0</ele><time>2026-04-11T17:29:05.023Z</time></trkpt><trkpt lat="42.1526545" lon="12.0089276"><ele>114.0</ele><time>2026-04-11T17:29:06.023Z</time></trkpt><trkpt lat="42.152634" lon="12.0090752"><ele>114.0</ele><time>2026-04-11T17:29:07.022Z</time></trkpt><trkpt lat="42.152604" lon="12.0092265"><ele>114.0</ele><time>2026-04-11T17:29:08.022Z</time></trkpt><trkpt lat="42.1525663" lon="12.009379"><ele>114.0</ele><time>2026-04-11T17:29:09.022Z</time></trkpt><trkpt lat="42.152538" lon="12.0095339"><ele>114.2</ele><time>2026-04-11T17:29:10.022Z</time></trkpt><trkpt lat="42.1525095" lon="12.009674"><ele>114.4</ele><time>2026-04-11T17:29:11.023Z</time></trkpt><trkpt lat="42.1524679" lon="12.0098051"><ele>114.6</ele><time>2026-04-11T17:29:12.023Z</time></trkpt><trkpt lat="42.152437" lon="12.0099268"><ele>114.8</ele><time>2026-04-11T17:29:13.023Z</time></trkpt><trkpt lat="42.1524113" lon="12.0100415"><ele>115.0</ele><time>2026-04-11T17:29:14.023Z</time></trkpt><trkpt lat="42.1523832" lon="12.0101735"><ele>118.0</ele><time>2026-04-11T17:29:15.023Z</time></trkpt><trkpt lat="42.1523583" lon="12.0103133"><ele>121.0</ele><time>2026-04-11T17:29:16.023Z</time></trkpt><trkpt lat="42.1523252" lon="12.0104575"><ele>124.0</ele><time>2026-04-11T17:29:17.022Z</time></trkpt><trkpt lat="42.1522952" lon="12.0106093"><ele>127.0</ele><time>2026-04-11T17:29:18.022Z</time></trkpt><trkpt lat="42.1522649" lon="12.0107508"><ele>130.0</ele><time>2026-04-11T17:29:19.022Z</time></trkpt><trkpt lat="42.1522287" lon="12.010917"><ele>130.0</ele><time>2026-04-11T17:29:20.023Z</time></trkpt><trkpt lat="42.1521937" lon="12.0110704"><ele>130.0</ele><time>2026-04-11T17:29:21.022Z</time></trkpt><trkpt lat="42.1521608" lon="12.0112147"><ele>130.0</ele><time>2026-04-11T17:29:22.023Z</time></trkpt><trkpt lat="42.1521239" lon="12.0113615"><ele>130.0</ele><time>2026-04-11T17:29:23.022Z</time></trkpt><trkpt lat="42.1520717" lon="12.0115077"><ele>130.0</ele><time>2026-04-11T17:29:24.023Z</time></trkpt><trkpt lat="42.1520037" lon="12.0116474"><ele>130.0</ele><time>2026-04-11T17:29:25.023Z</time></trkpt><trkpt lat="42.151916" lon="12.0117742"><ele>130.0</ele><time>2026-04-11T17:29:26.023Z</time></trkpt><trkpt lat="42.1518228" lon="12.0118961"><ele>130.0</ele><time>2026-04-11T17:29:27.023Z</time></trkpt><trkpt lat="42.1517358" lon="12.0120148"><ele>129.75</ele><time>2026-04-11T17:29:28.023Z</time></trkpt><trkpt lat="42.1516411" lon="12.0121315"><ele>129.5</ele><time>2026-04-11T17:29:29.022Z</time></trkpt><trkpt lat="42.1515621" lon="12.0122496"><ele>129.25</ele><time>2026-04-11T17:29:30.023Z</time></trkpt><trkpt lat="42.151473" lon="12.0123714"><ele>129.0</ele><time>2026-04-11T17:29:31.023Z</time></trkpt><trkpt lat="42.1513849" lon="12.0124989"><ele>129.0</ele><time>2026-04-11T17:29:32.023Z</time></trkpt><trkpt lat="42.1512923" lon="12.0126209"><ele>129.0</ele><time>2026-04-11T17:29:33.023Z</time></trkpt><trkpt lat="42.1512064" lon="12.0127397"><ele>129.0</ele><time>2026-04-11T17:29:34.022Z</time></trkpt><trkpt lat="42.1511153" lon="12.0128438"><ele>129.0</ele><time>2026-04-11T17:29:35.022Z</time></trkpt><trkpt lat="42.1510182" lon="12.0129276"><ele>129.0</ele><time>2026-04-11T17:29:36.023Z</time></trkpt><trkpt lat="42.1509151" lon="12.0129829"><ele>129.0</ele><time>2026-04-11T17:29:37.022Z</time></trkpt><trkpt lat="42.1507992" lon="12.0130158"><ele>129.0</ele><time>2026-04-11T17:29:38.023Z</time></trkpt><trkpt lat="42.1506715" lon="12.0130173"><ele>129.0</ele><time>2026-04-11T17:29:39.023Z</time></trkpt><trkpt lat="42.1505319" lon="12.0130014"><ele>130.33333333333334</ele><time>2026-04-11T17:29:40.023Z</time></trkpt><trkpt lat="42.1503978" lon="12.0129677"><ele>131.66666666666669</ele><time>2026-04-11T17:29:41.022Z</time></trkpt><trkpt lat="42.1502424" lon="12.0129254"><ele>133.0</ele><time>2026-04-11T17:29:42.022Z</time></trkpt><trkpt lat="42.1500804" lon="12.0128792"><ele>133.0</ele><time>2026-04-11T17:29:43.022Z</time></trkpt><trkpt lat="42.1499386" lon="12.0128183"><ele>133.0</ele><time>2026-04-11T17:29:44.022Z</time></trkpt><trkpt lat="42.1498279" lon="12.0127494"><ele>133.0</ele><time>2026-04-11T17:29:45.023Z</time></trkpt><trkpt lat="42.1497232" lon="12.0126757"><ele>133.0</ele><time>2026-04-11T17:29:46.022Z</time></trkpt><trkpt lat="42.1495951" lon="12.0126477"><ele>131.5</ele><time>2026-04-11T17:29:47.023Z</time></trkpt><trkpt lat="42.1494544" lon="12.0126307"><ele>130.0</ele><time>2026-04-11T17:29:48.023Z</time></trkpt><trkpt lat="42.1493016" lon="12.0126603"><ele>128.5</ele><time>2026-04-11T17:29:49.023Z</time></trkpt><trkpt lat="42.1491564" lon="12.0127115"><ele>127.0</ele><time>2026-04-11T17:29:50.023Z</time></trkpt><trkpt lat="42.1490201" lon="12.0127796"><ele>126.5</ele><time>2026-04-11T17:29:51.022Z</time></trkpt><trkpt lat="42.1488808" lon="12.0128544"><ele>126.0</ele><time>2026-04-11T17:29:52.023Z</time></trkpt><trkpt lat="42.1487479" lon="12.0129259"><ele>125.5</ele><time>2026-04-11T17:29:53.022Z</time></trkpt><trkpt lat="42.148608" lon="12.0129972"><ele>125.0</ele><time>2026-04-11T17:29:54.022Z</time></trkpt><trkpt lat="42.1484629" lon="12.0130714"><ele>125.0</ele><time>2026-04-11T17:29:55.023Z</time></trkpt><trkpt lat="42.1483162" lon="12.0131426"><ele>125.0</ele><time>2026-04-11T17:29:56.022Z</time></trkpt><trkpt lat="42.148174" lon="12.0132155"><ele>125.0</ele><time>2026-04-11T17:29:57.023Z</time></trkpt><trkpt lat="42.1480377" lon="12.0132933"><ele>124.2</ele><time>2026-04-11T17:29:58.022Z</time></trkpt><trkpt lat="42.1479046" lon="12.0133679"><ele>123.4</ele><time>2026-04-11T17:29:59.022Z</time></trkpt><trkpt lat="42.1477855" lon="12.0134289"><ele>122.6</ele><time>2026-04-11T17:30:00.023Z</time></trkpt><trkpt lat="42.1476909" lon="12.0134675"><ele>121.8</ele><time>2026-04-11T17:30:01.023Z</time></trkpt><trkpt lat="42.1476214" lon="12.0134864"><ele>121.0</ele><time>2026-04-11T17:30:02.023Z</time></trkpt><trkpt lat="42.1475497" lon="12.013504"><ele>121.0</ele><time>2026-04-11T17:30:04.022Z</time></trkpt><trkpt lat="42.1474721" lon="12.0135256"><ele>121.0</ele><time>2026-04-11T17:30:06.023Z</time></trkpt><trkpt lat="42.1473885" lon="12.0135441"><ele>121.0</ele><time>2026-04-11T17:30:08.023Z</time></trkpt><trkpt lat="42.1472781" lon="12.0136019"><ele>121.0</ele><time>2026-04-11T17:30:10.022Z</time></trkpt><trkpt lat="42.1472036" lon="12.0136402"><ele>121.0</ele><time>2026-04-11T17:30:11.023Z</time></trkpt><trkpt lat="42.1471198" lon="12.0136832"><ele>122.5</ele><time>2026-04-11T17:30:12.022Z</time></trkpt><trkpt lat="42.1470279" lon="12.0137335"><ele>124.0</ele><time>2026-04-11T17:30:13.023Z</time></trkpt><trkpt lat="42.1469275" lon="12.0137968"><ele>125.5</ele><time>2026-04-11T17:30:14.022Z</time></trkpt><trkpt lat="42.1468183" lon="12.0138754"><ele>127.0</ele><time>2026-04-11T17:30:15.022Z</time></trkpt><trkpt lat="42.1467049" lon="12.0139618"><ele>127.0</ele><time>2026-04-11T17:30:16.023Z</time></trkpt><trkpt lat="42.1466006" lon="12.0140476"><ele>127.0</ele><time>2026-04-11T17:30:17.023Z</time></trkpt><trkpt lat="42.1465002" lon="12.0141375"><ele>127.0</ele><time>2026-04-11T17:30:18.023Z</time></trkpt><trkpt lat="42.1464112" lon="12.014235"><ele>127.0</ele><time>2026-04-11T17:30:19.022Z</time></trkpt><trkpt lat="42.1463257" lon="12.014334"><ele>125.25</ele><time>2026-04-11T17:30:20.022Z</time></trkpt><trkpt lat="42.1462398" lon="12.0144396"><ele>123.5</ele><time>2026-04-11T17:30:21.022Z</time></trkpt><trkpt lat="42.1461532" lon="12.0145508"><ele>121.75</ele><time>2026-04-11T17:30:22.023Z</time></trkpt><trkpt lat="42.1460639" lon="12.0146726"><ele>120.0</ele><time>2026-04-11T17:30:23.022Z</time></trkpt><trkpt lat="42.1459753" lon="12.0147991"><ele>120.0</ele><time>2026-04-11T17:30:24.023Z</time></trkpt><trkpt lat="42.1458927" lon="12.0149219"><ele>120.0</ele><time>2026-04-11T17:30:25.023Z</time></trkpt><trkpt lat="42.1458175" lon="12.015034"><ele>120.0</ele><time>2026-04-11T17:30:26.022Z</time></trkpt><trkpt lat="42.1457326" lon="12.0151471"><ele>120.0</ele><time>2026-04-11T17:30:27.023Z</time></trkpt><trkpt lat="42.1456483" lon="12.0152759"><ele>122.6</ele><time>2026-04-11T17:30:28.022Z</time></trkpt><trkpt lat="42.1455696" lon="12.01539"><ele>125.2</ele><time>2026-04-11T17:30:29.022Z</time></trkpt><trkpt lat="42.1454905" lon="12.0154902"><ele>127.80000000000001</ele><time>2026-04-11T17:30:30.022Z</time></trkpt><trkpt lat="42.1453987" lon="12.0155682"><ele>130.4</ele><time>2026-04-11T17:30:31.022Z</time></trkpt><trkpt lat="42.1453032" lon="12.0156436"><ele>133.0</ele><time>2026-04-11T17:30:32.023Z</time></trkpt><trkpt lat="42.1452051" lon="12.0157123"><ele>133.0</ele><time>2026-04-11T17:30:33.023Z</time></trkpt><trkpt lat="42.1450993" lon="12.0157802"><ele>133.0</ele><time>2026-04-11T17:30:34.022Z</time></trkpt><trkpt lat="42.1449944" lon="12.0158441"><ele>133.0</ele><time>2026-04-11T17:30:35.023Z</time></trkpt><trkpt lat="42.1448822" lon="12.0159098"><ele>133.0</ele><time>2026-04-11T17:30:36.023Z</time></trkpt><trkpt lat="42.1447704" lon="12.015978"><ele>131.25</ele><time>2026-04-11T17:30:37.023Z</time></trkpt><trkpt lat="42.1446585" lon="12.0160521"><ele>129.5</ele><time>2026-04-11T17:30:38.022Z</time></trkpt><trkpt lat="42.1445459" lon="12.0161254"><ele>127.75</ele><time>2026-04-11T17:30:39.023Z</time></trkpt><trkpt lat="42.144431" lon="12.0161982"><ele>126.0</ele><time>2026-04-11T17:30:40.023Z</time></trkpt><trkpt lat="42.1443107" lon="12.0162743"><ele>126.0</ele><time>2026-04-11T17:30:41.022Z</time></trkpt><trkpt lat="42.1441926" lon="12.0163473"><ele>126.0</ele><time>2026-04-11T17:30:42.023Z</time></trkpt><trkpt lat="42.1440769" lon="12.0164205"><ele>126.0</ele><time>2026-04-11T17:30:43.023Z</time></trkpt><trkpt lat="42.1439595" lon="12.0165019"><ele>126.0</ele><time>2026-04-11T17:30:44.023Z</time></trkpt><trkpt lat="42.1438408" lon="12.0165776"><ele>124.5</ele><time>2026-04-11T17:30:45.023Z</time></trkpt><trkpt lat="42.1437224" lon="12.0166533"><ele>123.0</ele><time>2026-04-11T17:30:46.022Z</time></trkpt><trkpt lat="42.1436089" lon="12.0167305"><ele>121.5</ele><time>2026-04-11T17:30:47.023Z</time></trkpt><trkpt lat="42.1434957" lon="12.0168014"><ele>120.0</ele><time>2026-04-11T17:30:48.022Z</time></trkpt><trkpt lat="42.1433848" lon="12.0168718"><ele>120.0</ele><time>2026-04-11T17:30:49.023Z</time></trkpt><trkpt lat="42.1432728" lon="12.0169346"><ele>120.0</ele><time>2026-04-11T17:30:50.023Z</time></trkpt><trkpt lat="42.1431545" lon="12.0169938"><ele>120.0</ele><time>2026-04-11T17:30:51.024Z</time></trkpt><trkpt lat="42.1430284" lon="12.0170439"><ele>120.0</ele><time>2026-04-11T17:30:52.024Z</time></trkpt><trkpt lat="42.1429004" lon="12.0170956"><ele>121.25</ele><time>2026-04-11T17:30:53.024Z</time></trkpt><trkpt lat="42.142773" lon="12.0171415"><ele>122.5</ele><time>2026-04-11T17:30:54.024Z</time></trkpt><trkpt lat="42.142646" lon="12.0171788"><ele>123.75</ele><time>2026-04-11T17:30:55.024Z</time></trkpt><trkpt lat="42.1425235" lon="12.0172206"><ele>125.0</ele><time>2026-04-11T17:30:56.024Z</time></trkpt><trkpt lat="42.1424109" lon="12.0172581"><ele>124.5</ele><time>2026-04-11T17:30:57.023Z</time></trkpt><trkpt lat="42.142311" lon="12.0173062"><ele>124.0</ele><time>2026-04-11T17:30:58.023Z</time></trkpt><trkpt lat="42.1422142" lon="12.0173755"><ele>123.5</ele><time>2026-04-11T17:30:59.023Z</time></trkpt><trkpt lat="42.1421244" lon="12.0174771"><ele>123.0</ele><time>2026-04-11T17:31:00.023Z</time></trkpt><trkpt lat="42.1420462" lon="12.0175966"><ele>121.25</ele><time>2026-04-11T17:31:01.023Z</time></trkpt><trkpt lat="42.1419951" lon="12.0177398"><ele>119.5</ele><time>2026-04-11T17:31:02.023Z</time></trkpt><trkpt lat="42.1419598" lon="12.0179012"><ele>117.75</ele><time>2026-04-11T17:31:03.023Z</time></trkpt><trkpt lat="42.1419312" lon="12.0180555"><ele>116.0</ele><time>2026-04-11T17:31:04.024Z</time></trkpt><trkpt lat="42.1419036" lon="12.0182163"><ele>116.25</ele><time>2026-04-11T17:31:05.023Z</time></trkpt><trkpt lat="42.1418739" lon="12.0183767"><ele>116.5</ele><time>2026-04-11T17:31:06.024Z</time></trkpt><trkpt lat="42.1418444" lon="12.0185383"><ele>116.75</ele><time>2026-04-11T17:31:07.023Z</time></trkpt><trkpt lat="42.1418069" lon="12.0187108"><ele>117.0</ele><time>2026-04-11T17:31:08.024Z</time></trkpt><trkpt lat="42.1417706" lon="12.0188833"><ele>117.0</ele><time>2026-04-11T17:31:09.023Z</time></trkpt><trkpt lat="42.14173" lon="12.0190536"><ele>117.0</ele><time>2026-04-11T17:31:10.024Z</time></trkpt><trkpt lat="42.1416882" lon="12.019224"><ele>117.0</ele><time>2026-04-11T17:31:11.024Z</time></trkpt><trkpt lat="42.1416476" lon="12.0193918"><ele>117.0</ele><time>2026-04-11T17:31:12.024Z</time></trkpt><trkpt lat="42.1416106" lon="12.0195637"><ele>118.0</ele><time>2026-04-11T17:31:13.023Z</time></trkpt><trkpt lat="42.1415727" lon="12.0197245"><ele>119.0</ele><time>2026-04-11T17:31:14.024Z</time></trkpt><trkpt lat="42.1415344" lon="12.0198661"><ele>120.0</ele><time>2026-04-11T17:31:15.024Z</time></trkpt><trkpt lat="42.1414919" lon="12.0200029"><ele>121.0</ele><time>2026-04-11T17:31:16.024Z</time></trkpt><trkpt lat="42.1414272" lon="12.0201168"><ele>123.75</ele><time>2026-04-11T17:31:17.024Z</time></trkpt><trkpt lat="42.1413524" lon="12.0202361"><ele>126.5</ele><time>2026-04-11T17:31:18.024Z</time></trkpt><trkpt lat="42.1412666" lon="12.0203432"><ele>129.25</ele><time>2026-04-11T17:31:19.024Z</time></trkpt><trkpt lat="42.1411653" lon="12.020422"><ele>132.0</ele><time>2026-04-11T17:31:20.024Z</time></trkpt><trkpt lat="42.1410563" lon="12.020482"><ele>132.0</ele><time>2026-04-11T17:31:21.024Z</time></trkpt><trkpt lat="42.140943" lon="12.0205305"><ele>132.0</ele><time>2026-04-11T17:31:22.023Z</time></trkpt><trkpt lat="42.1408236" lon="12.0205726"><ele>132.0</ele><time>2026-04-11T17:31:23.024Z</time></trkpt><trkpt lat="42.1407027" lon="12.0206002"><ele>132.0</ele><time>2026-04-11T17:31:24.023Z</time></trkpt><trkpt lat="42.14058" lon="12.0206168"><ele>133.75</ele><time>2026-04-11T17:31:25.024Z</time></trkpt><trkpt lat="42.1404583" lon="12.0206183"><ele>135.5</ele><time>2026-04-11T17:31:26.024Z</time></trkpt><trkpt lat="42.1403292" lon="12.0206226"><ele>137.25</ele><time>2026-04-11T17:31:27.023Z</time></trkpt><trkpt lat="42.1402039" lon="12.0206292"><ele>139.0</ele><time>2026-04-11T17:31:28.024Z</time></trkpt><trkpt lat="42.1400846" lon="12.0206363"><ele>139.0</ele><time>2026-04-11T17:31:29.023Z</time></trkpt><trkpt lat="42.1399728" lon="12.0206494"><ele>139.0</ele><time>2026-04-11T17:31:30.024Z</time></trkpt><trkpt lat="42.1398651" lon="12.0206755"><ele>139.0</ele><time>2026-04-11T17:31:31.023Z</time></trkpt><trkpt lat="42.1397621" lon="12.0207166"><ele>139.0</ele><time>2026-04-11T17:31:32.024Z</time></trkpt><trkpt lat="42.1396623" lon="12.020775"><ele>139.0</ele><time>2026-04-11T17:31:33.024Z</time></trkpt><trkpt lat="42.1395554" lon="12.0208535"><ele>136.75</ele><time>2026-04-11T17:31:34.024Z</time></trkpt><trkpt lat="42.139444" lon="12.0209364"><ele>134.5</ele><time>2026-04-11T17:31:35.024Z</time></trkpt><trkpt lat="42.1393291" lon="12.0210233"><ele>132.25</ele><time>2026-04-11T17:31:36.023Z</time></trkpt><trkpt lat="42.1392174" lon="12.0211001"><ele>130.0</ele><time>2026-04-11T17:31:37.024Z</time></trkpt><trkpt lat="42.1391165" lon="12.0211782"><ele>133.0</ele><time>2026-04-11T17:31:38.024Z</time></trkpt><trkpt lat="42.1390189" lon="12.0212569"><ele>136.0</ele><time>2026-04-11T17:31:39.024Z</time></trkpt><trkpt lat="42.1389274" lon="12.0213523"><ele>139.0</ele><time>2026-04-11T17:31:40.024Z</time></trkpt><trkpt lat="42.1388441" lon="12.0214533"><ele>142.0</ele><time>2026-04-11T17:31:41.024Z</time></trkpt><trkpt lat="42.1387811" lon="12.0215761"><ele>138.0</ele><time>2026-04-11T17:31:42.024Z</time></trkpt><trkpt lat="42.1387352" lon="12.0217111"><ele>134.0</ele><time>2026-04-11T17:31:43.023Z</time></trkpt><trkpt lat="42.1387036" lon="12.0218586"><ele>130.0</ele><time>2026-04-11T17:31:44.024Z</time></trkpt><trkpt lat="42.1386777" lon="12.0220181"><ele>126.0</ele><time>2026-04-11T17:31:45.024Z</time></trkpt><trkpt lat="42.1386584" lon="12.0221899"><ele>126.0</ele><time>2026-04-11T17:31:46.023Z</time></trkpt><trkpt lat="42.1386347" lon="12.0223754"><ele>126.0</ele><time>2026-04-11T17:31:47.023Z</time></trkpt><trkpt lat="42.1386102" lon="12.0225632"><ele>126.0</ele><time>2026-04-11T17:31:48.024Z</time></trkpt><trkpt lat="42.1385841" lon="12.0227471"><ele>126.0</ele><time>2026-04-11T17:31:49.023Z</time></trkpt><trkpt lat="42.1385534" lon="12.0229338"><ele>125.25</ele><time>2026-04-11T17:31:50.023Z</time></trkpt><trkpt lat="42.138535" lon="12.0230991"><ele>124.5</ele><time>2026-04-11T17:31:51.024Z</time></trkpt><trkpt lat="42.1385161" lon="12.0232509"><ele>123.75</ele><time>2026-04-11T17:31:52.023Z</time></trkpt><trkpt lat="42.1385103" lon="12.0234036"><ele>123.0</ele><time>2026-04-11T17:31:53.024Z</time></trkpt><trkpt lat="42.1385208" lon="12.0235501"><ele>123.0</ele><time>2026-04-11T17:31:54.023Z</time></trkpt><trkpt lat="42.1385462" lon="12.0236908"><ele>123.0</ele><time>2026-04-11T17:31:55.023Z</time></trkpt><trkpt lat="42.1385875" lon="12.0238329"><ele>123.0</ele><time>2026-04-11T17:31:56.024Z</time></trkpt><trkpt lat="42.1386327" lon="12.0239785"><ele>123.0</ele><time>2026-04-11T17:31:57.024Z</time></trkpt><trkpt lat="42.13869" lon="12.0241185"><ele>123.5</ele><time>2026-04-11T17:31:58.024Z</time></trkpt><trkpt lat="42.1387545" lon="12.024261"><ele>124.0</ele><time>2026-04-11T17:31:59.023Z</time></trkpt><trkpt lat="42.1388174" lon="12.0244226"><ele>124.5</ele><time>2026-04-11T17:32:00.024Z</time></trkpt><trkpt lat="42.1388833" lon="12.0245863"><ele>125.0</ele><time>2026-04-11T17:32:01.024Z</time></trkpt><trkpt lat="42.1389549" lon="12.024752"><ele>125.0</ele><time>2026-04-11T17:32:02.024Z</time></trkpt><trkpt lat="42.1390256" lon="12.0249152"><ele>125.0</ele><time>2026-04-11T17:32:03.023Z</time></trkpt><trkpt lat="42.1390972" lon="12.0250771"><ele>125.0</ele><time>2026-04-11T17:32:04.024Z</time></trkpt><trkpt lat="42.139167" lon="12.0252465"><ele>125.0</ele><time>2026-04-11T17:32:05.024Z</time></trkpt><trkpt lat="42.1392396" lon="12.0254137"><ele>124.5</ele><time>2026-04-11T17:32:06.023Z</time></trkpt><trkpt lat="42.1393108" lon="12.0255772"><ele>124.0</ele><time>2026-04-11T17:32:07.023Z</time></trkpt><trkpt lat="42.1393825" lon="12.0257412"><ele>123.5</ele><time>2026-04-11T17:32:08.023Z</time></trkpt><trkpt lat="42.1394466" lon="12.0259005"><ele>123.0</ele><time>2026-04-11T17:32:09.024Z</time></trkpt><trkpt lat="42.1395141" lon="12.0260626"><ele>123.0</ele><time>2026-04-11T17:32:10.024Z</time></trkpt><trkpt lat="42.1395833" lon="12.0262186"><ele>123.0</ele><time>2026-04-11T17:32:11.024Z</time></trkpt><trkpt lat="42.139652" lon="12.0263769"><ele>123.0</ele><time>2026-04-11T17:32:12.024Z</time></trkpt><trkpt lat="42.1397164" lon="12.0265427"><ele>123.0</ele><time>2026-04-11T17:32:13.024Z</time></trkpt><trkpt lat="42.1397829" lon="12.0266977"><ele>122.75</ele><time>2026-04-11T17:32:14.024Z</time></trkpt><trkpt lat="42.1398469" lon="12.0268481"><ele>122.5</ele><time>2026-04-11T17:32:15.023Z</time></trkpt><trkpt lat="42.1399075" lon="12.0269923"><ele>122.25</ele><time>2026-04-11T17:32:16.023Z</time></trkpt><trkpt lat="42.1399603" lon="12.0271364"><ele>122.0</ele><time>2026-04-11T17:32:17.024Z</time></trkpt><trkpt lat="42.140011" lon="12.0272759"><ele>122.0</ele><time>2026-04-11T17:32:18.023Z</time></trkpt><trkpt lat="42.1400484" lon="12.0274298"><ele>122.0</ele><time>2026-04-11T17:32:19.023Z</time></trkpt><trkpt lat="42.140062" lon="12.0275986"><ele>122.0</ele><time>2026-04-11T17:32:20.023Z</time></trkpt><trkpt lat="42.1400553" lon="12.0277759"><ele>122.0</ele><time>2026-04-11T17:32:21.023Z</time></trkpt><trkpt lat="42.1400384" lon="12.0279622"><ele>123.0</ele><time>2026-04-11T17:32:22.024Z</time></trkpt><trkpt lat="42.1400219" lon="12.0281398"><ele>124.0</ele><time>2026-04-11T17:32:23.024Z</time></trkpt><trkpt lat="42.1400114" lon="12.0283231"><ele>125.0</ele><time>2026-04-11T17:32:24.024Z</time></trkpt><trkpt lat="42.1399992" lon="12.0285017"><ele>126.0</ele><time>2026-04-11T17:32:25.023Z</time></trkpt><trkpt lat="42.1399839" lon="12.0286966"><ele>126.0</ele><time>2026-04-11T17:32:26.023Z</time></trkpt><trkpt lat="42.1399669" lon="12.0288955"><ele>126.0</ele><time>2026-04-11T17:32:27.024Z</time></trkpt><trkpt lat="42.139954" lon="12.0290853"><ele>126.0</ele><time>2026-04-11T17:32:28.024Z</time></trkpt><trkpt lat="42.1399393" lon="12.0292735"><ele>126.0</ele><time>2026-04-11T17:32:29.024Z</time></trkpt><trkpt lat="42.1399212" lon="12.0294632"><ele>126.0</ele><time>2026-04-11T17:32:30.023Z</time></trkpt><trkpt lat="42.1398951" lon="12.0296517"><ele>126.0</ele><time>2026-04-11T17:32:31.024Z</time></trkpt><trkpt lat="42.1398609" lon="12.0298363"><ele>126.0</ele><time>2026-04-11T17:32:32.023Z</time></trkpt><trkpt lat="42.1398147" lon="12.0300186"><ele>126.0</ele><time>2026-04-11T17:32:33.024Z</time></trkpt><trkpt lat="42.1397632" lon="12.0302074"><ele>128.25</ele><time>2026-04-11T17:32:34.024Z</time></trkpt><trkpt lat="42.13971" lon="12.0303845"><ele>130.5</ele><time>2026-04-11T17:32:35.024Z</time></trkpt><trkpt lat="42.1396574" lon="12.0305661"><ele>132.75</ele><time>2026-04-11T17:32:36.023Z</time></trkpt><trkpt lat="42.1396082" lon="12.03074"><ele>135.0</ele><time>2026-04-11T17:32:37.024Z</time></trkpt><trkpt lat="42.139554" lon="12.0309106"><ele>135.0</ele><time>2026-04-11T17:32:38.024Z</time></trkpt><trkpt lat="42.1395009" lon="12.0310705"><ele>135.0</ele><time>2026-04-11T17:32:39.024Z</time></trkpt><trkpt lat="42.1394404" lon="12.0312305"><ele>135.0</ele><time>2026-04-11T17:32:40.023Z</time></trkpt><trkpt lat="42.139363" lon="12.0313809"><ele>135.0</ele><time>2026-04-11T17:32:41.024Z</time></trkpt><trkpt lat="42.1392746" lon="12.0315333"><ele>134.0</ele><time>2026-04-11T17:32:42.024Z</time></trkpt><trkpt lat="42.1391829" lon="12.0316795"><ele>133.0</ele><time>2026-04-11T17:32:43.024Z</time></trkpt><trkpt lat="42.1390895" lon="12.031827"><ele>132.0</ele><time>2026-04-11T17:32:44.024Z</time></trkpt><trkpt lat="42.1389868" lon="12.0319755"><ele>131.0</ele><time>2026-04-11T17:32:45.023Z</time></trkpt><trkpt lat="42.1388873" lon="12.0321231"><ele>131.25</ele><time>2026-04-11T17:32:46.023Z</time></trkpt><trkpt lat="42.1387966" lon="12.0322669"><ele>131.5</ele><time>2026-04-11T17:32:47.023Z</time></trkpt><trkpt lat="42.1387068" lon="12.0323994"><ele>131.75</ele><time>2026-04-11T17:32:48.024Z</time></trkpt><trkpt lat="42.1386185" lon="12.032531"><ele>132.0</ele><time>2026-04-11T17:32:49.024Z</time></trkpt><trkpt lat="42.1385314" lon="12.0326561"><ele>132.0</ele><time>2026-04-11T17:32:50.024Z</time></trkpt><trkpt lat="42.1384447" lon="12.032776"><ele>132.0</ele><time>2026-04-11T17:32:51.023Z</time></trkpt><trkpt lat="42.1383646" lon="12.032893"><ele>132.0</ele><time>2026-04-11T17:32:52.024Z</time></trkpt><trkpt lat="42.1382873" lon="12.0330027"><ele>132.0</ele><time>2026-04-11T17:32:53.024Z</time></trkpt><trkpt lat="42.13821" lon="12.0331061"><ele>132.25</ele><time>2026-04-11T17:32:54.024Z</time></trkpt><trkpt lat="42.138129" lon="12.0332078"><ele>132.5</ele><time>2026-04-11T17:32:55.023Z</time></trkpt><trkpt lat="42.1380445" lon="12.0333026"><ele>132.75</ele><time>2026-04-11T17:32:56.024Z</time></trkpt><trkpt lat="42.1379544" lon="12.0333972"><ele>133.0</ele><time>2026-04-11T17:32:57.024Z</time></trkpt><trkpt lat="42.1378389" lon="12.0334778"><ele>133.0</ele><time>2026-04-11T17:32:58.024Z</time></trkpt><trkpt lat="42.1377203" lon="12.0335198"><ele>133.0</ele><time>2026-04-11T17:32:59.024Z</time></trkpt><trkpt lat="42.1375989" lon="12.0335551"><ele>133.0</ele><time>2026-04-11T17:33:00.024Z</time></trkpt><trkpt lat="42.1374688" lon="12.0335995"><ele>133.0</ele><time>2026-04-11T17:33:01.023Z</time></trkpt><trkpt lat="42.1373424" lon="12.0336387"><ele>134.75</ele><time>2026-04-11T17:33:02.024Z</time></trkpt><trkpt lat="42.1372093" lon="12.0336804"><ele>136.5</ele><time>2026-04-11T17:33:03.024Z</time></trkpt><trkpt lat="42.13708" lon="12.03372"><ele>138.25</ele><time>2026-04-11T17:33:04.023Z</time></trkpt><trkpt lat="42.136958" lon="12.0337487"><ele>140.0</ele><time>2026-04-11T17:33:05.023Z</time></trkpt><trkpt lat="42.1368456" lon="12.0337539"><ele>140.0</ele><time>2026-04-11T17:33:06.023Z</time></trkpt><trkpt lat="42.1367353" lon="12.033738"><ele>140.0</ele><time>2026-04-11T17:33:07.024Z</time></trkpt><trkpt lat="42.1366191" lon="12.0337215"><ele>140.0</ele><time>2026-04-11T17:33:08.023Z</time></trkpt><trkpt lat="42.1365" lon="12.0337019"><ele>140.0</ele><time>2026-04-11T17:33:09.024Z</time></trkpt><trkpt lat="42.136379" lon="12.0336709"><ele>139.5</ele><time>2026-04-11T17:33:10.023Z</time></trkpt><trkpt lat="42.1362621" lon="12.0336211"><ele>139.0</ele><time>2026-04-11T17:33:11.024Z</time></trkpt><trkpt lat="42.1361488" lon="12.0335484"><ele>138.5</ele><time>2026-04-11T17:33:12.023Z</time></trkpt><trkpt lat="42.1360305" lon="12.0334744"><ele>138.0</ele><time>2026-04-11T17:33:13.024Z</time></trkpt><trkpt lat="42.1359241" lon="12.0334014"><ele>138.0</ele><time>2026-04-11T17:33:14.023Z</time></trkpt><trkpt lat="42.1358063" lon="12.0333314"><ele>138.0</ele><time>2026-04-11T17:33:15.023Z</time></trkpt><trkpt lat="42.1356842" lon="12.0332687"><ele>138.0</ele><time>2026-04-11T17:33:16.024Z</time></trkpt><trkpt lat="42.1355542" lon="12.033216"><ele>138.0</ele><time>2026-04-11T17:33:17.024Z</time></trkpt><trkpt lat="42.1354393" lon="12.0332042"><ele>141.25</ele><time>2026-04-11T17:33:18.024Z</time></trkpt><trkpt lat="42.1353165" lon="12.0332123"><ele>144.5</ele><time>2026-04-11T17:33:19.024Z</time></trkpt><trkpt lat="42.1352014" lon="12.0332313"><ele>147.75</ele><time>2026-04-11T17:33:20.023Z</time></trkpt><trkpt lat="42.1350862" lon="12.0332539"><ele>151.0</ele><time>2026-04-11T17:33:21.023Z</time></trkpt><trkpt lat="42.1349725" lon="12.0332559"><ele>149.75</ele><time>2026-04-11T17:33:22.023Z</time></trkpt><trkpt lat="42.1348609" lon="12.0332359"><ele>148.5</ele><time>2026-04-11T17:33:23.023Z</time></trkpt><trkpt lat="42.1347521" lon="12.0331738"><ele>147.25</ele><time>2026-04-11T17:33:24.023Z</time></trkpt><trkpt lat="42.1346464" lon="12.0330925"><ele>146.0</ele><time>2026-04-11T17:33:25.024Z</time></trkpt><trkpt lat="42.134542" lon="12.0330071"><ele>146.0</ele><time>2026-04-11T17:33:26.024Z</time></trkpt><trkpt lat="42.1344317" lon="12.0329177"><ele>146.0</ele><time>2026-04-11T17:33:27.023Z</time></trkpt><trkpt lat="42.1343107" lon="12.0328579"><ele>146.0</ele><time>2026-04-11T17:33:28.022Z</time></trkpt><trkpt lat="42.1341774" lon="12.0328262"><ele>146.0</ele><time>2026-04-11T17:33:29.022Z</time></trkpt><trkpt lat="42.134031" lon="12.0328015"><ele>145.5</ele><time>2026-04-11T17:33:30.023Z</time></trkpt><trkpt lat="42.1338837" lon="12.0327815"><ele>145.0</ele><time>2026-04-11T17:33:31.023Z</time></trkpt><trkpt lat="42.1337399" lon="12.0327555"><ele>144.5</ele><time>2026-04-11T17:33:32.023Z</time></trkpt><trkpt lat="42.1335995" lon="12.032724"><ele>144.0</ele><time>2026-04-11T17:33:33.023Z</time></trkpt><trkpt lat="42.1334738" lon="12.0326967"><ele>144.0</ele><time>2026-04-11T17:33:34.023Z</time></trkpt><trkpt lat="42.1333515" lon="12.0326645"><ele>144.0</ele><time>2026-04-11T17:33:35.023Z</time></trkpt><trkpt lat="42.1332429" lon="12.0326066"><ele>144.0</ele><time>2026-04-11T17:33:36.023Z</time></trkpt><trkpt lat="42.1331399" lon="12.0325152"><ele>144.0</ele><time>2026-04-11T17:33:37.023Z</time></trkpt><trkpt lat="42.1330355" lon="12.0323958"><ele>145.0</ele><time>2026-04-11T17:33:38.023Z</time></trkpt><trkpt lat="42.1329321" lon="12.0322664"><ele>146.0</ele><time>2026-04-11T17:33:39.023Z</time></trkpt><trkpt lat="42.1328285" lon="12.0321328"><ele>147.0</ele><time>2026-04-11T17:33:40.023Z</time></trkpt><trkpt lat="42.132725" lon="12.0319923"><ele>148.0</ele><time>2026-04-11T17:33:41.023Z</time></trkpt><trkpt lat="42.1326215" lon="12.0318576"><ele>148.0</ele><time>2026-04-11T17:33:42.022Z</time></trkpt><trkpt lat="42.1325205" lon="12.0317259"><ele>148.0</ele><time>2026-04-11T17:33:43.022Z</time></trkpt><trkpt lat="42.132419" lon="12.0315933"><ele>148.0</ele><time>2026-04-11T17:33:44.023Z</time></trkpt><trkpt lat="42.1323241" lon="12.031471"><ele>148.0</ele><time>2026-04-11T17:33:45.023Z</time></trkpt><trkpt lat="42.1322429" lon="12.0313701"><ele>150.8</ele><time>2026-04-11T17:33:46.023Z</time></trkpt><trkpt lat="42.1321701" lon="12.0312729"><ele>153.60000000000002</ele><time>2026-04-11T17:33:47.023Z</time></trkpt><trkpt lat="42.132088" lon="12.0312154"><ele>156.39999999999998</ele><time>2026-04-11T17:33:48.023Z</time></trkpt><trkpt lat="42.1319958" lon="12.0311883"><ele>159.2</ele><time>2026-04-11T17:33:49.023Z</time></trkpt><trkpt lat="42.1318901" lon="12.0311867"><ele>162.0</ele><time>2026-04-11T17:33:50.023Z</time></trkpt><trkpt lat="42.1317854" lon="12.0312138"><ele>162.0</ele><time>2026-04-11T17:33:51.023Z</time></trkpt><trkpt lat="42.131687" lon="12.0312702"><ele>162.0</ele><time>2026-04-11T17:33:52.022Z</time></trkpt><trkpt lat="42.131585" lon="12.0313562"><ele>162.0</ele><time>2026-04-11T17:33:53.023Z</time></trkpt><trkpt lat="42.1314948" lon="12.0314768"><ele>162.0</ele><time>2026-04-11T17:33:54.022Z</time></trkpt><trkpt lat="42.1314237" lon="12.0316053"><ele>163.25</ele><time>2026-04-11T17:33:55.023Z</time></trkpt><trkpt lat="42.1313477" lon="12.0317475"><ele>164.5</ele><time>2026-04-11T17:33:56.022Z</time></trkpt><trkpt lat="42.1312772" lon="12.0318853"><ele>165.75</ele><time>2026-04-11T17:33:57.022Z</time></trkpt><trkpt lat="42.1312124" lon="12.032015"><ele>167.0</ele><time>2026-04-11T17:33:58.022Z</time></trkpt><trkpt lat="42.1311406" lon="12.0321249"><ele>167.0</ele><time>2026-04-11T17:33:59.023Z</time></trkpt><trkpt lat="42.1309437" lon="12.0322727"><ele>167.0</ele><time>2026-04-11T17:34:01.023Z</time></trkpt><trkpt lat="42.1308266" lon="12.0322981"><ele>167.0</ele><time>2026-04-11T17:34:02.023Z</time></trkpt><trkpt lat="42.1307066" lon="12.0323121"><ele>169.0</ele><time>2026-04-11T17:34:03.022Z</time></trkpt><trkpt lat="42.1305827" lon="12.0323178"><ele>171.0</ele><time>2026-04-11T17:34:04.023Z</time></trkpt><trkpt lat="42.1304384" lon="12.0323055"><ele>173.0</ele><time>2026-04-11T17:34:05.023Z</time></trkpt><trkpt lat="42.1302987" lon="12.0322944"><ele>175.0</ele><time>2026-04-11T17:34:06.023Z</time></trkpt><trkpt lat="42.1301568" lon="12.0322694"><ele>175.0</ele><time>2026-04-11T17:34:07.023Z</time></trkpt><trkpt lat="42.1300228" lon="12.032242"><ele>175.0</ele><time>2026-04-11T17:34:08.022Z</time></trkpt><trkpt lat="42.1298925" lon="12.032221"><ele>175.0</ele><time>2026-04-11T17:34:09.022Z</time></trkpt><trkpt lat="42.1297648" lon="12.0322035"><ele>175.0</ele><time>2026-04-11T17:34:10.022Z</time></trkpt><trkpt lat="42.1296519" lon="12.0322075"><ele>176.2</ele><time>2026-04-11T17:34:11.022Z</time></trkpt><trkpt lat="42.1295472" lon="12.0322338"><ele>177.4</ele><time>2026-04-11T17:34:12.022Z</time></trkpt><trkpt lat="42.1294412" lon="12.0322859"><ele>178.60000000000002</ele><time>2026-04-11T17:34:13.022Z</time></trkpt><trkpt lat="42.1293422" lon="12.0323531"><ele>179.8</ele><time>2026-04-11T17:34:14.023Z</time></trkpt><trkpt lat="42.1292561" lon="12.0324481"><ele>181.0</ele><time>2026-04-11T17:34:15.022Z</time></trkpt><trkpt lat="42.1291689" lon="12.0325739"><ele>181.25</ele><time>2026-04-11T17:34:16.023Z</time></trkpt><trkpt lat="42.1290794" lon="12.0326896"><ele>181.5</ele><time>2026-04-11T17:34:17.022Z</time></trkpt><trkpt lat="42.128996" lon="12.0328007"><ele>181.75</ele><time>2026-04-11T17:34:18.022Z</time></trkpt><trkpt lat="42.128908" lon="12.032911"><ele>182.0</ele><time>2026-04-11T17:34:19.023Z</time></trkpt><trkpt lat="42.1288412" lon="12.0330242"><ele>184.0</ele><time>2026-04-11T17:34:20.022Z</time></trkpt><trkpt lat="42.1287965" lon="12.0331362"><ele>186.0</ele><time>2026-04-11T17:34:21.022Z</time></trkpt><trkpt lat="42.1287741" lon="12.0332324"><ele>188.0</ele><time>2026-04-11T17:34:22.022Z</time></trkpt><trkpt lat="42.128744" lon="12.0333432"><ele>190.0</ele><time>2026-04-11T17:34:23.023Z</time></trkpt><trkpt lat="42.1287172" lon="12.0334623"><ele>192.00000000000003</ele><time>2026-04-11T17:34:24.023Z</time></trkpt><trkpt lat="42.1286718" lon="12.0335751"><ele>194.0</ele><time>2026-04-11T17:34:25.022Z</time></trkpt><trkpt lat="42.1286219" lon="12.0336765"><ele>194.0</ele><time>2026-04-11T17:34:26.023Z</time></trkpt><trkpt lat="42.1285405" lon="12.0337343"><ele>194.0</ele><time>2026-04-11T17:34:27.022Z</time></trkpt><trkpt lat="42.1284359" lon="12.0338124"><ele>194.0</ele><time>2026-04-11T17:34:28.023Z</time></trkpt><trkpt lat="42.1283169" lon="12.0338808"><ele>194.0</ele><time>2026-04-11T17:34:29.022Z</time></trkpt><trkpt lat="42.1282094" lon="12.0338849"><ele>194.0</ele><time>2026-04-11T17:34:30.022Z</time></trkpt><trkpt lat="42.1280306" lon="12.0339501"><ele>195.5</ele><time>2026-04-11T17:34:31.022Z</time></trkpt><trkpt lat="42.1278687" lon="12.0340226"><ele>197.0</ele><time>2026-04-11T17:34:32.022Z</time></trkpt><trkpt lat="42.1277468" lon="12.034061"><ele>198.5</ele><time>2026-04-11T17:34:33.023Z</time></trkpt><trkpt lat="42.1276217" lon="12.0340901"><ele>200.0</ele><time>2026-04-11T17:34:34.023Z</time></trkpt><trkpt lat="42.127501" lon="12.0341256"><ele>200.25</ele><time>2026-04-11T17:34:35.023Z</time></trkpt><trkpt lat="42.1273872" lon="12.0341812"><ele>200.5</ele><time>2026-04-11T17:34:36.023Z</time></trkpt><trkpt lat="42.1272746" lon="12.0342307"><ele>200.75</ele><time>2026-04-11T17:34:37.022Z</time></trkpt><trkpt lat="42.1271578" lon="12.0342944"><ele>201.0</ele><time>2026-04-11T17:34:38.022Z</time></trkpt><trkpt lat="42.1270314" lon="12.034357"><ele>201.0</ele><time>2026-04-11T17:34:39.023Z</time></trkpt><trkpt lat="42.1269065" lon="12.0344153"><ele>201.0</ele><time>2026-04-11T17:34:40.023Z</time></trkpt><trkpt lat="42.126778" lon="12.0344789"><ele>201.0</ele><time>2026-04-11T17:34:41.023Z</time></trkpt><trkpt lat="42.1266491" lon="12.0345124"><ele>201.0</ele><time>2026-04-11T17:34:42.022Z</time></trkpt><trkpt lat="42.1265177" lon="12.0345627"><ele>202.25</ele><time>2026-04-11T17:34:43.023Z</time></trkpt><trkpt lat="42.1263914" lon="12.0345905"><ele>203.5</ele><time>2026-04-11T17:34:44.022Z</time></trkpt><trkpt lat="42.1262664" lon="12.0346274"><ele>204.75</ele><time>2026-04-11T17:34:45.023Z</time></trkpt><trkpt lat="42.1261343" lon="12.0346755"><ele>206.0</ele><time>2026-04-11T17:34:46.022Z</time></trkpt><trkpt lat="42.1260001" lon="12.0347349"><ele>206.0</ele><time>2026-04-11T17:34:47.023Z</time></trkpt><trkpt lat="42.1258619" lon="12.0347933"><ele>206.0</ele><time>2026-04-11T17:34:48.023Z</time></trkpt><trkpt lat="42.1257267" lon="12.0348267"><ele>206.0</ele><time>2026-04-11T17:34:49.023Z</time></trkpt><trkpt lat="42.1255978" lon="12.0348706"><ele>206.0</ele><time>2026-04-11T17:34:50.023Z</time></trkpt><trkpt lat="42.1254677" lon="12.0349106"><ele>206.25</ele><time>2026-04-11T17:34:51.022Z</time></trkpt><trkpt lat="42.1253479" lon="12.0349484"><ele>206.5</ele><time>2026-04-11T17:34:52.022Z</time></trkpt><trkpt lat="42.1252296" lon="12.034999"><ele>206.75</ele><time>2026-04-11T17:34:53.023Z</time></trkpt><trkpt lat="42.125093" lon="12.0350959"><ele>207.0</ele><time>2026-04-11T17:34:54.023Z</time></trkpt><trkpt lat="42.1249538" lon="12.0352033"><ele>207.5</ele><time>2026-04-11T17:34:55.023Z</time></trkpt><trkpt lat="42.1248392" lon="12.0353013"><ele>208.0</ele><time>2026-04-11T17:34:56.023Z</time></trkpt><trkpt lat="42.1247553" lon="12.0354855"><ele>208.5</ele><time>2026-04-11T17:34:57.023Z</time></trkpt><trkpt lat="42.1246827" lon="12.0356484"><ele>209.0</ele><time>2026-04-11T17:34:58.023Z</time></trkpt><trkpt lat="42.1246125" lon="12.0358162"><ele>210.5</ele><time>2026-04-11T17:34:59.023Z</time></trkpt><trkpt lat="42.1245655" lon="12.0359635"><ele>212.0</ele><time>2026-04-11T17:35:00.023Z</time></trkpt><trkpt lat="42.1245452" lon="12.0361254"><ele>213.5</ele><time>2026-04-11T17:35:01.023Z</time></trkpt><trkpt lat="42.1245038" lon="12.0363244"><ele>215.0</ele><time>2026-04-11T17:35:02.022Z</time></trkpt><trkpt lat="42.124485" lon="12.0365513"><ele>213.66666666666669</ele><time>2026-04-11T17:35:03.023Z</time></trkpt><trkpt lat="42.1244416" lon="12.036818"><ele>212.33333333333331</ele><time>2026-04-11T17:35:04.023Z</time></trkpt><trkpt lat="42.1243959" lon="12.0370924"><ele>211.0</ele><time>2026-04-11T17:35:05.023Z</time></trkpt><trkpt lat="42.1243379" lon="12.0373793"><ele>210.5</ele><time>2026-04-11T17:35:06.023Z</time></trkpt><trkpt lat="42.1242991" lon="12.0376948"><ele>210.0</ele><time>2026-04-11T17:35:07.023Z</time></trkpt><trkpt lat="42.124258" lon="12.0379854"><ele>210.0</ele><time>2026-04-11T17:35:08.022Z</time></trkpt><trkpt lat="42.1241832" lon="12.0382728"><ele>210.0</ele><time>2026-04-11T17:35:09.023Z</time></trkpt><trkpt lat="42.1241093" lon="12.0385525"><ele>210.0</ele><time>2026-04-11T17:35:10.023Z</time></trkpt><trkpt lat="42.1240434" lon="12.0388314"><ele>209.33333333333331</ele><time>2026-04-11T17:35:11.022Z</time></trkpt><trkpt lat="42.1239589" lon="12.0390955"><ele>208.66666666666666</ele><time>2026-04-11T17:35:12.023Z</time></trkpt><trkpt lat="42.1238894" lon="12.039341"><ele>208.0</ele><time>2026-04-11T17:35:13.022Z</time></trkpt><trkpt lat="42.1238331" lon="12.0395671"><ele>208.0</ele><time>2026-04-11T17:35:14.022Z</time></trkpt><trkpt lat="42.1237974" lon="12.0398406"><ele>208.0</ele><time>2026-04-11T17:35:15.022Z</time></trkpt><trkpt lat="42.1237644" lon="12.040091"><ele>208.0</ele><time>2026-04-11T17:35:16.023Z</time></trkpt><trkpt lat="42.1237323" lon="12.0403428"><ele>208.66666666666666</ele><time>2026-04-11T17:35:17.023Z</time></trkpt><trkpt lat="42.1236944" lon="12.0406018"><ele>209.33333333333331</ele><time>2026-04-11T17:35:18.023Z</time></trkpt><trkpt lat="42.1236418" lon="12.0408777"><ele>210.0</ele><time>2026-04-11T17:35:19.023Z</time></trkpt><trkpt lat="42.1235908" lon="12.0411416"><ele>211.33333333333331</ele><time>2026-04-11T17:35:20.023Z</time></trkpt><trkpt lat="42.123539" lon="12.0414044"><ele>212.66666666666666</ele><time>2026-04-11T17:35:21.023Z</time></trkpt><trkpt lat="42.1234889" lon="12.0416696"><ele>214.0</ele><time>2026-04-11T17:35:22.022Z</time></trkpt><trkpt lat="42.1234379" lon="12.0419305"><ele>214.66666666666666</ele><time>2026-04-11T17:35:23.023Z</time></trkpt><trkpt lat="42.1233916" lon="12.0421784"><ele>215.33333333333331</ele><time>2026-04-11T17:35:24.022Z</time></trkpt><trkpt lat="42.1233401" lon="12.0424214"><ele>216.0</ele><time>2026-04-11T17:35:25.022Z</time></trkpt><trkpt lat="42.1232951" lon="12.0426685"><ele>216.75</ele><time>2026-04-11T17:35:26.023Z</time></trkpt><trkpt lat="42.1232515" lon="12.0428524"><ele>217.5</ele><time>2026-04-11T17:35:27.023Z</time></trkpt><trkpt lat="42.1232089" lon="12.0430104"><ele>218.25</ele><time>2026-04-11T17:35:28.022Z</time></trkpt><trkpt lat="42.1231572" lon="12.0431606"><ele>219.0</ele><time>2026-04-11T17:35:29.023Z</time></trkpt><trkpt lat="42.1230845" lon="12.0432857"><ele>219.75</ele><time>2026-04-11T17:35:30.023Z</time></trkpt><trkpt lat="42.1229958" lon="12.043369"><ele>220.5</ele><time>2026-04-11T17:35:31.023Z</time></trkpt><trkpt lat="42.1228951" lon="12.0434263"><ele>221.25</ele><time>2026-04-11T17:35:32.022Z</time></trkpt><trkpt lat="42.122785" lon="12.0434649"><ele>222.0</ele><time>2026-04-11T17:35:33.023Z</time></trkpt><trkpt lat="42.1226643" lon="12.043479"><ele>222.0</ele><time>2026-04-11T17:35:34.022Z</time></trkpt><trkpt lat="42.1225309" lon="12.0434718"><ele>222.0</ele><time>2026-04-11T17:35:35.023Z</time></trkpt><trkpt lat="42.1223901" lon="12.0434744"><ele>222.0</ele><time>2026-04-11T17:35:36.022Z</time></trkpt><trkpt lat="42.1222503" lon="12.0434783"><ele>222.0</ele><time>2026-04-11T17:35:37.023Z</time></trkpt><trkpt lat="42.122123" lon="12.0434506"><ele>222.0</ele><time>2026-04-11T17:35:38.023Z</time></trkpt><trkpt lat="42.1219882" lon="12.0434678"><ele>222.0</ele><time>2026-04-11T17:35:39.022Z</time></trkpt><trkpt lat="42.1218626" lon="12.0435332"><ele>222.0</ele><time>2026-04-11T17:35:40.023Z</time></trkpt><trkpt lat="42.1217534" lon="12.0436201"><ele>222.0</ele><time>2026-04-11T17:35:41.023Z</time></trkpt><trkpt lat="42.1216865" lon="12.0437123"><ele>222.0</ele><time>2026-04-11T17:35:42.022Z</time></trkpt><trkpt lat="42.121599" lon="12.0437769"><ele>222.0</ele><time>2026-04-11T17:35:43.023Z</time></trkpt><trkpt lat="42.1215" lon="12.0438855"><ele>222.0</ele><time>2026-04-11T17:35:44.022Z</time></trkpt><trkpt lat="42.1213766" lon="12.0440185"><ele>222.0</ele><time>2026-04-11T17:35:45.023Z</time></trkpt><trkpt lat="42.1213104" lon="12.0441623"><ele>222.0</ele><time>2026-04-11T17:35:46.023Z</time></trkpt><trkpt lat="42.1212709" lon="12.0443403"><ele>222.0</ele><time>2026-04-11T17:35:47.022Z</time></trkpt><trkpt lat="42.1212319" lon="12.044545"><ele>222.0</ele><time>2026-04-11T17:35:48.023Z</time></trkpt><trkpt lat="42.1211962" lon="12.0447052"><ele>222.0</ele><time>2026-04-11T17:35:49.023Z</time></trkpt><trkpt lat="42.1211893" lon="12.0449017"><ele>221.0</ele><time>2026-04-11T17:35:50.022Z</time></trkpt><trkpt lat="42.1212439" lon="12.0450731"><ele>220.0</ele><time>2026-04-11T17:35:51.022Z</time></trkpt><trkpt lat="42.1213193" lon="12.0452627"><ele>219.0</ele><time>2026-04-11T17:35:52.022Z</time></trkpt><trkpt lat="42.1213859" lon="12.0454704"><ele>219.0</ele><time>2026-04-11T17:35:53.023Z</time></trkpt><trkpt lat="42.1214603" lon="12.0456601"><ele>219.0</ele><time>2026-04-11T17:35:54.022Z</time></trkpt><trkpt lat="42.121504" lon="12.0458608"><ele>219.0</ele><time>2026-04-11T17:35:55.022Z</time></trkpt><trkpt lat="42.1215273" lon="12.0460473"><ele>219.0</ele><time>2026-04-11T17:35:56.022Z</time></trkpt><trkpt lat="42.1215621" lon="12.0462347"><ele>219.0</ele><time>2026-04-11T17:35:57.022Z</time></trkpt><trkpt lat="42.1215869" lon="12.0464596"><ele>219.0</ele><time>2026-04-11T17:35:58.023Z</time></trkpt><trkpt lat="42.121617" lon="12.046661"><ele>219.0</ele><time>2026-04-11T17:35:59.022Z</time></trkpt><trkpt lat="42.1216479" lon="12.0468891"><ele>219.0</ele><time>2026-04-11T17:36:00.023Z</time></trkpt><trkpt lat="42.1217017" lon="12.0471391"><ele>219.0</ele><time>2026-04-11T17:36:01.022Z</time></trkpt><trkpt lat="42.1217511" lon="12.0473616"><ele>219.33333333333331</ele><time>2026-04-11T17:36:02.023Z</time></trkpt><trkpt lat="42.1218088" lon="12.0475708"><ele>219.66666666666666</ele><time>2026-04-11T17:36:03.022Z</time></trkpt><trkpt lat="42.1218466" lon="12.0477667"><ele>220.0</ele><time>2026-04-11T17:36:04.022Z</time></trkpt><trkpt lat="42.1218785" lon="12.0479649"><ele>220.0</ele><time>2026-04-11T17:36:05.023Z</time></trkpt><trkpt lat="42.1219017" lon="12.0481493"><ele>220.0</ele><time>2026-04-11T17:36:06.022Z</time></trkpt><trkpt lat="42.1219381" lon="12.0483329"><ele>220.0</ele><time>2026-04-11T17:36:07.023Z</time></trkpt><trkpt lat="42.1219716" lon="12.0485225"><ele>220.0</ele><time>2026-04-11T17:36:08.022Z</time></trkpt><trkpt lat="42.1219972" lon="12.0486988"><ele>220.75</ele><time>2026-04-11T17:36:09.022Z</time></trkpt><trkpt lat="42.1220111" lon="12.0488546"><ele>221.5</ele><time>2026-04-11T17:36:10.023Z</time></trkpt><trkpt lat="42.1220202" lon="12.0490034"><ele>222.25</ele><time>2026-04-11T17:36:11.022Z</time></trkpt><trkpt lat="42.1220178" lon="12.0491596"><ele>223.0</ele><time>2026-04-11T17:36:12.022Z</time></trkpt><trkpt lat="42.1219867" lon="12.0493125"><ele>223.0</ele><time>2026-04-11T17:36:13.022Z</time></trkpt><trkpt lat="42.1219202" lon="12.0493973"><ele>223.0</ele><time>2026-04-11T17:36:14.022Z</time></trkpt><trkpt lat="42.121845" lon="12.0494552"><ele>223.0</ele><time>2026-04-11T17:36:15.022Z</time></trkpt><trkpt lat="42.1217497" lon="12.0495155"><ele>223.0</ele><time>2026-04-11T17:36:16.022Z</time></trkpt><trkpt lat="42.1216299" lon="12.0496419"><ele>223.0</ele><time>2026-04-11T17:36:17.022Z</time></trkpt><trkpt lat="42.1214933" lon="12.0497252"><ele>223.0</ele><time>2026-04-11T17:36:18.023Z</time></trkpt><trkpt lat="42.1213921" lon="12.0498514"><ele>223.0</ele><time>2026-04-11T17:36:19.023Z</time></trkpt><trkpt lat="42.1213123" lon="12.0499947"><ele>223.0</ele><time>2026-04-11T17:36:20.022Z</time></trkpt><trkpt lat="42.1212504" lon="12.0501496"><ele>223.0</ele><time>2026-04-11T17:36:21.023Z</time></trkpt><trkpt lat="42.1212114" lon="12.0503297"><ele>225.0</ele><time>2026-04-11T17:36:22.023Z</time></trkpt><trkpt lat="42.1211976" lon="12.0505265"><ele>227.0</ele><time>2026-04-11T17:36:23.023Z</time></trkpt><trkpt lat="42.1212069" lon="12.0507185"><ele>229.0</ele><time>2026-04-11T17:36:24.022Z</time></trkpt><trkpt lat="42.1211983" lon="12.0508966"><ele>231.0</ele><time>2026-04-11T17:36:25.022Z</time></trkpt><trkpt lat="42.121167" lon="12.0510283"><ele>231.0</ele><time>2026-04-11T17:36:26.022Z</time></trkpt><trkpt lat="42.1211081" lon="12.0511317"><ele>231.00000000000003</ele><time>2026-04-11T17:36:27.023Z</time></trkpt><trkpt lat="42.1210163" lon="12.0511928"><ele>231.00000000000003</ele><time>2026-04-11T17:36:28.023Z</time></trkpt><trkpt lat="42.1209246" lon="12.0512685"><ele>231.0</ele><time>2026-04-11T17:36:29.023Z</time></trkpt><trkpt lat="42.1208114" lon="12.0513406"><ele>231.0</ele><time>2026-04-11T17:36:30.023Z</time></trkpt><trkpt lat="42.1206917" lon="12.0514377"><ele>231.0</ele><time>2026-04-11T17:36:31.023Z</time></trkpt><trkpt lat="42.1205772" lon="12.0515671"><ele>231.0</ele><time>2026-04-11T17:36:32.023Z</time></trkpt><trkpt lat="42.1204706" lon="12.0516882"><ele>231.0</ele><time>2026-04-11T17:36:33.022Z</time></trkpt><trkpt lat="42.1203613" lon="12.0518299"><ele>231.0</ele><time>2026-04-11T17:36:34.023Z</time></trkpt><trkpt lat="42.1202605" lon="12.0519635"><ele>233.5</ele><time>2026-04-11T17:36:35.023Z</time></trkpt><trkpt lat="42.1201475" lon="12.0520881"><ele>236.0</ele><time>2026-04-11T17:36:36.023Z</time></trkpt><trkpt lat="42.1200235" lon="12.0521976"><ele>238.5</ele><time>2026-04-11T17:36:37.023Z</time></trkpt><trkpt lat="42.1198931" lon="12.0522963"><ele>241.0</ele><time>2026-04-11T17:36:38.022Z</time></trkpt><trkpt lat="42.1197423" lon="12.0523925"><ele>244.66666666666666</ele><time>2026-04-11T17:36:39.023Z</time></trkpt><trkpt lat="42.1195942" lon="12.0524839"><ele>248.33333333333331</ele><time>2026-04-11T17:36:40.023Z</time></trkpt><trkpt lat="42.1194485" lon="12.0525788"><ele>252.0</ele><time>2026-04-11T17:36:41.023Z</time></trkpt><trkpt lat="42.1193138" lon="12.0526742"><ele>252.0</ele><time>2026-04-11T17:36:42.022Z</time></trkpt><trkpt lat="42.1191759" lon="12.0527647"><ele>252.0</ele><time>2026-04-11T17:36:43.023Z</time></trkpt><trkpt lat="42.1190581" lon="12.0528466"><ele>252.0</ele><time>2026-04-11T17:36:44.023Z</time></trkpt><trkpt lat="42.1189778" lon="12.0529271"><ele>252.0</ele><time>2026-04-11T17:36:45.023Z</time></trkpt><trkpt lat="42.1188984" lon="12.0529952"><ele>252.8</ele><time>2026-04-11T17:36:46.022Z</time></trkpt><trkpt lat="42.1188292" lon="12.0530703"><ele>253.6</ele><time>2026-04-11T17:36:47.023Z</time></trkpt><trkpt lat="42.1187754" lon="12.053151"><ele>254.40000000000003</ele><time>2026-04-11T17:36:48.022Z</time></trkpt><trkpt lat="42.1187323" lon="12.0532446"><ele>255.20000000000002</ele><time>2026-04-11T17:36:49.022Z</time></trkpt><trkpt lat="42.1187212" lon="12.0533871"><ele>256.0</ele><time>2026-04-11T17:36:50.022Z</time></trkpt><trkpt lat="42.1187471" lon="12.0535156"><ele>256.0</ele><time>2026-04-11T17:36:51.023Z</time></trkpt><trkpt lat="42.1187838" lon="12.0536736"><ele>256.0</ele><time>2026-04-11T17:36:52.023Z</time></trkpt><trkpt lat="42.1188146" lon="12.0537956"><ele>256.0</ele><time>2026-04-11T17:36:53.022Z</time></trkpt><trkpt lat="42.1188534" lon="12.0539547"><ele>256.0</ele><time>2026-04-11T17:36:54.023Z</time></trkpt><trkpt lat="42.1189179" lon="12.0540956"><ele>255.75</ele><time>2026-04-11T17:36:55.023Z</time></trkpt><trkpt lat="42.1189754" lon="12.0542465"><ele>255.5</ele><time>2026-04-11T17:36:56.022Z</time></trkpt><trkpt lat="42.1190348" lon="12.0544195"><ele>255.25</ele><time>2026-04-11T17:36:57.022Z</time></trkpt><trkpt lat="42.1190828" lon="12.0545845"><ele>255.0</ele><time>2026-04-11T17:36:58.023Z</time></trkpt><trkpt lat="42.119125" lon="12.0547469"><ele>257.0</ele><time>2026-04-11T17:36:59.022Z</time></trkpt><trkpt lat="42.1191793" lon="12.0549336"><ele>259.0</ele><time>2026-04-11T17:37:00.023Z</time></trkpt><trkpt lat="42.1192328" lon="12.055124"><ele>261.0</ele><time>2026-04-11T17:37:01.022Z</time></trkpt><trkpt lat="42.1192899" lon="12.0553209"><ele>261.0</ele><time>2026-04-11T17:37:02.023Z</time></trkpt><trkpt lat="42.1193444" lon="12.0555277"><ele>261.0</ele><time>2026-04-11T17:37:03.023Z</time></trkpt><trkpt lat="42.1194185" lon="12.0557195"><ele>261.0</ele><time>2026-04-11T17:37:04.023Z</time></trkpt><trkpt lat="42.1195062" lon="12.0558984"><ele>259.75</ele><time>2026-04-11T17:37:05.023Z</time></trkpt><trkpt lat="42.1196044" lon="12.0560576"><ele>258.5</ele><time>2026-04-11T17:37:06.023Z</time></trkpt><trkpt lat="42.1196966" lon="12.0562083"><ele>257.25</ele><time>2026-04-11T17:37:07.023Z</time></trkpt><trkpt lat="42.1197933" lon="12.0563519"><ele>256.0</ele><time>2026-04-11T17:37:08.022Z</time></trkpt><trkpt lat="42.1198983" lon="12.0565142"><ele>259.3333333333333</ele><time>2026-04-11T17:37:09.022Z</time></trkpt><trkpt lat="42.120013" lon="12.0566845"><ele>262.6666666666667</ele><time>2026-04-11T17:37:10.023Z</time></trkpt><trkpt lat="42.1201455" lon="12.0567989"><ele>266.0</ele><time>2026-04-11T17:37:11.023Z</time></trkpt><trkpt lat="42.1202759" lon="12.0569091"><ele>266.0</ele><time>2026-04-11T17:37:12.023Z</time></trkpt><trkpt lat="42.1203784" lon="12.0570158"><ele>266.0</ele><time>2026-04-11T17:37:13.022Z</time></trkpt><trkpt lat="42.1204885" lon="12.0571522"><ele>266.0</ele><time>2026-04-11T17:37:14.023Z</time></trkpt><trkpt lat="42.1206078" lon="12.0571945"><ele>266.0</ele><time>2026-04-11T17:37:15.023Z</time></trkpt><trkpt lat="42.1207244" lon="12.0572827"><ele>268.0</ele><time>2026-04-11T17:37:16.023Z</time></trkpt><trkpt lat="42.1208282" lon="12.0573305"><ele>270.0</ele><time>2026-04-11T17:37:17.023Z</time></trkpt><trkpt lat="42.1209422" lon="12.0575858"><ele>272.0</ele><time>2026-04-11T17:37:19.022Z</time></trkpt><trkpt lat="42.1209989" lon="12.0578291"><ele>272.0</ele><time>2026-04-11T17:37:20.022Z</time></trkpt><trkpt lat="42.121051" lon="12.0580952"><ele>272.0</ele><time>2026-04-11T17:37:21.023Z</time></trkpt><trkpt lat="42.1211014" lon="12.05833"><ele>272.0</ele><time>2026-04-11T17:37:22.022Z</time></trkpt><trkpt lat="42.1211696" lon="12.0585399"><ele>271.0</ele><time>2026-04-11T17:37:23.022Z</time></trkpt><trkpt lat="42.1212259" lon="12.0587301"><ele>270.0</ele><time>2026-04-11T17:37:24.023Z</time></trkpt><trkpt lat="42.1212906" lon="12.05889"><ele>269.0</ele><time>2026-04-11T17:37:25.022Z</time></trkpt><trkpt lat="42.1213691" lon="12.0590662"><ele>268.0</ele><time>2026-04-11T17:37:26.022Z</time></trkpt><trkpt lat="42.1214458" lon="12.0592355"><ele>267.25</ele><time>2026-04-11T17:37:27.022Z</time></trkpt><trkpt lat="42.1215064" lon="12.0593867"><ele>266.5</ele><time>2026-04-11T17:37:28.023Z</time></trkpt><trkpt lat="42.1215986" lon="12.0594814"><ele>265.75</ele><time>2026-04-11T17:37:29.023Z</time></trkpt><trkpt lat="42.1217048" lon="12.0594994"><ele>265.0</ele><time>2026-04-11T17:37:30.023Z</time></trkpt><trkpt lat="42.1218156" lon="12.0595166"><ele>270.0</ele><time>2026-04-11T17:37:31.023Z</time></trkpt><trkpt lat="42.1221172" lon="12.0595217"><ele>275.0</ele><time>2026-04-11T17:37:33.023Z</time></trkpt><trkpt lat="42.1224446" lon="12.0595219"><ele>276.0</ele><time>2026-04-11T17:37:35.024Z</time></trkpt><trkpt lat="42.1225757" lon="12.0595851"><ele>277.0</ele><time>2026-04-11T17:37:36.023Z</time></trkpt><trkpt lat="42.1227252" lon="12.059639"><ele>278.0</ele><time>2026-04-11T17:37:37.024Z</time></trkpt><trkpt lat="42.1228796" lon="12.059678"><ele>278.0</ele><time>2026-04-11T17:37:38.024Z</time></trkpt><trkpt lat="42.1230318" lon="12.0597126"><ele>278.0</ele><time>2026-04-11T17:37:39.023Z</time></trkpt><trkpt lat="42.1231823" lon="12.05974"><ele>278.0</ele><time>2026-04-11T17:37:40.024Z</time></trkpt><trkpt lat="42.1233316" lon="12.0597538"><ele>278.33333333333337</ele><time>2026-04-11T17:37:41.024Z</time></trkpt><trkpt lat="42.1234926" lon="12.0597573"><ele>278.6666666666667</ele><time>2026-04-11T17:37:42.024Z</time></trkpt><trkpt lat="42.1236548" lon="12.059758"><ele>279.0</ele><time>2026-04-11T17:37:43.024Z</time></trkpt><trkpt lat="42.1238093" lon="12.0597467"><ele>279.0</ele><time>2026-04-11T17:37:44.023Z</time></trkpt><trkpt lat="42.1239498" lon="12.0597309"><ele>279.0</ele><time>2026-04-11T17:37:45.024Z</time></trkpt><trkpt lat="42.1240743" lon="12.0597242"><ele>279.0</ele><time>2026-04-11T17:37:46.023Z</time></trkpt><trkpt lat="42.1241879" lon="12.0597217"><ele>279.0</ele><time>2026-04-11T17:37:47.024Z</time></trkpt><trkpt lat="42.1242773" lon="12.0597191"><ele>278.0</ele><time>2026-04-11T17:37:48.024Z</time></trkpt><trkpt lat="42.124384" lon="12.0597303"><ele>277.0</ele><time>2026-04-11T17:37:49.024Z</time></trkpt><trkpt lat="42.1244938" lon="12.059798"><ele>276.0</ele><time>2026-04-11T17:37:50.023Z</time></trkpt><trkpt lat="42.1245877" lon="12.0598944"><ele>275.0</ele><time>2026-04-11T17:37:51.024Z</time></trkpt><trkpt lat="42.1246757" lon="12.0599954"><ele>272.8</ele><time>2026-04-11T17:37:52.023Z</time></trkpt><trkpt lat="42.1247422" lon="12.0601232"><ele>270.6</ele><time>2026-04-11T17:37:53.024Z</time></trkpt><trkpt lat="42.124799" lon="12.0602648"><ele>268.4</ele><time>2026-04-11T17:37:54.024Z</time></trkpt><trkpt lat="42.1248159" lon="12.0603949"><ele>266.2</ele><time>2026-04-11T17:37:55.023Z</time></trkpt><trkpt lat="42.1247924" lon="12.0605376"><ele>264.0</ele><time>2026-04-11T17:37:56.024Z</time></trkpt><trkpt lat="42.124762" lon="12.0606968"><ele>264.0</ele><time>2026-04-11T17:37:57.024Z</time></trkpt><trkpt lat="42.1247315" lon="12.060851"><ele>264.0</ele><time>2026-04-11T17:37:58.023Z</time></trkpt><trkpt lat="42.1246884" lon="12.0609962"><ele>264.0</ele><time>2026-04-11T17:37:59.024Z</time></trkpt><trkpt lat="42.1246467" lon="12.061165"><ele>264.0</ele><time>2026-04-11T17:38:00.023Z</time></trkpt><trkpt lat="42.1245536" lon="12.0613857"><ele>264.0</ele><time>2026-04-11T17:38:01.024Z</time></trkpt><trkpt lat="42.1244175" lon="12.0615646"><ele>264.0</ele><time>2026-04-11T17:38:02.023Z</time></trkpt><trkpt lat="42.1242609" lon="12.0617172"><ele>264.0</ele><time>2026-04-11T17:38:03.023Z</time></trkpt><trkpt lat="42.1241214" lon="12.0618494"><ele>263.0</ele><time>2026-04-11T17:38:04.024Z</time></trkpt><trkpt lat="42.1240002" lon="12.0620112"><ele>262.0</ele><time>2026-04-11T17:38:05.024Z</time></trkpt><trkpt lat="42.1238824" lon="12.0621657"><ele>261.0</ele><time>2026-04-11T17:38:06.024Z</time></trkpt><trkpt lat="42.1237791" lon="12.0623242"><ele>264.3333333333333</ele><time>2026-04-11T17:38:07.024Z</time></trkpt><trkpt lat="42.1236887" lon="12.0624764"><ele>267.66666666666663</ele><time>2026-04-11T17:38:08.023Z</time></trkpt><trkpt lat="42.1236122" lon="12.0626521"><ele>271.0</ele><time>2026-04-11T17:38:09.024Z</time></trkpt><trkpt lat="42.1235235" lon="12.0628426"><ele>271.0</ele><time>2026-04-11T17:38:10.024Z</time></trkpt><trkpt lat="42.1234285" lon="12.063028"><ele>271.0</ele><time>2026-04-11T17:38:11.024Z</time></trkpt><trkpt lat="42.1233346" lon="12.0632202"><ele>271.0</ele><time>2026-04-11T17:38:12.024Z</time></trkpt><trkpt lat="42.1232498" lon="12.0633723"><ele>271.66666666666663</ele><time>2026-04-11T17:38:13.024Z</time></trkpt><trkpt lat="42.1231575" lon="12.0635421"><ele>272.3333333333333</ele><time>2026-04-11T17:38:14.023Z</time></trkpt><trkpt lat="42.1230673" lon="12.0637072"><ele>273.0</ele><time>2026-04-11T17:38:15.024Z</time></trkpt><trkpt lat="42.1229768" lon="12.0638737"><ele>273.0</ele><time>2026-04-11T17:38:16.024Z</time></trkpt><trkpt lat="42.1228948" lon="12.0640328"><ele>273.0</ele><time>2026-04-11T17:38:17.024Z</time></trkpt><trkpt lat="42.1228166" lon="12.0641861"><ele>273.0</ele><time>2026-04-11T17:38:18.024Z</time></trkpt><trkpt lat="42.1227452" lon="12.0643299"><ele>273.0</ele><time>2026-04-11T17:38:19.023Z</time></trkpt><trkpt lat="42.1226931" lon="12.0644827"><ele>274.6</ele><time>2026-04-11T17:38:20.024Z</time></trkpt><trkpt lat="42.1226775" lon="12.064644"><ele>276.20000000000005</ele><time>2026-04-11T17:38:21.023Z</time></trkpt><trkpt lat="42.1226777" lon="12.0647895"><ele>277.8</ele><time>2026-04-11T17:38:22.023Z</time></trkpt><trkpt lat="42.1227076" lon="12.0649309"><ele>279.40000000000003</ele><time>2026-04-11T17:38:23.024Z</time></trkpt><trkpt lat="42.122749" lon="12.065051"><ele>281.0</ele><time>2026-04-11T17:38:24.024Z</time></trkpt><trkpt lat="42.1228039" lon="12.0652406"><ele>280.6666666666667</ele><time>2026-04-11T17:38:25.023Z</time></trkpt><trkpt lat="42.1228643" lon="12.065445"><ele>280.3333333333333</ele><time>2026-04-11T17:38:26.024Z</time></trkpt><trkpt lat="42.122914" lon="12.0656321"><ele>280.0</ele><time>2026-04-11T17:38:27.024Z</time></trkpt><trkpt lat="42.1229664" lon="12.0658634"><ele>280.0</ele><time>2026-04-11T17:38:28.023Z</time></trkpt><trkpt lat="42.1230057" lon="12.0660939"><ele>280.0</ele><time>2026-04-11T17:38:29.023Z</time></trkpt><trkpt lat="42.1230482" lon="12.0663053"><ele>280.0</ele><time>2026-04-11T17:38:30.024Z</time></trkpt><trkpt lat="42.1230911" lon="12.0665171"><ele>281.3333333333333</ele><time>2026-04-11T17:38:31.023Z</time></trkpt><trkpt lat="42.1231432" lon="12.0667143"><ele>282.6666666666667</ele><time>2026-04-11T17:38:32.023Z</time></trkpt><trkpt lat="42.1231966" lon="12.0669176"><ele>284.0</ele><time>2026-04-11T17:38:33.023Z</time></trkpt><trkpt lat="42.1232585" lon="12.0671251"><ele>284.0</ele><time>2026-04-11T17:38:34.023Z</time></trkpt><trkpt lat="42.1233292" lon="12.0673439"><ele>284.0</ele><time>2026-04-11T17:38:35.022Z</time></trkpt><trkpt lat="42.1234062" lon="12.0675576"><ele>284.0</ele><time>2026-04-11T17:38:36.022Z</time></trkpt><trkpt lat="42.1234872" lon="12.067777"><ele>281.6666666666667</ele><time>2026-04-11T17:38:37.023Z</time></trkpt><trkpt lat="42.1235675" lon="12.0679964"><ele>279.3333333333333</ele><time>2026-04-11T17:38:38.022Z</time></trkpt><trkpt lat="42.1236538" lon="12.0682209"><ele>277.0</ele><time>2026-04-11T17:38:39.023Z</time></trkpt><trkpt lat="42.1237373" lon="12.0684565"><ele>275.3333333333333</ele><time>2026-04-11T17:38:40.023Z</time></trkpt><trkpt lat="42.1238265" lon="12.0686876"><ele>273.6666666666667</ele><time>2026-04-11T17:38:41.023Z</time></trkpt><trkpt lat="42.1239257" lon="12.0689073"><ele>272.0</ele><time>2026-04-11T17:38:42.023Z</time></trkpt><trkpt lat="42.1240358" lon="12.0690947"><ele>273.75</ele><time>2026-04-11T17:38:43.023Z</time></trkpt><trkpt lat="42.1241486" lon="12.0692133"><ele>275.5</ele><time>2026-04-11T17:38:44.023Z</time></trkpt><trkpt lat="42.1242747" lon="12.0692954"><ele>277.25</ele><time>2026-04-11T17:38:45.022Z</time></trkpt><trkpt lat="42.1244025" lon="12.0693662"><ele>279.0</ele><time>2026-04-11T17:38:46.023Z</time></trkpt><trkpt lat="42.1245429" lon="12.0694119"><ele>279.0</ele><time>2026-04-11T17:38:47.022Z</time></trkpt><trkpt lat="42.1246721" lon="12.0694514"><ele>279.0</ele><time>2026-04-11T17:38:48.023Z</time></trkpt><trkpt lat="42.124804" lon="12.0695064"><ele>279.0</ele><time>2026-04-11T17:38:49.023Z</time></trkpt><trkpt lat="42.1249167" lon="12.0695467"><ele>279.0</ele><time>2026-04-11T17:38:50.022Z</time></trkpt><trkpt lat="42.1250212" lon="12.0695921"><ele>279.4</ele><time>2026-04-11T17:38:51.022Z</time></trkpt><trkpt lat="42.1251101" lon="12.0696422"><ele>279.79999999999995</ele><time>2026-04-11T17:38:52.022Z</time></trkpt><trkpt lat="42.1251856" lon="12.0697069"><ele>280.20000000000005</ele><time>2026-04-11T17:38:53.022Z</time></trkpt><trkpt lat="42.1252439" lon="12.0697863"><ele>280.6</ele><time>2026-04-11T17:38:54.023Z</time></trkpt><trkpt lat="42.125279" lon="12.0698977"><ele>281.0</ele><time>2026-04-11T17:38:55.023Z</time></trkpt><trkpt lat="42.1252938" lon="12.070051"><ele>281.0</ele><time>2026-04-11T17:38:56.022Z</time></trkpt><trkpt lat="42.125281" lon="12.0702323"><ele>281.0</ele><time>2026-04-11T17:38:57.023Z</time></trkpt><trkpt lat="42.1252603" lon="12.0704327"><ele>281.0</ele><time>2026-04-11T17:38:58.023Z</time></trkpt><trkpt lat="42.1252414" lon="12.0706406"><ele>281.0</ele><time>2026-04-11T17:38:59.022Z</time></trkpt><trkpt lat="42.1252215" lon="12.0708504"><ele>278.6666666666667</ele><time>2026-04-11T17:39:00.023Z</time></trkpt><trkpt lat="42.1251995" lon="12.0710611"><ele>276.3333333333333</ele><time>2026-04-11T17:39:01.023Z</time></trkpt><trkpt lat="42.1251816" lon="12.0712668"><ele>274.0</ele><time>2026-04-11T17:39:02.023Z</time></trkpt><trkpt lat="42.1251704" lon="12.0714622"><ele>273.75</ele><time>2026-04-11T17:39:03.022Z</time></trkpt><trkpt lat="42.1251741" lon="12.0716453"><ele>273.5</ele><time>2026-04-11T17:39:04.022Z</time></trkpt><trkpt lat="42.1251901" lon="12.0718239"><ele>273.25</ele><time>2026-04-11T17:39:05.023Z</time></trkpt><trkpt lat="42.1252326" lon="12.0719842"><ele>273.0</ele><time>2026-04-11T17:39:06.022Z</time></trkpt><trkpt lat="42.1253037" lon="12.0721187"><ele>273.0</ele><time>2026-04-11T17:39:07.022Z</time></trkpt><trkpt lat="42.1253963" lon="12.0722395"><ele>273.0</ele><time>2026-04-11T17:39:08.022Z</time></trkpt><trkpt lat="42.1254927" lon="12.0723649"><ele>273.0</ele><time>2026-04-11T17:39:09.022Z</time></trkpt><trkpt lat="42.1256073" lon="12.0724721"><ele>273.0</ele><time>2026-04-11T17:39:10.022Z</time></trkpt><trkpt lat="42.1257263" lon="12.0725986"><ele>274.6666666666667</ele><time>2026-04-11T17:39:11.023Z</time></trkpt><trkpt lat="42.1258465" lon="12.0727219"><ele>276.33333333333337</ele><time>2026-04-11T17:39:12.023Z</time></trkpt><trkpt lat="42.1259693" lon="12.0728441"><ele>278.0</ele><time>2026-04-11T17:39:13.022Z</time></trkpt><trkpt lat="42.1261831" lon="12.0731475"><ele>278.75</ele><time>2026-04-11T17:39:15.023Z</time></trkpt><trkpt lat="42.1262743" lon="12.0733088"><ele>279.5</ele><time>2026-04-11T17:39:16.022Z</time></trkpt><trkpt lat="42.1263714" lon="12.0734139"><ele>280.25</ele><time>2026-04-11T17:39:17.023Z</time></trkpt><trkpt lat="42.1264597" lon="12.0735219"><ele>281.0</ele><time>2026-04-11T17:39:18.022Z</time></trkpt><trkpt lat="42.12653" lon="12.0736801"><ele>281.33333333333337</ele><time>2026-04-11T17:39:19.023Z</time></trkpt><trkpt lat="42.1265987" lon="12.0738845"><ele>281.6666666666667</ele><time>2026-04-11T17:39:20.023Z</time></trkpt><trkpt lat="42.1266574" lon="12.0741244"><ele>282.0</ele><time>2026-04-11T17:39:21.023Z</time></trkpt><trkpt lat="42.1267294" lon="12.0743505"><ele>282.0</ele><time>2026-04-11T17:39:22.023Z</time></trkpt><trkpt lat="42.1268044" lon="12.0745821"><ele>282.0</ele><time>2026-04-11T17:39:23.022Z</time></trkpt><trkpt lat="42.126888" lon="12.0748127"><ele>282.0</ele><time>2026-04-11T17:39:24.022Z</time></trkpt><trkpt lat="42.1269723" lon="12.0750408"><ele>282.6666666666667</ele><time>2026-04-11T17:39:25.023Z</time></trkpt><trkpt lat="42.1270577" lon="12.0752799"><ele>283.33333333333337</ele><time>2026-04-11T17:39:26.023Z</time></trkpt><trkpt lat="42.1271398" lon="12.075514"><ele>284.0</ele><time>2026-04-11T17:39:27.023Z</time></trkpt><trkpt lat="42.127222" lon="12.0757477"><ele>284.33333333333337</ele><time>2026-04-11T17:39:28.023Z</time></trkpt><trkpt lat="42.1272996" lon="12.0759745"><ele>284.6666666666667</ele><time>2026-04-11T17:39:29.022Z</time></trkpt><trkpt lat="42.1273765" lon="12.0761976"><ele>285.0</ele><time>2026-04-11T17:39:30.023Z</time></trkpt><trkpt lat="42.1274585" lon="12.0764189"><ele>285.3333333333333</ele><time>2026-04-11T17:39:31.023Z</time></trkpt><trkpt lat="42.1275282" lon="12.0766193"><ele>285.66666666666663</ele><time>2026-04-11T17:39:32.023Z</time></trkpt><trkpt lat="42.1276107" lon="12.0768358"><ele>286.0</ele><time>2026-04-11T17:39:33.022Z</time></trkpt><trkpt lat="42.1276869" lon="12.0770451"><ele>286.0</ele><time>2026-04-11T17:39:34.023Z</time></trkpt><trkpt lat="42.1277551" lon="12.0772638"><ele>286.0</ele><time>2026-04-11T17:39:35.023Z</time></trkpt><trkpt lat="42.1278387" lon="12.0774662"><ele>286.0</ele><time>2026-04-11T17:39:36.022Z</time></trkpt><trkpt lat="42.1279155" lon="12.0776691"><ele>286.0</ele><time>2026-04-11T17:39:37.022Z</time></trkpt><trkpt lat="42.127989" lon="12.0778902"><ele>286.0</ele><time>2026-04-11T17:39:38.023Z</time></trkpt><trkpt lat="42.1280546" lon="12.078089"><ele>286.0</ele><time>2026-04-11T17:39:39.022Z</time></trkpt><trkpt lat="42.1281181" lon="12.0782906"><ele>285.0</ele><time>2026-04-11T17:39:40.023Z</time></trkpt><trkpt lat="42.1281794" lon="12.0784849"><ele>284.0</ele><time>2026-04-11T17:39:41.023Z</time></trkpt><trkpt lat="42.1282219" lon="12.078674"><ele>283.0</ele><time>2026-04-11T17:39:42.022Z</time></trkpt><trkpt lat="42.1282454" lon="12.078868"><ele>282.0</ele><time>2026-04-11T17:39:43.023Z</time></trkpt><trkpt lat="42.1282608" lon="12.0790616"><ele>282.0</ele><time>2026-04-11T17:39:44.023Z</time></trkpt><trkpt lat="42.1282752" lon="12.0792659"><ele>282.0</ele><time>2026-04-11T17:39:45.023Z</time></trkpt><trkpt lat="42.1282922" lon="12.0794787"><ele>282.0</ele><time>2026-04-11T17:39:46.022Z</time></trkpt><trkpt lat="42.1282856" lon="12.0797037"><ele>282.0</ele><time>2026-04-11T17:39:47.022Z</time></trkpt><trkpt lat="42.1282739" lon="12.0799111"><ele>282.0</ele><time>2026-04-11T17:39:48.023Z</time></trkpt><trkpt lat="42.1282421" lon="12.0801231"><ele>282.0</ele><time>2026-04-11T17:39:49.023Z</time></trkpt><trkpt lat="42.1281942" lon="12.0803518"><ele>282.0</ele><time>2026-04-11T17:39:50.022Z</time></trkpt><trkpt lat="42.1281386" lon="12.0805706"><ele>282.0</ele><time>2026-04-11T17:39:51.022Z</time></trkpt><trkpt lat="42.1280788" lon="12.0807774"><ele>282.0</ele><time>2026-04-11T17:39:52.023Z</time></trkpt><trkpt lat="42.1280113" lon="12.0809773"><ele>282.75</ele><time>2026-04-11T17:39:53.023Z</time></trkpt><trkpt lat="42.1279388" lon="12.0811626"><ele>283.5</ele><time>2026-04-11T17:39:54.022Z</time></trkpt><trkpt lat="42.1278592" lon="12.081332"><ele>284.25</ele><time>2026-04-11T17:39:55.023Z</time></trkpt><trkpt lat="42.1277846" lon="12.0814993"><ele>285.0</ele><time>2026-04-11T17:39:56.022Z</time></trkpt><trkpt lat="42.1277138" lon="12.0816924"><ele>286.6666666666667</ele><time>2026-04-11T17:39:57.023Z</time></trkpt><trkpt lat="42.1276445" lon="12.0818935"><ele>288.33333333333337</ele><time>2026-04-11T17:39:58.022Z</time></trkpt><trkpt lat="42.1275739" lon="12.0821006"><ele>290.0</ele><time>2026-04-11T17:39:59.022Z</time></trkpt><trkpt lat="42.1275119" lon="12.0823119"><ele>291.0</ele><time>2026-04-11T17:40:00.023Z</time></trkpt><trkpt lat="42.1274501" lon="12.0825349"><ele>292.0</ele><time>2026-04-11T17:40:01.022Z</time></trkpt><trkpt lat="42.1273865" lon="12.0827723"><ele>293.0</ele><time>2026-04-11T17:40:02.022Z</time></trkpt><trkpt lat="42.1273316" lon="12.0829954"><ele>294.0</ele><time>2026-04-11T17:40:03.022Z</time></trkpt><trkpt lat="42.1272874" lon="12.0832139"><ele>295.0</ele><time>2026-04-11T17:40:04.022Z</time></trkpt><trkpt lat="42.1272592" lon="12.0834558"><ele>296.0</ele><time>2026-04-11T17:40:05.022Z</time></trkpt><trkpt lat="42.1272091" lon="12.0837021"><ele>296.6666666666667</ele><time>2026-04-11T17:40:06.022Z</time></trkpt><trkpt lat="42.1271551" lon="12.0839128"><ele>297.3333333333333</ele><time>2026-04-11T17:40:07.022Z</time></trkpt><trkpt lat="42.1271131" lon="12.0841217"><ele>298.0</ele><time>2026-04-11T17:40:08.023Z</time></trkpt><trkpt lat="42.1270643" lon="12.0843362"><ele>298.66666666666663</ele><time>2026-04-11T17:40:09.023Z</time></trkpt><trkpt lat="42.1270007" lon="12.0845532"><ele>299.3333333333333</ele><time>2026-04-11T17:40:10.023Z</time></trkpt><trkpt lat="42.1269456" lon="12.0847568"><ele>300.0</ele><time>2026-04-11T17:40:11.022Z</time></trkpt><trkpt lat="42.1268953" lon="12.0849536"><ele>300.6666666666667</ele><time>2026-04-11T17:40:12.023Z</time></trkpt><trkpt lat="42.126847" lon="12.0851494"><ele>301.33333333333337</ele><time>2026-04-11T17:40:13.022Z</time></trkpt><trkpt lat="42.1268081" lon="12.0853494"><ele>302.0</ele><time>2026-04-11T17:40:14.022Z</time></trkpt><trkpt lat="42.1267649" lon="12.0855424"><ele>302.0</ele><time>2026-04-11T17:40:15.022Z</time></trkpt><trkpt lat="42.1267126" lon="12.085744"><ele>302.0</ele><time>2026-04-11T17:40:16.022Z</time></trkpt><trkpt lat="42.1266607" lon="12.0859447"><ele>302.0</ele><time>2026-04-11T17:40:17.023Z</time></trkpt><trkpt lat="42.1266136" lon="12.0861422"><ele>302.6666666666667</ele><time>2026-04-11T17:40:18.022Z</time></trkpt><trkpt lat="42.1265681" lon="12.0863372"><ele>303.3333333333333</ele><time>2026-04-11T17:40:19.022Z</time></trkpt><trkpt lat="42.1265207" lon="12.0865366"><ele>304.0</ele><time>2026-04-11T17:40:20.022Z</time></trkpt><trkpt lat="42.1264823" lon="12.0867447"><ele>305.0</ele><time>2026-04-11T17:40:21.023Z</time></trkpt><trkpt lat="42.1264526" lon="12.0869577"><ele>306.0</ele><time>2026-04-11T17:40:22.023Z</time></trkpt><trkpt lat="42.1264396" lon="12.0871723"><ele>307.0</ele><time>2026-04-11T17:40:23.023Z</time></trkpt><trkpt lat="42.1264308" lon="12.0873981"><ele>307.0</ele><time>2026-04-11T17:40:24.023Z</time></trkpt><trkpt lat="42.1264212" lon="12.0876253"><ele>307.0</ele><time>2026-04-11T17:40:25.023Z</time></trkpt><trkpt lat="42.1264132" lon="12.0878563"><ele>307.0</ele><time>2026-04-11T17:40:26.023Z</time></trkpt><trkpt lat="42.1264067" lon="12.0880899"><ele>307.66666666666663</ele><time>2026-04-11T17:40:27.023Z</time></trkpt><trkpt lat="42.1263973" lon="12.0883287"><ele>308.3333333333333</ele><time>2026-04-11T17:40:28.023Z</time></trkpt><trkpt lat="42.1263863" lon="12.0885605"><ele>309.0</ele><time>2026-04-11T17:40:29.022Z</time></trkpt><trkpt lat="42.1263773" lon="12.0887871"><ele>309.0</ele><time>2026-04-11T17:40:30.022Z</time></trkpt><trkpt lat="42.1263696" lon="12.0890133"><ele>309.0</ele><time>2026-04-11T17:40:31.023Z</time></trkpt><trkpt lat="42.1263663" lon="12.0892381"><ele>309.0</ele><time>2026-04-11T17:40:32.023Z</time></trkpt><trkpt lat="42.1263613" lon="12.0894584"><ele>309.0</ele><time>2026-04-11T17:40:33.023Z</time></trkpt><trkpt lat="42.1263571" lon="12.0896723"><ele>309.0</ele><time>2026-04-11T17:40:34.023Z</time></trkpt><trkpt lat="42.1263515" lon="12.0898809"><ele>309.0</ele><time>2026-04-11T17:40:35.023Z</time></trkpt><trkpt lat="42.1263459" lon="12.0900789"><ele>309.0</ele><time>2026-04-11T17:40:36.022Z</time></trkpt><trkpt lat="42.126338" lon="12.0902665"><ele>309.0</ele><time>2026-04-11T17:40:37.023Z</time></trkpt><trkpt lat="42.1263294" lon="12.0904461"><ele>309.0</ele><time>2026-04-11T17:40:38.023Z</time></trkpt><trkpt lat="42.1263236" lon="12.0906278"><ele>309.0</ele><time>2026-04-11T17:40:39.022Z</time></trkpt><trkpt lat="42.1263172" lon="12.0908188"><ele>309.0</ele><time>2026-04-11T17:40:40.023Z</time></trkpt><trkpt lat="42.1263095" lon="12.0910029"><ele>309.0</ele><time>2026-04-11T17:40:41.023Z</time></trkpt><trkpt lat="42.1263034" lon="12.0911778"><ele>309.0</ele><time>2026-04-11T17:40:42.022Z</time></trkpt><trkpt lat="42.1263001" lon="12.0913386"><ele>309.0</ele><time>2026-04-11T17:40:43.022Z</time></trkpt><trkpt lat="42.1262966" lon="12.0914826"><ele>309.0</ele><time>2026-04-11T17:40:44.023Z</time></trkpt><trkpt lat="42.1262928" lon="12.091605"><ele>309.0</ele><time>2026-04-11T17:40:45.022Z</time></trkpt><trkpt lat="42.1262885" lon="12.0917093"><ele>309.0</ele><time>2026-04-11T17:40:46.022Z</time></trkpt><trkpt lat="42.1263142" lon="12.0918344"><ele>309.0</ele><time>2026-04-11T17:40:48.023Z</time></trkpt><trkpt lat="42.1263669" lon="12.0919"><ele>309.0</ele><time>2026-04-11T17:40:50.023Z</time></trkpt><trkpt lat="42.1264476" lon="12.0919462"><ele>309.0</ele><time>2026-04-11T17:40:52.023Z</time></trkpt><trkpt lat="42.1265639" lon="12.09195"><ele>309.4</ele><time>2026-04-11T17:40:54.023Z</time></trkpt><trkpt lat="42.1266361" lon="12.0919587"><ele>309.79999999999995</ele><time>2026-04-11T17:40:55.023Z</time></trkpt><trkpt lat="42.1267242" lon="12.0919706"><ele>310.20000000000005</ele><time>2026-04-11T17:40:56.022Z</time></trkpt><trkpt lat="42.1268189" lon="12.0919761"><ele>310.6</ele><time>2026-04-11T17:40:57.022Z</time></trkpt><trkpt lat="42.1269207" lon="12.0919781"><ele>311.0</ele><time>2026-04-11T17:40:58.022Z</time></trkpt><trkpt lat="42.1270311" lon="12.0919852"><ele>311.0</ele><time>2026-04-11T17:40:59.023Z</time></trkpt><trkpt lat="42.1271408" lon="12.0919941"><ele>311.0</ele><time>2026-04-11T17:41:00.023Z</time></trkpt><trkpt lat="42.127249" lon="12.0920011"><ele>311.0</ele><time>2026-04-11T17:41:01.023Z</time></trkpt><trkpt lat="42.1273594" lon="12.092008"><ele>311.0</ele><time>2026-04-11T17:41:02.022Z</time></trkpt><trkpt lat="42.1274744" lon="12.092021"><ele>311.0</ele><time>2026-04-11T17:41:03.023Z</time></trkpt><trkpt lat="42.1275855" lon="12.0920312"><ele>310.2</ele><time>2026-04-11T17:41:04.023Z</time></trkpt><trkpt lat="42.1276991" lon="12.0920464"><ele>309.40000000000003</ele><time>2026-04-11T17:41:05.023Z</time></trkpt><trkpt lat="42.1278113" lon="12.092066"><ele>308.6</ele><time>2026-04-11T17:41:06.022Z</time></trkpt><trkpt lat="42.1279097" lon="12.0920831"><ele>307.8</ele><time>2026-04-11T17:41:07.022Z</time></trkpt><trkpt lat="42.1280046" lon="12.0920961"><ele>307.0</ele><time>2026-04-11T17:41:08.023Z</time></trkpt><trkpt lat="42.1280867" lon="12.0921072"><ele>307.0</ele><time>2026-04-11T17:41:09.022Z</time></trkpt><trkpt lat="42.1281652" lon="12.0921078"><ele>307.0</ele><time>2026-04-11T17:41:10.023Z</time></trkpt><trkpt lat="42.1282454" lon="12.0920821"><ele>307.0</ele><time>2026-04-11T17:41:11.022Z</time></trkpt><trkpt lat="42.1283284" lon="12.0920363"><ele>307.0</ele><time>2026-04-11T17:41:12.023Z</time></trkpt><trkpt lat="42.1284125" lon="12.0919801"><ele>307.0</ele><time>2026-04-11T17:41:13.022Z</time></trkpt><trkpt lat="42.1284999" lon="12.0919064"><ele>307.0</ele><time>2026-04-11T17:41:14.022Z</time></trkpt><trkpt lat="42.1285849" lon="12.0918254"><ele>306.8</ele><time>2026-04-11T17:41:15.023Z</time></trkpt><trkpt lat="42.1286773" lon="12.0917535"><ele>306.6</ele><time>2026-04-11T17:41:16.023Z</time></trkpt><trkpt lat="42.1287695" lon="12.0916857"><ele>306.40000000000003</ele><time>2026-04-11T17:41:17.023Z</time></trkpt><trkpt lat="42.1288653" lon="12.0916225"><ele>306.2</ele><time>2026-04-11T17:41:18.022Z</time></trkpt><trkpt lat="42.1289676" lon="12.0915656"><ele>306.0</ele><time>2026-04-11T17:41:19.023Z</time></trkpt><trkpt lat="42.1290743" lon="12.0915287"><ele>304.8</ele><time>2026-04-11T17:41:20.022Z</time></trkpt><trkpt lat="42.1291799" lon="12.0915009"><ele>303.6</ele><time>2026-04-11T17:41:21.023Z</time></trkpt><trkpt lat="42.129284" lon="12.0914724"><ele>302.4</ele><time>2026-04-11T17:41:22.022Z</time></trkpt><trkpt lat="42.1293822" lon="12.0914645"><ele>301.2</ele><time>2026-04-11T17:41:23.023Z</time></trkpt><trkpt lat="42.1294852" lon="12.091466"><ele>300.0</ele><time>2026-04-11T17:41:24.023Z</time></trkpt><trkpt lat="42.1295912" lon="12.0915021"><ele>300.0</ele><time>2026-04-11T17:41:25.023Z</time></trkpt><trkpt lat="42.1296908" lon="12.0915508"><ele>300.0</ele><time>2026-04-11T17:41:26.022Z</time></trkpt><trkpt lat="42.1298026" lon="12.0916059"><ele>300.0</ele><time>2026-04-11T17:41:27.023Z</time></trkpt><trkpt lat="42.129926" lon="12.0916617"><ele>300.0</ele><time>2026-04-11T17:41:28.022Z</time></trkpt><trkpt lat="42.1300522" lon="12.0917086"><ele>296.75</ele><time>2026-04-11T17:41:29.023Z</time></trkpt><trkpt lat="42.1301673" lon="12.0917599"><ele>293.5</ele><time>2026-04-11T17:41:30.023Z</time></trkpt><trkpt lat="42.1302754" lon="12.0918098"><ele>290.25</ele><time>2026-04-11T17:41:31.023Z</time></trkpt><trkpt lat="42.1303778" lon="12.0918685"><ele>287.0</ele><time>2026-04-11T17:41:32.022Z</time></trkpt><trkpt lat="42.1304754" lon="12.0919227"><ele>287.0</ele><time>2026-04-11T17:41:33.023Z</time></trkpt><trkpt lat="42.1305715" lon="12.0919582"><ele>287.0</ele><time>2026-04-11T17:41:34.023Z</time></trkpt><trkpt lat="42.1306612" lon="12.0919805"><ele>287.0</ele><time>2026-04-11T17:41:35.023Z</time></trkpt><trkpt lat="42.1307498" lon="12.0920005"><ele>287.0</ele><time>2026-04-11T17:41:36.023Z</time></trkpt><trkpt lat="42.1308367" lon="12.0920167"><ele>287.0</ele><time>2026-04-11T17:41:37.023Z</time></trkpt><trkpt lat="42.1309209" lon="12.0920193"><ele>285.2</ele><time>2026-04-11T17:41:38.023Z</time></trkpt><trkpt lat="42.1310058" lon="12.0919668"><ele>283.4</ele><time>2026-04-11T17:41:39.023Z</time></trkpt><trkpt lat="42.1311071" lon="12.0918808"><ele>281.6</ele><time>2026-04-11T17:41:40.023Z</time></trkpt><trkpt lat="42.131204" lon="12.0917737"><ele>279.8</ele><time>2026-04-11T17:41:41.022Z</time></trkpt><trkpt lat="42.1312808" lon="12.0916827"><ele>278.0</ele><time>2026-04-11T17:41:42.023Z</time></trkpt><trkpt lat="42.1313494" lon="12.0916017"><ele>280.0</ele><time>2026-04-11T17:41:43.022Z</time></trkpt><trkpt lat="42.1314135" lon="12.0915344"><ele>282.0</ele><time>2026-04-11T17:41:44.022Z</time></trkpt><trkpt lat="42.1314742" lon="12.0915117"><ele>284.0</ele><time>2026-04-11T17:41:47.022Z</time></trkpt><trkpt lat="42.1315312" lon="12.0914429"><ele>286.0</ele><time>2026-04-11T17:42:19.023Z</time></trkpt><trkpt lat="42.1315706" lon="12.0912986"><ele>288.0</ele><time>2026-04-11T17:42:21.022Z</time></trkpt><trkpt lat="42.1315932" lon="12.0912043"><ele>290.0</ele><time>2026-04-11T17:42:22.022Z</time></trkpt><trkpt lat="42.1316036" lon="12.091101"><ele>285.5</ele><time>2026-04-11T17:42:23.022Z</time></trkpt><trkpt lat="42.1316176" lon="12.0909775"><ele>281.0</ele><time>2026-04-11T17:42:24.023Z</time></trkpt><trkpt lat="42.131616" lon="12.0908844"><ele>276.5</ele><time>2026-04-11T17:42:25.023Z</time></trkpt><trkpt lat="42.1316212" lon="12.0907494"><ele>272.0</ele><time>2026-04-11T17:42:27.022Z</time></trkpt><trkpt lat="42.1316126" lon="12.090663"><ele>267.5</ele><time>2026-04-11T17:42:32.023Z</time></trkpt><trkpt lat="42.1316781" lon="12.0906681"><ele>263.0</ele><time>2026-04-11T17:42:44.022Z</time></trkpt><trkpt lat="42.1317089" lon="12.0907943"><ele>263.0</ele><time>2026-04-11T17:42:47.023Z</time></trkpt><trkpt lat="42.1317165" lon="12.0909414"><ele>263.0</ele><time>2026-04-11T17:42:49.022Z</time></trkpt><trkpt lat="42.1317199" lon="12.0910609"><ele>263.0</ele><time>2026-04-11T17:42:51.022Z</time></trkpt><trkpt lat="42.1317611" lon="12.091227"><ele>263.0</ele><time>2026-04-11T17:42:53.023Z</time></trkpt><trkpt lat="42.1317839" lon="12.0913315"><ele>263.0</ele><time>2026-04-11T17:42:54.023Z</time></trkpt><trkpt lat="42.1318148" lon="12.0914329"><ele>263.0</ele><time>2026-04-11T17:42:55.022Z</time></trkpt><trkpt lat="42.1318415" lon="12.0915214"><ele>263.0</ele><time>2026-04-11T17:42:56.023Z</time></trkpt><trkpt lat="42.1318664" lon="12.0916078"><ele>263.0</ele><time>2026-04-11T17:42:57.023Z</time></trkpt><trkpt lat="42.1318708" lon="12.091757"><ele>263.0</ele><time>2026-04-11T17:42:59.022Z</time></trkpt><trkpt lat="42.1318484" lon="12.0918857"><ele>263.0</ele><time>2026-04-11T17:43:01.023Z</time></trkpt><trkpt lat="42.131814" lon="12.0920558"><ele>263.42857142857144</ele><time>2026-04-11T17:43:03.023Z</time></trkpt><trkpt lat="42.1317946" lon="12.0921437"><ele>263.85714285714283</ele><time>2026-04-11T17:43:04.022Z</time></trkpt><trkpt lat="42.1317728" lon="12.0922339"><ele>264.2857142857143</ele><time>2026-04-11T17:43:05.022Z</time></trkpt><trkpt lat="42.1317518" lon="12.0923301"><ele>264.7142857142857</ele><time>2026-04-11T17:43:06.022Z</time></trkpt><trkpt lat="42.1317277" lon="12.0924248"><ele>265.1428571428571</ele><time>2026-04-11T17:43:07.023Z</time></trkpt><trkpt lat="42.1316983" lon="12.0925229"><ele>265.57142857142856</ele><time>2026-04-11T17:43:08.022Z</time></trkpt><trkpt lat="42.1316788" lon="12.0926196"><ele>266.0</ele><time>2026-04-11T17:43:09.023Z</time></trkpt><trkpt lat="42.1316694" lon="12.0927062"><ele>267.1666666666667</ele><time>2026-04-11T17:43:10.023Z</time></trkpt><trkpt lat="42.1316725" lon="12.0927931"><ele>268.33333333333337</ele><time>2026-04-11T17:43:11.022Z</time></trkpt><trkpt lat="42.1316812" lon="12.0928884"><ele>269.5</ele><time>2026-04-11T17:43:12.022Z</time></trkpt><trkpt lat="42.1316916" lon="12.0929838"><ele>270.6666666666667</ele><time>2026-04-11T17:43:13.023Z</time></trkpt><trkpt lat="42.1317076" lon="12.0930879"><ele>271.8333333333333</ele><time>2026-04-11T17:43:14.023Z</time></trkpt><trkpt lat="42.1317232" lon="12.0931984"><ele>273.0</ele><time>2026-04-11T17:43:15.022Z</time></trkpt><trkpt lat="42.1317413" lon="12.0933112"><ele>274.6</ele><time>2026-04-11T17:43:16.022Z</time></trkpt><trkpt lat="42.1317624" lon="12.0934257"><ele>276.20000000000005</ele><time>2026-04-11T17:43:17.023Z</time></trkpt><trkpt lat="42.1317862" lon="12.0935432"><ele>277.8</ele><time>2026-04-11T17:43:18.023Z</time></trkpt><trkpt lat="42.1318107" lon="12.093663"><ele>279.40000000000003</ele><time>2026-04-11T17:43:19.023Z</time></trkpt><trkpt lat="42.1318328" lon="12.0937827"><ele>281.0</ele><time>2026-04-11T17:43:20.023Z</time></trkpt><trkpt lat="42.1318532" lon="12.0938997"><ele>281.0</ele><time>2026-04-11T17:43:21.023Z</time></trkpt><trkpt lat="42.1318896" lon="12.0940014"><ele>281.0</ele><time>2026-04-11T17:43:22.023Z</time></trkpt><trkpt lat="42.1319372" lon="12.0940686"><ele>281.0</ele><time>2026-04-11T17:43:23.023Z</time></trkpt><trkpt lat="42.1320028" lon="12.0941502"><ele>281.0</ele><time>2026-04-11T17:43:24.023Z</time></trkpt><trkpt lat="42.1320712" lon="12.0942164"><ele>281.0</ele><time>2026-04-11T17:43:25.023Z</time></trkpt><trkpt lat="42.1321228" lon="12.0942957"><ele>281.0</ele><time>2026-04-11T17:43:26.023Z</time></trkpt><trkpt lat="42.1321826" lon="12.0944215"><ele>282.40000000000003</ele><time>2026-04-11T17:43:27.022Z</time></trkpt><trkpt lat="42.1322563" lon="12.0945185"><ele>283.8</ele><time>2026-04-11T17:43:28.023Z</time></trkpt><trkpt lat="42.1323407" lon="12.0946287"><ele>285.20000000000005</ele><time>2026-04-11T17:43:29.023Z</time></trkpt><trkpt lat="42.1323991" lon="12.0947172"><ele>286.6</ele><time>2026-04-11T17:43:30.023Z</time></trkpt><trkpt lat="42.132457" lon="12.0947948"><ele>288.0</ele><time>2026-04-11T17:43:31.022Z</time></trkpt><trkpt lat="42.1325104" lon="12.0948558"><ele>289.5</ele><time>2026-04-11T17:43:32.023Z</time></trkpt><trkpt lat="42.1326228" lon="12.0949554"><ele>291.0</ele><time>2026-04-11T17:43:34.023Z</time></trkpt><trkpt lat="42.1326785" lon="12.0949994"><ele>292.5</ele><time>2026-04-11T17:43:35.023Z</time></trkpt><trkpt lat="42.1327467" lon="12.0950424"><ele>294.0</ele><time>2026-04-11T17:43:36.023Z</time></trkpt><trkpt lat="42.1328191" lon="12.0950988"><ele>295.5</ele><time>2026-04-11T17:43:37.023Z</time></trkpt><trkpt lat="42.1328937" lon="12.0951582"><ele>297.0</ele><time>2026-04-11T17:43:38.023Z</time></trkpt><trkpt lat="42.1329593" lon="12.0952204"><ele>297.0</ele><time>2026-04-11T17:43:39.023Z</time></trkpt><trkpt lat="42.1330323" lon="12.0953021"><ele>297.0</ele><time>2026-04-11T17:43:40.022Z</time></trkpt><trkpt lat="42.133104" lon="12.095399"><ele>297.0</ele><time>2026-04-11T17:43:41.022Z</time></trkpt><trkpt lat="42.1331742" lon="12.0955029"><ele>297.0</ele><time>2026-04-11T17:43:42.023Z</time></trkpt><trkpt lat="42.1332559" lon="12.0955933"><ele>297.0</ele><time>2026-04-11T17:43:43.022Z</time></trkpt><trkpt lat="42.1333372" lon="12.0956733"><ele>299.2</ele><time>2026-04-11T17:43:44.023Z</time></trkpt><trkpt lat="42.1334143" lon="12.095749"><ele>301.4</ele><time>2026-04-11T17:43:45.022Z</time></trkpt><trkpt lat="42.1334951" lon="12.0958488"><ele>303.6</ele><time>2026-04-11T17:43:46.022Z</time></trkpt><trkpt lat="42.133578" lon="12.0959545"><ele>305.8</ele><time>2026-04-11T17:43:47.023Z</time></trkpt><trkpt lat="42.1336537" lon="12.0960768"><ele>308.0</ele><time>2026-04-11T17:43:48.022Z</time></trkpt><trkpt lat="42.1337223" lon="12.0961864"><ele>308.0</ele><time>2026-04-11T17:43:49.023Z</time></trkpt><trkpt lat="42.1338134" lon="12.0962795"><ele>308.0</ele><time>2026-04-11T17:43:50.022Z</time></trkpt><trkpt lat="42.1338965" lon="12.0963665"><ele>308.0</ele><time>2026-04-11T17:43:51.023Z</time></trkpt><trkpt lat="42.1339673" lon="12.0964599"><ele>308.0</ele><time>2026-04-11T17:43:52.023Z</time></trkpt><trkpt lat="42.1340319" lon="12.0965472"><ele>308.0</ele><time>2026-04-11T17:43:53.022Z</time></trkpt><trkpt lat="42.1340956" lon="12.0966331"><ele>309.2</ele><time>2026-04-11T17:43:54.023Z</time></trkpt><trkpt lat="42.1341427" lon="12.0967091"><ele>310.4</ele><time>2026-04-11T17:43:55.023Z</time></trkpt><trkpt lat="42.1341856" lon="12.0968013"><ele>311.59999999999997</ele><time>2026-04-11T17:43:57.023Z</time></trkpt><trkpt lat="42.1342843" lon="12.0967508"><ele>312.8</ele><time>2026-04-11T17:44:06.022Z</time></trkpt><trkpt lat="42.1343593" lon="12.0966358"><ele>314.0</ele><time>2026-04-11T17:44:08.022Z</time></trkpt><trkpt lat="42.1344174" lon="12.0965491"><ele>314.0</ele><time>2026-04-11T17:44:09.022Z</time></trkpt><trkpt lat="42.1344846" lon="12.0964514"><ele>314.0</ele><time>2026-04-11T17:44:10.022Z</time></trkpt><trkpt lat="42.1345605" lon="12.0963401"><ele>314.0</ele><time>2026-04-11T17:44:11.024Z</time></trkpt><trkpt lat="42.1346311" lon="12.0962266"><ele>314.0</ele><time>2026-04-11T17:44:12.024Z</time></trkpt><trkpt lat="42.1347086" lon="12.0961114"><ele>314.0</ele><time>2026-04-11T17:44:13.023Z</time></trkpt><trkpt lat="42.1347928" lon="12.0960002"><ele>314.0</ele><time>2026-04-11T17:44:14.024Z</time></trkpt><trkpt lat="42.1348764" lon="12.0958874"><ele>314.0</ele><time>2026-04-11T17:44:15.023Z</time></trkpt><trkpt lat="42.1349619" lon="12.0957821"><ele>314.0</ele><time>2026-04-11T17:44:16.024Z</time></trkpt><trkpt lat="42.1350463" lon="12.0957035"><ele>314.0</ele><time>2026-04-11T17:44:17.023Z</time></trkpt><trkpt lat="42.1351165" lon="12.0956423"><ele>314.0</ele><time>2026-04-11T17:44:18.023Z</time></trkpt><trkpt lat="42.1352079" lon="12.0955409"><ele>314.83333333333337</ele><time>2026-04-11T17:44:20.024Z</time></trkpt><trkpt lat="42.1353174" lon="12.0954526"><ele>315.6666666666667</ele><time>2026-04-11T17:44:22.024Z</time></trkpt><trkpt lat="42.135387" lon="12.0954066"><ele>316.5</ele><time>2026-04-11T17:44:23.024Z</time></trkpt><trkpt lat="42.1354618" lon="12.095363"><ele>317.3333333333333</ele><time>2026-04-11T17:44:24.023Z</time></trkpt><trkpt lat="42.135533" lon="12.0953225"><ele>318.16666666666663</ele><time>2026-04-11T17:44:25.023Z</time></trkpt><trkpt lat="42.1356076" lon="12.0952745"><ele>319.0</ele><time>2026-04-11T17:44:26.023Z</time></trkpt><trkpt lat="42.1356812" lon="12.0952444"><ele>320.3333333333333</ele><time>2026-04-11T17:44:27.023Z</time></trkpt><trkpt lat="42.1357626" lon="12.095225"><ele>321.66666666666663</ele><time>2026-04-11T17:44:28.023Z</time></trkpt><trkpt lat="42.1358405" lon="12.095204"><ele>323.0</ele><time>2026-04-11T17:44:29.023Z</time></trkpt><trkpt lat="42.1359209" lon="12.0951877"><ele>324.3333333333333</ele><time>2026-04-11T17:44:30.024Z</time></trkpt><trkpt lat="42.1360007" lon="12.0951768"><ele>325.6666666666667</ele><time>2026-04-11T17:44:31.024Z</time></trkpt><trkpt lat="42.1361059" lon="12.0951864"><ele>327.0</ele><time>2026-04-11T17:44:33.024Z</time></trkpt><trkpt lat="42.1361675" lon="12.0952371"><ele>327.0</ele><time>2026-04-11T17:44:35.024Z</time></trkpt><trkpt lat="42.1362568" lon="12.0954826"><ele>327.0</ele><time>2026-04-11T17:44:50.023Z</time></trkpt><trkpt lat="42.1362509" lon="12.0955766"><ele>327.0</ele><time>2026-04-11T17:44:51.024Z</time></trkpt><trkpt lat="42.1362443" lon="12.0957474"><ele>327.0</ele><time>2026-04-11T17:44:53.024Z</time></trkpt><trkpt lat="42.1362435" lon="12.0958402"><ele>328.0</ele><time>2026-04-11T17:44:54.023Z</time></trkpt><trkpt lat="42.1362294" lon="12.0959457"><ele>329.0</ele><time>2026-04-11T17:44:55.023Z</time></trkpt><trkpt lat="42.136204" lon="12.0960652"><ele>330.0</ele><time>2026-04-11T17:44:56.024Z</time></trkpt><trkpt lat="42.1361998" lon="12.0962151"><ele>331.0</ele><time>2026-04-11T17:44:57.023Z</time></trkpt><trkpt lat="42.1362265" lon="12.0963324"><ele>332.0</ele><time>2026-04-11T17:44:58.023Z</time></trkpt><trkpt lat="42.1362362" lon="12.0964899"><ele>332.0</ele><time>2026-04-11T17:45:00.022Z</time></trkpt><trkpt lat="42.1362027" lon="12.0965698"><ele>332.0</ele><time>2026-04-11T17:45:01.023Z</time></trkpt><trkpt lat="42.1361647" lon="12.0966425"><ele>332.0</ele><time>2026-04-11T17:45:02.022Z</time></trkpt><trkpt lat="42.1361305" lon="12.0967228"><ele>332.0</ele><time>2026-04-11T17:45:03.022Z</time></trkpt><trkpt lat="42.1360918" lon="12.096811"><ele>332.0</ele><time>2026-04-11T17:45:04.022Z</time></trkpt><trkpt lat="42.1360653" lon="12.0969119"><ele>332.0</ele><time>2026-04-11T17:45:05.023Z</time></trkpt><trkpt lat="42.1360095" lon="12.0970045"><ele>332.0</ele><time>2026-04-11T17:45:06.022Z</time></trkpt><trkpt lat="42.1359447" lon="12.0971222"><ele>333.20000000000005</ele><time>2026-04-11T17:45:08.022Z</time></trkpt><trkpt lat="42.135865" lon="12.0972485"><ele>334.4</ele><time>2026-04-11T17:45:10.022Z</time></trkpt><trkpt lat="42.1358138" lon="12.0973376"><ele>335.6</ele><time>2026-04-11T17:45:11.022Z</time></trkpt><trkpt lat="42.1357808" lon="12.0974293"><ele>336.79999999999995</ele><time>2026-04-11T17:45:12.023Z</time></trkpt><trkpt lat="42.1357467" lon="12.0975717"><ele>338.0</ele><time>2026-04-11T17:45:14.022Z</time></trkpt><trkpt lat="42.1357688" lon="12.0977479"><ele>339.0</ele><time>2026-04-11T17:45:16.023Z</time></trkpt><trkpt lat="42.1357811" lon="12.0978495"><ele>340.0</ele><time>2026-04-11T17:45:17.022Z</time></trkpt><trkpt lat="42.1358019" lon="12.0980174"><ele>341.0</ele><time>2026-04-11T17:45:19.023Z</time></trkpt><trkpt lat="42.1358109" lon="12.0981028"><ele>342.0</ele><time>2026-04-11T17:45:20.022Z</time></trkpt><trkpt lat="42.1357852" lon="12.0982571"><ele>343.0</ele><time>2026-04-11T17:45:22.023Z</time></trkpt><trkpt lat="42.1357548" lon="12.0984013"><ele>344.75</ele><time>2026-04-11T17:45:24.022Z</time></trkpt><trkpt lat="42.1357572" lon="12.0985633"><ele>346.5</ele><time>2026-04-11T17:45:26.022Z</time></trkpt><trkpt lat="42.1357673" lon="12.0987187"><ele>348.25</ele><time>2026-04-11T17:45:28.022Z</time></trkpt><trkpt lat="42.1357742" lon="12.0988676"><ele>350.0</ele><time>2026-04-11T17:45:30.022Z</time></trkpt><trkpt lat="42.135764" lon="12.0990158"><ele>351.2</ele><time>2026-04-11T17:45:32.023Z</time></trkpt><trkpt lat="42.1357461" lon="12.0991747"><ele>352.4</ele><time>2026-04-11T17:45:34.023Z</time></trkpt><trkpt lat="42.1357415" lon="12.0993082"><ele>353.6</ele><time>2026-04-11T17:45:36.022Z</time></trkpt><trkpt lat="42.1357458" lon="12.0994161"><ele>354.8</ele><time>2026-04-11T17:45:38.022Z</time></trkpt><trkpt lat="42.1357654" lon="12.0995575"><ele>356.0</ele><time>2026-04-11T17:45:40.023Z</time></trkpt><trkpt lat="42.135776" lon="12.0997306"><ele>356.0</ele><time>2026-04-11T17:45:42.022Z</time></trkpt><trkpt lat="42.1357811" lon="12.0998733"><ele>356.0</ele><time>2026-04-11T17:45:44.022Z</time></trkpt><trkpt lat="42.1358003" lon="12.0999718"><ele>356.0</ele><time>2026-04-11T17:45:50.022Z</time></trkpt><trkpt lat="42.1358219" lon="12.1000614"><ele>356.0</ele><time>2026-04-11T17:45:52.023Z</time></trkpt><trkpt lat="42.1358526" lon="12.1001698"><ele>356.0</ele><time>2026-04-11T17:45:54.023Z</time></trkpt><trkpt lat="42.1359035" lon="12.1003179"><ele>356.5</ele><time>2026-04-11T17:45:56.023Z</time></trkpt><trkpt lat="42.1359305" lon="12.100405"><ele>357.0</ele><time>2026-04-11T17:45:57.023Z</time></trkpt><trkpt lat="42.1359552" lon="12.1004981"><ele>357.5</ele><time>2026-04-11T17:45:58.023Z</time></trkpt><trkpt lat="42.1359738" lon="12.1005868"><ele>358.0</ele><time>2026-04-11T17:45:59.023Z</time></trkpt><trkpt lat="42.1359966" lon="12.1006697"><ele>358.5</ele><time>2026-04-11T17:46:00.022Z</time></trkpt><trkpt lat="42.136024" lon="12.100814"><ele>359.0</ele><time>2026-04-11T17:46:02.023Z</time></trkpt><trkpt lat="42.136038" lon="12.1009655"><ele>360.4</ele><time>2026-04-11T17:46:04.023Z</time></trkpt><trkpt lat="42.1360432" lon="12.1011152"><ele>361.79999999999995</ele><time>2026-04-11T17:46:06.022Z</time></trkpt><trkpt lat="42.1360265" lon="12.1012818"><ele>363.20000000000005</ele><time>2026-04-11T17:46:08.022Z</time></trkpt><trkpt lat="42.1360215" lon="12.1014098"><ele>364.6</ele><time>2026-04-11T17:46:10.022Z</time></trkpt><trkpt lat="42.1360155" lon="12.101532"><ele>366.0</ele><time>2026-04-11T17:46:13.022Z</time></trkpt><trkpt lat="42.1360434" lon="12.1016133"><ele>366.8333333333333</ele><time>2026-04-11T17:46:15.022Z</time></trkpt><trkpt lat="42.1360339" lon="12.1017149"><ele>367.6666666666667</ele><time>2026-04-11T17:46:20.023Z</time></trkpt><trkpt lat="42.1360243" lon="12.1018227"><ele>368.5</ele><time>2026-04-11T17:46:23.023Z</time></trkpt><trkpt lat="42.1360109" lon="12.1019447"><ele>369.33333333333337</ele><time>2026-04-11T17:46:26.022Z</time></trkpt><trkpt lat="42.1359888" lon="12.1020448"><ele>370.1666666666667</ele><time>2026-04-11T17:46:29.022Z</time></trkpt><trkpt lat="42.1359675" lon="12.1021371"><ele>371.0</ele><time>2026-04-11T17:46:32.023Z</time></trkpt><trkpt lat="42.1358849" lon="12.1021843"><ele>371.0</ele><time>2026-04-11T17:46:36.022Z</time></trkpt><trkpt lat="42.1358225" lon="12.1022009"><ele>371.0</ele><time>2026-04-11T17:46:38.023Z</time></trkpt><trkpt lat="42.1357294" lon="12.1022099"><ele>371.0</ele><time>2026-04-11T17:46:40.023Z</time></trkpt><trkpt lat="42.1356154" lon="12.1022368"><ele>371.0</ele><time>2026-04-11T17:46:42.023Z</time></trkpt><trkpt lat="42.1355518" lon="12.102255"><ele>371.0</ele><time>2026-04-11T17:46:43.023Z</time></trkpt><trkpt lat="42.1354844" lon="12.1022703"><ele>371.0</ele><time>2026-04-11T17:46:44.022Z</time></trkpt><trkpt lat="42.1353987" lon="12.1023126"><ele>371.1666666666667</ele><time>2026-04-11T17:46:45.023Z</time></trkpt><trkpt lat="42.1352811" lon="12.1023285"><ele>371.33333333333337</ele><time>2026-04-11T17:46:46.022Z</time></trkpt><trkpt lat="42.1352047" lon="12.102347"><ele>371.5</ele><time>2026-04-11T17:46:47.022Z</time></trkpt><trkpt lat="42.1351305" lon="12.1024028"><ele>371.6666666666667</ele><time>2026-04-11T17:46:48.023Z</time></trkpt><trkpt lat="42.1350502" lon="12.1024237"><ele>371.8333333333333</ele><time>2026-04-11T17:46:49.023Z</time></trkpt><trkpt lat="42.1349789" lon="12.1024414"><ele>372.0</ele><time>2026-04-11T17:46:50.023Z</time></trkpt><trkpt lat="42.1349072" lon="12.1024879"><ele>369.8333333333333</ele><time>2026-04-11T17:46:51.023Z</time></trkpt><trkpt lat="42.1348496" lon="12.1025525"><ele>367.6666666666667</ele><time>2026-04-11T17:46:52.023Z</time></trkpt><trkpt lat="42.1347996" lon="12.1026359"><ele>365.5</ele><time>2026-04-11T17:46:53.023Z</time></trkpt><trkpt lat="42.1347697" lon="12.1027397"><ele>363.33333333333337</ele><time>2026-04-11T17:46:54.023Z</time></trkpt><trkpt lat="42.1347334" lon="12.1028428"><ele>361.1666666666667</ele><time>2026-04-11T17:46:55.023Z</time></trkpt><trkpt lat="42.1347001" lon="12.1029592"><ele>359.0</ele><time>2026-04-11T17:46:56.022Z</time></trkpt><trkpt lat="42.1346656" lon="12.1030725"><ele>359.0</ele><time>2026-04-11T17:46:57.023Z</time></trkpt><trkpt lat="42.1346078" lon="12.1031347"><ele>359.0</ele><time>2026-04-11T17:46:59.022Z</time></trkpt><trkpt lat="42.1345796" lon="12.1032363"><ele>359.0</ele><time>2026-04-11T17:47:01.023Z</time></trkpt><trkpt lat="42.1345669" lon="12.1033459"><ele>359.0</ele><time>2026-04-11T17:47:03.023Z</time></trkpt><trkpt lat="42.134563" lon="12.1035016"><ele>359.0</ele><time>2026-04-11T17:47:05.023Z</time></trkpt><trkpt lat="42.1345243" lon="12.1035787"><ele>359.0</ele><time>2026-04-11T17:47:06.023Z</time></trkpt><trkpt lat="42.1344539" lon="12.1037543"><ele>359.75</ele><time>2026-04-11T17:47:08.023Z</time></trkpt><trkpt lat="42.1343304" lon="12.1039169"><ele>360.5</ele><time>2026-04-11T17:47:09.023Z</time></trkpt><trkpt lat="42.1342355" lon="12.1040461"><ele>361.25</ele><time>2026-04-11T17:47:10.022Z</time></trkpt><trkpt lat="42.1341486" lon="12.1041515"><ele>362.0</ele><time>2026-04-11T17:47:11.023Z</time></trkpt><trkpt lat="42.134065" lon="12.1042565"><ele>361.0</ele><time>2026-04-11T17:47:12.022Z</time></trkpt><trkpt lat="42.1339875" lon="12.1043344"><ele>360.0</ele><time>2026-04-11T17:47:13.023Z</time></trkpt><trkpt lat="42.1339075" lon="12.1044271"><ele>359.0</ele><time>2026-04-11T17:47:14.022Z</time></trkpt><trkpt lat="42.1338003" lon="12.1045206"><ele>358.0</ele><time>2026-04-11T17:47:15.022Z</time></trkpt><trkpt lat="42.1337063" lon="12.1046163"><ele>357.0</ele><time>2026-04-11T17:47:16.023Z</time></trkpt><trkpt lat="42.1336268" lon="12.1046959"><ele>357.0</ele><time>2026-04-11T17:47:17.023Z</time></trkpt><trkpt lat="42.1335331" lon="12.1047723"><ele>357.0</ele><time>2026-04-11T17:47:18.022Z</time></trkpt><trkpt lat="42.1334473" lon="12.1048273"><ele>357.0</ele><time>2026-04-11T17:47:19.023Z</time></trkpt><trkpt lat="42.1333633" lon="12.1048618"><ele>357.0</ele><time>2026-04-11T17:47:20.022Z</time></trkpt><trkpt lat="42.1332923" lon="12.1049732"><ele>357.0</ele><time>2026-04-11T17:47:21.022Z</time></trkpt><trkpt lat="42.1332084" lon="12.1050871"><ele>356.75</ele><time>2026-04-11T17:47:22.022Z</time></trkpt><trkpt lat="42.133067" lon="12.1051327"><ele>356.5</ele><time>2026-04-11T17:47:23.023Z</time></trkpt><trkpt lat="42.1329651" lon="12.10521"><ele>356.25</ele><time>2026-04-11T17:47:24.022Z</time></trkpt><trkpt lat="42.1328544" lon="12.1052849"><ele>356.0</ele><time>2026-04-11T17:47:25.022Z</time></trkpt><trkpt lat="42.1327333" lon="12.1053544"><ele>356.0</ele><time>2026-04-11T17:47:26.023Z</time></trkpt><trkpt lat="42.1326137" lon="12.1054223"><ele>356.0</ele><time>2026-04-11T17:47:27.023Z</time></trkpt><trkpt lat="42.132493" lon="12.1054682"><ele>356.0</ele><time>2026-04-11T17:47:28.022Z</time></trkpt><trkpt lat="42.1323783" lon="12.1054874"><ele>356.0</ele><time>2026-04-11T17:47:29.023Z</time></trkpt><trkpt lat="42.1322619" lon="12.1055054"><ele>354.0</ele><time>2026-04-11T17:47:30.022Z</time></trkpt><trkpt lat="42.1321485" lon="12.1055214"><ele>352.0</ele><time>2026-04-11T17:47:31.023Z</time></trkpt><trkpt lat="42.1320343" lon="12.105538"><ele>350.0</ele><time>2026-04-11T17:47:32.023Z</time></trkpt><trkpt lat="42.131921" lon="12.1055553"><ele>348.0</ele><time>2026-04-11T17:47:33.023Z</time></trkpt><trkpt lat="42.1318114" lon="12.1055642"><ele>348.0</ele><time>2026-04-11T17:47:34.022Z</time></trkpt><trkpt lat="42.1316989" lon="12.1055614"><ele>348.0</ele><time>2026-04-11T17:47:35.022Z</time></trkpt><trkpt lat="42.1315818" lon="12.1055585"><ele>348.0</ele><time>2026-04-11T17:47:36.023Z</time></trkpt><trkpt lat="42.1314659" lon="12.1055586"><ele>348.0</ele><time>2026-04-11T17:47:37.022Z</time></trkpt><trkpt lat="42.1313437" lon="12.1055664"><ele>347.25</ele><time>2026-04-11T17:47:38.022Z</time></trkpt><trkpt lat="42.1312244" lon="12.1055716"><ele>346.5</ele><time>2026-04-11T17:47:39.022Z</time></trkpt><trkpt lat="42.13111" lon="12.105571"><ele>345.75</ele><time>2026-04-11T17:47:40.023Z</time></trkpt><trkpt lat="42.1309983" lon="12.1055673"><ele>345.0</ele><time>2026-04-11T17:47:41.023Z</time></trkpt><trkpt lat="42.1308877" lon="12.105578"><ele>345.0</ele><time>2026-04-11T17:47:42.023Z</time></trkpt><trkpt lat="42.1307799" lon="12.105602"><ele>345.0</ele><time>2026-04-11T17:47:43.023Z</time></trkpt><trkpt lat="42.1306789" lon="12.1056304"><ele>345.0</ele><time>2026-04-11T17:47:44.023Z</time></trkpt><trkpt lat="42.1305659" lon="12.1056514"><ele>345.0</ele><time>2026-04-11T17:47:45.022Z</time></trkpt><trkpt lat="42.1304541" lon="12.1056581"><ele>345.0</ele><time>2026-04-11T17:47:46.023Z</time></trkpt><trkpt lat="42.1303443" lon="12.1056662"><ele>344.5</ele><time>2026-04-11T17:47:47.022Z</time></trkpt><trkpt lat="42.1302479" lon="12.1056704"><ele>344.0</ele><time>2026-04-11T17:47:48.023Z</time></trkpt><trkpt lat="42.1301591" lon="12.1056924"><ele>343.5</ele><time>2026-04-11T17:47:49.023Z</time></trkpt><trkpt lat="42.1300622" lon="12.1056898"><ele>343.0</ele><time>2026-04-11T17:47:50.023Z</time></trkpt><trkpt lat="42.1299921" lon="12.105632"><ele>342.5</ele><time>2026-04-11T17:47:51.023Z</time></trkpt><trkpt lat="42.1299334" lon="12.1055595"><ele>342.0</ele><time>2026-04-11T17:47:52.022Z</time></trkpt><trkpt lat="42.129868" lon="12.1055386"><ele>342.0</ele><time>2026-04-11T17:47:53.023Z</time></trkpt><trkpt lat="42.1298038" lon="12.1055315"><ele>342.0</ele><time>2026-04-11T17:47:56.023Z</time></trkpt><trkpt lat="42.1297475" lon="12.1055732"><ele>342.0</ele><time>2026-04-11T17:47:59.022Z</time></trkpt><trkpt lat="42.1296814" lon="12.1057061"><ele>342.0</ele><time>2026-04-11T17:48:01.023Z</time></trkpt><trkpt lat="42.1296247" lon="12.1057946"><ele>342.0</ele><time>2026-04-11T17:48:02.022Z</time></trkpt><trkpt lat="42.1295435" lon="12.1059357"><ele>342.0</ele><time>2026-04-11T17:48:03.022Z</time></trkpt><trkpt lat="42.1294652" lon="12.1060887"><ele>342.0</ele><time>2026-04-11T17:48:04.022Z</time></trkpt><trkpt lat="42.1293929" lon="12.1062141"><ele>342.0</ele><time>2026-04-11T17:48:05.023Z</time></trkpt><trkpt lat="42.1293127" lon="12.1063245"><ele>342.0</ele><time>2026-04-11T17:48:06.022Z</time></trkpt><trkpt lat="42.1292318" lon="12.1064474"><ele>342.0</ele><time>2026-04-11T17:48:07.022Z</time></trkpt><trkpt lat="42.1291518" lon="12.1065724"><ele>342.0</ele><time>2026-04-11T17:48:08.022Z</time></trkpt><trkpt lat="42.1290607" lon="12.1067177"><ele>342.0</ele><time>2026-04-11T17:48:09.023Z</time></trkpt><trkpt lat="42.1289624" lon="12.1068668"><ele>342.0</ele><time>2026-04-11T17:48:10.023Z</time></trkpt><trkpt lat="42.1288735" lon="12.1070147"><ele>341.5</ele><time>2026-04-11T17:48:11.023Z</time></trkpt><trkpt lat="42.1287875" lon="12.1071663"><ele>341.0</ele><time>2026-04-11T17:48:12.022Z</time></trkpt><trkpt lat="42.1287168" lon="12.1073171"><ele>340.5</ele><time>2026-04-11T17:48:13.022Z</time></trkpt><trkpt lat="42.1286608" lon="12.1074617"><ele>340.0</ele><time>2026-04-11T17:48:14.023Z</time></trkpt><trkpt lat="42.128624" lon="12.1075934"><ele>341.0</ele><time>2026-04-11T17:48:15.023Z</time></trkpt><trkpt lat="42.1285447" lon="12.1077907"><ele>342.0</ele><time>2026-04-11T17:48:16.022Z</time></trkpt><trkpt lat="42.1284889" lon="12.1079585"><ele>343.0</ele><time>2026-04-11T17:48:17.022Z</time></trkpt><trkpt lat="42.1284701" lon="12.1081269"><ele>344.0</ele><time>2026-04-11T17:48:18.023Z</time></trkpt><trkpt lat="42.1284882" lon="12.1082807"><ele>345.25</ele><time>2026-04-11T17:48:19.023Z</time></trkpt><trkpt lat="42.1285324" lon="12.1084395"><ele>346.5</ele><time>2026-04-11T17:48:20.022Z</time></trkpt><trkpt lat="42.1286045" lon="12.1085925"><ele>347.75</ele><time>2026-04-11T17:48:21.022Z</time></trkpt><trkpt lat="42.1286915" lon="12.1087306"><ele>349.0</ele><time>2026-04-11T17:48:22.023Z</time></trkpt><trkpt lat="42.128785" lon="12.1088549"><ele>349.0</ele><time>2026-04-11T17:48:23.023Z</time></trkpt><trkpt lat="42.1288947" lon="12.1089862"><ele>349.0</ele><time>2026-04-11T17:48:24.022Z</time></trkpt><trkpt lat="42.1290093" lon="12.1091212"><ele>349.0</ele><time>2026-04-11T17:48:25.023Z</time></trkpt><trkpt lat="42.1291247" lon="12.1092624"><ele>349.0</ele><time>2026-04-11T17:48:26.022Z</time></trkpt><trkpt lat="42.1292418" lon="12.1093956"><ele>349.0</ele><time>2026-04-11T17:48:27.022Z</time></trkpt><trkpt lat="42.1293564" lon="12.1095297"><ele>349.0</ele><time>2026-04-11T17:48:28.023Z</time></trkpt><trkpt lat="42.1294734" lon="12.1096668"><ele>349.0</ele><time>2026-04-11T17:48:29.022Z</time></trkpt><trkpt lat="42.1295995" lon="12.1097958"><ele>349.0</ele><time>2026-04-11T17:48:30.023Z</time></trkpt><trkpt lat="42.1297266" lon="12.1099238"><ele>349.0</ele><time>2026-04-11T17:48:31.023Z</time></trkpt><trkpt lat="42.1298548" lon="12.1100398"><ele>349.25</ele><time>2026-04-11T17:48:32.022Z</time></trkpt><trkpt lat="42.1299856" lon="12.1101509"><ele>349.5</ele><time>2026-04-11T17:48:33.022Z</time></trkpt><trkpt lat="42.1301077" lon="12.1102589"><ele>349.75</ele><time>2026-04-11T17:48:34.023Z</time></trkpt><trkpt lat="42.1302105" lon="12.1103563"><ele>350.0</ele><time>2026-04-11T17:48:35.023Z</time></trkpt><trkpt lat="42.1303127" lon="12.1104424"><ele>350.0</ele><time>2026-04-11T17:48:36.022Z</time></trkpt><trkpt lat="42.1304079" lon="12.1105542"><ele>350.0</ele><time>2026-04-11T17:48:37.023Z</time></trkpt><trkpt lat="42.1305035" lon="12.1106783"><ele>350.0</ele><time>2026-04-11T17:48:38.022Z</time></trkpt><trkpt lat="42.1305815" lon="12.1108346"><ele>350.0</ele><time>2026-04-11T17:48:39.023Z</time></trkpt><trkpt lat="42.1306044" lon="12.1110117"><ele>350.5</ele><time>2026-04-11T17:48:40.023Z</time></trkpt><trkpt lat="42.1306343" lon="12.1111892"><ele>351.0</ele><time>2026-04-11T17:48:41.023Z</time></trkpt><trkpt lat="42.1306728" lon="12.1113758"><ele>351.5</ele><time>2026-04-11T17:48:42.022Z</time></trkpt><trkpt lat="42.1307028" lon="12.1115545"><ele>352.0</ele><time>2026-04-11T17:48:43.023Z</time></trkpt><trkpt lat="42.1307303" lon="12.1117106"><ele>352.0</ele><time>2026-04-11T17:48:44.022Z</time></trkpt><trkpt lat="42.1307365" lon="12.1118648"><ele>352.0</ele><time>2026-04-11T17:48:45.023Z</time></trkpt><trkpt lat="42.1307276" lon="12.1120085"><ele>352.0</ele><time>2026-04-11T17:48:46.023Z</time></trkpt><trkpt lat="42.1307028" lon="12.1121507"><ele>352.0</ele><time>2026-04-11T17:48:47.022Z</time></trkpt><trkpt lat="42.130661" lon="12.1122885"><ele>352.0</ele><time>2026-04-11T17:48:48.023Z</time></trkpt><trkpt lat="42.1306036" lon="12.1124161"><ele>352.75</ele><time>2026-04-11T17:48:49.022Z</time></trkpt><trkpt lat="42.1305298" lon="12.1125321"><ele>353.5</ele><time>2026-04-11T17:48:50.023Z</time></trkpt><trkpt lat="42.1304441" lon="12.1126626"><ele>354.25</ele><time>2026-04-11T17:48:51.023Z</time></trkpt><trkpt lat="42.1303492" lon="12.1127863"><ele>355.0</ele><time>2026-04-11T17:48:52.022Z</time></trkpt><trkpt lat="42.1302716" lon="12.1128947"><ele>355.0</ele><time>2026-04-11T17:48:53.022Z</time></trkpt><trkpt lat="42.1302018" lon="12.1130078"><ele>355.0</ele><time>2026-04-11T17:48:54.023Z</time></trkpt><trkpt lat="42.1301637" lon="12.1131209"><ele>355.0</ele><time>2026-04-11T17:48:55.023Z</time></trkpt><trkpt lat="42.1301519" lon="12.1132306"><ele>355.0</ele><time>2026-04-11T17:48:56.023Z</time></trkpt><trkpt lat="42.1301678" lon="12.1133525"><ele>355.0</ele><time>2026-04-11T17:48:57.022Z</time></trkpt><trkpt lat="42.130209" lon="12.1134796"><ele>357.3333333333333</ele><time>2026-04-11T17:48:58.022Z</time></trkpt><trkpt lat="42.130263" lon="12.1136048"><ele>359.6666666666667</ele><time>2026-04-11T17:48:59.023Z</time></trkpt><trkpt lat="42.1303808" lon="12.1138662"><ele>362.0</ele><time>2026-04-11T17:49:01.023Z</time></trkpt><trkpt lat="42.1304521" lon="12.114012"><ele>362.75</ele><time>2026-04-11T17:49:02.022Z</time></trkpt><trkpt lat="42.13055" lon="12.1141575"><ele>363.5</ele><time>2026-04-11T17:49:03.023Z</time></trkpt><trkpt lat="42.1305894" lon="12.1143103"><ele>364.25</ele><time>2026-04-11T17:49:04.023Z</time></trkpt><trkpt lat="42.1306298" lon="12.1144524"><ele>365.0</ele><time>2026-04-11T17:49:05.022Z</time></trkpt><trkpt lat="42.1307142" lon="12.1146272"><ele>366.6666666666667</ele><time>2026-04-11T17:49:06.022Z</time></trkpt><trkpt lat="42.1308806" lon="12.1147368"><ele>368.3333333333333</ele><time>2026-04-11T17:49:07.023Z</time></trkpt><trkpt lat="42.13096" lon="12.1148832"><ele>370.0</ele><time>2026-04-11T17:49:08.023Z</time></trkpt><trkpt lat="42.1310412" lon="12.1150574"><ele>370.0</ele><time>2026-04-11T17:49:09.023Z</time></trkpt><trkpt lat="42.1311203" lon="12.1152267"><ele>370.0</ele><time>2026-04-11T17:49:10.023Z</time></trkpt><trkpt lat="42.1311831" lon="12.1154114"><ele>370.0</ele><time>2026-04-11T17:49:11.023Z</time></trkpt><trkpt lat="42.1312476" lon="12.1155818"><ele>370.0</ele><time>2026-04-11T17:49:12.022Z</time></trkpt><trkpt lat="42.1313238" lon="12.1157238"><ele>370.75</ele><time>2026-04-11T17:49:13.022Z</time></trkpt><trkpt lat="42.13143" lon="12.1158395"><ele>371.5</ele><time>2026-04-11T17:49:14.022Z</time></trkpt><trkpt lat="42.1315387" lon="12.115951"><ele>372.25</ele><time>2026-04-11T17:49:15.023Z</time></trkpt><trkpt lat="42.1316486" lon="12.1160654"><ele>373.0</ele><time>2026-04-11T17:49:16.022Z</time></trkpt><trkpt lat="42.1317695" lon="12.1161689"><ele>373.0</ele><time>2026-04-11T17:49:17.022Z</time></trkpt><trkpt lat="42.1318941" lon="12.1162547"><ele>373.0</ele><time>2026-04-11T17:49:18.022Z</time></trkpt><trkpt lat="42.132014" lon="12.1163119"><ele>373.0</ele><time>2026-04-11T17:49:19.023Z</time></trkpt><trkpt lat="42.1321245" lon="12.1163671"><ele>373.0</ele><time>2026-04-11T17:49:20.022Z</time></trkpt><trkpt lat="42.1322038" lon="12.1164249"><ele>373.0</ele><time>2026-04-11T17:49:21.022Z</time></trkpt><trkpt lat="42.1322732" lon="12.116502"><ele>373.0</ele><time>2026-04-11T17:49:22.023Z</time></trkpt><trkpt lat="42.1323287" lon="12.1165972"><ele>373.0</ele><time>2026-04-11T17:49:23.022Z</time></trkpt><trkpt lat="42.1323695" lon="12.1167201"><ele>373.0</ele><time>2026-04-11T17:49:24.023Z</time></trkpt><trkpt lat="42.1323907" lon="12.116862"><ele>373.0</ele><time>2026-04-11T17:49:25.022Z</time></trkpt><trkpt lat="42.1323996" lon="12.117007"><ele>370.0</ele><time>2026-04-11T17:49:26.022Z</time></trkpt><trkpt lat="42.1323851" lon="12.1171728"><ele>367.0</ele><time>2026-04-11T17:49:27.023Z</time></trkpt><trkpt lat="42.1323734" lon="12.1173258"><ele>364.0</ele><time>2026-04-11T17:49:28.023Z</time></trkpt><trkpt lat="42.1323657" lon="12.1174633"><ele>361.0</ele><time>2026-04-11T17:49:29.023Z</time></trkpt><trkpt lat="42.132347" lon="12.1176161"><ele>361.0</ele><time>2026-04-11T17:49:30.022Z</time></trkpt><trkpt lat="42.1323021" lon="12.1177814"><ele>361.0</ele><time>2026-04-11T17:49:31.023Z</time></trkpt><trkpt lat="42.1322486" lon="12.1179602"><ele>361.0</ele><time>2026-04-11T17:49:32.022Z</time></trkpt><trkpt lat="42.1321921" lon="12.1181384"><ele>361.0</ele><time>2026-04-11T17:49:33.023Z</time></trkpt><trkpt lat="42.132136" lon="12.1183095"><ele>362.5</ele><time>2026-04-11T17:49:34.023Z</time></trkpt><trkpt lat="42.1320828" lon="12.1184803"><ele>364.0</ele><time>2026-04-11T17:49:35.023Z</time></trkpt><trkpt lat="42.1320282" lon="12.118649"><ele>365.5</ele><time>2026-04-11T17:49:36.023Z</time></trkpt><trkpt lat="42.1319825" lon="12.1188146"><ele>367.0</ele><time>2026-04-11T17:49:37.022Z</time></trkpt><trkpt lat="42.131944" lon="12.118977"><ele>368.5</ele><time>2026-04-11T17:49:38.023Z</time></trkpt><trkpt lat="42.1319025" lon="12.1191368"><ele>370.0</ele><time>2026-04-11T17:49:39.023Z</time></trkpt><trkpt lat="42.1318611" lon="12.1192934"><ele>371.5</ele><time>2026-04-11T17:49:40.022Z</time></trkpt><trkpt lat="42.1318284" lon="12.1194612"><ele>373.0</ele><time>2026-04-11T17:49:41.023Z</time></trkpt><trkpt lat="42.1318041" lon="12.1196356"><ele>373.0</ele><time>2026-04-11T17:49:42.023Z</time></trkpt><trkpt lat="42.1317821" lon="12.1198131"><ele>373.0</ele><time>2026-04-11T17:49:43.022Z</time></trkpt><trkpt lat="42.1317638" lon="12.1199872"><ele>373.0</ele><time>2026-04-11T17:49:44.023Z</time></trkpt><trkpt lat="42.1317482" lon="12.120161"><ele>373.0</ele><time>2026-04-11T17:49:45.022Z</time></trkpt><trkpt lat="42.1317337" lon="12.1203369"><ele>373.0</ele><time>2026-04-11T17:49:46.022Z</time></trkpt><trkpt lat="42.1317227" lon="12.1205062"><ele>373.0</ele><time>2026-04-11T17:49:47.023Z</time></trkpt><trkpt lat="42.1317128" lon="12.1206537"><ele>373.0</ele><time>2026-04-11T17:49:48.023Z</time></trkpt><trkpt lat="42.1317055" lon="12.1207919"><ele>373.0</ele><time>2026-04-11T17:49:49.022Z</time></trkpt><trkpt lat="42.131701" lon="12.1209264"><ele>373.0</ele><time>2026-04-11T17:49:50.022Z</time></trkpt><trkpt lat="42.1317015" lon="12.1210521"><ele>373.0</ele><time>2026-04-11T17:49:51.023Z</time></trkpt><trkpt lat="42.1317124" lon="12.1211712"><ele>373.0</ele><time>2026-04-11T17:49:52.022Z</time></trkpt><trkpt lat="42.1317395" lon="12.1212936"><ele>373.0</ele><time>2026-04-11T17:49:53.022Z</time></trkpt><trkpt lat="42.1317773" lon="12.1214217"><ele>373.0</ele><time>2026-04-11T17:49:54.023Z</time></trkpt><trkpt lat="42.1318354" lon="12.1215479"><ele>373.0</ele><time>2026-04-11T17:49:55.023Z</time></trkpt><trkpt lat="42.1318981" lon="12.1216793"><ele>372.75</ele><time>2026-04-11T17:49:56.023Z</time></trkpt><trkpt lat="42.1319651" lon="12.1218175"><ele>372.5</ele><time>2026-04-11T17:49:57.022Z</time></trkpt><trkpt lat="42.132032" lon="12.1219552"><ele>372.25</ele><time>2026-04-11T17:49:58.022Z</time></trkpt><trkpt lat="42.1320965" lon="12.1220923"><ele>372.0</ele><time>2026-04-11T17:49:59.022Z</time></trkpt><trkpt lat="42.1321646" lon="12.1222379"><ele>372.0</ele><time>2026-04-11T17:50:00.022Z</time></trkpt><trkpt lat="42.1322342" lon="12.1223804"><ele>372.0</ele><time>2026-04-11T17:50:01.022Z</time></trkpt><trkpt lat="42.1323061" lon="12.1225207"><ele>372.0</ele><time>2026-04-11T17:50:02.023Z</time></trkpt><trkpt lat="42.1323778" lon="12.1226596"><ele>372.0</ele><time>2026-04-11T17:50:03.023Z</time></trkpt><trkpt lat="42.1324441" lon="12.1228012"><ele>371.75</ele><time>2026-04-11T17:50:04.023Z</time></trkpt><trkpt lat="42.1325051" lon="12.1229491"><ele>371.5</ele><time>2026-04-11T17:50:05.023Z</time></trkpt><trkpt lat="42.1325588" lon="12.1231025"><ele>371.25</ele><time>2026-04-11T17:50:06.023Z</time></trkpt><trkpt lat="42.1326208" lon="12.1232505"><ele>371.0</ele><time>2026-04-11T17:50:07.022Z</time></trkpt><trkpt lat="42.1326795" lon="12.1233909"><ele>369.5</ele><time>2026-04-11T17:50:08.022Z</time></trkpt><trkpt lat="42.132735" lon="12.1235341"><ele>368.0</ele><time>2026-04-11T17:50:09.022Z</time></trkpt><trkpt lat="42.1327854" lon="12.123677"><ele>366.5</ele><time>2026-04-11T17:50:10.022Z</time></trkpt><trkpt lat="42.1327931" lon="12.1238398"><ele>365.0</ele><time>2026-04-11T17:50:11.023Z</time></trkpt><trkpt lat="42.1327815" lon="12.1239891"><ele>364.2</ele><time>2026-04-11T17:50:12.023Z</time></trkpt><trkpt lat="42.1327605" lon="12.1240758"><ele>363.4</ele><time>2026-04-11T17:50:13.023Z</time></trkpt><trkpt lat="42.1327242" lon="12.1241985"><ele>362.6</ele><time>2026-04-11T17:50:14.023Z</time></trkpt><trkpt lat="42.1326821" lon="12.1243274"><ele>361.8</ele><time>2026-04-11T17:50:15.023Z</time></trkpt><trkpt lat="42.1326282" lon="12.1244799"><ele>361.0</ele><time>2026-04-11T17:50:16.023Z</time></trkpt><trkpt lat="42.1325731" lon="12.1246404"><ele>361.0</ele><time>2026-04-11T17:50:17.022Z</time></trkpt><trkpt lat="42.1325165" lon="12.124805"><ele>361.0</ele><time>2026-04-11T17:50:18.023Z</time></trkpt><trkpt lat="42.1324601" lon="12.1249627"><ele>361.0</ele><time>2026-04-11T17:50:19.023Z</time></trkpt><trkpt lat="42.1324054" lon="12.1251226"><ele>361.0</ele><time>2026-04-11T17:50:20.023Z</time></trkpt><trkpt lat="42.1323492" lon="12.1252867"><ele>361.75</ele><time>2026-04-11T17:50:21.022Z</time></trkpt><trkpt lat="42.1322938" lon="12.1254502"><ele>362.5</ele><time>2026-04-11T17:50:22.023Z</time></trkpt><trkpt lat="42.1322373" lon="12.1256067"><ele>363.25</ele><time>2026-04-11T17:50:23.022Z</time></trkpt><trkpt lat="42.132184" lon="12.1257554"><ele>364.0</ele><time>2026-04-11T17:50:24.023Z</time></trkpt><trkpt lat="42.1321361" lon="12.125892"><ele>364.66666666666663</ele><time>2026-04-11T17:50:25.022Z</time></trkpt><trkpt lat="42.1320988" lon="12.1260238"><ele>365.3333333333333</ele><time>2026-04-11T17:50:26.022Z</time></trkpt><trkpt lat="42.1320721" lon="12.1261223"><ele>366.0</ele><time>2026-04-11T17:50:27.023Z</time></trkpt><trkpt lat="42.1320361" lon="12.1262501"><ele>366.6666666666667</ele><time>2026-04-11T17:50:29.022Z</time></trkpt><trkpt lat="42.1319872" lon="12.1263159"><ele>367.33333333333337</ele><time>2026-04-11T17:50:32.023Z</time></trkpt><trkpt lat="42.1320379" lon="12.1262597"><ele>368.0</ele><time>2026-04-11T17:50:33.023Z</time></trkpt><trkpt lat="42.1320932" lon="12.1263152"><ele>368.0</ele><time>2026-04-11T17:50:40.022Z</time></trkpt><trkpt lat="42.1320291" lon="12.1262539"><ele>368.0</ele><time>2026-04-11T17:50:57.023Z</time></trkpt><trkpt lat="42.1319732" lon="12.1264839"><ele>368.0</ele><time>2026-04-11T17:51:24.022Z</time></trkpt><trkpt lat="42.1319131" lon="12.1265853"><ele>368.0</ele><time>2026-04-11T17:51:26.023Z</time></trkpt><trkpt lat="42.131799" lon="12.1266225"><ele>368.2</ele><time>2026-04-11T17:51:27.023Z</time></trkpt><trkpt lat="42.1317179" lon="12.1266168"><ele>368.4</ele><time>2026-04-11T17:51:28.023Z</time></trkpt><trkpt lat="42.1316209" lon="12.1266168"><ele>368.59999999999997</ele><time>2026-04-11T17:51:29.023Z</time></trkpt><trkpt lat="42.1315218" lon="12.1266187"><ele>368.79999999999995</ele><time>2026-04-11T17:51:30.023Z</time></trkpt><trkpt lat="42.1314029" lon="12.1266234"><ele>369.0</ele><time>2026-04-11T17:51:31.022Z</time></trkpt><trkpt lat="42.131285" lon="12.1266306"><ele>368.0</ele><time>2026-04-11T17:51:32.022Z</time></trkpt><trkpt lat="42.1311685" lon="12.1266381"><ele>367.0</ele><time>2026-04-11T17:51:33.023Z</time></trkpt><trkpt lat="42.1310512" lon="12.1266504"><ele>366.0</ele><time>2026-04-11T17:51:34.023Z</time></trkpt><trkpt lat="42.1309268" lon="12.126662"><ele>365.0</ele><time>2026-04-11T17:51:35.022Z</time></trkpt><trkpt lat="42.1307892" lon="12.1266838"><ele>364.5</ele><time>2026-04-11T17:51:36.022Z</time></trkpt><trkpt lat="42.1306433" lon="12.126704"><ele>364.0</ele><time>2026-04-11T17:51:37.023Z</time></trkpt><trkpt lat="42.1305032" lon="12.1267212"><ele>363.5</ele><time>2026-04-11T17:51:38.023Z</time></trkpt><trkpt lat="42.1303736" lon="12.1267258"><ele>363.0</ele><time>2026-04-11T17:51:39.023Z</time></trkpt><trkpt lat="42.130246" lon="12.1267166"><ele>363.0</ele><time>2026-04-11T17:51:40.023Z</time></trkpt><trkpt lat="42.130118" lon="12.126741"><ele>363.0</ele><time>2026-04-11T17:51:41.023Z</time></trkpt><trkpt lat="42.1299875" lon="12.1267448"><ele>363.0</ele><time>2026-04-11T17:51:42.022Z</time></trkpt><trkpt lat="42.1298658" lon="12.1267389"><ele>363.0</ele><time>2026-04-11T17:51:43.023Z</time></trkpt><trkpt lat="42.1297463" lon="12.1267298"><ele>362.25</ele><time>2026-04-11T17:51:44.023Z</time></trkpt><trkpt lat="42.1296107" lon="12.1267088"><ele>361.5</ele><time>2026-04-11T17:51:45.022Z</time></trkpt><trkpt lat="42.1294806" lon="12.1266813"><ele>360.75</ele><time>2026-04-11T17:51:46.023Z</time></trkpt><trkpt lat="42.1293578" lon="12.1266638"><ele>360.0</ele><time>2026-04-11T17:51:47.022Z</time></trkpt><trkpt lat="42.1292396" lon="12.1266374"><ele>360.0</ele><time>2026-04-11T17:51:48.023Z</time></trkpt><trkpt lat="42.1291294" lon="12.126596"><ele>360.0</ele><time>2026-04-11T17:51:49.022Z</time></trkpt><trkpt lat="42.1290143" lon="12.1265651"><ele>360.0</ele><time>2026-04-11T17:51:50.023Z</time></trkpt><trkpt lat="42.1289018" lon="12.1265291"><ele>360.0</ele><time>2026-04-11T17:51:51.023Z</time></trkpt><trkpt lat="42.1287862" lon="12.1264904"><ele>359.0</ele><time>2026-04-11T17:51:52.023Z</time></trkpt><trkpt lat="42.12867" lon="12.1264448"><ele>358.0</ele><time>2026-04-11T17:51:53.023Z</time></trkpt><trkpt lat="42.1285596" lon="12.1264033"><ele>357.0</ele><time>2026-04-11T17:51:54.023Z</time></trkpt><trkpt lat="42.128436" lon="12.1263656"><ele>356.0</ele><time>2026-04-11T17:51:55.023Z</time></trkpt><trkpt lat="42.1283125" lon="12.1263125"><ele>355.5</ele><time>2026-04-11T17:51:56.023Z</time></trkpt><trkpt lat="42.1281936" lon="12.126255"><ele>355.0</ele><time>2026-04-11T17:51:57.022Z</time></trkpt><trkpt lat="42.1280765" lon="12.1261831"><ele>354.5</ele><time>2026-04-11T17:51:58.023Z</time></trkpt><trkpt lat="42.1279661" lon="12.1260968"><ele>354.0</ele><time>2026-04-11T17:51:59.022Z</time></trkpt><trkpt lat="42.1278611" lon="12.1259971"><ele>354.0</ele><time>2026-04-11T17:52:00.023Z</time></trkpt><trkpt lat="42.1277601" lon="12.1258879"><ele>354.0</ele><time>2026-04-11T17:52:01.023Z</time></trkpt><trkpt lat="42.1276684" lon="12.1257752"><ele>354.0</ele><time>2026-04-11T17:52:02.023Z</time></trkpt><trkpt lat="42.1275926" lon="12.1256898"><ele>354.0</ele><time>2026-04-11T17:52:03.022Z</time></trkpt><trkpt lat="42.1274893" lon="12.125592"><ele>354.25</ele><time>2026-04-11T17:52:04.022Z</time></trkpt><trkpt lat="42.1273761" lon="12.1254843"><ele>354.5</ele><time>2026-04-11T17:52:05.023Z</time></trkpt><trkpt lat="42.1272642" lon="12.1253731"><ele>354.75</ele><time>2026-04-11T17:52:06.022Z</time></trkpt><trkpt lat="42.1271555" lon="12.1252455"><ele>355.0</ele><time>2026-04-11T17:52:07.023Z</time></trkpt><trkpt lat="42.1270316" lon="12.1251302"><ele>355.0</ele><time>2026-04-11T17:52:08.022Z</time></trkpt><trkpt lat="42.1269177" lon="12.1250057"><ele>355.0</ele><time>2026-04-11T17:52:09.022Z</time></trkpt><trkpt lat="42.1267998" lon="12.124886"><ele>355.0</ele><time>2026-04-11T17:52:10.023Z</time></trkpt><trkpt lat="42.1266803" lon="12.1247795"><ele>355.0</ele><time>2026-04-11T17:52:11.023Z</time></trkpt><trkpt lat="42.126559" lon="12.1246715"><ele>355.0</ele><time>2026-04-11T17:52:12.023Z</time></trkpt><trkpt lat="42.1264388" lon="12.1245458"><ele>355.0</ele><time>2026-04-11T17:52:13.023Z</time></trkpt><trkpt lat="42.1263184" lon="12.1244289"><ele>355.0</ele><time>2026-04-11T17:52:14.022Z</time></trkpt><trkpt lat="42.1262075" lon="12.1243156"><ele>355.0</ele><time>2026-04-11T17:52:15.023Z</time></trkpt><trkpt lat="42.1261027" lon="12.1241847"><ele>355.0</ele><time>2026-04-11T17:52:16.022Z</time></trkpt><trkpt lat="42.1260088" lon="12.1240888"><ele>355.0</ele><time>2026-04-11T17:52:17.023Z</time></trkpt><trkpt lat="42.1259298" lon="12.1239982"><ele>355.0</ele><time>2026-04-11T17:52:18.023Z</time></trkpt><trkpt lat="42.1258504" lon="12.1239312"><ele>355.0</ele><time>2026-04-11T17:52:19.023Z</time></trkpt><trkpt lat="42.1257528" lon="12.1238561"><ele>355.0</ele><time>2026-04-11T17:52:20.022Z</time></trkpt><trkpt lat="42.125644" lon="12.1237657"><ele>355.0</ele><time>2026-04-11T17:52:21.022Z</time></trkpt><trkpt lat="42.1255368" lon="12.1236811"><ele>355.0</ele><time>2026-04-11T17:52:22.023Z</time></trkpt><trkpt lat="42.1254159" lon="12.1236049"><ele>355.0</ele><time>2026-04-11T17:52:23.022Z</time></trkpt><trkpt lat="42.1252967" lon="12.1235247"><ele>355.0</ele><time>2026-04-11T17:52:24.022Z</time></trkpt><trkpt lat="42.125186" lon="12.1234713"><ele>355.0</ele><time>2026-04-11T17:52:25.022Z</time></trkpt><trkpt lat="42.1250894" lon="12.1234079"><ele>355.0</ele><time>2026-04-11T17:52:26.022Z</time></trkpt><trkpt lat="42.1250051" lon="12.1233496"><ele>355.0</ele><time>2026-04-11T17:52:27.022Z</time></trkpt><trkpt lat="42.12492" lon="12.1232971"><ele>355.0</ele><time>2026-04-11T17:52:28.022Z</time></trkpt><trkpt lat="42.1248312" lon="12.1232399"><ele>355.0</ele><time>2026-04-11T17:52:29.023Z</time></trkpt><trkpt lat="42.1247391" lon="12.1231947"><ele>356.0</ele><time>2026-04-11T17:52:30.023Z</time></trkpt><trkpt lat="42.1246391" lon="12.1231491"><ele>357.0</ele><time>2026-04-11T17:52:31.022Z</time></trkpt><trkpt lat="42.1245398" lon="12.1230899"><ele>358.0</ele><time>2026-04-11T17:52:32.022Z</time></trkpt><trkpt lat="42.1244316" lon="12.1230449"><ele>359.0</ele><time>2026-04-11T17:52:33.023Z</time></trkpt><trkpt lat="42.1243139" lon="12.1230023"><ele>360.0</ele><time>2026-04-11T17:52:34.022Z</time></trkpt><trkpt lat="42.1241961" lon="12.1229748"><ele>360.0</ele><time>2026-04-11T17:52:35.022Z</time></trkpt><trkpt lat="42.1240744" lon="12.1229554"><ele>360.0</ele><time>2026-04-11T17:52:36.023Z</time></trkpt><trkpt lat="42.1239453" lon="12.1229487"><ele>360.0</ele><time>2026-04-11T17:52:37.022Z</time></trkpt><trkpt lat="42.123811" lon="12.1229504"><ele>360.0</ele><time>2026-04-11T17:52:38.023Z</time></trkpt><trkpt lat="42.12367" lon="12.1229306"><ele>362.0</ele><time>2026-04-11T17:52:39.022Z</time></trkpt><trkpt lat="42.1235346" lon="12.1229227"><ele>364.0</ele><time>2026-04-11T17:52:40.023Z</time></trkpt><trkpt lat="42.1234011" lon="12.1229327"><ele>366.0</ele><time>2026-04-11T17:52:41.023Z</time></trkpt><trkpt lat="42.12326" lon="12.1229895"><ele>368.0</ele><time>2026-04-11T17:52:42.023Z</time></trkpt><trkpt lat="42.123113" lon="12.1230671"><ele>368.6666666666667</ele><time>2026-04-11T17:52:43.023Z</time></trkpt><trkpt lat="42.1229695" lon="12.123135"><ele>369.3333333333333</ele><time>2026-04-11T17:52:44.022Z</time></trkpt><trkpt lat="42.1228381" lon="12.1232686"><ele>370.0</ele><time>2026-04-11T17:52:45.022Z</time></trkpt><trkpt lat="42.1227206" lon="12.1234268"><ele>370.0</ele><time>2026-04-11T17:52:46.023Z</time></trkpt><trkpt lat="42.1226017" lon="12.1236046"><ele>370.0</ele><time>2026-04-11T17:52:47.023Z</time></trkpt><trkpt lat="42.1224809" lon="12.1237766"><ele>370.0</ele><time>2026-04-11T17:52:48.022Z</time></trkpt><trkpt lat="42.1223501" lon="12.123956"><ele>369.3333333333333</ele><time>2026-04-11T17:52:49.022Z</time></trkpt><trkpt lat="42.1222107" lon="12.1241474"><ele>368.6666666666667</ele><time>2026-04-11T17:52:50.023Z</time></trkpt><trkpt lat="42.1220888" lon="12.1243408"><ele>368.0</ele><time>2026-04-11T17:52:51.023Z</time></trkpt><trkpt lat="42.121953" lon="12.1245049"><ele>368.0</ele><time>2026-04-11T17:52:52.023Z</time></trkpt><trkpt lat="42.1218235" lon="12.1246725"><ele>368.0</ele><time>2026-04-11T17:52:53.023Z</time></trkpt><trkpt lat="42.1217059" lon="12.1248473"><ele>368.0</ele><time>2026-04-11T17:52:54.022Z</time></trkpt><trkpt lat="42.1215799" lon="12.1250234"><ele>366.6666666666667</ele><time>2026-04-11T17:52:55.022Z</time></trkpt><trkpt lat="42.1214365" lon="12.1251995"><ele>365.3333333333333</ele><time>2026-04-11T17:52:56.022Z</time></trkpt><trkpt lat="42.1213077" lon="12.1253484"><ele>364.0</ele><time>2026-04-11T17:52:57.023Z</time></trkpt><trkpt lat="42.1211926" lon="12.1254783"><ele>364.0</ele><time>2026-04-11T17:52:58.022Z</time></trkpt><trkpt lat="42.1210818" lon="12.1255772"><ele>364.0</ele><time>2026-04-11T17:52:59.023Z</time></trkpt><trkpt lat="42.1209889" lon="12.1256583"><ele>364.0</ele><time>2026-04-11T17:53:00.023Z</time></trkpt><trkpt lat="42.1209144" lon="12.1257232"><ele>364.0</ele><time>2026-04-11T17:53:01.023Z</time></trkpt><trkpt lat="42.1208331" lon="12.1257921"><ele>364.0</ele><time>2026-04-11T17:53:02.023Z</time></trkpt><trkpt lat="42.1207391" lon="12.1258482"><ele>361.5</ele><time>2026-04-11T17:53:03.022Z</time></trkpt><trkpt lat="42.1206177" lon="12.1258995"><ele>359.0</ele><time>2026-04-11T17:53:04.022Z</time></trkpt><trkpt lat="42.1204579" lon="12.1259323"><ele>356.5</ele><time>2026-04-11T17:53:05.023Z</time></trkpt><trkpt lat="42.1203097" lon="12.1259443"><ele>354.0</ele><time>2026-04-11T17:53:06.023Z</time></trkpt><trkpt lat="42.1201654" lon="12.1259421"><ele>354.0</ele><time>2026-04-11T17:53:07.022Z</time></trkpt><trkpt lat="42.1200096" lon="12.1259303"><ele>354.0</ele><time>2026-04-11T17:53:08.022Z</time></trkpt><trkpt lat="42.119866" lon="12.125899"><ele>354.0</ele><time>2026-04-11T17:53:09.023Z</time></trkpt><trkpt lat="42.1197165" lon="12.1258698"><ele>352.3333333333333</ele><time>2026-04-11T17:53:10.023Z</time></trkpt><trkpt lat="42.1195617" lon="12.1258294"><ele>350.66666666666663</ele><time>2026-04-11T17:53:11.023Z</time></trkpt><trkpt lat="42.1194089" lon="12.1257879"><ele>349.0</ele><time>2026-04-11T17:53:12.023Z</time></trkpt><trkpt lat="42.1192632" lon="12.1257342"><ele>350.0</ele><time>2026-04-11T17:53:13.022Z</time></trkpt><trkpt lat="42.1191124" lon="12.1256998"><ele>351.0</ele><time>2026-04-11T17:53:14.023Z</time></trkpt><trkpt lat="42.1189756" lon="12.1256629"><ele>352.0</ele><time>2026-04-11T17:53:15.023Z</time></trkpt><trkpt lat="42.1188375" lon="12.1255931"><ele>353.0</ele><time>2026-04-11T17:53:16.023Z</time></trkpt><trkpt lat="42.118682" lon="12.1255337"><ele>353.0</ele><time>2026-04-11T17:53:17.023Z</time></trkpt><trkpt lat="42.118539" lon="12.125486"><ele>353.0</ele><time>2026-04-11T17:53:18.022Z</time></trkpt><trkpt lat="42.1183966" lon="12.1254703"><ele>353.0</ele><time>2026-04-11T17:53:19.022Z</time></trkpt><trkpt lat="42.1182414" lon="12.1254345"><ele>353.0</ele><time>2026-04-11T17:53:20.023Z</time></trkpt><trkpt lat="42.118083" lon="12.1253856"><ele>351.33333333333337</ele><time>2026-04-11T17:53:21.022Z</time></trkpt><trkpt lat="42.117934" lon="12.1253585"><ele>349.6666666666667</ele><time>2026-04-11T17:53:22.023Z</time></trkpt><trkpt lat="42.1177836" lon="12.1253097"><ele>348.0</ele><time>2026-04-11T17:53:23.022Z</time></trkpt><trkpt lat="42.1176399" lon="12.1252528"><ele>348.0</ele><time>2026-04-11T17:53:24.023Z</time></trkpt><trkpt lat="42.117486" lon="12.1252063"><ele>348.0</ele><time>2026-04-11T17:53:25.023Z</time></trkpt><trkpt lat="42.1173313" lon="12.1251767"><ele>348.0</ele><time>2026-04-11T17:53:26.023Z</time></trkpt><trkpt lat="42.1171667" lon="12.1251366"><ele>344.6666666666667</ele><time>2026-04-11T17:53:27.022Z</time></trkpt><trkpt lat="42.1169996" lon="12.1250829"><ele>341.33333333333337</ele><time>2026-04-11T17:53:28.023Z</time></trkpt><trkpt lat="42.1168433" lon="12.1250589"><ele>338.0</ele><time>2026-04-11T17:53:29.023Z</time></trkpt><trkpt lat="42.1166958" lon="12.1249986"><ele>338.0</ele><time>2026-04-11T17:53:30.023Z</time></trkpt><trkpt lat="42.1165715" lon="12.1249128"><ele>338.0</ele><time>2026-04-11T17:53:31.023Z</time></trkpt><trkpt lat="42.116476" lon="12.1248975"><ele>338.0</ele><time>2026-04-11T17:53:32.023Z</time></trkpt><trkpt lat="42.1163537" lon="12.1248684"><ele>338.0</ele><time>2026-04-11T17:53:33.023Z</time></trkpt><trkpt lat="42.1162036" lon="12.1248443"><ele>336.5</ele><time>2026-04-11T17:53:34.023Z</time></trkpt><trkpt lat="42.1160482" lon="12.1248247"><ele>335.0</ele><time>2026-04-11T17:53:35.023Z</time></trkpt><trkpt lat="42.1159082" lon="12.1247866"><ele>333.5</ele><time>2026-04-11T17:53:36.023Z</time></trkpt><trkpt lat="42.1157629" lon="12.124747"><ele>332.0</ele><time>2026-04-11T17:53:37.023Z</time></trkpt><trkpt lat="42.1156602" lon="12.1247093"><ele>331.33333333333337</ele><time>2026-04-11T17:53:38.023Z</time></trkpt><trkpt lat="42.1155058" lon="12.1246619"><ele>330.6666666666667</ele><time>2026-04-11T17:53:39.022Z</time></trkpt><trkpt lat="42.1153381" lon="12.1246134"><ele>330.0</ele><time>2026-04-11T17:53:40.023Z</time></trkpt><trkpt lat="42.115171" lon="12.1245629"><ele>330.0</ele><time>2026-04-11T17:53:41.023Z</time></trkpt><trkpt lat="42.1150118" lon="12.1245306"><ele>330.0</ele><time>2026-04-11T17:53:42.022Z</time></trkpt><trkpt lat="42.1148697" lon="12.1244764"><ele>330.0</ele><time>2026-04-11T17:53:43.023Z</time></trkpt><trkpt lat="42.1147163" lon="12.1244458"><ele>331.0</ele><time>2026-04-11T17:53:44.023Z</time></trkpt><trkpt lat="42.1145649" lon="12.1244214"><ele>332.0</ele><time>2026-04-11T17:53:45.023Z</time></trkpt><trkpt lat="42.1144107" lon="12.1244147"><ele>333.0</ele><time>2026-04-11T17:53:46.023Z</time></trkpt><trkpt lat="42.1142525" lon="12.1244332"><ele>333.0</ele><time>2026-04-11T17:53:47.022Z</time></trkpt><trkpt lat="42.1141036" lon="12.1244595"><ele>333.0</ele><time>2026-04-11T17:53:48.022Z</time></trkpt><trkpt lat="42.1139506" lon="12.1245058"><ele>333.0</ele><time>2026-04-11T17:53:49.023Z</time></trkpt><trkpt lat="42.1138089" lon="12.124557"><ele>332.6666666666667</ele><time>2026-04-11T17:53:50.022Z</time></trkpt><trkpt lat="42.1136652" lon="12.1246177"><ele>332.33333333333337</ele><time>2026-04-11T17:53:51.023Z</time></trkpt><trkpt lat="42.1135271" lon="12.1246886"><ele>332.0</ele><time>2026-04-11T17:53:52.023Z</time></trkpt><trkpt lat="42.1133903" lon="12.1247857"><ele>332.0</ele><time>2026-04-11T17:53:53.023Z</time></trkpt><trkpt lat="42.1132514" lon="12.1248962"><ele>332.0</ele><time>2026-04-11T17:53:54.022Z</time></trkpt><trkpt lat="42.1130866" lon="12.1250477"><ele>332.0</ele><time>2026-04-11T17:53:55.022Z</time></trkpt><trkpt lat="42.1129271" lon="12.1251952"><ele>336.0</ele><time>2026-04-11T17:53:56.022Z</time></trkpt><trkpt lat="42.112774" lon="12.1253237"><ele>340.0</ele><time>2026-04-11T17:53:57.023Z</time></trkpt><trkpt lat="42.1126258" lon="12.1254461"><ele>344.0</ele><time>2026-04-11T17:53:58.023Z</time></trkpt><trkpt lat="42.1124763" lon="12.1255852"><ele>347.6666666666667</ele><time>2026-04-11T17:53:59.022Z</time></trkpt><trkpt lat="42.112327" lon="12.1257269"><ele>351.3333333333333</ele><time>2026-04-11T17:54:00.023Z</time></trkpt><trkpt lat="42.1121759" lon="12.1258671"><ele>355.0</ele><time>2026-04-11T17:54:01.023Z</time></trkpt><trkpt lat="42.1120288" lon="12.125995"><ele>355.0</ele><time>2026-04-11T17:54:02.023Z</time></trkpt><trkpt lat="42.1118833" lon="12.1261235"><ele>355.0</ele><time>2026-04-11T17:54:03.022Z</time></trkpt><trkpt lat="42.1117367" lon="12.1262509"><ele>355.0</ele><time>2026-04-11T17:54:04.022Z</time></trkpt><trkpt lat="42.1115952" lon="12.1263684"><ele>356.3333333333333</ele><time>2026-04-11T17:54:05.023Z</time></trkpt><trkpt lat="42.1114556" lon="12.126491"><ele>357.6666666666667</ele><time>2026-04-11T17:54:06.022Z</time></trkpt><trkpt lat="42.1113155" lon="12.1266129"><ele>359.0</ele><time>2026-04-11T17:54:07.023Z</time></trkpt><trkpt lat="42.1111729" lon="12.1267346"><ele>354.6666666666667</ele><time>2026-04-11T17:54:08.023Z</time></trkpt><trkpt lat="42.1110285" lon="12.1268598"><ele>350.3333333333333</ele><time>2026-04-11T17:54:09.023Z</time></trkpt><trkpt lat="42.1108806" lon="12.126987"><ele>346.0</ele><time>2026-04-11T17:54:10.023Z</time></trkpt><trkpt lat="42.1107364" lon="12.1271108"><ele>346.0</ele><time>2026-04-11T17:54:11.023Z</time></trkpt><trkpt lat="42.1105936" lon="12.1272402"><ele>346.0</ele><time>2026-04-11T17:54:12.023Z</time></trkpt><trkpt lat="42.1104527" lon="12.127371"><ele>346.0</ele><time>2026-04-11T17:54:13.022Z</time></trkpt><trkpt lat="42.1103146" lon="12.1275175"><ele>346.66666666666663</ele><time>2026-04-11T17:54:14.023Z</time></trkpt><trkpt lat="42.1101831" lon="12.1276724"><ele>347.3333333333333</ele><time>2026-04-11T17:54:15.022Z</time></trkpt><trkpt lat="42.1100475" lon="12.1278313"><ele>348.0</ele><time>2026-04-11T17:54:16.023Z</time></trkpt><trkpt lat="42.1099492" lon="12.1280063"><ele>348.6666666666667</ele><time>2026-04-11T17:54:17.022Z</time></trkpt><trkpt lat="42.1098433" lon="12.1281867"><ele>349.33333333333337</ele><time>2026-04-11T17:54:18.023Z</time></trkpt><trkpt lat="42.1097234" lon="12.1283927"><ele>350.0</ele><time>2026-04-11T17:54:19.022Z</time></trkpt><trkpt lat="42.1096192" lon="12.1286054"><ele>351.0</ele><time>2026-04-11T17:54:20.023Z</time></trkpt><trkpt lat="42.1095115" lon="12.1288337"><ele>352.0</ele><time>2026-04-11T17:54:21.023Z</time></trkpt><trkpt lat="42.1094101" lon="12.1291063"><ele>353.0</ele><time>2026-04-11T17:54:22.022Z</time></trkpt><trkpt lat="42.1092722" lon="12.1294243"><ele>353.6666666666667</ele><time>2026-04-11T17:54:23.023Z</time></trkpt><trkpt lat="42.1092183" lon="12.1296152"><ele>354.3333333333333</ele><time>2026-04-11T17:54:24.023Z</time></trkpt><trkpt lat="42.1091748" lon="12.1297842"><ele>355.0</ele><time>2026-04-11T17:54:25.023Z</time></trkpt><trkpt lat="42.1091062" lon="12.1299996"><ele>353.0</ele><time>2026-04-11T17:54:26.022Z</time></trkpt><trkpt lat="42.1090531" lon="12.1302328"><ele>351.0</ele><time>2026-04-11T17:54:27.023Z</time></trkpt><trkpt lat="42.109046" lon="12.1304481"><ele>349.0</ele><time>2026-04-11T17:54:28.023Z</time></trkpt><trkpt lat="42.1090519" lon="12.1306416"><ele>349.3333333333333</ele><time>2026-04-11T17:54:29.023Z</time></trkpt><trkpt lat="42.109053" lon="12.1308368"><ele>349.6666666666667</ele><time>2026-04-11T17:54:30.023Z</time></trkpt><trkpt lat="42.109057" lon="12.1310716"><ele>350.0</ele><time>2026-04-11T17:54:31.022Z</time></trkpt><trkpt lat="42.1090435" lon="12.1313349"><ele>351.33333333333337</ele><time>2026-04-11T17:54:32.022Z</time></trkpt><trkpt lat="42.1090234" lon="12.1316453"><ele>352.6666666666667</ele><time>2026-04-11T17:54:33.022Z</time></trkpt><trkpt lat="42.1090035" lon="12.131938"><ele>354.0</ele><time>2026-04-11T17:54:34.023Z</time></trkpt><trkpt lat="42.1089855" lon="12.132214"><ele>355.3333333333333</ele><time>2026-04-11T17:54:35.022Z</time></trkpt><trkpt lat="42.1089609" lon="12.1324939"><ele>356.66666666666663</ele><time>2026-04-11T17:54:36.023Z</time></trkpt><trkpt lat="42.1089209" lon="12.1327765"><ele>358.0</ele><time>2026-04-11T17:54:37.023Z</time></trkpt><trkpt lat="42.1088718" lon="12.1330456"><ele>355.0</ele><time>2026-04-11T17:54:38.022Z</time></trkpt><trkpt lat="42.1088048" lon="12.1333011"><ele>352.0</ele><time>2026-04-11T17:54:39.022Z</time></trkpt><trkpt lat="42.1087357" lon="12.1335393"><ele>349.0</ele><time>2026-04-11T17:54:40.023Z</time></trkpt><trkpt lat="42.1086635" lon="12.1337727"><ele>349.0</ele><time>2026-04-11T17:54:41.023Z</time></trkpt><trkpt lat="42.1085776" lon="12.1340106"><ele>349.0</ele><time>2026-04-11T17:54:42.022Z</time></trkpt><trkpt lat="42.1084954" lon="12.1342426"><ele>349.0</ele><time>2026-04-11T17:54:43.023Z</time></trkpt><trkpt lat="42.1084206" lon="12.1344641"><ele>347.3333333333333</ele><time>2026-04-11T17:54:44.022Z</time></trkpt><trkpt lat="42.1083561" lon="12.1346756"><ele>345.6666666666667</ele><time>2026-04-11T17:54:45.022Z</time></trkpt><trkpt lat="42.1083105" lon="12.1348865"><ele>344.0</ele><time>2026-04-11T17:54:46.023Z</time></trkpt><trkpt lat="42.1082846" lon="12.1351032"><ele>344.0</ele><time>2026-04-11T17:54:47.023Z</time></trkpt><trkpt lat="42.1082723" lon="12.1353394"><ele>344.0</ele><time>2026-04-11T17:54:48.023Z</time></trkpt><trkpt lat="42.1082615" lon="12.1355901"><ele>344.0</ele><time>2026-04-11T17:54:49.022Z</time></trkpt><trkpt lat="42.1082601" lon="12.1358528"><ele>344.6666666666667</ele><time>2026-04-11T17:54:50.023Z</time></trkpt><trkpt lat="42.1082566" lon="12.1361079"><ele>345.3333333333333</ele><time>2026-04-11T17:54:51.023Z</time></trkpt><trkpt lat="42.1082535" lon="12.1363641"><ele>346.0</ele><time>2026-04-11T17:54:52.023Z</time></trkpt><trkpt lat="42.108223" lon="12.1366198"><ele>348.3333333333333</ele><time>2026-04-11T17:54:53.022Z</time></trkpt><trkpt lat="42.1082302" lon="12.1368515"><ele>350.6666666666667</ele><time>2026-04-11T17:54:54.022Z</time></trkpt><trkpt lat="42.1082111" lon="12.1370581"><ele>353.0</ele><time>2026-04-11T17:54:55.023Z</time></trkpt><trkpt lat="42.1081992" lon="12.1372624"><ele>354.25</ele><time>2026-04-11T17:54:56.022Z</time></trkpt><trkpt lat="42.1081701" lon="12.1374308"><ele>355.5</ele><time>2026-04-11T17:54:57.022Z</time></trkpt><trkpt lat="42.1081478" lon="12.1376235"><ele>356.75</ele><time>2026-04-11T17:54:58.023Z</time></trkpt><trkpt lat="42.1081037" lon="12.1378492"><ele>358.0</ele><time>2026-04-11T17:54:59.023Z</time></trkpt><trkpt lat="42.10805" lon="12.1380514"><ele>357.66666666666663</ele><time>2026-04-11T17:55:00.022Z</time></trkpt><trkpt lat="42.1079885" lon="12.1383065"><ele>357.3333333333333</ele><time>2026-04-11T17:55:01.022Z</time></trkpt><trkpt lat="42.1079157" lon="12.1385304"><ele>357.0</ele><time>2026-04-11T17:55:02.022Z</time></trkpt><trkpt lat="42.1078459" lon="12.1387443"><ele>357.0</ele><time>2026-04-11T17:55:03.022Z</time></trkpt><trkpt lat="42.1078095" lon="12.1389563"><ele>357.0</ele><time>2026-04-11T17:55:04.022Z</time></trkpt><trkpt lat="42.1077627" lon="12.1391457"><ele>357.0</ele><time>2026-04-11T17:55:05.022Z</time></trkpt><trkpt lat="42.1077207" lon="12.13931"><ele>357.0</ele><time>2026-04-11T17:55:06.023Z</time></trkpt><trkpt lat="42.1076795" lon="12.1394976"><ele>356.6666666666667</ele><time>2026-04-11T17:55:07.023Z</time></trkpt><trkpt lat="42.107662" lon="12.1397161"><ele>356.33333333333337</ele><time>2026-04-11T17:55:08.022Z</time></trkpt><trkpt lat="42.1076579" lon="12.139936"><ele>356.0</ele><time>2026-04-11T17:55:09.023Z</time></trkpt><trkpt lat="42.1076364" lon="12.1401642"><ele>355.0</ele><time>2026-04-11T17:55:10.023Z</time></trkpt><trkpt lat="42.1076598" lon="12.1403888"><ele>354.0</ele><time>2026-04-11T17:55:11.022Z</time></trkpt><trkpt lat="42.1077044" lon="12.1406122"><ele>353.0</ele><time>2026-04-11T17:55:12.023Z</time></trkpt><trkpt lat="42.1077582" lon="12.140802"><ele>352.33333333333337</ele><time>2026-04-11T17:55:13.022Z</time></trkpt><trkpt lat="42.1078142" lon="12.1410472"><ele>351.6666666666667</ele><time>2026-04-11T17:55:14.023Z</time></trkpt><trkpt lat="42.1078743" lon="12.1412716"><ele>351.0</ele><time>2026-04-11T17:55:15.023Z</time></trkpt><trkpt lat="42.1079291" lon="12.1415224"><ele>351.0</ele><time>2026-04-11T17:55:16.022Z</time></trkpt><trkpt lat="42.107948" lon="12.1418089"><ele>351.0</ele><time>2026-04-11T17:55:17.022Z</time></trkpt><trkpt lat="42.1079891" lon="12.1420983"><ele>351.0</ele><time>2026-04-11T17:55:18.023Z</time></trkpt><trkpt lat="42.1080167" lon="12.1423871"><ele>350.3333333333333</ele><time>2026-04-11T17:55:19.022Z</time></trkpt><trkpt lat="42.1079712" lon="12.1426608"><ele>349.66666666666663</ele><time>2026-04-11T17:55:20.023Z</time></trkpt><trkpt lat="42.107991" lon="12.1428896"><ele>349.0</ele><time>2026-04-11T17:55:21.022Z</time></trkpt><trkpt lat="42.1079866" lon="12.1431181"><ele>347.0</ele><time>2026-04-11T17:55:22.023Z</time></trkpt><trkpt lat="42.107978" lon="12.1433414"><ele>345.0</ele><time>2026-04-11T17:55:23.022Z</time></trkpt><trkpt lat="42.1079604" lon="12.1435516"><ele>343.0</ele><time>2026-04-11T17:55:24.023Z</time></trkpt><trkpt lat="42.1079216" lon="12.1437706"><ele>343.0</ele><time>2026-04-11T17:55:25.023Z</time></trkpt><trkpt lat="42.1078695" lon="12.1440261"><ele>343.0</ele><time>2026-04-11T17:55:26.022Z</time></trkpt><trkpt lat="42.107814" lon="12.1442497"><ele>343.0</ele><time>2026-04-11T17:55:27.023Z</time></trkpt><trkpt lat="42.1077489" lon="12.1444777"><ele>342.66666666666663</ele><time>2026-04-11T17:55:28.023Z</time></trkpt><trkpt lat="42.107672" lon="12.1447482"><ele>342.3333333333333</ele><time>2026-04-11T17:55:29.023Z</time></trkpt><trkpt lat="42.107609" lon="12.1450134"><ele>342.0</ele><time>2026-04-11T17:55:30.023Z</time></trkpt><trkpt lat="42.1075592" lon="12.1452666"><ele>342.0</ele><time>2026-04-11T17:55:31.023Z</time></trkpt><trkpt lat="42.107518" lon="12.1455278"><ele>342.0</ele><time>2026-04-11T17:55:32.022Z</time></trkpt><trkpt lat="42.1074904" lon="12.1457768"><ele>342.0</ele><time>2026-04-11T17:55:33.023Z</time></trkpt><trkpt lat="42.1074959" lon="12.1460664"><ele>340.3333333333333</ele><time>2026-04-11T17:55:34.022Z</time></trkpt><trkpt lat="42.1074749" lon="12.1463569"><ele>338.66666666666663</ele><time>2026-04-11T17:55:35.023Z</time></trkpt><trkpt lat="42.1074487" lon="12.1466149"><ele>337.0</ele><time>2026-04-11T17:55:36.023Z</time></trkpt><trkpt lat="42.1074236" lon="12.1468828"><ele>334.0</ele><time>2026-04-11T17:55:37.022Z</time></trkpt><trkpt lat="42.1073909" lon="12.1471893"><ele>331.0</ele><time>2026-04-11T17:55:38.023Z</time></trkpt><trkpt lat="42.10735" lon="12.1474458"><ele>328.0</ele><time>2026-04-11T17:55:39.023Z</time></trkpt><trkpt lat="42.1073088" lon="12.1477014"><ele>327.3333333333333</ele><time>2026-04-11T17:55:40.022Z</time></trkpt><trkpt lat="42.1072792" lon="12.1479536"><ele>326.6666666666667</ele><time>2026-04-11T17:55:41.022Z</time></trkpt><trkpt lat="42.1072255" lon="12.1481892"><ele>326.0</ele><time>2026-04-11T17:55:42.023Z</time></trkpt><trkpt lat="42.1071649" lon="12.1484211"><ele>325.0</ele><time>2026-04-11T17:55:43.023Z</time></trkpt><trkpt lat="42.1070777" lon="12.1486578"><ele>324.0</ele><time>2026-04-11T17:55:44.022Z</time></trkpt><trkpt lat="42.1070129" lon="12.1488801"><ele>323.0</ele><time>2026-04-11T17:55:45.022Z</time></trkpt><trkpt lat="42.1069493" lon="12.1491049"><ele>323.0</ele><time>2026-04-11T17:55:46.023Z</time></trkpt><trkpt lat="42.1068689" lon="12.1493236"><ele>323.0</ele><time>2026-04-11T17:55:47.023Z</time></trkpt><trkpt lat="42.1067889" lon="12.1495389"><ele>323.0</ele><time>2026-04-11T17:55:48.023Z</time></trkpt><trkpt lat="42.1067179" lon="12.1497536"><ele>322.33333333333337</ele><time>2026-04-11T17:55:49.022Z</time></trkpt><trkpt lat="42.1066489" lon="12.149953"><ele>321.6666666666667</ele><time>2026-04-11T17:55:50.022Z</time></trkpt><trkpt lat="42.1065769" lon="12.1501448"><ele>321.0</ele><time>2026-04-11T17:55:51.023Z</time></trkpt><trkpt lat="42.1065095" lon="12.1503381"><ele>320.75</ele><time>2026-04-11T17:55:52.023Z</time></trkpt><trkpt lat="42.1064352" lon="12.1505259"><ele>320.5</ele><time>2026-04-11T17:55:53.022Z</time></trkpt><trkpt lat="42.1063625" lon="12.1506885"><ele>320.25</ele><time>2026-04-11T17:55:54.023Z</time></trkpt><trkpt lat="42.1062729" lon="12.1508228"><ele>320.0</ele><time>2026-04-11T17:55:55.023Z</time></trkpt><trkpt lat="42.1061566" lon="12.1509295"><ele>318.75</ele><time>2026-04-11T17:55:56.022Z</time></trkpt><trkpt lat="42.1060417" lon="12.1510403"><ele>317.5</ele><time>2026-04-11T17:55:57.022Z</time></trkpt><trkpt lat="42.1059237" lon="12.1511054"><ele>316.25</ele><time>2026-04-11T17:55:58.023Z</time></trkpt><trkpt lat="42.1057896" lon="12.151168"><ele>315.0</ele><time>2026-04-11T17:55:59.022Z</time></trkpt><trkpt lat="42.1056694" lon="12.1512521"><ele>314.3333333333333</ele><time>2026-04-11T17:56:00.022Z</time></trkpt><trkpt lat="42.10553" lon="12.1513741"><ele>313.66666666666663</ele><time>2026-04-11T17:56:01.023Z</time></trkpt><trkpt lat="42.1054076" lon="12.1515062"><ele>313.0</ele><time>2026-04-11T17:56:02.022Z</time></trkpt><trkpt lat="42.1053087" lon="12.1516871"><ele>312.3333333333333</ele><time>2026-04-11T17:56:03.023Z</time></trkpt><trkpt lat="42.1052154" lon="12.1518778"><ele>311.6666666666667</ele><time>2026-04-11T17:56:04.022Z</time></trkpt><trkpt lat="42.1051429" lon="12.1520793"><ele>311.0</ele><time>2026-04-11T17:56:05.023Z</time></trkpt><trkpt lat="42.1050751" lon="12.1522847"><ele>309.33333333333337</ele><time>2026-04-11T17:56:06.023Z</time></trkpt><trkpt lat="42.1050222" lon="12.1524942"><ele>307.6666666666667</ele><time>2026-04-11T17:56:07.022Z</time></trkpt><trkpt lat="42.1049732" lon="12.1526977"><ele>306.0</ele><time>2026-04-11T17:56:08.023Z</time></trkpt><trkpt lat="42.1049184" lon="12.1529152"><ele>305.0</ele><time>2026-04-11T17:56:09.022Z</time></trkpt><trkpt lat="42.1048504" lon="12.1531556"><ele>304.0</ele><time>2026-04-11T17:56:10.023Z</time></trkpt><trkpt lat="42.1047716" lon="12.1533962"><ele>303.0</ele><time>2026-04-11T17:56:11.022Z</time></trkpt><trkpt lat="42.1047045" lon="12.1536409"><ele>303.0</ele><time>2026-04-11T17:56:12.023Z</time></trkpt><trkpt lat="42.1046486" lon="12.1538738"><ele>303.0</ele><time>2026-04-11T17:56:13.023Z</time></trkpt><trkpt lat="42.1045805" lon="12.154086"><ele>303.0</ele><time>2026-04-11T17:56:14.022Z</time></trkpt><trkpt lat="42.1045214" lon="12.154278"><ele>302.25</ele><time>2026-04-11T17:56:15.022Z</time></trkpt><trkpt lat="42.1044587" lon="12.1544782"><ele>301.5</ele><time>2026-04-11T17:56:16.023Z</time></trkpt><trkpt lat="42.1044032" lon="12.1546586"><ele>300.75</ele><time>2026-04-11T17:56:17.023Z</time></trkpt><trkpt lat="42.1043442" lon="12.1548084"><ele>300.0</ele><time>2026-04-11T17:56:18.021Z</time></trkpt><trkpt lat="42.1043103" lon="12.1549295"><ele>300.0</ele><time>2026-04-11T17:56:19.021Z</time></trkpt><trkpt lat="42.1042689" lon="12.1550386"><ele>300.0</ele><time>2026-04-11T17:56:20.022Z</time></trkpt><trkpt lat="42.1042268" lon="12.1551051"><ele>300.0</ele><time>2026-04-11T17:56:21.022Z</time></trkpt><trkpt lat="42.1041569" lon="12.1551701"><ele>300.0</ele><time>2026-04-11T17:56:22.022Z</time></trkpt><trkpt lat="42.1040919" lon="12.1551885"><ele>300.0</ele><time>2026-04-11T17:56:23.021Z</time></trkpt><trkpt lat="42.1039752" lon="12.1552065"><ele>300.0</ele><time>2026-04-11T17:56:25.021Z</time></trkpt><trkpt lat="42.1039103" lon="12.1551351"><ele>299.8333333333333</ele><time>2026-04-11T17:56:27.021Z</time></trkpt><trkpt lat="42.1038163" lon="12.1550464"><ele>299.6666666666667</ele><time>2026-04-11T17:56:29.022Z</time></trkpt><trkpt lat="42.1037514" lon="12.1550281"><ele>299.5</ele><time>2026-04-11T17:56:30.021Z</time></trkpt><trkpt lat="42.1036203" lon="12.1550764"><ele>299.33333333333337</ele><time>2026-04-11T17:56:32.022Z</time></trkpt><trkpt lat="42.1035635" lon="12.1551179"><ele>299.1666666666667</ele><time>2026-04-11T17:56:33.021Z</time></trkpt><trkpt lat="42.1034989" lon="12.1551422"><ele>299.0</ele><time>2026-04-11T17:56:34.021Z</time></trkpt><trkpt lat="42.1033829" lon="12.1551702"><ele>299.0</ele><time>2026-04-11T17:56:36.022Z</time></trkpt><trkpt lat="42.1032801" lon="12.1552209"><ele>299.0</ele><time>2026-04-11T17:56:37.022Z</time></trkpt><trkpt lat="42.1031853" lon="12.155266"><ele>299.0</ele><time>2026-04-11T17:56:38.022Z</time></trkpt><trkpt lat="42.1030905" lon="12.1553036"><ele>299.0</ele><time>2026-04-11T17:56:39.022Z</time></trkpt><trkpt lat="42.1029858" lon="12.1553452"><ele>299.0</ele><time>2026-04-11T17:56:40.021Z</time></trkpt><trkpt lat="42.1028903" lon="12.1553838"><ele>298.8</ele><time>2026-04-11T17:56:41.022Z</time></trkpt><trkpt lat="42.1027892" lon="12.1554663"><ele>298.59999999999997</ele><time>2026-04-11T17:56:42.022Z</time></trkpt><trkpt lat="42.1026959" lon="12.1555465"><ele>298.4</ele><time>2026-04-11T17:56:43.022Z</time></trkpt><trkpt lat="42.1026192" lon="12.1556527"><ele>298.2</ele><time>2026-04-11T17:56:44.022Z</time></trkpt><trkpt lat="42.1025548" lon="12.1557739"><ele>298.0</ele><time>2026-04-11T17:56:45.021Z</time></trkpt><trkpt lat="42.1024632" lon="12.1558672"><ele>298.5</ele><time>2026-04-11T17:56:46.021Z</time></trkpt><trkpt lat="42.1023959" lon="12.1559856"><ele>299.0</ele><time>2026-04-11T17:56:47.022Z</time></trkpt><trkpt lat="42.1023333" lon="12.1560954"><ele>299.5</ele><time>2026-04-11T17:56:48.021Z</time></trkpt><trkpt lat="42.1022857" lon="12.156152"><ele>300.0</ele><time>2026-04-11T17:56:49.022Z</time></trkpt><trkpt lat="42.1022321" lon="12.1562366"><ele>300.5</ele><time>2026-04-11T17:56:50.021Z</time></trkpt><trkpt lat="42.1021749" lon="12.1562793"><ele>301.0</ele><time>2026-04-11T17:56:51.022Z</time></trkpt><trkpt lat="42.1020667" lon="12.1563013"><ele>301.0</ele><time>2026-04-11T17:56:53.022Z</time></trkpt><trkpt lat="42.1019713" lon="12.1561867"><ele>301.0</ele><time>2026-04-11T17:56:55.022Z</time></trkpt><trkpt lat="42.1019178" lon="12.1560933"><ele>301.0</ele><time>2026-04-11T17:56:56.022Z</time></trkpt><trkpt lat="42.1018474" lon="12.1559975"><ele>301.0</ele><time>2026-04-11T17:56:57.021Z</time></trkpt><trkpt lat="42.1017887" lon="12.1558947"><ele>301.0</ele><time>2026-04-11T17:56:58.022Z</time></trkpt><trkpt lat="42.1017232" lon="12.1557681"><ele>301.6</ele><time>2026-04-11T17:56:59.022Z</time></trkpt><trkpt lat="42.1016839" lon="12.1556788"><ele>302.20000000000005</ele><time>2026-04-11T17:57:00.021Z</time></trkpt><trkpt lat="42.1016054" lon="12.1555747"><ele>302.79999999999995</ele><time>2026-04-11T17:57:01.022Z</time></trkpt><trkpt lat="42.1015317" lon="12.1554703"><ele>303.4</ele><time>2026-04-11T17:57:02.021Z</time></trkpt><trkpt lat="42.1014638" lon="12.1553677"><ele>304.0</ele><time>2026-04-11T17:57:03.021Z</time></trkpt><trkpt lat="42.1013891" lon="12.155259"><ele>304.0</ele><time>2026-04-11T17:57:04.022Z</time></trkpt><trkpt lat="42.1013191" lon="12.1551593"><ele>304.0</ele><time>2026-04-11T17:57:05.021Z</time></trkpt><trkpt lat="42.1012495" lon="12.1550404"><ele>304.0</ele><time>2026-04-11T17:57:06.022Z</time></trkpt><trkpt lat="42.1011994" lon="12.1549709"><ele>304.0</ele><time>2026-04-11T17:57:07.021Z</time></trkpt><trkpt lat="42.1011279" lon="12.154899"><ele>304.0</ele><time>2026-04-11T17:57:09.021Z</time></trkpt><trkpt lat="42.1010219" lon="12.1549337"><ele>304.0</ele><time>2026-04-11T17:57:11.022Z</time></trkpt><trkpt lat="42.1009532" lon="12.1549696"><ele>304.0</ele><time>2026-04-11T17:57:12.022Z</time></trkpt><trkpt lat="42.1008826" lon="12.1550142"><ele>304.0</ele><time>2026-04-11T17:57:13.022Z</time></trkpt><trkpt lat="42.1008035" lon="12.1550607"><ele>304.0</ele><time>2026-04-11T17:57:14.022Z</time></trkpt><trkpt lat="42.1007218" lon="12.1551115"><ele>304.0</ele><time>2026-04-11T17:57:15.021Z</time></trkpt><trkpt lat="42.1006343" lon="12.1551637"><ele>304.0</ele><time>2026-04-11T17:57:16.022Z</time></trkpt><trkpt lat="42.1005561" lon="12.1552226"><ele>303.8333333333333</ele><time>2026-04-11T17:57:17.021Z</time></trkpt><trkpt lat="42.1004801" lon="12.1552735"><ele>303.66666666666663</ele><time>2026-04-11T17:57:18.022Z</time></trkpt><trkpt lat="42.1004005" lon="12.1553289"><ele>303.5</ele><time>2026-04-11T17:57:19.022Z</time></trkpt><trkpt lat="42.1003191" lon="12.1553876"><ele>303.3333333333333</ele><time>2026-04-11T17:57:20.022Z</time></trkpt><trkpt lat="42.1002457" lon="12.1554558"><ele>303.1666666666667</ele><time>2026-04-11T17:57:21.022Z</time></trkpt><trkpt lat="42.1001693" lon="12.1555257"><ele>303.0</ele><time>2026-04-11T17:57:22.021Z</time></trkpt><trkpt lat="42.1000978" lon="12.1555959"><ele>303.0</ele><time>2026-04-11T17:57:23.022Z</time></trkpt><trkpt lat="42.1000242" lon="12.1556699"><ele>303.0</ele><time>2026-04-11T17:57:24.022Z</time></trkpt><trkpt lat="42.0999454" lon="12.1557499"><ele>303.0</ele><time>2026-04-11T17:57:25.022Z</time></trkpt><trkpt lat="42.0998582" lon="12.1558327"><ele>303.0</ele><time>2026-04-11T17:57:26.022Z</time></trkpt><trkpt lat="42.0997715" lon="12.155913"><ele>303.0</ele><time>2026-04-11T17:57:27.021Z</time></trkpt><trkpt lat="42.0996844" lon="12.1559982"><ele>303.75</ele><time>2026-04-11T17:57:28.022Z</time></trkpt><trkpt lat="42.0995942" lon="12.1560911"><ele>304.5</ele><time>2026-04-11T17:57:29.022Z</time></trkpt><trkpt lat="42.0995049" lon="12.1561838"><ele>305.25</ele><time>2026-04-11T17:57:30.021Z</time></trkpt><trkpt lat="42.0994121" lon="12.1562764"><ele>306.0</ele><time>2026-04-11T17:57:31.019Z</time></trkpt><trkpt lat="42.0993197" lon="12.1563724"><ele>306.0</ele><time>2026-04-11T17:57:32.019Z</time></trkpt><trkpt lat="42.0992292" lon="12.1564725"><ele>306.0</ele><time>2026-04-11T17:57:33.019Z</time></trkpt><trkpt lat="42.0991386" lon="12.1565785"><ele>306.0</ele><time>2026-04-11T17:57:34.019Z</time></trkpt><trkpt lat="42.0990472" lon="12.1566836"><ele>306.0</ele><time>2026-04-11T17:57:35.02Z</time></trkpt><trkpt lat="42.0989545" lon="12.1567878"><ele>306.75</ele><time>2026-04-11T17:57:36.019Z</time></trkpt><trkpt lat="42.0988721" lon="12.1568993"><ele>307.5</ele><time>2026-04-11T17:57:37.02Z</time></trkpt><trkpt lat="42.0987746" lon="12.1569978"><ele>308.25</ele><time>2026-04-11T17:57:38.019Z</time></trkpt><trkpt lat="42.0986852" lon="12.157102"><ele>309.0</ele><time>2026-04-11T17:57:39.02Z</time></trkpt><trkpt lat="42.098585" lon="12.1571803"><ele>309.0</ele><time>2026-04-11T17:57:40.02Z</time></trkpt><trkpt lat="42.098509" lon="12.1572662"><ele>309.0</ele><time>2026-04-11T17:57:41.02Z</time></trkpt><trkpt lat="42.0984358" lon="12.1573377"><ele>309.0</ele><time>2026-04-11T17:57:42.02Z</time></trkpt><trkpt lat="42.0983722" lon="12.157394"><ele>309.0</ele><time>2026-04-11T17:57:43.019Z</time></trkpt><trkpt lat="42.0983088" lon="12.1574382"><ele>309.0</ele><time>2026-04-11T17:57:44.019Z</time></trkpt><trkpt lat="42.0982367" lon="12.1574663"><ele>309.0</ele><time>2026-04-11T17:57:45.02Z</time></trkpt><trkpt lat="42.0981569" lon="12.1574828"><ele>308.8333333333333</ele><time>2026-04-11T17:57:46.02Z</time></trkpt><trkpt lat="42.0980746" lon="12.1574794"><ele>308.6666666666667</ele><time>2026-04-11T17:57:47.02Z</time></trkpt><trkpt lat="42.0979897" lon="12.1574752"><ele>308.5</ele><time>2026-04-11T17:57:48.019Z</time></trkpt><trkpt lat="42.097908" lon="12.1574597"><ele>308.33333333333337</ele><time>2026-04-11T17:57:49.019Z</time></trkpt><trkpt lat="42.0978422" lon="12.1574388"><ele>308.1666666666667</ele><time>2026-04-11T17:57:50.019Z</time></trkpt><trkpt lat="42.0977778" lon="12.1573929"><ele>308.0</ele><time>2026-04-11T17:57:52.019Z</time></trkpt><trkpt lat="42.0977025" lon="12.157323"><ele>307.6</ele><time>2026-04-11T17:57:54.02Z</time></trkpt><trkpt lat="42.0976167" lon="12.1572631"><ele>307.20000000000005</ele><time>2026-04-11T17:57:56.019Z</time></trkpt><trkpt lat="42.0974861" lon="12.1572942"><ele>306.8</ele><time>2026-04-11T17:57:58.019Z</time></trkpt><trkpt lat="42.0974064" lon="12.1572884"><ele>306.40000000000003</ele><time>2026-04-11T17:57:59.019Z</time></trkpt><trkpt lat="42.0973265" lon="12.1572466"><ele>306.0</ele><time>2026-04-11T17:58:00.02Z</time></trkpt><trkpt lat="42.0972458" lon="12.157177"><ele>305.8</ele><time>2026-04-11T17:58:01.02Z</time></trkpt><trkpt lat="42.0971631" lon="12.1571055"><ele>305.6</ele><time>2026-04-11T17:58:02.02Z</time></trkpt><trkpt lat="42.0970716" lon="12.1570261"><ele>305.4</ele><time>2026-04-11T17:58:03.02Z</time></trkpt><trkpt lat="42.0969888" lon="12.1569752"><ele>305.2</ele><time>2026-04-11T17:58:04.019Z</time></trkpt><trkpt lat="42.0968627" lon="12.1569069"><ele>305.0</ele><time>2026-04-11T17:58:05.019Z</time></trkpt><trkpt lat="42.0967301" lon="12.1568364"><ele>305.0</ele><time>2026-04-11T17:58:06.019Z</time></trkpt><trkpt lat="42.0965972" lon="12.1567737"><ele>305.0</ele><time>2026-04-11T17:58:07.019Z</time></trkpt><trkpt lat="42.0964575" lon="12.1567092"><ele>305.0</ele><time>2026-04-11T17:58:08.02Z</time></trkpt><trkpt lat="42.0963151" lon="12.1566453"><ele>305.0</ele><time>2026-04-11T17:58:09.02Z</time></trkpt><trkpt lat="42.0961729" lon="12.1565831"><ele>304.75</ele><time>2026-04-11T17:58:10.02Z</time></trkpt><trkpt lat="42.0960323" lon="12.1565224"><ele>304.5</ele><time>2026-04-11T17:58:11.019Z</time></trkpt><trkpt lat="42.0958908" lon="12.1564559"><ele>304.25</ele><time>2026-04-11T17:58:12.02Z</time></trkpt><trkpt lat="42.0957486" lon="12.1563926"><ele>304.0</ele><time>2026-04-11T17:58:13.02Z</time></trkpt><trkpt lat="42.095605" lon="12.1563209"><ele>303.66666666666663</ele><time>2026-04-11T17:58:14.02Z</time></trkpt><trkpt lat="42.0954684" lon="12.1562594"><ele>303.3333333333333</ele><time>2026-04-11T17:58:15.019Z</time></trkpt><trkpt lat="42.0953163" lon="12.1561923"><ele>303.0</ele><time>2026-04-11T17:58:16.02Z</time></trkpt><trkpt lat="42.0951563" lon="12.1561388"><ele>303.0</ele><time>2026-04-11T17:58:17.02Z</time></trkpt><trkpt lat="42.0950005" lon="12.1560598"><ele>303.0</ele><time>2026-04-11T17:58:18.019Z</time></trkpt><trkpt lat="42.0947714" lon="12.1559815"><ele>303.0</ele><time>2026-04-11T17:58:19.02Z</time></trkpt><trkpt lat="42.0945845" lon="12.1558746"><ele>302.6666666666667</ele><time>2026-04-11T17:58:20.019Z</time></trkpt><trkpt lat="42.0944177" lon="12.1557912"><ele>302.33333333333337</ele><time>2026-04-11T17:58:21.02Z</time></trkpt><trkpt lat="42.0942496" lon="12.1557055"><ele>302.0</ele><time>2026-04-11T17:58:22.019Z</time></trkpt><trkpt lat="42.0940831" lon="12.1556178"><ele>302.0</ele><time>2026-04-11T17:58:23.02Z</time></trkpt><trkpt lat="42.0939174" lon="12.1555309"><ele>302.0</ele><time>2026-04-11T17:58:24.02Z</time></trkpt><trkpt lat="42.0937552" lon="12.1554522"><ele>302.0</ele><time>2026-04-11T17:58:25.019Z</time></trkpt><trkpt lat="42.0935952" lon="12.1553735"><ele>302.0</ele><time>2026-04-11T17:58:26.019Z</time></trkpt><trkpt lat="42.0934341" lon="12.1552959"><ele>302.0</ele><time>2026-04-11T17:58:27.02Z</time></trkpt><trkpt lat="42.0932753" lon="12.1552171"><ele>302.0</ele><time>2026-04-11T17:58:28.02Z</time></trkpt><trkpt lat="42.0931121" lon="12.1551363"><ele>301.6666666666667</ele><time>2026-04-11T17:58:29.019Z</time></trkpt><trkpt lat="42.092941" lon="12.155055"><ele>301.3333333333333</ele><time>2026-04-11T17:58:30.02Z</time></trkpt><trkpt lat="42.0927671" lon="12.1549634"><ele>301.0</ele><time>2026-04-11T17:58:31.019Z</time></trkpt><trkpt lat="42.0925859" lon="12.1548838"><ele>299.3333333333333</ele><time>2026-04-11T17:58:32.019Z</time></trkpt><trkpt lat="42.0924206" lon="12.1548009"><ele>297.6666666666667</ele><time>2026-04-11T17:58:33.02Z</time></trkpt><trkpt lat="42.0922567" lon="12.1547218"><ele>296.0</ele><time>2026-04-11T17:58:34.019Z</time></trkpt><trkpt lat="42.0920933" lon="12.154643"><ele>296.0</ele><time>2026-04-11T17:58:35.02Z</time></trkpt><trkpt lat="42.0919247" lon="12.1545601"><ele>296.0</ele><time>2026-04-11T17:58:36.02Z</time></trkpt><trkpt lat="42.0917563" lon="12.1544815"><ele>296.0</ele><time>2026-04-11T17:58:37.019Z</time></trkpt><trkpt lat="42.0915912" lon="12.1543995"><ele>296.33333333333337</ele><time>2026-04-11T17:58:38.02Z</time></trkpt><trkpt lat="42.0914248" lon="12.1543224"><ele>296.6666666666667</ele><time>2026-04-11T17:58:39.02Z</time></trkpt><trkpt lat="42.09126" lon="12.154246"><ele>297.0</ele><time>2026-04-11T17:58:40.019Z</time></trkpt><trkpt lat="42.0910985" lon="12.1541686"><ele>297.0</ele><time>2026-04-11T17:58:41.019Z</time></trkpt><trkpt lat="42.0909392" lon="12.1540938"><ele>297.0</ele><time>2026-04-11T17:58:42.019Z</time></trkpt><trkpt lat="42.0907827" lon="12.1540194"><ele>297.0</ele><time>2026-04-11T17:58:43.02Z</time></trkpt><trkpt lat="42.0906297" lon="12.1539476"><ele>295.6666666666667</ele><time>2026-04-11T17:58:44.02Z</time></trkpt><trkpt lat="42.0904801" lon="12.1538743"><ele>294.33333333333337</ele><time>2026-04-11T17:58:45.02Z</time></trkpt><trkpt lat="42.0903228" lon="12.1537997"><ele>293.0</ele><time>2026-04-11T17:58:46.02Z</time></trkpt><trkpt lat="42.0901661" lon="12.1537229"><ele>293.0</ele><time>2026-04-11T17:58:47.019Z</time></trkpt><trkpt lat="42.0900023" lon="12.1536404"><ele>293.0</ele><time>2026-04-11T17:58:48.019Z</time></trkpt><trkpt lat="42.0898384" lon="12.1535625"><ele>293.0</ele><time>2026-04-11T17:58:49.02Z</time></trkpt><trkpt lat="42.0896754" lon="12.1534843"><ele>292.0</ele><time>2026-04-11T17:58:50.019Z</time></trkpt><trkpt lat="42.0895125" lon="12.1534077"><ele>291.0</ele><time>2026-04-11T17:58:51.02Z</time></trkpt><trkpt lat="42.089341" lon="12.1533304"><ele>290.0</ele><time>2026-04-11T17:58:52.02Z</time></trkpt><trkpt lat="42.0891721" lon="12.1532516"><ele>289.33333333333337</ele><time>2026-04-11T17:58:53.02Z</time></trkpt><trkpt lat="42.0889968" lon="12.15316"><ele>288.6666666666667</ele><time>2026-04-11T17:58:54.019Z</time></trkpt><trkpt lat="42.0888326" lon="12.1530889"><ele>288.0</ele><time>2026-04-11T17:58:55.02Z</time></trkpt><trkpt lat="42.0886946" lon="12.1530328"><ele>288.0</ele><time>2026-04-11T17:58:56.019Z</time></trkpt><trkpt lat="42.0885295" lon="12.1529486"><ele>288.0</ele><time>2026-04-11T17:58:57.02Z</time></trkpt><trkpt lat="42.0883609" lon="12.1528559"><ele>288.0</ele><time>2026-04-11T17:58:58.02Z</time></trkpt><trkpt lat="42.0881906" lon="12.1527767"><ele>286.6666666666667</ele><time>2026-04-11T17:58:59.02Z</time></trkpt><trkpt lat="42.0880268" lon="12.1527312"><ele>285.33333333333337</ele><time>2026-04-11T17:59:00.02Z</time></trkpt><trkpt lat="42.0878526" lon="12.1526512"><ele>284.0</ele><time>2026-04-11T17:59:01.02Z</time></trkpt><trkpt lat="42.0876867" lon="12.1525793"><ele>284.0</ele><time>2026-04-11T17:59:02.019Z</time></trkpt><trkpt lat="42.0875212" lon="12.1524881"><ele>284.0</ele><time>2026-04-11T17:59:03.02Z</time></trkpt><trkpt lat="42.0873609" lon="12.1524037"><ele>284.0</ele><time>2026-04-11T17:59:04.019Z</time></trkpt><trkpt lat="42.0872" lon="12.1523234"><ele>284.0</ele><time>2026-04-11T17:59:05.02Z</time></trkpt><trkpt lat="42.0870495" lon="12.1522431"><ele>284.0</ele><time>2026-04-11T17:59:06.02Z</time></trkpt><trkpt lat="42.0868944" lon="12.1521707"><ele>284.0</ele><time>2026-04-11T17:59:07.02Z</time></trkpt><trkpt lat="42.0867395" lon="12.1520966"><ele>282.0</ele><time>2026-04-11T17:59:08.019Z</time></trkpt><trkpt lat="42.0865816" lon="12.1520216"><ele>280.0</ele><time>2026-04-11T17:59:09.02Z</time></trkpt><trkpt lat="42.0864214" lon="12.1519442"><ele>278.0</ele><time>2026-04-11T17:59:10.019Z</time></trkpt><trkpt lat="42.0862663" lon="12.151866"><ele>278.0</ele><time>2026-04-11T17:59:11.02Z</time></trkpt><trkpt lat="42.086111" lon="12.1517881"><ele>278.0</ele><time>2026-04-11T17:59:12.02Z</time></trkpt><trkpt lat="42.0859479" lon="12.1517031"><ele>278.0</ele><time>2026-04-11T17:59:13.019Z</time></trkpt><trkpt lat="42.0857764" lon="12.1516247"><ele>278.33333333333337</ele><time>2026-04-11T17:59:14.019Z</time></trkpt><trkpt lat="42.0856015" lon="12.1515361"><ele>278.6666666666667</ele><time>2026-04-11T17:59:15.02Z</time></trkpt><trkpt lat="42.0854188" lon="12.151449"><ele>279.0</ele><time>2026-04-11T17:59:16.02Z</time></trkpt><trkpt lat="42.085252" lon="12.1513712"><ele>279.0</ele><time>2026-04-11T17:59:17.019Z</time></trkpt><trkpt lat="42.0850769" lon="12.151304"><ele>279.0</ele><time>2026-04-11T17:59:18.02Z</time></trkpt><trkpt lat="42.0848969" lon="12.1512172"><ele>279.0</ele><time>2026-04-11T17:59:19.02Z</time></trkpt><trkpt lat="42.0847339" lon="12.1511415"><ele>278.6666666666667</ele><time>2026-04-11T17:59:20.02Z</time></trkpt><trkpt lat="42.0845837" lon="12.1510769"><ele>278.33333333333337</ele><time>2026-04-11T17:59:21.02Z</time></trkpt><trkpt lat="42.0843605" lon="12.1510072"><ele>278.0</ele><time>2026-04-11T17:59:22.02Z</time></trkpt><trkpt lat="42.0841882" lon="12.1509171"><ele>278.0</ele><time>2026-04-11T17:59:23.02Z</time></trkpt><trkpt lat="42.0840342" lon="12.1508326"><ele>278.0</ele><time>2026-04-11T17:59:24.019Z</time></trkpt><trkpt lat="42.0839258" lon="12.1507908"><ele>278.0</ele><time>2026-04-11T17:59:25.019Z</time></trkpt><trkpt lat="42.083861" lon="12.1507653"><ele>278.0</ele><time>2026-04-11T17:59:26.019Z</time></trkpt><trkpt lat="42.0837726" lon="12.1507792"><ele>278.0</ele><time>2026-04-11T17:59:30.019Z</time></trkpt><trkpt lat="42.0836673" lon="12.1507679"><ele>278.0</ele><time>2026-04-11T17:59:31.02Z</time></trkpt><trkpt lat="42.0842067" lon="12.1511372"><ele>278.0</ele><time>2026-04-11T18:01:46.019Z</time></trkpt><trkpt lat="42.084133" lon="12.1513162"><ele>278.0</ele><time>2026-04-11T18:01:48.02Z</time></trkpt><trkpt lat="42.0840952" lon="12.1514232"><ele>278.0</ele><time>2026-04-11T18:01:49.019Z</time></trkpt><trkpt lat="42.0840505" lon="12.1515518"><ele>278.0</ele><time>2026-04-11T18:01:50.02Z</time></trkpt><trkpt lat="42.0840151" lon="12.1517012"><ele>278.0</ele><time>2026-04-11T18:01:51.019Z</time></trkpt><trkpt lat="42.0839798" lon="12.1518494"><ele>278.0</ele><time>2026-04-11T18:01:52.019Z</time></trkpt><trkpt lat="42.08394" lon="12.1520126"><ele>278.0</ele><time>2026-04-11T18:01:53.019Z</time></trkpt><trkpt lat="42.0839011" lon="12.1521673"><ele>278.0</ele><time>2026-04-11T18:01:54.02Z</time></trkpt><trkpt lat="42.0838625" lon="12.1523302"><ele>277.5</ele><time>2026-04-11T18:01:55.02Z</time></trkpt><trkpt lat="42.0838319" lon="12.1525044"><ele>277.0</ele><time>2026-04-11T18:01:56.019Z</time></trkpt><trkpt lat="42.0837911" lon="12.1526891"><ele>276.5</ele><time>2026-04-11T18:01:57.019Z</time></trkpt><trkpt lat="42.0837417" lon="12.15286"><ele>276.0</ele><time>2026-04-11T18:01:58.02Z</time></trkpt><trkpt lat="42.0836963" lon="12.1530268"><ele>276.0</ele><time>2026-04-11T18:01:59.019Z</time></trkpt><trkpt lat="42.083662" lon="12.1531996"><ele>276.0</ele><time>2026-04-11T18:02:00.019Z</time></trkpt><trkpt lat="42.0836152" lon="12.1533743"><ele>276.0</ele><time>2026-04-11T18:02:01.02Z</time></trkpt><trkpt lat="42.0835654" lon="12.1535625"><ele>276.0</ele><time>2026-04-11T18:02:02.02Z</time></trkpt><trkpt lat="42.0835116" lon="12.1537306"><ele>274.5</ele><time>2026-04-11T18:02:03.019Z</time></trkpt><trkpt lat="42.0834795" lon="12.153908"><ele>273.0</ele><time>2026-04-11T18:02:04.02Z</time></trkpt><trkpt lat="42.0834352" lon="12.1540857"><ele>271.5</ele><time>2026-04-11T18:02:05.019Z</time></trkpt><trkpt lat="42.0833903" lon="12.1542697"><ele>270.0</ele><time>2026-04-11T18:02:06.019Z</time></trkpt><trkpt lat="42.083362" lon="12.154439"><ele>269.0</ele><time>2026-04-11T18:02:07.019Z</time></trkpt><trkpt lat="42.0833409" lon="12.154607"><ele>268.0</ele><time>2026-04-11T18:02:08.02Z</time></trkpt><trkpt lat="42.0832939" lon="12.154737"><ele>267.0</ele><time>2026-04-11T18:02:09.02Z</time></trkpt><trkpt lat="42.0832527" lon="12.1548907"><ele>266.0</ele><time>2026-04-11T18:02:10.02Z</time></trkpt><trkpt lat="42.0832134" lon="12.1550667"><ele>265.25</ele><time>2026-04-11T18:02:11.02Z</time></trkpt><trkpt lat="42.0831756" lon="12.155246"><ele>264.5</ele><time>2026-04-11T18:02:12.02Z</time></trkpt><trkpt lat="42.0830992" lon="12.1554299"><ele>263.75</ele><time>2026-04-11T18:02:13.019Z</time></trkpt><trkpt lat="42.0830558" lon="12.155587"><ele>263.0</ele><time>2026-04-11T18:02:14.02Z</time></trkpt><trkpt lat="42.0830142" lon="12.1557645"><ele>263.0</ele><time>2026-04-11T18:02:15.02Z</time></trkpt><trkpt lat="42.0829669" lon="12.1559186"><ele>263.0</ele><time>2026-04-11T18:02:16.02Z</time></trkpt><trkpt lat="42.0829146" lon="12.1560668"><ele>263.0</ele><time>2026-04-11T18:02:17.02Z</time></trkpt><trkpt lat="42.082883" lon="12.1561872"><ele>263.0</ele><time>2026-04-11T18:02:18.02Z</time></trkpt><trkpt lat="42.082859" lon="12.1562668"><ele>263.0</ele><time>2026-04-11T18:02:19.019Z</time></trkpt><trkpt lat="42.0828485" lon="12.1563781"><ele>263.0</ele><time>2026-04-11T18:02:20.02Z</time></trkpt><trkpt lat="42.0828272" lon="12.156497"><ele>263.0</ele><time>2026-04-11T18:02:21.02Z</time></trkpt><trkpt lat="42.0828008" lon="12.156639"><ele>263.0</ele><time>2026-04-11T18:02:22.019Z</time></trkpt><trkpt lat="42.0827602" lon="12.1568026"><ele>263.0</ele><time>2026-04-11T18:02:23.019Z</time></trkpt><trkpt lat="42.0827241" lon="12.1569524"><ele>263.0</ele><time>2026-04-11T18:02:24.02Z</time></trkpt><trkpt lat="42.0826816" lon="12.1571228"><ele>263.0</ele><time>2026-04-11T18:02:25.019Z</time></trkpt><trkpt lat="42.0826368" lon="12.1573023"><ele>263.0</ele><time>2026-04-11T18:02:26.02Z</time></trkpt><trkpt lat="42.0825921" lon="12.1574828"><ele>263.0</ele><time>2026-04-11T18:02:27.02Z</time></trkpt><trkpt lat="42.0825522" lon="12.1576551"><ele>263.0</ele><time>2026-04-11T18:02:28.019Z</time></trkpt><trkpt lat="42.0825144" lon="12.1578169"><ele>263.0</ele><time>2026-04-11T18:02:29.019Z</time></trkpt><trkpt lat="42.0824779" lon="12.1579779"><ele>263.0</ele><time>2026-04-11T18:02:30.02Z</time></trkpt><trkpt lat="42.0824397" lon="12.1581358"><ele>263.0</ele><time>2026-04-11T18:02:31.019Z</time></trkpt><trkpt lat="42.0823989" lon="12.1582862"><ele>263.0</ele><time>2026-04-11T18:02:32.02Z</time></trkpt><trkpt lat="42.0823599" lon="12.1584297"><ele>262.8</ele><time>2026-04-11T18:02:33.02Z</time></trkpt><trkpt lat="42.0823286" lon="12.1585579"><ele>262.6</ele><time>2026-04-11T18:02:34.019Z</time></trkpt><trkpt lat="42.0822959" lon="12.1586774"><ele>262.4</ele><time>2026-04-11T18:02:35.02Z</time></trkpt><trkpt lat="42.0822649" lon="12.1587826"><ele>262.2</ele><time>2026-04-11T18:02:36.02Z</time></trkpt><trkpt lat="42.0822401" lon="12.1588941"><ele>262.0</ele><time>2026-04-11T18:02:37.019Z</time></trkpt><trkpt lat="42.0822104" lon="12.1590133"><ele>262.6</ele><time>2026-04-11T18:02:38.019Z</time></trkpt><trkpt lat="42.0821857" lon="12.1591368"><ele>263.2</ele><time>2026-04-11T18:02:39.02Z</time></trkpt><trkpt lat="42.0821572" lon="12.1592588"><ele>263.8</ele><time>2026-04-11T18:02:40.019Z</time></trkpt><trkpt lat="42.0821308" lon="12.159388"><ele>264.4</ele><time>2026-04-11T18:02:41.02Z</time></trkpt><trkpt lat="42.0821028" lon="12.1595056"><ele>265.0</ele><time>2026-04-11T18:02:42.019Z</time></trkpt><trkpt lat="42.0820752" lon="12.1596364"><ele>265.0</ele><time>2026-04-11T18:02:43.02Z</time></trkpt><trkpt lat="42.0820371" lon="12.1597807"><ele>265.0</ele><time>2026-04-11T18:02:44.02Z</time></trkpt><trkpt lat="42.081999" lon="12.1599317"><ele>265.0</ele><time>2026-04-11T18:02:45.02Z</time></trkpt><trkpt lat="42.0819638" lon="12.1600765"><ele>265.0</ele><time>2026-04-11T18:02:46.02Z</time></trkpt><trkpt lat="42.0819205" lon="12.1602506"><ele>266.5</ele><time>2026-04-11T18:02:47.019Z</time></trkpt><trkpt lat="42.0818765" lon="12.1604215"><ele>268.0</ele><time>2026-04-11T18:02:48.02Z</time></trkpt><trkpt lat="42.0818364" lon="12.1605983"><ele>269.5</ele><time>2026-04-11T18:02:49.02Z</time></trkpt><trkpt lat="42.0817967" lon="12.1607595"><ele>271.0</ele><time>2026-04-11T18:02:50.02Z</time></trkpt><trkpt lat="42.0817612" lon="12.1609221"><ele>271.25</ele><time>2026-04-11T18:02:51.019Z</time></trkpt><trkpt lat="42.0817121" lon="12.1610876"><ele>271.5</ele><time>2026-04-11T18:02:52.02Z</time></trkpt><trkpt lat="42.0816716" lon="12.1612396"><ele>271.75</ele><time>2026-04-11T18:02:53.019Z</time></trkpt><trkpt lat="42.0816348" lon="12.1613813"><ele>272.0</ele><time>2026-04-11T18:02:54.02Z</time></trkpt><trkpt lat="42.0815923" lon="12.1615155"><ele>272.2</ele><time>2026-04-11T18:02:55.02Z</time></trkpt><trkpt lat="42.0815626" lon="12.1616158"><ele>272.4</ele><time>2026-04-11T18:02:56.02Z</time></trkpt><trkpt lat="42.0815395" lon="12.161743"><ele>272.6</ele><time>2026-04-11T18:02:58.02Z</time></trkpt><trkpt lat="42.0815216" lon="12.1618662"><ele>272.8</ele><time>2026-04-11T18:03:00.02Z</time></trkpt><trkpt lat="42.0814975" lon="12.1620226"><ele>273.0</ele><time>2026-04-11T18:03:02.02Z</time></trkpt><trkpt lat="42.0814771" lon="12.1621226"><ele>273.0</ele><time>2026-04-11T18:03:03.019Z</time></trkpt><trkpt lat="42.0814537" lon="12.1622283"><ele>273.0</ele><time>2026-04-11T18:03:04.019Z</time></trkpt><trkpt lat="42.0814345" lon="12.1623485"><ele>273.0</ele><time>2026-04-11T18:03:05.019Z</time></trkpt><trkpt lat="42.0814184" lon="12.1624729"><ele>273.0</ele><time>2026-04-11T18:03:06.019Z</time></trkpt><trkpt lat="42.0813948" lon="12.1625997"><ele>273.0</ele><time>2026-04-11T18:03:07.02Z</time></trkpt><trkpt lat="42.0813696" lon="12.1627357"><ele>272.25</ele><time>2026-04-11T18:03:08.019Z</time></trkpt><trkpt lat="42.0813406" lon="12.1628763"><ele>271.5</ele><time>2026-04-11T18:03:09.019Z</time></trkpt><trkpt lat="42.0813091" lon="12.1630212"><ele>270.75</ele><time>2026-04-11T18:03:10.019Z</time></trkpt><trkpt lat="42.0812784" lon="12.1631674"><ele>270.0</ele><time>2026-04-11T18:03:11.019Z</time></trkpt><trkpt lat="42.0812466" lon="12.1633256"><ele>269.75</ele><time>2026-04-11T18:03:12.02Z</time></trkpt><trkpt lat="42.0812142" lon="12.1634824"><ele>269.5</ele><time>2026-04-11T18:03:13.02Z</time></trkpt><trkpt lat="42.0811785" lon="12.1636475"><ele>269.25</ele><time>2026-04-11T18:03:14.02Z</time></trkpt><trkpt lat="42.0811466" lon="12.1638008"><ele>269.0</ele><time>2026-04-11T18:03:15.02Z</time></trkpt><trkpt lat="42.0811136" lon="12.1639617"><ele>269.0</ele><time>2026-04-11T18:03:16.02Z</time></trkpt><trkpt lat="42.0810804" lon="12.16412"><ele>269.0</ele><time>2026-04-11T18:03:17.019Z</time></trkpt><trkpt lat="42.0810467" lon="12.164268"><ele>269.0</ele><time>2026-04-11T18:03:18.02Z</time></trkpt><trkpt lat="42.0810154" lon="12.1644191"><ele>269.0</ele><time>2026-04-11T18:03:19.019Z</time></trkpt><trkpt lat="42.0809808" lon="12.1645754"><ele>269.0</ele><time>2026-04-11T18:03:20.02Z</time></trkpt><trkpt lat="42.080955" lon="12.164725"><ele>269.0</ele><time>2026-04-11T18:03:21.02Z</time></trkpt><trkpt lat="42.0809222" lon="12.1648837"><ele>269.0</ele><time>2026-04-11T18:03:22.019Z</time></trkpt><trkpt lat="42.0808942" lon="12.1650545"><ele>269.0</ele><time>2026-04-11T18:03:23.02Z</time></trkpt><trkpt lat="42.0808657" lon="12.165224"><ele>269.0</ele><time>2026-04-11T18:03:24.019Z</time></trkpt><trkpt lat="42.0808355" lon="12.1653954"><ele>269.0</ele><time>2026-04-11T18:03:25.019Z</time></trkpt><trkpt lat="42.0808132" lon="12.1655865"><ele>269.0</ele><time>2026-04-11T18:03:26.02Z</time></trkpt><trkpt lat="42.0807387" lon="12.1657741"><ele>269.0</ele><time>2026-04-11T18:03:27.019Z</time></trkpt><trkpt lat="42.0806783" lon="12.1659843"><ele>269.25</ele><time>2026-04-11T18:03:28.02Z</time></trkpt><trkpt lat="42.0806371" lon="12.1661602"><ele>269.5</ele><time>2026-04-11T18:03:29.02Z</time></trkpt><trkpt lat="42.0806094" lon="12.1663014"><ele>269.75</ele><time>2026-04-11T18:03:30.019Z</time></trkpt><trkpt lat="42.0805825" lon="12.1664465"><ele>270.0</ele><time>2026-04-11T18:03:31.019Z</time></trkpt><trkpt lat="42.0805464" lon="12.1666051"><ele>269.5</ele><time>2026-04-11T18:03:32.02Z</time></trkpt><trkpt lat="42.0805108" lon="12.1667555"><ele>269.0</ele><time>2026-04-11T18:03:33.02Z</time></trkpt><trkpt lat="42.0804755" lon="12.166915"><ele>268.5</ele><time>2026-04-11T18:03:34.019Z</time></trkpt><trkpt lat="42.0804429" lon="12.1670932"><ele>268.0</ele><time>2026-04-11T18:03:35.02Z</time></trkpt><trkpt lat="42.0804084" lon="12.1672647"><ele>267.75</ele><time>2026-04-11T18:03:36.019Z</time></trkpt><trkpt lat="42.0803789" lon="12.1674213"><ele>267.5</ele><time>2026-04-11T18:03:37.02Z</time></trkpt><trkpt lat="42.0803445" lon="12.1675874"><ele>267.25</ele><time>2026-04-11T18:03:38.02Z</time></trkpt><trkpt lat="42.080314" lon="12.1677668"><ele>267.0</ele><time>2026-04-11T18:03:39.019Z</time></trkpt><trkpt lat="42.0802821" lon="12.1679467"><ele>267.0</ele><time>2026-04-11T18:03:40.019Z</time></trkpt><trkpt lat="42.0802483" lon="12.1681496"><ele>267.0</ele><time>2026-04-11T18:03:41.019Z</time></trkpt><trkpt lat="42.0802094" lon="12.1683543"><ele>267.0</ele><time>2026-04-11T18:03:42.02Z</time></trkpt><trkpt lat="42.0801688" lon="12.1685368"><ele>267.0</ele><time>2026-04-11T18:03:43.02Z</time></trkpt><trkpt lat="42.0801303" lon="12.1687166"><ele>267.0</ele><time>2026-04-11T18:03:44.02Z</time></trkpt><trkpt lat="42.0800901" lon="12.1688888"><ele>267.0</ele><time>2026-04-11T18:03:45.02Z</time></trkpt><trkpt lat="42.0800414" lon="12.169066"><ele>267.0</ele><time>2026-04-11T18:03:46.02Z</time></trkpt><trkpt lat="42.080024" lon="12.1692307"><ele>267.6</ele><time>2026-04-11T18:03:47.02Z</time></trkpt><trkpt lat="42.0800194" lon="12.1693939"><ele>268.2</ele><time>2026-04-11T18:03:48.02Z</time></trkpt><trkpt lat="42.0800241" lon="12.1695443"><ele>268.8</ele><time>2026-04-11T18:03:49.019Z</time></trkpt><trkpt lat="42.080033" lon="12.1696851"><ele>269.4</ele><time>2026-04-11T18:03:50.02Z</time></trkpt><trkpt lat="42.0800471" lon="12.1698021"><ele>270.0</ele><time>2026-04-11T18:03:51.02Z</time></trkpt><trkpt lat="42.0800491" lon="12.1698884"><ele>270.5</ele><time>2026-04-11T18:03:52.02Z</time></trkpt><trkpt lat="42.0800451" lon="12.170007"><ele>271.0</ele><time>2026-04-11T18:03:54.019Z</time></trkpt><trkpt lat="42.0799904" lon="12.1701029"><ele>271.5</ele><time>2026-04-11T18:03:59.02Z</time></trkpt><trkpt lat="42.0799337" lon="12.1701404"><ele>272.0</ele><time>2026-04-11T18:04:00.02Z</time></trkpt><trkpt lat="42.0798707" lon="12.170166"><ele>272.5</ele><time>2026-04-11T18:04:01.019Z</time></trkpt><trkpt lat="42.0797965" lon="12.1701909"><ele>273.0</ele><time>2026-04-11T18:04:02.019Z</time></trkpt><trkpt lat="42.0797094" lon="12.1702126"><ele>273.25</ele><time>2026-04-11T18:04:03.019Z</time></trkpt><trkpt lat="42.0795337" lon="12.1702336"><ele>273.5</ele><time>2026-04-11T18:04:05.019Z</time></trkpt><trkpt lat="42.079438" lon="12.1702581"><ele>273.75</ele><time>2026-04-11T18:04:06.02Z</time></trkpt><trkpt lat="42.0793393" lon="12.1702746"><ele>274.0</ele><time>2026-04-11T18:04:07.019Z</time></trkpt><trkpt lat="42.0792452" lon="12.170274"><ele>274.0</ele><time>2026-04-11T18:04:08.019Z</time></trkpt><trkpt lat="42.0791255" lon="12.1702715"><ele>274.0</ele><time>2026-04-11T18:04:10.02Z</time></trkpt><trkpt lat="42.0790302" lon="12.1702773"><ele>274.0</ele><time>2026-04-11T18:04:11.02Z</time></trkpt><trkpt lat="42.0789075" lon="12.1703113"><ele>274.0</ele><time>2026-04-11T18:04:12.024Z</time></trkpt><trkpt lat="42.0787568" lon="12.1703459"><ele>273.25</ele><time>2026-04-11T18:04:13.023Z</time></trkpt><trkpt lat="42.0786249" lon="12.1703827"><ele>272.5</ele><time>2026-04-11T18:04:14.024Z</time></trkpt><trkpt lat="42.0784916" lon="12.1704191"><ele>271.75</ele><time>2026-04-11T18:04:15.024Z</time></trkpt><trkpt lat="42.0783716" lon="12.1704504"><ele>271.0</ele><time>2026-04-11T18:04:16.024Z</time></trkpt><trkpt lat="42.0782703" lon="12.17047"><ele>272.0</ele><time>2026-04-11T18:04:17.024Z</time></trkpt><trkpt lat="42.0781871" lon="12.1705041"><ele>273.0</ele><time>2026-04-11T18:04:18.024Z</time></trkpt><trkpt lat="42.0781248" lon="12.1705349"><ele>274.0</ele><time>2026-04-11T18:04:19.023Z</time></trkpt><trkpt lat="42.0779984" lon="12.1705537"><ele>275.0</ele><time>2026-04-11T18:04:21.024Z</time></trkpt><trkpt lat="42.0779275" lon="12.1705665"><ele>276.0</ele><time>2026-04-11T18:04:22.024Z</time></trkpt><trkpt lat="42.07785" lon="12.1705833"><ele>277.0</ele><time>2026-04-11T18:04:23.024Z</time></trkpt><trkpt lat="42.0777676" lon="12.1705962"><ele>277.0</ele><time>2026-04-11T18:04:24.023Z</time></trkpt><trkpt lat="42.077676" lon="12.1706011"><ele>277.0</ele><time>2026-04-11T18:04:25.023Z</time></trkpt><trkpt lat="42.0775861" lon="12.1706299"><ele>277.0</ele><time>2026-04-11T18:04:26.024Z</time></trkpt><trkpt lat="42.0774934" lon="12.1706542"><ele>277.0</ele><time>2026-04-11T18:04:27.023Z</time></trkpt><trkpt lat="42.0773975" lon="12.1706736"><ele>277.0</ele><time>2026-04-11T18:04:28.024Z</time></trkpt><trkpt lat="42.0773167" lon="12.1706891"><ele>276.8333333333333</ele><time>2026-04-11T18:04:29.023Z</time></trkpt><trkpt lat="42.0772377" lon="12.1707019"><ele>276.66666666666663</ele><time>2026-04-11T18:04:30.023Z</time></trkpt><trkpt lat="42.077171" lon="12.1707121"><ele>276.5</ele><time>2026-04-11T18:04:31.023Z</time></trkpt><trkpt lat="42.0771045" lon="12.170716"><ele>276.3333333333333</ele><time>2026-04-11T18:04:32.023Z</time></trkpt><trkpt lat="42.0770088" lon="12.1706936"><ele>276.1666666666667</ele><time>2026-04-11T18:04:34.024Z</time></trkpt><trkpt lat="42.0769088" lon="12.1706804"><ele>276.0</ele><time>2026-04-11T18:04:37.024Z</time></trkpt><trkpt lat="42.0767948" lon="12.1706299"><ele>275.6</ele><time>2026-04-11T18:04:39.023Z</time></trkpt><trkpt lat="42.0767078" lon="12.1705983"><ele>275.20000000000005</ele><time>2026-04-11T18:04:40.023Z</time></trkpt><trkpt lat="42.0766046" lon="12.170568"><ele>274.79999999999995</ele><time>2026-04-11T18:04:41.023Z</time></trkpt><trkpt lat="42.0764972" lon="12.1705353"><ele>274.4</ele><time>2026-04-11T18:04:42.024Z</time></trkpt><trkpt lat="42.0763732" lon="12.1705139"><ele>274.0</ele><time>2026-04-11T18:04:43.024Z</time></trkpt><trkpt lat="42.0762327" lon="12.1705026"><ele>272.66666666666663</ele><time>2026-04-11T18:04:44.024Z</time></trkpt><trkpt lat="42.0760803" lon="12.1704844"><ele>271.3333333333333</ele><time>2026-04-11T18:04:45.024Z</time></trkpt><trkpt lat="42.0759243" lon="12.1704688"><ele>270.0</ele><time>2026-04-11T18:04:46.023Z</time></trkpt><trkpt lat="42.0757593" lon="12.1704476"><ele>270.0</ele><time>2026-04-11T18:04:47.024Z</time></trkpt><trkpt lat="42.0755913" lon="12.1704291"><ele>270.0</ele><time>2026-04-11T18:04:48.023Z</time></trkpt><trkpt lat="42.075415" lon="12.1704139"><ele>270.0</ele><time>2026-04-11T18:04:49.024Z</time></trkpt><trkpt lat="42.0752313" lon="12.1703994"><ele>270.0</ele><time>2026-04-11T18:04:50.024Z</time></trkpt><trkpt lat="42.0750434" lon="12.1703847"><ele>270.0</ele><time>2026-04-11T18:04:51.024Z</time></trkpt><trkpt lat="42.0748562" lon="12.1703667"><ele>270.0</ele><time>2026-04-11T18:04:52.023Z</time></trkpt><trkpt lat="42.0746684" lon="12.1703487"><ele>270.3333333333333</ele><time>2026-04-11T18:04:53.024Z</time></trkpt><trkpt lat="42.074479" lon="12.1703341"><ele>270.66666666666663</ele><time>2026-04-11T18:04:54.023Z</time></trkpt><trkpt lat="42.0742928" lon="12.1703186"><ele>271.0</ele><time>2026-04-11T18:04:55.024Z</time></trkpt><trkpt lat="42.0741066" lon="12.1703092"><ele>271.0</ele><time>2026-04-11T18:04:56.023Z</time></trkpt><trkpt lat="42.0739155" lon="12.1702981"><ele>271.0</ele><time>2026-04-11T18:04:57.024Z</time></trkpt><trkpt lat="42.073706" lon="12.1702945"><ele>271.0</ele><time>2026-04-11T18:04:58.024Z</time></trkpt><trkpt lat="42.0735019" lon="12.1702728"><ele>271.0</ele><time>2026-04-11T18:04:59.023Z</time></trkpt><trkpt lat="42.0733147" lon="12.1702477"><ele>271.0</ele><time>2026-04-11T18:05:00.023Z</time></trkpt><trkpt lat="42.0731227" lon="12.1702056"><ele>271.0</ele><time>2026-04-11T18:05:01.024Z</time></trkpt><trkpt lat="42.0729219" lon="12.1701875"><ele>270.66666666666663</ele><time>2026-04-11T18:05:02.024Z</time></trkpt><trkpt lat="42.0727243" lon="12.170169"><ele>270.3333333333333</ele><time>2026-04-11T18:05:03.024Z</time></trkpt><trkpt lat="42.0725169" lon="12.1701383"><ele>270.0</ele><time>2026-04-11T18:05:04.024Z</time></trkpt><trkpt lat="42.0723218" lon="12.1701098"><ele>269.3333333333333</ele><time>2026-04-11T18:05:05.023Z</time></trkpt><trkpt lat="42.0721116" lon="12.1701182"><ele>268.66666666666663</ele><time>2026-04-11T18:05:06.024Z</time></trkpt><trkpt lat="42.0718806" lon="12.1701171"><ele>268.0</ele><time>2026-04-11T18:05:07.024Z</time></trkpt><trkpt lat="42.0716776" lon="12.1701259"><ele>267.0</ele><time>2026-04-11T18:05:08.024Z</time></trkpt><trkpt lat="42.0714862" lon="12.170146"><ele>266.0</ele><time>2026-04-11T18:05:09.024Z</time></trkpt><trkpt lat="42.0712709" lon="12.1701594"><ele>265.0</ele><time>2026-04-11T18:05:10.024Z</time></trkpt><trkpt lat="42.0710605" lon="12.1701502"><ele>265.0</ele><time>2026-04-11T18:05:11.023Z</time></trkpt><trkpt lat="42.0709103" lon="12.1701909"><ele>265.0</ele><time>2026-04-11T18:05:12.023Z</time></trkpt><trkpt lat="42.070679" lon="12.1701352"><ele>265.0</ele><time>2026-04-11T18:05:13.024Z</time></trkpt><trkpt lat="42.0704809" lon="12.1700981"><ele>265.0</ele><time>2026-04-11T18:05:14.024Z</time></trkpt><trkpt lat="42.0702756" lon="12.1701008"><ele>265.0</ele><time>2026-04-11T18:05:15.023Z</time></trkpt><trkpt lat="42.0700656" lon="12.1701395"><ele>265.0</ele><time>2026-04-11T18:05:16.024Z</time></trkpt><trkpt lat="42.0698879" lon="12.1701948"><ele>265.3333333333333</ele><time>2026-04-11T18:05:17.024Z</time></trkpt><trkpt lat="42.0697496" lon="12.170227"><ele>265.6666666666667</ele><time>2026-04-11T18:05:18.024Z</time></trkpt><trkpt lat="42.0695978" lon="12.170256"><ele>266.0</ele><time>2026-04-11T18:05:19.023Z</time></trkpt><trkpt lat="42.0693964" lon="12.1702984"><ele>266.0</ele><time>2026-04-11T18:05:20.024Z</time></trkpt><trkpt lat="42.0692172" lon="12.1703944"><ele>266.0</ele><time>2026-04-11T18:05:21.023Z</time></trkpt><trkpt lat="42.0690495" lon="12.1705068"><ele>266.0</ele><time>2026-04-11T18:05:22.023Z</time></trkpt><trkpt lat="42.0688852" lon="12.1706413"><ele>266.6666666666667</ele><time>2026-04-11T18:05:23.023Z</time></trkpt><trkpt lat="42.0687353" lon="12.1707558"><ele>267.3333333333333</ele><time>2026-04-11T18:05:24.023Z</time></trkpt><trkpt lat="42.068571" lon="12.1709193"><ele>268.0</ele><time>2026-04-11T18:05:25.023Z</time></trkpt><trkpt lat="42.0684174" lon="12.1710875"><ele>269.0</ele><time>2026-04-11T18:05:26.023Z</time></trkpt><trkpt lat="42.0682667" lon="12.1711694"><ele>270.0</ele><time>2026-04-11T18:05:27.024Z</time></trkpt><trkpt lat="42.0680882" lon="12.1713082"><ele>271.0</ele><time>2026-04-11T18:05:28.023Z</time></trkpt><trkpt lat="42.0679026" lon="12.1714318"><ele>271.0</ele><time>2026-04-11T18:05:29.023Z</time></trkpt><trkpt lat="42.0677415" lon="12.1715109"><ele>271.0</ele><time>2026-04-11T18:05:30.024Z</time></trkpt><trkpt lat="42.0675802" lon="12.1715748"><ele>271.0</ele><time>2026-04-11T18:05:31.024Z</time></trkpt><trkpt lat="42.0673998" lon="12.171635"><ele>269.0</ele><time>2026-04-11T18:05:32.024Z</time></trkpt><trkpt lat="42.0672173" lon="12.1716706"><ele>267.0</ele><time>2026-04-11T18:05:33.023Z</time></trkpt><trkpt lat="42.0670195" lon="12.1717014"><ele>265.0</ele><time>2026-04-11T18:05:34.023Z</time></trkpt><trkpt lat="42.0668194" lon="12.171722"><ele>265.0</ele><time>2026-04-11T18:05:35.023Z</time></trkpt><trkpt lat="42.0666193" lon="12.1717457"><ele>265.0</ele><time>2026-04-11T18:05:36.024Z</time></trkpt><trkpt lat="42.0664133" lon="12.1717703"><ele>265.0</ele><time>2026-04-11T18:05:37.023Z</time></trkpt><trkpt lat="42.0661959" lon="12.171794"><ele>264.0</ele><time>2026-04-11T18:05:38.024Z</time></trkpt><trkpt lat="42.0659747" lon="12.1718211"><ele>263.0</ele><time>2026-04-11T18:05:39.024Z</time></trkpt><trkpt lat="42.0657599" lon="12.171848"><ele>262.0</ele><time>2026-04-11T18:05:40.023Z</time></trkpt><trkpt lat="42.0655347" lon="12.1718721"><ele>261.0</ele><time>2026-04-11T18:05:41.024Z</time></trkpt><trkpt lat="42.0653198" lon="12.1719032"><ele>260.0</ele><time>2026-04-11T18:05:42.023Z</time></trkpt><trkpt lat="42.0651147" lon="12.1719292"><ele>259.0</ele><time>2026-04-11T18:05:43.023Z</time></trkpt><trkpt lat="42.0649069" lon="12.1719614"><ele>258.0</ele><time>2026-04-11T18:05:44.023Z</time></trkpt><trkpt lat="42.0646895" lon="12.171996"><ele>257.0</ele><time>2026-04-11T18:05:45.023Z</time></trkpt><trkpt lat="42.0644577" lon="12.172029"><ele>257.0</ele><time>2026-04-11T18:05:46.023Z</time></trkpt><trkpt lat="42.0642238" lon="12.1720607"><ele>257.0</ele><time>2026-04-11T18:05:47.023Z</time></trkpt><trkpt lat="42.0639922" lon="12.172095"><ele>256.0</ele><time>2026-04-11T18:05:48.024Z</time></trkpt><trkpt lat="42.0637646" lon="12.1721207"><ele>255.0</ele><time>2026-04-11T18:05:49.024Z</time></trkpt><trkpt lat="42.0635377" lon="12.1721525"><ele>255.0</ele><time>2026-04-11T18:05:50.023Z</time></trkpt><trkpt lat="42.0633145" lon="12.1721788"><ele>255.0</ele><time>2026-04-11T18:05:51.022Z</time></trkpt><trkpt lat="42.0630937" lon="12.1722047"><ele>255.0</ele><time>2026-04-11T18:05:52.023Z</time></trkpt><trkpt lat="42.0628668" lon="12.172233"><ele>255.5</ele><time>2026-04-11T18:05:53.023Z</time></trkpt><trkpt lat="42.0626401" lon="12.1722628"><ele>256.0</ele><time>2026-04-11T18:05:54.023Z</time></trkpt><trkpt lat="42.0624165" lon="12.1722948"><ele>256.3333333333333</ele><time>2026-04-11T18:05:55.023Z</time></trkpt><trkpt lat="42.062203" lon="12.1723212"><ele>256.6666666666667</ele><time>2026-04-11T18:05:56.023Z</time></trkpt><trkpt lat="42.0619929" lon="12.1723495"><ele>257.0</ele><time>2026-04-11T18:05:57.023Z</time></trkpt><trkpt lat="42.061785" lon="12.1723723"><ele>255.66666666666669</ele><time>2026-04-11T18:05:58.022Z</time></trkpt><trkpt lat="42.0615772" lon="12.1723985"><ele>254.33333333333331</ele><time>2026-04-11T18:05:59.023Z</time></trkpt><trkpt lat="42.0613783" lon="12.1724139"><ele>253.0</ele><time>2026-04-11T18:06:00.023Z</time></trkpt><trkpt lat="42.0611827" lon="12.1724241"><ele>253.0</ele><time>2026-04-11T18:06:01.023Z</time></trkpt><trkpt lat="42.0609847" lon="12.1724205"><ele>253.0</ele><time>2026-04-11T18:06:02.023Z</time></trkpt><trkpt lat="42.0607992" lon="12.1723862"><ele>253.0</ele><time>2026-04-11T18:06:03.022Z</time></trkpt><trkpt lat="42.06063" lon="12.1723387"><ele>251.0</ele><time>2026-04-11T18:06:04.023Z</time></trkpt><trkpt lat="42.0604372" lon="12.1722901"><ele>249.0</ele><time>2026-04-11T18:06:05.022Z</time></trkpt><trkpt lat="42.0602563" lon="12.1721811"><ele>247.0</ele><time>2026-04-11T18:06:06.022Z</time></trkpt><trkpt lat="42.060083" lon="12.1720741"><ele>246.0</ele><time>2026-04-11T18:06:07.023Z</time></trkpt><trkpt lat="42.0599316" lon="12.1719448"><ele>245.0</ele><time>2026-04-11T18:06:08.022Z</time></trkpt><trkpt lat="42.0597774" lon="12.1718016"><ele>244.0</ele><time>2026-04-11T18:06:09.022Z</time></trkpt><trkpt lat="42.0596408" lon="12.1715941"><ele>244.66666666666666</ele><time>2026-04-11T18:06:10.023Z</time></trkpt><trkpt lat="42.0595468" lon="12.1714156"><ele>245.33333333333331</ele><time>2026-04-11T18:06:11.023Z</time></trkpt><trkpt lat="42.0594558" lon="12.1712326"><ele>246.0</ele><time>2026-04-11T18:06:12.023Z</time></trkpt><trkpt lat="42.0593577" lon="12.1709543"><ele>246.0</ele><time>2026-04-11T18:06:13.022Z</time></trkpt><trkpt lat="42.059282" lon="12.1706175"><ele>246.0</ele><time>2026-04-11T18:06:14.022Z</time></trkpt><trkpt lat="42.0591985" lon="12.170375"><ele>245.0</ele><time>2026-04-11T18:06:15.023Z</time></trkpt><trkpt lat="42.0591115" lon="12.1701681"><ele>244.0</ele><time>2026-04-11T18:06:16.022Z</time></trkpt><trkpt lat="42.0590243" lon="12.1699631"><ele>243.0</ele><time>2026-04-11T18:06:17.023Z</time></trkpt><trkpt lat="42.0589333" lon="12.1697483"><ele>243.0</ele><time>2026-04-11T18:06:18.023Z</time></trkpt><trkpt lat="42.0588497" lon="12.169511"><ele>243.0</ele><time>2026-04-11T18:06:19.023Z</time></trkpt><trkpt lat="42.0587499" lon="12.1692585"><ele>243.0</ele><time>2026-04-11T18:06:20.023Z</time></trkpt><trkpt lat="42.0586257" lon="12.169087"><ele>243.66666666666669</ele><time>2026-04-11T18:06:21.023Z</time></trkpt><trkpt lat="42.0584609" lon="12.1689881"><ele>244.33333333333334</ele><time>2026-04-11T18:06:22.022Z</time></trkpt><trkpt lat="42.0582775" lon="12.168885"><ele>245.0</ele><time>2026-04-11T18:06:23.022Z</time></trkpt><trkpt lat="42.058102" lon="12.1687995"><ele>245.66666666666669</ele><time>2026-04-11T18:06:24.023Z</time></trkpt><trkpt lat="42.0579312" lon="12.168729"><ele>246.33333333333331</ele><time>2026-04-11T18:06:25.023Z</time></trkpt><trkpt lat="42.0577548" lon="12.1686825"><ele>247.0</ele><time>2026-04-11T18:06:26.023Z</time></trkpt><trkpt lat="42.0575688" lon="12.1686523"><ele>247.33333333333331</ele><time>2026-04-11T18:06:27.022Z</time></trkpt><trkpt lat="42.0573771" lon="12.1686278"><ele>247.66666666666669</ele><time>2026-04-11T18:06:28.023Z</time></trkpt><trkpt lat="42.0572135" lon="12.1686166"><ele>248.0</ele><time>2026-04-11T18:06:29.023Z</time></trkpt><trkpt lat="42.0570593" lon="12.1686283"><ele>248.0</ele><time>2026-04-11T18:06:30.023Z</time></trkpt><trkpt lat="42.0568859" lon="12.1686164"><ele>248.0</ele><time>2026-04-11T18:06:31.022Z</time></trkpt><trkpt lat="42.0566644" lon="12.1685794"><ele>248.0</ele><time>2026-04-11T18:06:32.022Z</time></trkpt><trkpt lat="42.0564564" lon="12.1684611"><ele>248.33333333333334</ele><time>2026-04-11T18:06:33.022Z</time></trkpt><trkpt lat="42.0562553" lon="12.1683837"><ele>248.66666666666669</ele><time>2026-04-11T18:06:34.022Z</time></trkpt><trkpt lat="42.05604" lon="12.1684202"><ele>249.0</ele><time>2026-04-11T18:06:35.023Z</time></trkpt><trkpt lat="42.0558284" lon="12.1684222"><ele>248.0</ele><time>2026-04-11T18:06:36.022Z</time></trkpt><trkpt lat="42.0556307" lon="12.1683865"><ele>247.0</ele><time>2026-04-11T18:06:37.023Z</time></trkpt><trkpt lat="42.0554258" lon="12.1683495"><ele>246.0</ele><time>2026-04-11T18:06:38.023Z</time></trkpt><trkpt lat="42.0552197" lon="12.1683612"><ele>246.0</ele><time>2026-04-11T18:06:39.022Z</time></trkpt><trkpt lat="42.0550076" lon="12.1683563"><ele>246.0</ele><time>2026-04-11T18:06:40.023Z</time></trkpt><trkpt lat="42.0547959" lon="12.1683198"><ele>246.0</ele><time>2026-04-11T18:06:41.022Z</time></trkpt><trkpt lat="42.0545812" lon="12.1682902"><ele>245.0</ele><time>2026-04-11T18:06:42.023Z</time></trkpt><trkpt lat="42.0543905" lon="12.1682291"><ele>244.0</ele><time>2026-04-11T18:06:43.023Z</time></trkpt><trkpt lat="42.0542172" lon="12.1681632"><ele>243.0</ele><time>2026-04-11T18:06:44.023Z</time></trkpt><trkpt lat="42.054036" lon="12.1681278"><ele>242.33333333333331</ele><time>2026-04-11T18:06:45.023Z</time></trkpt><trkpt lat="42.0538612" lon="12.1680866"><ele>241.66666666666666</ele><time>2026-04-11T18:06:46.022Z</time></trkpt><trkpt lat="42.0536864" lon="12.1680398"><ele>241.0</ele><time>2026-04-11T18:06:47.022Z</time></trkpt><trkpt lat="42.0535085" lon="12.1679785"><ele>241.0</ele><time>2026-04-11T18:06:48.023Z</time></trkpt><trkpt lat="42.0533217" lon="12.1679031"><ele>241.0</ele><time>2026-04-11T18:06:49.023Z</time></trkpt><trkpt lat="42.0531375" lon="12.1678184"><ele>241.0</ele><time>2026-04-11T18:06:50.023Z</time></trkpt><trkpt lat="42.0529559" lon="12.1677444"><ele>240.0</ele><time>2026-04-11T18:06:51.023Z</time></trkpt><trkpt lat="42.0527732" lon="12.1676553"><ele>239.0</ele><time>2026-04-11T18:06:52.023Z</time></trkpt><trkpt lat="42.052595" lon="12.16755"><ele>238.0</ele><time>2026-04-11T18:06:53.022Z</time></trkpt><trkpt lat="42.0524102" lon="12.1674502"><ele>236.33333333333331</ele><time>2026-04-11T18:06:54.022Z</time></trkpt><trkpt lat="42.0522264" lon="12.1673481"><ele>234.66666666666669</ele><time>2026-04-11T18:06:55.023Z</time></trkpt><trkpt lat="42.0520358" lon="12.1672419"><ele>233.0</ele><time>2026-04-11T18:06:56.023Z</time></trkpt><trkpt lat="42.0518487" lon="12.1671346"><ele>233.0</ele><time>2026-04-11T18:06:57.023Z</time></trkpt><trkpt lat="42.0516615" lon="12.1670261"><ele>233.0</ele><time>2026-04-11T18:06:58.022Z</time></trkpt><trkpt lat="42.0514737" lon="12.1669207"><ele>233.0</ele><time>2026-04-11T18:06:59.023Z</time></trkpt><trkpt lat="42.051289" lon="12.166809"><ele>231.33333333333334</ele><time>2026-04-11T18:07:00.022Z</time></trkpt><trkpt lat="42.0511055" lon="12.1666908"><ele>229.66666666666669</ele><time>2026-04-11T18:07:01.023Z</time></trkpt><trkpt lat="42.0509169" lon="12.1665774"><ele>228.0</ele><time>2026-04-11T18:07:02.022Z</time></trkpt><trkpt lat="42.0507309" lon="12.1664614"><ele>225.66666666666669</ele><time>2026-04-11T18:07:03.023Z</time></trkpt><trkpt lat="42.0505555" lon="12.1663456"><ele>223.33333333333334</ele><time>2026-04-11T18:07:04.023Z</time></trkpt><trkpt lat="42.0503849" lon="12.1662352"><ele>221.0</ele><time>2026-04-11T18:07:05.022Z</time></trkpt><trkpt lat="42.0502176" lon="12.1661232"><ele>221.0</ele><time>2026-04-11T18:07:06.022Z</time></trkpt><trkpt lat="42.050056" lon="12.1660118"><ele>221.0</ele><time>2026-04-11T18:07:07.022Z</time></trkpt><trkpt lat="42.0499083" lon="12.1658898"><ele>221.0</ele><time>2026-04-11T18:07:08.023Z</time></trkpt><trkpt lat="42.0497671" lon="12.1657648"><ele>219.66666666666669</ele><time>2026-04-11T18:07:09.023Z</time></trkpt><trkpt lat="42.0496256" lon="12.1656069"><ele>218.33333333333331</ele><time>2026-04-11T18:07:10.022Z</time></trkpt><trkpt lat="42.0495294" lon="12.1653865"><ele>217.0</ele><time>2026-04-11T18:07:11.023Z</time></trkpt><trkpt lat="42.0494497" lon="12.1651908"><ele>217.0</ele><time>2026-04-11T18:07:12.022Z</time></trkpt><trkpt lat="42.0493567" lon="12.1650294"><ele>217.0</ele><time>2026-04-11T18:07:13.022Z</time></trkpt><trkpt lat="42.0492633" lon="12.1648718"><ele>217.0</ele><time>2026-04-11T18:07:14.022Z</time></trkpt><trkpt lat="42.0492059" lon="12.164684"><ele>216.66666666666666</ele><time>2026-04-11T18:07:15.023Z</time></trkpt><trkpt lat="42.049143" lon="12.1644242"><ele>216.33333333333331</ele><time>2026-04-11T18:07:16.023Z</time></trkpt><trkpt lat="42.0490786" lon="12.1641918"><ele>216.0</ele><time>2026-04-11T18:07:17.022Z</time></trkpt><trkpt lat="42.0490104" lon="12.1639509"><ele>213.66666666666669</ele><time>2026-04-11T18:07:18.022Z</time></trkpt><trkpt lat="42.0489349" lon="12.1637027"><ele>211.33333333333334</ele><time>2026-04-11T18:07:19.023Z</time></trkpt><trkpt lat="42.0488683" lon="12.1635093"><ele>209.0</ele><time>2026-04-11T18:07:20.023Z</time></trkpt><trkpt lat="42.0488056" lon="12.163296"><ele>209.33333333333334</ele><time>2026-04-11T18:07:21.022Z</time></trkpt><trkpt lat="42.0487478" lon="12.1630977"><ele>209.66666666666669</ele><time>2026-04-11T18:07:22.023Z</time></trkpt><trkpt lat="42.0486772" lon="12.1629092"><ele>210.0</ele><time>2026-04-11T18:07:23.023Z</time></trkpt><trkpt lat="42.048592" lon="12.1627421"><ele>210.0</ele><time>2026-04-11T18:07:24.023Z</time></trkpt><trkpt lat="42.0484988" lon="12.1625824"><ele>210.0</ele><time>2026-04-11T18:07:25.022Z</time></trkpt><trkpt lat="42.0483968" lon="12.1624267"><ele>210.0</ele><time>2026-04-11T18:07:26.022Z</time></trkpt><trkpt lat="42.0482863" lon="12.1622661"><ele>208.33333333333331</ele><time>2026-04-11T18:07:27.023Z</time></trkpt><trkpt lat="42.0481757" lon="12.1621061"><ele>206.66666666666666</ele><time>2026-04-11T18:07:28.022Z</time></trkpt><trkpt lat="42.0480532" lon="12.1619642"><ele>205.0</ele><time>2026-04-11T18:07:29.022Z</time></trkpt><trkpt lat="42.0479353" lon="12.1617975"><ele>205.0</ele><time>2026-04-11T18:07:30.023Z</time></trkpt><trkpt lat="42.0478121" lon="12.1616287"><ele>205.0</ele><time>2026-04-11T18:07:31.022Z</time></trkpt><trkpt lat="42.0476876" lon="12.1614572"><ele>205.0</ele><time>2026-04-11T18:07:32.023Z</time></trkpt><trkpt lat="42.0475588" lon="12.161283"><ele>205.0</ele><time>2026-04-11T18:07:33.022Z</time></trkpt><trkpt lat="42.047432" lon="12.1611041"><ele>205.0</ele><time>2026-04-11T18:07:34.023Z</time></trkpt><trkpt lat="42.0473074" lon="12.1609253"><ele>205.0</ele><time>2026-04-11T18:07:35.022Z</time></trkpt><trkpt lat="42.047174" lon="12.1607525"><ele>206.66666666666666</ele><time>2026-04-11T18:07:36.023Z</time></trkpt><trkpt lat="42.0470577" lon="12.1605887"><ele>208.33333333333331</ele><time>2026-04-11T18:07:37.023Z</time></trkpt><trkpt lat="42.0469418" lon="12.160423"><ele>210.0</ele><time>2026-04-11T18:07:38.023Z</time></trkpt><trkpt lat="42.0468119" lon="12.160252"><ele>210.0</ele><time>2026-04-11T18:07:39.023Z</time></trkpt><trkpt lat="42.0466745" lon="12.1600778"><ele>210.0</ele><time>2026-04-11T18:07:40.022Z</time></trkpt><trkpt lat="42.0465483" lon="12.1599084"><ele>210.0</ele><time>2026-04-11T18:07:41.022Z</time></trkpt><trkpt lat="42.0464435" lon="12.1597428"><ele>211.33333333333331</ele><time>2026-04-11T18:07:42.022Z</time></trkpt><trkpt lat="42.0463161" lon="12.1596"><ele>212.66666666666666</ele><time>2026-04-11T18:07:43.023Z</time></trkpt><trkpt lat="42.0461543" lon="12.1594927"><ele>214.0</ele><time>2026-04-11T18:07:44.023Z</time></trkpt><trkpt lat="42.0460137" lon="12.1594109"><ele>214.0</ele><time>2026-04-11T18:07:45.023Z</time></trkpt><trkpt lat="42.045885" lon="12.1593496"><ele>214.0</ele><time>2026-04-11T18:07:46.022Z</time></trkpt><trkpt lat="42.0457394" lon="12.1593052"><ele>214.0</ele><time>2026-04-11T18:07:47.022Z</time></trkpt><trkpt lat="42.0455844" lon="12.1592812"><ele>214.0</ele><time>2026-04-11T18:07:48.023Z</time></trkpt><trkpt lat="42.0454153" lon="12.1592563"><ele>214.0</ele><time>2026-04-11T18:07:49.023Z</time></trkpt><trkpt lat="42.0452195" lon="12.1592506"><ele>214.0</ele><time>2026-04-11T18:07:50.022Z</time></trkpt><trkpt lat="42.0450246" lon="12.1592602"><ele>214.0</ele><time>2026-04-11T18:07:51.023Z</time></trkpt><trkpt lat="42.0448306" lon="12.1592924"><ele>213.0</ele><time>2026-04-11T18:07:52.023Z</time></trkpt><trkpt lat="42.044645" lon="12.1593319"><ele>212.0</ele><time>2026-04-11T18:07:53.022Z</time></trkpt><trkpt lat="42.0444666" lon="12.159396"><ele>211.0</ele><time>2026-04-11T18:07:54.022Z</time></trkpt><trkpt lat="42.0442832" lon="12.1594793"><ele>209.0</ele><time>2026-04-11T18:07:55.022Z</time></trkpt><trkpt lat="42.0441055" lon="12.1595662"><ele>207.0</ele><time>2026-04-11T18:07:56.022Z</time></trkpt><trkpt lat="42.0439351" lon="12.1596616"><ele>205.0</ele><time>2026-04-11T18:07:57.023Z</time></trkpt><trkpt lat="42.0437592" lon="12.1597527"><ele>205.0</ele><time>2026-04-11T18:07:58.023Z</time></trkpt><trkpt lat="42.0435743" lon="12.1598465"><ele>205.0</ele><time>2026-04-11T18:07:59.022Z</time></trkpt><trkpt lat="42.0433824" lon="12.1599466"><ele>205.0</ele><time>2026-04-11T18:08:00.023Z</time></trkpt><trkpt lat="42.0431951" lon="12.160046"><ele>205.66666666666666</ele><time>2026-04-11T18:08:01.023Z</time></trkpt><trkpt lat="42.0430093" lon="12.1601474"><ele>206.33333333333331</ele><time>2026-04-11T18:08:02.022Z</time></trkpt><trkpt lat="42.0428203" lon="12.1602579"><ele>207.0</ele><time>2026-04-11T18:08:03.023Z</time></trkpt><trkpt lat="42.0426392" lon="12.1603531"><ele>206.66666666666669</ele><time>2026-04-11T18:08:04.023Z</time></trkpt><trkpt lat="42.0424541" lon="12.1604443"><ele>206.33333333333334</ele><time>2026-04-11T18:08:05.023Z</time></trkpt><trkpt lat="42.0422573" lon="12.1605308"><ele>206.0</ele><time>2026-04-11T18:08:06.022Z</time></trkpt><trkpt lat="42.0420396" lon="12.1605895"><ele>206.0</ele><time>2026-04-11T18:08:07.022Z</time></trkpt><trkpt lat="42.0418968" lon="12.1606339"><ele>206.0</ele><time>2026-04-11T18:08:08.023Z</time></trkpt><trkpt lat="42.0417849" lon="12.1606604"><ele>206.0</ele><time>2026-04-11T18:08:09.023Z</time></trkpt><trkpt lat="42.0416392" lon="12.1607276"><ele>206.0</ele><time>2026-04-11T18:08:10.023Z</time></trkpt><trkpt lat="42.0414253" lon="12.1608832"><ele>202.5</ele><time>2026-04-11T18:08:11.022Z</time></trkpt><trkpt lat="42.0411956" lon="12.1610602"><ele>199.0</ele><time>2026-04-11T18:08:12.023Z</time></trkpt><trkpt lat="42.0409876" lon="12.1611953"><ele>198.0</ele><time>2026-04-11T18:08:13.022Z</time></trkpt><trkpt lat="42.0407677" lon="12.1613189"><ele>197.0</ele><time>2026-04-11T18:08:14.022Z</time></trkpt><trkpt lat="42.0406018" lon="12.1613791"><ele>196.0</ele><time>2026-04-11T18:08:15.023Z</time></trkpt><trkpt lat="42.0404546" lon="12.1614494"><ele>196.0</ele><time>2026-04-11T18:08:16.023Z</time></trkpt><trkpt lat="42.040329" lon="12.1615182"><ele>196.0</ele><time>2026-04-11T18:08:17.022Z</time></trkpt><trkpt lat="42.0401561" lon="12.1615564"><ele>196.0</ele><time>2026-04-11T18:08:18.023Z</time></trkpt><trkpt lat="42.0399568" lon="12.1616281"><ele>195.33333333333331</ele><time>2026-04-11T18:08:19.022Z</time></trkpt><trkpt lat="42.0397477" lon="12.1617283"><ele>194.66666666666669</ele><time>2026-04-11T18:08:20.022Z</time></trkpt><trkpt lat="42.0395341" lon="12.1618082"><ele>194.0</ele><time>2026-04-11T18:08:21.023Z</time></trkpt><trkpt lat="42.039346" lon="12.161845"><ele>194.0</ele><time>2026-04-11T18:08:22.023Z</time></trkpt><trkpt lat="42.039154" lon="12.1618502"><ele>194.0</ele><time>2026-04-11T18:08:23.022Z</time></trkpt><trkpt lat="42.0389911" lon="12.161834"><ele>194.0</ele><time>2026-04-11T18:08:24.022Z</time></trkpt><trkpt lat="42.0388177" lon="12.161798"><ele>193.66666666666669</ele><time>2026-04-11T18:08:25.022Z</time></trkpt><trkpt lat="42.0386423" lon="12.1617315"><ele>193.33333333333331</ele><time>2026-04-11T18:08:26.023Z</time></trkpt><trkpt lat="42.0384732" lon="12.1617235"><ele>193.0</ele><time>2026-04-11T18:08:27.023Z</time></trkpt><trkpt lat="42.038306" lon="12.1616927"><ele>192.66666666666666</ele><time>2026-04-11T18:08:28.023Z</time></trkpt><trkpt lat="42.0381214" lon="12.1616709"><ele>192.33333333333331</ele><time>2026-04-11T18:08:29.023Z</time></trkpt><trkpt lat="42.0379285" lon="12.1616311"><ele>192.0</ele><time>2026-04-11T18:08:30.022Z</time></trkpt><trkpt lat="42.0377297" lon="12.1616244"><ele>192.0</ele><time>2026-04-11T18:08:31.022Z</time></trkpt><trkpt lat="42.0375379" lon="12.1615977"><ele>192.0</ele><time>2026-04-11T18:08:32.022Z</time></trkpt><trkpt lat="42.0373436" lon="12.1615669"><ele>192.0</ele><time>2026-04-11T18:08:33.023Z</time></trkpt><trkpt lat="42.0371442" lon="12.1615551"><ele>192.33333333333331</ele><time>2026-04-11T18:08:34.023Z</time></trkpt><trkpt lat="42.0369522" lon="12.1615347"><ele>192.66666666666666</ele><time>2026-04-11T18:08:35.022Z</time></trkpt><trkpt lat="42.0367757" lon="12.1615133"><ele>193.0</ele><time>2026-04-11T18:08:36.023Z</time></trkpt><trkpt lat="42.036596" lon="12.1614957"><ele>192.0</ele><time>2026-04-11T18:08:37.023Z</time></trkpt><trkpt lat="42.0364162" lon="12.161475"><ele>191.0</ele><time>2026-04-11T18:08:38.023Z</time></trkpt><trkpt lat="42.0362428" lon="12.1614589"><ele>190.0</ele><time>2026-04-11T18:08:39.023Z</time></trkpt><trkpt lat="42.0360807" lon="12.1614273"><ele>190.0</ele><time>2026-04-11T18:08:40.023Z</time></trkpt><trkpt lat="42.0359346" lon="12.1613719"><ele>190.0</ele><time>2026-04-11T18:08:41.022Z</time></trkpt><trkpt lat="42.0357992" lon="12.1612588"><ele>190.0</ele><time>2026-04-11T18:08:42.023Z</time></trkpt><trkpt lat="42.0356692" lon="12.1611264"><ele>190.66666666666669</ele><time>2026-04-11T18:08:43.023Z</time></trkpt><trkpt lat="42.0355526" lon="12.1609837"><ele>191.33333333333334</ele><time>2026-04-11T18:08:44.023Z</time></trkpt><trkpt lat="42.0354414" lon="12.1608249"><ele>192.0</ele><time>2026-04-11T18:08:45.022Z</time></trkpt><trkpt lat="42.0353289" lon="12.1606438"><ele>192.0</ele><time>2026-04-11T18:08:46.023Z</time></trkpt><trkpt lat="42.0351928" lon="12.1604911"><ele>192.0</ele><time>2026-04-11T18:08:47.022Z</time></trkpt><trkpt lat="42.0350947" lon="12.1602728"><ele>192.0</ele><time>2026-04-11T18:08:48.022Z</time></trkpt><trkpt lat="42.035032" lon="12.1601494"><ele>192.0</ele><time>2026-04-11T18:08:49.022Z</time></trkpt><trkpt lat="42.0350163" lon="12.1600136"><ele>192.0</ele><time>2026-04-11T18:08:50.023Z</time></trkpt><trkpt lat="42.0349529" lon="12.1598154"><ele>192.0</ele><time>2026-04-11T18:08:51.022Z</time></trkpt><trkpt lat="42.034844" lon="12.1596924"><ele>192.0</ele><time>2026-04-11T18:08:52.023Z</time></trkpt><trkpt lat="42.0347286" lon="12.1595556"><ele>192.33333333333331</ele><time>2026-04-11T18:08:53.023Z</time></trkpt><trkpt lat="42.034632" lon="12.1594067"><ele>192.66666666666666</ele><time>2026-04-11T18:08:54.022Z</time></trkpt><trkpt lat="42.0344579" lon="12.1591912"><ele>193.0</ele><time>2026-04-11T18:08:55.022Z</time></trkpt><trkpt lat="42.0342874" lon="12.1589608"><ele>190.66666666666666</ele><time>2026-04-11T18:08:56.023Z</time></trkpt><trkpt lat="42.0341143" lon="12.1587537"><ele>188.33333333333331</ele><time>2026-04-11T18:08:57.023Z</time></trkpt><trkpt lat="42.033947" lon="12.1585668"><ele>186.0</ele><time>2026-04-11T18:08:58.023Z</time></trkpt><trkpt lat="42.0338096" lon="12.1583422"><ele>184.33333333333334</ele><time>2026-04-11T18:08:59.022Z</time></trkpt><trkpt lat="42.0336726" lon="12.1581029"><ele>182.66666666666669</ele><time>2026-04-11T18:09:00.023Z</time></trkpt><trkpt lat="42.0335553" lon="12.1579231"><ele>181.0</ele><time>2026-04-11T18:09:01.023Z</time></trkpt><trkpt lat="42.0334418" lon="12.1577703"><ele>181.33333333333334</ele><time>2026-04-11T18:09:02.023Z</time></trkpt><trkpt lat="42.0332885" lon="12.157627"><ele>181.66666666666666</ele><time>2026-04-11T18:09:03.023Z</time></trkpt><trkpt lat="42.033126" lon="12.1575012"><ele>182.0</ele><time>2026-04-11T18:09:04.022Z</time></trkpt><trkpt lat="42.0329484" lon="12.1574188"><ele>181.66666666666666</ele><time>2026-04-11T18:09:05.023Z</time></trkpt><trkpt lat="42.0327966" lon="12.1573617"><ele>181.33333333333334</ele><time>2026-04-11T18:09:06.022Z</time></trkpt><trkpt lat="42.032601" lon="12.1572997"><ele>181.0</ele><time>2026-04-11T18:09:07.022Z</time></trkpt><trkpt lat="42.032396" lon="12.1572052"><ele>179.5</ele><time>2026-04-11T18:09:08.022Z</time></trkpt><trkpt lat="42.0321839" lon="12.1571072"><ele>178.0</ele><time>2026-04-11T18:09:09.022Z</time></trkpt><trkpt lat="42.0319597" lon="12.1570026"><ele>178.0</ele><time>2026-04-11T18:09:10.023Z</time></trkpt><trkpt lat="42.0317308" lon="12.1569206"><ele>178.0</ele><time>2026-04-11T18:09:11.022Z</time></trkpt><trkpt lat="42.0315314" lon="12.1568332"><ele>178.0</ele><time>2026-04-11T18:09:12.023Z</time></trkpt><trkpt lat="42.0313304" lon="12.1567288"><ele>177.66666666666669</ele><time>2026-04-11T18:09:13.022Z</time></trkpt><trkpt lat="42.0311291" lon="12.1566291"><ele>177.33333333333334</ele><time>2026-04-11T18:09:14.022Z</time></trkpt><trkpt lat="42.0309255" lon="12.1565324"><ele>177.0</ele><time>2026-04-11T18:09:15.023Z</time></trkpt><trkpt lat="42.0307176" lon="12.1564338"><ele>175.66666666666666</ele><time>2026-04-11T18:09:16.022Z</time></trkpt><trkpt lat="42.0305104" lon="12.1563375"><ele>174.33333333333331</ele><time>2026-04-11T18:09:17.022Z</time></trkpt><trkpt lat="42.0303039" lon="12.156238"><ele>173.0</ele><time>2026-04-11T18:09:18.022Z</time></trkpt><trkpt lat="42.0301125" lon="12.1561488"><ele>171.66666666666666</ele><time>2026-04-11T18:09:19.023Z</time></trkpt><trkpt lat="42.0299256" lon="12.1560726"><ele>170.33333333333334</ele><time>2026-04-11T18:09:20.022Z</time></trkpt><trkpt lat="42.0297373" lon="12.1559814"><ele>169.0</ele><time>2026-04-11T18:09:21.023Z</time></trkpt><trkpt lat="42.0295445" lon="12.1558826"><ele>169.0</ele><time>2026-04-11T18:09:22.022Z</time></trkpt><trkpt lat="42.0293539" lon="12.155796"><ele>169.0</ele><time>2026-04-11T18:09:23.022Z</time></trkpt><trkpt lat="42.0291549" lon="12.1557096"><ele>169.0</ele><time>2026-04-11T18:09:24.023Z</time></trkpt><trkpt lat="42.0289533" lon="12.1556352"><ele>168.66666666666669</ele><time>2026-04-11T18:09:25.023Z</time></trkpt><trkpt lat="42.0287647" lon="12.1555403"><ele>168.33333333333334</ele><time>2026-04-11T18:09:26.022Z</time></trkpt><trkpt lat="42.0285788" lon="12.1554496"><ele>168.0</ele><time>2026-04-11T18:09:27.022Z</time></trkpt><trkpt lat="42.0283966" lon="12.1553622"><ele>167.0</ele><time>2026-04-11T18:09:28.023Z</time></trkpt><trkpt lat="42.0282161" lon="12.1552688"><ele>166.0</ele><time>2026-04-11T18:09:29.023Z</time></trkpt><trkpt lat="42.0280458" lon="12.1551828"><ele>165.0</ele><time>2026-04-11T18:09:30.022Z</time></trkpt><trkpt lat="42.0278724" lon="12.1550994"><ele>165.0</ele><time>2026-04-11T18:09:31.023Z</time></trkpt><trkpt lat="42.027697" lon="12.1550181"><ele>165.0</ele><time>2026-04-11T18:09:32.022Z</time></trkpt><trkpt lat="42.0275173" lon="12.1549467"><ele>165.0</ele><time>2026-04-11T18:09:33.022Z</time></trkpt><trkpt lat="42.0273392" lon="12.1548552"><ele>164.66666666666666</ele><time>2026-04-11T18:09:34.022Z</time></trkpt><trkpt lat="42.02715" lon="12.1547534"><ele>164.33333333333331</ele><time>2026-04-11T18:09:35.023Z</time></trkpt><trkpt lat="42.0269456" lon="12.1546491"><ele>164.0</ele><time>2026-04-11T18:09:36.023Z</time></trkpt><trkpt lat="42.0267393" lon="12.1545268"><ele>163.66666666666666</ele><time>2026-04-11T18:09:37.023Z</time></trkpt><trkpt lat="42.0265395" lon="12.1543863"><ele>163.33333333333334</ele><time>2026-04-11T18:09:38.022Z</time></trkpt><trkpt lat="42.02635" lon="12.1542801"><ele>163.0</ele><time>2026-04-11T18:09:39.022Z</time></trkpt><trkpt lat="42.0261595" lon="12.1542189"><ele>163.0</ele><time>2026-04-11T18:09:40.022Z</time></trkpt><trkpt lat="42.0259636" lon="12.1541694"><ele>163.0</ele><time>2026-04-11T18:09:41.022Z</time></trkpt><trkpt lat="42.0257832" lon="12.1541043"><ele>163.0</ele><time>2026-04-11T18:09:42.023Z</time></trkpt><trkpt lat="42.0256089" lon="12.1539909"><ele>162.33333333333334</ele><time>2026-04-11T18:09:43.022Z</time></trkpt><trkpt lat="42.0254349" lon="12.1538713"><ele>161.66666666666666</ele><time>2026-04-11T18:09:44.022Z</time></trkpt><trkpt lat="42.0252646" lon="12.153736"><ele>161.0</ele><time>2026-04-11T18:09:45.022Z</time></trkpt><trkpt lat="42.0250991" lon="12.153601"><ele>160.66666666666666</ele><time>2026-04-11T18:09:46.022Z</time></trkpt><trkpt lat="42.0249444" lon="12.1534536"><ele>160.33333333333334</ele><time>2026-04-11T18:09:47.022Z</time></trkpt><trkpt lat="42.024804" lon="12.1532918"><ele>160.0</ele><time>2026-04-11T18:09:48.023Z</time></trkpt><trkpt lat="42.0246667" lon="12.153118"><ele>159.66666666666669</ele><time>2026-04-11T18:09:49.023Z</time></trkpt><trkpt lat="42.0245403" lon="12.1529258"><ele>159.33333333333334</ele><time>2026-04-11T18:09:50.022Z</time></trkpt><trkpt lat="42.0244168" lon="12.1527213"><ele>159.0</ele><time>2026-04-11T18:09:51.022Z</time></trkpt><trkpt lat="42.0242971" lon="12.1525115"><ele>159.66666666666666</ele><time>2026-04-11T18:09:52.022Z</time></trkpt><trkpt lat="42.0241725" lon="12.152296"><ele>160.33333333333331</ele><time>2026-04-11T18:09:53.022Z</time></trkpt><trkpt lat="42.0240402" lon="12.1520761"><ele>161.0</ele><time>2026-04-11T18:09:54.023Z</time></trkpt><trkpt lat="42.023904" lon="12.1518555"><ele>159.66666666666666</ele><time>2026-04-11T18:09:55.023Z</time></trkpt><trkpt lat="42.0237631" lon="12.1516311"><ele>158.33333333333334</ele><time>2026-04-11T18:09:56.023Z</time></trkpt><trkpt lat="42.0236227" lon="12.1514021"><ele>157.0</ele><time>2026-04-11T18:09:57.022Z</time></trkpt><trkpt lat="42.0234802" lon="12.1511689"><ele>156.0</ele><time>2026-04-11T18:09:58.022Z</time></trkpt><trkpt lat="42.0233372" lon="12.1509301"><ele>155.0</ele><time>2026-04-11T18:09:59.023Z</time></trkpt><trkpt lat="42.023193" lon="12.1506967"><ele>151.5</ele><time>2026-04-11T18:10:00.023Z</time></trkpt><trkpt lat="42.0230474" lon="12.1504625"><ele>148.0</ele><time>2026-04-11T18:10:01.023Z</time></trkpt><trkpt lat="42.0229029" lon="12.1502331"><ele>148.0</ele><time>2026-04-11T18:10:02.023Z</time></trkpt><trkpt lat="42.0227599" lon="12.1500024"><ele>148.0</ele><time>2026-04-11T18:10:03.023Z</time></trkpt><trkpt lat="42.0226161" lon="12.1497725"><ele>148.0</ele><time>2026-04-11T18:10:04.023Z</time></trkpt><trkpt lat="42.0224745" lon="12.1495469"><ele>147.33333333333334</ele><time>2026-04-11T18:10:05.023Z</time></trkpt><trkpt lat="42.0223338" lon="12.1493212"><ele>146.66666666666666</ele><time>2026-04-11T18:10:06.022Z</time></trkpt><trkpt lat="42.0221948" lon="12.1490976"><ele>146.0</ele><time>2026-04-11T18:10:07.023Z</time></trkpt><trkpt lat="42.0220539" lon="12.1488745"><ele>146.0</ele><time>2026-04-11T18:10:08.022Z</time></trkpt><trkpt lat="42.0219162" lon="12.1486546"><ele>146.0</ele><time>2026-04-11T18:10:09.023Z</time></trkpt><trkpt lat="42.0217705" lon="12.1484233"><ele>146.0</ele><time>2026-04-11T18:10:10.023Z</time></trkpt><trkpt lat="42.0216009" lon="12.1482146"><ele>146.33333333333331</ele><time>2026-04-11T18:10:11.023Z</time></trkpt><trkpt lat="42.0214559" lon="12.1480096"><ele>146.66666666666666</ele><time>2026-04-11T18:10:12.022Z</time></trkpt><trkpt lat="42.0213594" lon="12.1478155"><ele>147.0</ele><time>2026-04-11T18:10:13.022Z</time></trkpt><trkpt lat="42.0212633" lon="12.1476063"><ele>147.0</ele><time>2026-04-11T18:10:14.022Z</time></trkpt><trkpt lat="42.0211602" lon="12.1474139"><ele>147.0</ele><time>2026-04-11T18:10:15.023Z</time></trkpt><trkpt lat="42.0210565" lon="12.1472356"><ele>147.0</ele><time>2026-04-11T18:10:16.023Z</time></trkpt><trkpt lat="42.0209523" lon="12.1470635"><ele>146.66666666666666</ele><time>2026-04-11T18:10:17.023Z</time></trkpt><trkpt lat="42.0208486" lon="12.1468838"><ele>146.33333333333331</ele><time>2026-04-11T18:10:18.022Z</time></trkpt><trkpt lat="42.0207417" lon="12.1466911"><ele>146.0</ele><time>2026-04-11T18:10:19.022Z</time></trkpt><trkpt lat="42.0206487" lon="12.1464907"><ele>145.66666666666666</ele><time>2026-04-11T18:10:20.022Z</time></trkpt><trkpt lat="42.0205619" lon="12.1462824"><ele>145.33333333333334</ele><time>2026-04-11T18:10:21.022Z</time></trkpt><trkpt lat="42.0204845" lon="12.1460533"><ele>145.0</ele><time>2026-04-11T18:10:22.023Z</time></trkpt><trkpt lat="42.0204112" lon="12.1458295"><ele>146.66666666666669</ele><time>2026-04-11T18:10:23.022Z</time></trkpt><trkpt lat="42.0203448" lon="12.1456028"><ele>148.33333333333334</ele><time>2026-04-11T18:10:24.023Z</time></trkpt><trkpt lat="42.0202844" lon="12.145379"><ele>150.0</ele><time>2026-04-11T18:10:25.022Z</time></trkpt><trkpt lat="42.020224" lon="12.1451504"><ele>150.0</ele><time>2026-04-11T18:10:26.022Z</time></trkpt><trkpt lat="42.0201685" lon="12.1449185"><ele>150.0</ele><time>2026-04-11T18:10:27.023Z</time></trkpt><trkpt lat="42.020114" lon="12.1446902"><ele>150.0</ele><time>2026-04-11T18:10:28.023Z</time></trkpt><trkpt lat="42.0200602" lon="12.1444619"><ele>150.33333333333334</ele><time>2026-04-11T18:10:29.023Z</time></trkpt><trkpt lat="42.0200028" lon="12.1442207"><ele>150.66666666666669</ele><time>2026-04-11T18:10:30.022Z</time></trkpt><trkpt lat="42.0199422" lon="12.1439775"><ele>151.0</ele><time>2026-04-11T18:10:31.023Z</time></trkpt><trkpt lat="42.0198801" lon="12.1437286"><ele>150.0</ele><time>2026-04-11T18:10:32.022Z</time></trkpt><trkpt lat="42.0198123" lon="12.1434763"><ele>149.0</ele><time>2026-04-11T18:10:33.022Z</time></trkpt><trkpt lat="42.0197426" lon="12.1432217"><ele>148.0</ele><time>2026-04-11T18:10:34.023Z</time></trkpt><trkpt lat="42.019672" lon="12.1429606"><ele>147.0</ele><time>2026-04-11T18:10:35.022Z</time></trkpt><trkpt lat="42.0196013" lon="12.1427112"><ele>146.0</ele><time>2026-04-11T18:10:36.023Z</time></trkpt><trkpt lat="42.0195197" lon="12.1424558"><ele>145.0</ele><time>2026-04-11T18:10:37.022Z</time></trkpt><trkpt lat="42.0194293" lon="12.1422025"><ele>144.66666666666669</ele><time>2026-04-11T18:10:38.023Z</time></trkpt><trkpt lat="42.0193383" lon="12.1419512"><ele>144.33333333333334</ele><time>2026-04-11T18:10:39.022Z</time></trkpt><trkpt lat="42.0192491" lon="12.1417031"><ele>144.0</ele><time>2026-04-11T18:10:40.023Z</time></trkpt><trkpt lat="42.0191555" lon="12.1414571"><ele>142.0</ele><time>2026-04-11T18:10:41.022Z</time></trkpt><trkpt lat="42.0190547" lon="12.1412142"><ele>140.0</ele><time>2026-04-11T18:10:42.022Z</time></trkpt><trkpt lat="42.018954" lon="12.1409666"><ele>138.0</ele><time>2026-04-11T18:10:43.023Z</time></trkpt><trkpt lat="42.0188464" lon="12.1407211"><ele>138.66666666666666</ele><time>2026-04-11T18:10:44.023Z</time></trkpt><trkpt lat="42.0187418" lon="12.1404791"><ele>139.33333333333331</ele><time>2026-04-11T18:10:45.023Z</time></trkpt><trkpt lat="42.0186325" lon="12.1402434"><ele>140.0</ele><time>2026-04-11T18:10:46.022Z</time></trkpt><trkpt lat="42.0185188" lon="12.1400224"><ele>141.0</ele><time>2026-04-11T18:10:47.022Z</time></trkpt><trkpt lat="42.0184052" lon="12.139809"><ele>142.0</ele><time>2026-04-11T18:10:48.022Z</time></trkpt><trkpt lat="42.0182923" lon="12.1396026"><ele>143.0</ele><time>2026-04-11T18:10:49.023Z</time></trkpt><trkpt lat="42.0181857" lon="12.1394063"><ele>143.0</ele><time>2026-04-11T18:10:50.023Z</time></trkpt><trkpt lat="42.0180931" lon="12.1392288"><ele>143.0</ele><time>2026-04-11T18:10:51.022Z</time></trkpt><trkpt lat="42.018011" lon="12.1390618"><ele>143.0</ele><time>2026-04-11T18:10:52.022Z</time></trkpt><trkpt lat="42.0179343" lon="12.1388988"><ele>144.0</ele><time>2026-04-11T18:10:53.022Z</time></trkpt><trkpt lat="42.0178614" lon="12.1387324"><ele>145.0</ele><time>2026-04-11T18:10:54.022Z</time></trkpt><trkpt lat="42.0177919" lon="12.1385506"><ele>146.0</ele><time>2026-04-11T18:10:55.023Z</time></trkpt><trkpt lat="42.017721" lon="12.1383593"><ele>145.0</ele><time>2026-04-11T18:10:56.023Z</time></trkpt><trkpt lat="42.0176595" lon="12.1381579"><ele>144.0</ele><time>2026-04-11T18:10:57.023Z</time></trkpt><trkpt lat="42.0176081" lon="12.1379501"><ele>143.0</ele><time>2026-04-11T18:10:58.022Z</time></trkpt><trkpt lat="42.0175639" lon="12.13774"><ele>143.0</ele><time>2026-04-11T18:10:59.022Z</time></trkpt><trkpt lat="42.0175079" lon="12.1375239"><ele>143.0</ele><time>2026-04-11T18:11:00.023Z</time></trkpt><trkpt lat="42.0174545" lon="12.1372896"><ele>143.0</ele><time>2026-04-11T18:11:01.023Z</time></trkpt><trkpt lat="42.0174062" lon="12.1370518"><ele>141.0</ele><time>2026-04-11T18:11:02.023Z</time></trkpt><trkpt lat="42.0173576" lon="12.1368118"><ele>139.0</ele><time>2026-04-11T18:11:03.022Z</time></trkpt><trkpt lat="42.0173095" lon="12.1365762"><ele>137.0</ele><time>2026-04-11T18:11:04.023Z</time></trkpt><trkpt lat="42.0172625" lon="12.1363384"><ele>135.33333333333331</ele><time>2026-04-11T18:11:05.022Z</time></trkpt><trkpt lat="42.017212" lon="12.1361027"><ele>133.66666666666666</ele><time>2026-04-11T18:11:06.023Z</time></trkpt><trkpt lat="42.0171597" lon="12.1358675"><ele>132.0</ele><time>2026-04-11T18:11:07.023Z</time></trkpt><trkpt lat="42.0171128" lon="12.1356345"><ele>132.0</ele><time>2026-04-11T18:11:08.023Z</time></trkpt><trkpt lat="42.0170624" lon="12.1353907"><ele>132.0</ele><time>2026-04-11T18:11:09.022Z</time></trkpt><trkpt lat="42.0170254" lon="12.1351366"><ele>132.0</ele><time>2026-04-11T18:11:10.022Z</time></trkpt><trkpt lat="42.0170362" lon="12.1349225"><ele>131.33333333333334</ele><time>2026-04-11T18:11:11.023Z</time></trkpt><trkpt lat="42.0169939" lon="12.1347023"><ele>130.66666666666669</ele><time>2026-04-11T18:11:12.023Z</time></trkpt><trkpt lat="42.0169152" lon="12.1345046"><ele>130.0</ele><time>2026-04-11T18:11:13.022Z</time></trkpt><trkpt lat="42.0168338" lon="12.1342951"><ele>130.0</ele><time>2026-04-11T18:11:14.022Z</time></trkpt><trkpt lat="42.0167492" lon="12.1340867"><ele>130.0</ele><time>2026-04-11T18:11:15.023Z</time></trkpt><trkpt lat="42.0166189" lon="12.1339251"><ele>130.0</ele><time>2026-04-11T18:11:16.023Z</time></trkpt><trkpt lat="42.0164909" lon="12.1337342"><ele>128.66666666666669</ele><time>2026-04-11T18:11:17.023Z</time></trkpt><trkpt lat="42.0163785" lon="12.1334889"><ele>127.33333333333334</ele><time>2026-04-11T18:11:18.022Z</time></trkpt><trkpt lat="42.0162614" lon="12.133272"><ele>126.0</ele><time>2026-04-11T18:11:19.023Z</time></trkpt><trkpt lat="42.0161547" lon="12.1330845"><ele>125.66666666666666</ele><time>2026-04-11T18:11:20.022Z</time></trkpt><trkpt lat="42.0160138" lon="12.132939"><ele>125.33333333333333</ele><time>2026-04-11T18:11:21.023Z</time></trkpt><trkpt lat="42.0158569" lon="12.1327747"><ele>125.0</ele><time>2026-04-11T18:11:22.022Z</time></trkpt><trkpt lat="42.0157117" lon="12.1326027"><ele>125.33333333333333</ele><time>2026-04-11T18:11:23.023Z</time></trkpt><trkpt lat="42.015572" lon="12.1324137"><ele>125.66666666666666</ele><time>2026-04-11T18:11:24.023Z</time></trkpt><trkpt lat="42.0154189" lon="12.1322531"><ele>126.0</ele><time>2026-04-11T18:11:25.022Z</time></trkpt><trkpt lat="42.0152707" lon="12.1320872"><ele>126.0</ele><time>2026-04-11T18:11:26.023Z</time></trkpt><trkpt lat="42.0151238" lon="12.1319148"><ele>126.0</ele><time>2026-04-11T18:11:27.022Z</time></trkpt><trkpt lat="42.0149803" lon="12.131737"><ele>126.0</ele><time>2026-04-11T18:11:28.022Z</time></trkpt><trkpt lat="42.014838" lon="12.1315608"><ele>125.33333333333334</ele><time>2026-04-11T18:11:29.022Z</time></trkpt><trkpt lat="42.0146958" lon="12.1313869"><ele>124.66666666666667</ele><time>2026-04-11T18:11:30.022Z</time></trkpt><trkpt lat="42.0145516" lon="12.131214"><ele>124.0</ele><time>2026-04-11T18:11:31.023Z</time></trkpt><trkpt lat="42.0144013" lon="12.1310226"><ele>124.0</ele><time>2026-04-11T18:11:32.023Z</time></trkpt><trkpt lat="42.0142619" lon="12.1308749"><ele>124.0</ele><time>2026-04-11T18:11:33.022Z</time></trkpt><trkpt lat="42.0141288" lon="12.1307221"><ele>124.0</ele><time>2026-04-11T18:11:34.022Z</time></trkpt><trkpt lat="42.0140064" lon="12.1305304"><ele>122.33333333333334</ele><time>2026-04-11T18:11:35.023Z</time></trkpt><trkpt lat="42.0138845" lon="12.130371"><ele>120.66666666666666</ele><time>2026-04-11T18:11:36.023Z</time></trkpt><trkpt lat="42.0137436" lon="12.1302671"><ele>119.0</ele><time>2026-04-11T18:11:37.022Z</time></trkpt><trkpt lat="42.0135641" lon="12.1301498"><ele>119.0</ele><time>2026-04-11T18:11:38.023Z</time></trkpt><trkpt lat="42.0133947" lon="12.1300169"><ele>119.0</ele><time>2026-04-11T18:11:39.023Z</time></trkpt><trkpt lat="42.0132034" lon="12.1298986"><ele>119.0</ele><time>2026-04-11T18:11:40.023Z</time></trkpt><trkpt lat="42.0130183" lon="12.1298104"><ele>119.33333333333333</ele><time>2026-04-11T18:11:41.023Z</time></trkpt><trkpt lat="42.0128817" lon="12.1297013"><ele>119.66666666666666</ele><time>2026-04-11T18:11:42.023Z</time></trkpt><trkpt lat="42.0127237" lon="12.1295953"><ele>120.0</ele><time>2026-04-11T18:11:43.022Z</time></trkpt><trkpt lat="42.0125585" lon="12.1294753"><ele>118.33333333333334</ele><time>2026-04-11T18:11:44.023Z</time></trkpt><trkpt lat="42.0123781" lon="12.1294201"><ele>116.66666666666667</ele><time>2026-04-11T18:11:45.023Z</time></trkpt><trkpt lat="42.0122117" lon="12.1293173"><ele>115.0</ele><time>2026-04-11T18:11:46.023Z</time></trkpt><trkpt lat="42.012042" lon="12.1291825"><ele>114.33333333333334</ele><time>2026-04-11T18:11:47.022Z</time></trkpt><trkpt lat="42.0118589" lon="12.1290477"><ele>113.66666666666666</ele><time>2026-04-11T18:11:48.022Z</time></trkpt><trkpt lat="42.0116601" lon="12.1288994"><ele>113.0</ele><time>2026-04-11T18:11:49.023Z</time></trkpt><trkpt lat="42.0114766" lon="12.1287676"><ele>113.0</ele><time>2026-04-11T18:11:50.023Z</time></trkpt><trkpt lat="42.0112984" lon="12.1286219"><ele>113.0</ele><time>2026-04-11T18:11:51.022Z</time></trkpt><trkpt lat="42.0110988" lon="12.1284783"><ele>113.0</ele><time>2026-04-11T18:11:52.023Z</time></trkpt><trkpt lat="42.0108844" lon="12.1283754"><ele>112.33333333333333</ele><time>2026-04-11T18:11:53.022Z</time></trkpt><trkpt lat="42.0106679" lon="12.1282929"><ele>111.66666666666666</ele><time>2026-04-11T18:11:54.023Z</time></trkpt><trkpt lat="42.0104873" lon="12.128178"><ele>111.0</ele><time>2026-04-11T18:11:55.022Z</time></trkpt><trkpt lat="42.0103434" lon="12.1279656"><ele>110.5</ele><time>2026-04-11T18:11:56.022Z</time></trkpt><trkpt lat="42.0101805" lon="12.1277031"><ele>110.0</ele><time>2026-04-11T18:11:57.023Z</time></trkpt><trkpt lat="42.0100393" lon="12.1274728"><ele>109.66666666666666</ele><time>2026-04-11T18:11:58.023Z</time></trkpt><trkpt lat="42.0098978" lon="12.1272402"><ele>109.33333333333334</ele><time>2026-04-11T18:11:59.022Z</time></trkpt><trkpt lat="42.0097609" lon="12.1271038"><ele>109.0</ele><time>2026-04-11T18:12:00.023Z</time></trkpt><trkpt lat="42.0096258" lon="12.126955"><ele>109.0</ele><time>2026-04-11T18:12:01.023Z</time></trkpt><trkpt lat="42.0094987" lon="12.1268256"><ele>109.0</ele><time>2026-04-11T18:12:02.023Z</time></trkpt><trkpt lat="42.0093044" lon="12.1266951"><ele>109.0</ele><time>2026-04-11T18:12:03.022Z</time></trkpt><trkpt lat="42.009093" lon="12.1265284"><ele>107.5</ele><time>2026-04-11T18:12:04.022Z</time></trkpt><trkpt lat="42.0088684" lon="12.1263404"><ele>106.0</ele><time>2026-04-11T18:12:05.023Z</time></trkpt><trkpt lat="42.0086931" lon="12.1261489"><ele>106.0</ele><time>2026-04-11T18:12:06.023Z</time></trkpt><trkpt lat="42.0085143" lon="12.1260126"><ele>106.0</ele><time>2026-04-11T18:12:07.022Z</time></trkpt><trkpt lat="42.0083481" lon="12.1259002"><ele>106.0</ele><time>2026-04-11T18:12:08.022Z</time></trkpt><trkpt lat="42.0081826" lon="12.1257506"><ele>106.33333333333334</ele><time>2026-04-11T18:12:09.023Z</time></trkpt><trkpt lat="42.0080283" lon="12.1255962"><ele>106.66666666666666</ele><time>2026-04-11T18:12:10.023Z</time></trkpt><trkpt lat="42.0078749" lon="12.1254597"><ele>107.0</ele><time>2026-04-11T18:12:11.023Z</time></trkpt><trkpt lat="42.0077248" lon="12.1253131"><ele>107.0</ele><time>2026-04-11T18:12:12.023Z</time></trkpt><trkpt lat="42.0075987" lon="12.1252151"><ele>107.0</ele><time>2026-04-11T18:12:13.023Z</time></trkpt><trkpt lat="42.0075027" lon="12.1251136"><ele>107.0</ele><time>2026-04-11T18:12:14.022Z</time></trkpt><trkpt lat="42.0073694" lon="12.1249818"><ele>107.0</ele><time>2026-04-11T18:12:15.023Z</time></trkpt><trkpt lat="42.0072233" lon="12.1248668"><ele>106.75</ele><time>2026-04-11T18:12:16.023Z</time></trkpt><trkpt lat="42.0071126" lon="12.1248022"><ele>106.5</ele><time>2026-04-11T18:12:17.022Z</time></trkpt><trkpt lat="42.0070264" lon="12.124727"><ele>106.25</ele><time>2026-04-11T18:12:18.022Z</time></trkpt><trkpt lat="42.006897" lon="12.1246519"><ele>106.0</ele><time>2026-04-11T18:12:19.023Z</time></trkpt><trkpt lat="42.0067212" lon="12.1245203"><ele>103.33333333333334</ele><time>2026-04-11T18:12:20.022Z</time></trkpt><trkpt lat="42.0065661" lon="12.1243924"><ele>100.66666666666666</ele><time>2026-04-11T18:12:21.022Z</time></trkpt><trkpt lat="42.0064173" lon="12.1242631"><ele>98.0</ele><time>2026-04-11T18:12:22.022Z</time></trkpt><trkpt lat="42.0062864" lon="12.1241673"><ele>98.0</ele><time>2026-04-11T18:12:23.022Z</time></trkpt><trkpt lat="42.0061217" lon="12.1240665"><ele>98.0</ele><time>2026-04-11T18:12:24.022Z</time></trkpt><trkpt lat="42.0060179" lon="12.1240138"><ele>98.0</ele><time>2026-04-11T18:12:25.022Z</time></trkpt><trkpt lat="42.005924" lon="12.1239566"><ele>98.0</ele><time>2026-04-11T18:12:26.022Z</time></trkpt><trkpt lat="42.0058541" lon="12.1239028"><ele>98.0</ele><time>2026-04-11T18:12:27.022Z</time></trkpt><trkpt lat="42.0057655" lon="12.1238753"><ele>98.0</ele><time>2026-04-11T18:12:29.022Z</time></trkpt><trkpt lat="42.0056495" lon="12.1238368"><ele>98.0</ele><time>2026-04-11T18:12:31.022Z</time></trkpt><trkpt lat="42.005719" lon="12.1238851"><ele>98.0</ele><time>2026-04-11T18:12:34.022Z</time></trkpt><trkpt lat="42.0057706" lon="12.1240391"><ele>98.0</ele><time>2026-04-11T18:12:35.022Z</time></trkpt><trkpt lat="42.0057593" lon="12.1241549"><ele>98.0</ele><time>2026-04-11T18:12:36.022Z</time></trkpt><trkpt lat="42.0057634" lon="12.1243012"><ele>98.0</ele><time>2026-04-11T18:12:38.022Z</time></trkpt><trkpt lat="42.0057505" lon="12.1244394"><ele>98.0</ele><time>2026-04-11T18:12:40.022Z</time></trkpt><trkpt lat="42.0057608" lon="12.1245742"><ele>98.0</ele><time>2026-04-11T18:12:42.023Z</time></trkpt><trkpt lat="42.0057686" lon="12.1246789"><ele>98.0</ele><time>2026-04-11T18:12:45.023Z</time></trkpt><trkpt lat="42.005716" lon="12.1247874"><ele>99.25</ele><time>2026-04-11T18:12:46.023Z</time></trkpt><trkpt lat="42.0056311" lon="12.1249608"><ele>100.5</ele><time>2026-04-11T18:12:47.023Z</time></trkpt><trkpt lat="42.0055658" lon="12.1251162"><ele>101.75</ele><time>2026-04-11T18:12:48.023Z</time></trkpt><trkpt lat="42.0055461" lon="12.1252615"><ele>103.0</ele><time>2026-04-11T18:12:49.023Z</time></trkpt><trkpt lat="42.0055278" lon="12.1253592"><ele>103.00000000000001</ele><time>2026-04-11T18:12:50.022Z</time></trkpt><trkpt lat="42.0055038" lon="12.1254499"><ele>103.0</ele><time>2026-04-11T18:12:51.023Z</time></trkpt><trkpt lat="42.0054715" lon="12.1255273"><ele>103.0</ele><time>2026-04-11T18:12:52.023Z</time></trkpt><trkpt lat="42.0054354" lon="12.125611"><ele>103.0</ele><time>2026-04-11T18:12:53.022Z</time></trkpt><trkpt lat="42.0053801" lon="12.1257538"><ele>103.00000000000001</ele><time>2026-04-11T18:12:55.023Z</time></trkpt><trkpt lat="42.0053461" lon="12.1258386"><ele>103.0</ele><time>2026-04-11T18:12:56.022Z</time></trkpt><trkpt lat="42.0053049" lon="12.1259875"><ele>103.0</ele><time>2026-04-11T18:12:58.023Z</time></trkpt><trkpt lat="42.0052822" lon="12.1261297"><ele>103.0</ele><time>2026-04-11T18:13:00.022Z</time></trkpt><trkpt lat="42.0052655" lon="12.1262782"><ele>103.0</ele><time>2026-04-11T18:13:02.023Z</time></trkpt><trkpt lat="42.0052609" lon="12.1264114"><ele>103.0</ele><time>2026-04-11T18:13:04.023Z</time></trkpt><trkpt lat="42.0052489" lon="12.1265726"><ele>103.0</ele><time>2026-04-11T18:13:06.022Z</time></trkpt><trkpt lat="42.0052445" lon="12.1266587"><ele>102.99999999999999</ele><time>2026-04-11T18:13:07.022Z</time></trkpt><trkpt lat="42.0052419" lon="12.1267509"><ele>103.0</ele><time>2026-04-11T18:13:08.023Z</time></trkpt><trkpt lat="42.0052385" lon="12.1268402"><ele>103.0</ele><time>2026-04-11T18:13:09.022Z</time></trkpt><trkpt lat="42.0052383" lon="12.12693"><ele>103.0</ele><time>2026-04-11T18:13:10.023Z</time></trkpt><trkpt lat="42.0052353" lon="12.1270304"><ele>103.0</ele><time>2026-04-11T18:13:11.022Z</time></trkpt><trkpt lat="42.0052357" lon="12.1271329"><ele>102.99999999999999</ele><time>2026-04-11T18:13:12.023Z</time></trkpt><trkpt lat="42.0052369" lon="12.1272455"><ele>103.0</ele><time>2026-04-11T18:13:13.022Z</time></trkpt><trkpt lat="42.0052327" lon="12.1273559"><ele>103.33333333333334</ele><time>2026-04-11T18:13:14.023Z</time></trkpt><trkpt lat="42.0052317" lon="12.1274722"><ele>103.66666666666667</ele><time>2026-04-11T18:13:15.023Z</time></trkpt><trkpt lat="42.0052302" lon="12.1275835"><ele>104.0</ele><time>2026-04-11T18:13:16.022Z</time></trkpt><trkpt lat="42.0052221" lon="12.1276945"><ele>104.33333333333334</ele><time>2026-04-11T18:13:17.022Z</time></trkpt><trkpt lat="42.0052114" lon="12.1278031"><ele>104.66666666666667</ele><time>2026-04-11T18:13:18.022Z</time></trkpt><trkpt lat="42.0052052" lon="12.1279109"><ele>105.0</ele><time>2026-04-11T18:13:19.022Z</time></trkpt><trkpt lat="42.0052014" lon="12.1280265"><ele>105.0</ele><time>2026-04-11T18:13:20.023Z</time></trkpt><trkpt lat="42.0052004" lon="12.1281299"><ele>105.0</ele><time>2026-04-11T18:13:21.022Z</time></trkpt><trkpt lat="42.005198" lon="12.1282349"><ele>105.0</ele><time>2026-04-11T18:13:22.022Z</time></trkpt><trkpt lat="42.0051914" lon="12.12833"><ele>105.0</ele><time>2026-04-11T18:13:23.023Z</time></trkpt><trkpt lat="42.0051857" lon="12.1284194"><ele>105.0</ele><time>2026-04-11T18:13:24.023Z</time></trkpt><trkpt lat="42.0051748" lon="12.1285769"><ele>105.0</ele><time>2026-04-11T18:13:26.023Z</time></trkpt><trkpt lat="42.0051566" lon="12.128742"><ele>105.0</ele><time>2026-04-11T18:13:28.023Z</time></trkpt><trkpt lat="42.005147" lon="12.128827"><ele>105.0</ele><time>2026-04-11T18:13:29.022Z</time></trkpt><trkpt lat="42.005139" lon="12.1289876"><ele>105.0</ele><time>2026-04-11T18:13:31.022Z</time></trkpt><trkpt lat="42.0051276" lon="12.1291477"><ele>105.0</ele><time>2026-04-11T18:13:33.022Z</time></trkpt><trkpt lat="42.0051117" lon="12.1293138"><ele>105.0</ele><time>2026-04-11T18:13:35.023Z</time></trkpt><trkpt lat="42.0050999" lon="12.1294731"><ele>105.83333333333333</ele><time>2026-04-11T18:13:37.023Z</time></trkpt><trkpt lat="42.005096" lon="12.1296311"><ele>106.66666666666666</ele><time>2026-04-11T18:13:39.023Z</time></trkpt><trkpt lat="42.005096" lon="12.1297177"><ele>107.5</ele><time>2026-04-11T18:13:40.023Z</time></trkpt><trkpt lat="42.0050924" lon="12.1298127"><ele>108.33333333333333</ele><time>2026-04-11T18:13:41.022Z</time></trkpt><trkpt lat="42.0050887" lon="12.1299166"><ele>109.16666666666666</ele><time>2026-04-11T18:13:42.023Z</time></trkpt><trkpt lat="42.0050873" lon="12.1300173"><ele>110.0</ele><time>2026-04-11T18:13:43.023Z</time></trkpt><trkpt lat="42.0050679" lon="12.1301291"><ele>110.83333333333333</ele><time>2026-04-11T18:13:44.023Z</time></trkpt><trkpt lat="42.005042" lon="12.1302218"><ele>111.66666666666666</ele><time>2026-04-11T18:13:45.022Z</time></trkpt><trkpt lat="42.0050402" lon="12.1303085"><ele>112.5</ele><time>2026-04-11T18:13:46.022Z</time></trkpt><trkpt lat="42.0050464" lon="12.1303976"><ele>113.33333333333334</ele><time>2026-04-11T18:13:47.022Z</time></trkpt><trkpt lat="42.0050355" lon="12.1305606"><ele>114.16666666666667</ele><time>2026-04-11T18:13:49.022Z</time></trkpt><trkpt lat="42.0050252" lon="12.1307055"><ele>115.0</ele><time>2026-04-11T18:13:51.022Z</time></trkpt><trkpt lat="42.0050109" lon="12.1307985"><ele>114.83333333333334</ele><time>2026-04-11T18:13:53.022Z</time></trkpt><trkpt lat="42.0049217" lon="12.1308017"><ele>114.66666666666667</ele><time>2026-04-11T18:13:57.022Z</time></trkpt><trkpt lat="42.004825" lon="12.1307168"><ele>114.5</ele><time>2026-04-11T18:13:59.023Z</time></trkpt><trkpt lat="42.0047631" lon="12.1306652"><ele>114.33333333333334</ele><time>2026-04-11T18:14:00.023Z</time></trkpt><trkpt lat="42.0047111" lon="12.130611"><ele>114.16666666666667</ele><time>2026-04-11T18:14:01.022Z</time></trkpt><trkpt lat="42.0046596" lon="12.1305565"><ele>114.0</ele><time>2026-04-11T18:14:02.022Z</time></trkpt><trkpt lat="42.0046083" lon="12.1304964"><ele>114.0</ele><time>2026-04-11T18:14:03.022Z</time></trkpt><trkpt lat="42.0045537" lon="12.1304223"><ele>113.99999999999999</ele><time>2026-04-11T18:14:04.023Z</time></trkpt><trkpt lat="42.0045039" lon="12.1303634"><ele>114.0</ele><time>2026-04-11T18:14:05.022Z</time></trkpt><trkpt lat="42.0044527" lon="12.130298"><ele>114.0</ele><time>2026-04-11T18:14:06.022Z</time></trkpt><trkpt lat="42.0043958" lon="12.1302292"><ele>113.99999999999999</ele><time>2026-04-11T18:14:07.022Z</time></trkpt><trkpt lat="42.0043415" lon="12.1301602"><ele>114.0</ele><time>2026-04-11T18:14:08.022Z</time></trkpt><trkpt lat="42.0042924" lon="12.130088"><ele>114.0</ele><time>2026-04-11T18:14:09.023Z</time></trkpt><trkpt lat="42.0042403" lon="12.1300106"><ele>114.0</ele><time>2026-04-11T18:14:10.022Z</time></trkpt><trkpt lat="42.0041833" lon="12.1299464"><ele>114.0</ele><time>2026-04-11T18:14:11.022Z</time></trkpt><trkpt lat="42.0041342" lon="12.1298898"><ele>114.0</ele><time>2026-04-11T18:14:12.023Z</time></trkpt><trkpt lat="42.0040667" lon="12.1298093"><ele>114.0</ele><time>2026-04-11T18:14:14.023Z</time></trkpt><trkpt lat="42.0040146" lon="12.1297289"><ele>114.0</ele><time>2026-04-11T18:14:18.023Z</time></trkpt><trkpt lat="42.0039796" lon="12.1296467"><ele>114.0</ele><time>2026-04-11T18:14:20.022Z</time></trkpt><trkpt lat="42.0039283" lon="12.1295288"><ele>114.33333333333333</ele><time>2026-04-11T18:14:22.023Z</time></trkpt><trkpt lat="42.0038621" lon="12.1294136"><ele>114.66666666666666</ele><time>2026-04-11T18:14:24.022Z</time></trkpt><trkpt lat="42.0038081" lon="12.1293285"><ele>115.0</ele><time>2026-04-11T18:14:26.022Z</time></trkpt><trkpt lat="42.0037578" lon="12.1292367"><ele>115.33333333333333</ele><time>2026-04-11T18:14:28.023Z</time></trkpt><trkpt lat="42.0037115" lon="12.1291375"><ele>115.66666666666666</ele><time>2026-04-11T18:14:30.023Z</time></trkpt><trkpt lat="42.0036523" lon="12.1290536"><ele>116.0</ele><time>2026-04-11T18:14:32.023Z</time></trkpt><trkpt lat="42.0035979" lon="12.1289412"><ele>116.0</ele><time>2026-04-11T18:14:34.022Z</time></trkpt><trkpt lat="42.0035374" lon="12.1288005"><ele>116.0</ele><time>2026-04-11T18:14:36.023Z</time></trkpt><trkpt lat="42.0034719" lon="12.1286927"><ele>116.0</ele><time>2026-04-11T18:14:38.023Z</time></trkpt><trkpt lat="42.0033884" lon="12.1286032"><ele>116.0</ele><time>2026-04-11T18:14:40.023Z</time></trkpt><trkpt lat="42.003295" lon="12.1285307"><ele>116.0</ele><time>2026-04-11T18:14:42.022Z</time></trkpt><trkpt lat="42.0031878" lon="12.1284644"><ele>116.0</ele><time>2026-04-11T18:14:44.023Z</time></trkpt><trkpt lat="42.0031118" lon="12.1283948"><ele>116.0</ele><time>2026-04-11T18:14:46.023Z</time></trkpt><trkpt lat="42.0029988" lon="12.1283758"><ele>116.0</ele><time>2026-04-11T18:14:48.023Z</time></trkpt><trkpt lat="42.0029016" lon="12.1283133"><ele>116.0</ele><time>2026-04-11T18:14:50.023Z</time></trkpt><trkpt lat="42.0028149" lon="12.128214"><ele>116.0</ele><time>2026-04-11T18:14:52.023Z</time></trkpt><trkpt lat="42.0027092" lon="12.1281143"><ele>116.0</ele><time>2026-04-11T18:14:54.023Z</time></trkpt><trkpt lat="42.0026423" lon="12.1280537"><ele>116.0</ele><time>2026-04-11T18:14:55.023Z</time></trkpt><trkpt lat="42.0025926" lon="12.127996"><ele>116.0</ele><time>2026-04-11T18:14:56.023Z</time></trkpt><trkpt lat="42.0025129" lon="12.1278988"><ele>116.0</ele><time>2026-04-11T18:14:58.023Z</time></trkpt><trkpt lat="42.0024463" lon="12.1278013"><ele>116.0</ele><time>2026-04-11T18:15:00.022Z</time></trkpt><trkpt lat="42.0023689" lon="12.1276822"><ele>115.19999999999999</ele><time>2026-04-11T18:15:02.023Z</time></trkpt><trkpt lat="42.0022815" lon="12.1275556"><ele>114.39999999999999</ele><time>2026-04-11T18:15:04.022Z</time></trkpt><trkpt lat="42.0022445" lon="12.1274762"><ele>113.6</ele><time>2026-04-11T18:15:05.022Z</time></trkpt><trkpt lat="42.0022085" lon="12.1274017"><ele>112.8</ele><time>2026-04-11T18:15:06.023Z</time></trkpt><trkpt lat="42.00213" lon="12.1272906"><ele>112.0</ele><time>2026-04-11T18:15:08.023Z</time></trkpt><trkpt lat="42.0020698" lon="12.1272372"><ele>112.00000000000001</ele><time>2026-04-11T18:15:09.022Z</time></trkpt><trkpt lat="42.0020189" lon="12.1271853"><ele>112.0</ele><time>2026-04-11T18:15:10.022Z</time></trkpt><trkpt lat="42.0019708" lon="12.127123"><ele>112.0</ele><time>2026-04-11T18:15:11.023Z</time></trkpt><trkpt lat="42.0018774" lon="12.1270456"><ele>112.0</ele><time>2026-04-11T18:15:13.023Z</time></trkpt><trkpt lat="42.0018191" lon="12.1270113"><ele>112.00000000000001</ele><time>2026-04-11T18:15:14.022Z</time></trkpt><trkpt lat="42.0017531" lon="12.126972"><ele>112.0</ele><time>2026-04-11T18:15:15.022Z</time></trkpt><trkpt lat="42.0016887" lon="12.1269222"><ele>111.50000000000001</ele><time>2026-04-11T18:15:16.023Z</time></trkpt><trkpt lat="42.0016205" lon="12.1268593"><ele>111.0</ele><time>2026-04-11T18:15:17.023Z</time></trkpt><trkpt lat="42.001551" lon="12.1268118"><ele>110.5</ele><time>2026-04-11T18:15:18.023Z</time></trkpt><trkpt lat="42.0014821" lon="12.1267643"><ele>110.0</ele><time>2026-04-11T18:15:19.022Z</time></trkpt><trkpt lat="42.0014083" lon="12.1267175"><ele>109.50000000000001</ele><time>2026-04-11T18:15:20.023Z</time></trkpt><trkpt lat="42.0013343" lon="12.126666"><ele>109.0</ele><time>2026-04-11T18:15:21.023Z</time></trkpt><trkpt lat="42.001261" lon="12.1266228"><ele>109.00000000000001</ele><time>2026-04-11T18:15:22.022Z</time></trkpt><trkpt lat="42.0011828" lon="12.1265858"><ele>109.0</ele><time>2026-04-11T18:15:23.023Z</time></trkpt><trkpt lat="42.0010991" lon="12.1265555"><ele>109.0</ele><time>2026-04-11T18:15:24.023Z</time></trkpt><trkpt lat="42.0010204" lon="12.1265257"><ele>109.0</ele><time>2026-04-11T18:15:25.023Z</time></trkpt><trkpt lat="42.0009479" lon="12.1265054"><ele>109.00000000000001</ele><time>2026-04-11T18:15:26.023Z</time></trkpt><trkpt lat="42.0008806" lon="12.1264934"><ele>109.0</ele><time>2026-04-11T18:15:27.023Z</time></trkpt><trkpt lat="42.0008139" lon="12.1265013"><ele>108.66666666666667</ele><time>2026-04-11T18:15:29.022Z</time></trkpt><trkpt lat="42.0007513" lon="12.1264659"><ele>108.33333333333334</ele><time>2026-04-11T18:15:32.022Z</time></trkpt><trkpt lat="42.000655" lon="12.1264234"><ele>108.0</ele><time>2026-04-11T18:15:34.023Z</time></trkpt><trkpt lat="42.0005479" lon="12.1263759"><ele>107.66666666666666</ele><time>2026-04-11T18:15:36.022Z</time></trkpt><trkpt lat="42.0004797" lon="12.1263416"><ele>107.33333333333333</ele><time>2026-04-11T18:15:37.023Z</time></trkpt><trkpt lat="42.0004134" lon="12.1263105"><ele>107.0</ele><time>2026-04-11T18:15:38.023Z</time></trkpt><trkpt lat="42.0003477" lon="12.1262893"><ele>106.99999999999999</ele><time>2026-04-11T18:15:39.023Z</time></trkpt><trkpt lat="42.0002328" lon="12.126262"><ele>107.0</ele><time>2026-04-11T18:15:41.022Z</time></trkpt><trkpt lat="42.0001132" lon="12.1262162"><ele>107.0</ele><time>2026-04-11T18:15:43.023Z</time></trkpt><trkpt lat="42.0000545" lon="12.1261841"><ele>107.0</ele><time>2026-04-11T18:15:44.022Z</time></trkpt><trkpt lat="41.9999942" lon="12.1261562"><ele>106.99999999999999</ele><time>2026-04-11T18:15:45.022Z</time></trkpt><trkpt lat="41.9999314" lon="12.1261397"><ele>107.0</ele><time>2026-04-11T18:15:46.023Z</time></trkpt><trkpt lat="41.9998683" lon="12.1261266"><ele>107.00000000000001</ele><time>2026-04-11T18:15:47.023Z</time></trkpt><trkpt lat="41.9998025" lon="12.1261095"><ele>107.0</ele><time>2026-04-11T18:15:48.023Z</time></trkpt><trkpt lat="41.9997376" lon="12.1260831"><ele>107.0</ele><time>2026-04-11T18:15:49.022Z</time></trkpt><trkpt lat="41.9996693" lon="12.1260576"><ele>107.0</ele><time>2026-04-11T18:15:50.023Z</time></trkpt><trkpt lat="41.9995973" lon="12.1260324"><ele>107.0</ele><time>2026-04-11T18:15:51.023Z</time></trkpt><trkpt lat="41.9995187" lon="12.1260059"><ele>107.00000000000001</ele><time>2026-04-11T18:15:52.022Z</time></trkpt><trkpt lat="41.9994468" lon="12.1259922"><ele>107.0</ele><time>2026-04-11T18:15:53.022Z</time></trkpt><trkpt lat="41.9993753" lon="12.1259673"><ele>107.0</ele><time>2026-04-11T18:15:54.023Z</time></trkpt><trkpt lat="41.9993117" lon="12.1259463"><ele>106.99999999999999</ele><time>2026-04-11T18:15:55.022Z</time></trkpt><trkpt lat="41.9991898" lon="12.1259108"><ele>106.99999999999999</ele><time>2026-04-11T18:15:57.023Z</time></trkpt><trkpt lat="41.9990856" lon="12.125879"><ele>107.0</ele><time>2026-04-11T18:15:59.023Z</time></trkpt><trkpt lat="41.99897" lon="12.1258472"><ele>107.0</ele><time>2026-04-11T18:16:01.023Z</time></trkpt><trkpt lat="41.9989" lon="12.1258312"><ele>106.66666666666666</ele><time>2026-04-11T18:16:02.023Z</time></trkpt><trkpt lat="41.9988261" lon="12.1258044"><ele>106.33333333333333</ele><time>2026-04-11T18:16:03.023Z</time></trkpt><trkpt lat="41.9987507" lon="12.125779"><ele>106.0</ele><time>2026-04-11T18:16:04.022Z</time></trkpt><trkpt lat="41.9986802" lon="12.1257574"><ele>105.66666666666666</ele><time>2026-04-11T18:16:05.023Z</time></trkpt><trkpt lat="41.9986136" lon="12.1257378"><ele>105.33333333333333</ele><time>2026-04-11T18:16:06.022Z</time></trkpt><trkpt lat="41.998531" lon="12.1256509"><ele>105.0</ele><time>2026-04-11T18:16:08.022Z</time></trkpt><trkpt lat="41.9985248" lon="12.1255227"><ele>105.8</ele><time>2026-04-11T18:16:10.023Z</time></trkpt><trkpt lat="41.9985544" lon="12.1253705"><ele>106.6</ele><time>2026-04-11T18:16:12.023Z</time></trkpt><trkpt lat="41.9985794" lon="12.125288"><ele>107.4</ele><time>2026-04-11T18:16:13.022Z</time></trkpt><trkpt lat="41.9986125" lon="12.12513"><ele>108.2</ele><time>2026-04-11T18:16:15.023Z</time></trkpt><trkpt lat="41.9985847" lon="12.1249896"><ele>109.0</ele><time>2026-04-11T18:16:17.023Z</time></trkpt><trkpt lat="41.9984955" lon="12.1248946"><ele>109.14285714285714</ele><time>2026-04-11T18:16:19.023Z</time></trkpt><trkpt lat="41.9984386" lon="12.1248492"><ele>109.28571428571429</ele><time>2026-04-11T18:16:20.023Z</time></trkpt><trkpt lat="41.9983814" lon="12.1248021"><ele>109.42857142857142</ele><time>2026-04-11T18:16:21.022Z</time></trkpt><trkpt lat="41.9983141" lon="12.1247523"><ele>109.57142857142857</ele><time>2026-04-11T18:16:22.023Z</time></trkpt><trkpt lat="41.9982612" lon="12.124704"><ele>109.71428571428571</ele><time>2026-04-11T18:16:23.022Z</time></trkpt><trkpt lat="41.9982123" lon="12.1246457"><ele>109.85714285714285</ele><time>2026-04-11T18:16:24.022Z</time></trkpt><trkpt lat="41.9981676" lon="12.1245806"><ele>110.0</ele><time>2026-04-11T18:16:25.022Z</time></trkpt><trkpt lat="41.99813" lon="12.1245093"><ele>109.0</ele><time>2026-04-11T18:16:26.022Z</time></trkpt><trkpt lat="41.9980566" lon="12.1243535"><ele>108.0</ele><time>2026-04-11T18:16:28.023Z</time></trkpt><trkpt lat="41.9980423" lon="12.124182"><ele>107.0</ele><time>2026-04-11T18:16:30.023Z</time></trkpt><trkpt lat="41.9980467" lon="12.1240659"><ele>106.0</ele><time>2026-04-11T18:16:31.022Z</time></trkpt><trkpt lat="41.9980784" lon="12.1239526"><ele>105.0</ele><time>2026-04-11T18:16:32.023Z</time></trkpt><trkpt lat="41.9981058" lon="12.1238513"><ele>104.6</ele><time>2026-04-11T18:16:33.022Z</time></trkpt><trkpt lat="41.9981405" lon="12.1237655"><ele>104.2</ele><time>2026-04-11T18:16:34.023Z</time></trkpt><trkpt lat="41.9981998" lon="12.1236247"><ele>103.80000000000001</ele><time>2026-04-11T18:16:36.022Z</time></trkpt><trkpt lat="41.9982591" lon="12.1234636"><ele>103.4</ele><time>2026-04-11T18:16:38.022Z</time></trkpt><trkpt lat="41.998274" lon="12.1233608"><ele>103.0</ele><time>2026-04-11T18:16:39.023Z</time></trkpt><trkpt lat="41.9982775" lon="12.1232608"><ele>102.66666666666667</ele><time>2026-04-11T18:16:40.023Z</time></trkpt><trkpt lat="41.9982686" lon="12.1231585"><ele>102.33333333333334</ele><time>2026-04-11T18:16:41.023Z</time></trkpt><trkpt lat="41.9982443" lon="12.1230446"><ele>102.0</ele><time>2026-04-11T18:16:42.023Z</time></trkpt><trkpt lat="41.9982162" lon="12.1229472"><ele>101.66666666666666</ele><time>2026-04-11T18:16:43.023Z</time></trkpt><trkpt lat="41.9981802" lon="12.1228366"><ele>101.33333333333333</ele><time>2026-04-11T18:16:44.023Z</time></trkpt><trkpt lat="41.9981611" lon="12.1227458"><ele>101.0</ele><time>2026-04-11T18:16:45.022Z</time></trkpt><trkpt lat="41.9981277" lon="12.1226725"><ele>100.99999999999999</ele><time>2026-04-11T18:16:46.023Z</time></trkpt><trkpt lat="41.9980574" lon="12.1225782"><ele>101.0</ele><time>2026-04-11T18:16:48.022Z</time></trkpt><trkpt lat="41.9979989" lon="12.1225331"><ele>101.0</ele><time>2026-04-11T18:16:49.023Z</time></trkpt><trkpt lat="41.9979116" lon="12.122443"><ele>101.0</ele><time>2026-04-11T18:16:51.022Z</time></trkpt><trkpt lat="41.9978507" lon="12.1224053"><ele>100.99999999999999</ele><time>2026-04-11T18:16:52.023Z</time></trkpt><trkpt lat="41.9977838" lon="12.1223608"><ele>101.0</ele><time>2026-04-11T18:16:53.022Z</time></trkpt><trkpt lat="41.9977176" lon="12.1222984"><ele>101.49999999999999</ele><time>2026-04-11T18:16:54.023Z</time></trkpt><trkpt lat="41.9976506" lon="12.1222467"><ele>102.0</ele><time>2026-04-11T18:16:55.022Z</time></trkpt><trkpt lat="41.9975836" lon="12.1221906"><ele>102.5</ele><time>2026-04-11T18:16:56.022Z</time></trkpt><trkpt lat="41.9975136" lon="12.1221308"><ele>103.0</ele><time>2026-04-11T18:16:57.023Z</time></trkpt><trkpt lat="41.9974417" lon="12.1220671"><ele>103.49999999999999</ele><time>2026-04-11T18:16:58.022Z</time></trkpt><trkpt lat="41.9973691" lon="12.121996"><ele>104.0</ele><time>2026-04-11T18:16:59.022Z</time></trkpt><trkpt lat="41.9972988" lon="12.1219369"><ele>104.0</ele><time>2026-04-11T18:17:00.023Z</time></trkpt><trkpt lat="41.9972366" lon="12.1218877"><ele>104.0</ele><time>2026-04-11T18:17:01.022Z</time></trkpt><trkpt lat="41.9971774" lon="12.1218356"><ele>104.0</ele><time>2026-04-11T18:17:02.023Z</time></trkpt><trkpt lat="41.9971221" lon="12.1217903"><ele>104.0</ele><time>2026-04-11T18:17:03.022Z</time></trkpt><trkpt lat="41.9970141" lon="12.1217027"><ele>104.0</ele><time>2026-04-11T18:17:05.022Z</time></trkpt><trkpt lat="41.9969" lon="12.1216282"><ele>104.6</ele><time>2026-04-11T18:17:07.023Z</time></trkpt><trkpt lat="41.9967871" lon="12.1215412"><ele>105.2</ele><time>2026-04-11T18:17:09.023Z</time></trkpt><trkpt lat="41.9967192" lon="12.1214921"><ele>105.79999999999998</ele><time>2026-04-11T18:17:10.022Z</time></trkpt><trkpt lat="41.9966416" lon="12.1214292"><ele>106.39999999999999</ele><time>2026-04-11T18:17:11.022Z</time></trkpt><trkpt lat="41.9965661" lon="12.1213504"><ele>107.0</ele><time>2026-04-11T18:17:12.022Z</time></trkpt><trkpt lat="41.9964953" lon="12.1212702"><ele>106.99999999999999</ele><time>2026-04-11T18:17:13.023Z</time></trkpt><trkpt lat="41.9964199" lon="12.1212101"><ele>107.0</ele><time>2026-04-11T18:17:14.023Z</time></trkpt><trkpt lat="41.9963575" lon="12.1211566"><ele>107.0</ele><time>2026-04-11T18:17:15.023Z</time></trkpt><trkpt lat="41.9962954" lon="12.1211032"><ele>107.0</ele><time>2026-04-11T18:17:16.023Z</time></trkpt><trkpt lat="41.9962215" lon="12.1210401"><ele>106.99999999999999</ele><time>2026-04-11T18:17:17.022Z</time></trkpt><trkpt lat="41.9961413" lon="12.1209723"><ele>107.0</ele><time>2026-04-11T18:17:18.023Z</time></trkpt><trkpt lat="41.9960595" lon="12.1209035"><ele>107.0</ele><time>2026-04-11T18:17:19.022Z</time></trkpt><trkpt lat="41.9959764" lon="12.1208262"><ele>106.99999999999999</ele><time>2026-04-11T18:17:20.021Z</time></trkpt><trkpt lat="41.9958907" lon="12.1207549"><ele>106.99999999999999</ele><time>2026-04-11T18:17:21.022Z</time></trkpt><trkpt lat="41.9958037" lon="12.1206811"><ele>107.0</ele><time>2026-04-11T18:17:22.021Z</time></trkpt><trkpt lat="41.9957201" lon="12.1206075"><ele>107.0</ele><time>2026-04-11T18:17:23.021Z</time></trkpt><trkpt lat="41.9956351" lon="12.1205296"><ele>106.39999999999999</ele><time>2026-04-11T18:17:24.021Z</time></trkpt><trkpt lat="41.9955471" lon="12.1204573"><ele>105.79999999999998</ele><time>2026-04-11T18:17:25.022Z</time></trkpt><trkpt lat="41.9954616" lon="12.1203824"><ele>105.2</ele><time>2026-04-11T18:17:26.021Z</time></trkpt><trkpt lat="41.9953759" lon="12.1203031"><ele>104.6</ele><time>2026-04-11T18:17:27.022Z</time></trkpt><trkpt lat="41.995292" lon="12.1202346"><ele>104.0</ele><time>2026-04-11T18:17:28.022Z</time></trkpt><trkpt lat="41.9952118" lon="12.1201606"><ele>103.99999999999999</ele><time>2026-04-11T18:17:29.021Z</time></trkpt><trkpt lat="41.9951378" lon="12.1200731"><ele>104.0</ele><time>2026-04-11T18:17:30.022Z</time></trkpt><trkpt lat="41.9950643" lon="12.1199909"><ele>104.0</ele><time>2026-04-11T18:17:31.022Z</time></trkpt><trkpt lat="41.9949742" lon="12.119927"><ele>104.0</ele><time>2026-04-11T18:17:32.022Z</time></trkpt><trkpt lat="41.9949179" lon="12.1198846"><ele>103.99999999999999</ele><time>2026-04-11T18:17:33.023Z</time></trkpt><trkpt lat="41.9948529" lon="12.1198203"><ele>104.0</ele><time>2026-04-11T18:17:34.023Z</time></trkpt><trkpt lat="41.9947944" lon="12.119756"><ele>103.49999999999999</ele><time>2026-04-11T18:17:35.023Z</time></trkpt><trkpt lat="41.994735" lon="12.1197017"><ele>103.0</ele><time>2026-04-11T18:17:36.022Z</time></trkpt><trkpt lat="41.9946229" lon="12.1196203"><ele>102.5</ele><time>2026-04-11T18:17:38.023Z</time></trkpt><trkpt lat="41.99456" lon="12.1195641"><ele>102.0</ele><time>2026-04-11T18:17:39.022Z</time></trkpt><trkpt lat="41.9944965" lon="12.1195025"><ele>101.49999999999999</ele><time>2026-04-11T18:17:40.022Z</time></trkpt><trkpt lat="41.9944339" lon="12.1194432"><ele>101.0</ele><time>2026-04-11T18:17:41.022Z</time></trkpt><trkpt lat="41.9943506" lon="12.1193456"><ele>100.99999999999999</ele><time>2026-04-11T18:17:43.023Z</time></trkpt><trkpt lat="41.9942911" lon="12.119278"><ele>101.0</ele><time>2026-04-11T18:17:46.022Z</time></trkpt><trkpt lat="41.994227" lon="12.1192313"><ele>101.0</ele><time>2026-04-11T18:17:48.022Z</time></trkpt><trkpt lat="41.9941502" lon="12.1191694"><ele>101.0</ele><time>2026-04-11T18:17:50.022Z</time></trkpt><trkpt lat="41.9940853" lon="12.1191153"><ele>100.99999999999999</ele><time>2026-04-11T18:17:52.023Z</time></trkpt><trkpt lat="41.9940207" lon="12.1190583"><ele>101.0</ele><time>2026-04-11T18:17:54.023Z</time></trkpt><trkpt lat="41.993941" lon="12.11898"><ele>99.8</ele><time>2026-04-11T18:17:56.022Z</time></trkpt><trkpt lat="41.9938514" lon="12.1188947"><ele>98.6</ele><time>2026-04-11T18:17:58.022Z</time></trkpt><trkpt lat="41.9937601" lon="12.1188159"><ele>97.4</ele><time>2026-04-11T18:18:00.023Z</time></trkpt><trkpt lat="41.9937048" lon="12.1187566"><ele>96.2</ele><time>2026-04-11T18:18:01.023Z</time></trkpt><trkpt lat="41.9936486" lon="12.1187082"><ele>95.0</ele><time>2026-04-11T18:18:02.022Z</time></trkpt><trkpt lat="41.9935465" lon="12.1186128"><ele>95.0</ele><time>2026-04-11T18:18:04.023Z</time></trkpt><trkpt lat="41.9934939" lon="12.1185642"><ele>95.0</ele><time>2026-04-11T18:18:05.022Z</time></trkpt><trkpt lat="41.9934405" lon="12.1185158"><ele>95.0</ele><time>2026-04-11T18:18:06.023Z</time></trkpt><trkpt lat="41.9933838" lon="12.1184729"><ele>95.0</ele><time>2026-04-11T18:18:07.023Z</time></trkpt><trkpt lat="41.9933249" lon="12.1184319"><ele>95.0</ele><time>2026-04-11T18:18:08.022Z</time></trkpt><trkpt lat="41.9932644" lon="12.11838"><ele>95.0</ele><time>2026-04-11T18:18:09.023Z</time></trkpt><trkpt lat="41.9932006" lon="12.1183214"><ele>95.0</ele><time>2026-04-11T18:18:10.022Z</time></trkpt><trkpt lat="41.993124" lon="12.1182626"><ele>94.5</ele><time>2026-04-11T18:18:11.023Z</time></trkpt><trkpt lat="41.9930458" lon="12.1182021"><ele>94.0</ele><time>2026-04-11T18:18:12.023Z</time></trkpt><trkpt lat="41.9929858" lon="12.1181638"><ele>93.5</ele><time>2026-04-11T18:18:13.023Z</time></trkpt><trkpt lat="41.9929207" lon="12.1181089"><ele>93.0</ele><time>2026-04-11T18:18:14.022Z</time></trkpt><trkpt lat="41.9928679" lon="12.118046"><ele>92.5</ele><time>2026-04-11T18:18:15.022Z</time></trkpt><trkpt lat="41.9927996" lon="12.1179881"><ele>92.0</ele><time>2026-04-11T18:18:16.023Z</time></trkpt><trkpt lat="41.9927257" lon="12.1179234"><ele>92.0</ele><time>2026-04-11T18:18:17.022Z</time></trkpt><trkpt lat="41.9926513" lon="12.1178567"><ele>92.0</ele><time>2026-04-11T18:18:18.022Z</time></trkpt><trkpt lat="41.9925806" lon="12.1177935"><ele>92.0</ele><time>2026-04-11T18:18:19.022Z</time></trkpt><trkpt lat="41.992498" lon="12.1177286"><ele>92.0</ele><time>2026-04-11T18:18:20.022Z</time></trkpt><trkpt lat="41.9924083" lon="12.1176589"><ele>92.0</ele><time>2026-04-11T18:18:21.023Z</time></trkpt><trkpt lat="41.9923232" lon="12.1175942"><ele>91.6</ele><time>2026-04-11T18:18:22.022Z</time></trkpt><trkpt lat="41.9922405" lon="12.1175272"><ele>91.19999999999999</ele><time>2026-04-11T18:18:23.023Z</time></trkpt><trkpt lat="41.9921584" lon="12.1174571"><ele>90.8</ele><time>2026-04-11T18:18:24.023Z</time></trkpt><trkpt lat="41.9920705" lon="12.1173807"><ele>90.4</ele><time>2026-04-11T18:18:25.022Z</time></trkpt><trkpt lat="41.9919745" lon="12.1172912"><ele>90.0</ele><time>2026-04-11T18:18:26.023Z</time></trkpt><trkpt lat="41.9918804" lon="12.1172142"><ele>89.5</ele><time>2026-04-11T18:18:27.023Z</time></trkpt><trkpt lat="41.9918024" lon="12.117142"><ele>89.0</ele><time>2026-04-11T18:18:28.023Z</time></trkpt><trkpt lat="41.9917248" lon="12.1170617"><ele>88.5</ele><time>2026-04-11T18:18:29.022Z</time></trkpt><trkpt lat="41.9916528" lon="12.1169943"><ele>88.0</ele><time>2026-04-11T18:18:30.023Z</time></trkpt><trkpt lat="41.9914738" lon="12.1168498"><ele>88.0</ele><time>2026-04-11T18:18:32.023Z</time></trkpt><trkpt lat="41.9913832" lon="12.1167754"><ele>88.0</ele><time>2026-04-11T18:18:33.023Z</time></trkpt><trkpt lat="41.9912854" lon="12.1167195"><ele>88.0</ele><time>2026-04-11T18:18:34.023Z</time></trkpt><trkpt lat="41.9911985" lon="12.1166587"><ele>88.0</ele><time>2026-04-11T18:18:35.022Z</time></trkpt><trkpt lat="41.9911354" lon="12.1166306"><ele>88.0</ele><time>2026-04-11T18:18:36.022Z</time></trkpt><trkpt lat="41.9910633" lon="12.1165579"><ele>87.2</ele><time>2026-04-11T18:18:37.023Z</time></trkpt><trkpt lat="41.9910055" lon="12.1164852"><ele>86.4</ele><time>2026-04-11T18:18:38.023Z</time></trkpt><trkpt lat="41.9909225" lon="12.116437"><ele>85.60000000000001</ele><time>2026-04-11T18:18:39.023Z</time></trkpt><trkpt lat="41.9908507" lon="12.116364"><ele>84.80000000000001</ele><time>2026-04-11T18:18:40.023Z</time></trkpt><trkpt lat="41.9907746" lon="12.116302"><ele>84.0</ele><time>2026-04-11T18:18:41.023Z</time></trkpt><trkpt lat="41.9906465" lon="12.1162694"><ele>84.0</ele><time>2026-04-11T18:18:42.022Z</time></trkpt><trkpt lat="41.9905354" lon="12.1162288"><ele>84.0</ele><time>2026-04-11T18:18:43.023Z</time></trkpt><trkpt lat="41.9904231" lon="12.1161751"><ele>84.0</ele><time>2026-04-11T18:18:44.023Z</time></trkpt><trkpt lat="41.990329" lon="12.1161285"><ele>84.0</ele><time>2026-04-11T18:18:45.023Z</time></trkpt><trkpt lat="41.9902429" lon="12.1160796"><ele>84.0</ele><time>2026-04-11T18:18:46.023Z</time></trkpt><trkpt lat="41.990153" lon="12.1160317"><ele>84.0</ele><time>2026-04-11T18:18:47.022Z</time></trkpt><trkpt lat="41.9900704" lon="12.1159794"><ele>84.0</ele><time>2026-04-11T18:18:48.023Z</time></trkpt><trkpt lat="41.9899901" lon="12.1159221"><ele>84.0</ele><time>2026-04-11T18:18:49.023Z</time></trkpt><trkpt lat="41.9899131" lon="12.1158541"><ele>84.0</ele><time>2026-04-11T18:18:50.022Z</time></trkpt><trkpt lat="41.9898409" lon="12.1157913"><ele>84.0</ele><time>2026-04-11T18:18:51.022Z</time></trkpt><trkpt lat="41.9897696" lon="12.1157263"><ele>84.0</ele><time>2026-04-11T18:18:52.023Z</time></trkpt><trkpt lat="41.9896685" lon="12.1156285"><ele>83.83333333333333</ele><time>2026-04-11T18:18:54.022Z</time></trkpt><trkpt lat="41.9896123" lon="12.1155596"><ele>83.66666666666667</ele><time>2026-04-11T18:18:55.023Z</time></trkpt><trkpt lat="41.9895522" lon="12.1154925"><ele>83.5</ele><time>2026-04-11T18:18:56.023Z</time></trkpt><trkpt lat="41.9894929" lon="12.1154194"><ele>83.33333333333334</ele><time>2026-04-11T18:18:57.022Z</time></trkpt><trkpt lat="41.9894369" lon="12.1153359"><ele>83.16666666666667</ele><time>2026-04-11T18:18:58.022Z</time></trkpt><trkpt lat="41.9893851" lon="12.1152775"><ele>83.0</ele><time>2026-04-11T18:18:59.023Z</time></trkpt><trkpt lat="41.9893243" lon="12.115207"><ele>83.0</ele><time>2026-04-11T18:19:00.022Z</time></trkpt><trkpt lat="41.9892807" lon="12.1151206"><ele>83.0</ele><time>2026-04-11T18:19:01.022Z</time></trkpt><trkpt lat="41.989226" lon="12.1150505"><ele>83.0</ele><time>2026-04-11T18:19:02.022Z</time></trkpt><trkpt lat="41.989178" lon="12.1149801"><ele>83.0</ele><time>2026-04-11T18:19:03.023Z</time></trkpt><trkpt lat="41.9890789" lon="12.1148241"><ele>83.0</ele><time>2026-04-11T18:19:05.023Z</time></trkpt><trkpt lat="41.989025" lon="12.1147453"><ele>83.71428571428571</ele><time>2026-04-11T18:19:06.023Z</time></trkpt><trkpt lat="41.9889656" lon="12.1146773"><ele>84.42857142857143</ele><time>2026-04-11T18:19:07.023Z</time></trkpt><trkpt lat="41.9889073" lon="12.1146144"><ele>85.14285714285714</ele><time>2026-04-11T18:19:08.023Z</time></trkpt><trkpt lat="41.988853" lon="12.114561"><ele>85.85714285714286</ele><time>2026-04-11T18:19:09.023Z</time></trkpt><trkpt lat="41.9888029" lon="12.1145067"><ele>86.57142857142857</ele><time>2026-04-11T18:19:10.022Z</time></trkpt><trkpt lat="41.9887576" lon="12.1144424"><ele>87.28571428571429</ele><time>2026-04-11T18:19:11.023Z</time></trkpt><trkpt lat="41.9887064" lon="12.1143756"><ele>88.0</ele><time>2026-04-11T18:19:12.023Z</time></trkpt><trkpt lat="41.9886221" lon="12.1142667"><ele>88.0</ele><time>2026-04-11T18:19:14.022Z</time></trkpt><trkpt lat="41.9885632" lon="12.1141922"><ele>88.0</ele><time>2026-04-11T18:19:16.023Z</time></trkpt><trkpt lat="41.9884977" lon="12.1141032"><ele>88.0</ele><time>2026-04-11T18:19:18.022Z</time></trkpt><trkpt lat="41.9884296" lon="12.1139844"><ele>88.0</ele><time>2026-04-11T18:19:20.022Z</time></trkpt><trkpt lat="41.9883868" lon="12.1139187"><ele>88.0</ele><time>2026-04-11T18:19:21.022Z</time></trkpt><trkpt lat="41.988317" lon="12.1137757"><ele>87.42857142857143</ele><time>2026-04-11T18:19:23.022Z</time></trkpt><trkpt lat="41.9882814" lon="12.1137036"><ele>86.85714285714286</ele><time>2026-04-11T18:19:24.023Z</time></trkpt><trkpt lat="41.9882333" lon="12.1136457"><ele>86.28571428571428</ele><time>2026-04-11T18:19:25.022Z</time></trkpt><trkpt lat="41.9881786" lon="12.1135745"><ele>85.71428571428572</ele><time>2026-04-11T18:19:26.022Z</time></trkpt><trkpt lat="41.9881282" lon="12.1134882"><ele>85.14285714285714</ele><time>2026-04-11T18:19:27.022Z</time></trkpt><trkpt lat="41.9880921" lon="12.1134159"><ele>84.57142857142857</ele><time>2026-04-11T18:19:28.023Z</time></trkpt><trkpt lat="41.9880505" lon="12.1133092"><ele>84.0</ele><time>2026-04-11T18:19:29.023Z</time></trkpt><trkpt lat="41.9880037" lon="12.1131769"><ele>83.80000000000001</ele><time>2026-04-11T18:19:30.022Z</time></trkpt><trkpt lat="41.9879535" lon="12.1130559"><ele>83.60000000000001</ele><time>2026-04-11T18:19:31.022Z</time></trkpt><trkpt lat="41.9879102" lon="12.1129614"><ele>83.4</ele><time>2026-04-11T18:19:32.023Z</time></trkpt><trkpt lat="41.9878674" lon="12.1128541"><ele>83.2</ele><time>2026-04-11T18:19:33.022Z</time></trkpt><trkpt lat="41.9878212" lon="12.112735"><ele>83.0</ele><time>2026-04-11T18:19:34.023Z</time></trkpt><trkpt lat="41.9877676" lon="12.112631"><ele>83.0</ele><time>2026-04-11T18:19:35.022Z</time></trkpt><trkpt lat="41.9877004" lon="12.11253"><ele>83.0</ele><time>2026-04-11T18:19:36.023Z</time></trkpt><trkpt lat="41.9876443" lon="12.112423"><ele>83.0</ele><time>2026-04-11T18:19:37.022Z</time></trkpt><trkpt lat="41.9875912" lon="12.1123105"><ele>83.0</ele><time>2026-04-11T18:19:38.023Z</time></trkpt><trkpt lat="41.9875423" lon="12.112206"><ele>83.0</ele><time>2026-04-11T18:19:39.023Z</time></trkpt><trkpt lat="41.987491" lon="12.1121118"><ele>81.83333333333334</ele><time>2026-04-11T18:19:40.023Z</time></trkpt><trkpt lat="41.9874354" lon="12.1120162"><ele>80.66666666666667</ele><time>2026-04-11T18:19:41.023Z</time></trkpt><trkpt lat="41.9873747" lon="12.1119255"><ele>79.5</ele><time>2026-04-11T18:19:42.022Z</time></trkpt><trkpt lat="41.9873089" lon="12.1118522"><ele>78.33333333333333</ele><time>2026-04-11T18:19:43.023Z</time></trkpt><trkpt lat="41.9872376" lon="12.1117863"><ele>77.16666666666666</ele><time>2026-04-11T18:19:44.023Z</time></trkpt><trkpt lat="41.9871653" lon="12.1117307"><ele>76.0</ele><time>2026-04-11T18:19:45.022Z</time></trkpt><trkpt lat="41.9871081" lon="12.1116907"><ele>76.0</ele><time>2026-04-11T18:19:46.023Z</time></trkpt><trkpt lat="41.9870406" lon="12.1116478"><ele>76.0</ele><time>2026-04-11T18:19:47.022Z</time></trkpt><trkpt lat="41.9869582" lon="12.1116002"><ele>76.0</ele><time>2026-04-11T18:19:48.023Z</time></trkpt><trkpt lat="41.9868869" lon="12.1115653"><ele>76.0</ele><time>2026-04-11T18:19:49.022Z</time></trkpt><trkpt lat="41.9868633" lon="12.1114568"><ele>76.0</ele><time>2026-04-11T18:19:50.022Z</time></trkpt><trkpt lat="41.9868512" lon="12.1113504"><ele>76.0</ele><time>2026-04-11T18:19:51.022Z</time></trkpt><trkpt lat="41.986778" lon="12.1112757"><ele>76.0</ele><time>2026-04-11T18:19:52.023Z</time></trkpt><trkpt lat="41.986671" lon="12.1111776"><ele>76.0</ele><time>2026-04-11T18:19:54.023Z</time></trkpt><trkpt lat="41.9865634" lon="12.1111445"><ele>76.0</ele><time>2026-04-11T18:19:56.023Z</time></trkpt><trkpt lat="41.9864353" lon="12.1111522"><ele>76.0</ele><time>2026-04-11T18:19:58.023Z</time></trkpt><trkpt lat="41.986349" lon="12.111236"><ele>76.0</ele><time>2026-04-11T18:19:59.022Z</time></trkpt><trkpt lat="41.9862946" lon="12.1113231"><ele>76.0</ele><time>2026-04-11T18:20:00.023Z</time></trkpt><trkpt lat="41.986178" lon="12.1113189"><ele>76.0</ele><time>2026-04-11T18:20:03.023Z</time></trkpt><trkpt lat="41.9861178" lon="12.1112772"><ele>76.0</ele><time>2026-04-11T18:20:05.023Z</time></trkpt><trkpt lat="41.9860439" lon="12.1112491"><ele>76.0</ele><time>2026-04-11T18:20:07.023Z</time></trkpt><trkpt lat="41.9859784" lon="12.1112374"><ele>76.0</ele><time>2026-04-11T18:20:08.022Z</time></trkpt><trkpt lat="41.9859153" lon="12.1112059"><ele>76.0</ele><time>2026-04-11T18:20:09.022Z</time></trkpt><trkpt lat="41.9858512" lon="12.111168"><ele>76.0</ele><time>2026-04-11T18:20:10.023Z</time></trkpt><trkpt lat="41.9857788" lon="12.11115"><ele>76.0</ele><time>2026-04-11T18:20:11.022Z</time></trkpt><trkpt lat="41.9857287" lon="12.111088"><ele>76.0</ele><time>2026-04-11T18:20:12.022Z</time></trkpt><trkpt lat="41.9856797" lon="12.1110059"><ele>76.0</ele><time>2026-04-11T18:20:13.023Z</time></trkpt><trkpt lat="41.9855892" lon="12.1108843"><ele>76.0</ele><time>2026-04-11T18:20:15.023Z</time></trkpt><trkpt lat="41.9855255" lon="12.110835"><ele>75.5</ele><time>2026-04-11T18:20:16.023Z</time></trkpt><trkpt lat="41.9854518" lon="12.1107661"><ele>75.0</ele><time>2026-04-11T18:20:17.022Z</time></trkpt><trkpt lat="41.9853735" lon="12.1107136"><ele>74.5</ele><time>2026-04-11T18:20:18.023Z</time></trkpt><trkpt lat="41.9853022" lon="12.1106818"><ele>74.0</ele><time>2026-04-11T18:20:19.023Z</time></trkpt><trkpt lat="41.9852321" lon="12.1106465"><ele>73.5</ele><time>2026-04-11T18:20:20.023Z</time></trkpt><trkpt lat="41.9851733" lon="12.1106053"><ele>73.0</ele><time>2026-04-11T18:20:21.022Z</time></trkpt><trkpt lat="41.9850598" lon="12.1105397"><ele>71.83333333333333</ele><time>2026-04-11T18:20:23.022Z</time></trkpt><trkpt lat="41.9850227" lon="12.110465"><ele>70.66666666666666</ele><time>2026-04-11T18:20:24.023Z</time></trkpt><trkpt lat="41.9849884" lon="12.1103539"><ele>69.5</ele><time>2026-04-11T18:20:25.022Z</time></trkpt><trkpt lat="41.9848914" lon="12.1102784"><ele>68.33333333333333</ele><time>2026-04-11T18:20:27.023Z</time></trkpt><trkpt lat="41.98483" lon="12.1102131"><ele>67.16666666666667</ele><time>2026-04-11T18:20:28.023Z</time></trkpt><trkpt lat="41.9847689" lon="12.1101678"><ele>66.0</ele><time>2026-04-11T18:20:29.023Z</time></trkpt><trkpt lat="41.9847033" lon="12.1101125"><ele>65.33333333333333</ele><time>2026-04-11T18:20:30.023Z</time></trkpt><trkpt lat="41.9846406" lon="12.1100787"><ele>64.66666666666667</ele><time>2026-04-11T18:20:31.023Z</time></trkpt><trkpt lat="41.9845586" lon="12.1101159"><ele>64.0</ele><time>2026-04-11T18:20:33.023Z</time></trkpt><trkpt lat="41.9845813" lon="12.1101999"><ele>63.333333333333336</ele><time>2026-04-11T18:20:36.022Z</time></trkpt><trkpt lat="41.9845575" lon="12.1100874"><ele>62.66666666666667</ele><time>2026-04-11T18:20:40.022Z</time></trkpt><trkpt lat="41.9844598" lon="12.1101952"><ele>62.0</ele><time>2026-04-11T18:20:47.022Z</time></trkpt><trkpt lat="41.9843768" lon="12.110317"><ele>62.0</ele><time>2026-04-11T18:20:49.022Z</time></trkpt><trkpt lat="41.9843349" lon="12.1103839"><ele>62.0</ele><time>2026-04-11T18:20:50.022Z</time></trkpt><trkpt lat="41.9842628" lon="12.1104677"><ele>62.0</ele><time>2026-04-11T18:20:51.023Z</time></trkpt><trkpt lat="41.984192" lon="12.1105902"><ele>62.0</ele><time>2026-04-11T18:20:52.023Z</time></trkpt><trkpt lat="41.9841168" lon="12.110707"><ele>62.0</ele><time>2026-04-11T18:20:53.023Z</time></trkpt><trkpt lat="41.984044" lon="12.110817"><ele>61.75</ele><time>2026-04-11T18:20:54.022Z</time></trkpt><trkpt lat="41.9839747" lon="12.110947"><ele>61.5</ele><time>2026-04-11T18:20:55.022Z</time></trkpt><trkpt lat="41.9839073" lon="12.1110594"><ele>61.25</ele><time>2026-04-11T18:20:56.022Z</time></trkpt><trkpt lat="41.9838329" lon="12.1111735"><ele>61.0</ele><time>2026-04-11T18:20:57.023Z</time></trkpt><trkpt lat="41.9837518" lon="12.1112852"><ele>61.0</ele><time>2026-04-11T18:20:58.023Z</time></trkpt><trkpt lat="41.9836649" lon="12.1113888"><ele>61.0</ele><time>2026-04-11T18:20:59.023Z</time></trkpt><trkpt lat="41.9835725" lon="12.111466"><ele>61.0</ele><time>2026-04-11T18:21:00.022Z</time></trkpt><trkpt lat="41.9834675" lon="12.1115105"><ele>61.0</ele><time>2026-04-11T18:21:01.022Z</time></trkpt><trkpt lat="41.9833475" lon="12.1115301"><ele>60.5</ele><time>2026-04-11T18:21:02.022Z</time></trkpt><trkpt lat="41.9832123" lon="12.1115455"><ele>60.0</ele><time>2026-04-11T18:21:03.022Z</time></trkpt><trkpt lat="41.9830793" lon="12.1115669"><ele>59.5</ele><time>2026-04-11T18:21:04.023Z</time></trkpt><trkpt lat="41.9829291" lon="12.111594"><ele>59.0</ele><time>2026-04-11T18:21:05.022Z</time></trkpt><trkpt lat="41.9827782" lon="12.111631"><ele>59.0</ele><time>2026-04-11T18:21:06.023Z</time></trkpt><trkpt lat="41.9826447" lon="12.1116619"><ele>59.0</ele><time>2026-04-11T18:21:07.023Z</time></trkpt><trkpt lat="41.9825171" lon="12.111692"><ele>59.0</ele><time>2026-04-11T18:21:08.023Z</time></trkpt><trkpt lat="41.9823812" lon="12.1117217"><ele>59.0</ele><time>2026-04-11T18:21:09.022Z</time></trkpt><trkpt lat="41.9822471" lon="12.111753"><ele>59.0</ele><time>2026-04-11T18:21:10.023Z</time></trkpt><trkpt lat="41.9821178" lon="12.1118098"><ele>59.0</ele><time>2026-04-11T18:21:11.022Z</time></trkpt><trkpt lat="41.9819935" lon="12.1118823"><ele>59.0</ele><time>2026-04-11T18:21:12.023Z</time></trkpt><trkpt lat="41.9818636" lon="12.1119306"><ele>59.0</ele><time>2026-04-11T18:21:13.023Z</time></trkpt><trkpt lat="41.9817429" lon="12.1119903"><ele>59.0</ele><time>2026-04-11T18:21:14.023Z</time></trkpt><trkpt lat="41.9816843" lon="12.1120883"><ele>59.0</ele><time>2026-04-11T18:21:15.023Z</time></trkpt><trkpt lat="41.9815896" lon="12.1121372"><ele>59.0</ele><time>2026-04-11T18:21:16.023Z</time></trkpt><trkpt lat="41.9814778" lon="12.1122411"><ele>59.0</ele><time>2026-04-11T18:21:17.022Z</time></trkpt><trkpt lat="41.9813225" lon="12.1123293"><ele>59.0</ele><time>2026-04-11T18:21:18.023Z</time></trkpt><trkpt lat="41.9811694" lon="12.1123791"><ele>59.0</ele><time>2026-04-11T18:21:19.023Z</time></trkpt><trkpt lat="41.9810385" lon="12.1124678"><ele>59.0</ele><time>2026-04-11T18:21:20.023Z</time></trkpt><trkpt lat="41.9809243" lon="12.1125573"><ele>59.0</ele><time>2026-04-11T18:21:21.022Z</time></trkpt><trkpt lat="41.980821" lon="12.1126449"><ele>58.75</ele><time>2026-04-11T18:21:22.023Z</time></trkpt><trkpt lat="41.9807118" lon="12.1127325"><ele>58.5</ele><time>2026-04-11T18:21:23.023Z</time></trkpt><trkpt lat="41.980593" lon="12.1128021"><ele>58.25</ele><time>2026-04-11T18:21:24.023Z</time></trkpt><trkpt lat="41.980469" lon="12.1128723"><ele>58.0</ele><time>2026-04-11T18:21:25.021Z</time></trkpt><trkpt lat="41.9803525" lon="12.1129355"><ele>58.0</ele><time>2026-04-11T18:21:26.022Z</time></trkpt><trkpt lat="41.9802467" lon="12.1129917"><ele>58.0</ele><time>2026-04-11T18:21:27.022Z</time></trkpt><trkpt lat="41.9801396" lon="12.1130481"><ele>58.0</ele><time>2026-04-11T18:21:28.021Z</time></trkpt><trkpt lat="41.9800435" lon="12.1131062"><ele>58.0</ele><time>2026-04-11T18:21:29.022Z</time></trkpt><trkpt lat="41.9799388" lon="12.1131688"><ele>58.0</ele><time>2026-04-11T18:21:30.021Z</time></trkpt><trkpt lat="41.9798297" lon="12.1132265"><ele>57.5</ele><time>2026-04-11T18:21:31.022Z</time></trkpt><trkpt lat="41.9797126" lon="12.1132806"><ele>57.0</ele><time>2026-04-11T18:21:32.021Z</time></trkpt><trkpt lat="41.9795902" lon="12.1133368"><ele>56.5</ele><time>2026-04-11T18:21:33.022Z</time></trkpt><trkpt lat="41.9794765" lon="12.1133884"><ele>56.0</ele><time>2026-04-11T18:21:34.022Z</time></trkpt><trkpt lat="41.9793656" lon="12.1134448"><ele>56.0</ele><time>2026-04-11T18:21:35.021Z</time></trkpt><trkpt lat="41.9792465" lon="12.1135071"><ele>56.0</ele><time>2026-04-11T18:21:36.022Z</time></trkpt><trkpt lat="41.9791246" lon="12.1135679"><ele>56.0</ele><time>2026-04-11T18:21:37.022Z</time></trkpt><trkpt lat="41.979" lon="12.1136358"><ele>56.0</ele><time>2026-04-11T18:21:38.022Z</time></trkpt><trkpt lat="41.97888" lon="12.1137218"><ele>55.25</ele><time>2026-04-11T18:21:39.022Z</time></trkpt><trkpt lat="41.9787356" lon="12.1137774"><ele>54.5</ele><time>2026-04-11T18:21:40.022Z</time></trkpt><trkpt lat="41.9786156" lon="12.1138177"><ele>53.75</ele><time>2026-04-11T18:21:41.022Z</time></trkpt><trkpt lat="41.9785" lon="12.113875"><ele>53.0</ele><time>2026-04-11T18:21:42.022Z</time></trkpt><trkpt lat="41.9783857" lon="12.1139295"><ele>52.5</ele><time>2026-04-11T18:21:43.021Z</time></trkpt><trkpt lat="41.9782714" lon="12.1139896"><ele>52.0</ele><time>2026-04-11T18:21:44.021Z</time></trkpt><trkpt lat="41.9781467" lon="12.1140486"><ele>51.5</ele><time>2026-04-11T18:21:45.022Z</time></trkpt><trkpt lat="41.978006" lon="12.1141079"><ele>51.0</ele><time>2026-04-11T18:21:46.022Z</time></trkpt><trkpt lat="41.9778828" lon="12.1141595"><ele>51.0</ele><time>2026-04-11T18:21:47.022Z</time></trkpt><trkpt lat="41.9777505" lon="12.1142033"><ele>51.0</ele><time>2026-04-11T18:21:48.021Z</time></trkpt><trkpt lat="41.9776188" lon="12.11425"><ele>51.0</ele><time>2026-04-11T18:21:49.022Z</time></trkpt><trkpt lat="41.9774842" lon="12.1143247"><ele>51.0</ele><time>2026-04-11T18:21:50.022Z</time></trkpt><trkpt lat="41.9773493" lon="12.1143841"><ele>51.0</ele><time>2026-04-11T18:21:51.022Z</time></trkpt><trkpt lat="41.9772253" lon="12.114445"><ele>51.0</ele><time>2026-04-11T18:21:52.021Z</time></trkpt><trkpt lat="41.9771226" lon="12.1145064"><ele>51.0</ele><time>2026-04-11T18:21:53.021Z</time></trkpt><trkpt lat="41.9770271" lon="12.1145769"><ele>51.0</ele><time>2026-04-11T18:21:54.021Z</time></trkpt><trkpt lat="41.9769053" lon="12.114648"><ele>51.0</ele><time>2026-04-11T18:21:55.022Z</time></trkpt><trkpt lat="41.9767929" lon="12.114725"><ele>51.0</ele><time>2026-04-11T18:21:56.021Z</time></trkpt><trkpt lat="41.976693" lon="12.1148134"><ele>51.0</ele><time>2026-04-11T18:21:57.022Z</time></trkpt><trkpt lat="41.9765958" lon="12.114924"><ele>51.0</ele><time>2026-04-11T18:21:58.021Z</time></trkpt><trkpt lat="41.9765029" lon="12.1150404"><ele>49.0</ele><time>2026-04-11T18:21:59.021Z</time></trkpt><trkpt lat="41.9764152" lon="12.1151639"><ele>47.0</ele><time>2026-04-11T18:22:00.022Z</time></trkpt><trkpt lat="41.9763305" lon="12.1152871"><ele>45.0</ele><time>2026-04-11T18:22:01.022Z</time></trkpt><trkpt lat="41.9762546" lon="12.1154144"><ele>43.0</ele><time>2026-04-11T18:22:02.021Z</time></trkpt><trkpt lat="41.9761745" lon="12.1155512"><ele>43.0</ele><time>2026-04-11T18:22:03.022Z</time></trkpt><trkpt lat="41.9760991" lon="12.1157128"><ele>43.0</ele><time>2026-04-11T18:22:04.021Z</time></trkpt><trkpt lat="41.9760144" lon="12.115864"><ele>43.0</ele><time>2026-04-11T18:22:05.022Z</time></trkpt><trkpt lat="41.9759262" lon="12.1160066"><ele>43.0</ele><time>2026-04-11T18:22:06.021Z</time></trkpt><trkpt lat="41.9758409" lon="12.116149"><ele>40.75</ele><time>2026-04-11T18:22:07.022Z</time></trkpt><trkpt lat="41.9757546" lon="12.1162989"><ele>38.5</ele><time>2026-04-11T18:22:08.022Z</time></trkpt><trkpt lat="41.9756639" lon="12.1164534"><ele>36.25</ele><time>2026-04-11T18:22:09.022Z</time></trkpt><trkpt lat="41.9755828" lon="12.1165856"><ele>34.0</ele><time>2026-04-11T18:22:10.021Z</time></trkpt><trkpt lat="41.975504" lon="12.1167235"><ele>34.0</ele><time>2026-04-11T18:22:11.022Z</time></trkpt><trkpt lat="41.9754302" lon="12.1168674"><ele>34.0</ele><time>2026-04-11T18:22:12.022Z</time></trkpt><trkpt lat="41.9753643" lon="12.116971"><ele>34.0</ele><time>2026-04-11T18:22:13.021Z</time></trkpt><trkpt lat="41.9752996" lon="12.1170679"><ele>34.0</ele><time>2026-04-11T18:22:14.021Z</time></trkpt><trkpt lat="41.9752259" lon="12.117151"><ele>34.0</ele><time>2026-04-11T18:22:15.021Z</time></trkpt><trkpt lat="41.9751499" lon="12.1172158"><ele>34.0</ele><time>2026-04-11T18:22:16.021Z</time></trkpt><trkpt lat="41.9750669" lon="12.1172678"><ele>34.0</ele><time>2026-04-11T18:22:17.021Z</time></trkpt><trkpt lat="41.9749752" lon="12.1173014"><ele>34.0</ele><time>2026-04-11T18:22:18.021Z</time></trkpt><trkpt lat="41.9748831" lon="12.117309"><ele>34.0</ele><time>2026-04-11T18:22:19.021Z</time></trkpt><trkpt lat="41.9747828" lon="12.117285"><ele>34.0</ele><time>2026-04-11T18:22:20.021Z</time></trkpt><trkpt lat="41.9746866" lon="12.1172393"><ele>33.0</ele><time>2026-04-11T18:22:21.022Z</time></trkpt><trkpt lat="41.9745959" lon="12.117181"><ele>32.0</ele><time>2026-04-11T18:22:22.022Z</time></trkpt><trkpt lat="41.9745049" lon="12.1170996"><ele>31.0</ele><time>2026-04-11T18:22:23.022Z</time></trkpt><trkpt lat="41.97441" lon="12.1170221"><ele>30.0</ele><time>2026-04-11T18:22:24.022Z</time></trkpt><trkpt lat="41.9743174" lon="12.1169418"><ele>29.0</ele><time>2026-04-11T18:22:25.021Z</time></trkpt><trkpt lat="41.9742324" lon="12.1168366"><ele>28.75</ele><time>2026-04-11T18:22:26.022Z</time></trkpt><trkpt lat="41.9741418" lon="12.1167377"><ele>28.5</ele><time>2026-04-11T18:22:27.021Z</time></trkpt><trkpt lat="41.9740592" lon="12.1166393"><ele>28.25</ele><time>2026-04-11T18:22:28.021Z</time></trkpt><trkpt lat="41.9739721" lon="12.1165433"><ele>28.0</ele><time>2026-04-11T18:22:29.021Z</time></trkpt><trkpt lat="41.9738816" lon="12.1164579"><ele>28.0</ele><time>2026-04-11T18:22:30.021Z</time></trkpt><trkpt lat="41.9737753" lon="12.1163948"><ele>27.999999999999996</ele><time>2026-04-11T18:22:31.022Z</time></trkpt><trkpt lat="41.9736735" lon="12.1163534"><ele>27.999999999999996</ele><time>2026-04-11T18:22:32.021Z</time></trkpt><trkpt lat="41.9735726" lon="12.1163253"><ele>28.0</ele><time>2026-04-11T18:22:33.022Z</time></trkpt><trkpt lat="41.9734542" lon="12.1163381"><ele>28.0</ele><time>2026-04-11T18:22:34.022Z</time></trkpt><trkpt lat="41.9733391" lon="12.1163494"><ele>29.0</ele><time>2026-04-11T18:22:35.022Z</time></trkpt><trkpt lat="41.9732211" lon="12.1163708"><ele>30.0</ele><time>2026-04-11T18:22:36.021Z</time></trkpt><trkpt lat="41.9731024" lon="12.1163958"><ele>31.0</ele><time>2026-04-11T18:22:37.021Z</time></trkpt><trkpt lat="41.9729833" lon="12.1164326"><ele>32.0</ele><time>2026-04-11T18:22:38.021Z</time></trkpt><trkpt lat="41.9728741" lon="12.116475"><ele>32.0</ele><time>2026-04-11T18:22:39.022Z</time></trkpt><trkpt lat="41.9727717" lon="12.1165202"><ele>32.0</ele><time>2026-04-11T18:22:40.022Z</time></trkpt><trkpt lat="41.9726652" lon="12.116562"><ele>32.0</ele><time>2026-04-11T18:22:41.022Z</time></trkpt><trkpt lat="41.9725525" lon="12.1166154"><ele>32.0</ele><time>2026-04-11T18:22:42.021Z</time></trkpt><trkpt lat="41.9724536" lon="12.1166635"><ele>32.0</ele><time>2026-04-11T18:22:43.022Z</time></trkpt><trkpt lat="41.9723426" lon="12.1167133"><ele>32.33333333333333</ele><time>2026-04-11T18:22:44.022Z</time></trkpt><trkpt lat="41.9722429" lon="12.1167614"><ele>32.666666666666664</ele><time>2026-04-11T18:22:45.021Z</time></trkpt><trkpt lat="41.9721512" lon="12.1168002"><ele>33.0</ele><time>2026-04-11T18:22:46.021Z</time></trkpt><trkpt lat="41.972079" lon="12.1168355"><ele>33.333333333333336</ele><time>2026-04-11T18:22:47.021Z</time></trkpt><trkpt lat="41.9719866" lon="12.1168889"><ele>33.66666666666667</ele><time>2026-04-11T18:22:49.021Z</time></trkpt><trkpt lat="41.971968" lon="12.1169792"><ele>34.0</ele><time>2026-04-11T18:22:53.022Z</time></trkpt><trkpt lat="41.971997" lon="12.1170991"><ele>34.0</ele><time>2026-04-11T18:22:58.022Z</time></trkpt><trkpt lat="41.9721122" lon="12.1171353"><ele>34.0</ele><time>2026-04-11T18:23:00.022Z</time></trkpt><trkpt lat="41.9721881" lon="12.1171308"><ele>34.0</ele><time>2026-04-11T18:23:01.022Z</time></trkpt><trkpt lat="41.9722703" lon="12.1171236"><ele>34.0</ele><time>2026-04-11T18:23:02.022Z</time></trkpt><trkpt lat="41.9723556" lon="12.1171251"><ele>34.0</ele><time>2026-04-11T18:23:03.021Z</time></trkpt><trkpt lat="41.9724547" lon="12.1171328"><ele>34.4</ele><time>2026-04-11T18:23:04.022Z</time></trkpt><trkpt lat="41.9725584" lon="12.1171318"><ele>34.8</ele><time>2026-04-11T18:23:05.022Z</time></trkpt><trkpt lat="41.9726681" lon="12.1171148"><ele>35.2</ele><time>2026-04-11T18:23:06.022Z</time></trkpt><trkpt lat="41.9727793" lon="12.1171105"><ele>35.6</ele><time>2026-04-11T18:23:07.021Z</time></trkpt><trkpt lat="41.9728939" lon="12.1171086"><ele>36.0</ele><time>2026-04-11T18:23:08.022Z</time></trkpt><trkpt lat="41.973007" lon="12.1171066"><ele>36.0</ele><time>2026-04-11T18:23:09.021Z</time></trkpt><trkpt lat="41.9731248" lon="12.1170877"><ele>36.0</ele><time>2026-04-11T18:23:10.021Z</time></trkpt><trkpt lat="41.9732496" lon="12.1170863"><ele>36.0</ele><time>2026-04-11T18:23:11.021Z</time></trkpt><trkpt lat="41.9733718" lon="12.1170889"><ele>36.0</ele><time>2026-04-11T18:23:12.022Z</time></trkpt><trkpt lat="41.973458" lon="12.1170841"><ele>35.6</ele><time>2026-04-11T18:23:13.021Z</time></trkpt><trkpt lat="41.9735296" lon="12.1170995"><ele>35.2</ele><time>2026-04-11T18:23:14.022Z</time></trkpt><trkpt lat="41.9735928" lon="12.1171315"><ele>34.8</ele><time>2026-04-11T18:23:15.022Z</time></trkpt><trkpt lat="41.9736836" lon="12.1172435"><ele>34.4</ele><time>2026-04-11T18:23:17.022Z</time></trkpt><trkpt lat="41.9736819" lon="12.1174115"><ele>34.0</ele><time>2026-04-11T18:23:19.021Z</time></trkpt><trkpt lat="41.9736449" lon="12.1174863"><ele>34.0</ele><time>2026-04-11T18:23:20.021Z</time></trkpt><trkpt lat="41.9736074" lon="12.1175689"><ele>34.0</ele><time>2026-04-11T18:23:21.022Z</time></trkpt><trkpt lat="41.9735603" lon="12.1176652"><ele>34.0</ele><time>2026-04-11T18:23:22.022Z</time></trkpt><trkpt lat="41.9735241" lon="12.117756"><ele>34.0</ele><time>2026-04-11T18:23:23.022Z</time></trkpt><trkpt lat="41.9734789" lon="12.1178609"><ele>34.0</ele><time>2026-04-11T18:23:24.021Z</time></trkpt><trkpt lat="41.9734321" lon="12.1179648"><ele>34.0</ele><time>2026-04-11T18:23:25.021Z</time></trkpt><trkpt lat="41.9733969" lon="12.1180639"><ele>34.0</ele><time>2026-04-11T18:23:26.021Z</time></trkpt><trkpt lat="41.9733585" lon="12.1181748"><ele>34.0</ele><time>2026-04-11T18:23:27.021Z</time></trkpt><trkpt lat="41.9733145" lon="12.1182832"><ele>34.0</ele><time>2026-04-11T18:23:28.022Z</time></trkpt><trkpt lat="41.973269" lon="12.1184043"><ele>34.0</ele><time>2026-04-11T18:23:29.021Z</time></trkpt><trkpt lat="41.9732204" lon="12.1185215"><ele>34.0</ele><time>2026-04-11T18:23:30.022Z</time></trkpt><trkpt lat="41.9731779" lon="12.1186521"><ele>36.0</ele><time>2026-04-11T18:23:31.022Z</time></trkpt><trkpt lat="41.9731345" lon="12.1188035"><ele>38.0</ele><time>2026-04-11T18:23:32.022Z</time></trkpt><trkpt lat="41.9731254" lon="12.1189126"><ele>40.0</ele><time>2026-04-11T18:23:33.022Z</time></trkpt><trkpt lat="41.9731021" lon="12.1190052"><ele>42.0</ele><time>2026-04-11T18:23:34.022Z</time></trkpt><trkpt lat="41.9730923" lon="12.119126"><ele>44.0</ele><time>2026-04-11T18:23:35.022Z</time></trkpt><trkpt lat="41.973065" lon="12.1192416"><ele>44.400000000000006</ele><time>2026-04-11T18:23:36.022Z</time></trkpt><trkpt lat="41.9730449" lon="12.1193588"><ele>44.8</ele><time>2026-04-11T18:23:37.022Z</time></trkpt><trkpt lat="41.9730301" lon="12.1195044"><ele>45.2</ele><time>2026-04-11T18:23:38.022Z</time></trkpt><trkpt lat="41.9730239" lon="12.1196366"><ele>45.599999999999994</ele><time>2026-04-11T18:23:39.022Z</time></trkpt><trkpt lat="41.9730224" lon="12.1197618"><ele>46.0</ele><time>2026-04-11T18:23:40.021Z</time></trkpt><trkpt lat="41.9730224" lon="12.1198772"><ele>46.599999999999994</ele><time>2026-04-11T18:23:41.022Z</time></trkpt><trkpt lat="41.9730224" lon="12.1199991"><ele>47.2</ele><time>2026-04-11T18:23:42.022Z</time></trkpt><trkpt lat="41.9730258" lon="12.1201218"><ele>47.8</ele><time>2026-04-11T18:23:43.022Z</time></trkpt><trkpt lat="41.9730292" lon="12.1202401"><ele>48.400000000000006</ele><time>2026-04-11T18:23:44.022Z</time></trkpt><trkpt lat="41.9730431" lon="12.1203686"><ele>49.0</ele><time>2026-04-11T18:23:45.021Z</time></trkpt><trkpt lat="41.9730442" lon="12.120497"><ele>48.99999999999999</ele><time>2026-04-11T18:23:46.022Z</time></trkpt><trkpt lat="41.9730417" lon="12.1206278"><ele>49.0</ele><time>2026-04-11T18:23:47.021Z</time></trkpt><trkpt lat="41.9730365" lon="12.1207311"><ele>49.0</ele><time>2026-04-11T18:23:48.021Z</time></trkpt><trkpt lat="41.9730395" lon="12.1208234"><ele>49.0</ele><time>2026-04-11T18:23:49.022Z</time></trkpt><trkpt lat="41.9730468" lon="12.1209677"><ele>48.99999999999999</ele><time>2026-04-11T18:23:51.022Z</time></trkpt><trkpt lat="41.9730484" lon="12.1210966"><ele>49.0</ele><time>2026-04-11T18:23:53.021Z</time></trkpt><trkpt lat="41.9730564" lon="12.1212179"><ele>49.49999999999999</ele><time>2026-04-11T18:23:55.021Z</time></trkpt><trkpt lat="41.9730884" lon="12.121319"><ele>50.0</ele><time>2026-04-11T18:23:58.022Z</time></trkpt><trkpt lat="41.9731183" lon="12.1214215"><ele>50.5</ele><time>2026-04-11T18:24:00.021Z</time></trkpt><trkpt lat="41.9731775" lon="12.1215394"><ele>51.0</ele><time>2026-04-11T18:24:02.021Z</time></trkpt><trkpt lat="41.9732135" lon="12.1216097"><ele>51.49999999999999</ele><time>2026-04-11T18:24:03.022Z</time></trkpt><trkpt lat="41.9732546" lon="12.1216824"><ele>52.0</ele><time>2026-04-11T18:24:04.022Z</time></trkpt><trkpt lat="41.9732946" lon="12.121766"><ele>53.166666666666664</ele><time>2026-04-11T18:24:05.022Z</time></trkpt><trkpt lat="41.9733401" lon="12.1218504"><ele>54.33333333333333</ele><time>2026-04-11T18:24:06.021Z</time></trkpt><trkpt lat="41.9733894" lon="12.1219374"><ele>55.5</ele><time>2026-04-11T18:24:07.021Z</time></trkpt><trkpt lat="41.9734369" lon="12.1220042"><ele>56.66666666666667</ele><time>2026-04-11T18:24:08.022Z</time></trkpt><trkpt lat="41.9735064" lon="12.1220807"><ele>57.833333333333336</ele><time>2026-04-11T18:24:09.022Z</time></trkpt><trkpt lat="41.9735773" lon="12.122153"><ele>59.0</ele><time>2026-04-11T18:24:10.022Z</time></trkpt><trkpt lat="41.9736634" lon="12.1222439"><ele>58.0</ele><time>2026-04-11T18:24:11.022Z</time></trkpt><trkpt lat="41.9737469" lon="12.1223448"><ele>57.0</ele><time>2026-04-11T18:24:12.021Z</time></trkpt><trkpt lat="41.9738281" lon="12.1224502"><ele>56.0</ele><time>2026-04-11T18:24:13.022Z</time></trkpt><trkpt lat="41.9739021" lon="12.1225709"><ele>55.0</ele><time>2026-04-11T18:24:14.023Z</time></trkpt><trkpt lat="41.9739861" lon="12.1226814"><ele>55.0</ele><time>2026-04-11T18:24:15.023Z</time></trkpt><trkpt lat="41.9740642" lon="12.1227906"><ele>55.0</ele><time>2026-04-11T18:24:16.023Z</time></trkpt><trkpt lat="41.9741397" lon="12.122905"><ele>55.0</ele><time>2026-04-11T18:24:17.023Z</time></trkpt><trkpt lat="41.9742182" lon="12.1230276"><ele>55.0</ele><time>2026-04-11T18:24:18.022Z</time></trkpt><trkpt lat="41.9742938" lon="12.1231515"><ele>53.2</ele><time>2026-04-11T18:24:19.022Z</time></trkpt><trkpt lat="41.9743647" lon="12.123276"><ele>51.4</ele><time>2026-04-11T18:24:20.023Z</time></trkpt><trkpt lat="41.9744324" lon="12.1233884"><ele>49.599999999999994</ele><time>2026-04-11T18:24:21.022Z</time></trkpt><trkpt lat="41.974488" lon="12.1234796"><ele>47.8</ele><time>2026-04-11T18:24:22.023Z</time></trkpt><trkpt lat="41.9745127" lon="12.123573"><ele>46.0</ele><time>2026-04-11T18:24:23.023Z</time></trkpt><trkpt lat="41.97453" lon="12.1236633"><ele>46.0</ele><time>2026-04-11T18:24:24.022Z</time></trkpt><trkpt lat="41.9745573" lon="12.1237743"><ele>46.0</ele><time>2026-04-11T18:24:25.023Z</time></trkpt><trkpt lat="41.9745591" lon="12.1239086"><ele>46.0</ele><time>2026-04-11T18:24:26.022Z</time></trkpt><trkpt lat="41.974529" lon="12.1240349"><ele>46.0</ele><time>2026-04-11T18:24:27.023Z</time></trkpt><trkpt lat="41.9744857" lon="12.1241634"><ele>46.0</ele><time>2026-04-11T18:24:28.022Z</time></trkpt><trkpt lat="41.9744252" lon="12.1242815"><ele>48.5</ele><time>2026-04-11T18:24:29.023Z</time></trkpt><trkpt lat="41.9743577" lon="12.1243906"><ele>51.0</ele><time>2026-04-11T18:24:30.023Z</time></trkpt><trkpt lat="41.9742989" lon="12.1245195"><ele>53.5</ele><time>2026-04-11T18:24:31.022Z</time></trkpt><trkpt lat="41.974205" lon="12.1246399"><ele>56.0</ele><time>2026-04-11T18:24:32.022Z</time></trkpt><trkpt lat="41.9741165" lon="12.1247555"><ele>56.4</ele><time>2026-04-11T18:24:33.023Z</time></trkpt><trkpt lat="41.9740167" lon="12.1248715"><ele>56.8</ele><time>2026-04-11T18:24:34.023Z</time></trkpt><trkpt lat="41.9739222" lon="12.1250073"><ele>57.199999999999996</ele><time>2026-04-11T18:24:35.022Z</time></trkpt><trkpt lat="41.9738706" lon="12.125089"><ele>57.599999999999994</ele><time>2026-04-11T18:24:36.023Z</time></trkpt><trkpt lat="41.9738194" lon="12.1251979"><ele>58.0</ele><time>2026-04-11T18:24:37.023Z</time></trkpt><trkpt lat="41.9737508" lon="12.1253724"><ele>58.75</ele><time>2026-04-11T18:24:38.022Z</time></trkpt><trkpt lat="41.9737239" lon="12.1255615"><ele>59.5</ele><time>2026-04-11T18:24:39.023Z</time></trkpt><trkpt lat="41.9736986" lon="12.1257505"><ele>60.25</ele><time>2026-04-11T18:24:40.023Z</time></trkpt><trkpt lat="41.9736876" lon="12.1259013"><ele>61.0</ele><time>2026-04-11T18:24:41.023Z</time></trkpt><trkpt lat="41.9736556" lon="12.1260406"><ele>62.25</ele><time>2026-04-11T18:24:42.023Z</time></trkpt><trkpt lat="41.9736561" lon="12.1261659"><ele>63.5</ele><time>2026-04-11T18:24:43.023Z</time></trkpt><trkpt lat="41.9736791" lon="12.1263215"><ele>64.75</ele><time>2026-04-11T18:24:44.023Z</time></trkpt><trkpt lat="41.9737017" lon="12.1264794"><ele>66.0</ele><time>2026-04-11T18:24:45.022Z</time></trkpt><trkpt lat="41.9737393" lon="12.1266504"><ele>66.75</ele><time>2026-04-11T18:24:46.022Z</time></trkpt><trkpt lat="41.9737971" lon="12.1268244"><ele>67.5</ele><time>2026-04-11T18:24:47.023Z</time></trkpt><trkpt lat="41.9738519" lon="12.1269818"><ele>68.25</ele><time>2026-04-11T18:24:48.023Z</time></trkpt><trkpt lat="41.9738888" lon="12.1271478"><ele>69.0</ele><time>2026-04-11T18:24:49.022Z</time></trkpt><trkpt lat="41.9739304" lon="12.1272928"><ele>69.2</ele><time>2026-04-11T18:24:50.023Z</time></trkpt><trkpt lat="41.9739713" lon="12.1274553"><ele>69.4</ele><time>2026-04-11T18:24:51.023Z</time></trkpt><trkpt lat="41.9739973" lon="12.1276104"><ele>69.6</ele><time>2026-04-11T18:24:52.023Z</time></trkpt><trkpt lat="41.9739894" lon="12.1277345"><ele>69.8</ele><time>2026-04-11T18:24:53.023Z</time></trkpt><trkpt lat="41.9739942" lon="12.1278503"><ele>70.0</ele><time>2026-04-11T18:24:54.023Z</time></trkpt><trkpt lat="41.9739989" lon="12.127986"><ele>70.0</ele><time>2026-04-11T18:24:55.022Z</time></trkpt><trkpt lat="41.9739924" lon="12.1281365"><ele>70.0</ele><time>2026-04-11T18:24:56.022Z</time></trkpt><trkpt lat="41.973994" lon="12.1282899"><ele>70.0</ele><time>2026-04-11T18:24:57.022Z</time></trkpt><trkpt lat="41.9739973" lon="12.128428"><ele>70.0</ele><time>2026-04-11T18:24:58.023Z</time></trkpt><trkpt lat="41.9739911" lon="12.1285535"><ele>70.0</ele><time>2026-04-11T18:24:59.023Z</time></trkpt><trkpt lat="41.9739818" lon="12.1286452"><ele>69.66666666666666</ele><time>2026-04-11T18:25:00.023Z</time></trkpt><trkpt lat="41.9739948" lon="12.1287478"><ele>69.33333333333333</ele><time>2026-04-11T18:25:02.023Z</time></trkpt><trkpt lat="41.9740467" lon="12.1288146"><ele>69.0</ele><time>2026-04-11T18:25:04.023Z</time></trkpt><trkpt lat="41.9741118" lon="12.128783"><ele>68.66666666666667</ele><time>2026-04-11T18:25:05.023Z</time></trkpt><trkpt lat="41.9742002" lon="12.1287557"><ele>68.33333333333334</ele><time>2026-04-11T18:25:07.023Z</time></trkpt><trkpt lat="41.9742861" lon="12.1286995"><ele>68.0</ele><time>2026-04-11T18:25:09.022Z</time></trkpt><trkpt lat="41.9743487" lon="12.1286695"><ele>69.0</ele><time>2026-04-11T18:25:10.023Z</time></trkpt><trkpt lat="41.9744491" lon="12.1286608"><ele>70.0</ele><time>2026-04-11T18:25:12.023Z</time></trkpt><trkpt lat="41.97455" lon="12.128638"><ele>71.0</ele><time>2026-04-11T18:25:14.022Z</time></trkpt><trkpt lat="41.9747617" lon="12.1286845"><ele>72.0</ele><time>2026-04-11T18:25:19.023Z</time></trkpt><trkpt lat="41.974869" lon="12.1287603"><ele>72.0</ele><time>2026-04-11T18:25:21.022Z</time></trkpt><trkpt lat="41.9749308" lon="12.128795"><ele>72.0</ele><time>2026-04-11T18:25:22.022Z</time></trkpt><trkpt lat="41.974991" lon="12.1288278"><ele>72.0</ele><time>2026-04-11T18:25:23.023Z</time></trkpt><trkpt lat="41.9751009" lon="12.1288798"><ele>72.0</ele><time>2026-04-11T18:25:25.022Z</time></trkpt><trkpt lat="41.9751659" lon="12.1289227"><ele>72.0</ele><time>2026-04-11T18:25:26.022Z</time></trkpt><trkpt lat="41.9752282" lon="12.1289398"><ele>72.0</ele><time>2026-04-11T18:25:27.023Z</time></trkpt><trkpt lat="41.9753148" lon="12.1289995"><ele>72.4</ele><time>2026-04-11T18:25:29.023Z</time></trkpt><trkpt lat="41.975421" lon="12.1290853"><ele>72.80000000000001</ele><time>2026-04-11T18:25:31.022Z</time></trkpt><trkpt lat="41.9754912" lon="12.1291418"><ele>73.2</ele><time>2026-04-11T18:25:32.023Z</time></trkpt><trkpt lat="41.975569" lon="12.1291956"><ele>73.60000000000001</ele><time>2026-04-11T18:25:33.023Z</time></trkpt><trkpt lat="41.9756507" lon="12.1292385"><ele>74.0</ele><time>2026-04-11T18:25:34.022Z</time></trkpt><trkpt lat="41.9757265" lon="12.1292837"><ele>74.0</ele><time>2026-04-11T18:25:35.023Z</time></trkpt><trkpt lat="41.9758047" lon="12.1293362"><ele>74.0</ele><time>2026-04-11T18:25:36.023Z</time></trkpt><trkpt lat="41.9758861" lon="12.1293973"><ele>74.0</ele><time>2026-04-11T18:25:37.023Z</time></trkpt><trkpt lat="41.975964" lon="12.1294573"><ele>74.0</ele><time>2026-04-11T18:25:38.022Z</time></trkpt><trkpt lat="41.9760412" lon="12.1295032"><ele>74.0</ele><time>2026-04-11T18:25:39.023Z</time></trkpt><trkpt lat="41.9761336" lon="12.1295393"><ele>74.60000000000001</ele><time>2026-04-11T18:25:40.023Z</time></trkpt><trkpt lat="41.9762301" lon="12.1295852"><ele>75.2</ele><time>2026-04-11T18:25:41.023Z</time></trkpt><trkpt lat="41.9763133" lon="12.1296248"><ele>75.80000000000001</ele><time>2026-04-11T18:25:42.023Z</time></trkpt><trkpt lat="41.9763951" lon="12.1296726"><ele>76.4</ele><time>2026-04-11T18:25:43.023Z</time></trkpt><trkpt lat="41.976487" lon="12.1297177"><ele>77.0</ele><time>2026-04-11T18:25:44.022Z</time></trkpt><trkpt lat="41.9765779" lon="12.1297691"><ele>77.0</ele><time>2026-04-11T18:25:45.022Z</time></trkpt><trkpt lat="41.9766702" lon="12.1298186"><ele>77.0</ele><time>2026-04-11T18:25:46.023Z</time></trkpt><trkpt lat="41.9767523" lon="12.129883"><ele>77.0</ele><time>2026-04-11T18:25:47.023Z</time></trkpt><trkpt lat="41.9768328" lon="12.1299229"><ele>77.0</ele><time>2026-04-11T18:25:48.023Z</time></trkpt><trkpt lat="41.9769088" lon="12.1299712"><ele>77.0</ele><time>2026-04-11T18:25:49.023Z</time></trkpt><trkpt lat="41.9769872" lon="12.1300246"><ele>77.33333333333334</ele><time>2026-04-11T18:25:50.022Z</time></trkpt><trkpt lat="41.9770609" lon="12.130081"><ele>77.66666666666667</ele><time>2026-04-11T18:25:51.023Z</time></trkpt><trkpt lat="41.9771329" lon="12.1301358"><ele>78.0</ele><time>2026-04-11T18:25:52.023Z</time></trkpt><trkpt lat="41.9771997" lon="12.1301781"><ele>78.33333333333333</ele><time>2026-04-11T18:25:53.022Z</time></trkpt><trkpt lat="41.9772735" lon="12.1302166"><ele>78.66666666666666</ele><time>2026-04-11T18:25:54.023Z</time></trkpt><trkpt lat="41.9773493" lon="12.1302505"><ele>79.0</ele><time>2026-04-11T18:25:55.023Z</time></trkpt><trkpt lat="41.9774476" lon="12.1302951"><ele>79.0</ele><time>2026-04-11T18:25:57.023Z</time></trkpt><trkpt lat="41.9775148" lon="12.1303392"><ele>79.0</ele><time>2026-04-11T18:25:58.022Z</time></trkpt><trkpt lat="41.9775915" lon="12.1303882"><ele>79.0</ele><time>2026-04-11T18:25:59.023Z</time></trkpt><trkpt lat="41.9776691" lon="12.1304349"><ele>79.0</ele><time>2026-04-11T18:26:00.023Z</time></trkpt><trkpt lat="41.9777775" lon="12.1304907"><ele>79.0</ele><time>2026-04-11T18:26:01.023Z</time></trkpt><trkpt lat="41.9778638" lon="12.1305419"><ele>79.5</ele><time>2026-04-11T18:26:02.022Z</time></trkpt><trkpt lat="41.9779406" lon="12.1305979"><ele>80.0</ele><time>2026-04-11T18:26:03.022Z</time></trkpt><trkpt lat="41.978014" lon="12.1306394"><ele>80.5</ele><time>2026-04-11T18:26:04.023Z</time></trkpt><trkpt lat="41.9780851" lon="12.1307049"><ele>81.0</ele><time>2026-04-11T18:26:05.023Z</time></trkpt><trkpt lat="41.9781518" lon="12.1307518"><ele>81.5</ele><time>2026-04-11T18:26:06.022Z</time></trkpt><trkpt lat="41.9782263" lon="12.130794"><ele>82.0</ele><time>2026-04-11T18:26:07.023Z</time></trkpt><trkpt lat="41.9783021" lon="12.1308404"><ele>82.83333333333333</ele><time>2026-04-11T18:26:08.022Z</time></trkpt><trkpt lat="41.9783738" lon="12.130885"><ele>83.66666666666666</ele><time>2026-04-11T18:26:09.023Z</time></trkpt><trkpt lat="41.9784316" lon="12.1309343"><ele>84.5</ele><time>2026-04-11T18:26:10.022Z</time></trkpt><trkpt lat="41.9785416" lon="12.1310291"><ele>85.33333333333333</ele><time>2026-04-11T18:26:12.023Z</time></trkpt><trkpt lat="41.9785976" lon="12.1310944"><ele>86.16666666666667</ele><time>2026-04-11T18:26:13.023Z</time></trkpt><trkpt lat="41.9786756" lon="12.1311296"><ele>87.0</ele><time>2026-04-11T18:26:14.022Z</time></trkpt><trkpt lat="41.978766" lon="12.1311725"><ele>87.0</ele><time>2026-04-11T18:26:15.023Z</time></trkpt><trkpt lat="41.9788474" lon="12.1312257"><ele>87.0</ele><time>2026-04-11T18:26:16.022Z</time></trkpt><trkpt lat="41.9789209" lon="12.1312788"><ele>87.0</ele><time>2026-04-11T18:26:17.022Z</time></trkpt><trkpt lat="41.9789877" lon="12.1313218"><ele>87.0</ele><time>2026-04-11T18:26:18.022Z</time></trkpt><trkpt lat="41.9790541" lon="12.1313649"><ele>87.0</ele><time>2026-04-11T18:26:19.023Z</time></trkpt><trkpt lat="41.9791211" lon="12.1314072"><ele>87.0</ele><time>2026-04-11T18:26:20.022Z</time></trkpt><trkpt lat="41.9791873" lon="12.1314539"><ele>87.0</ele><time>2026-04-11T18:26:21.022Z</time></trkpt><trkpt lat="41.979257" lon="12.1314902"><ele>87.0</ele><time>2026-04-11T18:26:22.023Z</time></trkpt><trkpt lat="41.9793278" lon="12.1315398"><ele>87.0</ele><time>2026-04-11T18:26:23.023Z</time></trkpt><trkpt lat="41.9793995" lon="12.1315905"><ele>87.0</ele><time>2026-04-11T18:26:24.023Z</time></trkpt><trkpt lat="41.9794638" lon="12.1316382"><ele>87.0</ele><time>2026-04-11T18:26:25.023Z</time></trkpt><trkpt lat="41.9795312" lon="12.1316938"><ele>87.0</ele><time>2026-04-11T18:26:26.022Z</time></trkpt><trkpt lat="41.979614" lon="12.1317412"><ele>87.0</ele><time>2026-04-11T18:26:27.022Z</time></trkpt><trkpt lat="41.9796837" lon="12.131781"><ele>87.0</ele><time>2026-04-11T18:26:28.023Z</time></trkpt><trkpt lat="41.9797608" lon="12.1318214"><ele>87.0</ele><time>2026-04-11T18:26:29.022Z</time></trkpt><trkpt lat="41.9798405" lon="12.1318511"><ele>87.0</ele><time>2026-04-11T18:26:30.022Z</time></trkpt><trkpt lat="41.9799237" lon="12.1318944"><ele>87.0</ele><time>2026-04-11T18:26:31.022Z</time></trkpt><trkpt lat="41.9800095" lon="12.131955"><ele>87.0</ele><time>2026-04-11T18:26:32.023Z</time></trkpt><trkpt lat="41.9800817" lon="12.1320069"><ele>87.33333333333333</ele><time>2026-04-11T18:26:33.022Z</time></trkpt><trkpt lat="41.9801611" lon="12.1320485"><ele>87.66666666666667</ele><time>2026-04-11T18:26:34.022Z</time></trkpt><trkpt lat="41.9802409" lon="12.132098"><ele>88.0</ele><time>2026-04-11T18:26:35.022Z</time></trkpt><trkpt lat="41.9803267" lon="12.132142"><ele>88.33333333333334</ele><time>2026-04-11T18:26:36.022Z</time></trkpt><trkpt lat="41.980397" lon="12.1321841"><ele>88.66666666666667</ele><time>2026-04-11T18:26:37.023Z</time></trkpt><trkpt lat="41.9804767" lon="12.1322178"><ele>89.0</ele><time>2026-04-11T18:26:38.022Z</time></trkpt><trkpt lat="41.9805574" lon="12.1322543"><ele>89.0</ele><time>2026-04-11T18:26:39.022Z</time></trkpt><trkpt lat="41.980641" lon="12.1322925"><ele>89.0</ele><time>2026-04-11T18:26:40.022Z</time></trkpt><trkpt lat="41.9807205" lon="12.1323149"><ele>89.0</ele><time>2026-04-11T18:26:41.023Z</time></trkpt><trkpt lat="41.9808042" lon="12.1323363"><ele>89.0</ele><time>2026-04-11T18:26:42.023Z</time></trkpt><trkpt lat="41.9808863" lon="12.132336"><ele>89.0</ele><time>2026-04-11T18:26:43.022Z</time></trkpt><trkpt lat="41.9809705" lon="12.1323185"><ele>89.0</ele><time>2026-04-11T18:26:44.023Z</time></trkpt><trkpt lat="41.9810541" lon="12.1322915"><ele>89.2</ele><time>2026-04-11T18:26:45.023Z</time></trkpt><trkpt lat="41.9811455" lon="12.132291"><ele>89.4</ele><time>2026-04-11T18:26:46.023Z</time></trkpt><trkpt lat="41.9812306" lon="12.1322885"><ele>89.6</ele><time>2026-04-11T18:26:47.023Z</time></trkpt><trkpt lat="41.9813442" lon="12.1322848"><ele>89.8</ele><time>2026-04-11T18:26:49.023Z</time></trkpt><trkpt lat="41.9813959" lon="12.1323337"><ele>90.0</ele><time>2026-04-11T18:26:51.023Z</time></trkpt><trkpt lat="41.9814891" lon="12.1324187"><ele>89.83333333333333</ele><time>2026-04-11T18:26:53.023Z</time></trkpt><trkpt lat="41.9815452" lon="12.1324936"><ele>89.66666666666667</ele><time>2026-04-11T18:26:54.023Z</time></trkpt><trkpt lat="41.9815843" lon="12.1325897"><ele>89.5</ele><time>2026-04-11T18:26:55.023Z</time></trkpt><trkpt lat="41.9816232" lon="12.1326736"><ele>89.33333333333334</ele><time>2026-04-11T18:26:56.023Z</time></trkpt><trkpt lat="41.9816545" lon="12.1327659"><ele>89.16666666666667</ele><time>2026-04-11T18:26:57.022Z</time></trkpt><trkpt lat="41.9816849" lon="12.1328638"><ele>89.0</ele><time>2026-04-11T18:26:58.023Z</time></trkpt><trkpt lat="41.9817119" lon="12.1329435"><ele>89.0</ele><time>2026-04-11T18:26:59.022Z</time></trkpt><trkpt lat="41.9817567" lon="12.1330447"><ele>89.0</ele><time>2026-04-11T18:27:00.023Z</time></trkpt><trkpt lat="41.9818273" lon="12.1331212"><ele>89.0</ele><time>2026-04-11T18:27:01.023Z</time></trkpt><trkpt lat="41.9818853" lon="12.1331959"><ele>89.0</ele><time>2026-04-11T18:27:02.022Z</time></trkpt><trkpt lat="41.9819459" lon="12.133282"><ele>89.0</ele><time>2026-04-11T18:27:03.023Z</time></trkpt><trkpt lat="41.9820005" lon="12.1333689"><ele>89.0</ele><time>2026-04-11T18:27:04.023Z</time></trkpt><trkpt lat="41.9820544" lon="12.1334562"><ele>89.0</ele><time>2026-04-11T18:27:05.022Z</time></trkpt><trkpt lat="41.9821132" lon="12.133543"><ele>89.0</ele><time>2026-04-11T18:27:06.023Z</time></trkpt><trkpt lat="41.9821622" lon="12.1336357"><ele>89.0</ele><time>2026-04-11T18:27:07.023Z</time></trkpt><trkpt lat="41.9822149" lon="12.1337454"><ele>89.0</ele><time>2026-04-11T18:27:08.022Z</time></trkpt><trkpt lat="41.9822738" lon="12.1338334"><ele>89.0</ele><time>2026-04-11T18:27:09.022Z</time></trkpt><trkpt lat="41.9823305" lon="12.1339061"><ele>89.0</ele><time>2026-04-11T18:27:10.022Z</time></trkpt><trkpt lat="41.9823845" lon="12.1339822"><ele>89.0</ele><time>2026-04-11T18:27:11.022Z</time></trkpt><trkpt lat="41.9824264" lon="12.1340468"><ele>89.0</ele><time>2026-04-11T18:27:12.023Z</time></trkpt><trkpt lat="41.9824773" lon="12.1341309"><ele>89.0</ele><time>2026-04-11T18:27:13.023Z</time></trkpt><trkpt lat="41.982568" lon="12.1342231"><ele>89.0</ele><time>2026-04-11T18:27:15.022Z</time></trkpt><trkpt lat="41.9826186" lon="12.1343262"><ele>89.0</ele><time>2026-04-11T18:27:17.023Z</time></trkpt><trkpt lat="41.9826594" lon="12.1343945"><ele>89.0</ele><time>2026-04-11T18:27:18.023Z</time></trkpt><trkpt lat="41.9826928" lon="12.1344736"><ele>89.66666666666667</ele><time>2026-04-11T18:27:19.022Z</time></trkpt><trkpt lat="41.9827344" lon="12.1345454"><ele>90.33333333333334</ele><time>2026-04-11T18:27:20.022Z</time></trkpt><trkpt lat="41.9827756" lon="12.1346173"><ele>91.0</ele><time>2026-04-11T18:27:21.022Z</time></trkpt><trkpt lat="41.9828188" lon="12.1346853"><ele>91.66666666666667</ele><time>2026-04-11T18:27:22.022Z</time></trkpt><trkpt lat="41.9828615" lon="12.1347634"><ele>92.33333333333333</ele><time>2026-04-11T18:27:23.023Z</time></trkpt><trkpt lat="41.9829469" lon="12.1348981"><ele>93.0</ele><time>2026-04-11T18:27:25.023Z</time></trkpt><trkpt lat="41.9829902" lon="12.1349659"><ele>93.33333333333333</ele><time>2026-04-11T18:27:26.023Z</time></trkpt><trkpt lat="41.9830295" lon="12.1350332"><ele>93.66666666666667</ele><time>2026-04-11T18:27:27.023Z</time></trkpt><trkpt lat="41.9830738" lon="12.1351027"><ele>94.0</ele><time>2026-04-11T18:27:28.023Z</time></trkpt><trkpt lat="41.9831179" lon="12.1351733"><ele>94.33333333333334</ele><time>2026-04-11T18:27:29.023Z</time></trkpt><trkpt lat="41.9831647" lon="12.1352467"><ele>94.66666666666667</ele><time>2026-04-11T18:27:30.023Z</time></trkpt><trkpt lat="41.9832103" lon="12.1353144"><ele>95.0</ele><time>2026-04-11T18:27:31.023Z</time></trkpt><trkpt lat="41.9832908" lon="12.135426"><ele>94.8</ele><time>2026-04-11T18:27:33.023Z</time></trkpt><trkpt lat="41.9833733" lon="12.1355254"><ele>94.6</ele><time>2026-04-11T18:27:35.022Z</time></trkpt><trkpt lat="41.9834504" lon="12.1356152"><ele>94.4</ele><time>2026-04-11T18:27:37.022Z</time></trkpt><trkpt lat="41.9835523" lon="12.1356912"><ele>94.2</ele><time>2026-04-11T18:27:39.023Z</time></trkpt><trkpt lat="41.9835803" lon="12.1357673"><ele>94.0</ele><time>2026-04-11T18:27:40.022Z</time></trkpt><trkpt lat="41.9835922" lon="12.1358975"><ele>94.0</ele><time>2026-04-11T18:27:42.022Z</time></trkpt><trkpt lat="41.9835498" lon="12.136007"><ele>94.0</ele><time>2026-04-11T18:27:44.022Z</time></trkpt><trkpt lat="41.9834924" lon="12.1361074"><ele>94.0</ele><time>2026-04-11T18:27:46.023Z</time></trkpt><trkpt lat="41.9834061" lon="12.1361768"><ele>94.0</ele><time>2026-04-11T18:27:48.023Z</time></trkpt><trkpt lat="41.9833161" lon="12.1362799"><ele>94.0</ele><time>2026-04-11T18:27:50.022Z</time></trkpt><trkpt lat="41.9832612" lon="12.1363323"><ele>93.66666666666666</ele><time>2026-04-11T18:27:51.022Z</time></trkpt><trkpt lat="41.9832077" lon="12.1363946"><ele>93.33333333333333</ele><time>2026-04-11T18:27:52.022Z</time></trkpt><trkpt lat="41.983158" lon="12.1364556"><ele>93.0</ele><time>2026-04-11T18:27:53.023Z</time></trkpt><trkpt lat="41.983106" lon="12.1365155"><ele>92.66666666666667</ele><time>2026-04-11T18:27:54.022Z</time></trkpt><trkpt lat="41.9830484" lon="12.1365856"><ele>92.33333333333334</ele><time>2026-04-11T18:27:55.022Z</time></trkpt><trkpt lat="41.9830064" lon="12.1366519"><ele>92.0</ele><time>2026-04-11T18:27:56.022Z</time></trkpt><trkpt lat="41.9829576" lon="12.1367776"><ele>91.6</ele><time>2026-04-11T18:27:58.022Z</time></trkpt><trkpt lat="41.9829877" lon="12.1369"><ele>91.19999999999999</ele><time>2026-04-11T18:28:00.022Z</time></trkpt><trkpt lat="41.9830832" lon="12.1370067"><ele>90.8</ele><time>2026-04-11T18:28:02.022Z</time></trkpt><trkpt lat="41.9831471" lon="12.1370681"><ele>90.4</ele><time>2026-04-11T18:28:03.023Z</time></trkpt><trkpt lat="41.9832029" lon="12.1371359"><ele>90.0</ele><time>2026-04-11T18:28:04.023Z</time></trkpt><trkpt lat="41.9832599" lon="12.1372105"><ele>90.0</ele><time>2026-04-11T18:28:05.023Z</time></trkpt><trkpt lat="41.9833189" lon="12.1372905"><ele>90.0</ele><time>2026-04-11T18:28:06.022Z</time></trkpt><trkpt lat="41.9833801" lon="12.1373707"><ele>90.0</ele><time>2026-04-11T18:28:07.022Z</time></trkpt><trkpt lat="41.9834266" lon="12.1374306"><ele>90.0</ele><time>2026-04-11T18:28:08.023Z</time></trkpt><trkpt lat="41.983474" lon="12.137498"><ele>90.0</ele><time>2026-04-11T18:28:10.022Z</time></trkpt><trkpt lat="41.9835485" lon="12.1375732"><ele>90.0</ele><time>2026-04-11T18:28:19.023Z</time></trkpt><trkpt lat="41.983588" lon="12.1377079"><ele>90.4</ele><time>2026-04-11T18:28:21.022Z</time></trkpt><trkpt lat="41.9836239" lon="12.1378538"><ele>90.8</ele><time>2026-04-11T18:28:23.022Z</time></trkpt><trkpt lat="41.9836487" lon="12.1380018"><ele>91.19999999999999</ele><time>2026-04-11T18:28:25.023Z</time></trkpt><trkpt lat="41.9836543" lon="12.1380893"><ele>91.6</ele><time>2026-04-11T18:28:26.023Z</time></trkpt><trkpt lat="41.9836423" lon="12.1382597"><ele>92.0</ele><time>2026-04-11T18:28:28.022Z</time></trkpt><trkpt lat="41.9836231" lon="12.1383838"><ele>92.19999999999999</ele><time>2026-04-11T18:28:29.023Z</time></trkpt><trkpt lat="41.9835971" lon="12.1385032"><ele>92.4</ele><time>2026-04-11T18:28:30.022Z</time></trkpt><trkpt lat="41.9835893" lon="12.1386333"><ele>92.6</ele><time>2026-04-11T18:28:31.022Z</time></trkpt><trkpt lat="41.9835971" lon="12.1387633"><ele>92.80000000000001</ele><time>2026-04-11T18:28:32.023Z</time></trkpt><trkpt lat="41.9835952" lon="12.1389092"><ele>93.0</ele><time>2026-04-11T18:28:33.023Z</time></trkpt><trkpt lat="41.983592" lon="12.139053"><ele>93.2</ele><time>2026-04-11T18:28:34.022Z</time></trkpt><trkpt lat="41.9835897" lon="12.139183"><ele>93.4</ele><time>2026-04-11T18:28:35.022Z</time></trkpt><trkpt lat="41.9835969" lon="12.1393126"><ele>93.60000000000001</ele><time>2026-04-11T18:28:36.022Z</time></trkpt><trkpt lat="41.9836087" lon="12.1394376"><ele>93.80000000000001</ele><time>2026-04-11T18:28:37.022Z</time></trkpt><trkpt lat="41.9836307" lon="12.1395534"><ele>94.0</ele><time>2026-04-11T18:28:38.023Z</time></trkpt><trkpt lat="41.98366" lon="12.1396699"><ele>94.0</ele><time>2026-04-11T18:28:39.022Z</time></trkpt><trkpt lat="41.9837084" lon="12.1397727"><ele>94.0</ele><time>2026-04-11T18:28:40.022Z</time></trkpt><trkpt lat="41.9837684" lon="12.139867"><ele>94.0</ele><time>2026-04-11T18:28:41.022Z</time></trkpt><trkpt lat="41.9838402" lon="12.1399607"><ele>94.0</ele><time>2026-04-11T18:28:42.023Z</time></trkpt><trkpt lat="41.9839122" lon="12.1400528"><ele>94.0</ele><time>2026-04-11T18:28:43.022Z</time></trkpt><trkpt lat="41.9840081" lon="12.1400867"><ele>94.16666666666666</ele><time>2026-04-11T18:28:44.023Z</time></trkpt><trkpt lat="41.984097" lon="12.1400905"><ele>94.33333333333333</ele><time>2026-04-11T18:28:45.023Z</time></trkpt><trkpt lat="41.9841448" lon="12.1401805"><ele>94.5</ele><time>2026-04-11T18:28:46.022Z</time></trkpt><trkpt lat="41.9842036" lon="12.140259"><ele>94.66666666666667</ele><time>2026-04-11T18:28:47.022Z</time></trkpt><trkpt lat="41.9842485" lon="12.1403652"><ele>94.83333333333334</ele><time>2026-04-11T18:28:48.022Z</time></trkpt><trkpt lat="41.9842611" lon="12.1404952"><ele>95.0</ele><time>2026-04-11T18:28:49.022Z</time></trkpt><trkpt lat="41.9842542" lon="12.1406363"><ele>94.4</ele><time>2026-04-11T18:28:50.022Z</time></trkpt><trkpt lat="41.9842535" lon="12.1407806"><ele>93.8</ele><time>2026-04-11T18:28:51.022Z</time></trkpt><trkpt lat="41.9842535" lon="12.1408863"><ele>93.19999999999999</ele><time>2026-04-11T18:28:52.023Z</time></trkpt><trkpt lat="41.9842571" lon="12.1410216"><ele>92.6</ele><time>2026-04-11T18:28:53.023Z</time></trkpt><trkpt lat="41.9842525" lon="12.1411502"><ele>92.0</ele><time>2026-04-11T18:28:54.023Z</time></trkpt><trkpt lat="41.9842495" lon="12.1412677"><ele>92.0</ele><time>2026-04-11T18:28:55.022Z</time></trkpt><trkpt lat="41.9842474" lon="12.1413959"><ele>92.0</ele><time>2026-04-11T18:28:56.023Z</time></trkpt><trkpt lat="41.9842574" lon="12.1415224"><ele>92.0</ele><time>2026-04-11T18:28:57.022Z</time></trkpt><trkpt lat="41.9842584" lon="12.1416407"><ele>92.0</ele><time>2026-04-11T18:28:58.023Z</time></trkpt><trkpt lat="41.9842734" lon="12.1417465"><ele>92.0</ele><time>2026-04-11T18:28:59.022Z</time></trkpt><trkpt lat="41.9843013" lon="12.1418518"><ele>92.0</ele><time>2026-04-11T18:29:00.022Z</time></trkpt><trkpt lat="41.9843358" lon="12.1419634"><ele>90.83333333333334</ele><time>2026-04-11T18:29:01.023Z</time></trkpt><trkpt lat="41.9843709" lon="12.1420663"><ele>89.66666666666667</ele><time>2026-04-11T18:29:02.023Z</time></trkpt><trkpt lat="41.984416" lon="12.1421595"><ele>88.5</ele><time>2026-04-11T18:29:03.023Z</time></trkpt><trkpt lat="41.9844545" lon="12.1422489"><ele>87.33333333333333</ele><time>2026-04-11T18:29:04.023Z</time></trkpt><trkpt lat="41.9844829" lon="12.1423341"><ele>86.16666666666666</ele><time>2026-04-11T18:29:05.022Z</time></trkpt><trkpt lat="41.9845131" lon="12.1424606"><ele>85.0</ele><time>2026-04-11T18:29:07.023Z</time></trkpt><trkpt lat="41.9845141" lon="12.1425525"><ele>82.33333333333333</ele><time>2026-04-11T18:29:10.023Z</time></trkpt><trkpt lat="41.9845591" lon="12.1426388"><ele>79.66666666666666</ele><time>2026-04-11T18:29:15.022Z</time></trkpt><trkpt lat="41.9846711" lon="12.1427203"><ele>77.0</ele><time>2026-04-11T18:29:17.022Z</time></trkpt><trkpt lat="41.9847241" lon="12.1427715"><ele>74.33333333333333</ele><time>2026-04-11T18:29:18.023Z</time></trkpt><trkpt lat="41.9847876" lon="12.1428239"><ele>71.66666666666667</ele><time>2026-04-11T18:29:19.023Z</time></trkpt><trkpt lat="41.984863" lon="12.142891"><ele>69.0</ele><time>2026-04-11T18:29:20.022Z</time></trkpt><trkpt lat="41.9849502" lon="12.1429526"><ele>70.25</ele><time>2026-04-11T18:29:21.022Z</time></trkpt><trkpt lat="41.9850291" lon="12.143021"><ele>71.5</ele><time>2026-04-11T18:29:22.022Z</time></trkpt><trkpt lat="41.9851164" lon="12.1431054"><ele>72.75</ele><time>2026-04-11T18:29:23.023Z</time></trkpt><trkpt lat="41.98521" lon="12.1432073"><ele>74.0</ele><time>2026-04-11T18:29:24.022Z</time></trkpt><trkpt lat="41.9853111" lon="12.1433308"><ele>74.0</ele><time>2026-04-11T18:29:25.023Z</time></trkpt><trkpt lat="41.9854116" lon="12.1434527"><ele>74.0</ele><time>2026-04-11T18:29:26.023Z</time></trkpt><trkpt lat="41.9855129" lon="12.1435784"><ele>74.0</ele><time>2026-04-11T18:29:27.023Z</time></trkpt><trkpt lat="41.9856261" lon="12.1436996"><ele>74.0</ele><time>2026-04-11T18:29:28.023Z</time></trkpt><trkpt lat="41.9857334" lon="12.143817"><ele>75.5</ele><time>2026-04-11T18:29:29.022Z</time></trkpt><trkpt lat="41.9858465" lon="12.143928"><ele>77.0</ele><time>2026-04-11T18:29:30.022Z</time></trkpt><trkpt lat="41.9859533" lon="12.144038"><ele>78.5</ele><time>2026-04-11T18:29:31.023Z</time></trkpt><trkpt lat="41.9860563" lon="12.1441476"><ele>80.0</ele><time>2026-04-11T18:29:32.023Z</time></trkpt><trkpt lat="41.986156" lon="12.1442608"><ele>80.0</ele><time>2026-04-11T18:29:33.022Z</time></trkpt><trkpt lat="41.9862472" lon="12.1443911"><ele>80.0</ele><time>2026-04-11T18:29:34.023Z</time></trkpt><trkpt lat="41.9863298" lon="12.1445331"><ele>80.0</ele><time>2026-04-11T18:29:35.023Z</time></trkpt><trkpt lat="41.9864034" lon="12.1446817"><ele>80.0</ele><time>2026-04-11T18:29:36.023Z</time></trkpt><trkpt lat="41.9864724" lon="12.1448413"><ele>81.75</ele><time>2026-04-11T18:29:37.023Z</time></trkpt><trkpt lat="41.986538" lon="12.1450035"><ele>83.5</ele><time>2026-04-11T18:29:38.022Z</time></trkpt><trkpt lat="41.9865937" lon="12.1451644"><ele>85.25</ele><time>2026-04-11T18:29:39.022Z</time></trkpt><trkpt lat="41.9866504" lon="12.1453299"><ele>87.0</ele><time>2026-04-11T18:29:40.023Z</time></trkpt><trkpt lat="41.9866973" lon="12.1454931"><ele>87.0</ele><time>2026-04-11T18:29:41.022Z</time></trkpt><trkpt lat="41.9867471" lon="12.1456567"><ele>87.0</ele><time>2026-04-11T18:29:42.022Z</time></trkpt><trkpt lat="41.9868051" lon="12.1458059"><ele>87.0</ele><time>2026-04-11T18:29:43.023Z</time></trkpt><trkpt lat="41.9868644" lon="12.1459615"><ele>87.0</ele><time>2026-04-11T18:29:44.022Z</time></trkpt><trkpt lat="41.9869274" lon="12.1461158"><ele>82.75</ele><time>2026-04-11T18:29:45.022Z</time></trkpt><trkpt lat="41.9869961" lon="12.1462752"><ele>78.5</ele><time>2026-04-11T18:29:46.023Z</time></trkpt><trkpt lat="41.9870648" lon="12.1464336"><ele>74.25</ele><time>2026-04-11T18:29:47.023Z</time></trkpt><trkpt lat="41.9871334" lon="12.1465985"><ele>70.0</ele><time>2026-04-11T18:29:48.023Z</time></trkpt><trkpt lat="41.987206" lon="12.1467438"><ele>69.0</ele><time>2026-04-11T18:29:49.023Z</time></trkpt><trkpt lat="41.9872805" lon="12.1468896"><ele>68.0</ele><time>2026-04-11T18:29:50.022Z</time></trkpt><trkpt lat="41.9873508" lon="12.1470412"><ele>67.0</ele><time>2026-04-11T18:29:51.022Z</time></trkpt><trkpt lat="41.9874173" lon="12.1471991"><ele>66.0</ele><time>2026-04-11T18:29:52.022Z</time></trkpt><trkpt lat="41.9874807" lon="12.1473616"><ele>70.75</ele><time>2026-04-11T18:29:53.022Z</time></trkpt><trkpt lat="41.9875449" lon="12.1475286"><ele>75.5</ele><time>2026-04-11T18:29:54.022Z</time></trkpt><trkpt lat="41.9876134" lon="12.1477018"><ele>80.25</ele><time>2026-04-11T18:29:55.022Z</time></trkpt><trkpt lat="41.9876865" lon="12.1478692"><ele>85.0</ele><time>2026-04-11T18:29:56.023Z</time></trkpt><trkpt lat="41.9877616" lon="12.1480301"><ele>85.0</ele><time>2026-04-11T18:29:57.022Z</time></trkpt><trkpt lat="41.9878338" lon="12.1481965"><ele>85.0</ele><time>2026-04-11T18:29:58.022Z</time></trkpt><trkpt lat="41.9879125" lon="12.1483569"><ele>85.0</ele><time>2026-04-11T18:29:59.022Z</time></trkpt><trkpt lat="41.9880101" lon="12.1485058"><ele>85.0</ele><time>2026-04-11T18:30:00.022Z</time></trkpt><trkpt lat="41.9881064" lon="12.1486455"><ele>84.75</ele><time>2026-04-11T18:30:01.023Z</time></trkpt><trkpt lat="41.9881806" lon="12.1488062"><ele>84.5</ele><time>2026-04-11T18:30:02.023Z</time></trkpt><trkpt lat="41.9882631" lon="12.148968"><ele>84.25</ele><time>2026-04-11T18:30:03.023Z</time></trkpt><trkpt lat="41.9883722" lon="12.1491117"><ele>84.0</ele><time>2026-04-11T18:30:04.023Z</time></trkpt><trkpt lat="41.9884848" lon="12.1492464"><ele>84.0</ele><time>2026-04-11T18:30:05.023Z</time></trkpt><trkpt lat="41.988601" lon="12.1493736"><ele>84.0</ele><time>2026-04-11T18:30:06.022Z</time></trkpt><trkpt lat="41.9887144" lon="12.1495078"><ele>84.0</ele><time>2026-04-11T18:30:07.023Z</time></trkpt><trkpt lat="41.9888266" lon="12.1496345"><ele>84.0</ele><time>2026-04-11T18:30:08.023Z</time></trkpt><trkpt lat="41.9889322" lon="12.149764"><ele>81.75</ele><time>2026-04-11T18:30:09.022Z</time></trkpt><trkpt lat="41.9890365" lon="12.1498879"><ele>79.5</ele><time>2026-04-11T18:30:10.023Z</time></trkpt><trkpt lat="41.9891355" lon="12.1500132"><ele>77.25</ele><time>2026-04-11T18:30:11.023Z</time></trkpt><trkpt lat="41.9892332" lon="12.1501379"><ele>75.0</ele><time>2026-04-11T18:30:12.023Z</time></trkpt><trkpt lat="41.9893283" lon="12.1502624"><ele>75.0</ele><time>2026-04-11T18:30:13.023Z</time></trkpt><trkpt lat="41.9894189" lon="12.1503822"><ele>75.0</ele><time>2026-04-11T18:30:14.023Z</time></trkpt><trkpt lat="41.9895126" lon="12.1504973"><ele>75.0</ele><time>2026-04-11T18:30:15.022Z</time></trkpt><trkpt lat="41.9896031" lon="12.1506187"><ele>75.0</ele><time>2026-04-11T18:30:16.023Z</time></trkpt><trkpt lat="41.9896733" lon="12.1507518"><ele>73.0</ele><time>2026-04-11T18:30:17.023Z</time></trkpt><trkpt lat="41.989764" lon="12.1508897"><ele>71.0</ele><time>2026-04-11T18:30:18.022Z</time></trkpt><trkpt lat="41.9898645" lon="12.1510222"><ele>69.0</ele><time>2026-04-11T18:30:19.023Z</time></trkpt><trkpt lat="41.9899465" lon="12.1511337"><ele>67.0</ele><time>2026-04-11T18:30:20.023Z</time></trkpt><trkpt lat="41.9900126" lon="12.1512353"><ele>67.0</ele><time>2026-04-11T18:30:21.023Z</time></trkpt><trkpt lat="41.990063" lon="12.1513029"><ele>67.0</ele><time>2026-04-11T18:30:22.022Z</time></trkpt><trkpt lat="41.9900864" lon="12.1513827"><ele>67.0</ele><time>2026-04-11T18:30:23.023Z</time></trkpt><trkpt lat="41.990039" lon="12.1514828"><ele>67.0</ele><time>2026-04-11T18:30:25.023Z</time></trkpt><trkpt lat="41.9899344" lon="12.151536"><ele>67.0</ele><time>2026-04-11T18:30:27.023Z</time></trkpt><trkpt lat="41.9898454" lon="12.1515464"><ele>67.0</ele><time>2026-04-11T18:30:28.022Z</time></trkpt><trkpt lat="41.9897578" lon="12.1515649"><ele>66.4</ele><time>2026-04-11T18:30:29.023Z</time></trkpt><trkpt lat="41.9896628" lon="12.1515816"><ele>65.80000000000001</ele><time>2026-04-11T18:30:30.022Z</time></trkpt><trkpt lat="41.9895546" lon="12.151608"><ele>65.2</ele><time>2026-04-11T18:30:31.022Z</time></trkpt><trkpt lat="41.9894487" lon="12.1516453"><ele>64.60000000000001</ele><time>2026-04-11T18:30:32.023Z</time></trkpt><trkpt lat="41.989326" lon="12.1516963"><ele>64.0</ele><time>2026-04-11T18:30:33.023Z</time></trkpt><trkpt lat="41.9892145" lon="12.151745"><ele>64.0</ele><time>2026-04-11T18:30:34.023Z</time></trkpt><trkpt lat="41.9890968" lon="12.1517877"><ele>64.0</ele><time>2026-04-11T18:30:35.023Z</time></trkpt><trkpt lat="41.9889738" lon="12.1518302"><ele>64.0</ele><time>2026-04-11T18:30:36.023Z</time></trkpt><trkpt lat="41.988849" lon="12.15186"><ele>64.0</ele><time>2026-04-11T18:30:37.023Z</time></trkpt><trkpt lat="41.988732" lon="12.1518972"><ele>64.0</ele><time>2026-04-11T18:30:38.023Z</time></trkpt><trkpt lat="41.9886088" lon="12.1519359"><ele>64.0</ele><time>2026-04-11T18:30:39.022Z</time></trkpt><trkpt lat="41.9884842" lon="12.15198"><ele>64.0</ele><time>2026-04-11T18:30:40.023Z</time></trkpt><trkpt lat="41.9883658" lon="12.1520235"><ele>64.0</ele><time>2026-04-11T18:30:41.023Z</time></trkpt><trkpt lat="41.9882578" lon="12.1520658"><ele>64.0</ele><time>2026-04-11T18:30:42.022Z</time></trkpt><trkpt lat="41.9881633" lon="12.1520887"><ele>64.0</ele><time>2026-04-11T18:30:43.023Z</time></trkpt><trkpt lat="41.9880597" lon="12.1521203"><ele>64.0</ele><time>2026-04-11T18:30:44.022Z</time></trkpt><trkpt lat="41.9879629" lon="12.1521505"><ele>64.0</ele><time>2026-04-11T18:30:45.023Z</time></trkpt><trkpt lat="41.9878754" lon="12.1522002"><ele>64.0</ele><time>2026-04-11T18:30:46.023Z</time></trkpt><trkpt lat="41.9877675" lon="12.1522605"><ele>64.0</ele><time>2026-04-11T18:30:47.023Z</time></trkpt><trkpt lat="41.9876489" lon="12.1523369"><ele>64.0</ele><time>2026-04-11T18:30:48.022Z</time></trkpt><trkpt lat="41.987557" lon="12.1524187"><ele>64.0</ele><time>2026-04-11T18:30:49.022Z</time></trkpt><trkpt lat="41.9874779" lon="12.1525056"><ele>64.0</ele><time>2026-04-11T18:30:50.023Z</time></trkpt><trkpt lat="41.9873924" lon="12.1525906"><ele>66.25</ele><time>2026-04-11T18:30:51.022Z</time></trkpt><trkpt lat="41.9873003" lon="12.1526874"><ele>68.5</ele><time>2026-04-11T18:30:52.022Z</time></trkpt><trkpt lat="41.9872066" lon="12.1527855"><ele>70.75</ele><time>2026-04-11T18:30:53.023Z</time></trkpt><trkpt lat="41.987116" lon="12.1528776"><ele>73.0</ele><time>2026-04-11T18:30:54.023Z</time></trkpt><trkpt lat="41.9870258" lon="12.1529706"><ele>73.0</ele><time>2026-04-11T18:30:55.023Z</time></trkpt><trkpt lat="41.9869384" lon="12.1530616"><ele>73.0</ele><time>2026-04-11T18:30:56.023Z</time></trkpt><trkpt lat="41.9868529" lon="12.1531567"><ele>73.0</ele><time>2026-04-11T18:30:57.022Z</time></trkpt><trkpt lat="41.986766" lon="12.1532605"><ele>73.0</ele><time>2026-04-11T18:30:58.022Z</time></trkpt><trkpt lat="41.9866815" lon="12.153367"><ele>76.0</ele><time>2026-04-11T18:30:59.023Z</time></trkpt><trkpt lat="41.9865966" lon="12.1534779"><ele>79.0</ele><time>2026-04-11T18:31:00.023Z</time></trkpt><trkpt lat="41.9865163" lon="12.1535855"><ele>82.0</ele><time>2026-04-11T18:31:01.023Z</time></trkpt><trkpt lat="41.9864332" lon="12.1536827"><ele>85.0</ele><time>2026-04-11T18:31:02.022Z</time></trkpt><trkpt lat="41.9863565" lon="12.1537715"><ele>88.0</ele><time>2026-04-11T18:31:03.023Z</time></trkpt><trkpt lat="41.9862894" lon="12.1538385"><ele>88.0</ele><time>2026-04-11T18:31:04.022Z</time></trkpt><trkpt lat="41.9862192" lon="12.1539059"><ele>88.0</ele><time>2026-04-11T18:31:06.023Z</time></trkpt><trkpt lat="41.9861599" lon="12.153947"><ele>88.0</ele><time>2026-04-11T18:31:09.023Z</time></trkpt><trkpt lat="41.9860811" lon="12.1539777"><ele>88.0</ele><time>2026-04-11T18:31:12.022Z</time></trkpt><trkpt lat="41.9859973" lon="12.1540552"><ele>88.0</ele><time>2026-04-11T18:31:14.023Z</time></trkpt><trkpt lat="41.9858802" lon="12.1540943"><ele>90.16666666666666</ele><time>2026-04-11T18:31:16.022Z</time></trkpt><trkpt lat="41.9858078" lon="12.1540816"><ele>92.33333333333333</ele><time>2026-04-11T18:31:17.022Z</time></trkpt><trkpt lat="41.9857283" lon="12.1540685"><ele>94.5</ele><time>2026-04-11T18:31:18.023Z</time></trkpt><trkpt lat="41.9856603" lon="12.1540556"><ele>96.66666666666666</ele><time>2026-04-11T18:31:19.023Z</time></trkpt><trkpt lat="41.9855622" lon="12.1540449"><ele>98.83333333333333</ele><time>2026-04-11T18:31:21.022Z</time></trkpt><trkpt lat="41.9854744" lon="12.154029"><ele>101.0</ele><time>2026-04-11T18:31:23.022Z</time></trkpt><trkpt lat="41.9853554" lon="12.1540223"><ele>101.6</ele><time>2026-04-11T18:31:25.023Z</time></trkpt><trkpt lat="41.9852376" lon="12.1539982"><ele>102.19999999999999</ele><time>2026-04-11T18:31:27.022Z</time></trkpt><trkpt lat="41.9851749" lon="12.153951"><ele>102.80000000000001</ele><time>2026-04-11T18:31:30.022Z</time></trkpt><trkpt lat="41.9851377" lon="12.1538282"><ele>103.4</ele><time>2026-04-11T18:31:33.023Z</time></trkpt><trkpt lat="41.9851134" lon="12.1536961"><ele>104.0</ele><time>2026-04-11T18:31:35.023Z</time></trkpt><trkpt lat="41.9850986" lon="12.1536081"><ele>104.0</ele><time>2026-04-11T18:31:36.022Z</time></trkpt><trkpt lat="41.9850778" lon="12.1535128"><ele>104.0</ele><time>2026-04-11T18:31:37.023Z</time></trkpt><trkpt lat="41.9850564" lon="12.1533803"><ele>104.0</ele><time>2026-04-11T18:31:38.023Z</time></trkpt><trkpt lat="41.9850345" lon="12.1532412"><ele>104.0</ele><time>2026-04-11T18:31:39.022Z</time></trkpt><trkpt lat="41.985004" lon="12.1531079"><ele>104.0</ele><time>2026-04-11T18:31:40.022Z</time></trkpt><trkpt lat="41.9849809" lon="12.1529616"><ele>103.25</ele><time>2026-04-11T18:31:41.022Z</time></trkpt><trkpt lat="41.9849646" lon="12.1528124"><ele>102.5</ele><time>2026-04-11T18:31:42.022Z</time></trkpt><trkpt lat="41.9849576" lon="12.1526616"><ele>101.75</ele><time>2026-04-11T18:31:43.022Z</time></trkpt><trkpt lat="41.9849604" lon="12.1525018"><ele>101.0</ele><time>2026-04-11T18:31:44.023Z</time></trkpt><trkpt lat="41.9849701" lon="12.1523299"><ele>100.0</ele><time>2026-04-11T18:31:45.023Z</time></trkpt><trkpt lat="41.9849764" lon="12.1521497"><ele>99.0</ele><time>2026-04-11T18:31:46.022Z</time></trkpt><trkpt lat="41.984978" lon="12.1519647"><ele>98.0</ele><time>2026-04-11T18:31:47.022Z</time></trkpt><trkpt lat="41.984984" lon="12.1517754"><ele>97.0</ele><time>2026-04-11T18:31:48.023Z</time></trkpt><trkpt lat="41.9849962" lon="12.151587"><ele>97.25</ele><time>2026-04-11T18:31:49.022Z</time></trkpt><trkpt lat="41.9850042" lon="12.1514013"><ele>97.5</ele><time>2026-04-11T18:31:50.023Z</time></trkpt><trkpt lat="41.9850111" lon="12.1512238"><ele>97.75</ele><time>2026-04-11T18:31:51.023Z</time></trkpt><trkpt lat="41.9850174" lon="12.1510299"><ele>98.0</ele><time>2026-04-11T18:31:52.023Z</time></trkpt><trkpt lat="41.9850229" lon="12.150861"><ele>97.83333333333333</ele><time>2026-04-11T18:31:53.022Z</time></trkpt><trkpt lat="41.9850137" lon="12.150737"><ele>97.66666666666666</ele><time>2026-04-11T18:31:54.023Z</time></trkpt><trkpt lat="41.9850202" lon="12.1506329"><ele>97.5</ele><time>2026-04-11T18:31:55.023Z</time></trkpt><trkpt lat="41.9850855" lon="12.1505971"><ele>97.33333333333334</ele><time>2026-04-11T18:31:58.023Z</time></trkpt><trkpt lat="41.9850742" lon="12.1505031"><ele>97.16666666666667</ele><time>2026-04-11T18:32:07.022Z</time></trkpt><trkpt lat="41.9850402" lon="12.1503899"><ele>97.0</ele><time>2026-04-11T18:32:10.022Z</time></trkpt><trkpt lat="41.9850162" lon="12.1502354"><ele>96.8</ele><time>2026-04-11T18:32:12.023Z</time></trkpt><trkpt lat="41.9849925" lon="12.1501341"><ele>96.6</ele><time>2026-04-11T18:32:13.022Z</time></trkpt><trkpt lat="41.9849698" lon="12.1500182"><ele>96.39999999999999</ele><time>2026-04-11T18:32:14.022Z</time></trkpt><trkpt lat="41.9849335" lon="12.1498999"><ele>96.19999999999999</ele><time>2026-04-11T18:32:15.022Z</time></trkpt><trkpt lat="41.9848838" lon="12.1497701"><ele>96.0</ele><time>2026-04-11T18:32:16.022Z</time></trkpt><trkpt lat="41.9848273" lon="12.149622"><ele>96.5</ele><time>2026-04-11T18:32:17.023Z</time></trkpt><trkpt lat="41.9847678" lon="12.14948"><ele>97.0</ele><time>2026-04-11T18:32:18.023Z</time></trkpt><trkpt lat="41.9847078" lon="12.1493303"><ele>97.5</ele><time>2026-04-11T18:32:19.023Z</time></trkpt><trkpt lat="41.9846487" lon="12.1491979"><ele>98.0</ele><time>2026-04-11T18:32:20.022Z</time></trkpt><trkpt lat="41.9845862" lon="12.1490639"><ele>98.5</ele><time>2026-04-11T18:32:21.023Z</time></trkpt><trkpt lat="41.9845193" lon="12.1489263"><ele>99.0</ele><time>2026-04-11T18:32:22.022Z</time></trkpt><trkpt lat="41.9844503" lon="12.1487919"><ele>99.5</ele><time>2026-04-11T18:32:23.022Z</time></trkpt><trkpt lat="41.9843754" lon="12.148654"><ele>100.0</ele><time>2026-04-11T18:32:24.022Z</time></trkpt><trkpt lat="41.9842956" lon="12.1485362"><ele>100.0</ele><time>2026-04-11T18:32:25.023Z</time></trkpt><trkpt lat="41.9842057" lon="12.1484363"><ele>100.0</ele><time>2026-04-11T18:32:26.023Z</time></trkpt><trkpt lat="41.9841224" lon="12.1483478"><ele>100.0</ele><time>2026-04-11T18:32:27.023Z</time></trkpt><trkpt lat="41.9840281" lon="12.1482674"><ele>100.0</ele><time>2026-04-11T18:32:28.023Z</time></trkpt><trkpt lat="41.9839248" lon="12.1482013"><ele>100.0</ele><time>2026-04-11T18:32:29.022Z</time></trkpt><trkpt lat="41.9838195" lon="12.1481286"><ele>100.0</ele><time>2026-04-11T18:32:30.022Z</time></trkpt><trkpt lat="41.983707" lon="12.1480516"><ele>100.0</ele><time>2026-04-11T18:32:31.022Z</time></trkpt><trkpt lat="41.9835916" lon="12.1479689"><ele>100.0</ele><time>2026-04-11T18:32:32.023Z</time></trkpt><trkpt lat="41.9834771" lon="12.1478877"><ele>100.0</ele><time>2026-04-11T18:32:33.023Z</time></trkpt><trkpt lat="41.9833656" lon="12.1478131"><ele>99.0</ele><time>2026-04-11T18:32:34.023Z</time></trkpt><trkpt lat="41.9832512" lon="12.1477366"><ele>98.0</ele><time>2026-04-11T18:32:35.023Z</time></trkpt><trkpt lat="41.9831381" lon="12.1476587"><ele>97.0</ele><time>2026-04-11T18:32:36.023Z</time></trkpt><trkpt lat="41.9830152" lon="12.1475856"><ele>96.0</ele><time>2026-04-11T18:32:37.022Z</time></trkpt><trkpt lat="41.9828866" lon="12.1475225"><ele>96.0</ele><time>2026-04-11T18:32:38.023Z</time></trkpt><trkpt lat="41.9827546" lon="12.147458"><ele>96.0</ele><time>2026-04-11T18:32:39.023Z</time></trkpt><trkpt lat="41.9826289" lon="12.1473909"><ele>96.0</ele><time>2026-04-11T18:32:40.022Z</time></trkpt><trkpt lat="41.9824973" lon="12.1473154"><ele>96.0</ele><time>2026-04-11T18:32:41.022Z</time></trkpt><trkpt lat="41.9823697" lon="12.1472557"><ele>95.75</ele><time>2026-04-11T18:32:42.023Z</time></trkpt><trkpt lat="41.9822439" lon="12.1471775"><ele>95.5</ele><time>2026-04-11T18:32:43.022Z</time></trkpt><trkpt lat="41.9821122" lon="12.1470934"><ele>95.25</ele><time>2026-04-11T18:32:44.022Z</time></trkpt><trkpt lat="41.9819832" lon="12.1470278"><ele>95.0</ele><time>2026-04-11T18:32:45.023Z</time></trkpt><trkpt lat="41.9818521" lon="12.1469693"><ele>95.0</ele><time>2026-04-11T18:32:46.022Z</time></trkpt><trkpt lat="41.9817209" lon="12.1469138"><ele>95.0</ele><time>2026-04-11T18:32:47.023Z</time></trkpt><trkpt lat="41.9815815" lon="12.1468432"><ele>95.0</ele><time>2026-04-11T18:32:48.023Z</time></trkpt><trkpt lat="41.981462" lon="12.1467958"><ele>95.0</ele><time>2026-04-11T18:32:49.022Z</time></trkpt><trkpt lat="41.9813498" lon="12.1467391"><ele>94.5</ele><time>2026-04-11T18:32:50.022Z</time></trkpt><trkpt lat="41.981244" lon="12.1466669"><ele>94.0</ele><time>2026-04-11T18:32:51.022Z</time></trkpt><trkpt lat="41.9811389" lon="12.1465822"><ele>93.5</ele><time>2026-04-11T18:32:52.023Z</time></trkpt><trkpt lat="41.9810364" lon="12.146481"><ele>93.0</ele><time>2026-04-11T18:32:53.023Z</time></trkpt><trkpt lat="41.980932" lon="12.1463893"><ele>92.0</ele><time>2026-04-11T18:32:54.023Z</time></trkpt><trkpt lat="41.9808319" lon="12.146293"><ele>91.0</ele><time>2026-04-11T18:32:55.023Z</time></trkpt><trkpt lat="41.9807317" lon="12.1462047"><ele>90.0</ele><time>2026-04-11T18:32:56.022Z</time></trkpt><trkpt lat="41.9806291" lon="12.1461127"><ele>89.0</ele><time>2026-04-11T18:32:57.023Z</time></trkpt><trkpt lat="41.980525" lon="12.146024"><ele>89.0</ele><time>2026-04-11T18:32:58.022Z</time></trkpt><trkpt lat="41.9804213" lon="12.1459414"><ele>89.0</ele><time>2026-04-11T18:32:59.023Z</time></trkpt><trkpt lat="41.9803179" lon="12.1458601"><ele>89.0</ele><time>2026-04-11T18:33:00.022Z</time></trkpt><trkpt lat="41.9802198" lon="12.1457698"><ele>89.0</ele><time>2026-04-11T18:33:01.022Z</time></trkpt><trkpt lat="41.9801164" lon="12.1456775"><ele>88.5</ele><time>2026-04-11T18:33:02.023Z</time></trkpt><trkpt lat="41.9800079" lon="12.1455735"><ele>88.0</ele><time>2026-04-11T18:33:03.022Z</time></trkpt><trkpt lat="41.9798967" lon="12.1454735"><ele>87.5</ele><time>2026-04-11T18:33:04.022Z</time></trkpt><trkpt lat="41.9797849" lon="12.1453796"><ele>87.0</ele><time>2026-04-11T18:33:05.022Z</time></trkpt><trkpt lat="41.9796759" lon="12.145294"><ele>87.0</ele><time>2026-04-11T18:33:06.023Z</time></trkpt><trkpt lat="41.9795657" lon="12.1452098"><ele>87.0</ele><time>2026-04-11T18:33:07.022Z</time></trkpt><trkpt lat="41.9794546" lon="12.1451206"><ele>87.0</ele><time>2026-04-11T18:33:08.023Z</time></trkpt><trkpt lat="41.9793526" lon="12.1450372"><ele>87.0</ele><time>2026-04-11T18:33:09.022Z</time></trkpt><trkpt lat="41.9792443" lon="12.1449341"><ele>85.25</ele><time>2026-04-11T18:33:10.023Z</time></trkpt><trkpt lat="41.9791411" lon="12.1448411"><ele>83.5</ele><time>2026-04-11T18:33:11.023Z</time></trkpt><trkpt lat="41.9790247" lon="12.1447505"><ele>81.75</ele><time>2026-04-11T18:33:12.023Z</time></trkpt><trkpt lat="41.9789136" lon="12.1446802"><ele>80.0</ele><time>2026-04-11T18:33:13.023Z</time></trkpt><trkpt lat="41.9788025" lon="12.1446169"><ele>80.0</ele><time>2026-04-11T18:33:14.022Z</time></trkpt><trkpt lat="41.9786982" lon="12.1445628"><ele>80.0</ele><time>2026-04-11T18:33:15.022Z</time></trkpt><trkpt lat="41.9786327" lon="12.1445255"><ele>80.0</ele><time>2026-04-11T18:33:16.023Z</time></trkpt><trkpt lat="41.9785441" lon="12.1444456"><ele>80.0</ele><time>2026-04-11T18:33:18.022Z</time></trkpt><trkpt lat="41.9784389" lon="12.1444137"><ele>80.0</ele><time>2026-04-11T18:33:20.023Z</time></trkpt><trkpt lat="41.9783749" lon="12.1443926"><ele>80.66666666666667</ele><time>2026-04-11T18:33:21.023Z</time></trkpt><trkpt lat="41.9782967" lon="12.1443662"><ele>81.33333333333334</ele><time>2026-04-11T18:33:22.023Z</time></trkpt><trkpt lat="41.978212" lon="12.1443304"><ele>82.0</ele><time>2026-04-11T18:33:23.023Z</time></trkpt><trkpt lat="41.9781328" lon="12.1442978"><ele>82.66666666666667</ele><time>2026-04-11T18:33:24.023Z</time></trkpt><trkpt lat="41.9780453" lon="12.1442558"><ele>83.33333333333333</ele><time>2026-04-11T18:33:25.022Z</time></trkpt><trkpt lat="41.9779579" lon="12.144203"><ele>84.0</ele><time>2026-04-11T18:33:26.023Z</time></trkpt><trkpt lat="41.9778675" lon="12.144138"><ele>84.0</ele><time>2026-04-11T18:33:27.023Z</time></trkpt><trkpt lat="41.9777702" lon="12.1440649"><ele>84.0</ele><time>2026-04-11T18:33:28.023Z</time></trkpt><trkpt lat="41.9776921" lon="12.1439953"><ele>84.0</ele><time>2026-04-11T18:33:29.022Z</time></trkpt><trkpt lat="41.9776281" lon="12.1439435"><ele>84.0</ele><time>2026-04-11T18:33:30.022Z</time></trkpt><trkpt lat="41.9775604" lon="12.1438582"><ele>84.0</ele><time>2026-04-11T18:33:31.022Z</time></trkpt><trkpt lat="41.9775017" lon="12.1437424"><ele>82.4</ele><time>2026-04-11T18:33:32.022Z</time></trkpt><trkpt lat="41.977434" lon="12.1436403"><ele>80.80000000000001</ele><time>2026-04-11T18:33:33.023Z</time></trkpt><trkpt lat="41.9773591" lon="12.1435235"><ele>79.19999999999999</ele><time>2026-04-11T18:33:34.022Z</time></trkpt><trkpt lat="41.9772831" lon="12.1434088"><ele>77.6</ele><time>2026-04-11T18:33:35.022Z</time></trkpt><trkpt lat="41.97721" lon="12.1432909"><ele>76.0</ele><time>2026-04-11T18:33:36.022Z</time></trkpt><trkpt lat="41.9771344" lon="12.1431691"><ele>73.2</ele><time>2026-04-11T18:33:37.022Z</time></trkpt><trkpt lat="41.9770645" lon="12.1430586"><ele>70.39999999999999</ele><time>2026-04-11T18:33:38.023Z</time></trkpt><trkpt lat="41.9769942" lon="12.1429459"><ele>67.6</ele><time>2026-04-11T18:33:39.023Z</time></trkpt><trkpt lat="41.9769272" lon="12.1428372"><ele>64.8</ele><time>2026-04-11T18:33:40.022Z</time></trkpt><trkpt lat="41.9768663" lon="12.1427497"><ele>62.0</ele><time>2026-04-11T18:33:41.023Z</time></trkpt><trkpt lat="41.9768079" lon="12.1426663"><ele>62.00000000000001</ele><time>2026-04-11T18:33:42.022Z</time></trkpt><trkpt lat="41.9767579" lon="12.1425911"><ele>62.0</ele><time>2026-04-11T18:33:43.022Z</time></trkpt><trkpt lat="41.9766769" lon="12.142474"><ele>62.0</ele><time>2026-04-11T18:33:45.022Z</time></trkpt><trkpt lat="41.9766325" lon="12.1424082"><ele>62.0</ele><time>2026-04-11T18:33:46.023Z</time></trkpt><trkpt lat="41.9765856" lon="12.1423493"><ele>62.00000000000001</ele><time>2026-04-11T18:33:47.022Z</time></trkpt><trkpt lat="41.9765373" lon="12.1422828"><ele>62.0</ele><time>2026-04-11T18:33:48.022Z</time></trkpt><trkpt lat="41.9764824" lon="12.142215"><ele>61.16666666666667</ele><time>2026-04-11T18:33:49.022Z</time></trkpt><trkpt lat="41.976427" lon="12.1421468"><ele>60.333333333333336</ele><time>2026-04-11T18:33:50.023Z</time></trkpt><trkpt lat="41.9763691" lon="12.1420756"><ele>59.5</ele><time>2026-04-11T18:33:51.023Z</time></trkpt><trkpt lat="41.9763026" lon="12.1420179"><ele>58.66666666666667</ele><time>2026-04-11T18:33:52.023Z</time></trkpt><trkpt lat="41.9762384" lon="12.1419548"><ele>57.833333333333336</ele><time>2026-04-11T18:33:53.022Z</time></trkpt><trkpt lat="41.976164" lon="12.1419114"><ele>57.0</ele><time>2026-04-11T18:33:54.022Z</time></trkpt><trkpt lat="41.9760827" lon="12.1418615"><ele>57.0</ele><time>2026-04-11T18:33:55.023Z</time></trkpt><trkpt lat="41.9760058" lon="12.1418176"><ele>57.0</ele><time>2026-04-11T18:33:56.023Z</time></trkpt><trkpt lat="41.9759276" lon="12.1417731"><ele>57.0</ele><time>2026-04-11T18:33:57.023Z</time></trkpt><trkpt lat="41.9758489" lon="12.141733"><ele>57.0</ele><time>2026-04-11T18:33:58.023Z</time></trkpt><trkpt lat="41.9757759" lon="12.1417002"><ele>57.0</ele><time>2026-04-11T18:33:59.023Z</time></trkpt><trkpt lat="41.9756945" lon="12.1416459"><ele>57.0</ele><time>2026-04-11T18:34:00.023Z</time></trkpt><trkpt lat="41.975615" lon="12.1415842"><ele>57.400000000000006</ele><time>2026-04-11T18:34:01.023Z</time></trkpt><trkpt lat="41.97553" lon="12.141536"><ele>57.800000000000004</ele><time>2026-04-11T18:34:02.023Z</time></trkpt><trkpt lat="41.9754407" lon="12.1414804"><ele>58.2</ele><time>2026-04-11T18:34:03.023Z</time></trkpt><trkpt lat="41.9753557" lon="12.1414179"><ele>58.6</ele><time>2026-04-11T18:34:04.022Z</time></trkpt><trkpt lat="41.9752747" lon="12.1413522"><ele>59.0</ele><time>2026-04-11T18:34:05.023Z</time></trkpt><trkpt lat="41.9751965" lon="12.1412755"><ele>59.0</ele><time>2026-04-11T18:34:06.023Z</time></trkpt><trkpt lat="41.9750494" lon="12.1411232"><ele>59.0</ele><time>2026-04-11T18:34:08.022Z</time></trkpt><trkpt lat="41.975014" lon="12.1410383"><ele>59.0</ele><time>2026-04-11T18:34:10.023Z</time></trkpt><trkpt lat="41.9749175" lon="12.1408423"><ele>59.0</ele><time>2026-04-11T18:34:11.023Z</time></trkpt><trkpt lat="41.9748542" lon="12.1406408"><ele>56.5</ele><time>2026-04-11T18:34:12.023Z</time></trkpt><trkpt lat="41.9748057" lon="12.140493"><ele>54.0</ele><time>2026-04-11T18:34:13.022Z</time></trkpt><trkpt lat="41.9747409" lon="12.1403538"><ele>51.5</ele><time>2026-04-11T18:34:14.023Z</time></trkpt><trkpt lat="41.9746755" lon="12.1402081"><ele>49.0</ele><time>2026-04-11T18:34:15.022Z</time></trkpt><trkpt lat="41.9746082" lon="12.1400663"><ele>49.0</ele><time>2026-04-11T18:34:16.023Z</time></trkpt><trkpt lat="41.9745577" lon="12.1399291"><ele>49.0</ele><time>2026-04-11T18:34:17.022Z</time></trkpt><trkpt lat="41.9745165" lon="12.1397996"><ele>49.0</ele><time>2026-04-11T18:34:18.023Z</time></trkpt><trkpt lat="41.9744785" lon="12.1396763"><ele>49.0</ele><time>2026-04-11T18:34:19.022Z</time></trkpt><trkpt lat="41.9744481" lon="12.1395619"><ele>49.0</ele><time>2026-04-11T18:34:20.022Z</time></trkpt><trkpt lat="41.9744314" lon="12.1394486"><ele>48.800000000000004</ele><time>2026-04-11T18:34:21.022Z</time></trkpt><trkpt lat="41.9744325" lon="12.1393317"><ele>48.6</ele><time>2026-04-11T18:34:22.022Z</time></trkpt><trkpt lat="41.974439" lon="12.1392137"><ele>48.4</ele><time>2026-04-11T18:34:23.023Z</time></trkpt><trkpt lat="41.9744603" lon="12.1391085"><ele>48.2</ele><time>2026-04-11T18:34:24.022Z</time></trkpt><trkpt lat="41.9745013" lon="12.1389176"><ele>48.0</ele><time>2026-04-11T18:34:26.023Z</time></trkpt><trkpt lat="41.9745528" lon="12.1388018"><ele>47.8</ele><time>2026-04-11T18:34:27.023Z</time></trkpt><trkpt lat="41.974608" lon="12.1387003"><ele>47.599999999999994</ele><time>2026-04-11T18:34:28.022Z</time></trkpt><trkpt lat="41.9746609" lon="12.138612"><ele>47.400000000000006</ele><time>2026-04-11T18:34:29.022Z</time></trkpt><trkpt lat="41.9747144" lon="12.1385148"><ele>47.2</ele><time>2026-04-11T18:34:30.022Z</time></trkpt><trkpt lat="41.9747631" lon="12.1383967"><ele>47.0</ele><time>2026-04-11T18:34:31.022Z</time></trkpt><trkpt lat="41.9748073" lon="12.1382638"><ele>47.2</ele><time>2026-04-11T18:34:32.023Z</time></trkpt><trkpt lat="41.9748812" lon="12.1381798"><ele>47.400000000000006</ele><time>2026-04-11T18:34:33.022Z</time></trkpt><trkpt lat="41.9749718" lon="12.1380796"><ele>47.599999999999994</ele><time>2026-04-11T18:34:34.022Z</time></trkpt><trkpt lat="41.9749861" lon="12.1379186"><ele>47.8</ele><time>2026-04-11T18:34:35.023Z</time></trkpt><trkpt lat="41.9750163" lon="12.1378233"><ele>48.0</ele><time>2026-04-11T18:34:36.023Z</time></trkpt><trkpt lat="41.975054" lon="12.1377"><ele>49.0</ele><time>2026-04-11T18:34:37.023Z</time></trkpt><trkpt lat="41.9750988" lon="12.1375967"><ele>50.0</ele><time>2026-04-11T18:34:38.022Z</time></trkpt><trkpt lat="41.9751376" lon="12.1375067"><ele>51.0</ele><time>2026-04-11T18:34:39.023Z</time></trkpt><trkpt lat="41.9751737" lon="12.1373923"><ele>52.0</ele><time>2026-04-11T18:34:41.023Z</time></trkpt><trkpt lat="41.9751783" lon="12.1373016"><ele>53.0</ele><time>2026-04-11T18:34:48.022Z</time></trkpt><trkpt lat="41.9751107" lon="12.1372131"><ele>54.0</ele><time>2026-04-11T18:34:51.023Z</time></trkpt><trkpt lat="41.9750411" lon="12.1371792"><ele>54.6</ele><time>2026-04-11T18:34:52.022Z</time></trkpt><trkpt lat="41.9749674" lon="12.1371342"><ele>55.2</ele><time>2026-04-11T18:34:53.023Z</time></trkpt><trkpt lat="41.9748762" lon="12.1370799"><ele>55.800000000000004</ele><time>2026-04-11T18:34:54.022Z</time></trkpt><trkpt lat="41.9747896" lon="12.1370232"><ele>56.400000000000006</ele><time>2026-04-11T18:34:55.022Z</time></trkpt><trkpt lat="41.9746919" lon="12.1369624"><ele>57.0</ele><time>2026-04-11T18:34:56.022Z</time></trkpt><trkpt lat="41.9745952" lon="12.1368872"><ele>57.0</ele><time>2026-04-11T18:34:57.023Z</time></trkpt><trkpt lat="41.9744963" lon="12.1368066"><ele>57.0</ele><time>2026-04-11T18:34:58.023Z</time></trkpt><trkpt lat="41.974383" lon="12.1367189"><ele>57.0</ele><time>2026-04-11T18:34:59.023Z</time></trkpt><trkpt lat="41.9742573" lon="12.1366314"><ele>57.0</ele><time>2026-04-11T18:35:00.022Z</time></trkpt><trkpt lat="41.9741558" lon="12.1365155"><ele>57.5</ele><time>2026-04-11T18:35:01.022Z</time></trkpt><trkpt lat="41.974048" lon="12.1364241"><ele>58.0</ele><time>2026-04-11T18:35:02.023Z</time></trkpt><trkpt lat="41.9739226" lon="12.136357"><ele>58.5</ele><time>2026-04-11T18:35:03.023Z</time></trkpt><trkpt lat="41.9738118" lon="12.1362828"><ele>59.0</ele><time>2026-04-11T18:35:04.022Z</time></trkpt><trkpt lat="41.9736927" lon="12.1362055"><ele>59.0</ele><time>2026-04-11T18:35:05.023Z</time></trkpt><trkpt lat="41.9735826" lon="12.1361304"><ele>59.0</ele><time>2026-04-11T18:35:06.023Z</time></trkpt><trkpt lat="41.9734732" lon="12.1360556"><ele>59.0</ele><time>2026-04-11T18:35:07.023Z</time></trkpt><trkpt lat="41.9733625" lon="12.1359781"><ele>59.0</ele><time>2026-04-11T18:35:08.022Z</time></trkpt><trkpt lat="41.9732536" lon="12.135899"><ele>58.6</ele><time>2026-04-11T18:35:09.022Z</time></trkpt><trkpt lat="41.9731562" lon="12.1358201"><ele>58.2</ele><time>2026-04-11T18:35:10.022Z</time></trkpt><trkpt lat="41.9730567" lon="12.1357395"><ele>57.800000000000004</ele><time>2026-04-11T18:35:11.023Z</time></trkpt><trkpt lat="41.9729561" lon="12.1356706"><ele>57.400000000000006</ele><time>2026-04-11T18:35:12.023Z</time></trkpt><trkpt lat="41.9728701" lon="12.1355862"><ele>57.0</ele><time>2026-04-11T18:35:13.022Z</time></trkpt><trkpt lat="41.9727676" lon="12.1355121"><ele>57.0</ele><time>2026-04-11T18:35:14.023Z</time></trkpt><trkpt lat="41.9726746" lon="12.1354462"><ele>57.0</ele><time>2026-04-11T18:35:15.022Z</time></trkpt><trkpt lat="41.9725804" lon="12.1353632"><ele>57.0</ele><time>2026-04-11T18:35:16.022Z</time></trkpt><trkpt lat="41.9724759" lon="12.1352702"><ele>57.0</ele><time>2026-04-11T18:35:17.023Z</time></trkpt><trkpt lat="41.9723715" lon="12.1351819"><ele>55.25</ele><time>2026-04-11T18:35:18.023Z</time></trkpt><trkpt lat="41.9722715" lon="12.1351034"><ele>53.5</ele><time>2026-04-11T18:35:19.023Z</time></trkpt><trkpt lat="41.9721755" lon="12.1350295"><ele>51.75</ele><time>2026-04-11T18:35:20.022Z</time></trkpt><trkpt lat="41.9720642" lon="12.1349668"><ele>50.0</ele><time>2026-04-11T18:35:21.023Z</time></trkpt><trkpt lat="41.971965" lon="12.1348937"><ele>50.0</ele><time>2026-04-11T18:35:22.023Z</time></trkpt><trkpt lat="41.9718688" lon="12.134818"><ele>50.0</ele><time>2026-04-11T18:35:23.023Z</time></trkpt><trkpt lat="41.971763" lon="12.1347541"><ele>50.0</ele><time>2026-04-11T18:35:24.022Z</time></trkpt><trkpt lat="41.9716569" lon="12.1347007"><ele>50.0</ele><time>2026-04-11T18:35:25.022Z</time></trkpt><trkpt lat="41.9715452" lon="12.1346619"><ele>50.0</ele><time>2026-04-11T18:35:26.022Z</time></trkpt><trkpt lat="41.9714207" lon="12.134649"><ele>50.0</ele><time>2026-04-11T18:35:27.022Z</time></trkpt><trkpt lat="41.9713008" lon="12.1346577"><ele>50.0</ele><time>2026-04-11T18:35:28.023Z</time></trkpt><trkpt lat="41.9711797" lon="12.1347023"><ele>50.0</ele><time>2026-04-11T18:35:29.023Z</time></trkpt><trkpt lat="41.9710695" lon="12.1347644"><ele>50.0</ele><time>2026-04-11T18:35:30.022Z</time></trkpt><trkpt lat="41.9709588" lon="12.1348447"><ele>50.0</ele><time>2026-04-11T18:35:31.023Z</time></trkpt><trkpt lat="41.9708594" lon="12.1349242"><ele>50.0</ele><time>2026-04-11T18:35:32.023Z</time></trkpt><trkpt lat="41.9707629" lon="12.1350071"><ele>50.0</ele><time>2026-04-11T18:35:33.022Z</time></trkpt><trkpt lat="41.9706612" lon="12.135096"><ele>48.25</ele><time>2026-04-11T18:35:34.023Z</time></trkpt><trkpt lat="41.9705442" lon="12.1351868"><ele>46.5</ele><time>2026-04-11T18:35:35.023Z</time></trkpt><trkpt lat="41.9704219" lon="12.135224"><ele>44.75</ele><time>2026-04-11T18:35:36.022Z</time></trkpt><trkpt lat="41.9703245" lon="12.1352625"><ele>43.0</ele><time>2026-04-11T18:35:37.023Z</time></trkpt><trkpt lat="41.9702281" lon="12.1353311"><ele>43.0</ele><time>2026-04-11T18:35:38.022Z</time></trkpt><trkpt lat="41.9701085" lon="12.1354096"><ele>43.0</ele><time>2026-04-11T18:35:39.023Z</time></trkpt><trkpt lat="41.9699908" lon="12.1354834"><ele>43.0</ele><time>2026-04-11T18:35:40.023Z</time></trkpt><trkpt lat="41.969888" lon="12.1355605"><ele>43.0</ele><time>2026-04-11T18:35:41.022Z</time></trkpt><trkpt lat="41.9697769" lon="12.1356357"><ele>43.5</ele><time>2026-04-11T18:35:42.023Z</time></trkpt><trkpt lat="41.9696719" lon="12.1356974"><ele>44.0</ele><time>2026-04-11T18:35:43.022Z</time></trkpt><trkpt lat="41.9695616" lon="12.135754"><ele>44.5</ele><time>2026-04-11T18:35:44.022Z</time></trkpt><trkpt lat="41.9694443" lon="12.1358134"><ele>45.0</ele><time>2026-04-11T18:35:45.023Z</time></trkpt><trkpt lat="41.969333" lon="12.135856"><ele>47.0</ele><time>2026-04-11T18:35:46.023Z</time></trkpt><trkpt lat="41.9692147" lon="12.1358835"><ele>49.0</ele><time>2026-04-11T18:35:47.022Z</time></trkpt><trkpt lat="41.9690916" lon="12.1358937"><ele>51.0</ele><time>2026-04-11T18:35:48.023Z</time></trkpt><trkpt lat="41.9689621" lon="12.1358719"><ele>53.0</ele><time>2026-04-11T18:35:49.022Z</time></trkpt><trkpt lat="41.9688366" lon="12.1358493"><ele>53.5</ele><time>2026-04-11T18:35:50.022Z</time></trkpt><trkpt lat="41.9687132" lon="12.1358194"><ele>54.0</ele><time>2026-04-11T18:35:51.023Z</time></trkpt><trkpt lat="41.9685935" lon="12.1357803"><ele>54.5</ele><time>2026-04-11T18:35:52.022Z</time></trkpt><trkpt lat="41.9684777" lon="12.1357369"><ele>55.0</ele><time>2026-04-11T18:35:53.022Z</time></trkpt><trkpt lat="41.9683655" lon="12.1356911"><ele>55.2</ele><time>2026-04-11T18:35:54.023Z</time></trkpt><trkpt lat="41.9682518" lon="12.1356491"><ele>55.4</ele><time>2026-04-11T18:35:55.023Z</time></trkpt><trkpt lat="41.9681414" lon="12.1356115"><ele>55.599999999999994</ele><time>2026-04-11T18:35:56.023Z</time></trkpt><trkpt lat="41.9680332" lon="12.1355834"><ele>55.8</ele><time>2026-04-11T18:35:57.022Z</time></trkpt><trkpt lat="41.967929" lon="12.1355578"><ele>56.0</ele><time>2026-04-11T18:35:58.022Z</time></trkpt><trkpt lat="41.9678063" lon="12.1355"><ele>56.0</ele><time>2026-04-11T18:35:59.022Z</time></trkpt><trkpt lat="41.9676944" lon="12.1354766"><ele>55.99999999999999</ele><time>2026-04-11T18:36:00.023Z</time></trkpt><trkpt lat="41.9676033" lon="12.1354549"><ele>55.99999999999999</ele><time>2026-04-11T18:36:01.023Z</time></trkpt><trkpt lat="41.9674965" lon="12.1354341"><ele>56.0</ele><time>2026-04-11T18:36:02.023Z</time></trkpt><trkpt lat="41.9674038" lon="12.1353978"><ele>56.0</ele><time>2026-04-11T18:36:03.023Z</time></trkpt><trkpt lat="41.967298" lon="12.135355"><ele>55.5</ele><time>2026-04-11T18:36:04.023Z</time></trkpt><trkpt lat="41.9671865" lon="12.1353246"><ele>55.0</ele><time>2026-04-11T18:36:05.022Z</time></trkpt><trkpt lat="41.9670731" lon="12.1352819"><ele>54.5</ele><time>2026-04-11T18:36:06.023Z</time></trkpt><trkpt lat="41.9669485" lon="12.1352458"><ele>54.0</ele><time>2026-04-11T18:36:07.023Z</time></trkpt><trkpt lat="41.9668241" lon="12.1352098"><ele>53.75</ele><time>2026-04-11T18:36:08.022Z</time></trkpt><trkpt lat="41.9666939" lon="12.1351772"><ele>53.5</ele><time>2026-04-11T18:36:09.022Z</time></trkpt><trkpt lat="41.966561" lon="12.1351366"><ele>53.25</ele><time>2026-04-11T18:36:10.023Z</time></trkpt><trkpt lat="41.9664346" lon="12.1350949"><ele>53.0</ele><time>2026-04-11T18:36:11.022Z</time></trkpt><trkpt lat="41.9663046" lon="12.1350489"><ele>53.0</ele><time>2026-04-11T18:36:12.022Z</time></trkpt><trkpt lat="41.9661791" lon="12.1350094"><ele>53.0</ele><time>2026-04-11T18:36:13.022Z</time></trkpt><trkpt lat="41.9660506" lon="12.1349657"><ele>53.0</ele><time>2026-04-11T18:36:14.023Z</time></trkpt><trkpt lat="41.9659233" lon="12.13492"><ele>53.0</ele><time>2026-04-11T18:36:15.023Z</time></trkpt><trkpt lat="41.9657917" lon="12.1348652"><ele>52.5</ele><time>2026-04-11T18:36:16.023Z</time></trkpt><trkpt lat="41.9656728" lon="12.1348248"><ele>52.0</ele><time>2026-04-11T18:36:17.022Z</time></trkpt><trkpt lat="41.9655634" lon="12.1347762"><ele>51.5</ele><time>2026-04-11T18:36:18.023Z</time></trkpt><trkpt lat="41.965454" lon="12.13472"><ele>51.0</ele><time>2026-04-11T18:36:19.022Z</time></trkpt><trkpt lat="41.9653358" lon="12.1346838"><ele>51.0</ele><time>2026-04-11T18:36:20.022Z</time></trkpt><trkpt lat="41.9652318" lon="12.1346256"><ele>51.0</ele><time>2026-04-11T18:36:21.022Z</time></trkpt><trkpt lat="41.9651193" lon="12.1345506"><ele>51.0</ele><time>2026-04-11T18:36:22.023Z</time></trkpt><trkpt lat="41.9650216" lon="12.1344738"><ele>51.0</ele><time>2026-04-11T18:36:23.023Z</time></trkpt><trkpt lat="41.9649202" lon="12.134383"><ele>51.75</ele><time>2026-04-11T18:36:24.022Z</time></trkpt><trkpt lat="41.9648099" lon="12.1342795"><ele>52.5</ele><time>2026-04-11T18:36:25.023Z</time></trkpt><trkpt lat="41.9647044" lon="12.1341657"><ele>53.25</ele><time>2026-04-11T18:36:26.022Z</time></trkpt><trkpt lat="41.9645956" lon="12.1340452"><ele>54.0</ele><time>2026-04-11T18:36:27.023Z</time></trkpt><trkpt lat="41.964487" lon="12.1339108"><ele>54.0</ele><time>2026-04-11T18:36:28.023Z</time></trkpt><trkpt lat="41.9643789" lon="12.1337713"><ele>54.0</ele><time>2026-04-11T18:36:29.023Z</time></trkpt><trkpt lat="41.9642644" lon="12.1336269"><ele>54.0</ele><time>2026-04-11T18:36:30.022Z</time></trkpt><trkpt lat="41.9641595" lon="12.1334768"><ele>54.0</ele><time>2026-04-11T18:36:31.022Z</time></trkpt><trkpt lat="41.9640483" lon="12.1333299"><ele>54.0</ele><time>2026-04-11T18:36:32.022Z</time></trkpt><trkpt lat="41.9639303" lon="12.1331826"><ele>54.0</ele><time>2026-04-11T18:36:33.022Z</time></trkpt><trkpt lat="41.9638097" lon="12.1330297"><ele>54.0</ele><time>2026-04-11T18:36:34.022Z</time></trkpt><trkpt lat="41.9636923" lon="12.1328889"><ele>54.0</ele><time>2026-04-11T18:36:35.023Z</time></trkpt><trkpt lat="41.9635721" lon="12.1327483"><ele>54.0</ele><time>2026-04-11T18:36:36.022Z</time></trkpt><trkpt lat="41.9634545" lon="12.1325928"><ele>54.0</ele><time>2026-04-11T18:36:37.023Z</time></trkpt><trkpt lat="41.9633323" lon="12.1324069"><ele>54.0</ele><time>2026-04-11T18:36:38.023Z</time></trkpt><trkpt lat="41.9631996" lon="12.132221"><ele>54.0</ele><time>2026-04-11T18:36:39.022Z</time></trkpt><trkpt lat="41.9630958" lon="12.132081"><ele>54.0</ele><time>2026-04-11T18:36:40.023Z</time></trkpt><trkpt lat="41.9629661" lon="12.13195"><ele>54.0</ele><time>2026-04-11T18:36:41.022Z</time></trkpt><trkpt lat="41.962804" lon="12.1317862"><ele>54.0</ele><time>2026-04-11T18:36:42.021Z</time></trkpt><trkpt lat="41.9626466" lon="12.1316186"><ele>52.33333333333333</ele><time>2026-04-11T18:36:43.021Z</time></trkpt><trkpt lat="41.9625196" lon="12.1314814"><ele>50.666666666666664</ele><time>2026-04-11T18:36:44.021Z</time></trkpt><trkpt lat="41.9624021" lon="12.1313031"><ele>49.0</ele><time>2026-04-11T18:36:45.021Z</time></trkpt><trkpt lat="41.9622787" lon="12.1311332"><ele>49.0</ele><time>2026-04-11T18:36:46.021Z</time></trkpt><trkpt lat="41.9621561" lon="12.1309671"><ele>49.0</ele><time>2026-04-11T18:36:47.021Z</time></trkpt><trkpt lat="41.9620272" lon="12.130799"><ele>49.0</ele><time>2026-04-11T18:36:48.022Z</time></trkpt><trkpt lat="41.9619004" lon="12.1306096"><ele>49.0</ele><time>2026-04-11T18:36:49.022Z</time></trkpt><trkpt lat="41.9618018" lon="12.1304278"><ele>49.0</ele><time>2026-04-11T18:36:50.022Z</time></trkpt><trkpt lat="41.961704" lon="12.1302749"><ele>49.0</ele><time>2026-04-11T18:36:51.022Z</time></trkpt><trkpt lat="41.961616" lon="12.1301339"><ele>48.25</ele><time>2026-04-11T18:36:52.021Z</time></trkpt><trkpt lat="41.9615141" lon="12.130045"><ele>47.5</ele><time>2026-04-11T18:36:53.021Z</time></trkpt><trkpt lat="41.9614021" lon="12.1299351"><ele>46.75</ele><time>2026-04-11T18:36:54.022Z</time></trkpt><trkpt lat="41.9612848" lon="12.1298272"><ele>46.0</ele><time>2026-04-11T18:36:55.022Z</time></trkpt><trkpt lat="41.9611852" lon="12.1296303"><ele>45.66666666666667</ele><time>2026-04-11T18:36:56.021Z</time></trkpt><trkpt lat="41.961069" lon="12.1295456"><ele>45.333333333333336</ele><time>2026-04-11T18:36:57.022Z</time></trkpt><trkpt lat="41.9608761" lon="12.1295073"><ele>45.0</ele><time>2026-04-11T18:36:58.022Z</time></trkpt><trkpt lat="41.9607134" lon="12.1294752"><ele>44.0</ele><time>2026-04-11T18:36:59.021Z</time></trkpt><trkpt lat="41.9605385" lon="12.1294258"><ele>43.0</ele><time>2026-04-11T18:37:00.022Z</time></trkpt><trkpt lat="41.9603431" lon="12.129451"><ele>42.0</ele><time>2026-04-11T18:37:01.022Z</time></trkpt><trkpt lat="41.9601476" lon="12.129525"><ele>41.333333333333336</ele><time>2026-04-11T18:37:02.021Z</time></trkpt><trkpt lat="41.9599607" lon="12.1296307"><ele>40.66666666666667</ele><time>2026-04-11T18:37:03.022Z</time></trkpt><trkpt lat="41.959787" lon="12.1296655"><ele>40.0</ele><time>2026-04-11T18:37:04.021Z</time></trkpt><trkpt lat="41.9596129" lon="12.1297156"><ele>40.0</ele><time>2026-04-11T18:37:05.022Z</time></trkpt><trkpt lat="41.9594377" lon="12.1297602"><ele>40.0</ele><time>2026-04-11T18:37:06.022Z</time></trkpt><trkpt lat="41.9592567" lon="12.1298022"><ele>40.0</ele><time>2026-04-11T18:37:07.021Z</time></trkpt><trkpt lat="41.9590834" lon="12.1298404"><ele>40.0</ele><time>2026-04-11T18:37:08.021Z</time></trkpt><trkpt lat="41.9589404" lon="12.1299196"><ele>40.0</ele><time>2026-04-11T18:37:09.022Z</time></trkpt><trkpt lat="41.9587769" lon="12.1299757"><ele>40.0</ele><time>2026-04-11T18:37:10.021Z</time></trkpt><trkpt lat="41.958587" lon="12.1299772"><ele>40.0</ele><time>2026-04-11T18:37:11.021Z</time></trkpt><trkpt lat="41.9584035" lon="12.1299755"><ele>40.0</ele><time>2026-04-11T18:37:12.021Z</time></trkpt><trkpt lat="41.9582423" lon="12.1300092"><ele>40.0</ele><time>2026-04-11T18:37:13.022Z</time></trkpt><trkpt lat="41.9580834" lon="12.1300451"><ele>39.75</ele><time>2026-04-11T18:37:14.022Z</time></trkpt><trkpt lat="41.9579285" lon="12.1300777"><ele>39.5</ele><time>2026-04-11T18:37:15.021Z</time></trkpt><trkpt lat="41.9577991" lon="12.1301072"><ele>39.25</ele><time>2026-04-11T18:37:16.022Z</time></trkpt><trkpt lat="41.9576672" lon="12.1301347"><ele>39.0</ele><time>2026-04-11T18:37:17.022Z</time></trkpt><trkpt lat="41.9575302" lon="12.1301691"><ele>39.0</ele><time>2026-04-11T18:37:18.021Z</time></trkpt><trkpt lat="41.9573813" lon="12.1301779"><ele>39.0</ele><time>2026-04-11T18:37:19.022Z</time></trkpt><trkpt lat="41.9572425" lon="12.1302074"><ele>39.0</ele><time>2026-04-11T18:37:20.022Z</time></trkpt><trkpt lat="41.9571055" lon="12.1302612"><ele>39.0</ele><time>2026-04-11T18:37:21.022Z</time></trkpt><trkpt lat="41.9569927" lon="12.130321"><ele>39.0</ele><time>2026-04-11T18:37:22.022Z</time></trkpt><trkpt lat="41.9568904" lon="12.1303841"><ele>39.0</ele><time>2026-04-11T18:37:23.021Z</time></trkpt><trkpt lat="41.9567511" lon="12.1304627"><ele>39.0</ele><time>2026-04-11T18:37:24.022Z</time></trkpt><trkpt lat="41.9566166" lon="12.1305574"><ele>39.0</ele><time>2026-04-11T18:37:25.021Z</time></trkpt><trkpt lat="41.9564917" lon="12.1306517"><ele>39.333333333333336</ele><time>2026-04-11T18:37:26.022Z</time></trkpt><trkpt lat="41.9563654" lon="12.1307742"><ele>39.66666666666667</ele><time>2026-04-11T18:37:27.021Z</time></trkpt><trkpt lat="41.9562312" lon="12.1308871"><ele>40.0</ele><time>2026-04-11T18:37:28.021Z</time></trkpt><trkpt lat="41.9561161" lon="12.130999"><ele>40.0</ele><time>2026-04-11T18:37:29.022Z</time></trkpt><trkpt lat="41.9560176" lon="12.1311708"><ele>40.0</ele><time>2026-04-11T18:37:30.021Z</time></trkpt><trkpt lat="41.9559443" lon="12.1313755"><ele>40.0</ele><time>2026-04-11T18:37:31.022Z</time></trkpt><trkpt lat="41.955865" lon="12.1315479"><ele>41.333333333333336</ele><time>2026-04-11T18:37:32.022Z</time></trkpt><trkpt lat="41.9557446" lon="12.131717"><ele>42.666666666666664</ele><time>2026-04-11T18:37:33.022Z</time></trkpt><trkpt lat="41.9555693" lon="12.1318501"><ele>44.0</ele><time>2026-04-11T18:37:34.022Z</time></trkpt><trkpt lat="41.9554093" lon="12.1320056"><ele>44.0</ele><time>2026-04-11T18:37:35.022Z</time></trkpt><trkpt lat="41.9552855" lon="12.1321171"><ele>44.0</ele><time>2026-04-11T18:37:36.022Z</time></trkpt><trkpt lat="41.9551588" lon="12.1322475"><ele>44.0</ele><time>2026-04-11T18:37:37.022Z</time></trkpt><trkpt lat="41.9550013" lon="12.1323723"><ele>43.0</ele><time>2026-04-11T18:37:38.023Z</time></trkpt><trkpt lat="41.9548343" lon="12.1325277"><ele>42.0</ele><time>2026-04-11T18:37:39.022Z</time></trkpt><trkpt lat="41.9546801" lon="12.1326786"><ele>41.0</ele><time>2026-04-11T18:37:40.023Z</time></trkpt><trkpt lat="41.9545352" lon="12.1328128"><ele>41.0</ele><time>2026-04-11T18:37:41.022Z</time></trkpt><trkpt lat="41.9544064" lon="12.1329397"><ele>41.0</ele><time>2026-04-11T18:37:42.022Z</time></trkpt><trkpt lat="41.9543005" lon="12.1330603"><ele>41.0</ele><time>2026-04-11T18:37:43.022Z</time></trkpt><trkpt lat="41.9542035" lon="12.1331756"><ele>41.0</ele><time>2026-04-11T18:37:44.022Z</time></trkpt><trkpt lat="41.9541015" lon="12.1332909"><ele>41.25</ele><time>2026-04-11T18:37:45.022Z</time></trkpt><trkpt lat="41.9539892" lon="12.1333989"><ele>41.5</ele><time>2026-04-11T18:37:46.023Z</time></trkpt><trkpt lat="41.9538776" lon="12.1335108"><ele>41.75</ele><time>2026-04-11T18:37:47.023Z</time></trkpt><trkpt lat="41.9537553" lon="12.1336559"><ele>42.0</ele><time>2026-04-11T18:37:48.023Z</time></trkpt><trkpt lat="41.9536368" lon="12.1337823"><ele>42.0</ele><time>2026-04-11T18:37:49.022Z</time></trkpt><trkpt lat="41.9535152" lon="12.1339481"><ele>42.0</ele><time>2026-04-11T18:37:50.022Z</time></trkpt><trkpt lat="41.9534178" lon="12.1341162"><ele>42.0</ele><time>2026-04-11T18:37:51.023Z</time></trkpt><trkpt lat="41.9533181" lon="12.1342803"><ele>41.666666666666664</ele><time>2026-04-11T18:37:52.023Z</time></trkpt><trkpt lat="41.9532121" lon="12.1344396"><ele>41.33333333333333</ele><time>2026-04-11T18:37:53.022Z</time></trkpt><trkpt lat="41.9531108" lon="12.1346017"><ele>41.0</ele><time>2026-04-11T18:37:54.023Z</time></trkpt><trkpt lat="41.9530136" lon="12.1347772"><ele>41.0</ele><time>2026-04-11T18:37:55.023Z</time></trkpt><trkpt lat="41.9529116" lon="12.1349497"><ele>41.0</ele><time>2026-04-11T18:37:56.023Z</time></trkpt><trkpt lat="41.9528145" lon="12.1351144"><ele>41.0</ele><time>2026-04-11T18:37:57.022Z</time></trkpt><trkpt lat="41.9526966" lon="12.135251"><ele>41.0</ele><time>2026-04-11T18:37:58.023Z</time></trkpt><trkpt lat="41.9525874" lon="12.135378"><ele>41.0</ele><time>2026-04-11T18:37:59.022Z</time></trkpt><trkpt lat="41.9524781" lon="12.1355306"><ele>41.0</ele><time>2026-04-11T18:38:00.023Z</time></trkpt><trkpt lat="41.9523682" lon="12.13568"><ele>40.33333333333333</ele><time>2026-04-11T18:38:01.022Z</time></trkpt><trkpt lat="41.9522671" lon="12.1358333"><ele>39.666666666666664</ele><time>2026-04-11T18:38:02.022Z</time></trkpt><trkpt lat="41.9521813" lon="12.1359875"><ele>39.0</ele><time>2026-04-11T18:38:03.022Z</time></trkpt><trkpt lat="41.9520563" lon="12.1361278"><ele>39.0</ele><time>2026-04-11T18:38:04.023Z</time></trkpt><trkpt lat="41.9519321" lon="12.1362744"><ele>39.0</ele><time>2026-04-11T18:38:05.023Z</time></trkpt><trkpt lat="41.951824" lon="12.1364304"><ele>39.0</ele><time>2026-04-11T18:38:06.023Z</time></trkpt><trkpt lat="41.9517167" lon="12.1365781"><ele>39.666666666666664</ele><time>2026-04-11T18:38:07.023Z</time></trkpt><trkpt lat="41.9516085" lon="12.13673"><ele>40.33333333333333</ele><time>2026-04-11T18:38:08.022Z</time></trkpt><trkpt lat="41.9515075" lon="12.1368804"><ele>41.0</ele><time>2026-04-11T18:38:09.022Z</time></trkpt><trkpt lat="41.9514093" lon="12.1370398"><ele>41.0</ele><time>2026-04-11T18:38:10.022Z</time></trkpt><trkpt lat="41.9513097" lon="12.1371786"><ele>41.0</ele><time>2026-04-11T18:38:11.022Z</time></trkpt><trkpt lat="41.951224" lon="12.1373114"><ele>41.0</ele><time>2026-04-11T18:38:12.022Z</time></trkpt><trkpt lat="41.9511528" lon="12.1374627"><ele>41.0</ele><time>2026-04-11T18:38:13.023Z</time></trkpt><trkpt lat="41.9511177" lon="12.1376058"><ele>41.0</ele><time>2026-04-11T18:38:14.023Z</time></trkpt><trkpt lat="41.9511043" lon="12.1377133"><ele>41.0</ele><time>2026-04-11T18:38:15.022Z</time></trkpt><trkpt lat="41.9510531" lon="12.1378148"><ele>41.0</ele><time>2026-04-11T18:38:16.023Z</time></trkpt><trkpt lat="41.9509705" lon="12.1378617"><ele>41.0</ele><time>2026-04-11T18:38:18.022Z</time></trkpt><trkpt lat="41.9509029" lon="12.1379336"><ele>41.0</ele><time>2026-04-11T18:38:19.022Z</time></trkpt><trkpt lat="41.9508561" lon="12.1380266"><ele>41.0</ele><time>2026-04-11T18:38:20.023Z</time></trkpt><trkpt lat="41.9507727" lon="12.1381155"><ele>41.33333333333333</ele><time>2026-04-11T18:38:21.022Z</time></trkpt><trkpt lat="41.9506578" lon="12.1382325"><ele>41.666666666666664</ele><time>2026-04-11T18:38:22.023Z</time></trkpt><trkpt lat="41.9505323" lon="12.1383705"><ele>42.0</ele><time>2026-04-11T18:38:23.023Z</time></trkpt><trkpt lat="41.9504129" lon="12.1384992"><ele>42.0</ele><time>2026-04-11T18:38:24.023Z</time></trkpt><trkpt lat="41.9502944" lon="12.138635"><ele>42.0</ele><time>2026-04-11T18:38:25.022Z</time></trkpt><trkpt lat="41.9501805" lon="12.1387943"><ele>42.0</ele><time>2026-04-11T18:38:26.022Z</time></trkpt><trkpt lat="41.9500845" lon="12.1389374"><ele>42.25</ele><time>2026-04-11T18:38:27.023Z</time></trkpt><trkpt lat="41.9500004" lon="12.1390733"><ele>42.5</ele><time>2026-04-11T18:38:28.022Z</time></trkpt><trkpt lat="41.9499154" lon="12.1391986"><ele>42.75</ele><time>2026-04-11T18:38:29.022Z</time></trkpt><trkpt lat="41.9498322" lon="12.1393312"><ele>43.0</ele><time>2026-04-11T18:38:30.022Z</time></trkpt><trkpt lat="41.9497476" lon="12.1394598"><ele>43.0</ele><time>2026-04-11T18:38:31.023Z</time></trkpt><trkpt lat="41.9496643" lon="12.1395876"><ele>43.0</ele><time>2026-04-11T18:38:32.022Z</time></trkpt><trkpt lat="41.9495826" lon="12.1397335"><ele>43.0</ele><time>2026-04-11T18:38:33.023Z</time></trkpt><trkpt lat="41.9495019" lon="12.1398599"><ele>43.0</ele><time>2026-04-11T18:38:34.023Z</time></trkpt><trkpt lat="41.9494246" lon="12.139985"><ele>43.0</ele><time>2026-04-11T18:38:35.023Z</time></trkpt><trkpt lat="41.9493555" lon="12.1401086"><ele>43.0</ele><time>2026-04-11T18:38:36.023Z</time></trkpt><trkpt lat="41.9492795" lon="12.1402454"><ele>43.0</ele><time>2026-04-11T18:38:37.022Z</time></trkpt><trkpt lat="41.9491939" lon="12.1403848"><ele>43.0</ele><time>2026-04-11T18:38:38.023Z</time></trkpt><trkpt lat="41.9491001" lon="12.1405309"><ele>43.0</ele><time>2026-04-11T18:38:39.023Z</time></trkpt><trkpt lat="41.9490088" lon="12.1406871"><ele>43.0</ele><time>2026-04-11T18:38:40.023Z</time></trkpt><trkpt lat="41.9489268" lon="12.1408503"><ele>43.0</ele><time>2026-04-11T18:38:41.023Z</time></trkpt><trkpt lat="41.948858" lon="12.141002"><ele>43.0</ele><time>2026-04-11T18:38:42.022Z</time></trkpt><trkpt lat="41.9487896" lon="12.1411572"><ele>43.25</ele><time>2026-04-11T18:38:43.022Z</time></trkpt><trkpt lat="41.9487409" lon="12.1412763"><ele>43.5</ele><time>2026-04-11T18:38:44.023Z</time></trkpt><trkpt lat="41.9486583" lon="12.1414402"><ele>43.75</ele><time>2026-04-11T18:38:45.023Z</time></trkpt><trkpt lat="41.9485528" lon="12.1416186"><ele>44.0</ele><time>2026-04-11T18:38:46.022Z</time></trkpt><trkpt lat="41.9484354" lon="12.1417816"><ele>43.666666666666664</ele><time>2026-04-11T18:38:47.023Z</time></trkpt><trkpt lat="41.9483199" lon="12.1419448"><ele>43.333333333333336</ele><time>2026-04-11T18:38:48.022Z</time></trkpt><trkpt lat="41.9481875" lon="12.1420948"><ele>43.0</ele><time>2026-04-11T18:38:49.022Z</time></trkpt><trkpt lat="41.948057" lon="12.1422514"><ele>43.0</ele><time>2026-04-11T18:38:50.022Z</time></trkpt><trkpt lat="41.9479326" lon="12.1423882"><ele>43.0</ele><time>2026-04-11T18:38:51.023Z</time></trkpt><trkpt lat="41.9478045" lon="12.1425326"><ele>43.0</ele><time>2026-04-11T18:38:52.023Z</time></trkpt><trkpt lat="41.947658" lon="12.1427086"><ele>42.333333333333336</ele><time>2026-04-11T18:38:53.022Z</time></trkpt><trkpt lat="41.947527" lon="12.1428456"><ele>41.666666666666664</ele><time>2026-04-11T18:38:54.023Z</time></trkpt><trkpt lat="41.947384" lon="12.1429757"><ele>41.0</ele><time>2026-04-11T18:38:55.022Z</time></trkpt><trkpt lat="41.9472456" lon="12.1431028"><ele>41.33333333333333</ele><time>2026-04-11T18:38:56.023Z</time></trkpt><trkpt lat="41.9471166" lon="12.1432576"><ele>41.666666666666664</ele><time>2026-04-11T18:38:57.023Z</time></trkpt><trkpt lat="41.9469981" lon="12.1434042"><ele>42.0</ele><time>2026-04-11T18:38:58.023Z</time></trkpt><trkpt lat="41.9468801" lon="12.1435934"><ele>42.0</ele><time>2026-04-11T18:38:59.023Z</time></trkpt><trkpt lat="41.9467461" lon="12.1437488"><ele>42.0</ele><time>2026-04-11T18:39:00.022Z</time></trkpt><trkpt lat="41.9466437" lon="12.1439027"><ele>42.0</ele><time>2026-04-11T18:39:01.023Z</time></trkpt><trkpt lat="41.9465205" lon="12.1440391"><ele>42.333333333333336</ele><time>2026-04-11T18:39:02.023Z</time></trkpt><trkpt lat="41.9463964" lon="12.1441921"><ele>42.66666666666667</ele><time>2026-04-11T18:39:03.022Z</time></trkpt><trkpt lat="41.9462705" lon="12.1443358"><ele>43.0</ele><time>2026-04-11T18:39:04.023Z</time></trkpt><trkpt lat="41.9461499" lon="12.144481"><ele>43.0</ele><time>2026-04-11T18:39:05.022Z</time></trkpt><trkpt lat="41.9460229" lon="12.1446229"><ele>43.0</ele><time>2026-04-11T18:39:06.023Z</time></trkpt><trkpt lat="41.9458991" lon="12.1447563"><ele>43.0</ele><time>2026-04-11T18:39:07.022Z</time></trkpt><trkpt lat="41.9457812" lon="12.1448965"><ele>42.333333333333336</ele><time>2026-04-11T18:39:08.022Z</time></trkpt><trkpt lat="41.9456683" lon="12.1450342"><ele>41.666666666666664</ele><time>2026-04-11T18:39:09.022Z</time></trkpt><trkpt lat="41.9455548" lon="12.1451719"><ele>41.0</ele><time>2026-04-11T18:39:10.023Z</time></trkpt><trkpt lat="41.9454389" lon="12.1453125"><ele>41.0</ele><time>2026-04-11T18:39:11.022Z</time></trkpt><trkpt lat="41.9453201" lon="12.1454479"><ele>41.0</ele><time>2026-04-11T18:39:12.022Z</time></trkpt><trkpt lat="41.9452063" lon="12.1455818"><ele>41.0</ele><time>2026-04-11T18:39:13.023Z</time></trkpt><trkpt lat="41.9450964" lon="12.1457072"><ele>42.666666666666664</ele><time>2026-04-11T18:39:14.023Z</time></trkpt><trkpt lat="41.9449978" lon="12.1458524"><ele>44.333333333333336</ele><time>2026-04-11T18:39:15.023Z</time></trkpt><trkpt lat="41.9448801" lon="12.1459949"><ele>46.0</ele><time>2026-04-11T18:39:16.023Z</time></trkpt><trkpt lat="41.9447629" lon="12.1461208"><ele>46.0</ele><time>2026-04-11T18:39:17.023Z</time></trkpt><trkpt lat="41.9446411" lon="12.1462337"><ele>46.0</ele><time>2026-04-11T18:39:18.023Z</time></trkpt><trkpt lat="41.9445267" lon="12.146357"><ele>46.0</ele><time>2026-04-11T18:39:19.022Z</time></trkpt><trkpt lat="41.9444599" lon="12.1464802"><ele>46.0</ele><time>2026-04-11T18:39:20.023Z</time></trkpt><trkpt lat="41.9443847" lon="12.1465956"><ele>46.25</ele><time>2026-04-11T18:39:21.023Z</time></trkpt><trkpt lat="41.9443042" lon="12.1467338"><ele>46.5</ele><time>2026-04-11T18:39:22.023Z</time></trkpt><trkpt lat="41.9442267" lon="12.1468734"><ele>46.75</ele><time>2026-04-11T18:39:23.023Z</time></trkpt><trkpt lat="41.9441507" lon="12.1470116"><ele>47.0</ele><time>2026-04-11T18:39:24.023Z</time></trkpt><trkpt lat="41.9440807" lon="12.1471691"><ele>46.5</ele><time>2026-04-11T18:39:25.023Z</time></trkpt><trkpt lat="41.944006" lon="12.1473226"><ele>46.0</ele><time>2026-04-11T18:39:26.023Z</time></trkpt><trkpt lat="41.9439383" lon="12.1474744"><ele>45.5</ele><time>2026-04-11T18:39:27.023Z</time></trkpt><trkpt lat="41.9438607" lon="12.1476562"><ele>45.0</ele><time>2026-04-11T18:39:28.023Z</time></trkpt><trkpt lat="41.943774" lon="12.1478444"><ele>45.0</ele><time>2026-04-11T18:39:29.023Z</time></trkpt><trkpt lat="41.943692" lon="12.1480291"><ele>45.0</ele><time>2026-04-11T18:39:30.022Z</time></trkpt><trkpt lat="41.9436076" lon="12.1482017"><ele>45.0</ele><time>2026-04-11T18:39:31.022Z</time></trkpt><trkpt lat="41.9435318" lon="12.1483635"><ele>45.0</ele><time>2026-04-11T18:39:32.023Z</time></trkpt><trkpt lat="41.9434608" lon="12.1485261"><ele>45.0</ele><time>2026-04-11T18:39:33.023Z</time></trkpt><trkpt lat="41.9433944" lon="12.1486714"><ele>45.0</ele><time>2026-04-11T18:39:34.023Z</time></trkpt><trkpt lat="41.9433251" lon="12.1488134"><ele>45.0</ele><time>2026-04-11T18:39:35.023Z</time></trkpt><trkpt lat="41.9432512" lon="12.1489614"><ele>45.5</ele><time>2026-04-11T18:39:36.023Z</time></trkpt><trkpt lat="41.943179" lon="12.1491242"><ele>46.0</ele><time>2026-04-11T18:39:37.023Z</time></trkpt><trkpt lat="41.9431034" lon="12.1492934"><ele>46.5</ele><time>2026-04-11T18:39:38.022Z</time></trkpt><trkpt lat="41.9430349" lon="12.1494599"><ele>47.0</ele><time>2026-04-11T18:39:39.022Z</time></trkpt><trkpt lat="41.9429763" lon="12.1496282"><ele>47.0</ele><time>2026-04-11T18:39:40.022Z</time></trkpt><trkpt lat="41.9429066" lon="12.1497857"><ele>47.0</ele><time>2026-04-11T18:39:41.022Z</time></trkpt><trkpt lat="41.9428196" lon="12.1499517"><ele>47.0</ele><time>2026-04-11T18:39:42.023Z</time></trkpt><trkpt lat="41.9427413" lon="12.1501167"><ele>47.0</ele><time>2026-04-11T18:39:43.022Z</time></trkpt><trkpt lat="41.9426647" lon="12.1502715"><ele>47.25</ele><time>2026-04-11T18:39:44.023Z</time></trkpt><trkpt lat="41.9425923" lon="12.1504034"><ele>47.5</ele><time>2026-04-11T18:39:45.023Z</time></trkpt><trkpt lat="41.9425076" lon="12.150524"><ele>47.75</ele><time>2026-04-11T18:39:46.022Z</time></trkpt><trkpt lat="41.9424077" lon="12.1506378"><ele>48.0</ele><time>2026-04-11T18:39:47.023Z</time></trkpt><trkpt lat="41.9423017" lon="12.1507265"><ele>46.0</ele><time>2026-04-11T18:39:48.023Z</time></trkpt><trkpt lat="41.942187" lon="12.1507937"><ele>44.0</ele><time>2026-04-11T18:39:49.022Z</time></trkpt><trkpt lat="41.9420477" lon="12.1508325"><ele>42.0</ele><time>2026-04-11T18:39:50.023Z</time></trkpt><trkpt lat="41.9419052" lon="12.1508731"><ele>40.0</ele><time>2026-04-11T18:39:51.023Z</time></trkpt><trkpt lat="41.9417696" lon="12.1509056"><ele>38.75</ele><time>2026-04-11T18:39:52.023Z</time></trkpt><trkpt lat="41.9416396" lon="12.1509445"><ele>37.5</ele><time>2026-04-11T18:39:53.023Z</time></trkpt><trkpt lat="41.9415178" lon="12.1509994"><ele>36.25</ele><time>2026-04-11T18:39:54.023Z</time></trkpt><trkpt lat="41.9413979" lon="12.1510747"><ele>35.0</ele><time>2026-04-11T18:39:55.023Z</time></trkpt><trkpt lat="41.9412745" lon="12.1511676"><ele>35.0</ele><time>2026-04-11T18:39:56.023Z</time></trkpt><trkpt lat="41.9411623" lon="12.1512578"><ele>35.0</ele><time>2026-04-11T18:39:57.023Z</time></trkpt><trkpt lat="41.941056" lon="12.1513479"><ele>35.0</ele><time>2026-04-11T18:39:58.022Z</time></trkpt><trkpt lat="41.9409654" lon="12.1514327"><ele>35.0</ele><time>2026-04-11T18:39:59.023Z</time></trkpt><trkpt lat="41.9408843" lon="12.1515213"><ele>34.33333333333333</ele><time>2026-04-11T18:40:00.023Z</time></trkpt><trkpt lat="41.9408039" lon="12.1515937"><ele>33.666666666666664</ele><time>2026-04-11T18:40:01.022Z</time></trkpt><trkpt lat="41.9407263" lon="12.1516561"><ele>33.0</ele><time>2026-04-11T18:40:02.022Z</time></trkpt><trkpt lat="41.9406681" lon="12.1517073"><ele>32.333333333333336</ele><time>2026-04-11T18:40:03.023Z</time></trkpt><trkpt lat="41.9406076" lon="12.1517616"><ele>31.666666666666668</ele><time>2026-04-11T18:40:05.022Z</time></trkpt><trkpt lat="41.9405694" lon="12.151831"><ele>31.0</ele><time>2026-04-11T18:40:10.022Z</time></trkpt><trkpt lat="41.9404856" lon="12.1519179"><ele>31.0</ele><time>2026-04-11T18:40:12.023Z</time></trkpt><trkpt lat="41.9404299" lon="12.1519704"><ele>31.0</ele><time>2026-04-11T18:40:13.023Z</time></trkpt><trkpt lat="41.9403777" lon="12.1520549"><ele>31.0</ele><time>2026-04-11T18:40:14.023Z</time></trkpt><trkpt lat="41.9402971" lon="12.1521398"><ele>31.0</ele><time>2026-04-11T18:40:15.023Z</time></trkpt><trkpt lat="41.9402113" lon="12.1522338"><ele>31.0</ele><time>2026-04-11T18:40:16.022Z</time></trkpt><trkpt lat="41.9401141" lon="12.152347"><ele>30.5</ele><time>2026-04-11T18:40:17.023Z</time></trkpt><trkpt lat="41.9400089" lon="12.152462"><ele>30.0</ele><time>2026-04-11T18:40:18.023Z</time></trkpt><trkpt lat="41.9398974" lon="12.1525871"><ele>29.5</ele><time>2026-04-11T18:40:19.023Z</time></trkpt><trkpt lat="41.9397792" lon="12.1527197"><ele>29.0</ele><time>2026-04-11T18:40:20.023Z</time></trkpt><trkpt lat="41.9396654" lon="12.1528398"><ele>29.0</ele><time>2026-04-11T18:40:21.023Z</time></trkpt><trkpt lat="41.9395589" lon="12.1529577"><ele>29.0</ele><time>2026-04-11T18:40:22.022Z</time></trkpt><trkpt lat="41.9394622" lon="12.1530718"><ele>29.0</ele><time>2026-04-11T18:40:23.023Z</time></trkpt><trkpt lat="41.939353" lon="12.1531887"><ele>29.0</ele><time>2026-04-11T18:40:24.022Z</time></trkpt><trkpt lat="41.9392427" lon="12.1533019"><ele>28.75</ele><time>2026-04-11T18:40:25.022Z</time></trkpt><trkpt lat="41.9391271" lon="12.1533988"><ele>28.5</ele><time>2026-04-11T18:40:26.023Z</time></trkpt><trkpt lat="41.9390102" lon="12.1534911"><ele>28.25</ele><time>2026-04-11T18:40:27.023Z</time></trkpt><trkpt lat="41.9388943" lon="12.1535772"><ele>28.0</ele><time>2026-04-11T18:40:28.022Z</time></trkpt><trkpt lat="41.9387919" lon="12.1536522"><ele>28.0</ele><time>2026-04-11T18:40:29.022Z</time></trkpt><trkpt lat="41.9386923" lon="12.1537298"><ele>28.0</ele><time>2026-04-11T18:40:30.023Z</time></trkpt><trkpt lat="41.9385914" lon="12.1537867"><ele>28.0</ele><time>2026-04-11T18:40:31.023Z</time></trkpt><trkpt lat="41.9384726" lon="12.1538142"><ele>28.0</ele><time>2026-04-11T18:40:32.022Z</time></trkpt><trkpt lat="41.938337" lon="12.1538272"><ele>27.666666666666668</ele><time>2026-04-11T18:40:33.022Z</time></trkpt><trkpt lat="41.9381865" lon="12.1538526"><ele>27.333333333333336</ele><time>2026-04-11T18:40:34.022Z</time></trkpt><trkpt lat="41.9380323" lon="12.153864"><ele>27.0</ele><time>2026-04-11T18:40:35.022Z</time></trkpt><trkpt lat="41.9378701" lon="12.1538782"><ele>27.0</ele><time>2026-04-11T18:40:36.022Z</time></trkpt><trkpt lat="41.9376955" lon="12.153889"><ele>27.0</ele><time>2026-04-11T18:40:37.023Z</time></trkpt><trkpt lat="41.9375233" lon="12.153899"><ele>27.0</ele><time>2026-04-11T18:40:38.023Z</time></trkpt><trkpt lat="41.9373523" lon="12.1539137"><ele>25.666666666666668</ele><time>2026-04-11T18:40:39.022Z</time></trkpt><trkpt lat="41.9371835" lon="12.1539272"><ele>24.333333333333336</ele><time>2026-04-11T18:40:40.023Z</time></trkpt><trkpt lat="41.9370136" lon="12.1539473"><ele>23.0</ele><time>2026-04-11T18:40:41.022Z</time></trkpt><trkpt lat="41.9368383" lon="12.1539806"><ele>21.333333333333336</ele><time>2026-04-11T18:40:42.022Z</time></trkpt><trkpt lat="41.9366518" lon="12.1540063"><ele>19.666666666666668</ele><time>2026-04-11T18:40:43.022Z</time></trkpt><trkpt lat="41.9365042" lon="12.1539826"><ele>18.0</ele><time>2026-04-11T18:40:44.023Z</time></trkpt><trkpt lat="41.9363772" lon="12.1539603"><ele>18.0</ele><time>2026-04-11T18:40:45.023Z</time></trkpt><trkpt lat="41.9362569" lon="12.1539515"><ele>18.0</ele><time>2026-04-11T18:40:46.023Z</time></trkpt><trkpt lat="41.9361313" lon="12.1539349"><ele>18.0</ele><time>2026-04-11T18:40:47.023Z</time></trkpt><trkpt lat="41.935986" lon="12.1539138"><ele>18.0</ele><time>2026-04-11T18:40:48.023Z</time></trkpt><trkpt lat="41.9358608" lon="12.1538966"><ele>17.8</ele><time>2026-04-11T18:40:49.022Z</time></trkpt><trkpt lat="41.9357346" lon="12.153879"><ele>17.6</ele><time>2026-04-11T18:40:50.022Z</time></trkpt><trkpt lat="41.9356346" lon="12.153848"><ele>17.4</ele><time>2026-04-11T18:40:51.023Z</time></trkpt><trkpt lat="41.9355493" lon="12.1538238"><ele>17.2</ele><time>2026-04-11T18:40:52.022Z</time></trkpt><trkpt lat="41.9354773" lon="12.1537992"><ele>17.0</ele><time>2026-04-11T18:40:53.022Z</time></trkpt><trkpt lat="41.9354063" lon="12.1537804"><ele>17.0</ele><time>2026-04-11T18:40:54.023Z</time></trkpt><trkpt lat="41.9353514" lon="12.1538324"><ele>17.0</ele><time>2026-04-11T18:41:15.022Z</time></trkpt><trkpt lat="41.9353415" lon="12.1539892"><ele>17.0</ele><time>2026-04-11T18:41:17.022Z</time></trkpt><trkpt lat="41.935357" lon="12.1540774"><ele>17.0</ele><time>2026-04-11T18:41:18.022Z</time></trkpt><trkpt lat="41.9353819" lon="12.1541844"><ele>17.0</ele><time>2026-04-11T18:41:19.023Z</time></trkpt><trkpt lat="41.9354128" lon="12.1543192"><ele>17.0</ele><time>2026-04-11T18:41:20.023Z</time></trkpt><trkpt lat="41.9354451" lon="12.1544651"><ele>16.5</ele><time>2026-04-11T18:41:21.023Z</time></trkpt><trkpt lat="41.93548" lon="12.1546205"><ele>16.0</ele><time>2026-04-11T18:41:22.023Z</time></trkpt><trkpt lat="41.9355182" lon="12.1547798"><ele>15.5</ele><time>2026-04-11T18:41:23.023Z</time></trkpt><trkpt lat="41.9355526" lon="12.1549476"><ele>15.0</ele><time>2026-04-11T18:41:24.023Z</time></trkpt><trkpt lat="41.9355933" lon="12.1551378"><ele>15.0</ele><time>2026-04-11T18:41:25.023Z</time></trkpt><trkpt lat="41.9356217" lon="12.1553296"><ele>15.0</ele><time>2026-04-11T18:41:26.023Z</time></trkpt><trkpt lat="41.9356407" lon="12.1555283"><ele>15.0</ele><time>2026-04-11T18:41:27.022Z</time></trkpt><trkpt lat="41.9356564" lon="12.155738"><ele>15.0</ele><time>2026-04-11T18:41:28.023Z</time></trkpt><trkpt lat="41.9356675" lon="12.1559597"><ele>15.0</ele><time>2026-04-11T18:41:29.023Z</time></trkpt><trkpt lat="41.935664" lon="12.1561872"><ele>15.0</ele><time>2026-04-11T18:41:30.023Z</time></trkpt><trkpt lat="41.9356456" lon="12.1564231"><ele>14.666666666666668</ele><time>2026-04-11T18:41:31.022Z</time></trkpt><trkpt lat="41.9356107" lon="12.1566565"><ele>14.333333333333334</ele><time>2026-04-11T18:41:32.022Z</time></trkpt><trkpt lat="41.9355646" lon="12.1568985"><ele>14.0</ele><time>2026-04-11T18:41:33.022Z</time></trkpt><trkpt lat="41.935529" lon="12.15714"><ele>14.333333333333334</ele><time>2026-04-11T18:41:34.023Z</time></trkpt><trkpt lat="41.9354657" lon="12.1574166"><ele>14.666666666666668</ele><time>2026-04-11T18:41:35.022Z</time></trkpt><trkpt lat="41.9353584" lon="12.1576902"><ele>15.0</ele><time>2026-04-11T18:41:36.022Z</time></trkpt><trkpt lat="41.9353012" lon="12.1579126"><ele>15.0</ele><time>2026-04-11T18:41:37.022Z</time></trkpt><trkpt lat="41.9352663" lon="12.1581464"><ele>15.0</ele><time>2026-04-11T18:41:38.022Z</time></trkpt><trkpt lat="41.9351948" lon="12.1583935"><ele>15.0</ele><time>2026-04-11T18:41:39.022Z</time></trkpt><trkpt lat="41.9351106" lon="12.1586525"><ele>14.0</ele><time>2026-04-11T18:41:40.023Z</time></trkpt><trkpt lat="41.935043" lon="12.1589303"><ele>13.0</ele><time>2026-04-11T18:41:41.023Z</time></trkpt><trkpt lat="41.9349732" lon="12.159217"><ele>12.0</ele><time>2026-04-11T18:41:42.022Z</time></trkpt><trkpt lat="41.9349033" lon="12.1595116"><ele>12.0</ele><time>2026-04-11T18:41:43.022Z</time></trkpt><trkpt lat="41.9348253" lon="12.15982"><ele>12.0</ele><time>2026-04-11T18:41:44.023Z</time></trkpt><trkpt lat="41.9347658" lon="12.1600897"><ele>13.0</ele><time>2026-04-11T18:41:45.022Z</time></trkpt><trkpt lat="41.9346981" lon="12.1603567"><ele>14.0</ele><time>2026-04-11T18:41:46.022Z</time></trkpt><trkpt lat="41.934633" lon="12.1606086"><ele>15.0</ele><time>2026-04-11T18:41:47.023Z</time></trkpt><trkpt lat="41.9345707" lon="12.1608662"><ele>15.0</ele><time>2026-04-11T18:41:48.023Z</time></trkpt><trkpt lat="41.9345089" lon="12.1611244"><ele>15.0</ele><time>2026-04-11T18:41:49.022Z</time></trkpt><trkpt lat="41.9344457" lon="12.1613827"><ele>15.0</ele><time>2026-04-11T18:41:50.023Z</time></trkpt><trkpt lat="41.934387" lon="12.1616346"><ele>15.666666666666668</ele><time>2026-04-11T18:41:51.023Z</time></trkpt><trkpt lat="41.9343258" lon="12.1618833"><ele>16.333333333333336</ele><time>2026-04-11T18:41:52.022Z</time></trkpt><trkpt lat="41.9342728" lon="12.1621217"><ele>17.0</ele><time>2026-04-11T18:41:53.022Z</time></trkpt><trkpt lat="41.9342126" lon="12.1623599"><ele>15.333333333333334</ele><time>2026-04-11T18:41:54.023Z</time></trkpt><trkpt lat="41.9341512" lon="12.1626084"><ele>13.666666666666668</ele><time>2026-04-11T18:41:55.023Z</time></trkpt><trkpt lat="41.9340953" lon="12.1628503"><ele>12.0</ele><time>2026-04-11T18:41:56.023Z</time></trkpt><trkpt lat="41.9340401" lon="12.1630836"><ele>12.333333333333332</ele><time>2026-04-11T18:41:57.023Z</time></trkpt><trkpt lat="41.9339889" lon="12.1633228"><ele>12.666666666666666</ele><time>2026-04-11T18:41:58.021Z</time></trkpt><trkpt lat="41.9339157" lon="12.1636141"><ele>13.0</ele><time>2026-04-11T18:41:59.021Z</time></trkpt><trkpt lat="41.9338318" lon="12.1639372"><ele>13.0</ele><time>2026-04-11T18:42:00.022Z</time></trkpt><trkpt lat="41.9338128" lon="12.1640312"><ele>13.0</ele><time>2026-04-11T18:42:01.021Z</time></trkpt><trkpt lat="41.9337542" lon="12.1642486"><ele>13.0</ele><time>2026-04-11T18:42:02.022Z</time></trkpt><trkpt lat="41.9337191" lon="12.1645203"><ele>13.0</ele><time>2026-04-11T18:42:03.022Z</time></trkpt><trkpt lat="41.9336582" lon="12.1647698"><ele>13.0</ele><time>2026-04-11T18:42:04.022Z</time></trkpt><trkpt lat="41.9335915" lon="12.1650299"><ele>13.0</ele><time>2026-04-11T18:42:05.021Z</time></trkpt><trkpt lat="41.933523" lon="12.1652972"><ele>13.0</ele><time>2026-04-11T18:42:06.022Z</time></trkpt><trkpt lat="41.9334533" lon="12.1655652"><ele>13.0</ele><time>2026-04-11T18:42:07.022Z</time></trkpt><trkpt lat="41.9333889" lon="12.1658238"><ele>13.0</ele><time>2026-04-11T18:42:08.022Z</time></trkpt><trkpt lat="41.9333168" lon="12.166089"><ele>13.0</ele><time>2026-04-11T18:42:09.022Z</time></trkpt><trkpt lat="41.9332426" lon="12.1663508"><ele>13.0</ele><time>2026-04-11T18:42:10.021Z</time></trkpt><trkpt lat="41.9331743" lon="12.1666094"><ele>13.0</ele><time>2026-04-11T18:42:11.022Z</time></trkpt><trkpt lat="41.9331066" lon="12.1668582"><ele>13.666666666666666</ele><time>2026-04-11T18:42:12.022Z</time></trkpt><trkpt lat="41.9330369" lon="12.1671141"><ele>14.333333333333332</ele><time>2026-04-11T18:42:13.022Z</time></trkpt><trkpt lat="41.9329761" lon="12.1673684"><ele>15.0</ele><time>2026-04-11T18:42:14.021Z</time></trkpt><trkpt lat="41.9329138" lon="12.1676167"><ele>15.0</ele><time>2026-04-11T18:42:15.021Z</time></trkpt><trkpt lat="41.9328504" lon="12.1678647"><ele>15.0</ele><time>2026-04-11T18:42:16.022Z</time></trkpt><trkpt lat="41.9327868" lon="12.1681126"><ele>15.0</ele><time>2026-04-11T18:42:17.021Z</time></trkpt><trkpt lat="41.9327216" lon="12.1683683"><ele>15.333333333333332</ele><time>2026-04-11T18:42:18.022Z</time></trkpt><trkpt lat="41.9326493" lon="12.1686241"><ele>15.666666666666666</ele><time>2026-04-11T18:42:19.021Z</time></trkpt><trkpt lat="41.9325766" lon="12.1688847"><ele>16.0</ele><time>2026-04-11T18:42:20.022Z</time></trkpt><trkpt lat="41.9324982" lon="12.169148"><ele>15.0</ele><time>2026-04-11T18:42:21.022Z</time></trkpt><trkpt lat="41.9324261" lon="12.1694081"><ele>14.0</ele><time>2026-04-11T18:42:22.022Z</time></trkpt><trkpt lat="41.9323669" lon="12.1696925"><ele>13.0</ele><time>2026-04-11T18:42:23.021Z</time></trkpt><trkpt lat="41.9322964" lon="12.1699731"><ele>13.0</ele><time>2026-04-11T18:42:24.021Z</time></trkpt><trkpt lat="41.9322149" lon="12.1702638"><ele>13.0</ele><time>2026-04-11T18:42:25.021Z</time></trkpt><trkpt lat="41.9321345" lon="12.1705412"><ele>13.666666666666666</ele><time>2026-04-11T18:42:26.021Z</time></trkpt><trkpt lat="41.9320592" lon="12.170823"><ele>14.333333333333332</ele><time>2026-04-11T18:42:27.022Z</time></trkpt><trkpt lat="41.9319826" lon="12.1711018"><ele>15.0</ele><time>2026-04-11T18:42:28.021Z</time></trkpt><trkpt lat="41.9318979" lon="12.1713612"><ele>15.666666666666668</ele><time>2026-04-11T18:42:29.021Z</time></trkpt><trkpt lat="41.9318174" lon="12.171627"><ele>16.333333333333336</ele><time>2026-04-11T18:42:30.021Z</time></trkpt><trkpt lat="41.9317433" lon="12.1718995"><ele>17.0</ele><time>2026-04-11T18:42:31.022Z</time></trkpt><trkpt lat="41.9316746" lon="12.1721715"><ele>15.666666666666668</ele><time>2026-04-11T18:42:32.022Z</time></trkpt><trkpt lat="41.931605" lon="12.1724342"><ele>14.333333333333332</ele><time>2026-04-11T18:42:33.022Z</time></trkpt><trkpt lat="41.931527" lon="12.1726828"><ele>13.0</ele><time>2026-04-11T18:42:34.021Z</time></trkpt><trkpt lat="41.9314425" lon="12.1729454"><ele>14.0</ele><time>2026-04-11T18:42:35.022Z</time></trkpt><trkpt lat="41.9313734" lon="12.1732107"><ele>15.0</ele><time>2026-04-11T18:42:36.021Z</time></trkpt><trkpt lat="41.9313035" lon="12.1734883"><ele>16.0</ele><time>2026-04-11T18:42:37.021Z</time></trkpt><trkpt lat="41.9312379" lon="12.1737525"><ele>16.0</ele><time>2026-04-11T18:42:38.021Z</time></trkpt><trkpt lat="41.93117" lon="12.1740036"><ele>16.0</ele><time>2026-04-11T18:42:39.022Z</time></trkpt><trkpt lat="41.9310998" lon="12.1742615"><ele>16.0</ele><time>2026-04-11T18:42:40.022Z</time></trkpt><trkpt lat="41.9310252" lon="12.1745133"><ele>16.333333333333332</ele><time>2026-04-11T18:42:41.021Z</time></trkpt><trkpt lat="41.9309493" lon="12.1747553"><ele>16.666666666666668</ele><time>2026-04-11T18:42:42.022Z</time></trkpt><trkpt lat="41.9308693" lon="12.1749931"><ele>17.0</ele><time>2026-04-11T18:42:43.022Z</time></trkpt><trkpt lat="41.9307802" lon="12.1752226"><ele>17.0</ele><time>2026-04-11T18:42:44.022Z</time></trkpt><trkpt lat="41.9306818" lon="12.1754648"><ele>17.0</ele><time>2026-04-11T18:42:45.021Z</time></trkpt><trkpt lat="41.9305741" lon="12.1756899"><ele>17.0</ele><time>2026-04-11T18:42:46.021Z</time></trkpt><trkpt lat="41.9304471" lon="12.1758809"><ele>17.0</ele><time>2026-04-11T18:42:47.022Z</time></trkpt><trkpt lat="41.9303177" lon="12.17607"><ele>17.0</ele><time>2026-04-11T18:42:48.021Z</time></trkpt><trkpt lat="41.9301873" lon="12.1762545"><ele>17.0</ele><time>2026-04-11T18:42:49.022Z</time></trkpt><trkpt lat="41.9300423" lon="12.1764445"><ele>16.0</ele><time>2026-04-11T18:42:50.022Z</time></trkpt><trkpt lat="41.9299035" lon="12.1766103"><ele>15.0</ele><time>2026-04-11T18:42:51.022Z</time></trkpt><trkpt lat="41.9297624" lon="12.1767839"><ele>14.0</ele><time>2026-04-11T18:42:52.022Z</time></trkpt><trkpt lat="41.929627" lon="12.1769427"><ele>14.0</ele><time>2026-04-11T18:42:53.021Z</time></trkpt><trkpt lat="41.9294866" lon="12.1771184"><ele>14.0</ele><time>2026-04-11T18:42:54.021Z</time></trkpt><trkpt lat="41.9293443" lon="12.177285"><ele>14.0</ele><time>2026-04-11T18:42:55.022Z</time></trkpt><trkpt lat="41.9292153" lon="12.1774689"><ele>12.666666666666668</ele><time>2026-04-11T18:42:56.022Z</time></trkpt><trkpt lat="41.9290656" lon="12.1776453"><ele>11.333333333333334</ele><time>2026-04-11T18:42:57.022Z</time></trkpt><trkpt lat="41.9289196" lon="12.1778329"><ele>10.0</ele><time>2026-04-11T18:42:58.022Z</time></trkpt><trkpt lat="41.9287722" lon="12.1780049"><ele>10.333333333333334</ele><time>2026-04-11T18:42:59.022Z</time></trkpt><trkpt lat="41.9286266" lon="12.1781929"><ele>10.666666666666666</ele><time>2026-04-11T18:43:00.022Z</time></trkpt><trkpt lat="41.9284615" lon="12.1783882"><ele>11.0</ele><time>2026-04-11T18:43:01.021Z</time></trkpt><trkpt lat="41.928311" lon="12.1785677"><ele>11.0</ele><time>2026-04-11T18:43:02.022Z</time></trkpt><trkpt lat="41.9281784" lon="12.1787404"><ele>11.0</ele><time>2026-04-11T18:43:03.022Z</time></trkpt><trkpt lat="41.9280565" lon="12.1789019"><ele>11.0</ele><time>2026-04-11T18:43:04.021Z</time></trkpt><trkpt lat="41.9279461" lon="12.1790594"><ele>11.333333333333332</ele><time>2026-04-11T18:43:05.022Z</time></trkpt><trkpt lat="41.9278304" lon="12.1792466"><ele>11.666666666666666</ele><time>2026-04-11T18:43:06.021Z</time></trkpt><trkpt lat="41.927717" lon="12.1794245"><ele>12.0</ele><time>2026-04-11T18:43:07.021Z</time></trkpt><trkpt lat="41.9276086" lon="12.1796072"><ele>12.0</ele><time>2026-04-11T18:43:08.021Z</time></trkpt><trkpt lat="41.9275067" lon="12.179795"><ele>12.0</ele><time>2026-04-11T18:43:09.021Z</time></trkpt><trkpt lat="41.9274145" lon="12.1799613"><ele>12.0</ele><time>2026-04-11T18:43:10.022Z</time></trkpt><trkpt lat="41.9273299" lon="12.1801354"><ele>12.0</ele><time>2026-04-11T18:43:11.022Z</time></trkpt><trkpt lat="41.9272546" lon="12.1803079"><ele>12.0</ele><time>2026-04-11T18:43:12.021Z</time></trkpt><trkpt lat="41.9271756" lon="12.1804897"><ele>12.0</ele><time>2026-04-11T18:43:13.022Z</time></trkpt><trkpt lat="41.9271019" lon="12.1806539"><ele>12.0</ele><time>2026-04-11T18:43:14.021Z</time></trkpt><trkpt lat="41.9270526" lon="12.1807944"><ele>12.0</ele><time>2026-04-11T18:43:15.021Z</time></trkpt><trkpt lat="41.9269889" lon="12.1809488"><ele>12.0</ele><time>2026-04-11T18:43:16.022Z</time></trkpt><trkpt lat="41.9269234" lon="12.1811022"><ele>12.0</ele><time>2026-04-11T18:43:17.022Z</time></trkpt><trkpt lat="41.9268546" lon="12.1812584"><ele>12.0</ele><time>2026-04-11T18:43:18.021Z</time></trkpt><trkpt lat="41.9267895" lon="12.181387"><ele>12.0</ele><time>2026-04-11T18:43:19.021Z</time></trkpt><trkpt lat="41.9267321" lon="12.1815004"><ele>12.0</ele><time>2026-04-11T18:43:20.021Z</time></trkpt><trkpt lat="41.9266853" lon="12.181611"><ele>12.0</ele><time>2026-04-11T18:43:21.022Z</time></trkpt><trkpt lat="41.9266273" lon="12.1817236"><ele>12.0</ele><time>2026-04-11T18:43:22.022Z</time></trkpt><trkpt lat="41.9265842" lon="12.1817991"><ele>12.0</ele><time>2026-04-11T18:43:23.021Z</time></trkpt><trkpt lat="41.9265553" lon="12.1818893"><ele>12.0</ele><time>2026-04-11T18:43:24.021Z</time></trkpt><trkpt lat="41.9265213" lon="12.1819659"><ele>12.0</ele><time>2026-04-11T18:43:25.022Z</time></trkpt><trkpt lat="41.9264781" lon="12.1821054"><ele>12.0</ele><time>2026-04-11T18:43:27.022Z</time></trkpt><trkpt lat="41.926416" lon="12.1821999"><ele>12.0</ele><time>2026-04-11T18:43:29.021Z</time></trkpt><trkpt lat="41.9263744" lon="12.182272"><ele>12.0</ele><time>2026-04-11T18:43:32.021Z</time></trkpt><trkpt lat="41.9263417" lon="12.1823562"><ele>12.0</ele><time>2026-04-11T18:43:46.022Z</time></trkpt><trkpt lat="41.9262943" lon="12.1824599"><ele>12.0</ele><time>2026-04-11T18:43:48.022Z</time></trkpt><trkpt lat="41.9262352" lon="12.1826169"><ele>12.399999999999999</ele><time>2026-04-11T18:43:50.021Z</time></trkpt><trkpt lat="41.9261404" lon="12.1827593"><ele>12.799999999999999</ele><time>2026-04-11T18:43:52.022Z</time></trkpt><trkpt lat="41.9260945" lon="12.182843"><ele>13.2</ele><time>2026-04-11T18:43:53.021Z</time></trkpt><trkpt lat="41.9260443" lon="12.1829422"><ele>13.6</ele><time>2026-04-11T18:43:54.021Z</time></trkpt><trkpt lat="41.9259968" lon="12.183044"><ele>14.0</ele><time>2026-04-11T18:43:55.022Z</time></trkpt><trkpt lat="41.9259493" lon="12.1831465"><ele>13.6</ele><time>2026-04-11T18:43:56.021Z</time></trkpt><trkpt lat="41.9258934" lon="12.1832586"><ele>13.2</ele><time>2026-04-11T18:43:57.021Z</time></trkpt><trkpt lat="41.9258431" lon="12.1833739"><ele>12.799999999999999</ele><time>2026-04-11T18:43:58.022Z</time></trkpt><trkpt lat="41.9257884" lon="12.1835008"><ele>12.399999999999999</ele><time>2026-04-11T18:43:59.021Z</time></trkpt><trkpt lat="41.9257278" lon="12.1836188"><ele>12.0</ele><time>2026-04-11T18:44:00.022Z</time></trkpt><trkpt lat="41.9256757" lon="12.1837183"><ele>12.0</ele><time>2026-04-11T18:44:01.022Z</time></trkpt><trkpt lat="41.925635" lon="12.1838215"><ele>12.0</ele><time>2026-04-11T18:44:02.021Z</time></trkpt><trkpt lat="41.9255921" lon="12.1839136"><ele>12.0</ele><time>2026-04-11T18:44:03.021Z</time></trkpt><trkpt lat="41.9255479" lon="12.1840096"><ele>12.0</ele><time>2026-04-11T18:44:04.021Z</time></trkpt><trkpt lat="41.925494" lon="12.1840957"><ele>12.0</ele><time>2026-04-11T18:44:05.022Z</time></trkpt><trkpt lat="41.9254308" lon="12.1841964"><ele>12.0</ele><time>2026-04-11T18:44:06.022Z</time></trkpt><trkpt lat="41.9253812" lon="12.184318"><ele>12.75</ele><time>2026-04-11T18:44:07.021Z</time></trkpt><trkpt lat="41.9253197" lon="12.184447"><ele>13.5</ele><time>2026-04-11T18:44:08.021Z</time></trkpt><trkpt lat="41.9252533" lon="12.1845759"><ele>14.25</ele><time>2026-04-11T18:44:09.021Z</time></trkpt><trkpt lat="41.9251866" lon="12.1847027"><ele>15.0</ele><time>2026-04-11T18:44:10.022Z</time></trkpt><trkpt lat="41.9251184" lon="12.1848319"><ele>14.25</ele><time>2026-04-11T18:44:11.022Z</time></trkpt><trkpt lat="41.9250384" lon="12.1849774"><ele>13.5</ele><time>2026-04-11T18:44:12.022Z</time></trkpt><trkpt lat="41.9249634" lon="12.1851277"><ele>12.75</ele><time>2026-04-11T18:44:13.021Z</time></trkpt><trkpt lat="41.9248881" lon="12.1852785"><ele>12.0</ele><time>2026-04-11T18:44:14.021Z</time></trkpt><trkpt lat="41.9248083" lon="12.1854379"><ele>12.0</ele><time>2026-04-11T18:44:15.023Z</time></trkpt><trkpt lat="41.9247261" lon="12.1855922"><ele>12.0</ele><time>2026-04-11T18:44:16.023Z</time></trkpt><trkpt lat="41.9246452" lon="12.1857418"><ele>12.0</ele><time>2026-04-11T18:44:17.022Z</time></trkpt><trkpt lat="41.9245742" lon="12.1858866"><ele>12.0</ele><time>2026-04-11T18:44:18.023Z</time></trkpt><trkpt lat="41.924508" lon="12.1860227"><ele>12.0</ele><time>2026-04-11T18:44:19.022Z</time></trkpt><trkpt lat="41.9244455" lon="12.1861436"><ele>12.0</ele><time>2026-04-11T18:44:20.023Z</time></trkpt><trkpt lat="41.9243856" lon="12.186265"><ele>12.0</ele><time>2026-04-11T18:44:21.023Z</time></trkpt><trkpt lat="41.9243224" lon="12.1863883"><ele>12.0</ele><time>2026-04-11T18:44:22.023Z</time></trkpt><trkpt lat="41.9242624" lon="12.1865034"><ele>12.0</ele><time>2026-04-11T18:44:23.022Z</time></trkpt><trkpt lat="41.9242016" lon="12.1866177"><ele>11.6</ele><time>2026-04-11T18:44:24.022Z</time></trkpt><trkpt lat="41.9241428" lon="12.186738"><ele>11.2</ele><time>2026-04-11T18:44:25.022Z</time></trkpt><trkpt lat="41.9240836" lon="12.186854"><ele>10.8</ele><time>2026-04-11T18:44:26.022Z</time></trkpt><trkpt lat="41.9240243" lon="12.1869757"><ele>10.4</ele><time>2026-04-11T18:44:27.023Z</time></trkpt><trkpt lat="41.9239704" lon="12.1870815"><ele>10.0</ele><time>2026-04-11T18:44:28.022Z</time></trkpt><trkpt lat="41.9239119" lon="12.1871884"><ele>10.0</ele><time>2026-04-11T18:44:29.023Z</time></trkpt><trkpt lat="41.9238544" lon="12.1873049"><ele>10.0</ele><time>2026-04-11T18:44:30.023Z</time></trkpt><trkpt lat="41.9237925" lon="12.1874262"><ele>10.0</ele><time>2026-04-11T18:44:31.023Z</time></trkpt><trkpt lat="41.9237291" lon="12.1875498"><ele>10.0</ele><time>2026-04-11T18:44:32.023Z</time></trkpt><trkpt lat="41.9236642" lon="12.1876647"><ele>10.0</ele><time>2026-04-11T18:44:33.023Z</time></trkpt><trkpt lat="41.9236082" lon="12.1877949"><ele>9.75</ele><time>2026-04-11T18:44:34.023Z</time></trkpt><trkpt lat="41.923547" lon="12.1879407"><ele>9.5</ele><time>2026-04-11T18:44:35.022Z</time></trkpt><trkpt lat="41.9234843" lon="12.1880817"><ele>9.25</ele><time>2026-04-11T18:44:36.023Z</time></trkpt><trkpt lat="41.9234172" lon="12.188228"><ele>9.0</ele><time>2026-04-11T18:44:37.023Z</time></trkpt><trkpt lat="41.9233409" lon="12.1883707"><ele>9.0</ele><time>2026-04-11T18:44:38.023Z</time></trkpt><trkpt lat="41.9232675" lon="12.1885117"><ele>9.0</ele><time>2026-04-11T18:44:39.022Z</time></trkpt><trkpt lat="41.9231945" lon="12.1886553"><ele>9.0</ele><time>2026-04-11T18:44:40.022Z</time></trkpt><trkpt lat="41.9231117" lon="12.1887961"><ele>9.0</ele><time>2026-04-11T18:44:41.022Z</time></trkpt><trkpt lat="41.9230316" lon="12.1889304"><ele>9.5</ele><time>2026-04-11T18:44:42.023Z</time></trkpt><trkpt lat="41.9229561" lon="12.189057"><ele>10.0</ele><time>2026-04-11T18:44:43.023Z</time></trkpt><trkpt lat="41.9228861" lon="12.1891989"><ele>10.5</ele><time>2026-04-11T18:44:44.023Z</time></trkpt><trkpt lat="41.9228064" lon="12.1893516"><ele>11.0</ele><time>2026-04-11T18:44:45.022Z</time></trkpt><trkpt lat="41.9227221" lon="12.1895215"><ele>11.0</ele><time>2026-04-11T18:44:46.022Z</time></trkpt><trkpt lat="41.9226382" lon="12.1896809"><ele>11.0</ele><time>2026-04-11T18:44:47.023Z</time></trkpt><trkpt lat="41.9225496" lon="12.1898368"><ele>11.0</ele><time>2026-04-11T18:44:48.023Z</time></trkpt><trkpt lat="41.9224643" lon="12.1899989"><ele>11.0</ele><time>2026-04-11T18:44:49.022Z</time></trkpt><trkpt lat="41.9223764" lon="12.1901643"><ele>10.666666666666666</ele><time>2026-04-11T18:44:50.023Z</time></trkpt><trkpt lat="41.9222892" lon="12.1903292"><ele>10.333333333333334</ele><time>2026-04-11T18:44:51.022Z</time></trkpt><trkpt lat="41.9221993" lon="12.1904975"><ele>10.0</ele><time>2026-04-11T18:44:52.022Z</time></trkpt><trkpt lat="41.9221122" lon="12.1906584"><ele>11.25</ele><time>2026-04-11T18:44:53.022Z</time></trkpt><trkpt lat="41.9220257" lon="12.1908234"><ele>12.5</ele><time>2026-04-11T18:44:54.022Z</time></trkpt><trkpt lat="41.9219432" lon="12.1909734"><ele>13.75</ele><time>2026-04-11T18:44:55.022Z</time></trkpt><trkpt lat="41.9218698" lon="12.1911436"><ele>15.0</ele><time>2026-04-11T18:44:56.022Z</time></trkpt><trkpt lat="41.9218084" lon="12.1913116"><ele>14.5</ele><time>2026-04-11T18:44:57.023Z</time></trkpt><trkpt lat="41.9217153" lon="12.1914656"><ele>14.0</ele><time>2026-04-11T18:44:58.023Z</time></trkpt><trkpt lat="41.9216333" lon="12.1916028"><ele>13.5</ele><time>2026-04-11T18:44:59.023Z</time></trkpt><trkpt lat="41.9215473" lon="12.1917327"><ele>13.0</ele><time>2026-04-11T18:45:00.022Z</time></trkpt><trkpt lat="41.9214778" lon="12.1918574"><ele>13.0</ele><time>2026-04-11T18:45:01.023Z</time></trkpt><trkpt lat="41.9213827" lon="12.1919972"><ele>13.0</ele><time>2026-04-11T18:45:02.022Z</time></trkpt><trkpt lat="41.9212648" lon="12.1921445"><ele>13.0</ele><time>2026-04-11T18:45:03.022Z</time></trkpt><trkpt lat="41.9211641" lon="12.1922826"><ele>13.0</ele><time>2026-04-11T18:45:04.023Z</time></trkpt><trkpt lat="41.9210523" lon="12.1924272"><ele>13.5</ele><time>2026-04-11T18:45:05.022Z</time></trkpt><trkpt lat="41.9209591" lon="12.1925675"><ele>14.0</ele><time>2026-04-11T18:45:06.022Z</time></trkpt><trkpt lat="41.9208672" lon="12.1927051"><ele>14.5</ele><time>2026-04-11T18:45:07.022Z</time></trkpt><trkpt lat="41.9207723" lon="12.1928419"><ele>15.0</ele><time>2026-04-11T18:45:08.023Z</time></trkpt><trkpt lat="41.9206786" lon="12.192979"><ele>13.666666666666666</ele><time>2026-04-11T18:45:09.022Z</time></trkpt><trkpt lat="41.9205818" lon="12.1931292"><ele>12.333333333333332</ele><time>2026-04-11T18:45:10.023Z</time></trkpt><trkpt lat="41.9204822" lon="12.193269"><ele>11.0</ele><time>2026-04-11T18:45:11.022Z</time></trkpt><trkpt lat="41.9203659" lon="12.1934159"><ele>10.666666666666666</ele><time>2026-04-11T18:45:12.023Z</time></trkpt><trkpt lat="41.9202446" lon="12.1935681"><ele>10.333333333333334</ele><time>2026-04-11T18:45:13.022Z</time></trkpt><trkpt lat="41.920149" lon="12.1937162"><ele>10.0</ele><time>2026-04-11T18:45:14.022Z</time></trkpt><trkpt lat="41.9200526" lon="12.1938591"><ele>10.5</ele><time>2026-04-11T18:45:15.023Z</time></trkpt><trkpt lat="41.919972" lon="12.1939961"><ele>11.0</ele><time>2026-04-11T18:45:16.022Z</time></trkpt><trkpt lat="41.9198904" lon="12.1941348"><ele>11.5</ele><time>2026-04-11T18:45:17.023Z</time></trkpt><trkpt lat="41.9197864" lon="12.1942737"><ele>12.0</ele><time>2026-04-11T18:45:18.023Z</time></trkpt><trkpt lat="41.919697" lon="12.1944059"><ele>12.25</ele><time>2026-04-11T18:45:19.022Z</time></trkpt><trkpt lat="41.9196303" lon="12.1945392"><ele>12.5</ele><time>2026-04-11T18:45:20.022Z</time></trkpt><trkpt lat="41.9195477" lon="12.1946704"><ele>12.75</ele><time>2026-04-11T18:45:21.022Z</time></trkpt><trkpt lat="41.9194645" lon="12.1947995"><ele>13.0</ele><time>2026-04-11T18:45:22.022Z</time></trkpt><trkpt lat="41.9193869" lon="12.1949292"><ele>13.0</ele><time>2026-04-11T18:45:23.023Z</time></trkpt><trkpt lat="41.9193129" lon="12.195057"><ele>13.0</ele><time>2026-04-11T18:45:24.023Z</time></trkpt><trkpt lat="41.9192187" lon="12.1951926"><ele>13.0</ele><time>2026-04-11T18:45:25.023Z</time></trkpt><trkpt lat="41.9191291" lon="12.1953348"><ele>13.0</ele><time>2026-04-11T18:45:26.022Z</time></trkpt><trkpt lat="41.9190292" lon="12.1954706"><ele>12.75</ele><time>2026-04-11T18:45:27.023Z</time></trkpt><trkpt lat="41.9189359" lon="12.1955943"><ele>12.5</ele><time>2026-04-11T18:45:28.022Z</time></trkpt><trkpt lat="41.9188587" lon="12.1957263"><ele>12.25</ele><time>2026-04-11T18:45:29.022Z</time></trkpt><trkpt lat="41.9187891" lon="12.1958617"><ele>12.0</ele><time>2026-04-11T18:45:30.023Z</time></trkpt><trkpt lat="41.9186974" lon="12.1959986"><ele>12.0</ele><time>2026-04-11T18:45:31.023Z</time></trkpt><trkpt lat="41.9186084" lon="12.1961366"><ele>12.0</ele><time>2026-04-11T18:45:32.022Z</time></trkpt><trkpt lat="41.9185139" lon="12.1962789"><ele>12.0</ele><time>2026-04-11T18:45:33.022Z</time></trkpt><trkpt lat="41.9184303" lon="12.1964092"><ele>12.0</ele><time>2026-04-11T18:45:34.023Z</time></trkpt><trkpt lat="41.918349" lon="12.1965335"><ele>12.5</ele><time>2026-04-11T18:45:35.023Z</time></trkpt><trkpt lat="41.9182678" lon="12.1966539"><ele>13.0</ele><time>2026-04-11T18:45:36.023Z</time></trkpt><trkpt lat="41.9181822" lon="12.1967709"><ele>13.5</ele><time>2026-04-11T18:45:37.023Z</time></trkpt><trkpt lat="41.9181028" lon="12.1968853"><ele>14.0</ele><time>2026-04-11T18:45:38.022Z</time></trkpt><trkpt lat="41.918026" lon="12.1969985"><ele>14.000000000000002</ele><time>2026-04-11T18:45:39.023Z</time></trkpt><trkpt lat="41.9179587" lon="12.1970953"><ele>14.0</ele><time>2026-04-11T18:45:40.023Z</time></trkpt><trkpt lat="41.9178902" lon="12.1971811"><ele>14.0</ele><time>2026-04-11T18:45:41.023Z</time></trkpt><trkpt lat="41.9178248" lon="12.1972675"><ele>14.0</ele><time>2026-04-11T18:45:42.022Z</time></trkpt><trkpt lat="41.9177701" lon="12.1973488"><ele>14.000000000000002</ele><time>2026-04-11T18:45:43.022Z</time></trkpt><trkpt lat="41.9177219" lon="12.1974208"><ele>14.0</ele><time>2026-04-11T18:45:44.023Z</time></trkpt><trkpt lat="41.9176745" lon="12.1974897"><ele>14.000000000000002</ele><time>2026-04-11T18:45:45.022Z</time></trkpt><trkpt lat="41.9176091" lon="12.197525"><ele>14.0</ele><time>2026-04-11T18:45:47.022Z</time></trkpt><trkpt lat="41.9175275" lon="12.1974466"><ele>14.0</ele><time>2026-04-11T18:45:49.023Z</time></trkpt><trkpt lat="41.9174784" lon="12.1973849"><ele>14.0</ele><time>2026-04-11T18:45:50.022Z</time></trkpt><trkpt lat="41.9174185" lon="12.1973115"><ele>14.000000000000002</ele><time>2026-04-11T18:45:51.023Z</time></trkpt><trkpt lat="41.9173552" lon="12.197252"><ele>14.0</ele><time>2026-04-11T18:45:52.023Z</time></trkpt><trkpt lat="41.9172985" lon="12.1971985"><ele>14.000000000000002</ele><time>2026-04-11T18:45:53.022Z</time></trkpt><trkpt lat="41.9172443" lon="12.1971304"><ele>14.0</ele><time>2026-04-11T18:45:54.023Z</time></trkpt><trkpt lat="41.9171966" lon="12.1970598"><ele>14.0</ele><time>2026-04-11T18:45:55.023Z</time></trkpt><trkpt lat="41.9171515" lon="12.1969941"><ele>14.0</ele><time>2026-04-11T18:45:56.022Z</time></trkpt><trkpt lat="41.9170929" lon="12.1969215"><ele>14.000000000000002</ele><time>2026-04-11T18:45:57.022Z</time></trkpt><trkpt lat="41.9170426" lon="12.1968489"><ele>14.0</ele><time>2026-04-11T18:45:58.022Z</time></trkpt><trkpt lat="41.9169713" lon="12.1967824"><ele>14.000000000000002</ele><time>2026-04-11T18:45:59.023Z</time></trkpt><trkpt lat="41.9168982" lon="12.1967391"><ele>14.0</ele><time>2026-04-11T18:46:00.023Z</time></trkpt><trkpt lat="41.9168147" lon="12.196721"><ele>14.0</ele><time>2026-04-11T18:46:01.022Z</time></trkpt><trkpt lat="41.9167381" lon="12.1967157"><ele>14.0</ele><time>2026-04-11T18:46:02.023Z</time></trkpt><trkpt lat="41.9166541" lon="12.1967463"><ele>14.000000000000002</ele><time>2026-04-11T18:46:03.023Z</time></trkpt><trkpt lat="41.9165769" lon="12.196807"><ele>14.0</ele><time>2026-04-11T18:46:04.023Z</time></trkpt><trkpt lat="41.916497" lon="12.1968923"><ele>14.0</ele><time>2026-04-11T18:46:05.022Z</time></trkpt><trkpt lat="41.9164248" lon="12.1969839"><ele>14.0</ele><time>2026-04-11T18:46:06.023Z</time></trkpt><trkpt lat="41.9163552" lon="12.197096"><ele>14.0</ele><time>2026-04-11T18:46:07.023Z</time></trkpt><trkpt lat="41.9162928" lon="12.1972304"><ele>14.0</ele><time>2026-04-11T18:46:08.023Z</time></trkpt><trkpt lat="41.9162264" lon="12.197375"><ele>14.0</ele><time>2026-04-11T18:46:09.023Z</time></trkpt><trkpt lat="41.9161429" lon="12.1975322"><ele>14.0</ele><time>2026-04-11T18:46:10.022Z</time></trkpt><trkpt lat="41.9160595" lon="12.1976857"><ele>14.0</ele><time>2026-04-11T18:46:11.022Z</time></trkpt><trkpt lat="41.9159724" lon="12.1978457"><ele>14.0</ele><time>2026-04-11T18:46:12.023Z</time></trkpt><trkpt lat="41.9158807" lon="12.1979969"><ele>14.0</ele><time>2026-04-11T18:46:13.023Z</time></trkpt><trkpt lat="41.9157898" lon="12.1981545"><ele>14.0</ele><time>2026-04-11T18:46:14.022Z</time></trkpt><trkpt lat="41.9157009" lon="12.1983118"><ele>14.0</ele><time>2026-04-11T18:46:15.022Z</time></trkpt><trkpt lat="41.915609" lon="12.1984675"><ele>14.0</ele><time>2026-04-11T18:46:16.023Z</time></trkpt><trkpt lat="41.9155164" lon="12.1986113"><ele>14.0</ele><time>2026-04-11T18:46:17.023Z</time></trkpt><trkpt lat="41.9154191" lon="12.1987658"><ele>14.0</ele><time>2026-04-11T18:46:18.023Z</time></trkpt><trkpt lat="41.9153182" lon="12.198916"><ele>14.0</ele><time>2026-04-11T18:46:19.022Z</time></trkpt><trkpt lat="41.9152093" lon="12.1990637"><ele>14.0</ele><time>2026-04-11T18:46:20.023Z</time></trkpt><trkpt lat="41.9150983" lon="12.1992134"><ele>14.0</ele><time>2026-04-11T18:46:21.022Z</time></trkpt><trkpt lat="41.914995" lon="12.1993619"><ele>14.0</ele><time>2026-04-11T18:46:22.023Z</time></trkpt><trkpt lat="41.9148934" lon="12.1995232"><ele>13.666666666666668</ele><time>2026-04-11T18:46:23.022Z</time></trkpt><trkpt lat="41.9147906" lon="12.1996799"><ele>13.333333333333332</ele><time>2026-04-11T18:46:24.023Z</time></trkpt><trkpt lat="41.9146793" lon="12.199837"><ele>13.0</ele><time>2026-04-11T18:46:25.022Z</time></trkpt><trkpt lat="41.9145636" lon="12.1999872"><ele>13.0</ele><time>2026-04-11T18:46:26.022Z</time></trkpt><trkpt lat="41.914452" lon="12.2001381"><ele>13.0</ele><time>2026-04-11T18:46:27.023Z</time></trkpt><trkpt lat="41.9143439" lon="12.2002834"><ele>13.0</ele><time>2026-04-11T18:46:28.022Z</time></trkpt><trkpt lat="41.9142335" lon="12.2004389"><ele>13.0</ele><time>2026-04-11T18:46:29.023Z</time></trkpt><trkpt lat="41.9141239" lon="12.2005903"><ele>13.0</ele><time>2026-04-11T18:46:30.022Z</time></trkpt><trkpt lat="41.9140171" lon="12.2007359"><ele>13.0</ele><time>2026-04-11T18:46:31.022Z</time></trkpt><trkpt lat="41.9139203" lon="12.2008695"><ele>13.0</ele><time>2026-04-11T18:46:32.022Z</time></trkpt><trkpt lat="41.9138429" lon="12.2009872"><ele>13.0</ele><time>2026-04-11T18:46:33.023Z</time></trkpt><trkpt lat="41.9137861" lon="12.2010583"><ele>13.0</ele><time>2026-04-11T18:46:34.022Z</time></trkpt><trkpt lat="41.9136814" lon="12.2010736"><ele>13.0</ele><time>2026-04-11T18:46:36.022Z</time></trkpt><trkpt lat="41.9135483" lon="12.2010088"><ele>13.0</ele><time>2026-04-11T18:46:38.023Z</time></trkpt><trkpt lat="41.9134548" lon="12.2008949"><ele>12.200000000000001</ele><time>2026-04-11T18:46:40.023Z</time></trkpt><trkpt lat="41.9133971" lon="12.2008301"><ele>11.4</ele><time>2026-04-11T18:46:41.023Z</time></trkpt><trkpt lat="41.9133009" lon="12.2007122"><ele>10.600000000000001</ele><time>2026-04-11T18:46:43.022Z</time></trkpt><trkpt lat="41.9132044" lon="12.2006351"><ele>9.8</ele><time>2026-04-11T18:46:45.023Z</time></trkpt><trkpt lat="41.9131244" lon="12.2005328"><ele>9.0</ele><time>2026-04-11T18:46:47.022Z</time></trkpt><trkpt lat="41.9130557" lon="12.2004447"><ele>8.8</ele><time>2026-04-11T18:46:49.022Z</time></trkpt><trkpt lat="41.9129928" lon="12.200347"><ele>8.600000000000001</ele><time>2026-04-11T18:46:51.023Z</time></trkpt><trkpt lat="41.9129195" lon="12.2002489"><ele>8.4</ele><time>2026-04-11T18:46:53.022Z</time></trkpt><trkpt lat="41.9128568" lon="12.2001657"><ele>8.200000000000001</ele><time>2026-04-11T18:46:55.022Z</time></trkpt><trkpt lat="41.9127898" lon="12.2000938"><ele>8.0</ele><time>2026-04-11T18:46:57.022Z</time></trkpt><trkpt lat="41.9127191" lon="12.2000108"><ele>8.0</ele><time>2026-04-11T18:46:59.023Z</time></trkpt><trkpt lat="41.9126468" lon="12.1999221"><ele>8.0</ele><time>2026-04-11T18:47:01.023Z</time></trkpt><trkpt lat="41.9125757" lon="12.1998337"><ele>8.0</ele><time>2026-04-11T18:47:03.022Z</time></trkpt><trkpt lat="41.9124972" lon="12.1997077"><ele>8.0</ele><time>2026-04-11T18:47:05.022Z</time></trkpt><trkpt lat="41.912458" lon="12.1996263"><ele>8.0</ele><time>2026-04-11T18:47:06.022Z</time></trkpt><trkpt lat="41.9123688" lon="12.199554"><ele>8.0</ele><time>2026-04-11T18:47:08.023Z</time></trkpt><trkpt lat="41.9123051" lon="12.1994535"><ele>7.999999999999999</ele><time>2026-04-11T18:47:10.023Z</time></trkpt><trkpt lat="41.9122716" lon="12.1993808"><ele>8.0</ele><time>2026-04-11T18:47:11.022Z</time></trkpt><trkpt lat="41.9122449" lon="12.1992958"><ele>8.0</ele><time>2026-04-11T18:47:12.022Z</time></trkpt><trkpt lat="41.9122186" lon="12.1992182"><ele>7.999999999999999</ele><time>2026-04-11T18:47:13.023Z</time></trkpt><trkpt lat="41.9121963" lon="12.1991337"><ele>8.0</ele><time>2026-04-11T18:47:14.022Z</time></trkpt><trkpt lat="41.9121826" lon="12.19905"><ele>8.0</ele><time>2026-04-11T18:47:15.023Z</time></trkpt><trkpt lat="41.9121698" lon="12.1989652"><ele>8.0</ele><time>2026-04-11T18:47:16.022Z</time></trkpt><trkpt lat="41.9121477" lon="12.1988052"><ele>8.0</ele><time>2026-04-11T18:47:18.022Z</time></trkpt><trkpt lat="41.9121297" lon="12.1986595"><ele>8.0</ele><time>2026-04-11T18:47:20.022Z</time></trkpt><trkpt lat="41.9121001" lon="12.1985127"><ele>8.0</ele><time>2026-04-11T18:47:22.022Z</time></trkpt><trkpt lat="41.9120707" lon="12.1983657"><ele>8.0</ele><time>2026-04-11T18:47:24.022Z</time></trkpt><trkpt lat="41.9120342" lon="12.1982269"><ele>8.0</ele><time>2026-04-11T18:47:26.023Z</time></trkpt><trkpt lat="41.9119844" lon="12.1980944"><ele>8.0</ele><time>2026-04-11T18:47:28.023Z</time></trkpt><trkpt lat="41.9119286" lon="12.1979546"><ele>8.0</ele><time>2026-04-11T18:47:30.023Z</time></trkpt><trkpt lat="41.9118458" lon="12.1978455"><ele>8.166666666666666</ele><time>2026-04-11T18:47:32.023Z</time></trkpt><trkpt lat="41.9117745" lon="12.1977328"><ele>8.333333333333332</ele><time>2026-04-11T18:47:34.022Z</time></trkpt><trkpt lat="41.9117301" lon="12.1976712"><ele>8.5</ele><time>2026-04-11T18:47:35.022Z</time></trkpt><trkpt lat="41.9116817" lon="12.1976131"><ele>8.666666666666666</ele><time>2026-04-11T18:47:36.022Z</time></trkpt><trkpt lat="41.9116026" lon="12.1975156"><ele>8.833333333333334</ele><time>2026-04-11T18:47:38.023Z</time></trkpt><trkpt lat="41.9115332" lon="12.1974156"><ele>9.0</ele><time>2026-04-11T18:47:40.022Z</time></trkpt><trkpt lat="41.9114627" lon="12.1973096"><ele>8.4</ele><time>2026-04-11T18:47:42.022Z</time></trkpt><trkpt lat="41.9113867" lon="12.1972064"><ele>7.800000000000001</ele><time>2026-04-11T18:47:44.023Z</time></trkpt><trkpt lat="41.9112984" lon="12.1971137"><ele>7.199999999999999</ele><time>2026-04-11T18:47:46.023Z</time></trkpt><trkpt lat="41.911216" lon="12.1970239"><ele>6.6</ele><time>2026-04-11T18:47:48.022Z</time></trkpt><trkpt lat="41.911129" lon="12.1969383"><ele>6.0</ele><time>2026-04-11T18:47:50.022Z</time></trkpt><trkpt lat="41.911082" lon="12.1968743"><ele>6.0</ele><time>2026-04-11T18:47:51.023Z</time></trkpt><trkpt lat="41.9110337" lon="12.1968059"><ele>6.0</ele><time>2026-04-11T18:47:52.023Z</time></trkpt><trkpt lat="41.91099" lon="12.1966993"><ele>6.0</ele><time>2026-04-11T18:47:53.023Z</time></trkpt><trkpt lat="41.9109289" lon="12.1966113"><ele>6.0</ele><time>2026-04-11T18:47:54.023Z</time></trkpt><trkpt lat="41.9108786" lon="12.1965365"><ele>6.0</ele><time>2026-04-11T18:47:55.022Z</time></trkpt><trkpt lat="41.9109041" lon="12.1963853"><ele>6.0</ele><time>2026-04-11T18:47:57.022Z</time></trkpt><trkpt lat="41.9109414" lon="12.1962788"><ele>6.333333333333333</ele><time>2026-04-11T18:47:58.023Z</time></trkpt><trkpt lat="41.9109653" lon="12.1961895"><ele>6.666666666666666</ele><time>2026-04-11T18:47:59.022Z</time></trkpt><trkpt lat="41.9109825" lon="12.1961001"><ele>7.0</ele><time>2026-04-11T18:48:00.023Z</time></trkpt><trkpt lat="41.911002" lon="12.1959976"><ele>7.333333333333333</ele><time>2026-04-11T18:48:01.023Z</time></trkpt><trkpt lat="41.9110225" lon="12.1959019"><ele>7.666666666666666</ele><time>2026-04-11T18:48:02.023Z</time></trkpt><trkpt lat="41.9110396" lon="12.1958059"><ele>8.0</ele><time>2026-04-11T18:48:03.023Z</time></trkpt><trkpt lat="41.9110513" lon="12.195687"><ele>7.857142857142857</ele><time>2026-04-11T18:48:04.022Z</time></trkpt><trkpt lat="41.9110684" lon="12.1955881"><ele>7.7142857142857135</ele><time>2026-04-11T18:48:05.023Z</time></trkpt><trkpt lat="41.9110802" lon="12.1955028"><ele>7.571428571428571</ele><time>2026-04-11T18:48:06.022Z</time></trkpt><trkpt lat="41.9110974" lon="12.1954128"><ele>7.428571428571429</ele><time>2026-04-11T18:48:07.023Z</time></trkpt><trkpt lat="41.9111112" lon="12.1953225"><ele>7.285714285714286</ele><time>2026-04-11T18:48:08.023Z</time></trkpt><trkpt lat="41.9111274" lon="12.1952254"><ele>7.142857142857142</ele><time>2026-04-11T18:48:09.023Z</time></trkpt><trkpt lat="41.9111362" lon="12.1951337"><ele>7.0</ele><time>2026-04-11T18:48:10.023Z</time></trkpt><trkpt lat="41.9111366" lon="12.19497"><ele>7.000000000000001</ele><time>2026-04-11T18:48:12.022Z</time></trkpt><trkpt lat="41.9111172" lon="12.1948813"><ele>7.0</ele><time>2026-04-11T18:48:13.021Z</time></trkpt><trkpt lat="41.9110803" lon="12.1947926"><ele>7.0</ele><time>2026-04-11T18:48:14.022Z</time></trkpt><trkpt lat="41.9110483" lon="12.1946873"><ele>7.0</ele><time>2026-04-11T18:48:15.022Z</time></trkpt><trkpt lat="41.9110287" lon="12.1945741"><ele>7.000000000000001</ele><time>2026-04-11T18:48:16.022Z</time></trkpt><trkpt lat="41.9109963" lon="12.1944757"><ele>7.0</ele><time>2026-04-11T18:48:17.021Z</time></trkpt><trkpt lat="41.9109582" lon="12.1943648"><ele>7.000000000000001</ele><time>2026-04-11T18:48:18.021Z</time></trkpt><trkpt lat="41.9109343" lon="12.1942486"><ele>7.0</ele><time>2026-04-11T18:48:19.022Z</time></trkpt><trkpt lat="41.9109018" lon="12.1941517"><ele>7.0</ele><time>2026-04-11T18:48:20.021Z</time></trkpt><trkpt lat="41.9108659" lon="12.1940527"><ele>7.0</ele><time>2026-04-11T18:48:21.021Z</time></trkpt><trkpt lat="41.9108311" lon="12.1939673"><ele>7.000000000000001</ele><time>2026-04-11T18:48:22.021Z</time></trkpt><trkpt lat="41.9108028" lon="12.1938704"><ele>7.0</ele><time>2026-04-11T18:48:23.022Z</time></trkpt><trkpt lat="41.9107763" lon="12.193768"><ele>7.166666666666667</ele><time>2026-04-11T18:48:24.022Z</time></trkpt><trkpt lat="41.9107367" lon="12.1936756"><ele>7.333333333333334</ele><time>2026-04-11T18:48:25.021Z</time></trkpt><trkpt lat="41.9107034" lon="12.1935741"><ele>7.5</ele><time>2026-04-11T18:48:26.022Z</time></trkpt><trkpt lat="41.9106709" lon="12.1934725"><ele>7.666666666666666</ele><time>2026-04-11T18:48:27.022Z</time></trkpt><trkpt lat="41.9106361" lon="12.1933734"><ele>7.833333333333333</ele><time>2026-04-11T18:48:28.022Z</time></trkpt><trkpt lat="41.9105985" lon="12.1932751"><ele>8.0</ele><time>2026-04-11T18:48:29.022Z</time></trkpt><trkpt lat="41.9105663" lon="12.1931762"><ele>8.166666666666666</ele><time>2026-04-11T18:48:30.021Z</time></trkpt><trkpt lat="41.9105332" lon="12.1930728"><ele>8.333333333333332</ele><time>2026-04-11T18:48:31.021Z</time></trkpt><trkpt lat="41.9105012" lon="12.1929872"><ele>8.5</ele><time>2026-04-11T18:48:32.021Z</time></trkpt><trkpt lat="41.9104596" lon="12.1928849"><ele>8.666666666666666</ele><time>2026-04-11T18:48:34.022Z</time></trkpt><trkpt lat="41.9104248" lon="12.1927881"><ele>8.833333333333334</ele><time>2026-04-11T18:48:35.022Z</time></trkpt><trkpt lat="41.91039" lon="12.1926696"><ele>9.0</ele><time>2026-04-11T18:48:36.022Z</time></trkpt><trkpt lat="41.9103627" lon="12.1925692"><ele>9.0</ele><time>2026-04-11T18:48:37.021Z</time></trkpt><trkpt lat="41.9103321" lon="12.1924748"><ele>9.0</ele><time>2026-04-11T18:48:38.022Z</time></trkpt><trkpt lat="41.9103069" lon="12.1923704"><ele>9.0</ele><time>2026-04-11T18:48:39.022Z</time></trkpt><trkpt lat="41.9102818" lon="12.1922608"><ele>9.0</ele><time>2026-04-11T18:48:40.021Z</time></trkpt><trkpt lat="41.9102494" lon="12.1921519"><ele>9.0</ele><time>2026-04-11T18:48:41.022Z</time></trkpt><trkpt lat="41.9102192" lon="12.1920529"><ele>9.0</ele><time>2026-04-11T18:48:42.021Z</time></trkpt><trkpt lat="41.9101899" lon="12.1919569"><ele>8.666666666666666</ele><time>2026-04-11T18:48:43.022Z</time></trkpt><trkpt lat="41.9101569" lon="12.1918507"><ele>8.333333333333334</ele><time>2026-04-11T18:48:44.021Z</time></trkpt><trkpt lat="41.9101228" lon="12.1917364"><ele>8.0</ele><time>2026-04-11T18:48:45.022Z</time></trkpt><trkpt lat="41.9100885" lon="12.1916285"><ele>7.666666666666667</ele><time>2026-04-11T18:48:46.021Z</time></trkpt><trkpt lat="41.9100589" lon="12.1915302"><ele>7.333333333333334</ele><time>2026-04-11T18:48:47.021Z</time></trkpt><trkpt lat="41.9100262" lon="12.1914365"><ele>7.0</ele><time>2026-04-11T18:48:48.022Z</time></trkpt><trkpt lat="41.9099944" lon="12.1913435"><ele>6.666666666666667</ele><time>2026-04-11T18:48:49.022Z</time></trkpt><trkpt lat="41.909961" lon="12.1912507"><ele>6.333333333333334</ele><time>2026-04-11T18:48:50.021Z</time></trkpt><trkpt lat="41.9099347" lon="12.1911645"><ele>6.0</ele><time>2026-04-11T18:48:51.021Z</time></trkpt><trkpt lat="41.9099028" lon="12.1910822"><ele>5.666666666666667</ele><time>2026-04-11T18:48:52.021Z</time></trkpt><trkpt lat="41.9098674" lon="12.1909902"><ele>5.333333333333334</ele><time>2026-04-11T18:48:53.022Z</time></trkpt><trkpt lat="41.9098171" lon="12.1908586"><ele>5.0</ele><time>2026-04-11T18:48:55.022Z</time></trkpt><trkpt lat="41.9097228" lon="12.1907617"><ele>4.833333333333334</ele><time>2026-04-11T18:48:57.022Z</time></trkpt><trkpt lat="41.9097283" lon="12.1906737"><ele>4.666666666666667</ele><time>2026-04-11T18:48:59.022Z</time></trkpt><trkpt lat="41.9097227" lon="12.1905738"><ele>4.5</ele><time>2026-04-11T18:49:01.022Z</time></trkpt><trkpt lat="41.9096688" lon="12.1904725"><ele>4.333333333333333</ele><time>2026-04-11T18:49:03.021Z</time></trkpt><trkpt lat="41.9096064" lon="12.190386"><ele>4.166666666666666</ele><time>2026-04-11T18:49:06.021Z</time></trkpt><trkpt lat="41.9095633" lon="12.190259"><ele>4.0</ele><time>2026-04-11T18:49:09.022Z</time></trkpt><trkpt lat="41.9095084" lon="12.190162"><ele>4.0</ele><time>2026-04-11T18:49:11.021Z</time></trkpt><trkpt lat="41.9094476" lon="12.1900594"><ele>4.0</ele><time>2026-04-11T18:49:13.022Z</time></trkpt><trkpt lat="41.9093853" lon="12.1899499"><ele>4.0</ele><time>2026-04-11T18:49:15.022Z</time></trkpt><trkpt lat="41.9093291" lon="12.1898499"><ele>4.0</ele><time>2026-04-11T18:49:17.022Z</time></trkpt><trkpt lat="41.9092706" lon="12.1897478"><ele>4.0</ele><time>2026-04-11T18:49:19.021Z</time></trkpt><trkpt lat="41.9092088" lon="12.1896458"><ele>4.166666666666666</ele><time>2026-04-11T18:49:21.021Z</time></trkpt><trkpt lat="41.9091607" lon="12.1895336"><ele>4.333333333333333</ele><time>2026-04-11T18:49:23.022Z</time></trkpt><trkpt lat="41.9091235" lon="12.1894423"><ele>4.5</ele><time>2026-04-11T18:49:25.021Z</time></trkpt><trkpt lat="41.9090821" lon="12.189365"><ele>4.666666666666667</ele><time>2026-04-11T18:49:27.021Z</time></trkpt><trkpt lat="41.9090067" lon="12.1893807"><ele>4.833333333333334</ele><time>2026-04-11T18:49:30.021Z</time></trkpt><trkpt lat="41.9089366" lon="12.189455"><ele>5.0</ele><time>2026-04-11T18:49:32.022Z</time></trkpt><trkpt lat="41.9088879" lon="12.1895432"><ele>5.0</ele><time>2026-04-11T18:49:34.022Z</time></trkpt><trkpt lat="41.9088132" lon="12.1896191"><ele>5.0</ele><time>2026-04-11T18:49:36.021Z</time></trkpt><trkpt lat="41.9087511" lon="12.18967"><ele>5.0</ele><time>2026-04-11T18:49:37.022Z</time></trkpt><trkpt lat="41.9086902" lon="12.1897635"><ele>5.0</ele><time>2026-04-11T18:49:39.021Z</time></trkpt><trkpt lat="41.9085881" lon="12.1898644"><ele>5.0</ele><time>2026-04-11T18:49:41.021Z</time></trkpt><trkpt lat="41.9085219" lon="12.1899258"><ele>5.0</ele><time>2026-04-11T18:49:42.021Z</time></trkpt><trkpt lat="41.9084311" lon="12.1899971"><ele>5.0</ele><time>2026-04-11T18:49:44.022Z</time></trkpt><trkpt lat="41.9083546" lon="12.1900522"><ele>5.0</ele><time>2026-04-11T18:49:46.021Z</time></trkpt><trkpt lat="41.9082647" lon="12.1901193"><ele>5.0</ele><time>2026-04-11T18:49:48.022Z</time></trkpt><trkpt lat="41.9081936" lon="12.1902183"><ele>5.0</ele><time>2026-04-11T18:49:50.022Z</time></trkpt><trkpt lat="41.9081363" lon="12.1902742"><ele>5.2</ele><time>2026-04-11T18:49:51.021Z</time></trkpt><trkpt lat="41.9080777" lon="12.1903249"><ele>5.4</ele><time>2026-04-11T18:49:52.021Z</time></trkpt><trkpt lat="41.9080222" lon="12.1903773"><ele>5.6</ele><time>2026-04-11T18:49:53.022Z</time></trkpt><trkpt lat="41.9079295" lon="12.190467"><ele>5.8</ele><time>2026-04-11T18:49:55.021Z</time></trkpt><trkpt lat="41.9078321" lon="12.1905595"><ele>6.0</ele><time>2026-04-11T18:49:57.022Z</time></trkpt><trkpt lat="41.9077481" lon="12.1906435"><ele>6.0</ele><time>2026-04-11T18:49:59.022Z</time></trkpt><trkpt lat="41.9076564" lon="12.1907308"><ele>6.0</ele><time>2026-04-11T18:50:01.021Z</time></trkpt><trkpt lat="41.9075643" lon="12.1907939"><ele>6.0</ele><time>2026-04-11T18:50:03.021Z</time></trkpt><trkpt lat="41.9075014" lon="12.1908611"><ele>6.0</ele><time>2026-04-11T18:50:05.021Z</time></trkpt><trkpt lat="41.9074124" lon="12.1909445"><ele>6.0</ele><time>2026-04-11T18:50:07.021Z</time></trkpt><trkpt lat="41.9073389" lon="12.1910296"><ele>6.199999999999999</ele><time>2026-04-11T18:50:09.022Z</time></trkpt><trkpt lat="41.9072639" lon="12.1911182"><ele>6.3999999999999995</ele><time>2026-04-11T18:50:11.021Z</time></trkpt><trkpt lat="41.9071869" lon="12.1912126"><ele>6.6</ele><time>2026-04-11T18:50:13.022Z</time></trkpt><trkpt lat="41.9071372" lon="12.191269"><ele>6.8</ele><time>2026-04-11T18:50:14.021Z</time></trkpt><trkpt lat="41.9070406" lon="12.191357"><ele>7.0</ele><time>2026-04-11T18:50:16.022Z</time></trkpt><trkpt lat="41.9069511" lon="12.1914319"><ele>6.8</ele><time>2026-04-11T18:50:18.021Z</time></trkpt><trkpt lat="41.9068573" lon="12.1915083"><ele>6.6</ele><time>2026-04-11T18:50:20.022Z</time></trkpt><trkpt lat="41.9067704" lon="12.1915826"><ele>6.3999999999999995</ele><time>2026-04-11T18:50:22.021Z</time></trkpt><trkpt lat="41.9066899" lon="12.1916673"><ele>6.199999999999999</ele><time>2026-04-11T18:50:24.021Z</time></trkpt><trkpt lat="41.9066134" lon="12.1917546"><ele>6.0</ele><time>2026-04-11T18:50:26.021Z</time></trkpt><trkpt lat="41.9065381" lon="12.1918462"><ele>6.0</ele><time>2026-04-11T18:50:28.021Z</time></trkpt><trkpt lat="41.9064558" lon="12.191934"><ele>6.0</ele><time>2026-04-11T18:50:30.021Z</time></trkpt><trkpt lat="41.906378" lon="12.1920196"><ele>6.0</ele><time>2026-04-11T18:50:32.022Z</time></trkpt><trkpt lat="41.9062567" lon="12.192125"><ele>6.0</ele><time>2026-04-11T18:50:34.022Z</time></trkpt><trkpt lat="41.9061696" lon="12.1921791"><ele>6.0</ele><time>2026-04-11T18:50:36.021Z</time></trkpt><trkpt lat="41.9061124" lon="12.1922405"><ele>6.0</ele><time>2026-04-11T18:50:38.022Z</time></trkpt><trkpt lat="41.9060322" lon="12.1923288"><ele>6.0</ele><time>2026-04-11T18:50:40.022Z</time></trkpt><trkpt lat="41.9059558" lon="12.1924057"><ele>6.0</ele><time>2026-04-11T18:50:42.022Z</time></trkpt><trkpt lat="41.9058753" lon="12.1924889"><ele>6.0</ele><time>2026-04-11T18:50:44.021Z</time></trkpt><trkpt lat="41.9057836" lon="12.1925676"><ele>6.0</ele><time>2026-04-11T18:50:46.021Z</time></trkpt><trkpt lat="41.9057037" lon="12.1926587"><ele>6.166666666666667</ele><time>2026-04-11T18:50:48.021Z</time></trkpt><trkpt lat="41.9056196" lon="12.1927435"><ele>6.333333333333334</ele><time>2026-04-11T18:50:50.021Z</time></trkpt><trkpt lat="41.9055305" lon="12.1928488"><ele>6.5</ele><time>2026-04-11T18:50:52.022Z</time></trkpt><trkpt lat="41.9054759" lon="12.1929033"><ele>6.666666666666667</ele><time>2026-04-11T18:50:53.022Z</time></trkpt><trkpt lat="41.9054201" lon="12.1929592"><ele>6.833333333333334</ele><time>2026-04-11T18:50:54.021Z</time></trkpt><trkpt lat="41.9053661" lon="12.1930134"><ele>7.0</ele><time>2026-04-11T18:50:55.022Z</time></trkpt><trkpt lat="41.9053145" lon="12.1930626"><ele>7.0</ele><time>2026-04-11T18:50:56.023Z</time></trkpt><trkpt lat="41.9052065" lon="12.1931649"><ele>6.999999999999999</ele><time>2026-04-11T18:50:58.023Z</time></trkpt><trkpt lat="41.9051093" lon="12.1932667"><ele>6.999999999999999</ele><time>2026-04-11T18:51:00.022Z</time></trkpt><trkpt lat="41.9050559" lon="12.19334"><ele>7.0</ele><time>2026-04-11T18:51:01.023Z</time></trkpt><trkpt lat="41.9049845" lon="12.1933705"><ele>7.0</ele><time>2026-04-11T18:51:03.022Z</time></trkpt><trkpt lat="41.9049437" lon="12.1934389"><ele>6.666666666666667</ele><time>2026-04-11T18:51:08.022Z</time></trkpt><trkpt lat="41.9048706" lon="12.1935347"><ele>6.333333333333334</ele><time>2026-04-11T18:51:10.023Z</time></trkpt><trkpt lat="41.9047963" lon="12.1935984"><ele>6.0</ele><time>2026-04-11T18:51:11.023Z</time></trkpt><trkpt lat="41.9047378" lon="12.1936535"><ele>5.666666666666667</ele><time>2026-04-11T18:51:12.023Z</time></trkpt><trkpt lat="41.9046739" lon="12.1936907"><ele>5.333333333333334</ele><time>2026-04-11T18:51:13.022Z</time></trkpt><trkpt lat="41.9046199" lon="12.1937385"><ele>5.0</ele><time>2026-04-11T18:51:14.022Z</time></trkpt><trkpt lat="41.9045703" lon="12.1937948"><ele>5.0</ele><time>2026-04-11T18:51:15.022Z</time></trkpt><trkpt lat="41.9045174" lon="12.1938626"><ele>5.0</ele><time>2026-04-11T18:51:16.022Z</time></trkpt><trkpt lat="41.9044596" lon="12.19391"><ele>5.0</ele><time>2026-04-11T18:51:17.022Z</time></trkpt><trkpt lat="41.9044011" lon="12.1939668"><ele>5.0</ele><time>2026-04-11T18:51:18.023Z</time></trkpt><trkpt lat="41.9043453" lon="12.1940262"><ele>5.0</ele><time>2026-04-11T18:51:19.023Z</time></trkpt><trkpt lat="41.9042808" lon="12.1940869"><ele>5.0</ele><time>2026-04-11T18:51:20.022Z</time></trkpt><trkpt lat="41.904218" lon="12.1941478"><ele>5.0</ele><time>2026-04-11T18:51:21.023Z</time></trkpt><trkpt lat="41.9041538" lon="12.1942137"><ele>5.0</ele><time>2026-04-11T18:51:22.023Z</time></trkpt><trkpt lat="41.9040898" lon="12.1942831"><ele>5.0</ele><time>2026-04-11T18:51:23.022Z</time></trkpt><trkpt lat="41.90402" lon="12.1943533"><ele>5.0</ele><time>2026-04-11T18:51:24.023Z</time></trkpt><trkpt lat="41.9039499" lon="12.1944175"><ele>5.0</ele><time>2026-04-11T18:51:25.022Z</time></trkpt><trkpt lat="41.9038834" lon="12.1944744"><ele>5.0</ele><time>2026-04-11T18:51:26.022Z</time></trkpt><trkpt lat="41.9038125" lon="12.1945441"><ele>5.0</ele><time>2026-04-11T18:51:27.023Z</time></trkpt><trkpt lat="41.903738" lon="12.1946184"><ele>5.0</ele><time>2026-04-11T18:51:28.023Z</time></trkpt><trkpt lat="41.9036603" lon="12.1946951"><ele>5.0</ele><time>2026-04-11T18:51:29.022Z</time></trkpt><trkpt lat="41.9035875" lon="12.1947871"><ele>5.0</ele><time>2026-04-11T18:51:30.023Z</time></trkpt><trkpt lat="41.9035034" lon="12.1948741"><ele>5.0</ele><time>2026-04-11T18:51:31.023Z</time></trkpt><trkpt lat="41.9034163" lon="12.1949555"><ele>5.0</ele><time>2026-04-11T18:51:32.023Z</time></trkpt><trkpt lat="41.9033301" lon="12.1950371"><ele>4.6</ele><time>2026-04-11T18:51:33.023Z</time></trkpt><trkpt lat="41.9032433" lon="12.1951269"><ele>4.2</ele><time>2026-04-11T18:51:34.023Z</time></trkpt><trkpt lat="41.903153" lon="12.1952215"><ele>3.8</ele><time>2026-04-11T18:51:35.022Z</time></trkpt><trkpt lat="41.9030641" lon="12.1953194"><ele>3.4</ele><time>2026-04-11T18:51:36.023Z</time></trkpt><trkpt lat="41.9029746" lon="12.1954061"><ele>3.0</ele><time>2026-04-11T18:51:37.022Z</time></trkpt><trkpt lat="41.9028883" lon="12.1954938"><ele>3.0</ele><time>2026-04-11T18:51:38.022Z</time></trkpt><trkpt lat="41.9028069" lon="12.1955881"><ele>3.0</ele><time>2026-04-11T18:51:39.022Z</time></trkpt><trkpt lat="41.9027191" lon="12.1956697"><ele>3.0</ele><time>2026-04-11T18:51:40.023Z</time></trkpt><trkpt lat="41.9026225" lon="12.1957667"><ele>3.0</ele><time>2026-04-11T18:51:41.022Z</time></trkpt><trkpt lat="41.9025304" lon="12.19586"><ele>2.6</ele><time>2026-04-11T18:51:42.023Z</time></trkpt><trkpt lat="41.9024351" lon="12.1959455"><ele>2.1999999999999997</ele><time>2026-04-11T18:51:43.023Z</time></trkpt><trkpt lat="41.9023464" lon="12.1960227"><ele>1.8</ele><time>2026-04-11T18:51:44.022Z</time></trkpt><trkpt lat="41.902262" lon="12.1961077"><ele>1.4</ele><time>2026-04-11T18:51:45.023Z</time></trkpt><trkpt lat="41.9021846" lon="12.1961828"><ele>1.0</ele><time>2026-04-11T18:51:46.022Z</time></trkpt><trkpt lat="41.9021124" lon="12.1962588"><ele>1.0</ele><time>2026-04-11T18:51:47.022Z</time></trkpt><trkpt lat="41.9020406" lon="12.1963277"><ele>1.0</ele><time>2026-04-11T18:51:48.022Z</time></trkpt><trkpt lat="41.9019621" lon="12.1963892"><ele>1.0</ele><time>2026-04-11T18:51:49.023Z</time></trkpt><trkpt lat="41.9018878" lon="12.1964628"><ele>1.0</ele><time>2026-04-11T18:51:50.023Z</time></trkpt><trkpt lat="41.901818" lon="12.1965361"><ele>1.0</ele><time>2026-04-11T18:51:51.022Z</time></trkpt><trkpt lat="41.9017457" lon="12.1966076"><ele>1.6</ele><time>2026-04-11T18:51:52.023Z</time></trkpt><trkpt lat="41.9016708" lon="12.1966852"><ele>2.2</ele><time>2026-04-11T18:51:53.023Z</time></trkpt><trkpt lat="41.9015981" lon="12.1967641"><ele>2.8000000000000003</ele><time>2026-04-11T18:51:54.022Z</time></trkpt><trkpt lat="41.9015227" lon="12.1968505"><ele>3.4000000000000004</ele><time>2026-04-11T18:51:55.023Z</time></trkpt><trkpt lat="41.9014424" lon="12.1969375"><ele>4.0</ele><time>2026-04-11T18:51:56.022Z</time></trkpt><trkpt lat="41.901352" lon="12.1970161"><ele>4.0</ele><time>2026-04-11T18:51:57.022Z</time></trkpt><trkpt lat="41.901263" lon="12.1970885"><ele>4.0</ele><time>2026-04-11T18:51:58.022Z</time></trkpt><trkpt lat="41.9011623" lon="12.197163"><ele>4.0</ele><time>2026-04-11T18:51:59.022Z</time></trkpt><trkpt lat="41.9010751" lon="12.197243"><ele>4.0</ele><time>2026-04-11T18:52:00.022Z</time></trkpt><trkpt lat="41.9009929" lon="12.1973211"><ele>4.0</ele><time>2026-04-11T18:52:01.023Z</time></trkpt><trkpt lat="41.9009153" lon="12.1973931"><ele>3.8000000000000003</ele><time>2026-04-11T18:52:02.023Z</time></trkpt><trkpt lat="41.9008387" lon="12.1974833"><ele>3.6000000000000005</ele><time>2026-04-11T18:52:03.023Z</time></trkpt><trkpt lat="41.9007496" lon="12.1975758"><ele>3.4</ele><time>2026-04-11T18:52:04.023Z</time></trkpt><trkpt lat="41.9006571" lon="12.1976646"><ele>3.2</ele><time>2026-04-11T18:52:05.022Z</time></trkpt><trkpt lat="41.9005701" lon="12.1977177"><ele>3.0</ele><time>2026-04-11T18:52:06.022Z</time></trkpt><trkpt lat="41.9004935" lon="12.1977795"><ele>3.0</ele><time>2026-04-11T18:52:07.023Z</time></trkpt><trkpt lat="41.9004179" lon="12.1978674"><ele>3.0</ele><time>2026-04-11T18:52:08.022Z</time></trkpt><trkpt lat="41.9003353" lon="12.1979393"><ele>3.0</ele><time>2026-04-11T18:52:09.023Z</time></trkpt><trkpt lat="41.9002687" lon="12.1980056"><ele>3.0</ele><time>2026-04-11T18:52:10.022Z</time></trkpt><trkpt lat="41.9001904" lon="12.1980941"><ele>3.0</ele><time>2026-04-11T18:52:12.022Z</time></trkpt><trkpt lat="41.9001379" lon="12.1981485"><ele>2.5</ele><time>2026-04-11T18:52:13.022Z</time></trkpt><trkpt lat="41.9000668" lon="12.1982165"><ele>2.0</ele><time>2026-04-11T18:52:14.022Z</time></trkpt><trkpt lat="41.8999982" lon="12.1982774"><ele>1.5</ele><time>2026-04-11T18:52:15.023Z</time></trkpt><trkpt lat="41.8999334" lon="12.198341"><ele>1.0</ele><time>2026-04-11T18:52:16.022Z</time></trkpt><trkpt lat="41.8998725" lon="12.1984007"><ele>0.5</ele><time>2026-04-11T18:52:17.022Z</time></trkpt><trkpt lat="41.8998082" lon="12.1984659"><ele>0.0</ele><time>2026-04-11T18:52:18.022Z</time></trkpt><trkpt lat="41.8997572" lon="12.1985244"><ele>0.0</ele><time>2026-04-11T18:52:19.022Z</time></trkpt><trkpt lat="41.8997052" lon="12.1986008"><ele>0.0</ele><time>2026-04-11T18:52:20.023Z</time></trkpt><trkpt lat="41.899635" lon="12.198679"><ele>0.0</ele><time>2026-04-11T18:52:21.023Z</time></trkpt><trkpt lat="41.8995668" lon="12.1987525"><ele>0.0</ele><time>2026-04-11T18:52:22.023Z</time></trkpt><trkpt lat="41.8995043" lon="12.1988133"><ele>0.0</ele><time>2026-04-11T18:52:23.023Z</time></trkpt><trkpt lat="41.899407" lon="12.1989057"><ele>0.0</ele><time>2026-04-11T18:52:25.023Z</time></trkpt><trkpt lat="41.8993235" lon="12.1989896"><ele>0.0</ele><time>2026-04-11T18:52:27.023Z</time></trkpt><trkpt lat="41.8992186" lon="12.1990959"><ele>0.0</ele><time>2026-04-11T18:52:29.023Z</time></trkpt><trkpt lat="41.8991188" lon="12.1991852"><ele>0.0</ele><time>2026-04-11T18:52:31.023Z</time></trkpt><trkpt lat="41.8990608" lon="12.1992696"><ele>0.0</ele><time>2026-04-11T18:52:33.023Z</time></trkpt><trkpt lat="41.8989574" lon="12.1993361"><ele>-0.2</ele><time>2026-04-11T18:52:35.022Z</time></trkpt><trkpt lat="41.8988747" lon="12.1994106"><ele>-0.4</ele><time>2026-04-11T18:52:37.022Z</time></trkpt><trkpt lat="41.8988064" lon="12.1994742"><ele>-0.6000000000000001</ele><time>2026-04-11T18:52:39.023Z</time></trkpt><trkpt lat="41.8987447" lon="12.1995536"><ele>-0.8</ele><time>2026-04-11T18:52:41.022Z</time></trkpt><trkpt lat="41.8986877" lon="12.1996362"><ele>-1.0</ele><time>2026-04-11T18:52:43.023Z</time></trkpt><trkpt lat="41.8986094" lon="12.1997216"><ele>-1.0</ele><time>2026-04-11T18:52:45.023Z</time></trkpt><trkpt lat="41.8985177" lon="12.1997939"><ele>-1.0</ele><time>2026-04-11T18:52:47.022Z</time></trkpt><trkpt lat="41.8984182" lon="12.1998608"><ele>-1.0</ele><time>2026-04-11T18:52:49.023Z</time></trkpt><trkpt lat="41.8983345" lon="12.1999601"><ele>-1.0</ele><time>2026-04-11T18:52:51.022Z</time></trkpt><trkpt lat="41.8982539" lon="12.2000471"><ele>-1.0</ele><time>2026-04-11T18:52:53.023Z</time></trkpt><trkpt lat="41.8981702" lon="12.2001343"><ele>-0.8</ele><time>2026-04-11T18:52:55.022Z</time></trkpt><trkpt lat="41.8980767" lon="12.2002145"><ele>-0.6000000000000001</ele><time>2026-04-11T18:52:57.023Z</time></trkpt><trkpt lat="41.8980013" lon="12.2003205"><ele>-0.4</ele><time>2026-04-11T18:52:59.023Z</time></trkpt><trkpt lat="41.8978943" lon="12.200409"><ele>-0.2</ele><time>2026-04-11T18:53:01.023Z</time></trkpt><trkpt lat="41.8978392" lon="12.200462"><ele>0.0</ele><time>2026-04-11T18:53:02.022Z</time></trkpt><trkpt lat="41.897788" lon="12.2005221"><ele>0.0</ele><time>2026-04-11T18:53:03.023Z</time></trkpt><trkpt lat="41.8977364" lon="12.2005817"><ele>0.0</ele><time>2026-04-11T18:53:04.022Z</time></trkpt><trkpt lat="41.8976776" lon="12.2006349"><ele>0.0</ele><time>2026-04-11T18:53:05.022Z</time></trkpt><trkpt lat="41.8976177" lon="12.2006889"><ele>0.0</ele><time>2026-04-11T18:53:06.022Z</time></trkpt><trkpt lat="41.897555" lon="12.2007398"><ele>0.0</ele><time>2026-04-11T18:53:07.023Z</time></trkpt><trkpt lat="41.8974941" lon="12.2008048"><ele>0.0</ele><time>2026-04-11T18:53:08.022Z</time></trkpt><trkpt lat="41.8974348" lon="12.2008589"><ele>0.0</ele><time>2026-04-11T18:53:09.023Z</time></trkpt><trkpt lat="41.8973776" lon="12.2009225"><ele>-0.16666666666666666</ele><time>2026-04-11T18:53:10.022Z</time></trkpt><trkpt lat="41.8973191" lon="12.200977"><ele>-0.3333333333333333</ele><time>2026-04-11T18:53:11.023Z</time></trkpt><trkpt lat="41.8972563" lon="12.2010396"><ele>-0.5</ele><time>2026-04-11T18:53:12.022Z</time></trkpt><trkpt lat="41.8971943" lon="12.201104"><ele>-0.6666666666666666</ele><time>2026-04-11T18:53:13.023Z</time></trkpt><trkpt lat="41.8971298" lon="12.2011671"><ele>-0.8333333333333333</ele><time>2026-04-11T18:53:14.023Z</time></trkpt><trkpt lat="41.8970699" lon="12.2012246"><ele>-1.0</ele><time>2026-04-11T18:53:15.023Z</time></trkpt><trkpt lat="41.8970082" lon="12.2012816"><ele>-0.9999999999999999</ele><time>2026-04-11T18:53:16.023Z</time></trkpt><trkpt lat="41.8969521" lon="12.2013431"><ele>-1.0</ele><time>2026-04-11T18:53:17.023Z</time></trkpt><trkpt lat="41.8968863" lon="12.2014109"><ele>-1.0</ele><time>2026-04-11T18:53:18.023Z</time></trkpt><trkpt lat="41.8968179" lon="12.2014745"><ele>-1.0</ele><time>2026-04-11T18:53:19.023Z</time></trkpt><trkpt lat="41.8967589" lon="12.2015431"><ele>-0.9999999999999999</ele><time>2026-04-11T18:53:20.023Z</time></trkpt><trkpt lat="41.8967066" lon="12.2016142"><ele>-1.0</ele><time>2026-04-11T18:53:21.023Z</time></trkpt><trkpt lat="41.8966531" lon="12.2016825"><ele>-1.0</ele><time>2026-04-11T18:53:22.023Z</time></trkpt><trkpt lat="41.8965962" lon="12.2017512"><ele>-0.9999999999999999</ele><time>2026-04-11T18:53:23.023Z</time></trkpt><trkpt lat="41.8965359" lon="12.2018161"><ele>-1.0</ele><time>2026-04-11T18:53:24.023Z</time></trkpt><trkpt lat="41.8964666" lon="12.2018725"><ele>-1.0</ele><time>2026-04-11T18:53:25.023Z</time></trkpt><trkpt lat="41.8964069" lon="12.2019311"><ele>-0.9999999999999999</ele><time>2026-04-11T18:53:26.023Z</time></trkpt><trkpt lat="41.8963509" lon="12.2019844"><ele>-1.0</ele><time>2026-04-11T18:53:27.022Z</time></trkpt><trkpt lat="41.8962932" lon="12.2020408"><ele>-1.0</ele><time>2026-04-11T18:53:28.022Z</time></trkpt><trkpt lat="41.8962398" lon="12.2020953"><ele>-1.0</ele><time>2026-04-11T18:53:29.022Z</time></trkpt><trkpt lat="41.8961871" lon="12.2021468"><ele>-0.9999999999999999</ele><time>2026-04-11T18:53:30.023Z</time></trkpt><trkpt lat="41.8961344" lon="12.2021979"><ele>-1.0</ele><time>2026-04-11T18:53:31.023Z</time></trkpt><trkpt lat="41.8960796" lon="12.2022469"><ele>-1.0</ele><time>2026-04-11T18:53:32.022Z</time></trkpt><trkpt lat="41.8960223" lon="12.2023021"><ele>-0.9999999999999999</ele><time>2026-04-11T18:53:33.022Z</time></trkpt><trkpt lat="41.8959634" lon="12.2023592"><ele>-1.0</ele><time>2026-04-11T18:53:34.022Z</time></trkpt><trkpt lat="41.8959059" lon="12.2024191"><ele>-1.0</ele><time>2026-04-11T18:53:35.022Z</time></trkpt><trkpt lat="41.8958493" lon="12.2024737"><ele>-1.3333333333333333</ele><time>2026-04-11T18:53:36.022Z</time></trkpt><trkpt lat="41.8957917" lon="12.2025345"><ele>-1.6666666666666665</ele><time>2026-04-11T18:53:37.022Z</time></trkpt><trkpt lat="41.8957327" lon="12.2025956"><ele>-2.0</ele><time>2026-04-11T18:53:38.022Z</time></trkpt><trkpt lat="41.8956659" lon="12.2026683"><ele>-2.3333333333333335</ele><time>2026-04-11T18:53:39.023Z</time></trkpt><trkpt lat="41.8956051" lon="12.2027418"><ele>-2.6666666666666665</ele><time>2026-04-11T18:53:40.022Z</time></trkpt><trkpt lat="41.8955393" lon="12.2027976"><ele>-3.0</ele><time>2026-04-11T18:53:41.023Z</time></trkpt><trkpt lat="41.8954789" lon="12.2028531"><ele>-3.0</ele><time>2026-04-11T18:53:42.023Z</time></trkpt><trkpt lat="41.8954157" lon="12.2029082"><ele>-3.0</ele><time>2026-04-11T18:53:43.023Z</time></trkpt><trkpt lat="41.8953567" lon="12.202961"><ele>-3.0</ele><time>2026-04-11T18:53:44.023Z</time></trkpt><trkpt lat="41.8952658" lon="12.2030625"><ele>-3.0</ele><time>2026-04-11T18:53:46.022Z</time></trkpt><trkpt lat="41.8951659" lon="12.2031478"><ele>-3.0</ele><time>2026-04-11T18:53:48.023Z</time></trkpt><trkpt lat="41.8950708" lon="12.2032406"><ele>-2.6</ele><time>2026-04-11T18:53:50.023Z</time></trkpt><trkpt lat="41.8949788" lon="12.2033339"><ele>-2.1999999999999997</ele><time>2026-04-11T18:53:52.023Z</time></trkpt><trkpt lat="41.8948833" lon="12.2034391"><ele>-1.8</ele><time>2026-04-11T18:53:54.023Z</time></trkpt><trkpt lat="41.894836" lon="12.2034981"><ele>-1.4</ele><time>2026-04-11T18:53:55.023Z</time></trkpt><trkpt lat="41.8947801" lon="12.2035434"><ele>-1.0</ele><time>2026-04-11T18:53:56.022Z</time></trkpt><trkpt lat="41.894669" lon="12.2036257"><ele>-1.0</ele><time>2026-04-11T18:53:58.022Z</time></trkpt><trkpt lat="41.8946139" lon="12.2036769"><ele>-0.9999999999999999</ele><time>2026-04-11T18:53:59.022Z</time></trkpt><trkpt lat="41.8945576" lon="12.2037363"><ele>-1.0</ele><time>2026-04-11T18:54:00.023Z</time></trkpt><trkpt lat="41.8945011" lon="12.2037855"><ele>-1.0</ele><time>2026-04-11T18:54:01.022Z</time></trkpt><trkpt lat="41.8944392" lon="12.2038198"><ele>-0.9999999999999999</ele><time>2026-04-11T18:54:02.023Z</time></trkpt><trkpt lat="41.8943778" lon="12.2038646"><ele>-1.0</ele><time>2026-04-11T18:54:03.023Z</time></trkpt><trkpt lat="41.8943273" lon="12.2039202"><ele>-1.0</ele><time>2026-04-11T18:54:04.022Z</time></trkpt><trkpt lat="41.8942761" lon="12.2039836"><ele>-0.8333333333333333</ele><time>2026-04-11T18:54:05.023Z</time></trkpt><trkpt lat="41.8942205" lon="12.2040318"><ele>-0.6666666666666666</ele><time>2026-04-11T18:54:06.023Z</time></trkpt><trkpt lat="41.8941643" lon="12.2040773"><ele>-0.5</ele><time>2026-04-11T18:54:07.022Z</time></trkpt><trkpt lat="41.8940696" lon="12.2041692"><ele>-0.3333333333333333</ele><time>2026-04-11T18:54:09.023Z</time></trkpt><trkpt lat="41.8940189" lon="12.2042259"><ele>-0.16666666666666666</ele><time>2026-04-11T18:54:10.023Z</time></trkpt><trkpt lat="41.893933" lon="12.204329"><ele>0.0</ele><time>2026-04-11T18:54:12.023Z</time></trkpt><trkpt lat="41.8938453" lon="12.2044282"><ele>0.0</ele><time>2026-04-11T18:54:14.022Z</time></trkpt><trkpt lat="41.8937901" lon="12.2044865"><ele>0.0</ele><time>2026-04-11T18:54:15.023Z</time></trkpt><trkpt lat="41.8937102" lon="12.2045671"><ele>0.0</ele><time>2026-04-11T18:54:17.022Z</time></trkpt><trkpt lat="41.8936557" lon="12.2046787"><ele>0.0</ele><time>2026-04-11T18:54:19.023Z</time></trkpt><trkpt lat="41.8936043" lon="12.204773"><ele>0.0</ele><time>2026-04-11T18:54:21.023Z</time></trkpt><trkpt lat="41.8935225" lon="12.2048158"><ele>0.0</ele><time>2026-04-11T18:54:22.023Z</time></trkpt><trkpt lat="41.8934394" lon="12.2048685"><ele>-0.14285714285714285</ele><time>2026-04-11T18:54:23.022Z</time></trkpt><trkpt lat="41.89339" lon="12.2049361"><ele>-0.2857142857142857</ele><time>2026-04-11T18:54:24.022Z</time></trkpt><trkpt lat="41.8933354" lon="12.2049877"><ele>-0.42857142857142855</ele><time>2026-04-11T18:54:25.023Z</time></trkpt><trkpt lat="41.8932572" lon="12.2050279"><ele>-0.5714285714285714</ele><time>2026-04-11T18:54:26.023Z</time></trkpt><trkpt lat="41.8931919" lon="12.2050812"><ele>-0.7142857142857142</ele><time>2026-04-11T18:54:27.022Z</time></trkpt><trkpt lat="41.8931379" lon="12.2051382"><ele>-0.8571428571428571</ele><time>2026-04-11T18:54:28.023Z</time></trkpt><trkpt lat="41.8930651" lon="12.2051784"><ele>-1.0</ele><time>2026-04-11T18:54:29.022Z</time></trkpt><trkpt lat="41.8929856" lon="12.2052275"><ele>-1.0</ele><time>2026-04-11T18:54:30.021Z</time></trkpt><trkpt lat="41.8929234" lon="12.2052899"><ele>-0.9999999999999999</ele><time>2026-04-11T18:54:31.021Z</time></trkpt><trkpt lat="41.8928891" lon="12.205363"><ele>-1.0</ele><time>2026-04-11T18:54:32.022Z</time></trkpt><trkpt lat="41.8928513" lon="12.2054422"><ele>-1.0</ele><time>2026-04-11T18:54:33.022Z</time></trkpt><trkpt lat="41.8927754" lon="12.2055098"><ele>-0.9999999999999999</ele><time>2026-04-11T18:54:34.021Z</time></trkpt><trkpt lat="41.8927177" lon="12.2055661"><ele>-1.0</ele><time>2026-04-11T18:54:35.022Z</time></trkpt><trkpt lat="41.8926651" lon="12.2056188"><ele>-1.0</ele><time>2026-04-11T18:54:36.022Z</time></trkpt><trkpt lat="41.8925741" lon="12.2057276"><ele>-0.4</ele><time>2026-04-11T18:54:38.021Z</time></trkpt><trkpt lat="41.8924948" lon="12.2058216"><ele>0.19999999999999996</ele><time>2026-04-11T18:54:40.021Z</time></trkpt><trkpt lat="41.8924036" lon="12.2059037"><ele>0.8000000000000002</ele><time>2026-04-11T18:54:42.021Z</time></trkpt><trkpt lat="41.8923186" lon="12.2059805"><ele>1.4000000000000001</ele><time>2026-04-11T18:54:44.021Z</time></trkpt><trkpt lat="41.8922186" lon="12.2060779"><ele>2.0</ele><time>2026-04-11T18:54:46.022Z</time></trkpt><trkpt lat="41.8921561" lon="12.2061301"><ele>2.0</ele><time>2026-04-11T18:54:47.022Z</time></trkpt><trkpt lat="41.8920897" lon="12.2061801"><ele>1.9999999999999998</ele><time>2026-04-11T18:54:48.022Z</time></trkpt><trkpt lat="41.8920293" lon="12.2062355"><ele>2.0</ele><time>2026-04-11T18:54:49.022Z</time></trkpt><trkpt lat="41.8919657" lon="12.2062897"><ele>2.0</ele><time>2026-04-11T18:54:50.022Z</time></trkpt><trkpt lat="41.8919082" lon="12.2063505"><ele>1.9999999999999998</ele><time>2026-04-11T18:54:51.021Z</time></trkpt><trkpt lat="41.8918512" lon="12.2064085"><ele>2.0</ele><time>2026-04-11T18:54:52.022Z</time></trkpt><trkpt lat="41.8917918" lon="12.2064673"><ele>2.0</ele><time>2026-04-11T18:54:53.022Z</time></trkpt><trkpt lat="41.8917372" lon="12.2065257"><ele>2.0</ele><time>2026-04-11T18:54:54.021Z</time></trkpt><trkpt lat="41.8916837" lon="12.2065821"><ele>1.9999999999999998</ele><time>2026-04-11T18:54:55.022Z</time></trkpt><trkpt lat="41.8916236" lon="12.2066336"><ele>2.0</ele><time>2026-04-11T18:54:56.021Z</time></trkpt><trkpt lat="41.8915645" lon="12.2066879"><ele>2.0</ele><time>2026-04-11T18:54:57.021Z</time></trkpt><trkpt lat="41.891507" lon="12.2067407"><ele>1.9999999999999998</ele><time>2026-04-11T18:54:58.022Z</time></trkpt><trkpt lat="41.8914482" lon="12.2067979"><ele>2.0</ele><time>2026-04-11T18:54:59.022Z</time></trkpt><trkpt lat="41.8913893" lon="12.2068543"><ele>2.0</ele><time>2026-04-11T18:55:00.022Z</time></trkpt><trkpt lat="41.8913287" lon="12.2069145"><ele>2.0</ele><time>2026-04-11T18:55:01.021Z</time></trkpt><trkpt lat="41.8912669" lon="12.206974"><ele>1.9999999999999998</ele><time>2026-04-11T18:55:02.022Z</time></trkpt><trkpt lat="41.8912073" lon="12.2070308"><ele>2.0</ele><time>2026-04-11T18:55:03.022Z</time></trkpt><trkpt lat="41.8911486" lon="12.207093"><ele>2.0</ele><time>2026-04-11T18:55:04.022Z</time></trkpt><trkpt lat="41.8910905" lon="12.2071504"><ele>1.9999999999999998</ele><time>2026-04-11T18:55:05.021Z</time></trkpt><trkpt lat="41.8910317" lon="12.207207"><ele>2.0</ele><time>2026-04-11T18:55:06.021Z</time></trkpt><trkpt lat="41.8909706" lon="12.2072672"><ele>2.0</ele><time>2026-04-11T18:55:07.021Z</time></trkpt><trkpt lat="41.89091" lon="12.2073245"><ele>1.8333333333333333</ele><time>2026-04-11T18:55:08.021Z</time></trkpt><trkpt lat="41.8908581" lon="12.2073847"><ele>1.6666666666666665</ele><time>2026-04-11T18:55:09.022Z</time></trkpt><trkpt lat="41.8907982" lon="12.2074449"><ele>1.5</ele><time>2026-04-11T18:55:10.021Z</time></trkpt><trkpt lat="41.8907377" lon="12.2075081"><ele>1.3333333333333333</ele><time>2026-04-11T18:55:11.021Z</time></trkpt><trkpt lat="41.8906752" lon="12.2075655"><ele>1.1666666666666665</ele><time>2026-04-11T18:55:12.021Z</time></trkpt><trkpt lat="41.8906143" lon="12.207628"><ele>1.0</ele><time>2026-04-11T18:55:13.021Z</time></trkpt><trkpt lat="41.8905508" lon="12.2076913"><ele>1.0</ele><time>2026-04-11T18:55:14.022Z</time></trkpt><trkpt lat="41.8905" lon="12.2077595"><ele>0.9999999999999999</ele><time>2026-04-11T18:55:15.021Z</time></trkpt><trkpt lat="41.890446" lon="12.2078164"><ele>1.0</ele><time>2026-04-11T18:55:16.022Z</time></trkpt><trkpt lat="41.8903859" lon="12.2078743"><ele>1.0</ele><time>2026-04-11T18:55:17.022Z</time></trkpt><trkpt lat="41.8903272" lon="12.207924"><ele>0.9999999999999999</ele><time>2026-04-11T18:55:18.021Z</time></trkpt><trkpt lat="41.8902689" lon="12.2079788"><ele>1.0</ele><time>2026-04-11T18:55:19.021Z</time></trkpt><trkpt lat="41.8902068" lon="12.2080356"><ele>1.0</ele><time>2026-04-11T18:55:20.022Z</time></trkpt><trkpt lat="41.8901406" lon="12.208097"><ele>0.9999999999999999</ele><time>2026-04-11T18:55:21.021Z</time></trkpt><trkpt lat="41.8900799" lon="12.2081545"><ele>1.0</ele><time>2026-04-11T18:55:22.021Z</time></trkpt><trkpt lat="41.8900209" lon="12.2082161"><ele>1.0</ele><time>2026-04-11T18:55:23.022Z</time></trkpt><trkpt lat="41.8899535" lon="12.2082794"><ele>1.0</ele><time>2026-04-11T18:55:24.022Z</time></trkpt><trkpt lat="41.8898861" lon="12.2083442"><ele>0.9999999999999999</ele><time>2026-04-11T18:55:25.022Z</time></trkpt><trkpt lat="41.8898201" lon="12.2084099"><ele>1.0</ele><time>2026-04-11T18:55:26.022Z</time></trkpt><trkpt lat="41.8897506" lon="12.2084735"><ele>0.9999999999999999</ele><time>2026-04-11T18:55:27.021Z</time></trkpt><trkpt lat="41.8896742" lon="12.2085363"><ele>1.0</ele><time>2026-04-11T18:55:28.021Z</time></trkpt><trkpt lat="41.8896093" lon="12.2085979"><ele>1.0</ele><time>2026-04-11T18:55:29.022Z</time></trkpt><trkpt lat="41.8895461" lon="12.2086574"><ele>1.0</ele><time>2026-04-11T18:55:30.021Z</time></trkpt><trkpt lat="41.889483" lon="12.2087135"><ele>0.9999999999999999</ele><time>2026-04-11T18:55:31.022Z</time></trkpt><trkpt lat="41.8894191" lon="12.2087742"><ele>1.0</ele><time>2026-04-11T18:55:32.022Z</time></trkpt><trkpt lat="41.8893554" lon="12.2088391"><ele>0.9999999999999999</ele><time>2026-04-11T18:55:33.022Z</time></trkpt><trkpt lat="41.889292" lon="12.2089086"><ele>1.0</ele><time>2026-04-11T18:55:34.021Z</time></trkpt><trkpt lat="41.8892251" lon="12.2089726"><ele>1.0</ele><time>2026-04-11T18:55:35.022Z</time></trkpt><trkpt lat="41.8891598" lon="12.2090411"><ele>1.0</ele><time>2026-04-11T18:55:36.021Z</time></trkpt><trkpt lat="41.8890984" lon="12.2090995"><ele>0.9999999999999999</ele><time>2026-04-11T18:55:37.022Z</time></trkpt><trkpt lat="41.8890311" lon="12.209162"><ele>1.0</ele><time>2026-04-11T18:55:38.021Z</time></trkpt><trkpt lat="41.8889611" lon="12.2092246"><ele>0.9999999999999999</ele><time>2026-04-11T18:55:39.021Z</time></trkpt><trkpt lat="41.8888931" lon="12.2092926"><ele>1.0</ele><time>2026-04-11T18:55:40.021Z</time></trkpt><trkpt lat="41.8888343" lon="12.2093597"><ele>1.0</ele><time>2026-04-11T18:55:41.021Z</time></trkpt><trkpt lat="41.888777" lon="12.209429"><ele>1.0</ele><time>2026-04-11T18:55:42.022Z</time></trkpt><trkpt lat="41.8887093" lon="12.2095025"><ele>0.9999999999999999</ele><time>2026-04-11T18:55:43.022Z</time></trkpt><trkpt lat="41.8886433" lon="12.2095702"><ele>1.0</ele><time>2026-04-11T18:55:44.021Z</time></trkpt><trkpt lat="41.8885758" lon="12.2096355"><ele>0.9999999999999999</ele><time>2026-04-11T18:55:45.022Z</time></trkpt><trkpt lat="41.8885062" lon="12.2097008"><ele>1.0</ele><time>2026-04-11T18:55:46.022Z</time></trkpt><trkpt lat="41.8884438" lon="12.2097596"><ele>1.0</ele><time>2026-04-11T18:55:47.021Z</time></trkpt><trkpt lat="41.8883871" lon="12.2098295"><ele>1.0</ele><time>2026-04-11T18:55:48.021Z</time></trkpt><trkpt lat="41.8883334" lon="12.2098827"><ele>0.9999999999999999</ele><time>2026-04-11T18:55:49.022Z</time></trkpt><trkpt lat="41.8882709" lon="12.2099535"><ele>1.0</ele><time>2026-04-11T18:55:50.021Z</time></trkpt><trkpt lat="41.8882086" lon="12.2100299"><ele>1.3333333333333333</ele><time>2026-04-11T18:55:51.021Z</time></trkpt><trkpt lat="41.8881293" lon="12.2100843"><ele>1.6666666666666665</ele><time>2026-04-11T18:55:52.021Z</time></trkpt><trkpt lat="41.888061" lon="12.2101368"><ele>2.0</ele><time>2026-04-11T18:55:53.021Z</time></trkpt><trkpt lat="41.887995" lon="12.2101942"><ele>2.3333333333333335</ele><time>2026-04-11T18:55:54.022Z</time></trkpt><trkpt lat="41.8879321" lon="12.210268"><ele>2.6666666666666665</ele><time>2026-04-11T18:55:55.022Z</time></trkpt><trkpt lat="41.8878668" lon="12.2103443"><ele>3.0</ele><time>2026-04-11T18:55:56.022Z</time></trkpt><trkpt lat="41.8877973" lon="12.2104156"><ele>3.0</ele><time>2026-04-11T18:55:57.022Z</time></trkpt><trkpt lat="41.887735" lon="12.2104747"><ele>3.0</ele><time>2026-04-11T18:55:58.022Z</time></trkpt><trkpt lat="41.8876787" lon="12.2105262"><ele>3.0</ele><time>2026-04-11T18:55:59.022Z</time></trkpt><trkpt lat="41.8876209" lon="12.2105808"><ele>3.0</ele><time>2026-04-11T18:56:00.022Z</time></trkpt><trkpt lat="41.8875588" lon="12.2106419"><ele>3.0</ele><time>2026-04-11T18:56:01.021Z</time></trkpt><trkpt lat="41.8874955" lon="12.2107134"><ele>3.0</ele><time>2026-04-11T18:56:02.021Z</time></trkpt><trkpt lat="41.8874198" lon="12.2107979"><ele>3.0</ele><time>2026-04-11T18:56:03.022Z</time></trkpt><trkpt lat="41.887342" lon="12.2108802"><ele>3.0</ele><time>2026-04-11T18:56:04.021Z</time></trkpt><trkpt lat="41.887262" lon="12.2109653"><ele>3.0</ele><time>2026-04-11T18:56:05.022Z</time></trkpt><trkpt lat="41.8871851" lon="12.2110415"><ele>3.0</ele><time>2026-04-11T18:56:06.022Z</time></trkpt><trkpt lat="41.8871033" lon="12.211121"><ele>3.0</ele><time>2026-04-11T18:56:07.021Z</time></trkpt><trkpt lat="41.8870253" lon="12.2111989"><ele>3.0</ele><time>2026-04-11T18:56:08.021Z</time></trkpt><trkpt lat="41.8869465" lon="12.211272"><ele>3.0</ele><time>2026-04-11T18:56:09.022Z</time></trkpt><trkpt lat="41.8868684" lon="12.2113407"><ele>3.0</ele><time>2026-04-11T18:56:10.021Z</time></trkpt><trkpt lat="41.8867851" lon="12.2114126"><ele>3.0</ele><time>2026-04-11T18:56:11.022Z</time></trkpt><trkpt lat="41.8867061" lon="12.2114958"><ele>3.0</ele><time>2026-04-11T18:56:12.022Z</time></trkpt><trkpt lat="41.8866264" lon="12.2115689"><ele>2.8</ele><time>2026-04-11T18:56:13.021Z</time></trkpt><trkpt lat="41.8865537" lon="12.2116431"><ele>2.5999999999999996</ele><time>2026-04-11T18:56:14.021Z</time></trkpt><trkpt lat="41.886478" lon="12.2117219"><ele>2.4000000000000004</ele><time>2026-04-11T18:56:15.021Z</time></trkpt><trkpt lat="41.8864076" lon="12.2117887"><ele>2.2</ele><time>2026-04-11T18:56:16.022Z</time></trkpt><trkpt lat="41.8863354" lon="12.2118545"><ele>2.0</ele><time>2026-04-11T18:56:17.021Z</time></trkpt><trkpt lat="41.8862601" lon="12.2119397"><ele>2.0</ele><time>2026-04-11T18:56:18.022Z</time></trkpt><trkpt lat="41.8861784" lon="12.2120302"><ele>2.0</ele><time>2026-04-11T18:56:19.022Z</time></trkpt><trkpt lat="41.8860917" lon="12.2121132"><ele>2.0</ele><time>2026-04-11T18:56:20.022Z</time></trkpt><trkpt lat="41.8860173" lon="12.2121959"><ele>2.0</ele><time>2026-04-11T18:56:21.021Z</time></trkpt><trkpt lat="41.885957" lon="12.2122579"><ele>2.0</ele><time>2026-04-11T18:56:22.022Z</time></trkpt><trkpt lat="41.8858987" lon="12.2123192"><ele>1.9999999999999998</ele><time>2026-04-11T18:56:23.022Z</time></trkpt><trkpt lat="41.8858333" lon="12.2123778"><ele>2.0</ele><time>2026-04-11T18:56:24.022Z</time></trkpt><trkpt lat="41.8857631" lon="12.2124358"><ele>2.0</ele><time>2026-04-11T18:56:25.022Z</time></trkpt><trkpt lat="41.8856887" lon="12.2125013"><ele>2.0</ele><time>2026-04-11T18:56:26.022Z</time></trkpt><trkpt lat="41.8856127" lon="12.2125749"><ele>1.9999999999999998</ele><time>2026-04-11T18:56:27.021Z</time></trkpt><trkpt lat="41.8855372" lon="12.2126453"><ele>2.0</ele><time>2026-04-11T18:56:28.021Z</time></trkpt><trkpt lat="41.8854588" lon="12.2127112"><ele>1.9999999999999998</ele><time>2026-04-11T18:56:29.021Z</time></trkpt><trkpt lat="41.8853808" lon="12.2127854"><ele>2.0</ele><time>2026-04-11T18:56:31.022Z</time></trkpt><trkpt lat="41.8853279" lon="12.2128382"><ele>2.0</ele><time>2026-04-11T18:56:33.022Z</time></trkpt><trkpt lat="41.8852579" lon="12.2129125"><ele>2.0</ele><time>2026-04-11T18:56:35.022Z</time></trkpt><trkpt lat="41.8851665" lon="12.2129937"><ele>1.9999999999999998</ele><time>2026-04-11T18:56:37.022Z</time></trkpt><trkpt lat="41.8851185" lon="12.2130536"><ele>2.0</ele><time>2026-04-11T18:56:38.021Z</time></trkpt><trkpt lat="41.8850706" lon="12.2131126"><ele>2.0</ele><time>2026-04-11T18:56:39.021Z</time></trkpt><trkpt lat="41.8850015" lon="12.2131726"><ele>1.9999999999999998</ele><time>2026-04-11T18:56:40.022Z</time></trkpt><trkpt lat="41.8849375" lon="12.2132318"><ele>2.0</ele><time>2026-04-11T18:56:41.022Z</time></trkpt><trkpt lat="41.8848789" lon="12.2132854"><ele>2.0</ele><time>2026-04-11T18:56:42.022Z</time></trkpt><trkpt lat="41.8848192" lon="12.2133316"><ele>1.9999999999999998</ele><time>2026-04-11T18:56:43.021Z</time></trkpt><trkpt lat="41.8847709" lon="12.2133874"><ele>2.0</ele><time>2026-04-11T18:56:44.022Z</time></trkpt><trkpt lat="41.884725" lon="12.2134465"><ele>2.0</ele><time>2026-04-11T18:56:45.021Z</time></trkpt><trkpt lat="41.8846585" lon="12.2134911"><ele>2.0</ele><time>2026-04-11T18:56:46.022Z</time></trkpt><trkpt lat="41.8846011" lon="12.2135561"><ele>1.9999999999999998</ele><time>2026-04-11T18:56:47.021Z</time></trkpt><trkpt lat="41.8845382" lon="12.2136164"><ele>2.0</ele><time>2026-04-11T18:56:48.021Z</time></trkpt><trkpt lat="41.8844747" lon="12.2136714"><ele>2.0</ele><time>2026-04-11T18:56:49.022Z</time></trkpt><trkpt lat="41.8844196" lon="12.2137261"><ele>1.9999999999999998</ele><time>2026-04-11T18:56:50.022Z</time></trkpt><trkpt lat="41.8843592" lon="12.2137775"><ele>2.0</ele><time>2026-04-11T18:56:51.022Z</time></trkpt><trkpt lat="41.884297" lon="12.2138412"><ele>2.0</ele><time>2026-04-11T18:56:52.022Z</time></trkpt><trkpt lat="41.8842287" lon="12.2139149"><ele>1.8</ele><time>2026-04-11T18:56:53.022Z</time></trkpt><trkpt lat="41.8841566" lon="12.2139918"><ele>1.6</ele><time>2026-04-11T18:56:54.022Z</time></trkpt><trkpt lat="41.8840888" lon="12.2140803"><ele>1.4000000000000001</ele><time>2026-04-11T18:56:55.022Z</time></trkpt><trkpt lat="41.8840125" lon="12.2141683"><ele>1.2000000000000002</ele><time>2026-04-11T18:56:56.021Z</time></trkpt><trkpt lat="41.8839215" lon="12.2142523"><ele>1.0</ele><time>2026-04-11T18:56:57.022Z</time></trkpt><trkpt lat="41.88383" lon="12.2143252"><ele>1.0</ele><time>2026-04-11T18:56:58.021Z</time></trkpt><trkpt lat="41.8837444" lon="12.2144058"><ele>1.0</ele><time>2026-04-11T18:56:59.021Z</time></trkpt><trkpt lat="41.8836593" lon="12.2144996"><ele>1.0</ele><time>2026-04-11T18:57:00.021Z</time></trkpt><trkpt lat="41.8835695" lon="12.2145917"><ele>1.0</ele><time>2026-04-11T18:57:01.021Z</time></trkpt><trkpt lat="41.8834772" lon="12.2146765"><ele>1.0</ele><time>2026-04-11T18:57:02.022Z</time></trkpt><trkpt lat="41.8833853" lon="12.214765"><ele>1.0</ele><time>2026-04-11T18:57:03.022Z</time></trkpt><trkpt lat="41.8832964" lon="12.2148603"><ele>1.0</ele><time>2026-04-11T18:57:04.021Z</time></trkpt><trkpt lat="41.8832141" lon="12.2149482"><ele>1.0</ele><time>2026-04-11T18:57:05.021Z</time></trkpt><trkpt lat="41.8831436" lon="12.215015"><ele>1.0</ele><time>2026-04-11T18:57:06.022Z</time></trkpt><trkpt lat="41.8830917" lon="12.215075"><ele>1.0</ele><time>2026-04-11T18:57:07.021Z</time></trkpt><trkpt lat="41.8830047" lon="12.2151811"><ele>0.9999999999999999</ele><time>2026-04-11T18:57:09.021Z</time></trkpt><trkpt lat="41.8828974" lon="12.2152856"><ele>1.0</ele><time>2026-04-11T18:57:11.021Z</time></trkpt><trkpt lat="41.8828418" lon="12.2153445"><ele>1.0</ele><time>2026-04-11T18:57:12.021Z</time></trkpt><trkpt lat="41.8827914" lon="12.2154002"><ele>1.0</ele><time>2026-04-11T18:57:13.022Z</time></trkpt><trkpt lat="41.882741" lon="12.2154554"><ele>0.9999999999999999</ele><time>2026-04-11T18:57:14.022Z</time></trkpt><trkpt lat="41.8826848" lon="12.2155107"><ele>1.0</ele><time>2026-04-11T18:57:15.022Z</time></trkpt><trkpt lat="41.8826299" lon="12.2155621"><ele>1.1428571428571428</ele><time>2026-04-11T18:57:16.022Z</time></trkpt><trkpt lat="41.8825711" lon="12.2156154"><ele>1.2857142857142856</ele><time>2026-04-11T18:57:17.022Z</time></trkpt><trkpt lat="41.8825209" lon="12.2156751"><ele>1.4285714285714284</ele><time>2026-04-11T18:57:18.022Z</time></trkpt><trkpt lat="41.8824672" lon="12.2157247"><ele>1.5714285714285714</ele><time>2026-04-11T18:57:19.021Z</time></trkpt><trkpt lat="41.8824013" lon="12.2157813"><ele>1.714285714285714</ele><time>2026-04-11T18:57:20.021Z</time></trkpt><trkpt lat="41.8823248" lon="12.2158468"><ele>1.857142857142857</ele><time>2026-04-11T18:57:21.022Z</time></trkpt><trkpt lat="41.8822673" lon="12.2159106"><ele>2.0</ele><time>2026-04-11T18:57:22.022Z</time></trkpt><trkpt lat="41.8822056" lon="12.2159628"><ele>1.9999999999999998</ele><time>2026-04-11T18:57:23.022Z</time></trkpt><trkpt lat="41.8821538" lon="12.2160176"><ele>2.0</ele><time>2026-04-11T18:57:24.022Z</time></trkpt><trkpt lat="41.8820515" lon="12.2161233"><ele>2.0</ele><time>2026-04-11T18:57:26.021Z</time></trkpt><trkpt lat="41.8819957" lon="12.2161837"><ele>2.0</ele><time>2026-04-11T18:57:27.022Z</time></trkpt><trkpt lat="41.8819393" lon="12.2162401"><ele>1.9999999999999998</ele><time>2026-04-11T18:57:28.022Z</time></trkpt><trkpt lat="41.8818766" lon="12.2162843"><ele>2.0</ele><time>2026-04-11T18:57:29.021Z</time></trkpt><trkpt lat="41.8818116" lon="12.2163426"><ele>2.4000000000000004</ele><time>2026-04-11T18:57:30.022Z</time></trkpt><trkpt lat="41.8817487" lon="12.2164008"><ele>2.8000000000000003</ele><time>2026-04-11T18:57:31.022Z</time></trkpt><trkpt lat="41.8816659" lon="12.2164596"><ele>3.2</ele><time>2026-04-11T18:57:33.021Z</time></trkpt><trkpt lat="41.8815985" lon="12.2164833"><ele>3.6</ele><time>2026-04-11T18:57:39.022Z</time></trkpt><trkpt lat="41.8815202" lon="12.2164313"><ele>4.0</ele><time>2026-04-11T18:57:41.022Z</time></trkpt><trkpt lat="41.8814523" lon="12.2162783"><ele>4.0</ele><time>2026-04-11T18:57:43.022Z</time></trkpt><trkpt lat="41.8814003" lon="12.2161738"><ele>4.0</ele><time>2026-04-11T18:57:44.022Z</time></trkpt><trkpt lat="41.8813409" lon="12.2160539"><ele>4.0</ele><time>2026-04-11T18:57:45.022Z</time></trkpt><trkpt lat="41.8812755" lon="12.2159336"><ele>4.0</ele><time>2026-04-11T18:57:46.022Z</time></trkpt><trkpt lat="41.8812037" lon="12.2158045"><ele>4.0</ele><time>2026-04-11T18:57:47.021Z</time></trkpt><trkpt lat="41.8811235" lon="12.2156586"><ele>4.0</ele><time>2026-04-11T18:57:48.022Z</time></trkpt><trkpt lat="41.8810368" lon="12.2155113"><ele>4.0</ele><time>2026-04-11T18:57:49.022Z</time></trkpt><trkpt lat="41.880946" lon="12.2153556"><ele>4.0</ele><time>2026-04-11T18:57:50.021Z</time></trkpt><trkpt lat="41.8808559" lon="12.2152066"><ele>4.0</ele><time>2026-04-11T18:57:51.022Z</time></trkpt><trkpt lat="41.8807716" lon="12.2150558"><ele>3.75</ele><time>2026-04-11T18:57:52.021Z</time></trkpt><trkpt lat="41.8806897" lon="12.2149041"><ele>3.5</ele><time>2026-04-11T18:57:53.021Z</time></trkpt><trkpt lat="41.8806083" lon="12.2147542"><ele>3.25</ele><time>2026-04-11T18:57:54.022Z</time></trkpt><trkpt lat="41.8805265" lon="12.2146112"><ele>3.0</ele><time>2026-04-11T18:57:55.022Z</time></trkpt><trkpt lat="41.8804606" lon="12.2144842"><ele>2.8</ele><time>2026-04-11T18:57:56.021Z</time></trkpt><trkpt lat="41.8803993" lon="12.2143696"><ele>2.5999999999999996</ele><time>2026-04-11T18:57:57.021Z</time></trkpt><trkpt lat="41.8803365" lon="12.214266"><ele>2.4000000000000004</ele><time>2026-04-11T18:57:58.021Z</time></trkpt><trkpt lat="41.8802746" lon="12.2141807"><ele>2.2</ele><time>2026-04-11T18:57:59.022Z</time></trkpt><trkpt lat="41.8802081" lon="12.2141344"><ele>2.0</ele><time>2026-04-11T18:58:00.021Z</time></trkpt><trkpt lat="41.880117" lon="12.2140927"><ele>1.75</ele><time>2026-04-11T18:58:01.021Z</time></trkpt><trkpt lat="41.8800218" lon="12.2140562"><ele>1.5</ele><time>2026-04-11T18:58:02.022Z</time></trkpt><trkpt lat="41.8799153" lon="12.2140233"><ele>1.25</ele><time>2026-04-11T18:58:03.022Z</time></trkpt><trkpt lat="41.8797873" lon="12.213993"><ele>1.0</ele><time>2026-04-11T18:58:04.022Z</time></trkpt><trkpt lat="41.8796562" lon="12.213963"><ele>1.0</ele><time>2026-04-11T18:58:05.022Z</time></trkpt><trkpt lat="41.8795262" lon="12.2139363"><ele>1.0</ele><time>2026-04-11T18:58:06.022Z</time></trkpt><trkpt lat="41.8793779" lon="12.213928"><ele>1.0</ele><time>2026-04-11T18:58:07.021Z</time></trkpt><trkpt lat="41.8792481" lon="12.2139306"><ele>1.0</ele><time>2026-04-11T18:58:08.022Z</time></trkpt><trkpt lat="41.8791273" lon="12.2139075"><ele>1.0</ele><time>2026-04-11T18:58:09.021Z</time></trkpt><trkpt lat="41.8789916" lon="12.2138899"><ele>1.0</ele><time>2026-04-11T18:58:10.022Z</time></trkpt><trkpt lat="41.8788482" lon="12.2138532"><ele>1.0</ele><time>2026-04-11T18:58:11.021Z</time></trkpt><trkpt lat="41.8787015" lon="12.2138257"><ele>1.0</ele><time>2026-04-11T18:58:12.022Z</time></trkpt><trkpt lat="41.8785619" lon="12.213796"><ele>2.0</ele><time>2026-04-11T18:58:13.022Z</time></trkpt><trkpt lat="41.8784229" lon="12.2137792"><ele>3.0</ele><time>2026-04-11T18:58:14.022Z</time></trkpt><trkpt lat="41.8782967" lon="12.2137563"><ele>4.0</ele><time>2026-04-11T18:58:15.022Z</time></trkpt><trkpt lat="41.8781824" lon="12.2137353"><ele>5.0</ele><time>2026-04-11T18:58:16.022Z</time></trkpt><trkpt lat="41.8780864" lon="12.213724"><ele>5.0</ele><time>2026-04-11T18:58:17.022Z</time></trkpt><trkpt lat="41.8780057" lon="12.2137142"><ele>5.0</ele><time>2026-04-11T18:58:18.022Z</time></trkpt><trkpt lat="41.8779409" lon="12.2137107"><ele>5.0</ele><time>2026-04-11T18:58:19.022Z</time></trkpt><trkpt lat="41.8778638" lon="12.2136896"><ele>5.0</ele><time>2026-04-11T18:58:21.022Z</time></trkpt><trkpt lat="41.8777947" lon="12.2136575"><ele>5.0</ele><time>2026-04-11T18:58:30.022Z</time></trkpt><trkpt lat="41.8777568" lon="12.2137327"><ele>5.0</ele><time>2026-04-11T18:58:32.022Z</time></trkpt><trkpt lat="41.8777355" lon="12.2138134"><ele>5.0</ele><time>2026-04-11T18:58:33.022Z</time></trkpt><trkpt lat="41.8777273" lon="12.2139128"><ele>5.0</ele><time>2026-04-11T18:58:34.022Z</time></trkpt><trkpt lat="41.8777216" lon="12.2140171"><ele>5.0</ele><time>2026-04-11T18:58:35.022Z</time></trkpt><trkpt lat="41.8777125" lon="12.2141378"><ele>5.0</ele><time>2026-04-11T18:58:36.022Z</time></trkpt><trkpt lat="41.8777042" lon="12.2142531"><ele>5.0</ele><time>2026-04-11T18:58:37.022Z</time></trkpt><trkpt lat="41.8777002" lon="12.214352"><ele>5.0</ele><time>2026-04-11T18:58:38.022Z</time></trkpt><trkpt lat="41.8776847" lon="12.2144939"><ele>5.0</ele><time>2026-04-11T18:58:40.022Z</time></trkpt><trkpt lat="41.8776535" lon="12.2145861"><ele>5.4</ele><time>2026-04-11T18:58:43.022Z</time></trkpt><trkpt lat="41.8775945" lon="12.2146291"><ele>5.8</ele><time>2026-04-11T18:58:45.022Z</time></trkpt><trkpt lat="41.8775066" lon="12.2146712"><ele>6.199999999999999</ele><time>2026-04-11T18:58:47.022Z</time></trkpt><trkpt lat="41.8773841" lon="12.2147277"><ele>6.6</ele><time>2026-04-11T18:58:49.022Z</time></trkpt><trkpt lat="41.8773094" lon="12.2147679"><ele>7.0</ele><time>2026-04-11T18:58:50.022Z</time></trkpt><trkpt lat="41.8772296" lon="12.2148063"><ele>7.0</ele><time>2026-04-11T18:58:51.021Z</time></trkpt><trkpt lat="41.8771458" lon="12.2148475"><ele>6.999999999999999</ele><time>2026-04-11T18:58:52.021Z</time></trkpt><trkpt lat="41.8770552" lon="12.214888"><ele>6.999999999999999</ele><time>2026-04-11T18:58:53.022Z</time></trkpt><trkpt lat="41.8769598" lon="12.2149305"><ele>7.0</ele><time>2026-04-11T18:58:54.021Z</time></trkpt><trkpt lat="41.8768689" lon="12.2149726"><ele>7.0</ele><time>2026-04-11T18:58:55.022Z</time></trkpt><trkpt lat="41.8767852" lon="12.2150147"><ele>6.6</ele><time>2026-04-11T18:58:56.022Z</time></trkpt><trkpt lat="41.8767103" lon="12.2150533"><ele>6.199999999999999</ele><time>2026-04-11T18:58:57.022Z</time></trkpt><trkpt lat="41.8766443" lon="12.2150867"><ele>5.8</ele><time>2026-04-11T18:58:58.022Z</time></trkpt><trkpt lat="41.8765553" lon="12.2151395"><ele>5.4</ele><time>2026-04-11T18:59:00.022Z</time></trkpt><trkpt lat="41.8764671" lon="12.215115"><ele>5.0</ele><time>2026-04-11T18:59:06.022Z</time></trkpt><trkpt lat="41.8764207" lon="12.2149728"><ele>5.0</ele><time>2026-04-11T18:59:08.022Z</time></trkpt><trkpt lat="41.8763915" lon="12.2148874"><ele>5.0</ele><time>2026-04-11T18:59:09.022Z</time></trkpt><trkpt lat="41.8763565" lon="12.2147839"><ele>5.0</ele><time>2026-04-11T18:59:10.022Z</time></trkpt><trkpt lat="41.8763201" lon="12.2146524"><ele>5.0</ele><time>2026-04-11T18:59:11.022Z</time></trkpt><trkpt lat="41.8762985" lon="12.2144938"><ele>5.0</ele><time>2026-04-11T18:59:12.022Z</time></trkpt><trkpt lat="41.876269" lon="12.2143447"><ele>5.25</ele><time>2026-04-11T18:59:13.021Z</time></trkpt><trkpt lat="41.8762277" lon="12.2142063"><ele>5.5</ele><time>2026-04-11T18:59:14.021Z</time></trkpt><trkpt lat="41.8761772" lon="12.2140466"><ele>5.75</ele><time>2026-04-11T18:59:15.021Z</time></trkpt><trkpt lat="41.8761139" lon="12.2138868"><ele>6.0</ele><time>2026-04-11T18:59:16.021Z</time></trkpt><trkpt lat="41.8760541" lon="12.2137089"><ele>5.5</ele><time>2026-04-11T18:59:17.022Z</time></trkpt><trkpt lat="41.8760018" lon="12.2135282"><ele>5.0</ele><time>2026-04-11T18:59:18.022Z</time></trkpt><trkpt lat="41.8759553" lon="12.2133475"><ele>4.5</ele><time>2026-04-11T18:59:19.021Z</time></trkpt><trkpt lat="41.8759128" lon="12.2131733"><ele>4.0</ele><time>2026-04-11T18:59:20.021Z</time></trkpt><trkpt lat="41.8758624" lon="12.2129681"><ele>3.6666666666666665</ele><time>2026-04-11T18:59:21.021Z</time></trkpt><trkpt lat="41.8757906" lon="12.2127794"><ele>3.333333333333333</ele><time>2026-04-11T18:59:22.022Z</time></trkpt><trkpt lat="41.8757112" lon="12.2126032"><ele>3.0</ele><time>2026-04-11T18:59:23.021Z</time></trkpt><trkpt lat="41.8756491" lon="12.2124203"><ele>2.6666666666666665</ele><time>2026-04-11T18:59:24.022Z</time></trkpt><trkpt lat="41.8755777" lon="12.2122181"><ele>2.333333333333333</ele><time>2026-04-11T18:59:25.021Z</time></trkpt><trkpt lat="41.8755091" lon="12.2120279"><ele>2.0</ele><time>2026-04-11T18:59:26.022Z</time></trkpt><trkpt lat="41.8754461" lon="12.2118574"><ele>2.0</ele><time>2026-04-11T18:59:27.021Z</time></trkpt><trkpt lat="41.8753659" lon="12.2116859"><ele>2.0</ele><time>2026-04-11T18:59:28.021Z</time></trkpt><trkpt lat="41.8752865" lon="12.2115159"><ele>2.0</ele><time>2026-04-11T18:59:29.022Z</time></trkpt><trkpt lat="41.8751925" lon="12.2113632"><ele>2.0</ele><time>2026-04-11T18:59:30.021Z</time></trkpt><trkpt lat="41.8751028" lon="12.2112165"><ele>2.25</ele><time>2026-04-11T18:59:31.022Z</time></trkpt><trkpt lat="41.8749991" lon="12.2110983"><ele>2.5</ele><time>2026-04-11T18:59:32.022Z</time></trkpt><trkpt lat="41.8749172" lon="12.2109943"><ele>2.75</ele><time>2026-04-11T18:59:33.021Z</time></trkpt><trkpt lat="41.8748189" lon="12.2108874"><ele>3.0</ele><time>2026-04-11T18:59:34.021Z</time></trkpt><trkpt lat="41.8747178" lon="12.2107692"><ele>3.0</ele><time>2026-04-11T18:59:35.021Z</time></trkpt><trkpt lat="41.8746458" lon="12.2106646"><ele>3.0</ele><time>2026-04-11T18:59:36.021Z</time></trkpt><trkpt lat="41.8745469" lon="12.210548"><ele>3.0</ele><time>2026-04-11T18:59:37.022Z</time></trkpt><trkpt lat="41.8744693" lon="12.210438"><ele>3.0</ele><time>2026-04-11T18:59:38.022Z</time></trkpt><trkpt lat="41.8743923" lon="12.2103285"><ele>3.2</ele><time>2026-04-11T18:59:39.021Z</time></trkpt><trkpt lat="41.8743211" lon="12.2102216"><ele>3.4</ele><time>2026-04-11T18:59:40.022Z</time></trkpt><trkpt lat="41.8742568" lon="12.2101264"><ele>3.6000000000000005</ele><time>2026-04-11T18:59:41.022Z</time></trkpt><trkpt lat="41.8741971" lon="12.2100504"><ele>3.8000000000000003</ele><time>2026-04-11T18:59:42.021Z</time></trkpt><trkpt lat="41.8741378" lon="12.2099695"><ele>4.0</ele><time>2026-04-11T18:59:43.022Z</time></trkpt><trkpt lat="41.8740697" lon="12.2098761"><ele>3.8000000000000003</ele><time>2026-04-11T18:59:44.022Z</time></trkpt><trkpt lat="41.8739941" lon="12.2097912"><ele>3.6000000000000005</ele><time>2026-04-11T18:59:45.021Z</time></trkpt><trkpt lat="41.8739079" lon="12.2097024"><ele>3.4</ele><time>2026-04-11T18:59:46.022Z</time></trkpt><trkpt lat="41.8738126" lon="12.2096185"><ele>3.2</ele><time>2026-04-11T18:59:47.022Z</time></trkpt><trkpt lat="41.8737076" lon="12.2095409"><ele>3.0</ele><time>2026-04-11T18:59:48.022Z</time></trkpt><trkpt lat="41.8736001" lon="12.2094593"><ele>3.0</ele><time>2026-04-11T18:59:49.022Z</time></trkpt><trkpt lat="41.8734924" lon="12.2093946"><ele>3.0</ele><time>2026-04-11T18:59:50.022Z</time></trkpt><trkpt lat="41.873372" lon="12.2093362"><ele>3.0</ele><time>2026-04-11T18:59:51.021Z</time></trkpt><trkpt lat="41.8732409" lon="12.2092797"><ele>3.0</ele><time>2026-04-11T18:59:52.021Z</time></trkpt><trkpt lat="41.8730941" lon="12.2092484"><ele>3.2</ele><time>2026-04-11T18:59:53.021Z</time></trkpt><trkpt lat="41.8729764" lon="12.2092175"><ele>3.4</ele><time>2026-04-11T18:59:54.021Z</time></trkpt><trkpt lat="41.8728673" lon="12.2091679"><ele>3.6000000000000005</ele><time>2026-04-11T18:59:55.021Z</time></trkpt><trkpt lat="41.8727715" lon="12.2091279"><ele>3.8000000000000003</ele><time>2026-04-11T18:59:56.021Z</time></trkpt><trkpt lat="41.8726691" lon="12.2090876"><ele>4.0</ele><time>2026-04-11T18:59:57.022Z</time></trkpt><trkpt lat="41.8725733" lon="12.2090479"><ele>3.9999999999999996</ele><time>2026-04-11T18:59:58.022Z</time></trkpt><trkpt lat="41.8724872" lon="12.2090083"><ele>4.0</ele><time>2026-04-11T18:59:59.022Z</time></trkpt><trkpt lat="41.872417" lon="12.2089906"><ele>4.0</ele><time>2026-04-11T19:00:00.021Z</time></trkpt><trkpt lat="41.8723434" lon="12.2090189"><ele>4.0</ele><time>2026-04-11T19:00:02.022Z</time></trkpt><trkpt lat="41.8722598" lon="12.2091073"><ele>3.9999999999999996</ele><time>2026-04-11T19:00:04.022Z</time></trkpt><trkpt lat="41.8721837" lon="12.2091822"><ele>4.0</ele><time>2026-04-11T19:00:06.022Z</time></trkpt><trkpt lat="41.8721062" lon="12.2092835"><ele>3.9999999999999996</ele><time>2026-04-11T19:00:08.022Z</time></trkpt><trkpt lat="41.8720421" lon="12.2093624"><ele>4.0</ele><time>2026-04-11T19:00:09.021Z</time></trkpt><trkpt lat="41.8719784" lon="12.2094287"><ele>4.0</ele><time>2026-04-11T19:00:10.022Z</time></trkpt><trkpt lat="41.8719174" lon="12.209499"><ele>4.0</ele><time>2026-04-11T19:00:11.021Z</time></trkpt><trkpt lat="41.8718596" lon="12.2095533"><ele>3.9999999999999996</ele><time>2026-04-11T19:00:12.022Z</time></trkpt><trkpt lat="41.8717982" lon="12.2096075"><ele>4.0</ele><time>2026-04-11T19:00:13.022Z</time></trkpt><trkpt lat="41.871731" lon="12.2096625"><ele>3.9999999999999996</ele><time>2026-04-11T19:00:14.022Z</time></trkpt><trkpt lat="41.8716734" lon="12.2097273"><ele>4.0</ele><time>2026-04-11T19:00:15.022Z</time></trkpt><trkpt lat="41.8716238" lon="12.2097905"><ele>4.0</ele><time>2026-04-11T19:00:16.021Z</time></trkpt><trkpt lat="41.8715696" lon="12.209852"><ele>4.0</ele><time>2026-04-11T19:00:17.021Z</time></trkpt><trkpt lat="41.8715032" lon="12.2099334"><ele>3.9999999999999996</ele><time>2026-04-11T19:00:18.022Z</time></trkpt><trkpt lat="41.8714304" lon="12.2100136"><ele>4.0</ele><time>2026-04-11T19:00:19.021Z</time></trkpt><trkpt lat="41.8713523" lon="12.210081"><ele>3.4000000000000004</ele><time>2026-04-11T19:00:20.021Z</time></trkpt><trkpt lat="41.8712787" lon="12.2101473"><ele>2.8000000000000003</ele><time>2026-04-11T19:00:21.022Z</time></trkpt><trkpt lat="41.8711968" lon="12.210219"><ele>2.2</ele><time>2026-04-11T19:00:22.021Z</time></trkpt><trkpt lat="41.8711091" lon="12.2102908"><ele>1.6</ele><time>2026-04-11T19:00:23.021Z</time></trkpt><trkpt lat="41.8710327" lon="12.2103688"><ele>1.0</ele><time>2026-04-11T19:00:24.021Z</time></trkpt><trkpt lat="41.8709473" lon="12.2104451"><ele>1.0</ele><time>2026-04-11T19:00:25.022Z</time></trkpt><trkpt lat="41.870863" lon="12.2105208"><ele>1.0</ele><time>2026-04-11T19:00:26.021Z</time></trkpt><trkpt lat="41.8707833" lon="12.2105934"><ele>1.0</ele><time>2026-04-11T19:00:27.022Z</time></trkpt><trkpt lat="41.8707079" lon="12.2106625"><ele>1.0</ele><time>2026-04-11T19:00:28.022Z</time></trkpt><trkpt lat="41.8706317" lon="12.2107316"><ele>1.0</ele><time>2026-04-11T19:00:29.021Z</time></trkpt><trkpt lat="41.870559" lon="12.2108051"><ele>1.0</ele><time>2026-04-11T19:00:30.022Z</time></trkpt><trkpt lat="41.8704759" lon="12.2108668"><ele>1.0</ele><time>2026-04-11T19:00:31.022Z</time></trkpt><trkpt lat="41.8703879" lon="12.210936"><ele>1.0</ele><time>2026-04-11T19:00:32.022Z</time></trkpt><trkpt lat="41.8703138" lon="12.2110161"><ele>1.0</ele><time>2026-04-11T19:00:33.022Z</time></trkpt><trkpt lat="41.8702397" lon="12.2110924"><ele>1.0</ele><time>2026-04-11T19:00:34.022Z</time></trkpt><trkpt lat="41.8701624" lon="12.2111718"><ele>1.0</ele><time>2026-04-11T19:00:35.022Z</time></trkpt><trkpt lat="41.8700888" lon="12.2112599"><ele>1.0</ele><time>2026-04-11T19:00:36.021Z</time></trkpt><trkpt lat="41.870007" lon="12.2113421"><ele>1.0</ele><time>2026-04-11T19:00:37.022Z</time></trkpt><trkpt lat="41.8699216" lon="12.2114216"><ele>1.0</ele><time>2026-04-11T19:00:38.021Z</time></trkpt><trkpt lat="41.8698367" lon="12.211498"><ele>1.0</ele><time>2026-04-11T19:00:39.022Z</time></trkpt><trkpt lat="41.869748" lon="12.2115768"><ele>0.8</ele><time>2026-04-11T19:00:40.021Z</time></trkpt><trkpt lat="41.8696764" lon="12.2116429"><ele>0.6000000000000001</ele><time>2026-04-11T19:00:41.022Z</time></trkpt><trkpt lat="41.8696123" lon="12.2117221"><ele>0.4</ele><time>2026-04-11T19:00:42.021Z</time></trkpt><trkpt lat="41.8695337" lon="12.2118029"><ele>0.2</ele><time>2026-04-11T19:00:43.022Z</time></trkpt><trkpt lat="41.8694513" lon="12.2118926"><ele>0.0</ele><time>2026-04-11T19:00:44.022Z</time></trkpt><trkpt lat="41.8693712" lon="12.2119737"><ele>0.0</ele><time>2026-04-11T19:00:45.022Z</time></trkpt><trkpt lat="41.8692919" lon="12.2120608"><ele>0.0</ele><time>2026-04-11T19:00:46.022Z</time></trkpt><trkpt lat="41.8692199" lon="12.2121477"><ele>0.0</ele><time>2026-04-11T19:00:47.022Z</time></trkpt><trkpt lat="41.8691431" lon="12.2122266"><ele>0.0</ele><time>2026-04-11T19:00:48.022Z</time></trkpt><trkpt lat="41.8690622" lon="12.2123029"><ele>0.0</ele><time>2026-04-11T19:00:49.021Z</time></trkpt><trkpt lat="41.8689859" lon="12.212383"><ele>0.16666666666666666</ele><time>2026-04-11T19:00:50.021Z</time></trkpt><trkpt lat="41.868904" lon="12.2124559"><ele>0.3333333333333333</ele><time>2026-04-11T19:00:51.021Z</time></trkpt><trkpt lat="41.8688236" lon="12.2125176"><ele>0.5</ele><time>2026-04-11T19:00:52.021Z</time></trkpt><trkpt lat="41.8687488" lon="12.2125884"><ele>0.6666666666666666</ele><time>2026-04-11T19:00:53.021Z</time></trkpt><trkpt lat="41.8686835" lon="12.2126519"><ele>0.8333333333333333</ele><time>2026-04-11T19:00:54.021Z</time></trkpt><trkpt lat="41.868618" lon="12.2127203"><ele>1.0</ele><time>2026-04-11T19:00:55.022Z</time></trkpt><trkpt lat="41.8685428" lon="12.2127925"><ele>1.0</ele><time>2026-04-11T19:00:56.022Z</time></trkpt><trkpt lat="41.8684721" lon="12.2128684"><ele>1.0</ele><time>2026-04-11T19:00:57.021Z</time></trkpt><trkpt lat="41.8684033" lon="12.212942"><ele>1.0</ele><time>2026-04-11T19:00:58.022Z</time></trkpt><trkpt lat="41.8683322" lon="12.2130181"><ele>1.0</ele><time>2026-04-11T19:00:59.022Z</time></trkpt><trkpt lat="41.8682573" lon="12.2131012"><ele>1.0</ele><time>2026-04-11T19:01:00.021Z</time></trkpt><trkpt lat="41.868177" lon="12.2131894"><ele>0.6000000000000001</ele><time>2026-04-11T19:01:01.021Z</time></trkpt><trkpt lat="41.8680934" lon="12.2132687"><ele>0.20000000000000007</ele><time>2026-04-11T19:01:02.022Z</time></trkpt><trkpt lat="41.8680101" lon="12.2133528"><ele>-0.20000000000000007</ele><time>2026-04-11T19:01:03.022Z</time></trkpt><trkpt lat="41.8679297" lon="12.2134427"><ele>-0.6000000000000001</ele><time>2026-04-11T19:01:04.022Z</time></trkpt><trkpt lat="41.8678431" lon="12.2135265"><ele>-1.0</ele><time>2026-04-11T19:01:05.021Z</time></trkpt><trkpt lat="41.8677614" lon="12.2136148"><ele>-1.0</ele><time>2026-04-11T19:01:06.021Z</time></trkpt><trkpt lat="41.8676779" lon="12.2136981"><ele>-1.0</ele><time>2026-04-11T19:01:07.022Z</time></trkpt><trkpt lat="41.8675987" lon="12.2137731"><ele>-1.0</ele><time>2026-04-11T19:01:08.022Z</time></trkpt><trkpt lat="41.8675142" lon="12.2138418"><ele>-1.0</ele><time>2026-04-11T19:01:09.021Z</time></trkpt><trkpt lat="41.867427" lon="12.2139145"><ele>-1.0</ele><time>2026-04-11T19:01:10.022Z</time></trkpt><trkpt lat="41.8673564" lon="12.2140015"><ele>-0.6000000000000001</ele><time>2026-04-11T19:01:11.021Z</time></trkpt><trkpt lat="41.8672912" lon="12.2140852"><ele>-0.20000000000000007</ele><time>2026-04-11T19:01:12.021Z</time></trkpt><trkpt lat="41.8672328" lon="12.2141711"><ele>0.20000000000000007</ele><time>2026-04-11T19:01:13.021Z</time></trkpt><trkpt lat="41.8671606" lon="12.2142632"><ele>0.6000000000000001</ele><time>2026-04-11T19:01:14.022Z</time></trkpt><trkpt lat="41.8670742" lon="12.2143458"><ele>1.0</ele><time>2026-04-11T19:01:15.022Z</time></trkpt><trkpt lat="41.8669819" lon="12.2144354"><ele>1.0</ele><time>2026-04-11T19:01:16.022Z</time></trkpt><trkpt lat="41.8668883" lon="12.2145142"><ele>1.0</ele><time>2026-04-11T19:01:17.021Z</time></trkpt><trkpt lat="41.8668034" lon="12.2145906"><ele>1.0</ele><time>2026-04-11T19:01:18.022Z</time></trkpt><trkpt lat="41.8667097" lon="12.2146646"><ele>1.0</ele><time>2026-04-11T19:01:19.021Z</time></trkpt><trkpt lat="41.8666232" lon="12.2147549"><ele>1.0</ele><time>2026-04-11T19:01:20.021Z</time></trkpt><trkpt lat="41.8665406" lon="12.2148483"><ele>0.8</ele><time>2026-04-11T19:01:21.021Z</time></trkpt><trkpt lat="41.8664504" lon="12.2149303"><ele>0.6000000000000001</ele><time>2026-04-11T19:01:22.022Z</time></trkpt><trkpt lat="41.8663736" lon="12.215007"><ele>0.4</ele><time>2026-04-11T19:01:23.021Z</time></trkpt><trkpt lat="41.8662946" lon="12.2150989"><ele>0.2</ele><time>2026-04-11T19:01:24.022Z</time></trkpt><trkpt lat="41.8662094" lon="12.2151743"><ele>0.0</ele><time>2026-04-11T19:01:25.021Z</time></trkpt><trkpt lat="41.8661184" lon="12.2152525"><ele>0.0</ele><time>2026-04-11T19:01:26.022Z</time></trkpt><trkpt lat="41.8660118" lon="12.2153354"><ele>0.0</ele><time>2026-04-11T19:01:27.022Z</time></trkpt><trkpt lat="41.86591" lon="12.2154186"><ele>0.0</ele><time>2026-04-11T19:01:28.021Z</time></trkpt><trkpt lat="41.8658346" lon="12.2155292"><ele>0.0</ele><time>2026-04-11T19:01:29.021Z</time></trkpt><trkpt lat="41.8657802" lon="12.2156209"><ele>0.0</ele><time>2026-04-11T19:01:30.022Z</time></trkpt><trkpt lat="41.8657181" lon="12.2157004"><ele>0.3333333333333333</ele><time>2026-04-11T19:01:31.022Z</time></trkpt><trkpt lat="41.8656427" lon="12.2157745"><ele>0.6666666666666666</ele><time>2026-04-11T19:01:32.021Z</time></trkpt><trkpt lat="41.865569" lon="12.2158556"><ele>1.0</ele><time>2026-04-11T19:01:33.021Z</time></trkpt><trkpt lat="41.8655038" lon="12.2159182"><ele>1.3333333333333333</ele><time>2026-04-11T19:01:34.022Z</time></trkpt><trkpt lat="41.865427" lon="12.2159779"><ele>1.6666666666666665</ele><time>2026-04-11T19:01:35.022Z</time></trkpt><trkpt lat="41.8653586" lon="12.2160593"><ele>2.0</ele><time>2026-04-11T19:01:36.021Z</time></trkpt><trkpt lat="41.8652968" lon="12.2161097"><ele>1.9999999999999998</ele><time>2026-04-11T19:01:37.022Z</time></trkpt><trkpt lat="41.8652269" lon="12.216169"><ele>2.0</ele><time>2026-04-11T19:01:38.022Z</time></trkpt><trkpt lat="41.8651574" lon="12.2162142"><ele>2.0</ele><time>2026-04-11T19:01:39.022Z</time></trkpt><trkpt lat="41.8651024" lon="12.2162762"><ele>2.0</ele><time>2026-04-11T19:01:40.021Z</time></trkpt><trkpt lat="41.8650403" lon="12.2163424"><ele>1.9999999999999998</ele><time>2026-04-11T19:01:41.021Z</time></trkpt><trkpt lat="41.8649697" lon="12.2164272"><ele>2.0</ele><time>2026-04-11T19:01:42.022Z</time></trkpt><trkpt lat="41.8648982" lon="12.21651"><ele>2.5</ele><time>2026-04-11T19:01:43.021Z</time></trkpt><trkpt lat="41.8648468" lon="12.2165929"><ele>3.0</ele><time>2026-04-11T19:01:44.021Z</time></trkpt><trkpt lat="41.8647951" lon="12.2166773"><ele>3.5</ele><time>2026-04-11T19:01:45.022Z</time></trkpt><trkpt lat="41.864729" lon="12.2167431"><ele>4.0</ele><time>2026-04-11T19:01:46.022Z</time></trkpt><trkpt lat="41.8646552" lon="12.2168047"><ele>4.5</ele><time>2026-04-11T19:01:47.022Z</time></trkpt><trkpt lat="41.8645827" lon="12.2168629"><ele>5.0</ele><time>2026-04-11T19:01:48.022Z</time></trkpt><trkpt lat="41.8645094" lon="12.2169337"><ele>5.0</ele><time>2026-04-11T19:01:49.021Z</time></trkpt><trkpt lat="41.8644319" lon="12.2170141"><ele>5.0</ele><time>2026-04-11T19:01:50.021Z</time></trkpt><trkpt lat="41.8643565" lon="12.2170945"><ele>5.0</ele><time>2026-04-11T19:01:51.022Z</time></trkpt><trkpt lat="41.864287" lon="12.2171646"><ele>5.0</ele><time>2026-04-11T19:01:52.022Z</time></trkpt><trkpt lat="41.8642241" lon="12.2172339"><ele>5.0</ele><time>2026-04-11T19:01:53.021Z</time></trkpt><trkpt lat="41.864164" lon="12.2172876"><ele>5.0</ele><time>2026-04-11T19:01:54.021Z</time></trkpt><trkpt lat="41.8641053" lon="12.2173474"><ele>4.5</ele><time>2026-04-11T19:01:55.021Z</time></trkpt><trkpt lat="41.8640237" lon="12.2174086"><ele>4.0</ele><time>2026-04-11T19:01:56.022Z</time></trkpt><trkpt lat="41.8639606" lon="12.217488"><ele>3.5</ele><time>2026-04-11T19:01:57.022Z</time></trkpt><trkpt lat="41.8638906" lon="12.2175454"><ele>3.0</ele><time>2026-04-11T19:01:58.022Z</time></trkpt><trkpt lat="41.8638242" lon="12.217601"><ele>2.5</ele><time>2026-04-11T19:01:59.021Z</time></trkpt><trkpt lat="41.8637723" lon="12.2176639"><ele>2.0</ele><time>2026-04-11T19:02:00.022Z</time></trkpt><trkpt lat="41.8637209" lon="12.2177324"><ele>2.0</ele><time>2026-04-11T19:02:01.022Z</time></trkpt><trkpt lat="41.8636315" lon="12.2178237"><ele>2.0</ele><time>2026-04-11T19:02:02.022Z</time></trkpt><trkpt lat="41.8635416" lon="12.217891"><ele>2.0</ele><time>2026-04-11T19:02:03.022Z</time></trkpt><trkpt lat="41.8634575" lon="12.2179469"><ele>2.0</ele><time>2026-04-11T19:02:04.022Z</time></trkpt><trkpt lat="41.8634046" lon="12.2180144"><ele>2.0</ele><time>2026-04-11T19:02:05.021Z</time></trkpt><trkpt lat="41.8633452" lon="12.2180731"><ele>2.0</ele><time>2026-04-11T19:02:06.022Z</time></trkpt><trkpt lat="41.8632702" lon="12.218148"><ele>2.0</ele><time>2026-04-11T19:02:07.022Z</time></trkpt><trkpt lat="41.8631973" lon="12.2182168"><ele>2.0</ele><time>2026-04-11T19:02:08.022Z</time></trkpt><trkpt lat="41.8631214" lon="12.2182814"><ele>2.0</ele><time>2026-04-11T19:02:09.021Z</time></trkpt><trkpt lat="41.8630416" lon="12.2183427"><ele>2.0</ele><time>2026-04-11T19:02:10.021Z</time></trkpt><trkpt lat="41.8629548" lon="12.2183938"><ele>2.6</ele><time>2026-04-11T19:02:11.022Z</time></trkpt><trkpt lat="41.8628675" lon="12.2184588"><ele>3.2</ele><time>2026-04-11T19:02:12.022Z</time></trkpt><trkpt lat="41.8627801" lon="12.2185363"><ele>3.8</ele><time>2026-04-11T19:02:13.022Z</time></trkpt><trkpt lat="41.862701" lon="12.2186115"><ele>4.4</ele><time>2026-04-11T19:02:14.022Z</time></trkpt><trkpt lat="41.8626264" lon="12.2186912"><ele>5.0</ele><time>2026-04-11T19:02:15.022Z</time></trkpt><trkpt lat="41.8625461" lon="12.2187748"><ele>5.0</ele><time>2026-04-11T19:02:16.022Z</time></trkpt><trkpt lat="41.8624774" lon="12.2188465"><ele>5.0</ele><time>2026-04-11T19:02:17.022Z</time></trkpt><trkpt lat="41.8623884" lon="12.2189342"><ele>5.0</ele><time>2026-04-11T19:02:18.021Z</time></trkpt><trkpt lat="41.8623165" lon="12.2189987"><ele>5.0</ele><time>2026-04-11T19:02:19.021Z</time></trkpt><trkpt lat="41.8622464" lon="12.2190504"><ele>5.0</ele><time>2026-04-11T19:02:20.021Z</time></trkpt><trkpt lat="41.8621863" lon="12.2191229"><ele>5.0</ele><time>2026-04-11T19:02:21.021Z</time></trkpt><trkpt lat="41.8621195" lon="12.2192016"><ele>4.833333333333334</ele><time>2026-04-11T19:02:22.021Z</time></trkpt><trkpt lat="41.8620584" lon="12.2192699"><ele>4.666666666666667</ele><time>2026-04-11T19:02:23.021Z</time></trkpt><trkpt lat="41.862004" lon="12.2193449"><ele>4.5</ele><time>2026-04-11T19:02:24.022Z</time></trkpt><trkpt lat="41.8619436" lon="12.2194103"><ele>4.333333333333333</ele><time>2026-04-11T19:02:25.022Z</time></trkpt><trkpt lat="41.8618845" lon="12.219489"><ele>4.166666666666666</ele><time>2026-04-11T19:02:26.022Z</time></trkpt><trkpt lat="41.8618181" lon="12.219563"><ele>4.0</ele><time>2026-04-11T19:02:27.021Z</time></trkpt><trkpt lat="41.8617463" lon="12.2196366"><ele>4.0</ele><time>2026-04-11T19:02:28.021Z</time></trkpt><trkpt lat="41.8616731" lon="12.2197217"><ele>4.0</ele><time>2026-04-11T19:02:29.022Z</time></trkpt><trkpt lat="41.8615976" lon="12.2197984"><ele>4.0</ele><time>2026-04-11T19:02:30.021Z</time></trkpt><trkpt lat="41.861519" lon="12.219866"><ele>4.0</ele><time>2026-04-11T19:02:31.022Z</time></trkpt><trkpt lat="41.8614548" lon="12.2199681"><ele>4.0</ele><time>2026-04-11T19:02:32.022Z</time></trkpt><trkpt lat="41.8613627" lon="12.2200548"><ele>3.75</ele><time>2026-04-11T19:02:33.022Z</time></trkpt><trkpt lat="41.8612903" lon="12.2201469"><ele>3.5</ele><time>2026-04-11T19:02:34.022Z</time></trkpt><trkpt lat="41.8611967" lon="12.2202357"><ele>3.25</ele><time>2026-04-11T19:02:35.021Z</time></trkpt><trkpt lat="41.8610871" lon="12.2203411"><ele>3.0</ele><time>2026-04-11T19:02:36.022Z</time></trkpt><trkpt lat="41.8609857" lon="12.2204466"><ele>2.8</ele><time>2026-04-11T19:02:37.022Z</time></trkpt><trkpt lat="41.8608994" lon="12.220532"><ele>2.5999999999999996</ele><time>2026-04-11T19:02:38.021Z</time></trkpt><trkpt lat="41.8608219" lon="12.2206039"><ele>2.4000000000000004</ele><time>2026-04-11T19:02:39.022Z</time></trkpt><trkpt lat="41.8607265" lon="12.2206765"><ele>2.2</ele><time>2026-04-11T19:02:40.022Z</time></trkpt><trkpt lat="41.8606406" lon="12.2207641"><ele>2.0</ele><time>2026-04-11T19:02:41.021Z</time></trkpt><trkpt lat="41.8605515" lon="12.2208442"><ele>2.0</ele><time>2026-04-11T19:02:42.021Z</time></trkpt><trkpt lat="41.8604637" lon="12.2209184"><ele>2.0</ele><time>2026-04-11T19:02:43.022Z</time></trkpt><trkpt lat="41.8603873" lon="12.22101"><ele>2.0</ele><time>2026-04-11T19:02:44.022Z</time></trkpt><trkpt lat="41.8602955" lon="12.2210955"><ele>2.0</ele><time>2026-04-11T19:02:45.021Z</time></trkpt><trkpt lat="41.8601951" lon="12.2211592"><ele>2.0</ele><time>2026-04-11T19:02:46.021Z</time></trkpt><trkpt lat="41.8601012" lon="12.2212296"><ele>2.0</ele><time>2026-04-11T19:02:47.022Z</time></trkpt><trkpt lat="41.8600123" lon="12.221323"><ele>2.0</ele><time>2026-04-11T19:02:48.021Z</time></trkpt><trkpt lat="41.8599229" lon="12.2214108"><ele>2.0</ele><time>2026-04-11T19:02:49.022Z</time></trkpt><trkpt lat="41.8598525" lon="12.2214871"><ele>2.0</ele><time>2026-04-11T19:02:50.022Z</time></trkpt><trkpt lat="41.8597765" lon="12.2215661"><ele>2.0</ele><time>2026-04-11T19:02:51.022Z</time></trkpt><trkpt lat="41.8597019" lon="12.2216422"><ele>2.0</ele><time>2026-04-11T19:02:52.021Z</time></trkpt><trkpt lat="41.8596182" lon="12.2217215"><ele>2.0</ele><time>2026-04-11T19:02:53.022Z</time></trkpt><trkpt lat="41.8595289" lon="12.2218086"><ele>2.0</ele><time>2026-04-11T19:02:54.022Z</time></trkpt><trkpt lat="41.8594335" lon="12.2219139"><ele>2.0</ele><time>2026-04-11T19:02:55.021Z</time></trkpt><trkpt lat="41.8593418" lon="12.2220191"><ele>2.0</ele><time>2026-04-11T19:02:56.021Z</time></trkpt><trkpt lat="41.8592569" lon="12.2221143"><ele>2.0</ele><time>2026-04-11T19:02:57.022Z</time></trkpt><trkpt lat="41.8591775" lon="12.222204"><ele>2.0</ele><time>2026-04-11T19:02:58.022Z</time></trkpt><trkpt lat="41.8590936" lon="12.2222944"><ele>2.0</ele><time>2026-04-11T19:02:59.021Z</time></trkpt><trkpt lat="41.8590145" lon="12.2223818"><ele>2.0</ele><time>2026-04-11T19:03:00.022Z</time></trkpt><trkpt lat="41.8589309" lon="12.2224604"><ele>2.0</ele><time>2026-04-11T19:03:01.022Z</time></trkpt><trkpt lat="41.8588354" lon="12.2225376"><ele>2.0</ele><time>2026-04-11T19:03:02.022Z</time></trkpt><trkpt lat="41.858743" lon="12.2226289"><ele>2.0</ele><time>2026-04-11T19:03:03.021Z</time></trkpt><trkpt lat="41.8586551" lon="12.222718"><ele>2.0</ele><time>2026-04-11T19:03:04.022Z</time></trkpt><trkpt lat="41.8585633" lon="12.2228054"><ele>2.0</ele><time>2026-04-11T19:03:05.022Z</time></trkpt><trkpt lat="41.8584678" lon="12.2228993"><ele>2.0</ele><time>2026-04-11T19:03:06.021Z</time></trkpt><trkpt lat="41.8583813" lon="12.2229893"><ele>2.0</ele><time>2026-04-11T19:03:07.022Z</time></trkpt><trkpt lat="41.8582926" lon="12.2230758"><ele>2.0</ele><time>2026-04-11T19:03:08.021Z</time></trkpt><trkpt lat="41.8582086" lon="12.2231661"><ele>2.0</ele><time>2026-04-11T19:03:09.022Z</time></trkpt><trkpt lat="41.8581254" lon="12.2232506"><ele>2.0</ele><time>2026-04-11T19:03:10.022Z</time></trkpt><trkpt lat="41.8580413" lon="12.2233344"><ele>2.0</ele><time>2026-04-11T19:03:11.021Z</time></trkpt><trkpt lat="41.8579571" lon="12.2234222"><ele>2.0</ele><time>2026-04-11T19:03:12.022Z</time></trkpt><trkpt lat="41.8578708" lon="12.2235059"><ele>2.0</ele><time>2026-04-11T19:03:13.022Z</time></trkpt><trkpt lat="41.8577832" lon="12.2235907"><ele>2.0</ele><time>2026-04-11T19:03:14.022Z</time></trkpt><trkpt lat="41.8576897" lon="12.223684"><ele>2.0</ele><time>2026-04-11T19:03:15.022Z</time></trkpt><trkpt lat="41.8575854" lon="12.2238055"><ele>2.0</ele><time>2026-04-11T19:03:16.021Z</time></trkpt><trkpt lat="41.8574964" lon="12.2238962"><ele>2.0</ele><time>2026-04-11T19:03:17.021Z</time></trkpt><trkpt lat="41.8574178" lon="12.2240005"><ele>2.0</ele><time>2026-04-11T19:03:19.022Z</time></trkpt><trkpt lat="41.8573581" lon="12.2240844"><ele>2.0</ele><time>2026-04-11T19:03:21.022Z</time></trkpt><trkpt lat="41.8573205" lon="12.2241906"><ele>2.0</ele><time>2026-04-11T19:03:23.021Z</time></trkpt><trkpt lat="41.8572452" lon="12.2241708"><ele>1.6666666666666665</ele><time>2026-04-11T19:03:27.022Z</time></trkpt><trkpt lat="41.8571844" lon="12.2242139"><ele>1.3333333333333333</ele><time>2026-04-11T19:03:29.021Z</time></trkpt><trkpt lat="41.8571464" lon="12.224303"><ele>1.0</ele><time>2026-04-11T19:03:31.022Z</time></trkpt><trkpt lat="41.857081" lon="12.224367"><ele>0.6666666666666666</ele><time>2026-04-11T19:03:33.021Z</time></trkpt><trkpt lat="41.8569969" lon="12.2244476"><ele>0.3333333333333333</ele><time>2026-04-11T19:03:35.022Z</time></trkpt><trkpt lat="41.85691" lon="12.2245414"><ele>0.0</ele><time>2026-04-11T19:03:37.022Z</time></trkpt><trkpt lat="41.8568161" lon="12.2246493"><ele>-0.2</ele><time>2026-04-11T19:03:39.022Z</time></trkpt><trkpt lat="41.8567322" lon="12.2247007"><ele>-0.4</ele><time>2026-04-11T19:03:40.021Z</time></trkpt><trkpt lat="41.8566494" lon="12.2247868"><ele>-0.6000000000000001</ele><time>2026-04-11T19:03:41.022Z</time></trkpt><trkpt lat="41.8565795" lon="12.22486"><ele>-0.8</ele><time>2026-04-11T19:03:42.021Z</time></trkpt><trkpt lat="41.8564973" lon="12.2249496"><ele>-1.0</ele><time>2026-04-11T19:03:43.022Z</time></trkpt><trkpt lat="41.8564201" lon="12.2250461"><ele>-1.2000000000000002</ele><time>2026-04-11T19:03:44.022Z</time></trkpt><trkpt lat="41.8563461" lon="12.2251393"><ele>-1.4000000000000001</ele><time>2026-04-11T19:03:45.021Z</time></trkpt><trkpt lat="41.8562658" lon="12.2252471"><ele>-1.6</ele><time>2026-04-11T19:03:46.022Z</time></trkpt><trkpt lat="41.8561807" lon="12.2253266"><ele>-1.8</ele><time>2026-04-11T19:03:47.022Z</time></trkpt><trkpt lat="41.8561003" lon="12.2253972"><ele>-2.0</ele><time>2026-04-11T19:03:48.022Z</time></trkpt><trkpt lat="41.8560231" lon="12.2254718"><ele>-1.8</ele><time>2026-04-11T19:03:49.022Z</time></trkpt><trkpt lat="41.8559456" lon="12.2255523"><ele>-1.6</ele><time>2026-04-11T19:03:50.021Z</time></trkpt><trkpt lat="41.8558661" lon="12.2256244"><ele>-1.4000000000000001</ele><time>2026-04-11T19:03:51.022Z</time></trkpt><trkpt lat="41.855775" lon="12.2256766"><ele>-1.2000000000000002</ele><time>2026-04-11T19:03:52.022Z</time></trkpt><trkpt lat="41.8556876" lon="12.2257435"><ele>-1.0</ele><time>2026-04-11T19:03:53.022Z</time></trkpt><trkpt lat="41.8556272" lon="12.2258294"><ele>-1.0</ele><time>2026-04-11T19:03:54.022Z</time></trkpt><trkpt lat="41.8555621" lon="12.2258969"><ele>-1.0</ele><time>2026-04-11T19:03:55.022Z</time></trkpt><trkpt lat="41.8554873" lon="12.2259704"><ele>-1.0</ele><time>2026-04-11T19:03:56.022Z</time></trkpt><trkpt lat="41.8554015" lon="12.2260499"><ele>-1.0</ele><time>2026-04-11T19:03:57.021Z</time></trkpt><trkpt lat="41.8553162" lon="12.2261223"><ele>-1.0</ele><time>2026-04-11T19:03:58.021Z</time></trkpt><trkpt lat="41.8552348" lon="12.2262021"><ele>-1.0</ele><time>2026-04-11T19:03:59.022Z</time></trkpt><trkpt lat="41.8551614" lon="12.2262785"><ele>-1.0</ele><time>2026-04-11T19:04:00.021Z</time></trkpt><trkpt lat="41.8550863" lon="12.2263608"><ele>-1.0</ele><time>2026-04-11T19:04:01.021Z</time></trkpt><trkpt lat="41.8550119" lon="12.2264441"><ele>-1.0</ele><time>2026-04-11T19:04:02.021Z</time></trkpt><trkpt lat="41.8549323" lon="12.2265201"><ele>-1.0</ele><time>2026-04-11T19:04:03.021Z</time></trkpt><trkpt lat="41.8548511" lon="12.2265952"><ele>-1.2000000000000002</ele><time>2026-04-11T19:04:04.022Z</time></trkpt><trkpt lat="41.854774" lon="12.2266718"><ele>-1.4000000000000001</ele><time>2026-04-11T19:04:05.022Z</time></trkpt><trkpt lat="41.8546986" lon="12.2267527"><ele>-1.6</ele><time>2026-04-11T19:04:06.021Z</time></trkpt><trkpt lat="41.8546163" lon="12.226836"><ele>-1.8</ele><time>2026-04-11T19:04:07.021Z</time></trkpt><trkpt lat="41.8545284" lon="12.2269184"><ele>-2.0</ele><time>2026-04-11T19:04:08.022Z</time></trkpt><trkpt lat="41.8544425" lon="12.2270002"><ele>-2.0</ele><time>2026-04-11T19:04:09.022Z</time></trkpt><trkpt lat="41.8543592" lon="12.2270815"><ele>-2.0</ele><time>2026-04-11T19:04:10.021Z</time></trkpt><trkpt lat="41.8542748" lon="12.2271657"><ele>-2.0</ele><time>2026-04-11T19:04:11.021Z</time></trkpt><trkpt lat="41.8542056" lon="12.2272555"><ele>-2.0</ele><time>2026-04-11T19:04:12.021Z</time></trkpt><trkpt lat="41.8541292" lon="12.2273473"><ele>-2.0</ele><time>2026-04-11T19:04:13.022Z</time></trkpt><trkpt lat="41.8540394" lon="12.2274275"><ele>-2.0</ele><time>2026-04-11T19:04:14.021Z</time></trkpt><trkpt lat="41.8539451" lon="12.227493"><ele>-2.0</ele><time>2026-04-11T19:04:15.022Z</time></trkpt><trkpt lat="41.8538664" lon="12.227579"><ele>-2.0</ele><time>2026-04-11T19:04:16.022Z</time></trkpt><trkpt lat="41.8537876" lon="12.2276625"><ele>-2.0</ele><time>2026-04-11T19:04:17.021Z</time></trkpt><trkpt lat="41.8537019" lon="12.2277393"><ele>-2.0</ele><time>2026-04-11T19:04:18.021Z</time></trkpt><trkpt lat="41.8536224" lon="12.2278272"><ele>-1.9999999999999998</ele><time>2026-04-11T19:04:19.022Z</time></trkpt><trkpt lat="41.8535383" lon="12.2279001"><ele>-2.0</ele><time>2026-04-11T19:04:20.021Z</time></trkpt><trkpt lat="41.8534685" lon="12.2279762"><ele>-2.0</ele><time>2026-04-11T19:04:21.021Z</time></trkpt><trkpt lat="41.8534004" lon="12.2280487"><ele>-2.0</ele><time>2026-04-11T19:04:22.021Z</time></trkpt><trkpt lat="41.8533425" lon="12.2281305"><ele>-1.9999999999999998</ele><time>2026-04-11T19:04:23.022Z</time></trkpt><trkpt lat="41.8532896" lon="12.2282049"><ele>-2.0</ele><time>2026-04-11T19:04:24.021Z</time></trkpt><trkpt lat="41.8532029" lon="12.2282925"><ele>-1.8</ele><time>2026-04-11T19:04:25.021Z</time></trkpt><trkpt lat="41.8531272" lon="12.2283683"><ele>-1.6</ele><time>2026-04-11T19:04:26.021Z</time></trkpt><trkpt lat="41.8530548" lon="12.2284457"><ele>-1.4000000000000001</ele><time>2026-04-11T19:04:27.021Z</time></trkpt><trkpt lat="41.8529846" lon="12.2285216"><ele>-1.2000000000000002</ele><time>2026-04-11T19:04:28.022Z</time></trkpt><trkpt lat="41.8528964" lon="12.2285829"><ele>-1.0</ele><time>2026-04-11T19:04:29.021Z</time></trkpt><trkpt lat="41.8527919" lon="12.2286479"><ele>-1.0</ele><time>2026-04-11T19:04:30.022Z</time></trkpt><trkpt lat="41.8527107" lon="12.2287271"><ele>-1.0</ele><time>2026-04-11T19:04:31.021Z</time></trkpt><trkpt lat="41.8526381" lon="12.2288082"><ele>-1.0</ele><time>2026-04-11T19:04:32.022Z</time></trkpt><trkpt lat="41.852563" lon="12.2288718"><ele>-1.0</ele><time>2026-04-11T19:04:33.022Z</time></trkpt><trkpt lat="41.8524902" lon="12.2289427"><ele>-1.0</ele><time>2026-04-11T19:04:34.022Z</time></trkpt><trkpt lat="41.8524188" lon="12.2290237"><ele>-1.0</ele><time>2026-04-11T19:04:35.022Z</time></trkpt><trkpt lat="41.8523457" lon="12.2290992"><ele>-1.0</ele><time>2026-04-11T19:04:36.022Z</time></trkpt><trkpt lat="41.8522762" lon="12.2291764"><ele>-1.0</ele><time>2026-04-11T19:04:37.022Z</time></trkpt><trkpt lat="41.8522107" lon="12.229254"><ele>-1.0</ele><time>2026-04-11T19:04:38.022Z</time></trkpt><trkpt lat="41.8521429" lon="12.2293272"><ele>-1.0</ele><time>2026-04-11T19:04:39.021Z</time></trkpt><trkpt lat="41.8520685" lon="12.2294015"><ele>-0.9999999999999999</ele><time>2026-04-11T19:04:40.021Z</time></trkpt><trkpt lat="41.8519967" lon="12.229474"><ele>-1.0</ele><time>2026-04-11T19:04:41.021Z</time></trkpt><trkpt lat="41.8519256" lon="12.2295475"><ele>-1.0</ele><time>2026-04-11T19:04:42.022Z</time></trkpt><trkpt lat="41.8518584" lon="12.2296183"><ele>-1.0</ele><time>2026-04-11T19:04:43.022Z</time></trkpt><trkpt lat="41.851793" lon="12.2296881"><ele>-0.9999999999999999</ele><time>2026-04-11T19:04:44.022Z</time></trkpt><trkpt lat="41.8517218" lon="12.2297565"><ele>-1.0</ele><time>2026-04-11T19:04:45.021Z</time></trkpt><trkpt lat="41.8516408" lon="12.2298275"><ele>-0.8333333333333333</ele><time>2026-04-11T19:04:46.021Z</time></trkpt><trkpt lat="41.8515615" lon="12.2299047"><ele>-0.6666666666666666</ele><time>2026-04-11T19:04:47.022Z</time></trkpt><trkpt lat="41.8514861" lon="12.2299814"><ele>-0.5</ele><time>2026-04-11T19:04:48.022Z</time></trkpt><trkpt lat="41.8514194" lon="12.2300536"><ele>-0.3333333333333333</ele><time>2026-04-11T19:04:49.022Z</time></trkpt><trkpt lat="41.8513531" lon="12.230112"><ele>-0.16666666666666666</ele><time>2026-04-11T19:04:50.021Z</time></trkpt><trkpt lat="41.8512915" lon="12.2301676"><ele>0.0</ele><time>2026-04-11T19:04:51.021Z</time></trkpt><trkpt lat="41.8512308" lon="12.2302184"><ele>0.0</ele><time>2026-04-11T19:04:52.021Z</time></trkpt><trkpt lat="41.8511701" lon="12.230279"><ele>0.0</ele><time>2026-04-11T19:04:53.022Z</time></trkpt><trkpt lat="41.8511087" lon="12.2303441"><ele>0.0</ele><time>2026-04-11T19:04:54.021Z</time></trkpt><trkpt lat="41.8510407" lon="12.2304075"><ele>0.0</ele><time>2026-04-11T19:04:55.021Z</time></trkpt><trkpt lat="41.8509786" lon="12.2304801"><ele>0.0</ele><time>2026-04-11T19:04:56.022Z</time></trkpt><trkpt lat="41.850898" lon="12.2305576"><ele>0.0</ele><time>2026-04-11T19:04:57.021Z</time></trkpt><trkpt lat="41.8507896" lon="12.2306381"><ele>0.0</ele><time>2026-04-11T19:04:58.022Z</time></trkpt><trkpt lat="41.8506857" lon="12.2307115"><ele>0.0</ele><time>2026-04-11T19:04:59.022Z</time></trkpt><trkpt lat="41.8506109" lon="12.23078"><ele>0.0</ele><time>2026-04-11T19:05:00.021Z</time></trkpt><trkpt lat="41.8505284" lon="12.2308252"><ele>0.0</ele><time>2026-04-11T19:05:01.021Z</time></trkpt><trkpt lat="41.8505192" lon="12.2309332"><ele>0.0</ele><time>2026-04-11T19:05:02.021Z</time></trkpt><trkpt lat="41.8504662" lon="12.2310243"><ele>0.0</ele><time>2026-04-11T19:05:04.022Z</time></trkpt><trkpt lat="41.8504089" lon="12.2310912"><ele>0.0</ele><time>2026-04-11T19:05:05.022Z</time></trkpt><trkpt lat="41.8503317" lon="12.231159"><ele>0.0</ele><time>2026-04-11T19:05:06.022Z</time></trkpt><trkpt lat="41.850247" lon="12.2311966"><ele>0.0</ele><time>2026-04-11T19:05:07.022Z</time></trkpt><trkpt lat="41.8501915" lon="12.2312427"><ele>0.0</ele><time>2026-04-11T19:05:08.022Z</time></trkpt><trkpt lat="41.8501279" lon="12.2313089"><ele>0.0</ele><time>2026-04-11T19:05:09.021Z</time></trkpt><trkpt lat="41.8500622" lon="12.2313906"><ele>0.0</ele><time>2026-04-11T19:05:10.021Z</time></trkpt><trkpt lat="41.8499914" lon="12.2314707"><ele>0.0</ele><time>2026-04-11T19:05:11.021Z</time></trkpt><trkpt lat="41.8499232" lon="12.2315467"><ele>0.0</ele><time>2026-04-11T19:05:12.022Z</time></trkpt><trkpt lat="41.8498554" lon="12.2316194"><ele>0.0</ele><time>2026-04-11T19:05:13.021Z</time></trkpt><trkpt lat="41.8497641" lon="12.2316877"><ele>0.0</ele><time>2026-04-11T19:05:14.021Z</time></trkpt><trkpt lat="41.8496806" lon="12.2317278"><ele>-0.25</ele><time>2026-04-11T19:05:15.022Z</time></trkpt><trkpt lat="41.8495836" lon="12.2318396"><ele>-0.5</ele><time>2026-04-11T19:05:17.022Z</time></trkpt><trkpt lat="41.8494638" lon="12.2319365"><ele>-0.75</ele><time>2026-04-11T19:05:19.022Z</time></trkpt><trkpt lat="41.8493954" lon="12.2320207"><ele>-1.0</ele><time>2026-04-11T19:05:20.021Z</time></trkpt><trkpt lat="41.849325" lon="12.2320995"><ele>-1.4</ele><time>2026-04-11T19:05:21.021Z</time></trkpt><trkpt lat="41.849246" lon="12.2321544"><ele>-1.8</ele><time>2026-04-11T19:05:22.022Z</time></trkpt><trkpt lat="41.8491834" lon="12.2322356"><ele>-2.1999999999999997</ele><time>2026-04-11T19:05:23.022Z</time></trkpt><trkpt lat="41.8491179" lon="12.2322965"><ele>-2.6</ele><time>2026-04-11T19:05:24.021Z</time></trkpt><trkpt lat="41.8490486" lon="12.2324136"><ele>-3.0</ele><time>2026-04-11T19:05:25.022Z</time></trkpt><trkpt lat="41.8489481" lon="12.2325265"><ele>-3.0</ele><time>2026-04-11T19:05:26.021Z</time></trkpt><trkpt lat="41.8488494" lon="12.2326173"><ele>-3.0</ele><time>2026-04-11T19:05:27.021Z</time></trkpt><trkpt lat="41.8487703" lon="12.2327004"><ele>-3.0</ele><time>2026-04-11T19:05:28.022Z</time></trkpt><trkpt lat="41.8486919" lon="12.2327904"><ele>-3.0</ele><time>2026-04-11T19:05:29.022Z</time></trkpt><trkpt lat="41.8486108" lon="12.2328672"><ele>-3.0</ele><time>2026-04-11T19:05:30.022Z</time></trkpt><trkpt lat="41.8485328" lon="12.2329455"><ele>-3.0</ele><time>2026-04-11T19:05:31.022Z</time></trkpt><trkpt lat="41.8484493" lon="12.2330169"><ele>-3.0</ele><time>2026-04-11T19:05:32.021Z</time></trkpt><trkpt lat="41.8483632" lon="12.2330631"><ele>-3.0</ele><time>2026-04-11T19:05:33.021Z</time></trkpt><trkpt lat="41.8483271" lon="12.2331459"><ele>-3.0</ele><time>2026-04-11T19:05:34.022Z</time></trkpt><trkpt lat="41.8482883" lon="12.2332296"><ele>-3.0</ele><time>2026-04-11T19:05:35.022Z</time></trkpt><trkpt lat="41.84822" lon="12.2332581"><ele>-3.0</ele><time>2026-04-11T19:05:36.021Z</time></trkpt><trkpt lat="41.8481501" lon="12.2333301"><ele>-3.0</ele><time>2026-04-11T19:05:37.021Z</time></trkpt><trkpt lat="41.8480734" lon="12.233382"><ele>-3.0</ele><time>2026-04-11T19:05:38.021Z</time></trkpt><trkpt lat="41.8479749" lon="12.2334332"><ele>-3.0</ele><time>2026-04-11T19:05:39.021Z</time></trkpt><trkpt lat="41.8479046" lon="12.2334992"><ele>-3.0</ele><time>2026-04-11T19:05:40.021Z</time></trkpt><trkpt lat="41.8478383" lon="12.2335651"><ele>-3.0</ele><time>2026-04-11T19:05:41.022Z</time></trkpt><trkpt lat="41.8477843" lon="12.2336235"><ele>-3.0</ele><time>2026-04-11T19:05:42.022Z</time></trkpt><trkpt lat="41.8477178" lon="12.2336895"><ele>-3.0</ele><time>2026-04-11T19:05:43.021Z</time></trkpt><trkpt lat="41.8476591" lon="12.2337603"><ele>-3.0</ele><time>2026-04-11T19:05:44.022Z</time></trkpt><trkpt lat="41.8475921" lon="12.2338403"><ele>-3.0</ele><time>2026-04-11T19:05:45.021Z</time></trkpt><trkpt lat="41.8475219" lon="12.2339136"><ele>-3.0</ele><time>2026-04-11T19:05:46.021Z</time></trkpt><trkpt lat="41.8474446" lon="12.2339895"><ele>-3.0</ele><time>2026-04-11T19:05:47.022Z</time></trkpt><trkpt lat="41.847367" lon="12.2340716"><ele>-2.6</ele><time>2026-04-11T19:05:48.022Z</time></trkpt><trkpt lat="41.8472908" lon="12.234154"><ele>-2.1999999999999997</ele><time>2026-04-11T19:05:49.022Z</time></trkpt><trkpt lat="41.8472123" lon="12.2342357"><ele>-1.8</ele><time>2026-04-11T19:05:50.022Z</time></trkpt><trkpt lat="41.847132" lon="12.2343174"><ele>-1.4</ele><time>2026-04-11T19:05:51.021Z</time></trkpt><trkpt lat="41.8470455" lon="12.2343984"><ele>-1.0</ele><time>2026-04-11T19:05:52.022Z</time></trkpt><trkpt lat="41.8469556" lon="12.2344839"><ele>-1.0</ele><time>2026-04-11T19:05:53.022Z</time></trkpt><trkpt lat="41.846864" lon="12.2345716"><ele>-1.0</ele><time>2026-04-11T19:05:54.022Z</time></trkpt><trkpt lat="41.8467755" lon="12.234673"><ele>-1.0</ele><time>2026-04-11T19:05:55.022Z</time></trkpt><trkpt lat="41.8466938" lon="12.2347664"><ele>-1.0</ele><time>2026-04-11T19:05:56.022Z</time></trkpt><trkpt lat="41.8466135" lon="12.2348483"><ele>-1.0</ele><time>2026-04-11T19:05:57.021Z</time></trkpt><trkpt lat="41.8465344" lon="12.2349279"><ele>-1.0</ele><time>2026-04-11T19:05:58.022Z</time></trkpt><trkpt lat="41.8464585" lon="12.2350051"><ele>-1.0</ele><time>2026-04-11T19:05:59.021Z</time></trkpt><trkpt lat="41.8463694" lon="12.2350773"><ele>-1.0</ele><time>2026-04-11T19:06:00.021Z</time></trkpt><trkpt lat="41.8462915" lon="12.235157"><ele>-1.0</ele><time>2026-04-11T19:06:01.021Z</time></trkpt><trkpt lat="41.8462068" lon="12.2352449"><ele>-1.0</ele><time>2026-04-11T19:06:02.021Z</time></trkpt><trkpt lat="41.8461202" lon="12.2353306"><ele>-1.0</ele><time>2026-04-11T19:06:03.022Z</time></trkpt><trkpt lat="41.8460315" lon="12.235422"><ele>-1.0</ele><time>2026-04-11T19:06:04.022Z</time></trkpt><trkpt lat="41.8459434" lon="12.2355137"><ele>-1.0</ele><time>2026-04-11T19:06:05.022Z</time></trkpt><trkpt lat="41.8458493" lon="12.2356059"><ele>-1.0</ele><time>2026-04-11T19:06:06.022Z</time></trkpt><trkpt lat="41.8457592" lon="12.2356961"><ele>-1.2000000000000002</ele><time>2026-04-11T19:06:07.022Z</time></trkpt><trkpt lat="41.845669" lon="12.23579"><ele>-1.4000000000000001</ele><time>2026-04-11T19:06:08.022Z</time></trkpt><trkpt lat="41.8455793" lon="12.2358791"><ele>-1.6</ele><time>2026-04-11T19:06:09.022Z</time></trkpt><trkpt lat="41.8454951" lon="12.235965"><ele>-1.8</ele><time>2026-04-11T19:06:10.022Z</time></trkpt><trkpt lat="41.8454087" lon="12.2360517"><ele>-2.0</ele><time>2026-04-11T19:06:11.021Z</time></trkpt><trkpt lat="41.8453218" lon="12.2361368"><ele>-2.0</ele><time>2026-04-11T19:06:12.021Z</time></trkpt><trkpt lat="41.8452383" lon="12.236228"><ele>-2.0</ele><time>2026-04-11T19:06:13.021Z</time></trkpt><trkpt lat="41.845158" lon="12.2363107"><ele>-2.0</ele><time>2026-04-11T19:06:14.021Z</time></trkpt><trkpt lat="41.8450821" lon="12.2363933"><ele>-2.0</ele><time>2026-04-11T19:06:15.022Z</time></trkpt><trkpt lat="41.845009" lon="12.2364687"><ele>-2.0</ele><time>2026-04-11T19:06:16.021Z</time></trkpt><trkpt lat="41.8449385" lon="12.2365405"><ele>-1.6666666666666665</ele><time>2026-04-11T19:06:17.022Z</time></trkpt><trkpt lat="41.8448701" lon="12.2366119"><ele>-1.3333333333333333</ele><time>2026-04-11T19:06:18.021Z</time></trkpt><trkpt lat="41.8448047" lon="12.2366833"><ele>-1.0</ele><time>2026-04-11T19:06:19.022Z</time></trkpt><trkpt lat="41.8447398" lon="12.2367504"><ele>-0.6666666666666666</ele><time>2026-04-11T19:06:20.021Z</time></trkpt><trkpt lat="41.8446673" lon="12.2368173"><ele>-0.3333333333333333</ele><time>2026-04-11T19:06:21.021Z</time></trkpt><trkpt lat="41.8445919" lon="12.2368832"><ele>0.0</ele><time>2026-04-11T19:06:22.021Z</time></trkpt><trkpt lat="41.8445226" lon="12.2369497"><ele>0.0</ele><time>2026-04-11T19:06:23.022Z</time></trkpt><trkpt lat="41.8444468" lon="12.2370199"><ele>0.0</ele><time>2026-04-11T19:06:24.021Z</time></trkpt><trkpt lat="41.8443803" lon="12.2370937"><ele>0.0</ele><time>2026-04-11T19:06:25.022Z</time></trkpt><trkpt lat="41.8443141" lon="12.2371631"><ele>0.0</ele><time>2026-04-11T19:06:26.021Z</time></trkpt><trkpt lat="41.8442515" lon="12.2372309"><ele>0.0</ele><time>2026-04-11T19:06:27.021Z</time></trkpt><trkpt lat="41.8441878" lon="12.2373015"><ele>0.0</ele><time>2026-04-11T19:06:28.022Z</time></trkpt><trkpt lat="41.8441119" lon="12.2373715"><ele>-0.3333333333333333</ele><time>2026-04-11T19:06:29.021Z</time></trkpt><trkpt lat="41.8440369" lon="12.2374371"><ele>-0.6666666666666666</ele><time>2026-04-11T19:06:30.021Z</time></trkpt><trkpt lat="41.8439657" lon="12.2375044"><ele>-1.0</ele><time>2026-04-11T19:06:31.022Z</time></trkpt><trkpt lat="41.8438934" lon="12.2375698"><ele>-1.3333333333333333</ele><time>2026-04-11T19:06:32.022Z</time></trkpt><trkpt lat="41.8438255" lon="12.2376419"><ele>-1.6666666666666665</ele><time>2026-04-11T19:06:33.021Z</time></trkpt><trkpt lat="41.8437572" lon="12.2377142"><ele>-2.0</ele><time>2026-04-11T19:06:34.022Z</time></trkpt><trkpt lat="41.8436901" lon="12.2377811"><ele>-1.9999999999999998</ele><time>2026-04-11T19:06:35.022Z</time></trkpt><trkpt lat="41.8436179" lon="12.2378513"><ele>-2.0</ele><time>2026-04-11T19:06:36.022Z</time></trkpt><trkpt lat="41.843551" lon="12.2379213"><ele>-2.0</ele><time>2026-04-11T19:06:37.022Z</time></trkpt><trkpt lat="41.8434876" lon="12.2379926"><ele>-2.0</ele><time>2026-04-11T19:06:38.021Z</time></trkpt><trkpt lat="41.843417" lon="12.2380582"><ele>-1.9999999999999998</ele><time>2026-04-11T19:06:39.022Z</time></trkpt><trkpt lat="41.8433497" lon="12.2381273"><ele>-2.0</ele><time>2026-04-11T19:06:40.021Z</time></trkpt><trkpt lat="41.8432757" lon="12.2381949"><ele>-2.1666666666666665</ele><time>2026-04-11T19:06:41.022Z</time></trkpt><trkpt lat="41.8432018" lon="12.2382621"><ele>-2.333333333333333</ele><time>2026-04-11T19:06:42.022Z</time></trkpt><trkpt lat="41.8431267" lon="12.2383309"><ele>-2.5</ele><time>2026-04-11T19:06:43.021Z</time></trkpt><trkpt lat="41.8430558" lon="12.2383991"><ele>-2.6666666666666665</ele><time>2026-04-11T19:06:44.022Z</time></trkpt><trkpt lat="41.8429921" lon="12.2384669"><ele>-2.8333333333333335</ele><time>2026-04-11T19:06:45.022Z</time></trkpt><trkpt lat="41.8429249" lon="12.2385393"><ele>-3.0</ele><time>2026-04-11T19:06:46.022Z</time></trkpt><trkpt lat="41.8427927" lon="12.2386792"><ele>-3.0</ele><time>2026-04-11T19:06:48.022Z</time></trkpt><trkpt lat="41.8427242" lon="12.2387469"><ele>-3.0</ele><time>2026-04-11T19:06:49.022Z</time></trkpt><trkpt lat="41.8426413" lon="12.238824"><ele>-3.0</ele><time>2026-04-11T19:06:50.022Z</time></trkpt><trkpt lat="41.8425527" lon="12.2388985"><ele>-3.0</ele><time>2026-04-11T19:06:51.022Z</time></trkpt><trkpt lat="41.8424724" lon="12.2389592"><ele>-3.0</ele><time>2026-04-11T19:06:52.022Z</time></trkpt><trkpt lat="41.8424028" lon="12.2390334"><ele>-2.8333333333333335</ele><time>2026-04-11T19:06:53.022Z</time></trkpt><trkpt lat="41.8423415" lon="12.2390926"><ele>-2.6666666666666665</ele><time>2026-04-11T19:06:54.022Z</time></trkpt><trkpt lat="41.8422682" lon="12.2391533"><ele>-2.5</ele><time>2026-04-11T19:06:55.022Z</time></trkpt><trkpt lat="41.8421992" lon="12.2392393"><ele>-2.333333333333333</ele><time>2026-04-11T19:06:56.022Z</time></trkpt><trkpt lat="41.8421301" lon="12.2393139"><ele>-2.1666666666666665</ele><time>2026-04-11T19:06:57.022Z</time></trkpt><trkpt lat="41.8420601" lon="12.2393794"><ele>-2.0</ele><time>2026-04-11T19:06:58.021Z</time></trkpt><trkpt lat="41.8419937" lon="12.2394511"><ele>-1.9999999999999998</ele><time>2026-04-11T19:06:59.021Z</time></trkpt><trkpt lat="41.8419288" lon="12.2395216"><ele>-2.0</ele><time>2026-04-11T19:07:00.021Z</time></trkpt><trkpt lat="41.8418618" lon="12.2396003"><ele>-2.0</ele><time>2026-04-11T19:07:01.022Z</time></trkpt><trkpt lat="41.8417951" lon="12.2396739"><ele>-2.0</ele><time>2026-04-11T19:07:02.022Z</time></trkpt><trkpt lat="41.8417213" lon="12.2397471"><ele>-1.9999999999999998</ele><time>2026-04-11T19:07:03.022Z</time></trkpt><trkpt lat="41.8416473" lon="12.239814"><ele>-2.0</ele><time>2026-04-11T19:07:04.022Z</time></trkpt><trkpt lat="41.8415786" lon="12.2398695"><ele>-1.8</ele><time>2026-04-11T19:07:05.022Z</time></trkpt><trkpt lat="41.8415069" lon="12.2399298"><ele>-1.6</ele><time>2026-04-11T19:07:06.022Z</time></trkpt><trkpt lat="41.8414159" lon="12.2400241"><ele>-1.4000000000000001</ele><time>2026-04-11T19:07:07.021Z</time></trkpt><trkpt lat="41.8413431" lon="12.2401053"><ele>-1.2000000000000002</ele><time>2026-04-11T19:07:08.022Z</time></trkpt><trkpt lat="41.8412666" lon="12.2401787"><ele>-1.0</ele><time>2026-04-11T19:07:09.022Z</time></trkpt><trkpt lat="41.8411866" lon="12.2402554"><ele>-1.0</ele><time>2026-04-11T19:07:10.022Z</time></trkpt><trkpt lat="41.8411302" lon="12.2403395"><ele>-1.0</ele><time>2026-04-11T19:07:11.021Z</time></trkpt><trkpt lat="41.8410746" lon="12.2404264"><ele>-1.0</ele><time>2026-04-11T19:07:12.022Z</time></trkpt><trkpt lat="41.8409919" lon="12.2405231"><ele>-1.0</ele><time>2026-04-11T19:07:13.021Z</time></trkpt><trkpt lat="41.8408997" lon="12.2405965"><ele>-1.0</ele><time>2026-04-11T19:07:14.021Z</time></trkpt><trkpt lat="41.840817" lon="12.24067"><ele>-1.0</ele><time>2026-04-11T19:07:15.022Z</time></trkpt><trkpt lat="41.8407358" lon="12.2407436"><ele>-1.0</ele><time>2026-04-11T19:07:16.021Z</time></trkpt><trkpt lat="41.8406613" lon="12.240817"><ele>-1.0</ele><time>2026-04-11T19:07:17.021Z</time></trkpt><trkpt lat="41.8405973" lon="12.2408948"><ele>-1.0</ele><time>2026-04-11T19:07:18.022Z</time></trkpt><trkpt lat="41.8405269" lon="12.2409745"><ele>-1.0</ele><time>2026-04-11T19:07:19.022Z</time></trkpt><trkpt lat="41.8404464" lon="12.2410418"><ele>-1.0</ele><time>2026-04-11T19:07:20.022Z</time></trkpt><trkpt lat="41.8403667" lon="12.2411139"><ele>-1.0</ele><time>2026-04-11T19:07:21.021Z</time></trkpt><trkpt lat="41.8402923" lon="12.2411838"><ele>-1.0</ele><time>2026-04-11T19:07:22.022Z</time></trkpt><trkpt lat="41.8402174" lon="12.2412588"><ele>-1.0</ele><time>2026-04-11T19:07:23.022Z</time></trkpt><trkpt lat="41.8401435" lon="12.2413252"><ele>-1.0</ele><time>2026-04-11T19:07:24.022Z</time></trkpt><trkpt lat="41.8400764" lon="12.2413975"><ele>-0.8</ele><time>2026-04-11T19:07:25.021Z</time></trkpt><trkpt lat="41.8400013" lon="12.2414605"><ele>-0.6000000000000001</ele><time>2026-04-11T19:07:26.022Z</time></trkpt><trkpt lat="41.8399224" lon="12.241536"><ele>-0.4</ele><time>2026-04-11T19:07:27.022Z</time></trkpt><trkpt lat="41.8398436" lon="12.2416123"><ele>-0.2</ele><time>2026-04-11T19:07:28.022Z</time></trkpt><trkpt lat="41.8397646" lon="12.2416926"><ele>0.0</ele><time>2026-04-11T19:07:29.022Z</time></trkpt><trkpt lat="41.8396832" lon="12.2417733"><ele>0.0</ele><time>2026-04-11T19:07:30.022Z</time></trkpt><trkpt lat="41.8396" lon="12.2418503"><ele>0.0</ele><time>2026-04-11T19:07:31.022Z</time></trkpt><trkpt lat="41.8395111" lon="12.241929"><ele>0.0</ele><time>2026-04-11T19:07:32.022Z</time></trkpt><trkpt lat="41.8394181" lon="12.2420194"><ele>0.0</ele><time>2026-04-11T19:07:33.022Z</time></trkpt><trkpt lat="41.8393247" lon="12.2420976"><ele>0.0</ele><time>2026-04-11T19:07:34.022Z</time></trkpt><trkpt lat="41.8392387" lon="12.2421849"><ele>-0.5</ele><time>2026-04-11T19:07:35.021Z</time></trkpt><trkpt lat="41.8391547" lon="12.242281"><ele>-1.0</ele><time>2026-04-11T19:07:36.022Z</time></trkpt><trkpt lat="41.8390649" lon="12.2423865"><ele>-1.5</ele><time>2026-04-11T19:07:37.022Z</time></trkpt><trkpt lat="41.8389679" lon="12.242501"><ele>-2.0</ele><time>2026-04-11T19:07:38.022Z</time></trkpt><trkpt lat="41.8388534" lon="12.2426219"><ele>-2.0</ele><time>2026-04-11T19:07:39.022Z</time></trkpt><trkpt lat="41.8387187" lon="12.2427679"><ele>-2.0</ele><time>2026-04-11T19:07:40.022Z</time></trkpt><trkpt lat="41.8385628" lon="12.2429148"><ele>-2.0</ele><time>2026-04-11T19:07:41.021Z</time></trkpt><trkpt lat="41.8384024" lon="12.2430665"><ele>-2.0</ele><time>2026-04-11T19:07:42.022Z</time></trkpt><trkpt lat="41.8382389" lon="12.2432211"><ele>-2.0</ele><time>2026-04-11T19:07:43.022Z</time></trkpt><trkpt lat="41.8381014" lon="12.2433668"><ele>-2.0</ele><time>2026-04-11T19:07:44.022Z</time></trkpt><trkpt lat="41.8379676" lon="12.2435193"><ele>-2.0</ele><time>2026-04-11T19:07:45.021Z</time></trkpt><trkpt lat="41.8378352" lon="12.2436633"><ele>-2.0</ele><time>2026-04-11T19:07:46.021Z</time></trkpt><trkpt lat="41.8377066" lon="12.2437915"><ele>-2.0</ele><time>2026-04-11T19:07:47.022Z</time></trkpt><trkpt lat="41.837575" lon="12.2439143"><ele>-1.75</ele><time>2026-04-11T19:07:48.021Z</time></trkpt><trkpt lat="41.8374616" lon="12.2440039"><ele>-1.5</ele><time>2026-04-11T19:07:49.022Z</time></trkpt><trkpt lat="41.8373573" lon="12.2441129"><ele>-1.25</ele><time>2026-04-11T19:07:50.021Z</time></trkpt><trkpt lat="41.8372483" lon="12.2442339"><ele>-1.0</ele><time>2026-04-11T19:07:51.021Z</time></trkpt><trkpt lat="41.8371189" lon="12.2443331"><ele>-1.0</ele><time>2026-04-11T19:07:52.022Z</time></trkpt><trkpt lat="41.8370116" lon="12.2444272"><ele>-1.0</ele><time>2026-04-11T19:07:53.021Z</time></trkpt><trkpt lat="41.8369139" lon="12.2445117"><ele>-1.0</ele><time>2026-04-11T19:07:54.021Z</time></trkpt><trkpt lat="41.8368434" lon="12.2445921"><ele>-1.0</ele><time>2026-04-11T19:07:55.022Z</time></trkpt><trkpt lat="41.8367991" lon="12.2446659"><ele>-1.0</ele><time>2026-04-11T19:07:56.022Z</time></trkpt><trkpt lat="41.8367435" lon="12.2447302"><ele>-0.9999999999999999</ele><time>2026-04-11T19:07:57.022Z</time></trkpt><trkpt lat="41.8366631" lon="12.2448125"><ele>-1.0</ele><time>2026-04-11T19:07:59.022Z</time></trkpt><trkpt lat="41.8366115" lon="12.2448673"><ele>-1.0</ele><time>2026-04-11T19:08:03.022Z</time></trkpt><trkpt lat="41.8365367" lon="12.2448348"><ele>-1.0</ele><time>2026-04-11T19:08:10.022Z</time></trkpt><trkpt lat="41.8364716" lon="12.2447509"><ele>-0.9999999999999999</ele><time>2026-04-11T19:08:12.022Z</time></trkpt><trkpt lat="41.8364376" lon="12.2446669"><ele>-1.0</ele><time>2026-04-11T19:08:13.021Z</time></trkpt><trkpt lat="41.8363896" lon="12.2445546"><ele>-0.8</ele><time>2026-04-11T19:08:14.022Z</time></trkpt><trkpt lat="41.8363333" lon="12.2444406"><ele>-0.6000000000000001</ele><time>2026-04-11T19:08:15.021Z</time></trkpt><trkpt lat="41.8362605" lon="12.2443245"><ele>-0.4</ele><time>2026-04-11T19:08:16.022Z</time></trkpt><trkpt lat="41.8361916" lon="12.2442085"><ele>-0.2</ele><time>2026-04-11T19:08:17.022Z</time></trkpt><trkpt lat="41.8361172" lon="12.2441121"><ele>0.0</ele><time>2026-04-11T19:08:18.022Z</time></trkpt><trkpt lat="41.8360312" lon="12.243956"><ele>0.3333333333333333</ele><time>2026-04-11T19:08:19.022Z</time></trkpt><trkpt lat="41.8359616" lon="12.243766"><ele>0.6666666666666666</ele><time>2026-04-11T19:08:20.022Z</time></trkpt><trkpt lat="41.8358727" lon="12.243589"><ele>1.0</ele><time>2026-04-11T19:08:21.021Z</time></trkpt><trkpt lat="41.8357853" lon="12.2434267"><ele>1.0</ele><time>2026-04-11T19:08:22.022Z</time></trkpt><trkpt lat="41.8356838" lon="12.2432637"><ele>1.0</ele><time>2026-04-11T19:08:23.021Z</time></trkpt><trkpt lat="41.8355757" lon="12.2430937"><ele>1.0</ele><time>2026-04-11T19:08:24.021Z</time></trkpt><trkpt lat="41.8354955" lon="12.2429204"><ele>0.3333333333333333</ele><time>2026-04-11T19:08:25.021Z</time></trkpt><trkpt lat="41.835405" lon="12.2427532"><ele>-0.3333333333333333</ele><time>2026-04-11T19:08:26.022Z</time></trkpt><trkpt lat="41.8353026" lon="12.2425856"><ele>-1.0</ele><time>2026-04-11T19:08:27.021Z</time></trkpt><trkpt lat="41.8352315" lon="12.2424218"><ele>-1.0</ele><time>2026-04-11T19:08:28.022Z</time></trkpt><trkpt lat="41.8351308" lon="12.2422581"><ele>-1.0</ele><time>2026-04-11T19:08:29.022Z</time></trkpt><trkpt lat="41.8350373" lon="12.2420977"><ele>-1.0</ele><time>2026-04-11T19:08:30.021Z</time></trkpt><trkpt lat="41.8349465" lon="12.2419317"><ele>-1.0</ele><time>2026-04-11T19:08:31.022Z</time></trkpt><trkpt lat="41.8348454" lon="12.2417639"><ele>-1.0</ele><time>2026-04-11T19:08:32.022Z</time></trkpt><trkpt lat="41.834751" lon="12.2415987"><ele>-1.0</ele><time>2026-04-11T19:08:33.022Z</time></trkpt><trkpt lat="41.8346554" lon="12.2414327"><ele>-0.6666666666666666</ele><time>2026-04-11T19:08:34.022Z</time></trkpt><trkpt lat="41.8345543" lon="12.2412548"><ele>-0.3333333333333333</ele><time>2026-04-11T19:08:35.021Z</time></trkpt><trkpt lat="41.8344603" lon="12.2410973"><ele>0.0</ele><time>2026-04-11T19:08:36.022Z</time></trkpt><trkpt lat="41.8343625" lon="12.2409225"><ele>1.0</ele><time>2026-04-11T19:08:37.022Z</time></trkpt><trkpt lat="41.8342694" lon="12.2407231"><ele>2.0</ele><time>2026-04-11T19:08:38.022Z</time></trkpt><trkpt lat="41.8341747" lon="12.2405317"><ele>3.0</ele><time>2026-04-11T19:08:39.022Z</time></trkpt><trkpt lat="41.8340798" lon="12.2403502"><ele>2.6666666666666665</ele><time>2026-04-11T19:08:40.021Z</time></trkpt><trkpt lat="41.8339696" lon="12.2401604"><ele>2.333333333333333</ele><time>2026-04-11T19:08:41.022Z</time></trkpt><trkpt lat="41.8338596" lon="12.2399836"><ele>2.0</ele><time>2026-04-11T19:08:42.022Z</time></trkpt><trkpt lat="41.8337511" lon="12.2397936"><ele>2.0</ele><time>2026-04-11T19:08:43.022Z</time></trkpt><trkpt lat="41.8336429" lon="12.2395968"><ele>2.0</ele><time>2026-04-11T19:08:44.021Z</time></trkpt><trkpt lat="41.8335283" lon="12.2393967"><ele>2.0</ele><time>2026-04-11T19:08:45.021Z</time></trkpt><trkpt lat="41.8334142" lon="12.2391942"><ele>1.6666666666666665</ele><time>2026-04-11T19:08:46.022Z</time></trkpt><trkpt lat="41.8332923" lon="12.2389865"><ele>1.3333333333333333</ele><time>2026-04-11T19:08:47.021Z</time></trkpt><trkpt lat="41.8331718" lon="12.2387724"><ele>1.0</ele><time>2026-04-11T19:08:48.021Z</time></trkpt><trkpt lat="41.8330598" lon="12.2385651"><ele>1.0</ele><time>2026-04-11T19:08:49.022Z</time></trkpt><trkpt lat="41.8329405" lon="12.2383514"><ele>1.0</ele><time>2026-04-11T19:08:50.021Z</time></trkpt><trkpt lat="41.8328199" lon="12.2381332"><ele>1.0</ele><time>2026-04-11T19:08:51.022Z</time></trkpt><trkpt lat="41.8326933" lon="12.2379231"><ele>1.3333333333333333</ele><time>2026-04-11T19:08:52.022Z</time></trkpt><trkpt lat="41.8325614" lon="12.2377132"><ele>1.6666666666666665</ele><time>2026-04-11T19:08:53.021Z</time></trkpt><trkpt lat="41.832454" lon="12.2375007"><ele>2.0</ele><time>2026-04-11T19:08:54.021Z</time></trkpt><trkpt lat="41.8323331" lon="12.2372885"><ele>2.0</ele><time>2026-04-11T19:08:55.021Z</time></trkpt><trkpt lat="41.8322183" lon="12.2370909"><ele>2.0</ele><time>2026-04-11T19:08:56.021Z</time></trkpt><trkpt lat="41.8321201" lon="12.2369"><ele>2.0</ele><time>2026-04-11T19:08:57.022Z</time></trkpt><trkpt lat="41.8320106" lon="12.2367015"><ele>2.0</ele><time>2026-04-11T19:08:58.022Z</time></trkpt><trkpt lat="41.8319004" lon="12.2365028"><ele>2.0</ele><time>2026-04-11T19:08:59.022Z</time></trkpt><trkpt lat="41.8317911" lon="12.2363039"><ele>2.0</ele><time>2026-04-11T19:09:00.021Z</time></trkpt><trkpt lat="41.8316846" lon="12.2361085"><ele>3.333333333333333</ele><time>2026-04-11T19:09:01.022Z</time></trkpt><trkpt lat="41.831581" lon="12.2359209"><ele>4.666666666666667</ele><time>2026-04-11T19:09:02.021Z</time></trkpt><trkpt lat="41.8314885" lon="12.2357392"><ele>6.0</ele><time>2026-04-11T19:09:03.022Z</time></trkpt><trkpt lat="41.8313654" lon="12.2355519"><ele>6.0</ele><time>2026-04-11T19:09:04.021Z</time></trkpt><trkpt lat="41.8312495" lon="12.2353911"><ele>6.0</ele><time>2026-04-11T19:09:05.021Z</time></trkpt><trkpt lat="41.8311571" lon="12.235244"><ele>6.0</ele><time>2026-04-11T19:09:06.021Z</time></trkpt><trkpt lat="41.8310951" lon="12.235106"><ele>6.0</ele><time>2026-04-11T19:09:07.021Z</time></trkpt></trkseg></trk></gpx>